<?xml version="1.0" encoding="UTF-8" standalone="no" ?>
<gpx xmlns="http://www.topografix.com/GPX/1/1" xmlns:xsi="http://www.w3.org/2001/XMLSchema-instance" xsi:schemaLocation="http://www.topografix.com/GPX/1/1 http://www.topografix.com/GPX/1/1/gpx.xsd" version="1.1" creator="VisuGPX - https://www.visugpx.com">
  <metadata>
    <name>GrandTourBesançon 1 Chaleze Nancray Champlive Amagney et retour</name>
    <desc><![CDATA[GrandTourBesançon Chaleze Nancray Champlive Amagney et retour]]></desc>
  </metadata>
  <trk>
    <name><![CDATA[GrandTourBesançon 1 Chaleze Nancray Champlive Amagney et retour_1]]></name>
    <trkseg>
      <trkpt lat="47.22955" lon="6.04787">
        <ele>285.8</ele>
        <time>2024-07-31T06:25:56Z</time>
      </trkpt>
      <trkpt lat="47.22955" lon="6.0479">
        <ele>285.8</ele>
        <time>2024-07-31T06:25:58Z</time>
      </trkpt>
      <trkpt lat="47.22955" lon="6.04789">
        <ele>285.6</ele>
        <time>2024-07-31T06:25:59Z</time>
      </trkpt>
      <trkpt lat="47.22955" lon="6.0479">
        <ele>286.6</ele>
        <time>2024-07-31T06:26:00Z</time>
      </trkpt>
      <trkpt lat="47.22955" lon="6.04789">
        <ele>287.2</ele>
        <time>2024-07-31T06:26:01Z</time>
      </trkpt>
      <trkpt lat="47.22954" lon="6.04786">
        <ele>288</ele>
        <time>2024-07-31T06:26:02Z</time>
      </trkpt>
      <trkpt lat="47.22954" lon="6.04785">
        <ele>288.6</ele>
        <time>2024-07-31T06:26:03Z</time>
      </trkpt>
      <trkpt lat="47.22954" lon="6.04785">
        <ele>289.4</ele>
        <time>2024-07-31T06:26:04Z</time>
      </trkpt>
      <trkpt lat="47.22954" lon="6.04784">
        <ele>289.8</ele>
        <time>2024-07-31T06:26:05Z</time>
      </trkpt>
      <trkpt lat="47.22953" lon="6.04784">
        <ele>290.6</ele>
        <time>2024-07-31T06:26:06Z</time>
      </trkpt>
      <trkpt lat="47.22953" lon="6.04784">
        <ele>291</ele>
        <time>2024-07-31T06:26:07Z</time>
      </trkpt>
      <trkpt lat="47.22953" lon="6.04784">
        <ele>291.6</ele>
        <time>2024-07-31T06:26:08Z</time>
      </trkpt>
      <trkpt lat="47.22953" lon="6.04784">
        <ele>291.6</ele>
        <time>2024-07-31T06:26:09Z</time>
      </trkpt>
      <trkpt lat="47.22953" lon="6.04783">
        <ele>292.2</ele>
        <time>2024-07-31T06:26:10Z</time>
      </trkpt>
      <trkpt lat="47.22953" lon="6.04784">
        <ele>292.6</ele>
        <time>2024-07-31T06:26:11Z</time>
      </trkpt>
      <trkpt lat="47.22953" lon="6.04784">
        <ele>293.4</ele>
        <time>2024-07-31T06:26:12Z</time>
      </trkpt>
      <trkpt lat="47.22953" lon="6.04784">
        <ele>293.8</ele>
        <time>2024-07-31T06:26:13Z</time>
      </trkpt>
      <trkpt lat="47.22953" lon="6.04784">
        <ele>294.4</ele>
        <time>2024-07-31T06:26:14Z</time>
      </trkpt>
      <trkpt lat="47.22953" lon="6.04784">
        <ele>294.8</ele>
        <time>2024-07-31T06:26:15Z</time>
      </trkpt>
      <trkpt lat="47.22953" lon="6.04784">
        <ele>295.2</ele>
        <time>2024-07-31T06:26:16Z</time>
      </trkpt>
      <trkpt lat="47.22953" lon="6.04784">
        <ele>295.6</ele>
        <time>2024-07-31T06:26:17Z</time>
      </trkpt>
      <trkpt lat="47.22954" lon="6.04785">
        <ele>295.8</ele>
        <time>2024-07-31T06:26:18Z</time>
      </trkpt>
      <trkpt lat="47.22954" lon="6.04785">
        <ele>296.4</ele>
        <time>2024-07-31T06:26:19Z</time>
      </trkpt>
      <trkpt lat="47.22954" lon="6.04785">
        <ele>297</ele>
        <time>2024-07-31T06:26:20Z</time>
      </trkpt>
      <trkpt lat="47.22954" lon="6.04785">
        <ele>297.2</ele>
        <time>2024-07-31T06:26:21Z</time>
      </trkpt>
      <trkpt lat="47.22954" lon="6.04785">
        <ele>297.4</ele>
        <time>2024-07-31T06:26:22Z</time>
      </trkpt>
      <trkpt lat="47.22954" lon="6.04785">
        <ele>297.8</ele>
        <time>2024-07-31T06:26:23Z</time>
      </trkpt>
      <trkpt lat="47.22954" lon="6.04785">
        <ele>298.2</ele>
        <time>2024-07-31T06:26:24Z</time>
      </trkpt>
      <trkpt lat="47.22954" lon="6.04785">
        <ele>298.6</ele>
        <time>2024-07-31T06:26:25Z</time>
      </trkpt>
      <trkpt lat="47.22954" lon="6.04785">
        <ele>298.8</ele>
        <time>2024-07-31T06:26:26Z</time>
      </trkpt>
      <trkpt lat="47.22954" lon="6.04785">
        <ele>299</ele>
        <time>2024-07-31T06:26:27Z</time>
      </trkpt>
      <trkpt lat="47.22954" lon="6.04785">
        <ele>299.4</ele>
        <time>2024-07-31T06:26:28Z</time>
      </trkpt>
      <trkpt lat="47.22954" lon="6.04785">
        <ele>299.6</ele>
        <time>2024-07-31T06:26:29Z</time>
      </trkpt>
      <trkpt lat="47.22954" lon="6.04785">
        <ele>300</ele>
        <time>2024-07-31T06:26:30Z</time>
      </trkpt>
      <trkpt lat="47.22954" lon="6.04785">
        <ele>300</ele>
        <time>2024-07-31T06:26:31Z</time>
      </trkpt>
      <trkpt lat="47.22954" lon="6.04785">
        <ele>300.2</ele>
        <time>2024-07-31T06:26:32Z</time>
      </trkpt>
      <trkpt lat="47.22954" lon="6.04785">
        <ele>300.4</ele>
        <time>2024-07-31T06:26:33Z</time>
      </trkpt>
      <trkpt lat="47.22954" lon="6.04785">
        <ele>300.8</ele>
        <time>2024-07-31T06:26:34Z</time>
      </trkpt>
      <trkpt lat="47.22954" lon="6.04785">
        <ele>301</ele>
        <time>2024-07-31T06:26:35Z</time>
      </trkpt>
      <trkpt lat="47.22954" lon="6.04785">
        <ele>301.2</ele>
        <time>2024-07-31T06:26:36Z</time>
      </trkpt>
      <trkpt lat="47.22954" lon="6.04784">
        <ele>301.6</ele>
        <time>2024-07-31T06:26:37Z</time>
      </trkpt>
      <trkpt lat="47.22954" lon="6.04784">
        <ele>301.6</ele>
        <time>2024-07-31T06:26:38Z</time>
      </trkpt>
      <trkpt lat="47.22954" lon="6.04784">
        <ele>301.8</ele>
        <time>2024-07-31T06:26:39Z</time>
      </trkpt>
      <trkpt lat="47.22953" lon="6.04784">
        <ele>302</ele>
        <time>2024-07-31T06:26:40Z</time>
      </trkpt>
      <trkpt lat="47.22953" lon="6.04784">
        <ele>302.4</ele>
        <time>2024-07-31T06:26:41Z</time>
      </trkpt>
      <trkpt lat="47.22953" lon="6.04784">
        <ele>302.4</ele>
        <time>2024-07-31T06:26:42Z</time>
      </trkpt>
      <trkpt lat="47.22953" lon="6.04784">
        <ele>302.6</ele>
        <time>2024-07-31T06:26:43Z</time>
      </trkpt>
      <trkpt lat="47.22953" lon="6.04784">
        <ele>302.8</ele>
        <time>2024-07-31T06:26:44Z</time>
      </trkpt>
      <trkpt lat="47.22953" lon="6.04784">
        <ele>302.8</ele>
        <time>2024-07-31T06:26:45Z</time>
      </trkpt>
      <trkpt lat="47.22953" lon="6.04785">
        <ele>303</ele>
        <time>2024-07-31T06:26:46Z</time>
      </trkpt>
      <trkpt lat="47.22953" lon="6.04785">
        <ele>303.2</ele>
        <time>2024-07-31T06:26:47Z</time>
      </trkpt>
      <trkpt lat="47.22953" lon="6.04785">
        <ele>303.4</ele>
        <time>2024-07-31T06:26:48Z</time>
      </trkpt>
      <trkpt lat="47.22953" lon="6.04785">
        <ele>303.4</ele>
        <time>2024-07-31T06:26:49Z</time>
      </trkpt>
      <trkpt lat="47.22953" lon="6.04785">
        <ele>303.6</ele>
        <time>2024-07-31T06:26:50Z</time>
      </trkpt>
      <trkpt lat="47.22953" lon="6.04785">
        <ele>303.8</ele>
        <time>2024-07-31T06:26:51Z</time>
      </trkpt>
      <trkpt lat="47.22953" lon="6.04785">
        <ele>303.8</ele>
        <time>2024-07-31T06:26:52Z</time>
      </trkpt>
      <trkpt lat="47.22953" lon="6.04785">
        <ele>303.8</ele>
        <time>2024-07-31T06:26:53Z</time>
      </trkpt>
      <trkpt lat="47.22953" lon="6.04785">
        <ele>304</ele>
        <time>2024-07-31T06:26:54Z</time>
      </trkpt>
      <trkpt lat="47.22953" lon="6.04785">
        <ele>304</ele>
        <time>2024-07-31T06:26:55Z</time>
      </trkpt>
      <trkpt lat="47.22953" lon="6.04785">
        <ele>304.2</ele>
        <time>2024-07-31T06:26:56Z</time>
      </trkpt>
      <trkpt lat="47.22953" lon="6.04785">
        <ele>304.6</ele>
        <time>2024-07-31T06:26:57Z</time>
      </trkpt>
      <trkpt lat="47.22953" lon="6.04785">
        <ele>304.6</ele>
        <time>2024-07-31T06:26:58Z</time>
      </trkpt>
      <trkpt lat="47.22953" lon="6.04785">
        <ele>304.6</ele>
        <time>2024-07-31T06:26:59Z</time>
      </trkpt>
      <trkpt lat="47.22953" lon="6.04785">
        <ele>304.6</ele>
        <time>2024-07-31T06:27:00Z</time>
      </trkpt>
      <trkpt lat="47.22953" lon="6.04785">
        <ele>305</ele>
        <time>2024-07-31T06:27:01Z</time>
      </trkpt>
      <trkpt lat="47.22953" lon="6.04785">
        <ele>305</ele>
        <time>2024-07-31T06:27:02Z</time>
      </trkpt>
      <trkpt lat="47.22953" lon="6.04785">
        <ele>305</ele>
        <time>2024-07-31T06:27:03Z</time>
      </trkpt>
      <trkpt lat="47.22953" lon="6.04785">
        <ele>305.2</ele>
        <time>2024-07-31T06:27:04Z</time>
      </trkpt>
      <trkpt lat="47.22953" lon="6.04785">
        <ele>305.2</ele>
        <time>2024-07-31T06:27:05Z</time>
      </trkpt>
      <trkpt lat="47.22953" lon="6.04785">
        <ele>305.4</ele>
        <time>2024-07-31T06:27:06Z</time>
      </trkpt>
      <trkpt lat="47.22953" lon="6.04785">
        <ele>305.4</ele>
        <time>2024-07-31T06:27:07Z</time>
      </trkpt>
      <trkpt lat="47.22953" lon="6.04785">
        <ele>305.6</ele>
        <time>2024-07-31T06:27:08Z</time>
      </trkpt>
      <trkpt lat="47.22953" lon="6.04785">
        <ele>305.6</ele>
        <time>2024-07-31T06:27:09Z</time>
      </trkpt>
      <trkpt lat="47.22953" lon="6.04785">
        <ele>305.6</ele>
        <time>2024-07-31T06:27:10Z</time>
      </trkpt>
      <trkpt lat="47.22953" lon="6.04785">
        <ele>305.8</ele>
        <time>2024-07-31T06:27:11Z</time>
      </trkpt>
      <trkpt lat="47.22953" lon="6.04785">
        <ele>306</ele>
        <time>2024-07-31T06:27:12Z</time>
      </trkpt>
      <trkpt lat="47.22953" lon="6.04785">
        <ele>306</ele>
        <time>2024-07-31T06:27:13Z</time>
      </trkpt>
      <trkpt lat="47.22953" lon="6.04785">
        <ele>306</ele>
        <time>2024-07-31T06:27:14Z</time>
      </trkpt>
      <trkpt lat="47.22953" lon="6.04785">
        <ele>306</ele>
        <time>2024-07-31T06:27:15Z</time>
      </trkpt>
      <trkpt lat="47.22953" lon="6.04785">
        <ele>306</ele>
        <time>2024-07-31T06:27:16Z</time>
      </trkpt>
      <trkpt lat="47.22953" lon="6.04785">
        <ele>306</ele>
        <time>2024-07-31T06:27:17Z</time>
      </trkpt>
      <trkpt lat="47.22953" lon="6.04784">
        <ele>306</ele>
        <time>2024-07-31T06:27:18Z</time>
      </trkpt>
      <trkpt lat="47.22953" lon="6.04783">
        <ele>306.2</ele>
        <time>2024-07-31T06:27:19Z</time>
      </trkpt>
      <trkpt lat="47.22953" lon="6.04783">
        <ele>306</ele>
        <time>2024-07-31T06:27:20Z</time>
      </trkpt>
      <trkpt lat="47.22953" lon="6.04782">
        <ele>306</ele>
        <time>2024-07-31T06:27:21Z</time>
      </trkpt>
      <trkpt lat="47.22953" lon="6.04782">
        <ele>306.2</ele>
        <time>2024-07-31T06:27:22Z</time>
      </trkpt>
      <trkpt lat="47.22952" lon="6.04781">
        <ele>306.2</ele>
        <time>2024-07-31T06:27:23Z</time>
      </trkpt>
      <trkpt lat="47.22952" lon="6.0478">
        <ele>306</ele>
        <time>2024-07-31T06:27:24Z</time>
      </trkpt>
      <trkpt lat="47.22951" lon="6.04779">
        <ele>305.6</ele>
        <time>2024-07-31T06:27:25Z</time>
      </trkpt>
      <trkpt lat="47.2295" lon="6.04777">
        <ele>305.6</ele>
        <time>2024-07-31T06:27:26Z</time>
      </trkpt>
      <trkpt lat="47.22949" lon="6.04775">
        <ele>305.6</ele>
        <time>2024-07-31T06:27:27Z</time>
      </trkpt>
      <trkpt lat="47.22949" lon="6.04773">
        <ele>305.6</ele>
        <time>2024-07-31T06:27:28Z</time>
      </trkpt>
      <trkpt lat="47.2295" lon="6.04771">
        <ele>305.4</ele>
        <time>2024-07-31T06:27:29Z</time>
      </trkpt>
      <trkpt lat="47.2295" lon="6.04768">
        <ele>305.4</ele>
        <time>2024-07-31T06:27:30Z</time>
      </trkpt>
      <trkpt lat="47.22949" lon="6.04766">
        <ele>305.2</ele>
        <time>2024-07-31T06:27:31Z</time>
      </trkpt>
      <trkpt lat="47.22949" lon="6.04764">
        <ele>305</ele>
        <time>2024-07-31T06:27:32Z</time>
      </trkpt>
      <trkpt lat="47.22948" lon="6.04762">
        <ele>305.2</ele>
        <time>2024-07-31T06:27:33Z</time>
      </trkpt>
      <trkpt lat="47.22947" lon="6.04758">
        <ele>305</ele>
        <time>2024-07-31T06:27:34Z</time>
      </trkpt>
      <trkpt lat="47.22946" lon="6.04754">
        <ele>304.6</ele>
        <time>2024-07-31T06:27:35Z</time>
      </trkpt>
      <trkpt lat="47.22945" lon="6.0475">
        <ele>304</ele>
        <time>2024-07-31T06:27:36Z</time>
      </trkpt>
      <trkpt lat="47.22944" lon="6.04745">
        <ele>304</ele>
        <time>2024-07-31T06:27:37Z</time>
      </trkpt>
      <trkpt lat="47.22942" lon="6.04739">
        <ele>303.4</ele>
        <time>2024-07-31T06:27:38Z</time>
      </trkpt>
      <trkpt lat="47.2294" lon="6.04733">
        <ele>302.8</ele>
        <time>2024-07-31T06:27:39Z</time>
      </trkpt>
      <trkpt lat="47.22937" lon="6.04725">
        <ele>302.2</ele>
        <time>2024-07-31T06:27:40Z</time>
      </trkpt>
      <trkpt lat="47.22934" lon="6.04717">
        <ele>301.2</ele>
        <time>2024-07-31T06:27:41Z</time>
      </trkpt>
      <trkpt lat="47.22931" lon="6.04707">
        <ele>299.8</ele>
        <time>2024-07-31T06:27:42Z</time>
      </trkpt>
      <trkpt lat="47.22927" lon="6.04697">
        <ele>298.2</ele>
        <time>2024-07-31T06:27:43Z</time>
      </trkpt>
      <trkpt lat="47.22923" lon="6.04687">
        <ele>297</ele>
        <time>2024-07-31T06:27:44Z</time>
      </trkpt>
      <trkpt lat="47.22919" lon="6.04675">
        <ele>296</ele>
        <time>2024-07-31T06:27:45Z</time>
      </trkpt>
      <trkpt lat="47.22914" lon="6.04663">
        <ele>294.4</ele>
        <time>2024-07-31T06:27:46Z</time>
      </trkpt>
      <trkpt lat="47.22909" lon="6.04651">
        <ele>292.8</ele>
        <time>2024-07-31T06:27:47Z</time>
      </trkpt>
      <trkpt lat="47.22903" lon="6.04638">
        <ele>291.2</ele>
        <time>2024-07-31T06:27:48Z</time>
      </trkpt>
      <trkpt lat="47.22899" lon="6.04625">
        <ele>290.2</ele>
        <time>2024-07-31T06:27:49Z</time>
      </trkpt>
      <trkpt lat="47.22896" lon="6.0461">
        <ele>289.6</ele>
        <time>2024-07-31T06:27:50Z</time>
      </trkpt>
      <trkpt lat="47.22894" lon="6.04595">
        <ele>289.4</ele>
        <time>2024-07-31T06:27:51Z</time>
      </trkpt>
      <trkpt lat="47.22893" lon="6.0458">
        <ele>289.2</ele>
        <time>2024-07-31T06:27:52Z</time>
      </trkpt>
      <trkpt lat="47.22892" lon="6.04564">
        <ele>289</ele>
        <time>2024-07-31T06:27:53Z</time>
      </trkpt>
      <trkpt lat="47.22891" lon="6.04549">
        <ele>288.4</ele>
        <time>2024-07-31T06:27:54Z</time>
      </trkpt>
      <trkpt lat="47.2289" lon="6.04535">
        <ele>287.8</ele>
        <time>2024-07-31T06:27:55Z</time>
      </trkpt>
      <trkpt lat="47.22889" lon="6.04521">
        <ele>287.6</ele>
        <time>2024-07-31T06:27:56Z</time>
      </trkpt>
      <trkpt lat="47.2289" lon="6.04507">
        <ele>287.4</ele>
        <time>2024-07-31T06:27:57Z</time>
      </trkpt>
      <trkpt lat="47.22892" lon="6.04496">
        <ele>287.8</ele>
        <time>2024-07-31T06:27:58Z</time>
      </trkpt>
      <trkpt lat="47.22894" lon="6.04484">
        <ele>288</ele>
        <time>2024-07-31T06:27:59Z</time>
      </trkpt>
      <trkpt lat="47.22897" lon="6.04474">
        <ele>288.2</ele>
        <time>2024-07-31T06:28:00Z</time>
      </trkpt>
      <trkpt lat="47.22898" lon="6.04464">
        <ele>288.4</ele>
        <time>2024-07-31T06:28:01Z</time>
      </trkpt>
      <trkpt lat="47.22898" lon="6.04452">
        <ele>288.2</ele>
        <time>2024-07-31T06:28:02Z</time>
      </trkpt>
      <trkpt lat="47.22897" lon="6.04441">
        <ele>287.8</ele>
        <time>2024-07-31T06:28:03Z</time>
      </trkpt>
      <trkpt lat="47.22896" lon="6.04429">
        <ele>286.8</ele>
        <time>2024-07-31T06:28:04Z</time>
      </trkpt>
      <trkpt lat="47.22894" lon="6.04416">
        <ele>285.6</ele>
        <time>2024-07-31T06:28:05Z</time>
      </trkpt>
      <trkpt lat="47.22892" lon="6.04404">
        <ele>284.4</ele>
        <time>2024-07-31T06:28:06Z</time>
      </trkpt>
      <trkpt lat="47.22891" lon="6.04392">
        <ele>283</ele>
        <time>2024-07-31T06:28:07Z</time>
      </trkpt>
      <trkpt lat="47.22889" lon="6.04379">
        <ele>281.6</ele>
        <time>2024-07-31T06:28:08Z</time>
      </trkpt>
      <trkpt lat="47.22888" lon="6.04365">
        <ele>280.2</ele>
        <time>2024-07-31T06:28:09Z</time>
      </trkpt>
      <trkpt lat="47.22887" lon="6.04351">
        <ele>279</ele>
        <time>2024-07-31T06:28:10Z</time>
      </trkpt>
      <trkpt lat="47.22887" lon="6.04337">
        <ele>277.8</ele>
        <time>2024-07-31T06:28:11Z</time>
      </trkpt>
      <trkpt lat="47.22887" lon="6.04323">
        <ele>276.8</ele>
        <time>2024-07-31T06:28:12Z</time>
      </trkpt>
      <trkpt lat="47.22888" lon="6.0431">
        <ele>275.6</ele>
        <time>2024-07-31T06:28:13Z</time>
      </trkpt>
      <trkpt lat="47.2289" lon="6.04296">
        <ele>274.8</ele>
        <time>2024-07-31T06:28:14Z</time>
      </trkpt>
      <trkpt lat="47.22893" lon="6.04284">
        <ele>274.2</ele>
        <time>2024-07-31T06:28:15Z</time>
      </trkpt>
      <trkpt lat="47.22896" lon="6.04271">
        <ele>273.2</ele>
        <time>2024-07-31T06:28:16Z</time>
      </trkpt>
      <trkpt lat="47.22901" lon="6.04259">
        <ele>272.4</ele>
        <time>2024-07-31T06:28:17Z</time>
      </trkpt>
      <trkpt lat="47.22905" lon="6.04248">
        <ele>271.6</ele>
        <time>2024-07-31T06:28:18Z</time>
      </trkpt>
      <trkpt lat="47.2291" lon="6.04239">
        <ele>270.8</ele>
        <time>2024-07-31T06:28:19Z</time>
      </trkpt>
      <trkpt lat="47.22914" lon="6.0423">
        <ele>270.4</ele>
        <time>2024-07-31T06:28:20Z</time>
      </trkpt>
      <trkpt lat="47.22918" lon="6.04222">
        <ele>270.4</ele>
        <time>2024-07-31T06:28:21Z</time>
      </trkpt>
      <trkpt lat="47.22921" lon="6.04214">
        <ele>269.6</ele>
        <time>2024-07-31T06:28:22Z</time>
      </trkpt>
      <trkpt lat="47.22923" lon="6.04208">
        <ele>269</ele>
        <time>2024-07-31T06:28:23Z</time>
      </trkpt>
      <trkpt lat="47.22924" lon="6.04202">
        <ele>268.2</ele>
        <time>2024-07-31T06:28:24Z</time>
      </trkpt>
      <trkpt lat="47.22923" lon="6.04199">
        <ele>267.6</ele>
        <time>2024-07-31T06:28:25Z</time>
      </trkpt>
      <trkpt lat="47.2292" lon="6.04198">
        <ele>267.4</ele>
        <time>2024-07-31T06:28:26Z</time>
      </trkpt>
      <trkpt lat="47.22916" lon="6.042">
        <ele>267</ele>
        <time>2024-07-31T06:28:27Z</time>
      </trkpt>
      <trkpt lat="47.22913" lon="6.04205">
        <ele>266.6</ele>
        <time>2024-07-31T06:28:28Z</time>
      </trkpt>
      <trkpt lat="47.2291" lon="6.0421">
        <ele>266.2</ele>
        <time>2024-07-31T06:28:29Z</time>
      </trkpt>
      <trkpt lat="47.22906" lon="6.04216">
        <ele>266.2</ele>
        <time>2024-07-31T06:28:30Z</time>
      </trkpt>
      <trkpt lat="47.22902" lon="6.04222">
        <ele>266</ele>
        <time>2024-07-31T06:28:31Z</time>
      </trkpt>
      <trkpt lat="47.22899" lon="6.04229">
        <ele>266</ele>
        <time>2024-07-31T06:28:32Z</time>
      </trkpt>
      <trkpt lat="47.22896" lon="6.04235">
        <ele>266</ele>
        <time>2024-07-31T06:28:33Z</time>
      </trkpt>
      <trkpt lat="47.22893" lon="6.04242">
        <ele>266</ele>
        <time>2024-07-31T06:28:34Z</time>
      </trkpt>
      <trkpt lat="47.2289" lon="6.04248">
        <ele>265.8</ele>
        <time>2024-07-31T06:28:35Z</time>
      </trkpt>
      <trkpt lat="47.22886" lon="6.04254">
        <ele>265.8</ele>
        <time>2024-07-31T06:28:36Z</time>
      </trkpt>
      <trkpt lat="47.22883" lon="6.0426">
        <ele>265.6</ele>
        <time>2024-07-31T06:28:37Z</time>
      </trkpt>
      <trkpt lat="47.22879" lon="6.04266">
        <ele>265.6</ele>
        <time>2024-07-31T06:28:38Z</time>
      </trkpt>
      <trkpt lat="47.22876" lon="6.04273">
        <ele>265.6</ele>
        <time>2024-07-31T06:28:39Z</time>
      </trkpt>
      <trkpt lat="47.22873" lon="6.04279">
        <ele>265.6</ele>
        <time>2024-07-31T06:28:40Z</time>
      </trkpt>
      <trkpt lat="47.2287" lon="6.04286">
        <ele>265.4</ele>
        <time>2024-07-31T06:28:41Z</time>
      </trkpt>
      <trkpt lat="47.22868" lon="6.04293">
        <ele>265.2</ele>
        <time>2024-07-31T06:28:42Z</time>
      </trkpt>
      <trkpt lat="47.22865" lon="6.043">
        <ele>265.2</ele>
        <time>2024-07-31T06:28:43Z</time>
      </trkpt>
      <trkpt lat="47.22862" lon="6.04307">
        <ele>265.4</ele>
        <time>2024-07-31T06:28:44Z</time>
      </trkpt>
      <trkpt lat="47.2286" lon="6.04313">
        <ele>265.6</ele>
        <time>2024-07-31T06:28:45Z</time>
      </trkpt>
      <trkpt lat="47.22857" lon="6.0432">
        <ele>265.8</ele>
        <time>2024-07-31T06:28:46Z</time>
      </trkpt>
      <trkpt lat="47.22854" lon="6.04327">
        <ele>265.4</ele>
        <time>2024-07-31T06:28:47Z</time>
      </trkpt>
      <trkpt lat="47.22851" lon="6.04334">
        <ele>265.6</ele>
        <time>2024-07-31T06:28:48Z</time>
      </trkpt>
      <trkpt lat="47.22848" lon="6.0434">
        <ele>265.4</ele>
        <time>2024-07-31T06:28:49Z</time>
      </trkpt>
      <trkpt lat="47.22845" lon="6.04347">
        <ele>265.2</ele>
        <time>2024-07-31T06:28:50Z</time>
      </trkpt>
      <trkpt lat="47.22841" lon="6.04353">
        <ele>265.4</ele>
        <time>2024-07-31T06:28:51Z</time>
      </trkpt>
      <trkpt lat="47.22838" lon="6.04359">
        <ele>265.8</ele>
        <time>2024-07-31T06:28:52Z</time>
      </trkpt>
      <trkpt lat="47.22835" lon="6.04365">
        <ele>265.8</ele>
        <time>2024-07-31T06:28:53Z</time>
      </trkpt>
      <trkpt lat="47.22832" lon="6.04371">
        <ele>265.8</ele>
        <time>2024-07-31T06:28:54Z</time>
      </trkpt>
      <trkpt lat="47.22828" lon="6.04377">
        <ele>265.6</ele>
        <time>2024-07-31T06:28:55Z</time>
      </trkpt>
      <trkpt lat="47.22826" lon="6.04385">
        <ele>265.4</ele>
        <time>2024-07-31T06:28:56Z</time>
      </trkpt>
      <trkpt lat="47.22823" lon="6.04392">
        <ele>265.2</ele>
        <time>2024-07-31T06:28:57Z</time>
      </trkpt>
      <trkpt lat="47.2282" lon="6.04398">
        <ele>264.8</ele>
        <time>2024-07-31T06:28:58Z</time>
      </trkpt>
      <trkpt lat="47.22817" lon="6.04405">
        <ele>264.6</ele>
        <time>2024-07-31T06:28:59Z</time>
      </trkpt>
      <trkpt lat="47.22813" lon="6.04412">
        <ele>264.6</ele>
        <time>2024-07-31T06:29:00Z</time>
      </trkpt>
      <trkpt lat="47.2281" lon="6.04419">
        <ele>264.2</ele>
        <time>2024-07-31T06:29:01Z</time>
      </trkpt>
      <trkpt lat="47.22807" lon="6.04427">
        <ele>264.2</ele>
        <time>2024-07-31T06:29:02Z</time>
      </trkpt>
      <trkpt lat="47.22803" lon="6.04434">
        <ele>263.8</ele>
        <time>2024-07-31T06:29:03Z</time>
      </trkpt>
      <trkpt lat="47.228" lon="6.04441">
        <ele>263.6</ele>
        <time>2024-07-31T06:29:04Z</time>
      </trkpt>
      <trkpt lat="47.22796" lon="6.04448">
        <ele>263.6</ele>
        <time>2024-07-31T06:29:05Z</time>
      </trkpt>
      <trkpt lat="47.22793" lon="6.04455">
        <ele>263.8</ele>
        <time>2024-07-31T06:29:06Z</time>
      </trkpt>
      <trkpt lat="47.22789" lon="6.04462">
        <ele>263.6</ele>
        <time>2024-07-31T06:29:07Z</time>
      </trkpt>
      <trkpt lat="47.22786" lon="6.04468">
        <ele>263.6</ele>
        <time>2024-07-31T06:29:08Z</time>
      </trkpt>
      <trkpt lat="47.22782" lon="6.04475">
        <ele>263.6</ele>
        <time>2024-07-31T06:29:09Z</time>
      </trkpt>
      <trkpt lat="47.22779" lon="6.04481">
        <ele>263.6</ele>
        <time>2024-07-31T06:29:10Z</time>
      </trkpt>
      <trkpt lat="47.22776" lon="6.04488">
        <ele>263.8</ele>
        <time>2024-07-31T06:29:11Z</time>
      </trkpt>
      <trkpt lat="47.22772" lon="6.04495">
        <ele>263.6</ele>
        <time>2024-07-31T06:29:12Z</time>
      </trkpt>
      <trkpt lat="47.2277" lon="6.04502">
        <ele>263.6</ele>
        <time>2024-07-31T06:29:13Z</time>
      </trkpt>
      <trkpt lat="47.22767" lon="6.04508">
        <ele>263.6</ele>
        <time>2024-07-31T06:29:14Z</time>
      </trkpt>
      <trkpt lat="47.22765" lon="6.04515">
        <ele>263.6</ele>
        <time>2024-07-31T06:29:15Z</time>
      </trkpt>
      <trkpt lat="47.22764" lon="6.04522">
        <ele>263.4</ele>
        <time>2024-07-31T06:29:16Z</time>
      </trkpt>
      <trkpt lat="47.22762" lon="6.04529">
        <ele>263.8</ele>
        <time>2024-07-31T06:29:17Z</time>
      </trkpt>
      <trkpt lat="47.22761" lon="6.04537">
        <ele>263.4</ele>
        <time>2024-07-31T06:29:18Z</time>
      </trkpt>
      <trkpt lat="47.2276" lon="6.04544">
        <ele>263.2</ele>
        <time>2024-07-31T06:29:19Z</time>
      </trkpt>
      <trkpt lat="47.22759" lon="6.04551">
        <ele>263.6</ele>
        <time>2024-07-31T06:29:20Z</time>
      </trkpt>
      <trkpt lat="47.22759" lon="6.04559">
        <ele>263</ele>
        <time>2024-07-31T06:29:21Z</time>
      </trkpt>
      <trkpt lat="47.22759" lon="6.04566">
        <ele>262.8</ele>
        <time>2024-07-31T06:29:22Z</time>
      </trkpt>
      <trkpt lat="47.22758" lon="6.04573">
        <ele>262.8</ele>
        <time>2024-07-31T06:29:23Z</time>
      </trkpt>
      <trkpt lat="47.22758" lon="6.04581">
        <ele>262.8</ele>
        <time>2024-07-31T06:29:24Z</time>
      </trkpt>
      <trkpt lat="47.22758" lon="6.04588">
        <ele>262.8</ele>
        <time>2024-07-31T06:29:25Z</time>
      </trkpt>
      <trkpt lat="47.22757" lon="6.04595">
        <ele>262.8</ele>
        <time>2024-07-31T06:29:26Z</time>
      </trkpt>
      <trkpt lat="47.22757" lon="6.04603">
        <ele>262.8</ele>
        <time>2024-07-31T06:29:27Z</time>
      </trkpt>
      <trkpt lat="47.22756" lon="6.0461">
        <ele>262.8</ele>
        <time>2024-07-31T06:29:28Z</time>
      </trkpt>
      <trkpt lat="47.22756" lon="6.04617">
        <ele>262.8</ele>
        <time>2024-07-31T06:29:29Z</time>
      </trkpt>
      <trkpt lat="47.22756" lon="6.04625">
        <ele>262.6</ele>
        <time>2024-07-31T06:29:30Z</time>
      </trkpt>
      <trkpt lat="47.22756" lon="6.04632">
        <ele>262.6</ele>
        <time>2024-07-31T06:29:31Z</time>
      </trkpt>
      <trkpt lat="47.22756" lon="6.04639">
        <ele>262.4</ele>
        <time>2024-07-31T06:29:32Z</time>
      </trkpt>
      <trkpt lat="47.22755" lon="6.04647">
        <ele>262.6</ele>
        <time>2024-07-31T06:29:33Z</time>
      </trkpt>
      <trkpt lat="47.22755" lon="6.04653">
        <ele>262.2</ele>
        <time>2024-07-31T06:29:34Z</time>
      </trkpt>
      <trkpt lat="47.22755" lon="6.0466">
        <ele>262.6</ele>
        <time>2024-07-31T06:29:35Z</time>
      </trkpt>
      <trkpt lat="47.22755" lon="6.04668">
        <ele>262.6</ele>
        <time>2024-07-31T06:29:36Z</time>
      </trkpt>
      <trkpt lat="47.22755" lon="6.04675">
        <ele>262.4</ele>
        <time>2024-07-31T06:29:37Z</time>
      </trkpt>
      <trkpt lat="47.22755" lon="6.04682">
        <ele>262.2</ele>
        <time>2024-07-31T06:29:38Z</time>
      </trkpt>
      <trkpt lat="47.22754" lon="6.04689">
        <ele>262.4</ele>
        <time>2024-07-31T06:29:39Z</time>
      </trkpt>
      <trkpt lat="47.22754" lon="6.04695">
        <ele>262.2</ele>
        <time>2024-07-31T06:29:40Z</time>
      </trkpt>
      <trkpt lat="47.22754" lon="6.04702">
        <ele>262</ele>
        <time>2024-07-31T06:29:41Z</time>
      </trkpt>
      <trkpt lat="47.22755" lon="6.04708">
        <ele>262.4</ele>
        <time>2024-07-31T06:29:42Z</time>
      </trkpt>
      <trkpt lat="47.22755" lon="6.04715">
        <ele>262</ele>
        <time>2024-07-31T06:29:43Z</time>
      </trkpt>
      <trkpt lat="47.22755" lon="6.04721">
        <ele>262.2</ele>
        <time>2024-07-31T06:29:44Z</time>
      </trkpt>
      <trkpt lat="47.22756" lon="6.04728">
        <ele>262</ele>
        <time>2024-07-31T06:29:45Z</time>
      </trkpt>
      <trkpt lat="47.22757" lon="6.04734">
        <ele>262.2</ele>
        <time>2024-07-31T06:29:46Z</time>
      </trkpt>
      <trkpt lat="47.22758" lon="6.0474">
        <ele>262.2</ele>
        <time>2024-07-31T06:29:47Z</time>
      </trkpt>
      <trkpt lat="47.22759" lon="6.04747">
        <ele>262.2</ele>
        <time>2024-07-31T06:29:48Z</time>
      </trkpt>
      <trkpt lat="47.2276" lon="6.04753">
        <ele>262.2</ele>
        <time>2024-07-31T06:29:49Z</time>
      </trkpt>
      <trkpt lat="47.22761" lon="6.0476">
        <ele>262.2</ele>
        <time>2024-07-31T06:29:50Z</time>
      </trkpt>
      <trkpt lat="47.22762" lon="6.04766">
        <ele>261.8</ele>
        <time>2024-07-31T06:29:51Z</time>
      </trkpt>
      <trkpt lat="47.22763" lon="6.04773">
        <ele>261.4</ele>
        <time>2024-07-31T06:29:52Z</time>
      </trkpt>
      <trkpt lat="47.22764" lon="6.0478">
        <ele>262.4</ele>
        <time>2024-07-31T06:29:53Z</time>
      </trkpt>
      <trkpt lat="47.22765" lon="6.04787">
        <ele>262.8</ele>
        <time>2024-07-31T06:29:54Z</time>
      </trkpt>
      <trkpt lat="47.22766" lon="6.04794">
        <ele>262</ele>
        <time>2024-07-31T06:29:55Z</time>
      </trkpt>
      <trkpt lat="47.22767" lon="6.04801">
        <ele>261.8</ele>
        <time>2024-07-31T06:29:56Z</time>
      </trkpt>
      <trkpt lat="47.22768" lon="6.04808">
        <ele>261.8</ele>
        <time>2024-07-31T06:29:57Z</time>
      </trkpt>
      <trkpt lat="47.22769" lon="6.04815">
        <ele>262</ele>
        <time>2024-07-31T06:29:58Z</time>
      </trkpt>
      <trkpt lat="47.2277" lon="6.04822">
        <ele>261.8</ele>
        <time>2024-07-31T06:29:59Z</time>
      </trkpt>
      <trkpt lat="47.22771" lon="6.04829">
        <ele>262.2</ele>
        <time>2024-07-31T06:30:00Z</time>
      </trkpt>
      <trkpt lat="47.22773" lon="6.04836">
        <ele>262</ele>
        <time>2024-07-31T06:30:01Z</time>
      </trkpt>
      <trkpt lat="47.22774" lon="6.04843">
        <ele>261.8</ele>
        <time>2024-07-31T06:30:02Z</time>
      </trkpt>
      <trkpt lat="47.22776" lon="6.0485">
        <ele>262</ele>
        <time>2024-07-31T06:30:03Z</time>
      </trkpt>
      <trkpt lat="47.22777" lon="6.04857">
        <ele>261.8</ele>
        <time>2024-07-31T06:30:04Z</time>
      </trkpt>
      <trkpt lat="47.22778" lon="6.04865">
        <ele>261.6</ele>
        <time>2024-07-31T06:30:05Z</time>
      </trkpt>
      <trkpt lat="47.22779" lon="6.04872">
        <ele>261.4</ele>
        <time>2024-07-31T06:30:06Z</time>
      </trkpt>
      <trkpt lat="47.2278" lon="6.04879">
        <ele>261.4</ele>
        <time>2024-07-31T06:30:07Z</time>
      </trkpt>
      <trkpt lat="47.22781" lon="6.04886">
        <ele>261.8</ele>
        <time>2024-07-31T06:30:08Z</time>
      </trkpt>
      <trkpt lat="47.22782" lon="6.04893">
        <ele>261.8</ele>
        <time>2024-07-31T06:30:09Z</time>
      </trkpt>
      <trkpt lat="47.22784" lon="6.049">
        <ele>261.8</ele>
        <time>2024-07-31T06:30:10Z</time>
      </trkpt>
      <trkpt lat="47.22785" lon="6.04907">
        <ele>261.8</ele>
        <time>2024-07-31T06:30:11Z</time>
      </trkpt>
      <trkpt lat="47.22786" lon="6.04913">
        <ele>261.8</ele>
        <time>2024-07-31T06:30:12Z</time>
      </trkpt>
      <trkpt lat="47.22787" lon="6.0492">
        <ele>262</ele>
        <time>2024-07-31T06:30:13Z</time>
      </trkpt>
      <trkpt lat="47.22789" lon="6.04926">
        <ele>261.6</ele>
        <time>2024-07-31T06:30:14Z</time>
      </trkpt>
      <trkpt lat="47.22791" lon="6.04932">
        <ele>262</ele>
        <time>2024-07-31T06:30:15Z</time>
      </trkpt>
      <trkpt lat="47.22793" lon="6.04939">
        <ele>262</ele>
        <time>2024-07-31T06:30:16Z</time>
      </trkpt>
      <trkpt lat="47.22795" lon="6.04945">
        <ele>262.2</ele>
        <time>2024-07-31T06:30:17Z</time>
      </trkpt>
      <trkpt lat="47.22798" lon="6.04951">
        <ele>262</ele>
        <time>2024-07-31T06:30:18Z</time>
      </trkpt>
      <trkpt lat="47.228" lon="6.04957">
        <ele>262</ele>
        <time>2024-07-31T06:30:19Z</time>
      </trkpt>
      <trkpt lat="47.22803" lon="6.04964">
        <ele>262.2</ele>
        <time>2024-07-31T06:30:20Z</time>
      </trkpt>
      <trkpt lat="47.22805" lon="6.04971">
        <ele>262</ele>
        <time>2024-07-31T06:30:21Z</time>
      </trkpt>
      <trkpt lat="47.22808" lon="6.04977">
        <ele>261.8</ele>
        <time>2024-07-31T06:30:22Z</time>
      </trkpt>
      <trkpt lat="47.22811" lon="6.04984">
        <ele>261.8</ele>
        <time>2024-07-31T06:30:23Z</time>
      </trkpt>
      <trkpt lat="47.22814" lon="6.04991">
        <ele>261.8</ele>
        <time>2024-07-31T06:30:24Z</time>
      </trkpt>
      <trkpt lat="47.22817" lon="6.04998">
        <ele>261.2</ele>
        <time>2024-07-31T06:30:25Z</time>
      </trkpt>
      <trkpt lat="47.2282" lon="6.05004">
        <ele>261.2</ele>
        <time>2024-07-31T06:30:26Z</time>
      </trkpt>
      <trkpt lat="47.22823" lon="6.05011">
        <ele>261</ele>
        <time>2024-07-31T06:30:27Z</time>
      </trkpt>
      <trkpt lat="47.22826" lon="6.05018">
        <ele>261.2</ele>
        <time>2024-07-31T06:30:28Z</time>
      </trkpt>
      <trkpt lat="47.2283" lon="6.05025">
        <ele>261</ele>
        <time>2024-07-31T06:30:29Z</time>
      </trkpt>
      <trkpt lat="47.22833" lon="6.05032">
        <ele>261</ele>
        <time>2024-07-31T06:30:30Z</time>
      </trkpt>
      <trkpt lat="47.22836" lon="6.05039">
        <ele>261</ele>
        <time>2024-07-31T06:30:31Z</time>
      </trkpt>
      <trkpt lat="47.2284" lon="6.05046">
        <ele>261</ele>
        <time>2024-07-31T06:30:32Z</time>
      </trkpt>
      <trkpt lat="47.22843" lon="6.05053">
        <ele>261</ele>
        <time>2024-07-31T06:30:33Z</time>
      </trkpt>
      <trkpt lat="47.22845" lon="6.0506">
        <ele>261</ele>
        <time>2024-07-31T06:30:34Z</time>
      </trkpt>
      <trkpt lat="47.22848" lon="6.05068">
        <ele>260.8</ele>
        <time>2024-07-31T06:30:35Z</time>
      </trkpt>
      <trkpt lat="47.22851" lon="6.05075">
        <ele>260.8</ele>
        <time>2024-07-31T06:30:36Z</time>
      </trkpt>
      <trkpt lat="47.22854" lon="6.05081">
        <ele>260.8</ele>
        <time>2024-07-31T06:30:37Z</time>
      </trkpt>
      <trkpt lat="47.22857" lon="6.05088">
        <ele>260.6</ele>
        <time>2024-07-31T06:30:38Z</time>
      </trkpt>
      <trkpt lat="47.22859" lon="6.05095">
        <ele>260.8</ele>
        <time>2024-07-31T06:30:39Z</time>
      </trkpt>
      <trkpt lat="47.22862" lon="6.05102">
        <ele>260.8</ele>
        <time>2024-07-31T06:30:40Z</time>
      </trkpt>
      <trkpt lat="47.22865" lon="6.05109">
        <ele>260.6</ele>
        <time>2024-07-31T06:30:41Z</time>
      </trkpt>
      <trkpt lat="47.22869" lon="6.05117">
        <ele>260.8</ele>
        <time>2024-07-31T06:30:42Z</time>
      </trkpt>
      <trkpt lat="47.22872" lon="6.05124">
        <ele>260.8</ele>
        <time>2024-07-31T06:30:43Z</time>
      </trkpt>
      <trkpt lat="47.22875" lon="6.05131">
        <ele>260.8</ele>
        <time>2024-07-31T06:30:44Z</time>
      </trkpt>
      <trkpt lat="47.22878" lon="6.05139">
        <ele>260.6</ele>
        <time>2024-07-31T06:30:45Z</time>
      </trkpt>
      <trkpt lat="47.22881" lon="6.05147">
        <ele>260.8</ele>
        <time>2024-07-31T06:30:46Z</time>
      </trkpt>
      <trkpt lat="47.22885" lon="6.05155">
        <ele>261</ele>
        <time>2024-07-31T06:30:47Z</time>
      </trkpt>
      <trkpt lat="47.22888" lon="6.05163">
        <ele>261</ele>
        <time>2024-07-31T06:30:48Z</time>
      </trkpt>
      <trkpt lat="47.22891" lon="6.0517">
        <ele>261.4</ele>
        <time>2024-07-31T06:30:49Z</time>
      </trkpt>
      <trkpt lat="47.22894" lon="6.05178">
        <ele>261.4</ele>
        <time>2024-07-31T06:30:50Z</time>
      </trkpt>
      <trkpt lat="47.22897" lon="6.05185">
        <ele>261.2</ele>
        <time>2024-07-31T06:30:51Z</time>
      </trkpt>
      <trkpt lat="47.22901" lon="6.05192">
        <ele>261</ele>
        <time>2024-07-31T06:30:52Z</time>
      </trkpt>
      <trkpt lat="47.22904" lon="6.05199">
        <ele>261</ele>
        <time>2024-07-31T06:30:53Z</time>
      </trkpt>
      <trkpt lat="47.22907" lon="6.05207">
        <ele>260.8</ele>
        <time>2024-07-31T06:30:54Z</time>
      </trkpt>
      <trkpt lat="47.22911" lon="6.05215">
        <ele>260.8</ele>
        <time>2024-07-31T06:30:55Z</time>
      </trkpt>
      <trkpt lat="47.22914" lon="6.05223">
        <ele>261</ele>
        <time>2024-07-31T06:30:56Z</time>
      </trkpt>
      <trkpt lat="47.22917" lon="6.0523">
        <ele>260.6</ele>
        <time>2024-07-31T06:30:57Z</time>
      </trkpt>
      <trkpt lat="47.2292" lon="6.05238">
        <ele>260.4</ele>
        <time>2024-07-31T06:30:58Z</time>
      </trkpt>
      <trkpt lat="47.22923" lon="6.05245">
        <ele>260.4</ele>
        <time>2024-07-31T06:30:59Z</time>
      </trkpt>
      <trkpt lat="47.22926" lon="6.05253">
        <ele>260.4</ele>
        <time>2024-07-31T06:31:00Z</time>
      </trkpt>
      <trkpt lat="47.22928" lon="6.0526">
        <ele>260.4</ele>
        <time>2024-07-31T06:31:01Z</time>
      </trkpt>
      <trkpt lat="47.22931" lon="6.05267">
        <ele>260.4</ele>
        <time>2024-07-31T06:31:02Z</time>
      </trkpt>
      <trkpt lat="47.22934" lon="6.05274">
        <ele>260.4</ele>
        <time>2024-07-31T06:31:03Z</time>
      </trkpt>
      <trkpt lat="47.22938" lon="6.05281">
        <ele>260.4</ele>
        <time>2024-07-31T06:31:04Z</time>
      </trkpt>
      <trkpt lat="47.22941" lon="6.05288">
        <ele>260.4</ele>
        <time>2024-07-31T06:31:05Z</time>
      </trkpt>
      <trkpt lat="47.22944" lon="6.05295">
        <ele>260.4</ele>
        <time>2024-07-31T06:31:06Z</time>
      </trkpt>
      <trkpt lat="47.22948" lon="6.05301">
        <ele>260.6</ele>
        <time>2024-07-31T06:31:07Z</time>
      </trkpt>
      <trkpt lat="47.22951" lon="6.05308">
        <ele>260.6</ele>
        <time>2024-07-31T06:31:08Z</time>
      </trkpt>
      <trkpt lat="47.22954" lon="6.05315">
        <ele>260.6</ele>
        <time>2024-07-31T06:31:09Z</time>
      </trkpt>
      <trkpt lat="47.22958" lon="6.05322">
        <ele>260.8</ele>
        <time>2024-07-31T06:31:10Z</time>
      </trkpt>
      <trkpt lat="47.22961" lon="6.05329">
        <ele>260.6</ele>
        <time>2024-07-31T06:31:11Z</time>
      </trkpt>
      <trkpt lat="47.22964" lon="6.05336">
        <ele>260.4</ele>
        <time>2024-07-31T06:31:12Z</time>
      </trkpt>
      <trkpt lat="47.22967" lon="6.05343">
        <ele>260.6</ele>
        <time>2024-07-31T06:31:13Z</time>
      </trkpt>
      <trkpt lat="47.22971" lon="6.0535">
        <ele>260.4</ele>
        <time>2024-07-31T06:31:14Z</time>
      </trkpt>
      <trkpt lat="47.22974" lon="6.05356">
        <ele>260.2</ele>
        <time>2024-07-31T06:31:15Z</time>
      </trkpt>
      <trkpt lat="47.22977" lon="6.05363">
        <ele>260</ele>
        <time>2024-07-31T06:31:16Z</time>
      </trkpt>
      <trkpt lat="47.2298" lon="6.0537">
        <ele>260</ele>
        <time>2024-07-31T06:31:17Z</time>
      </trkpt>
      <trkpt lat="47.22983" lon="6.05377">
        <ele>260.2</ele>
        <time>2024-07-31T06:31:18Z</time>
      </trkpt>
      <trkpt lat="47.22985" lon="6.05384">
        <ele>260.2</ele>
        <time>2024-07-31T06:31:19Z</time>
      </trkpt>
      <trkpt lat="47.22988" lon="6.05391">
        <ele>260.2</ele>
        <time>2024-07-31T06:31:20Z</time>
      </trkpt>
      <trkpt lat="47.22991" lon="6.05398">
        <ele>260.4</ele>
        <time>2024-07-31T06:31:21Z</time>
      </trkpt>
      <trkpt lat="47.22994" lon="6.05404">
        <ele>260.2</ele>
        <time>2024-07-31T06:31:22Z</time>
      </trkpt>
      <trkpt lat="47.22997" lon="6.05411">
        <ele>260.4</ele>
        <time>2024-07-31T06:31:23Z</time>
      </trkpt>
      <trkpt lat="47.23001" lon="6.05417">
        <ele>260.4</ele>
        <time>2024-07-31T06:31:24Z</time>
      </trkpt>
      <trkpt lat="47.23004" lon="6.05423">
        <ele>260.6</ele>
        <time>2024-07-31T06:31:25Z</time>
      </trkpt>
      <trkpt lat="47.23007" lon="6.05429">
        <ele>260.4</ele>
        <time>2024-07-31T06:31:26Z</time>
      </trkpt>
      <trkpt lat="47.23011" lon="6.05435">
        <ele>260.6</ele>
        <time>2024-07-31T06:31:27Z</time>
      </trkpt>
      <trkpt lat="47.23014" lon="6.05442">
        <ele>260.6</ele>
        <time>2024-07-31T06:31:28Z</time>
      </trkpt>
      <trkpt lat="47.23017" lon="6.05448">
        <ele>260.6</ele>
        <time>2024-07-31T06:31:29Z</time>
      </trkpt>
      <trkpt lat="47.23021" lon="6.05454">
        <ele>260.8</ele>
        <time>2024-07-31T06:31:30Z</time>
      </trkpt>
      <trkpt lat="47.23025" lon="6.05459">
        <ele>260.8</ele>
        <time>2024-07-31T06:31:31Z</time>
      </trkpt>
      <trkpt lat="47.23028" lon="6.05465">
        <ele>260.6</ele>
        <time>2024-07-31T06:31:32Z</time>
      </trkpt>
      <trkpt lat="47.23032" lon="6.0547">
        <ele>260.6</ele>
        <time>2024-07-31T06:31:33Z</time>
      </trkpt>
      <trkpt lat="47.23036" lon="6.05476">
        <ele>260.6</ele>
        <time>2024-07-31T06:31:34Z</time>
      </trkpt>
      <trkpt lat="47.2304" lon="6.05481">
        <ele>260.6</ele>
        <time>2024-07-31T06:31:35Z</time>
      </trkpt>
      <trkpt lat="47.23044" lon="6.05485">
        <ele>260.6</ele>
        <time>2024-07-31T06:31:36Z</time>
      </trkpt>
      <trkpt lat="47.23048" lon="6.0549">
        <ele>260.4</ele>
        <time>2024-07-31T06:31:37Z</time>
      </trkpt>
      <trkpt lat="47.23052" lon="6.05496">
        <ele>260.6</ele>
        <time>2024-07-31T06:31:38Z</time>
      </trkpt>
      <trkpt lat="47.23056" lon="6.05501">
        <ele>260.6</ele>
        <time>2024-07-31T06:31:39Z</time>
      </trkpt>
      <trkpt lat="47.2306" lon="6.05507">
        <ele>260.6</ele>
        <time>2024-07-31T06:31:40Z</time>
      </trkpt>
      <trkpt lat="47.23064" lon="6.05512">
        <ele>260.8</ele>
        <time>2024-07-31T06:31:41Z</time>
      </trkpt>
      <trkpt lat="47.23068" lon="6.05517">
        <ele>260.6</ele>
        <time>2024-07-31T06:31:42Z</time>
      </trkpt>
      <trkpt lat="47.23073" lon="6.05522">
        <ele>260.4</ele>
        <time>2024-07-31T06:31:43Z</time>
      </trkpt>
      <trkpt lat="47.23077" lon="6.05528">
        <ele>260.8</ele>
        <time>2024-07-31T06:31:44Z</time>
      </trkpt>
      <trkpt lat="47.23082" lon="6.05533">
        <ele>260.6</ele>
        <time>2024-07-31T06:31:45Z</time>
      </trkpt>
      <trkpt lat="47.23086" lon="6.0554">
        <ele>260.6</ele>
        <time>2024-07-31T06:31:46Z</time>
      </trkpt>
      <trkpt lat="47.2309" lon="6.05547">
        <ele>260.6</ele>
        <time>2024-07-31T06:31:47Z</time>
      </trkpt>
      <trkpt lat="47.23092" lon="6.05554">
        <ele>260.6</ele>
        <time>2024-07-31T06:31:48Z</time>
      </trkpt>
      <trkpt lat="47.23093" lon="6.05562">
        <ele>260.8</ele>
        <time>2024-07-31T06:31:49Z</time>
      </trkpt>
      <trkpt lat="47.23094" lon="6.05569">
        <ele>260.8</ele>
        <time>2024-07-31T06:31:50Z</time>
      </trkpt>
      <trkpt lat="47.23094" lon="6.05577">
        <ele>261</ele>
        <time>2024-07-31T06:31:51Z</time>
      </trkpt>
      <trkpt lat="47.23094" lon="6.05584">
        <ele>261.4</ele>
        <time>2024-07-31T06:31:52Z</time>
      </trkpt>
      <trkpt lat="47.23094" lon="6.0559">
        <ele>261.8</ele>
        <time>2024-07-31T06:31:53Z</time>
      </trkpt>
      <trkpt lat="47.23093" lon="6.05596">
        <ele>262</ele>
        <time>2024-07-31T06:31:54Z</time>
      </trkpt>
      <trkpt lat="47.23093" lon="6.05602">
        <ele>262</ele>
        <time>2024-07-31T06:31:55Z</time>
      </trkpt>
      <trkpt lat="47.23092" lon="6.05607">
        <ele>262.2</ele>
        <time>2024-07-31T06:31:56Z</time>
      </trkpt>
      <trkpt lat="47.23092" lon="6.05612">
        <ele>262.2</ele>
        <time>2024-07-31T06:31:57Z</time>
      </trkpt>
      <trkpt lat="47.23091" lon="6.05617">
        <ele>262.2</ele>
        <time>2024-07-31T06:31:58Z</time>
      </trkpt>
      <trkpt lat="47.23091" lon="6.05623">
        <ele>262.2</ele>
        <time>2024-07-31T06:31:59Z</time>
      </trkpt>
      <trkpt lat="47.23092" lon="6.05629">
        <ele>262.2</ele>
        <time>2024-07-31T06:32:00Z</time>
      </trkpt>
      <trkpt lat="47.23091" lon="6.05635">
        <ele>262.2</ele>
        <time>2024-07-31T06:32:01Z</time>
      </trkpt>
      <trkpt lat="47.23091" lon="6.05642">
        <ele>262.4</ele>
        <time>2024-07-31T06:32:02Z</time>
      </trkpt>
      <trkpt lat="47.23091" lon="6.05648">
        <ele>262.2</ele>
        <time>2024-07-31T06:32:03Z</time>
      </trkpt>
      <trkpt lat="47.23092" lon="6.05654">
        <ele>262.2</ele>
        <time>2024-07-31T06:32:04Z</time>
      </trkpt>
      <trkpt lat="47.23093" lon="6.05661">
        <ele>262.4</ele>
        <time>2024-07-31T06:32:05Z</time>
      </trkpt>
      <trkpt lat="47.23095" lon="6.05667">
        <ele>262.2</ele>
        <time>2024-07-31T06:32:06Z</time>
      </trkpt>
      <trkpt lat="47.23097" lon="6.05672">
        <ele>262</ele>
        <time>2024-07-31T06:32:07Z</time>
      </trkpt>
      <trkpt lat="47.231" lon="6.05676">
        <ele>262</ele>
        <time>2024-07-31T06:32:08Z</time>
      </trkpt>
      <trkpt lat="47.23104" lon="6.0568">
        <ele>262.6</ele>
        <time>2024-07-31T06:32:09Z</time>
      </trkpt>
      <trkpt lat="47.23108" lon="6.05683">
        <ele>262.8</ele>
        <time>2024-07-31T06:32:10Z</time>
      </trkpt>
      <trkpt lat="47.23111" lon="6.05686">
        <ele>262.8</ele>
        <time>2024-07-31T06:32:11Z</time>
      </trkpt>
      <trkpt lat="47.23114" lon="6.05688">
        <ele>263.2</ele>
        <time>2024-07-31T06:32:12Z</time>
      </trkpt>
      <trkpt lat="47.23117" lon="6.05691">
        <ele>263.4</ele>
        <time>2024-07-31T06:32:13Z</time>
      </trkpt>
      <trkpt lat="47.2312" lon="6.05693">
        <ele>263.6</ele>
        <time>2024-07-31T06:32:14Z</time>
      </trkpt>
      <trkpt lat="47.23123" lon="6.05696">
        <ele>263.8</ele>
        <time>2024-07-31T06:32:15Z</time>
      </trkpt>
      <trkpt lat="47.23126" lon="6.05698">
        <ele>264</ele>
        <time>2024-07-31T06:32:16Z</time>
      </trkpt>
      <trkpt lat="47.23129" lon="6.057">
        <ele>264</ele>
        <time>2024-07-31T06:32:17Z</time>
      </trkpt>
      <trkpt lat="47.23132" lon="6.05703">
        <ele>264.2</ele>
        <time>2024-07-31T06:32:18Z</time>
      </trkpt>
      <trkpt lat="47.23136" lon="6.05705">
        <ele>264.4</ele>
        <time>2024-07-31T06:32:19Z</time>
      </trkpt>
      <trkpt lat="47.23139" lon="6.05707">
        <ele>264.6</ele>
        <time>2024-07-31T06:32:20Z</time>
      </trkpt>
      <trkpt lat="47.23142" lon="6.05709">
        <ele>265</ele>
        <time>2024-07-31T06:32:21Z</time>
      </trkpt>
      <trkpt lat="47.23145" lon="6.05711">
        <ele>265</ele>
        <time>2024-07-31T06:32:22Z</time>
      </trkpt>
      <trkpt lat="47.23148" lon="6.05714">
        <ele>265</ele>
        <time>2024-07-31T06:32:23Z</time>
      </trkpt>
      <trkpt lat="47.23151" lon="6.05716">
        <ele>265.4</ele>
        <time>2024-07-31T06:32:24Z</time>
      </trkpt>
      <trkpt lat="47.23154" lon="6.05717">
        <ele>265.6</ele>
        <time>2024-07-31T06:32:25Z</time>
      </trkpt>
      <trkpt lat="47.23157" lon="6.05719">
        <ele>265.8</ele>
        <time>2024-07-31T06:32:26Z</time>
      </trkpt>
      <trkpt lat="47.23158" lon="6.05722">
        <ele>265.8</ele>
        <time>2024-07-31T06:32:27Z</time>
      </trkpt>
      <trkpt lat="47.23158" lon="6.05725">
        <ele>265.8</ele>
        <time>2024-07-31T06:32:28Z</time>
      </trkpt>
      <trkpt lat="47.23156" lon="6.05728">
        <ele>265.8</ele>
        <time>2024-07-31T06:32:29Z</time>
      </trkpt>
      <trkpt lat="47.23155" lon="6.05731">
        <ele>266</ele>
        <time>2024-07-31T06:32:30Z</time>
      </trkpt>
      <trkpt lat="47.23153" lon="6.05735">
        <ele>266.2</ele>
        <time>2024-07-31T06:32:31Z</time>
      </trkpt>
      <trkpt lat="47.23151" lon="6.05739">
        <ele>266.2</ele>
        <time>2024-07-31T06:32:32Z</time>
      </trkpt>
      <trkpt lat="47.23149" lon="6.05743">
        <ele>266.2</ele>
        <time>2024-07-31T06:32:33Z</time>
      </trkpt>
      <trkpt lat="47.23146" lon="6.05747">
        <ele>266.6</ele>
        <time>2024-07-31T06:32:34Z</time>
      </trkpt>
      <trkpt lat="47.23144" lon="6.05752">
        <ele>266.6</ele>
        <time>2024-07-31T06:32:35Z</time>
      </trkpt>
      <trkpt lat="47.23142" lon="6.05756">
        <ele>266.6</ele>
        <time>2024-07-31T06:32:36Z</time>
      </trkpt>
      <trkpt lat="47.2314" lon="6.0576">
        <ele>266.6</ele>
        <time>2024-07-31T06:32:37Z</time>
      </trkpt>
      <trkpt lat="47.23137" lon="6.05765">
        <ele>266.6</ele>
        <time>2024-07-31T06:32:38Z</time>
      </trkpt>
      <trkpt lat="47.23135" lon="6.05769">
        <ele>266.4</ele>
        <time>2024-07-31T06:32:39Z</time>
      </trkpt>
      <trkpt lat="47.23133" lon="6.05773">
        <ele>266.4</ele>
        <time>2024-07-31T06:32:40Z</time>
      </trkpt>
      <trkpt lat="47.23131" lon="6.05778">
        <ele>266.2</ele>
        <time>2024-07-31T06:32:41Z</time>
      </trkpt>
      <trkpt lat="47.23128" lon="6.05782">
        <ele>266.4</ele>
        <time>2024-07-31T06:32:42Z</time>
      </trkpt>
      <trkpt lat="47.23126" lon="6.05786">
        <ele>266.2</ele>
        <time>2024-07-31T06:32:43Z</time>
      </trkpt>
      <trkpt lat="47.23124" lon="6.05791">
        <ele>266.2</ele>
        <time>2024-07-31T06:32:44Z</time>
      </trkpt>
      <trkpt lat="47.23122" lon="6.05796">
        <ele>266.2</ele>
        <time>2024-07-31T06:32:45Z</time>
      </trkpt>
      <trkpt lat="47.23119" lon="6.058">
        <ele>266.2</ele>
        <time>2024-07-31T06:32:46Z</time>
      </trkpt>
      <trkpt lat="47.23117" lon="6.05805">
        <ele>266</ele>
        <time>2024-07-31T06:32:47Z</time>
      </trkpt>
      <trkpt lat="47.23115" lon="6.05809">
        <ele>266</ele>
        <time>2024-07-31T06:32:48Z</time>
      </trkpt>
      <trkpt lat="47.23113" lon="6.05814">
        <ele>266.2</ele>
        <time>2024-07-31T06:32:49Z</time>
      </trkpt>
      <trkpt lat="47.23111" lon="6.05818">
        <ele>266</ele>
        <time>2024-07-31T06:32:50Z</time>
      </trkpt>
      <trkpt lat="47.23108" lon="6.05821">
        <ele>265.6</ele>
        <time>2024-07-31T06:32:51Z</time>
      </trkpt>
      <trkpt lat="47.23106" lon="6.05823">
        <ele>265.6</ele>
        <time>2024-07-31T06:32:52Z</time>
      </trkpt>
      <trkpt lat="47.23104" lon="6.05822">
        <ele>265.4</ele>
        <time>2024-07-31T06:32:53Z</time>
      </trkpt>
      <trkpt lat="47.23101" lon="6.0582">
        <ele>265.2</ele>
        <time>2024-07-31T06:32:54Z</time>
      </trkpt>
      <trkpt lat="47.23098" lon="6.05817">
        <ele>265</ele>
        <time>2024-07-31T06:32:55Z</time>
      </trkpt>
      <trkpt lat="47.23095" lon="6.05814">
        <ele>264.8</ele>
        <time>2024-07-31T06:32:56Z</time>
      </trkpt>
      <trkpt lat="47.23091" lon="6.0581">
        <ele>264.4</ele>
        <time>2024-07-31T06:32:57Z</time>
      </trkpt>
      <trkpt lat="47.23087" lon="6.05806">
        <ele>264.2</ele>
        <time>2024-07-31T06:32:58Z</time>
      </trkpt>
      <trkpt lat="47.23082" lon="6.05803">
        <ele>264</ele>
        <time>2024-07-31T06:32:59Z</time>
      </trkpt>
      <trkpt lat="47.23078" lon="6.05799">
        <ele>263.4</ele>
        <time>2024-07-31T06:33:00Z</time>
      </trkpt>
      <trkpt lat="47.23074" lon="6.05796">
        <ele>263</ele>
        <time>2024-07-31T06:33:01Z</time>
      </trkpt>
      <trkpt lat="47.2307" lon="6.05793">
        <ele>262.8</ele>
        <time>2024-07-31T06:33:02Z</time>
      </trkpt>
      <trkpt lat="47.23067" lon="6.05791">
        <ele>262.8</ele>
        <time>2024-07-31T06:33:03Z</time>
      </trkpt>
      <trkpt lat="47.23064" lon="6.05792">
        <ele>262.8</ele>
        <time>2024-07-31T06:33:04Z</time>
      </trkpt>
      <trkpt lat="47.23062" lon="6.05796">
        <ele>262.6</ele>
        <time>2024-07-31T06:33:05Z</time>
      </trkpt>
      <trkpt lat="47.23061" lon="6.058">
        <ele>262.4</ele>
        <time>2024-07-31T06:33:06Z</time>
      </trkpt>
      <trkpt lat="47.23061" lon="6.05804">
        <ele>262.4</ele>
        <time>2024-07-31T06:33:07Z</time>
      </trkpt>
      <trkpt lat="47.23062" lon="6.05807">
        <ele>262.4</ele>
        <time>2024-07-31T06:33:08Z</time>
      </trkpt>
      <trkpt lat="47.23064" lon="6.0581">
        <ele>262.2</ele>
        <time>2024-07-31T06:33:09Z</time>
      </trkpt>
      <trkpt lat="47.23067" lon="6.05812">
        <ele>262</ele>
        <time>2024-07-31T06:33:10Z</time>
      </trkpt>
      <trkpt lat="47.2307" lon="6.05815">
        <ele>261.6</ele>
        <time>2024-07-31T06:33:11Z</time>
      </trkpt>
      <trkpt lat="47.23072" lon="6.05817">
        <ele>261.4</ele>
        <time>2024-07-31T06:33:12Z</time>
      </trkpt>
      <trkpt lat="47.23074" lon="6.05821">
        <ele>261.2</ele>
        <time>2024-07-31T06:33:13Z</time>
      </trkpt>
      <trkpt lat="47.23075" lon="6.05824">
        <ele>261.2</ele>
        <time>2024-07-31T06:33:14Z</time>
      </trkpt>
      <trkpt lat="47.23077" lon="6.05827">
        <ele>261.4</ele>
        <time>2024-07-31T06:33:15Z</time>
      </trkpt>
      <trkpt lat="47.2308" lon="6.0583">
        <ele>261.2</ele>
        <time>2024-07-31T06:33:16Z</time>
      </trkpt>
      <trkpt lat="47.23082" lon="6.05832">
        <ele>261.4</ele>
        <time>2024-07-31T06:33:17Z</time>
      </trkpt>
      <trkpt lat="47.23086" lon="6.05835">
        <ele>261.4</ele>
        <time>2024-07-31T06:33:18Z</time>
      </trkpt>
      <trkpt lat="47.23089" lon="6.05839">
        <ele>261.4</ele>
        <time>2024-07-31T06:33:19Z</time>
      </trkpt>
      <trkpt lat="47.23093" lon="6.05842">
        <ele>261.4</ele>
        <time>2024-07-31T06:33:20Z</time>
      </trkpt>
      <trkpt lat="47.23096" lon="6.05846">
        <ele>261.2</ele>
        <time>2024-07-31T06:33:21Z</time>
      </trkpt>
      <trkpt lat="47.23099" lon="6.05849">
        <ele>261.2</ele>
        <time>2024-07-31T06:33:22Z</time>
      </trkpt>
      <trkpt lat="47.23103" lon="6.05852">
        <ele>261.2</ele>
        <time>2024-07-31T06:33:23Z</time>
      </trkpt>
      <trkpt lat="47.23108" lon="6.05856">
        <ele>261.2</ele>
        <time>2024-07-31T06:33:24Z</time>
      </trkpt>
      <trkpt lat="47.23114" lon="6.0586">
        <ele>261.2</ele>
        <time>2024-07-31T06:33:25Z</time>
      </trkpt>
      <trkpt lat="47.2312" lon="6.05864">
        <ele>261.2</ele>
        <time>2024-07-31T06:33:26Z</time>
      </trkpt>
      <trkpt lat="47.23126" lon="6.05868">
        <ele>261.2</ele>
        <time>2024-07-31T06:33:27Z</time>
      </trkpt>
      <trkpt lat="47.23131" lon="6.05872">
        <ele>261</ele>
        <time>2024-07-31T06:33:28Z</time>
      </trkpt>
      <trkpt lat="47.23136" lon="6.05877">
        <ele>261</ele>
        <time>2024-07-31T06:33:29Z</time>
      </trkpt>
      <trkpt lat="47.23141" lon="6.05882">
        <ele>261.2</ele>
        <time>2024-07-31T06:33:30Z</time>
      </trkpt>
      <trkpt lat="47.23146" lon="6.05886">
        <ele>261.2</ele>
        <time>2024-07-31T06:33:31Z</time>
      </trkpt>
      <trkpt lat="47.23151" lon="6.0589">
        <ele>261.2</ele>
        <time>2024-07-31T06:33:32Z</time>
      </trkpt>
      <trkpt lat="47.23156" lon="6.05894">
        <ele>261</ele>
        <time>2024-07-31T06:33:33Z</time>
      </trkpt>
      <trkpt lat="47.23162" lon="6.05898">
        <ele>261</ele>
        <time>2024-07-31T06:33:34Z</time>
      </trkpt>
      <trkpt lat="47.23167" lon="6.05902">
        <ele>261.2</ele>
        <time>2024-07-31T06:33:35Z</time>
      </trkpt>
      <trkpt lat="47.23172" lon="6.05906">
        <ele>261.2</ele>
        <time>2024-07-31T06:33:36Z</time>
      </trkpt>
      <trkpt lat="47.23177" lon="6.0591">
        <ele>261.2</ele>
        <time>2024-07-31T06:33:37Z</time>
      </trkpt>
      <trkpt lat="47.23182" lon="6.05914">
        <ele>261</ele>
        <time>2024-07-31T06:33:38Z</time>
      </trkpt>
      <trkpt lat="47.23186" lon="6.05919">
        <ele>261</ele>
        <time>2024-07-31T06:33:39Z</time>
      </trkpt>
      <trkpt lat="47.23191" lon="6.05923">
        <ele>260.8</ele>
        <time>2024-07-31T06:33:40Z</time>
      </trkpt>
      <trkpt lat="47.23196" lon="6.05928">
        <ele>261.2</ele>
        <time>2024-07-31T06:33:41Z</time>
      </trkpt>
      <trkpt lat="47.23201" lon="6.05932">
        <ele>261.2</ele>
        <time>2024-07-31T06:33:42Z</time>
      </trkpt>
      <trkpt lat="47.23205" lon="6.05936">
        <ele>260.8</ele>
        <time>2024-07-31T06:33:43Z</time>
      </trkpt>
      <trkpt lat="47.2321" lon="6.0594">
        <ele>260.8</ele>
        <time>2024-07-31T06:33:44Z</time>
      </trkpt>
      <trkpt lat="47.23215" lon="6.05944">
        <ele>261</ele>
        <time>2024-07-31T06:33:45Z</time>
      </trkpt>
      <trkpt lat="47.2322" lon="6.05949">
        <ele>261</ele>
        <time>2024-07-31T06:33:46Z</time>
      </trkpt>
      <trkpt lat="47.23225" lon="6.05954">
        <ele>261.2</ele>
        <time>2024-07-31T06:33:47Z</time>
      </trkpt>
      <trkpt lat="47.2323" lon="6.05958">
        <ele>261.4</ele>
        <time>2024-07-31T06:33:48Z</time>
      </trkpt>
      <trkpt lat="47.23234" lon="6.05963">
        <ele>261.6</ele>
        <time>2024-07-31T06:33:49Z</time>
      </trkpt>
      <trkpt lat="47.23239" lon="6.05968">
        <ele>261.2</ele>
        <time>2024-07-31T06:33:50Z</time>
      </trkpt>
      <trkpt lat="47.23244" lon="6.05973">
        <ele>261.2</ele>
        <time>2024-07-31T06:33:51Z</time>
      </trkpt>
      <trkpt lat="47.23248" lon="6.05978">
        <ele>261</ele>
        <time>2024-07-31T06:33:52Z</time>
      </trkpt>
      <trkpt lat="47.23253" lon="6.05983">
        <ele>261.2</ele>
        <time>2024-07-31T06:33:53Z</time>
      </trkpt>
      <trkpt lat="47.23258" lon="6.05988">
        <ele>261</ele>
        <time>2024-07-31T06:33:54Z</time>
      </trkpt>
      <trkpt lat="47.23263" lon="6.05993">
        <ele>261</ele>
        <time>2024-07-31T06:33:55Z</time>
      </trkpt>
      <trkpt lat="47.23268" lon="6.05998">
        <ele>261</ele>
        <time>2024-07-31T06:33:56Z</time>
      </trkpt>
      <trkpt lat="47.23273" lon="6.06004">
        <ele>261</ele>
        <time>2024-07-31T06:33:57Z</time>
      </trkpt>
      <trkpt lat="47.23277" lon="6.06009">
        <ele>261.2</ele>
        <time>2024-07-31T06:33:58Z</time>
      </trkpt>
      <trkpt lat="47.23282" lon="6.06015">
        <ele>261.2</ele>
        <time>2024-07-31T06:33:59Z</time>
      </trkpt>
      <trkpt lat="47.23287" lon="6.0602">
        <ele>261.4</ele>
        <time>2024-07-31T06:34:00Z</time>
      </trkpt>
      <trkpt lat="47.23292" lon="6.06025">
        <ele>261.4</ele>
        <time>2024-07-31T06:34:01Z</time>
      </trkpt>
      <trkpt lat="47.23296" lon="6.0603">
        <ele>261.4</ele>
        <time>2024-07-31T06:34:02Z</time>
      </trkpt>
      <trkpt lat="47.23301" lon="6.06035">
        <ele>261.2</ele>
        <time>2024-07-31T06:34:03Z</time>
      </trkpt>
      <trkpt lat="47.23306" lon="6.06039">
        <ele>261.4</ele>
        <time>2024-07-31T06:34:04Z</time>
      </trkpt>
      <trkpt lat="47.2331" lon="6.06044">
        <ele>261.4</ele>
        <time>2024-07-31T06:34:05Z</time>
      </trkpt>
      <trkpt lat="47.23315" lon="6.06049">
        <ele>261.2</ele>
        <time>2024-07-31T06:34:06Z</time>
      </trkpt>
      <trkpt lat="47.2332" lon="6.06053">
        <ele>261.2</ele>
        <time>2024-07-31T06:34:07Z</time>
      </trkpt>
      <trkpt lat="47.23326" lon="6.06057">
        <ele>261.2</ele>
        <time>2024-07-31T06:34:08Z</time>
      </trkpt>
      <trkpt lat="47.23331" lon="6.06061">
        <ele>261.2</ele>
        <time>2024-07-31T06:34:09Z</time>
      </trkpt>
      <trkpt lat="47.23336" lon="6.06064">
        <ele>261.2</ele>
        <time>2024-07-31T06:34:10Z</time>
      </trkpt>
      <trkpt lat="47.23342" lon="6.06067">
        <ele>261.4</ele>
        <time>2024-07-31T06:34:11Z</time>
      </trkpt>
      <trkpt lat="47.23348" lon="6.0607">
        <ele>261.2</ele>
        <time>2024-07-31T06:34:12Z</time>
      </trkpt>
      <trkpt lat="47.23353" lon="6.06073">
        <ele>261.2</ele>
        <time>2024-07-31T06:34:13Z</time>
      </trkpt>
      <trkpt lat="47.23359" lon="6.06076">
        <ele>261</ele>
        <time>2024-07-31T06:34:14Z</time>
      </trkpt>
      <trkpt lat="47.23365" lon="6.06078">
        <ele>261.2</ele>
        <time>2024-07-31T06:34:15Z</time>
      </trkpt>
      <trkpt lat="47.23371" lon="6.06081">
        <ele>261</ele>
        <time>2024-07-31T06:34:16Z</time>
      </trkpt>
      <trkpt lat="47.23376" lon="6.06083">
        <ele>261</ele>
        <time>2024-07-31T06:34:17Z</time>
      </trkpt>
      <trkpt lat="47.23382" lon="6.06085">
        <ele>260.8</ele>
        <time>2024-07-31T06:34:18Z</time>
      </trkpt>
      <trkpt lat="47.23388" lon="6.06087">
        <ele>260.6</ele>
        <time>2024-07-31T06:34:19Z</time>
      </trkpt>
      <trkpt lat="47.23394" lon="6.06089">
        <ele>260.6</ele>
        <time>2024-07-31T06:34:20Z</time>
      </trkpt>
      <trkpt lat="47.234" lon="6.06091">
        <ele>260.8</ele>
        <time>2024-07-31T06:34:21Z</time>
      </trkpt>
      <trkpt lat="47.23405" lon="6.06093">
        <ele>260.6</ele>
        <time>2024-07-31T06:34:22Z</time>
      </trkpt>
      <trkpt lat="47.23411" lon="6.06095">
        <ele>260.8</ele>
        <time>2024-07-31T06:34:23Z</time>
      </trkpt>
      <trkpt lat="47.23417" lon="6.06096">
        <ele>260.4</ele>
        <time>2024-07-31T06:34:24Z</time>
      </trkpt>
      <trkpt lat="47.23422" lon="6.06098">
        <ele>260.4</ele>
        <time>2024-07-31T06:34:25Z</time>
      </trkpt>
      <trkpt lat="47.23428" lon="6.06099">
        <ele>260.6</ele>
        <time>2024-07-31T06:34:26Z</time>
      </trkpt>
      <trkpt lat="47.23434" lon="6.061">
        <ele>260.8</ele>
        <time>2024-07-31T06:34:27Z</time>
      </trkpt>
      <trkpt lat="47.23439" lon="6.06102">
        <ele>260.6</ele>
        <time>2024-07-31T06:34:28Z</time>
      </trkpt>
      <trkpt lat="47.23445" lon="6.06103">
        <ele>260.6</ele>
        <time>2024-07-31T06:34:29Z</time>
      </trkpt>
      <trkpt lat="47.23451" lon="6.06106">
        <ele>260.6</ele>
        <time>2024-07-31T06:34:30Z</time>
      </trkpt>
      <trkpt lat="47.23456" lon="6.06108">
        <ele>260.6</ele>
        <time>2024-07-31T06:34:31Z</time>
      </trkpt>
      <trkpt lat="47.23462" lon="6.0611">
        <ele>260.6</ele>
        <time>2024-07-31T06:34:32Z</time>
      </trkpt>
      <trkpt lat="47.23467" lon="6.06111">
        <ele>260.4</ele>
        <time>2024-07-31T06:34:33Z</time>
      </trkpt>
      <trkpt lat="47.23473" lon="6.06113">
        <ele>260.4</ele>
        <time>2024-07-31T06:34:34Z</time>
      </trkpt>
      <trkpt lat="47.23479" lon="6.06114">
        <ele>260.4</ele>
        <time>2024-07-31T06:34:35Z</time>
      </trkpt>
      <trkpt lat="47.23484" lon="6.06116">
        <ele>260.4</ele>
        <time>2024-07-31T06:34:36Z</time>
      </trkpt>
      <trkpt lat="47.2349" lon="6.06117">
        <ele>260.6</ele>
        <time>2024-07-31T06:34:37Z</time>
      </trkpt>
      <trkpt lat="47.23496" lon="6.06118">
        <ele>260.4</ele>
        <time>2024-07-31T06:34:38Z</time>
      </trkpt>
      <trkpt lat="47.23501" lon="6.0612">
        <ele>260.4</ele>
        <time>2024-07-31T06:34:39Z</time>
      </trkpt>
      <trkpt lat="47.23507" lon="6.06121">
        <ele>260.2</ele>
        <time>2024-07-31T06:34:40Z</time>
      </trkpt>
      <trkpt lat="47.23513" lon="6.06123">
        <ele>260.2</ele>
        <time>2024-07-31T06:34:41Z</time>
      </trkpt>
      <trkpt lat="47.23519" lon="6.06125">
        <ele>260.4</ele>
        <time>2024-07-31T06:34:42Z</time>
      </trkpt>
      <trkpt lat="47.23525" lon="6.06126">
        <ele>260.4</ele>
        <time>2024-07-31T06:34:43Z</time>
      </trkpt>
      <trkpt lat="47.2353" lon="6.06128">
        <ele>260.4</ele>
        <time>2024-07-31T06:34:44Z</time>
      </trkpt>
      <trkpt lat="47.23536" lon="6.06129">
        <ele>260.6</ele>
        <time>2024-07-31T06:34:45Z</time>
      </trkpt>
      <trkpt lat="47.23542" lon="6.06131">
        <ele>260.6</ele>
        <time>2024-07-31T06:34:46Z</time>
      </trkpt>
      <trkpt lat="47.23548" lon="6.06132">
        <ele>260.6</ele>
        <time>2024-07-31T06:34:47Z</time>
      </trkpt>
      <trkpt lat="47.23554" lon="6.06133">
        <ele>260.6</ele>
        <time>2024-07-31T06:34:48Z</time>
      </trkpt>
      <trkpt lat="47.2356" lon="6.06135">
        <ele>260.4</ele>
        <time>2024-07-31T06:34:49Z</time>
      </trkpt>
      <trkpt lat="47.23566" lon="6.06136">
        <ele>260.4</ele>
        <time>2024-07-31T06:34:50Z</time>
      </trkpt>
      <trkpt lat="47.23572" lon="6.06138">
        <ele>260.6</ele>
        <time>2024-07-31T06:34:51Z</time>
      </trkpt>
      <trkpt lat="47.23578" lon="6.06139">
        <ele>260.4</ele>
        <time>2024-07-31T06:34:52Z</time>
      </trkpt>
      <trkpt lat="47.23584" lon="6.06141">
        <ele>260.6</ele>
        <time>2024-07-31T06:34:53Z</time>
      </trkpt>
      <trkpt lat="47.23589" lon="6.06143">
        <ele>260.6</ele>
        <time>2024-07-31T06:34:54Z</time>
      </trkpt>
      <trkpt lat="47.23595" lon="6.06145">
        <ele>260.4</ele>
        <time>2024-07-31T06:34:55Z</time>
      </trkpt>
      <trkpt lat="47.23601" lon="6.06147">
        <ele>260.6</ele>
        <time>2024-07-31T06:34:56Z</time>
      </trkpt>
      <trkpt lat="47.23607" lon="6.06148">
        <ele>260.6</ele>
        <time>2024-07-31T06:34:57Z</time>
      </trkpt>
      <trkpt lat="47.23613" lon="6.0615">
        <ele>260.6</ele>
        <time>2024-07-31T06:34:58Z</time>
      </trkpt>
      <trkpt lat="47.23619" lon="6.06152">
        <ele>260.4</ele>
        <time>2024-07-31T06:34:59Z</time>
      </trkpt>
      <trkpt lat="47.23625" lon="6.06154">
        <ele>260.4</ele>
        <time>2024-07-31T06:35:00Z</time>
      </trkpt>
      <trkpt lat="47.23631" lon="6.06155">
        <ele>260.4</ele>
        <time>2024-07-31T06:35:01Z</time>
      </trkpt>
      <trkpt lat="47.23637" lon="6.06158">
        <ele>260.4</ele>
        <time>2024-07-31T06:35:02Z</time>
      </trkpt>
      <trkpt lat="47.23643" lon="6.0616">
        <ele>260.4</ele>
        <time>2024-07-31T06:35:03Z</time>
      </trkpt>
      <trkpt lat="47.23649" lon="6.06162">
        <ele>260.4</ele>
        <time>2024-07-31T06:35:04Z</time>
      </trkpt>
      <trkpt lat="47.23655" lon="6.06164">
        <ele>260.4</ele>
        <time>2024-07-31T06:35:05Z</time>
      </trkpt>
      <trkpt lat="47.2366" lon="6.06166">
        <ele>260.4</ele>
        <time>2024-07-31T06:35:06Z</time>
      </trkpt>
      <trkpt lat="47.23666" lon="6.06168">
        <ele>260.4</ele>
        <time>2024-07-31T06:35:07Z</time>
      </trkpt>
      <trkpt lat="47.23672" lon="6.0617">
        <ele>260.6</ele>
        <time>2024-07-31T06:35:08Z</time>
      </trkpt>
      <trkpt lat="47.23678" lon="6.06173">
        <ele>260.4</ele>
        <time>2024-07-31T06:35:09Z</time>
      </trkpt>
      <trkpt lat="47.23684" lon="6.06176">
        <ele>260.2</ele>
        <time>2024-07-31T06:35:10Z</time>
      </trkpt>
      <trkpt lat="47.2369" lon="6.06179">
        <ele>260.4</ele>
        <time>2024-07-31T06:35:11Z</time>
      </trkpt>
      <trkpt lat="47.23695" lon="6.06182">
        <ele>260.4</ele>
        <time>2024-07-31T06:35:12Z</time>
      </trkpt>
      <trkpt lat="47.23701" lon="6.06185">
        <ele>260.4</ele>
        <time>2024-07-31T06:35:13Z</time>
      </trkpt>
      <trkpt lat="47.23707" lon="6.06188">
        <ele>260.2</ele>
        <time>2024-07-31T06:35:14Z</time>
      </trkpt>
      <trkpt lat="47.23712" lon="6.06191">
        <ele>260.2</ele>
        <time>2024-07-31T06:35:15Z</time>
      </trkpt>
      <trkpt lat="47.23718" lon="6.06194">
        <ele>260.4</ele>
        <time>2024-07-31T06:35:16Z</time>
      </trkpt>
      <trkpt lat="47.23723" lon="6.06197">
        <ele>260.2</ele>
        <time>2024-07-31T06:35:17Z</time>
      </trkpt>
      <trkpt lat="47.23729" lon="6.06201">
        <ele>260.4</ele>
        <time>2024-07-31T06:35:18Z</time>
      </trkpt>
      <trkpt lat="47.23735" lon="6.06204">
        <ele>260.4</ele>
        <time>2024-07-31T06:35:19Z</time>
      </trkpt>
      <trkpt lat="47.2374" lon="6.06207">
        <ele>260.4</ele>
        <time>2024-07-31T06:35:20Z</time>
      </trkpt>
      <trkpt lat="47.23746" lon="6.06211">
        <ele>260.4</ele>
        <time>2024-07-31T06:35:21Z</time>
      </trkpt>
      <trkpt lat="47.23751" lon="6.06214">
        <ele>260.4</ele>
        <time>2024-07-31T06:35:22Z</time>
      </trkpt>
      <trkpt lat="47.23757" lon="6.06217">
        <ele>260.4</ele>
        <time>2024-07-31T06:35:23Z</time>
      </trkpt>
      <trkpt lat="47.23762" lon="6.0622">
        <ele>260.4</ele>
        <time>2024-07-31T06:35:24Z</time>
      </trkpt>
      <trkpt lat="47.23767" lon="6.06224">
        <ele>260.6</ele>
        <time>2024-07-31T06:35:25Z</time>
      </trkpt>
      <trkpt lat="47.23773" lon="6.06228">
        <ele>260.6</ele>
        <time>2024-07-31T06:35:26Z</time>
      </trkpt>
      <trkpt lat="47.23778" lon="6.06231">
        <ele>260.6</ele>
        <time>2024-07-31T06:35:27Z</time>
      </trkpt>
      <trkpt lat="47.23783" lon="6.06235">
        <ele>260.6</ele>
        <time>2024-07-31T06:35:28Z</time>
      </trkpt>
      <trkpt lat="47.23789" lon="6.06239">
        <ele>260.4</ele>
        <time>2024-07-31T06:35:29Z</time>
      </trkpt>
      <trkpt lat="47.23794" lon="6.06243">
        <ele>260.6</ele>
        <time>2024-07-31T06:35:30Z</time>
      </trkpt>
      <trkpt lat="47.23799" lon="6.06247">
        <ele>260.6</ele>
        <time>2024-07-31T06:35:31Z</time>
      </trkpt>
      <trkpt lat="47.23804" lon="6.06251">
        <ele>260.8</ele>
        <time>2024-07-31T06:35:32Z</time>
      </trkpt>
      <trkpt lat="47.23809" lon="6.06255">
        <ele>260.6</ele>
        <time>2024-07-31T06:35:33Z</time>
      </trkpt>
      <trkpt lat="47.23814" lon="6.0626">
        <ele>260.8</ele>
        <time>2024-07-31T06:35:34Z</time>
      </trkpt>
      <trkpt lat="47.23818" lon="6.06264">
        <ele>260.8</ele>
        <time>2024-07-31T06:35:35Z</time>
      </trkpt>
      <trkpt lat="47.23823" lon="6.06269">
        <ele>261</ele>
        <time>2024-07-31T06:35:36Z</time>
      </trkpt>
      <trkpt lat="47.23828" lon="6.06274">
        <ele>261</ele>
        <time>2024-07-31T06:35:37Z</time>
      </trkpt>
      <trkpt lat="47.23832" lon="6.06278">
        <ele>261</ele>
        <time>2024-07-31T06:35:38Z</time>
      </trkpt>
      <trkpt lat="47.23837" lon="6.06283">
        <ele>260.8</ele>
        <time>2024-07-31T06:35:39Z</time>
      </trkpt>
      <trkpt lat="47.23841" lon="6.06288">
        <ele>261</ele>
        <time>2024-07-31T06:35:40Z</time>
      </trkpt>
      <trkpt lat="47.23846" lon="6.06292">
        <ele>261</ele>
        <time>2024-07-31T06:35:41Z</time>
      </trkpt>
      <trkpt lat="47.2385" lon="6.06297">
        <ele>261.2</ele>
        <time>2024-07-31T06:35:42Z</time>
      </trkpt>
      <trkpt lat="47.23855" lon="6.06302">
        <ele>261.2</ele>
        <time>2024-07-31T06:35:43Z</time>
      </trkpt>
      <trkpt lat="47.23859" lon="6.06307">
        <ele>261.4</ele>
        <time>2024-07-31T06:35:44Z</time>
      </trkpt>
      <trkpt lat="47.23864" lon="6.06312">
        <ele>261.4</ele>
        <time>2024-07-31T06:35:45Z</time>
      </trkpt>
      <trkpt lat="47.23868" lon="6.06318">
        <ele>261.2</ele>
        <time>2024-07-31T06:35:46Z</time>
      </trkpt>
      <trkpt lat="47.23872" lon="6.06323">
        <ele>261</ele>
        <time>2024-07-31T06:35:47Z</time>
      </trkpt>
      <trkpt lat="47.23877" lon="6.06329">
        <ele>261.2</ele>
        <time>2024-07-31T06:35:48Z</time>
      </trkpt>
      <trkpt lat="47.23881" lon="6.06334">
        <ele>261.2</ele>
        <time>2024-07-31T06:35:49Z</time>
      </trkpt>
      <trkpt lat="47.23885" lon="6.0634">
        <ele>261.2</ele>
        <time>2024-07-31T06:35:50Z</time>
      </trkpt>
      <trkpt lat="47.2389" lon="6.06346">
        <ele>261</ele>
        <time>2024-07-31T06:35:51Z</time>
      </trkpt>
      <trkpt lat="47.23894" lon="6.06352">
        <ele>261</ele>
        <time>2024-07-31T06:35:52Z</time>
      </trkpt>
      <trkpt lat="47.23898" lon="6.06358">
        <ele>260.8</ele>
        <time>2024-07-31T06:35:53Z</time>
      </trkpt>
      <trkpt lat="47.23903" lon="6.06364">
        <ele>260.8</ele>
        <time>2024-07-31T06:35:54Z</time>
      </trkpt>
      <trkpt lat="47.23907" lon="6.0637">
        <ele>260.8</ele>
        <time>2024-07-31T06:35:55Z</time>
      </trkpt>
      <trkpt lat="47.23911" lon="6.06376">
        <ele>260.8</ele>
        <time>2024-07-31T06:35:56Z</time>
      </trkpt>
      <trkpt lat="47.23916" lon="6.06382">
        <ele>260.8</ele>
        <time>2024-07-31T06:35:57Z</time>
      </trkpt>
      <trkpt lat="47.2392" lon="6.06388">
        <ele>260.8</ele>
        <time>2024-07-31T06:35:58Z</time>
      </trkpt>
      <trkpt lat="47.23924" lon="6.06394">
        <ele>260.4</ele>
        <time>2024-07-31T06:35:59Z</time>
      </trkpt>
      <trkpt lat="47.23929" lon="6.064">
        <ele>260.4</ele>
        <time>2024-07-31T06:36:00Z</time>
      </trkpt>
      <trkpt lat="47.23933" lon="6.06406">
        <ele>260.6</ele>
        <time>2024-07-31T06:36:01Z</time>
      </trkpt>
      <trkpt lat="47.23937" lon="6.06412">
        <ele>260.6</ele>
        <time>2024-07-31T06:36:02Z</time>
      </trkpt>
      <trkpt lat="47.23942" lon="6.06418">
        <ele>260.6</ele>
        <time>2024-07-31T06:36:03Z</time>
      </trkpt>
      <trkpt lat="47.23946" lon="6.06424">
        <ele>260.6</ele>
        <time>2024-07-31T06:36:04Z</time>
      </trkpt>
      <trkpt lat="47.2395" lon="6.0643">
        <ele>260.8</ele>
        <time>2024-07-31T06:36:05Z</time>
      </trkpt>
      <trkpt lat="47.23954" lon="6.06436">
        <ele>260.8</ele>
        <time>2024-07-31T06:36:06Z</time>
      </trkpt>
      <trkpt lat="47.23958" lon="6.06442">
        <ele>260.8</ele>
        <time>2024-07-31T06:36:07Z</time>
      </trkpt>
      <trkpt lat="47.23962" lon="6.06448">
        <ele>260.6</ele>
        <time>2024-07-31T06:36:08Z</time>
      </trkpt>
      <trkpt lat="47.23967" lon="6.06454">
        <ele>260.6</ele>
        <time>2024-07-31T06:36:09Z</time>
      </trkpt>
      <trkpt lat="47.23971" lon="6.06459">
        <ele>260.8</ele>
        <time>2024-07-31T06:36:10Z</time>
      </trkpt>
      <trkpt lat="47.23975" lon="6.06465">
        <ele>260.8</ele>
        <time>2024-07-31T06:36:11Z</time>
      </trkpt>
      <trkpt lat="47.2398" lon="6.0647">
        <ele>261</ele>
        <time>2024-07-31T06:36:12Z</time>
      </trkpt>
      <trkpt lat="47.23984" lon="6.06476">
        <ele>261</ele>
        <time>2024-07-31T06:36:13Z</time>
      </trkpt>
      <trkpt lat="47.23988" lon="6.06481">
        <ele>261.2</ele>
        <time>2024-07-31T06:36:14Z</time>
      </trkpt>
      <trkpt lat="47.23993" lon="6.06487">
        <ele>261.2</ele>
        <time>2024-07-31T06:36:15Z</time>
      </trkpt>
      <trkpt lat="47.23997" lon="6.06492">
        <ele>261</ele>
        <time>2024-07-31T06:36:16Z</time>
      </trkpt>
      <trkpt lat="47.24002" lon="6.06497">
        <ele>261</ele>
        <time>2024-07-31T06:36:17Z</time>
      </trkpt>
      <trkpt lat="47.24006" lon="6.06502">
        <ele>260.8</ele>
        <time>2024-07-31T06:36:18Z</time>
      </trkpt>
      <trkpt lat="47.24011" lon="6.06507">
        <ele>260.8</ele>
        <time>2024-07-31T06:36:19Z</time>
      </trkpt>
      <trkpt lat="47.24016" lon="6.06512">
        <ele>260.8</ele>
        <time>2024-07-31T06:36:20Z</time>
      </trkpt>
      <trkpt lat="47.24021" lon="6.06516">
        <ele>260.6</ele>
        <time>2024-07-31T06:36:21Z</time>
      </trkpt>
      <trkpt lat="47.24027" lon="6.0652">
        <ele>260.6</ele>
        <time>2024-07-31T06:36:22Z</time>
      </trkpt>
      <trkpt lat="47.24032" lon="6.06525">
        <ele>260.8</ele>
        <time>2024-07-31T06:36:23Z</time>
      </trkpt>
      <trkpt lat="47.24037" lon="6.0653">
        <ele>260.8</ele>
        <time>2024-07-31T06:36:24Z</time>
      </trkpt>
      <trkpt lat="47.24042" lon="6.06535">
        <ele>260.8</ele>
        <time>2024-07-31T06:36:25Z</time>
      </trkpt>
      <trkpt lat="47.24047" lon="6.0654">
        <ele>260.6</ele>
        <time>2024-07-31T06:36:26Z</time>
      </trkpt>
      <trkpt lat="47.24052" lon="6.06545">
        <ele>260.6</ele>
        <time>2024-07-31T06:36:27Z</time>
      </trkpt>
      <trkpt lat="47.24057" lon="6.06551">
        <ele>260.4</ele>
        <time>2024-07-31T06:36:28Z</time>
      </trkpt>
      <trkpt lat="47.24062" lon="6.06556">
        <ele>260.4</ele>
        <time>2024-07-31T06:36:29Z</time>
      </trkpt>
      <trkpt lat="47.24066" lon="6.06562">
        <ele>260.4</ele>
        <time>2024-07-31T06:36:30Z</time>
      </trkpt>
      <trkpt lat="47.24071" lon="6.06568">
        <ele>260.4</ele>
        <time>2024-07-31T06:36:31Z</time>
      </trkpt>
      <trkpt lat="47.24075" lon="6.06574">
        <ele>260.4</ele>
        <time>2024-07-31T06:36:32Z</time>
      </trkpt>
      <trkpt lat="47.2408" lon="6.0658">
        <ele>260.6</ele>
        <time>2024-07-31T06:36:33Z</time>
      </trkpt>
      <trkpt lat="47.24085" lon="6.06585">
        <ele>260.2</ele>
        <time>2024-07-31T06:36:34Z</time>
      </trkpt>
      <trkpt lat="47.24089" lon="6.06591">
        <ele>260.2</ele>
        <time>2024-07-31T06:36:35Z</time>
      </trkpt>
      <trkpt lat="47.24094" lon="6.06596">
        <ele>260.2</ele>
        <time>2024-07-31T06:36:36Z</time>
      </trkpt>
      <trkpt lat="47.24098" lon="6.06602">
        <ele>260.4</ele>
        <time>2024-07-31T06:36:37Z</time>
      </trkpt>
      <trkpt lat="47.24103" lon="6.06607">
        <ele>260.4</ele>
        <time>2024-07-31T06:36:38Z</time>
      </trkpt>
      <trkpt lat="47.24108" lon="6.06613">
        <ele>260.4</ele>
        <time>2024-07-31T06:36:39Z</time>
      </trkpt>
      <trkpt lat="47.24112" lon="6.06618">
        <ele>260.4</ele>
        <time>2024-07-31T06:36:40Z</time>
      </trkpt>
      <trkpt lat="47.24117" lon="6.06623">
        <ele>260.4</ele>
        <time>2024-07-31T06:36:41Z</time>
      </trkpt>
      <trkpt lat="47.24122" lon="6.06628">
        <ele>260.2</ele>
        <time>2024-07-31T06:36:42Z</time>
      </trkpt>
      <trkpt lat="47.24126" lon="6.06633">
        <ele>260.4</ele>
        <time>2024-07-31T06:36:43Z</time>
      </trkpt>
      <trkpt lat="47.24131" lon="6.06638">
        <ele>261</ele>
        <time>2024-07-31T06:36:44Z</time>
      </trkpt>
      <trkpt lat="47.24136" lon="6.06643">
        <ele>260.4</ele>
        <time>2024-07-31T06:36:45Z</time>
      </trkpt>
      <trkpt lat="47.2414" lon="6.06648">
        <ele>260.6</ele>
        <time>2024-07-31T06:36:46Z</time>
      </trkpt>
      <trkpt lat="47.24145" lon="6.06653">
        <ele>260.6</ele>
        <time>2024-07-31T06:36:47Z</time>
      </trkpt>
      <trkpt lat="47.2415" lon="6.06658">
        <ele>260.8</ele>
        <time>2024-07-31T06:36:48Z</time>
      </trkpt>
      <trkpt lat="47.24154" lon="6.06663">
        <ele>260.8</ele>
        <time>2024-07-31T06:36:49Z</time>
      </trkpt>
      <trkpt lat="47.24159" lon="6.06668">
        <ele>260.8</ele>
        <time>2024-07-31T06:36:50Z</time>
      </trkpt>
      <trkpt lat="47.24163" lon="6.06674">
        <ele>260.6</ele>
        <time>2024-07-31T06:36:51Z</time>
      </trkpt>
      <trkpt lat="47.24167" lon="6.06679">
        <ele>260.6</ele>
        <time>2024-07-31T06:36:52Z</time>
      </trkpt>
      <trkpt lat="47.24172" lon="6.06684">
        <ele>260.8</ele>
        <time>2024-07-31T06:36:53Z</time>
      </trkpt>
      <trkpt lat="47.24177" lon="6.06688">
        <ele>260.8</ele>
        <time>2024-07-31T06:36:54Z</time>
      </trkpt>
      <trkpt lat="47.24181" lon="6.06693">
        <ele>260.8</ele>
        <time>2024-07-31T06:36:55Z</time>
      </trkpt>
      <trkpt lat="47.24186" lon="6.06697">
        <ele>261</ele>
        <time>2024-07-31T06:36:56Z</time>
      </trkpt>
      <trkpt lat="47.24192" lon="6.067">
        <ele>261</ele>
        <time>2024-07-31T06:36:57Z</time>
      </trkpt>
      <trkpt lat="47.24197" lon="6.06702">
        <ele>260.8</ele>
        <time>2024-07-31T06:36:58Z</time>
      </trkpt>
      <trkpt lat="47.24203" lon="6.06706">
        <ele>260.8</ele>
        <time>2024-07-31T06:36:59Z</time>
      </trkpt>
      <trkpt lat="47.24208" lon="6.06709">
        <ele>260.8</ele>
        <time>2024-07-31T06:37:00Z</time>
      </trkpt>
      <trkpt lat="47.24213" lon="6.06712">
        <ele>260.6</ele>
        <time>2024-07-31T06:37:01Z</time>
      </trkpt>
      <trkpt lat="47.24219" lon="6.06716">
        <ele>260.8</ele>
        <time>2024-07-31T06:37:02Z</time>
      </trkpt>
      <trkpt lat="47.24224" lon="6.06719">
        <ele>260.8</ele>
        <time>2024-07-31T06:37:03Z</time>
      </trkpt>
      <trkpt lat="47.2423" lon="6.06723">
        <ele>260.8</ele>
        <time>2024-07-31T06:37:04Z</time>
      </trkpt>
      <trkpt lat="47.24235" lon="6.06726">
        <ele>260.8</ele>
        <time>2024-07-31T06:37:05Z</time>
      </trkpt>
      <trkpt lat="47.24241" lon="6.06728">
        <ele>260.8</ele>
        <time>2024-07-31T06:37:06Z</time>
      </trkpt>
      <trkpt lat="47.24246" lon="6.06731">
        <ele>260.8</ele>
        <time>2024-07-31T06:37:07Z</time>
      </trkpt>
      <trkpt lat="47.24252" lon="6.06734">
        <ele>260.8</ele>
        <time>2024-07-31T06:37:08Z</time>
      </trkpt>
      <trkpt lat="47.24258" lon="6.06736">
        <ele>260.8</ele>
        <time>2024-07-31T06:37:09Z</time>
      </trkpt>
      <trkpt lat="47.24263" lon="6.06739">
        <ele>260.6</ele>
        <time>2024-07-31T06:37:10Z</time>
      </trkpt>
      <trkpt lat="47.24269" lon="6.06741">
        <ele>260.6</ele>
        <time>2024-07-31T06:37:11Z</time>
      </trkpt>
      <trkpt lat="47.24275" lon="6.06743">
        <ele>260.6</ele>
        <time>2024-07-31T06:37:12Z</time>
      </trkpt>
      <trkpt lat="47.24281" lon="6.06746">
        <ele>260.6</ele>
        <time>2024-07-31T06:37:13Z</time>
      </trkpt>
      <trkpt lat="47.24287" lon="6.06748">
        <ele>260.6</ele>
        <time>2024-07-31T06:37:14Z</time>
      </trkpt>
      <trkpt lat="47.24292" lon="6.0675">
        <ele>260.6</ele>
        <time>2024-07-31T06:37:15Z</time>
      </trkpt>
      <trkpt lat="47.24298" lon="6.06753">
        <ele>260.6</ele>
        <time>2024-07-31T06:37:16Z</time>
      </trkpt>
      <trkpt lat="47.24304" lon="6.06755">
        <ele>260.8</ele>
        <time>2024-07-31T06:37:17Z</time>
      </trkpt>
      <trkpt lat="47.2431" lon="6.06757">
        <ele>260.6</ele>
        <time>2024-07-31T06:37:18Z</time>
      </trkpt>
      <trkpt lat="47.24316" lon="6.06759">
        <ele>260.8</ele>
        <time>2024-07-31T06:37:19Z</time>
      </trkpt>
      <trkpt lat="47.24321" lon="6.06762">
        <ele>260.8</ele>
        <time>2024-07-31T06:37:20Z</time>
      </trkpt>
      <trkpt lat="47.24327" lon="6.06764">
        <ele>260.6</ele>
        <time>2024-07-31T06:37:21Z</time>
      </trkpt>
      <trkpt lat="47.24333" lon="6.06766">
        <ele>260.6</ele>
        <time>2024-07-31T06:37:22Z</time>
      </trkpt>
      <trkpt lat="47.24339" lon="6.06768">
        <ele>260.8</ele>
        <time>2024-07-31T06:37:23Z</time>
      </trkpt>
      <trkpt lat="47.24344" lon="6.06771">
        <ele>260.8</ele>
        <time>2024-07-31T06:37:24Z</time>
      </trkpt>
      <trkpt lat="47.2435" lon="6.06773">
        <ele>260.8</ele>
        <time>2024-07-31T06:37:25Z</time>
      </trkpt>
      <trkpt lat="47.24355" lon="6.06775">
        <ele>260.8</ele>
        <time>2024-07-31T06:37:26Z</time>
      </trkpt>
      <trkpt lat="47.24361" lon="6.06777">
        <ele>260.6</ele>
        <time>2024-07-31T06:37:27Z</time>
      </trkpt>
      <trkpt lat="47.24366" lon="6.0678">
        <ele>260.8</ele>
        <time>2024-07-31T06:37:28Z</time>
      </trkpt>
      <trkpt lat="47.24372" lon="6.06782">
        <ele>260.8</ele>
        <time>2024-07-31T06:37:29Z</time>
      </trkpt>
      <trkpt lat="47.24378" lon="6.06784">
        <ele>260.8</ele>
        <time>2024-07-31T06:37:30Z</time>
      </trkpt>
      <trkpt lat="47.24384" lon="6.06786">
        <ele>260.8</ele>
        <time>2024-07-31T06:37:31Z</time>
      </trkpt>
      <trkpt lat="47.24389" lon="6.06788">
        <ele>260.6</ele>
        <time>2024-07-31T06:37:32Z</time>
      </trkpt>
      <trkpt lat="47.24395" lon="6.06791">
        <ele>260.8</ele>
        <time>2024-07-31T06:37:33Z</time>
      </trkpt>
      <trkpt lat="47.24401" lon="6.06793">
        <ele>260.6</ele>
        <time>2024-07-31T06:37:34Z</time>
      </trkpt>
      <trkpt lat="47.24407" lon="6.06795">
        <ele>260.6</ele>
        <time>2024-07-31T06:37:35Z</time>
      </trkpt>
      <trkpt lat="47.24412" lon="6.06797">
        <ele>260.8</ele>
        <time>2024-07-31T06:37:36Z</time>
      </trkpt>
      <trkpt lat="47.24418" lon="6.068">
        <ele>260.6</ele>
        <time>2024-07-31T06:37:37Z</time>
      </trkpt>
      <trkpt lat="47.24424" lon="6.06802">
        <ele>260.6</ele>
        <time>2024-07-31T06:37:38Z</time>
      </trkpt>
      <trkpt lat="47.2443" lon="6.06804">
        <ele>260.6</ele>
        <time>2024-07-31T06:37:39Z</time>
      </trkpt>
      <trkpt lat="47.24436" lon="6.06806">
        <ele>260.6</ele>
        <time>2024-07-31T06:37:40Z</time>
      </trkpt>
      <trkpt lat="47.24441" lon="6.06809">
        <ele>260.6</ele>
        <time>2024-07-31T06:37:41Z</time>
      </trkpt>
      <trkpt lat="47.24447" lon="6.06811">
        <ele>260.6</ele>
        <time>2024-07-31T06:37:42Z</time>
      </trkpt>
      <trkpt lat="47.24453" lon="6.06813">
        <ele>260.6</ele>
        <time>2024-07-31T06:37:43Z</time>
      </trkpt>
      <trkpt lat="47.24458" lon="6.06816">
        <ele>260.6</ele>
        <time>2024-07-31T06:37:44Z</time>
      </trkpt>
      <trkpt lat="47.24464" lon="6.06818">
        <ele>260.6</ele>
        <time>2024-07-31T06:37:45Z</time>
      </trkpt>
      <trkpt lat="47.2447" lon="6.06821">
        <ele>260.6</ele>
        <time>2024-07-31T06:37:46Z</time>
      </trkpt>
      <trkpt lat="47.24475" lon="6.06823">
        <ele>260.6</ele>
        <time>2024-07-31T06:37:47Z</time>
      </trkpt>
      <trkpt lat="47.24481" lon="6.06826">
        <ele>260.6</ele>
        <time>2024-07-31T06:37:48Z</time>
      </trkpt>
      <trkpt lat="47.24487" lon="6.06829">
        <ele>260.4</ele>
        <time>2024-07-31T06:37:49Z</time>
      </trkpt>
      <trkpt lat="47.24493" lon="6.06832">
        <ele>260.6</ele>
        <time>2024-07-31T06:37:50Z</time>
      </trkpt>
      <trkpt lat="47.24498" lon="6.06835">
        <ele>260.6</ele>
        <time>2024-07-31T06:37:51Z</time>
      </trkpt>
      <trkpt lat="47.24504" lon="6.06838">
        <ele>260.6</ele>
        <time>2024-07-31T06:37:52Z</time>
      </trkpt>
      <trkpt lat="47.2451" lon="6.06841">
        <ele>260.6</ele>
        <time>2024-07-31T06:37:53Z</time>
      </trkpt>
      <trkpt lat="47.24515" lon="6.06844">
        <ele>260.4</ele>
        <time>2024-07-31T06:37:54Z</time>
      </trkpt>
      <trkpt lat="47.24521" lon="6.06848">
        <ele>260.2</ele>
        <time>2024-07-31T06:37:55Z</time>
      </trkpt>
      <trkpt lat="47.24526" lon="6.06851">
        <ele>260.2</ele>
        <time>2024-07-31T06:37:56Z</time>
      </trkpt>
      <trkpt lat="47.24532" lon="6.06855">
        <ele>260.4</ele>
        <time>2024-07-31T06:37:57Z</time>
      </trkpt>
      <trkpt lat="47.24537" lon="6.06858">
        <ele>260.2</ele>
        <time>2024-07-31T06:37:58Z</time>
      </trkpt>
      <trkpt lat="47.24542" lon="6.06862">
        <ele>260.2</ele>
        <time>2024-07-31T06:37:59Z</time>
      </trkpt>
      <trkpt lat="47.24548" lon="6.06866">
        <ele>260.4</ele>
        <time>2024-07-31T06:38:00Z</time>
      </trkpt>
      <trkpt lat="47.24553" lon="6.0687">
        <ele>260.4</ele>
        <time>2024-07-31T06:38:01Z</time>
      </trkpt>
      <trkpt lat="47.24558" lon="6.06874">
        <ele>260.4</ele>
        <time>2024-07-31T06:38:02Z</time>
      </trkpt>
      <trkpt lat="47.24564" lon="6.06878">
        <ele>260.2</ele>
        <time>2024-07-31T06:38:03Z</time>
      </trkpt>
      <trkpt lat="47.24569" lon="6.06883">
        <ele>260.2</ele>
        <time>2024-07-31T06:38:04Z</time>
      </trkpt>
      <trkpt lat="47.24574" lon="6.06887">
        <ele>260.4</ele>
        <time>2024-07-31T06:38:05Z</time>
      </trkpt>
      <trkpt lat="47.24579" lon="6.06892">
        <ele>260.2</ele>
        <time>2024-07-31T06:38:06Z</time>
      </trkpt>
      <trkpt lat="47.24584" lon="6.06898">
        <ele>260.2</ele>
        <time>2024-07-31T06:38:07Z</time>
      </trkpt>
      <trkpt lat="47.24589" lon="6.06903">
        <ele>260.2</ele>
        <time>2024-07-31T06:38:08Z</time>
      </trkpt>
      <trkpt lat="47.24594" lon="6.06908">
        <ele>260.2</ele>
        <time>2024-07-31T06:38:09Z</time>
      </trkpt>
      <trkpt lat="47.24598" lon="6.06914">
        <ele>260.2</ele>
        <time>2024-07-31T06:38:10Z</time>
      </trkpt>
      <trkpt lat="47.24603" lon="6.06919">
        <ele>260.2</ele>
        <time>2024-07-31T06:38:11Z</time>
      </trkpt>
      <trkpt lat="47.24607" lon="6.06925">
        <ele>260.2</ele>
        <time>2024-07-31T06:38:12Z</time>
      </trkpt>
      <trkpt lat="47.24612" lon="6.06931">
        <ele>260.2</ele>
        <time>2024-07-31T06:38:13Z</time>
      </trkpt>
      <trkpt lat="47.24616" lon="6.06937">
        <ele>260.2</ele>
        <time>2024-07-31T06:38:14Z</time>
      </trkpt>
      <trkpt lat="47.2462" lon="6.06943">
        <ele>260.2</ele>
        <time>2024-07-31T06:38:15Z</time>
      </trkpt>
      <trkpt lat="47.24625" lon="6.06949">
        <ele>260.2</ele>
        <time>2024-07-31T06:38:16Z</time>
      </trkpt>
      <trkpt lat="47.24629" lon="6.06955">
        <ele>260.2</ele>
        <time>2024-07-31T06:38:17Z</time>
      </trkpt>
      <trkpt lat="47.24634" lon="6.06962">
        <ele>260.2</ele>
        <time>2024-07-31T06:38:18Z</time>
      </trkpt>
      <trkpt lat="47.24638" lon="6.06968">
        <ele>260.2</ele>
        <time>2024-07-31T06:38:19Z</time>
      </trkpt>
      <trkpt lat="47.24642" lon="6.06974">
        <ele>260.2</ele>
        <time>2024-07-31T06:38:20Z</time>
      </trkpt>
      <trkpt lat="47.24647" lon="6.06979">
        <ele>260.2</ele>
        <time>2024-07-31T06:38:21Z</time>
      </trkpt>
      <trkpt lat="47.24651" lon="6.06985">
        <ele>260.2</ele>
        <time>2024-07-31T06:38:22Z</time>
      </trkpt>
      <trkpt lat="47.24656" lon="6.06991">
        <ele>260.2</ele>
        <time>2024-07-31T06:38:23Z</time>
      </trkpt>
      <trkpt lat="47.2466" lon="6.06997">
        <ele>260.2</ele>
        <time>2024-07-31T06:38:24Z</time>
      </trkpt>
      <trkpt lat="47.24665" lon="6.07004">
        <ele>260</ele>
        <time>2024-07-31T06:38:25Z</time>
      </trkpt>
      <trkpt lat="47.24669" lon="6.0701">
        <ele>260</ele>
        <time>2024-07-31T06:38:26Z</time>
      </trkpt>
      <trkpt lat="47.24674" lon="6.07016">
        <ele>259.8</ele>
        <time>2024-07-31T06:38:27Z</time>
      </trkpt>
      <trkpt lat="47.24678" lon="6.07022">
        <ele>259.8</ele>
        <time>2024-07-31T06:38:28Z</time>
      </trkpt>
      <trkpt lat="47.24683" lon="6.07028">
        <ele>259.8</ele>
        <time>2024-07-31T06:38:29Z</time>
      </trkpt>
      <trkpt lat="47.24687" lon="6.07035">
        <ele>259.8</ele>
        <time>2024-07-31T06:38:30Z</time>
      </trkpt>
      <trkpt lat="47.24692" lon="6.07041">
        <ele>260</ele>
        <time>2024-07-31T06:38:31Z</time>
      </trkpt>
      <trkpt lat="47.24696" lon="6.07047">
        <ele>260</ele>
        <time>2024-07-31T06:38:32Z</time>
      </trkpt>
      <trkpt lat="47.247" lon="6.07053">
        <ele>259.8</ele>
        <time>2024-07-31T06:38:33Z</time>
      </trkpt>
      <trkpt lat="47.24705" lon="6.0706">
        <ele>259.8</ele>
        <time>2024-07-31T06:38:34Z</time>
      </trkpt>
      <trkpt lat="47.24709" lon="6.07066">
        <ele>259.8</ele>
        <time>2024-07-31T06:38:35Z</time>
      </trkpt>
      <trkpt lat="47.24713" lon="6.07073">
        <ele>259.6</ele>
        <time>2024-07-31T06:38:36Z</time>
      </trkpt>
      <trkpt lat="47.24717" lon="6.07079">
        <ele>259.6</ele>
        <time>2024-07-31T06:38:37Z</time>
      </trkpt>
      <trkpt lat="47.24721" lon="6.07086">
        <ele>259.4</ele>
        <time>2024-07-31T06:38:38Z</time>
      </trkpt>
      <trkpt lat="47.24726" lon="6.07092">
        <ele>259.6</ele>
        <time>2024-07-31T06:38:39Z</time>
      </trkpt>
      <trkpt lat="47.2473" lon="6.07099">
        <ele>259.6</ele>
        <time>2024-07-31T06:38:40Z</time>
      </trkpt>
      <trkpt lat="47.24734" lon="6.07105">
        <ele>259.6</ele>
        <time>2024-07-31T06:38:41Z</time>
      </trkpt>
      <trkpt lat="47.24738" lon="6.07112">
        <ele>259.6</ele>
        <time>2024-07-31T06:38:42Z</time>
      </trkpt>
      <trkpt lat="47.24743" lon="6.07118">
        <ele>259.6</ele>
        <time>2024-07-31T06:38:43Z</time>
      </trkpt>
      <trkpt lat="47.24747" lon="6.07125">
        <ele>259.8</ele>
        <time>2024-07-31T06:38:44Z</time>
      </trkpt>
      <trkpt lat="47.24751" lon="6.07132">
        <ele>259.6</ele>
        <time>2024-07-31T06:38:45Z</time>
      </trkpt>
      <trkpt lat="47.24755" lon="6.07138">
        <ele>259.6</ele>
        <time>2024-07-31T06:38:46Z</time>
      </trkpt>
      <trkpt lat="47.24759" lon="6.07145">
        <ele>259.4</ele>
        <time>2024-07-31T06:38:47Z</time>
      </trkpt>
      <trkpt lat="47.24763" lon="6.07152">
        <ele>259.4</ele>
        <time>2024-07-31T06:38:48Z</time>
      </trkpt>
      <trkpt lat="47.24767" lon="6.07159">
        <ele>259.4</ele>
        <time>2024-07-31T06:38:49Z</time>
      </trkpt>
      <trkpt lat="47.24772" lon="6.07166">
        <ele>259.4</ele>
        <time>2024-07-31T06:38:50Z</time>
      </trkpt>
      <trkpt lat="47.24776" lon="6.07173">
        <ele>259.4</ele>
        <time>2024-07-31T06:38:51Z</time>
      </trkpt>
      <trkpt lat="47.2478" lon="6.0718">
        <ele>259.4</ele>
        <time>2024-07-31T06:38:52Z</time>
      </trkpt>
      <trkpt lat="47.24784" lon="6.07187">
        <ele>259.4</ele>
        <time>2024-07-31T06:38:53Z</time>
      </trkpt>
      <trkpt lat="47.24788" lon="6.07194">
        <ele>259.2</ele>
        <time>2024-07-31T06:38:54Z</time>
      </trkpt>
      <trkpt lat="47.24792" lon="6.07201">
        <ele>259.2</ele>
        <time>2024-07-31T06:38:55Z</time>
      </trkpt>
      <trkpt lat="47.24797" lon="6.07208">
        <ele>259</ele>
        <time>2024-07-31T06:38:56Z</time>
      </trkpt>
      <trkpt lat="47.24801" lon="6.07215">
        <ele>259.2</ele>
        <time>2024-07-31T06:38:57Z</time>
      </trkpt>
      <trkpt lat="47.24805" lon="6.07222">
        <ele>259.2</ele>
        <time>2024-07-31T06:38:58Z</time>
      </trkpt>
      <trkpt lat="47.2481" lon="6.07229">
        <ele>259.2</ele>
        <time>2024-07-31T06:38:59Z</time>
      </trkpt>
      <trkpt lat="47.24814" lon="6.07235">
        <ele>259</ele>
        <time>2024-07-31T06:39:00Z</time>
      </trkpt>
      <trkpt lat="47.24819" lon="6.07242">
        <ele>259.2</ele>
        <time>2024-07-31T06:39:01Z</time>
      </trkpt>
      <trkpt lat="47.24823" lon="6.07248">
        <ele>259</ele>
        <time>2024-07-31T06:39:02Z</time>
      </trkpt>
      <trkpt lat="47.24828" lon="6.07254">
        <ele>259</ele>
        <time>2024-07-31T06:39:03Z</time>
      </trkpt>
      <trkpt lat="47.24833" lon="6.07261">
        <ele>259</ele>
        <time>2024-07-31T06:39:04Z</time>
      </trkpt>
      <trkpt lat="47.24837" lon="6.07267">
        <ele>259</ele>
        <time>2024-07-31T06:39:05Z</time>
      </trkpt>
      <trkpt lat="47.24842" lon="6.07273">
        <ele>259</ele>
        <time>2024-07-31T06:39:06Z</time>
      </trkpt>
      <trkpt lat="47.24847" lon="6.07279">
        <ele>259</ele>
        <time>2024-07-31T06:39:07Z</time>
      </trkpt>
      <trkpt lat="47.24851" lon="6.07285">
        <ele>258.8</ele>
        <time>2024-07-31T06:39:08Z</time>
      </trkpt>
      <trkpt lat="47.24856" lon="6.07291">
        <ele>259</ele>
        <time>2024-07-31T06:39:09Z</time>
      </trkpt>
      <trkpt lat="47.24861" lon="6.07296">
        <ele>258.8</ele>
        <time>2024-07-31T06:39:10Z</time>
      </trkpt>
      <trkpt lat="47.24866" lon="6.07302">
        <ele>258.8</ele>
        <time>2024-07-31T06:39:11Z</time>
      </trkpt>
      <trkpt lat="47.24871" lon="6.07307">
        <ele>258.8</ele>
        <time>2024-07-31T06:39:12Z</time>
      </trkpt>
      <trkpt lat="47.24876" lon="6.07313">
        <ele>258.8</ele>
        <time>2024-07-31T06:39:13Z</time>
      </trkpt>
      <trkpt lat="47.24882" lon="6.07318">
        <ele>258.8</ele>
        <time>2024-07-31T06:39:14Z</time>
      </trkpt>
      <trkpt lat="47.24887" lon="6.07322">
        <ele>258.6</ele>
        <time>2024-07-31T06:39:15Z</time>
      </trkpt>
      <trkpt lat="47.24892" lon="6.07327">
        <ele>258.6</ele>
        <time>2024-07-31T06:39:16Z</time>
      </trkpt>
      <trkpt lat="47.24898" lon="6.07332">
        <ele>258.6</ele>
        <time>2024-07-31T06:39:17Z</time>
      </trkpt>
      <trkpt lat="47.24903" lon="6.07336">
        <ele>258.6</ele>
        <time>2024-07-31T06:39:18Z</time>
      </trkpt>
      <trkpt lat="47.24909" lon="6.07341">
        <ele>258.6</ele>
        <time>2024-07-31T06:39:19Z</time>
      </trkpt>
      <trkpt lat="47.24914" lon="6.07345">
        <ele>258.6</ele>
        <time>2024-07-31T06:39:20Z</time>
      </trkpt>
      <trkpt lat="47.2492" lon="6.0735">
        <ele>258.6</ele>
        <time>2024-07-31T06:39:21Z</time>
      </trkpt>
      <trkpt lat="47.24926" lon="6.07354">
        <ele>258.4</ele>
        <time>2024-07-31T06:39:22Z</time>
      </trkpt>
      <trkpt lat="47.24931" lon="6.07359">
        <ele>258.6</ele>
        <time>2024-07-31T06:39:23Z</time>
      </trkpt>
      <trkpt lat="47.24937" lon="6.07364">
        <ele>258.4</ele>
        <time>2024-07-31T06:39:24Z</time>
      </trkpt>
      <trkpt lat="47.24942" lon="6.07368">
        <ele>258.6</ele>
        <time>2024-07-31T06:39:25Z</time>
      </trkpt>
      <trkpt lat="47.24948" lon="6.07373">
        <ele>258.6</ele>
        <time>2024-07-31T06:39:26Z</time>
      </trkpt>
      <trkpt lat="47.24954" lon="6.07377">
        <ele>258.6</ele>
        <time>2024-07-31T06:39:27Z</time>
      </trkpt>
      <trkpt lat="47.24959" lon="6.07381">
        <ele>258.6</ele>
        <time>2024-07-31T06:39:28Z</time>
      </trkpt>
      <trkpt lat="47.24965" lon="6.07386">
        <ele>258.8</ele>
        <time>2024-07-31T06:39:29Z</time>
      </trkpt>
      <trkpt lat="47.2497" lon="6.0739">
        <ele>258.8</ele>
        <time>2024-07-31T06:39:30Z</time>
      </trkpt>
      <trkpt lat="47.24975" lon="6.07395">
        <ele>258.6</ele>
        <time>2024-07-31T06:39:31Z</time>
      </trkpt>
      <trkpt lat="47.2498" lon="6.074">
        <ele>258.8</ele>
        <time>2024-07-31T06:39:32Z</time>
      </trkpt>
      <trkpt lat="47.24985" lon="6.07404">
        <ele>258.8</ele>
        <time>2024-07-31T06:39:33Z</time>
      </trkpt>
      <trkpt lat="47.2499" lon="6.07409">
        <ele>258.6</ele>
        <time>2024-07-31T06:39:34Z</time>
      </trkpt>
      <trkpt lat="47.24995" lon="6.07414">
        <ele>258.8</ele>
        <time>2024-07-31T06:39:35Z</time>
      </trkpt>
      <trkpt lat="47.25001" lon="6.07418">
        <ele>258.8</ele>
        <time>2024-07-31T06:39:36Z</time>
      </trkpt>
      <trkpt lat="47.25006" lon="6.07423">
        <ele>258.8</ele>
        <time>2024-07-31T06:39:37Z</time>
      </trkpt>
      <trkpt lat="47.25011" lon="6.07427">
        <ele>258.6</ele>
        <time>2024-07-31T06:39:38Z</time>
      </trkpt>
      <trkpt lat="47.25016" lon="6.07432">
        <ele>258.6</ele>
        <time>2024-07-31T06:39:39Z</time>
      </trkpt>
      <trkpt lat="47.25022" lon="6.07436">
        <ele>258.6</ele>
        <time>2024-07-31T06:39:40Z</time>
      </trkpt>
      <trkpt lat="47.25027" lon="6.0744">
        <ele>258.6</ele>
        <time>2024-07-31T06:39:41Z</time>
      </trkpt>
      <trkpt lat="47.25032" lon="6.07445">
        <ele>258.6</ele>
        <time>2024-07-31T06:39:42Z</time>
      </trkpt>
      <trkpt lat="47.25038" lon="6.07449">
        <ele>258.8</ele>
        <time>2024-07-31T06:39:43Z</time>
      </trkpt>
      <trkpt lat="47.25043" lon="6.07453">
        <ele>258.8</ele>
        <time>2024-07-31T06:39:44Z</time>
      </trkpt>
      <trkpt lat="47.25048" lon="6.07457">
        <ele>258.6</ele>
        <time>2024-07-31T06:39:45Z</time>
      </trkpt>
      <trkpt lat="47.25053" lon="6.07462">
        <ele>258.4</ele>
        <time>2024-07-31T06:39:46Z</time>
      </trkpt>
      <trkpt lat="47.25058" lon="6.07467">
        <ele>258.6</ele>
        <time>2024-07-31T06:39:47Z</time>
      </trkpt>
      <trkpt lat="47.25063" lon="6.07472">
        <ele>258.6</ele>
        <time>2024-07-31T06:39:48Z</time>
      </trkpt>
      <trkpt lat="47.25068" lon="6.07478">
        <ele>258.4</ele>
        <time>2024-07-31T06:39:49Z</time>
      </trkpt>
      <trkpt lat="47.25073" lon="6.07483">
        <ele>258.4</ele>
        <time>2024-07-31T06:39:50Z</time>
      </trkpt>
      <trkpt lat="47.25078" lon="6.07488">
        <ele>258.4</ele>
        <time>2024-07-31T06:39:51Z</time>
      </trkpt>
      <trkpt lat="47.25082" lon="6.07493">
        <ele>258.2</ele>
        <time>2024-07-31T06:39:52Z</time>
      </trkpt>
      <trkpt lat="47.25087" lon="6.07499">
        <ele>258.4</ele>
        <time>2024-07-31T06:39:53Z</time>
      </trkpt>
      <trkpt lat="47.25092" lon="6.07504">
        <ele>258.4</ele>
        <time>2024-07-31T06:39:54Z</time>
      </trkpt>
      <trkpt lat="47.25097" lon="6.07509">
        <ele>258.4</ele>
        <time>2024-07-31T06:39:55Z</time>
      </trkpt>
      <trkpt lat="47.25102" lon="6.07514">
        <ele>258.6</ele>
        <time>2024-07-31T06:39:56Z</time>
      </trkpt>
      <trkpt lat="47.25107" lon="6.07519">
        <ele>258.4</ele>
        <time>2024-07-31T06:39:57Z</time>
      </trkpt>
      <trkpt lat="47.25112" lon="6.07524">
        <ele>258.6</ele>
        <time>2024-07-31T06:39:58Z</time>
      </trkpt>
      <trkpt lat="47.25117" lon="6.07529">
        <ele>258.6</ele>
        <time>2024-07-31T06:39:59Z</time>
      </trkpt>
      <trkpt lat="47.25121" lon="6.07534">
        <ele>258.6</ele>
        <time>2024-07-31T06:40:00Z</time>
      </trkpt>
      <trkpt lat="47.25126" lon="6.0754">
        <ele>258.6</ele>
        <time>2024-07-31T06:40:01Z</time>
      </trkpt>
      <trkpt lat="47.2513" lon="6.07545">
        <ele>258.8</ele>
        <time>2024-07-31T06:40:02Z</time>
      </trkpt>
      <trkpt lat="47.25134" lon="6.07551">
        <ele>258.8</ele>
        <time>2024-07-31T06:40:03Z</time>
      </trkpt>
      <trkpt lat="47.25139" lon="6.07557">
        <ele>258.8</ele>
        <time>2024-07-31T06:40:04Z</time>
      </trkpt>
      <trkpt lat="47.25143" lon="6.07562">
        <ele>259</ele>
        <time>2024-07-31T06:40:05Z</time>
      </trkpt>
      <trkpt lat="47.25147" lon="6.07568">
        <ele>259</ele>
        <time>2024-07-31T06:40:06Z</time>
      </trkpt>
      <trkpt lat="47.25151" lon="6.07573">
        <ele>259</ele>
        <time>2024-07-31T06:40:07Z</time>
      </trkpt>
      <trkpt lat="47.25155" lon="6.07579">
        <ele>259</ele>
        <time>2024-07-31T06:40:08Z</time>
      </trkpt>
      <trkpt lat="47.25159" lon="6.07586">
        <ele>259</ele>
        <time>2024-07-31T06:40:09Z</time>
      </trkpt>
      <trkpt lat="47.25163" lon="6.07592">
        <ele>259</ele>
        <time>2024-07-31T06:40:10Z</time>
      </trkpt>
      <trkpt lat="47.25167" lon="6.07598">
        <ele>259</ele>
        <time>2024-07-31T06:40:11Z</time>
      </trkpt>
      <trkpt lat="47.25171" lon="6.07604">
        <ele>259.2</ele>
        <time>2024-07-31T06:40:12Z</time>
      </trkpt>
      <trkpt lat="47.25175" lon="6.0761">
        <ele>259.4</ele>
        <time>2024-07-31T06:40:13Z</time>
      </trkpt>
      <trkpt lat="47.25178" lon="6.07617">
        <ele>259.4</ele>
        <time>2024-07-31T06:40:14Z</time>
      </trkpt>
      <trkpt lat="47.25182" lon="6.07623">
        <ele>259.4</ele>
        <time>2024-07-31T06:40:15Z</time>
      </trkpt>
      <trkpt lat="47.25186" lon="6.07629">
        <ele>259.6</ele>
        <time>2024-07-31T06:40:16Z</time>
      </trkpt>
      <trkpt lat="47.25189" lon="6.07635">
        <ele>259.6</ele>
        <time>2024-07-31T06:40:17Z</time>
      </trkpt>
      <trkpt lat="47.25192" lon="6.07641">
        <ele>259.6</ele>
        <time>2024-07-31T06:40:18Z</time>
      </trkpt>
      <trkpt lat="47.25195" lon="6.07648">
        <ele>259.8</ele>
        <time>2024-07-31T06:40:19Z</time>
      </trkpt>
      <trkpt lat="47.25199" lon="6.07655">
        <ele>259.8</ele>
        <time>2024-07-31T06:40:20Z</time>
      </trkpt>
      <trkpt lat="47.25202" lon="6.07662">
        <ele>259.4</ele>
        <time>2024-07-31T06:40:21Z</time>
      </trkpt>
      <trkpt lat="47.25205" lon="6.07669">
        <ele>259.6</ele>
        <time>2024-07-31T06:40:22Z</time>
      </trkpt>
      <trkpt lat="47.25208" lon="6.07676">
        <ele>259.2</ele>
        <time>2024-07-31T06:40:23Z</time>
      </trkpt>
      <trkpt lat="47.25211" lon="6.07684">
        <ele>257.8</ele>
        <time>2024-07-31T06:40:24Z</time>
      </trkpt>
      <trkpt lat="47.25214" lon="6.07691">
        <ele>257.6</ele>
        <time>2024-07-31T06:40:25Z</time>
      </trkpt>
      <trkpt lat="47.25217" lon="6.07699">
        <ele>257.6</ele>
        <time>2024-07-31T06:40:26Z</time>
      </trkpt>
      <trkpt lat="47.2522" lon="6.07706">
        <ele>260.6</ele>
        <time>2024-07-31T06:40:27Z</time>
      </trkpt>
      <trkpt lat="47.25222" lon="6.07714">
        <ele>258.4</ele>
        <time>2024-07-31T06:40:28Z</time>
      </trkpt>
      <trkpt lat="47.25225" lon="6.07722">
        <ele>257</ele>
        <time>2024-07-31T06:40:29Z</time>
      </trkpt>
      <trkpt lat="47.25228" lon="6.07729">
        <ele>261.6</ele>
        <time>2024-07-31T06:40:30Z</time>
      </trkpt>
      <trkpt lat="47.25231" lon="6.07737">
        <ele>259</ele>
        <time>2024-07-31T06:40:31Z</time>
      </trkpt>
      <trkpt lat="47.25233" lon="6.07745">
        <ele>258.8</ele>
        <time>2024-07-31T06:40:32Z</time>
      </trkpt>
      <trkpt lat="47.25235" lon="6.07753">
        <ele>258.8</ele>
        <time>2024-07-31T06:40:33Z</time>
      </trkpt>
      <trkpt lat="47.25237" lon="6.07761">
        <ele>258.8</ele>
        <time>2024-07-31T06:40:34Z</time>
      </trkpt>
      <trkpt lat="47.25239" lon="6.07768">
        <ele>259</ele>
        <time>2024-07-31T06:40:35Z</time>
      </trkpt>
      <trkpt lat="47.25241" lon="6.07775">
        <ele>259</ele>
        <time>2024-07-31T06:40:36Z</time>
      </trkpt>
      <trkpt lat="47.25244" lon="6.07782">
        <ele>259</ele>
        <time>2024-07-31T06:40:37Z</time>
      </trkpt>
      <trkpt lat="47.25246" lon="6.0779">
        <ele>258.8</ele>
        <time>2024-07-31T06:40:38Z</time>
      </trkpt>
      <trkpt lat="47.25247" lon="6.07798">
        <ele>258.8</ele>
        <time>2024-07-31T06:40:39Z</time>
      </trkpt>
      <trkpt lat="47.25249" lon="6.07805">
        <ele>259</ele>
        <time>2024-07-31T06:40:40Z</time>
      </trkpt>
      <trkpt lat="47.2525" lon="6.07813">
        <ele>259</ele>
        <time>2024-07-31T06:40:41Z</time>
      </trkpt>
      <trkpt lat="47.25251" lon="6.07821">
        <ele>259</ele>
        <time>2024-07-31T06:40:42Z</time>
      </trkpt>
      <trkpt lat="47.25253" lon="6.07829">
        <ele>259.2</ele>
        <time>2024-07-31T06:40:43Z</time>
      </trkpt>
      <trkpt lat="47.25254" lon="6.07836">
        <ele>259.2</ele>
        <time>2024-07-31T06:40:44Z</time>
      </trkpt>
      <trkpt lat="47.25256" lon="6.07844">
        <ele>259.4</ele>
        <time>2024-07-31T06:40:45Z</time>
      </trkpt>
      <trkpt lat="47.25257" lon="6.07852">
        <ele>259.2</ele>
        <time>2024-07-31T06:40:46Z</time>
      </trkpt>
      <trkpt lat="47.25258" lon="6.07859">
        <ele>259.6</ele>
        <time>2024-07-31T06:40:47Z</time>
      </trkpt>
      <trkpt lat="47.25259" lon="6.07867">
        <ele>259.6</ele>
        <time>2024-07-31T06:40:48Z</time>
      </trkpt>
      <trkpt lat="47.25261" lon="6.07875">
        <ele>259.6</ele>
        <time>2024-07-31T06:40:49Z</time>
      </trkpt>
      <trkpt lat="47.25262" lon="6.07883">
        <ele>259.6</ele>
        <time>2024-07-31T06:40:50Z</time>
      </trkpt>
      <trkpt lat="47.25263" lon="6.0789">
        <ele>259.8</ele>
        <time>2024-07-31T06:40:51Z</time>
      </trkpt>
      <trkpt lat="47.25265" lon="6.07898">
        <ele>259.8</ele>
        <time>2024-07-31T06:40:52Z</time>
      </trkpt>
      <trkpt lat="47.25266" lon="6.07906">
        <ele>259.8</ele>
        <time>2024-07-31T06:40:53Z</time>
      </trkpt>
      <trkpt lat="47.25268" lon="6.07915">
        <ele>259.6</ele>
        <time>2024-07-31T06:40:54Z</time>
      </trkpt>
      <trkpt lat="47.2527" lon="6.07923">
        <ele>259.8</ele>
        <time>2024-07-31T06:40:55Z</time>
      </trkpt>
      <trkpt lat="47.25272" lon="6.07931">
        <ele>259.8</ele>
        <time>2024-07-31T06:40:56Z</time>
      </trkpt>
      <trkpt lat="47.25274" lon="6.07939">
        <ele>259.6</ele>
        <time>2024-07-31T06:40:57Z</time>
      </trkpt>
      <trkpt lat="47.25277" lon="6.07946">
        <ele>259.4</ele>
        <time>2024-07-31T06:40:58Z</time>
      </trkpt>
      <trkpt lat="47.25279" lon="6.07954">
        <ele>259.4</ele>
        <time>2024-07-31T06:40:59Z</time>
      </trkpt>
      <trkpt lat="47.25281" lon="6.07961">
        <ele>259.6</ele>
        <time>2024-07-31T06:41:00Z</time>
      </trkpt>
      <trkpt lat="47.25284" lon="6.07968">
        <ele>259.4</ele>
        <time>2024-07-31T06:41:01Z</time>
      </trkpt>
      <trkpt lat="47.25286" lon="6.07974">
        <ele>259.2</ele>
        <time>2024-07-31T06:41:02Z</time>
      </trkpt>
      <trkpt lat="47.25289" lon="6.07981">
        <ele>259</ele>
        <time>2024-07-31T06:41:03Z</time>
      </trkpt>
      <trkpt lat="47.25292" lon="6.07987">
        <ele>258.8</ele>
        <time>2024-07-31T06:41:04Z</time>
      </trkpt>
      <trkpt lat="47.25294" lon="6.07993">
        <ele>259</ele>
        <time>2024-07-31T06:41:05Z</time>
      </trkpt>
      <trkpt lat="47.25297" lon="6.07999">
        <ele>259.2</ele>
        <time>2024-07-31T06:41:06Z</time>
      </trkpt>
      <trkpt lat="47.253" lon="6.08005">
        <ele>259.2</ele>
        <time>2024-07-31T06:41:07Z</time>
      </trkpt>
      <trkpt lat="47.25303" lon="6.0801">
        <ele>259</ele>
        <time>2024-07-31T06:41:08Z</time>
      </trkpt>
      <trkpt lat="47.25306" lon="6.08014">
        <ele>259.2</ele>
        <time>2024-07-31T06:41:09Z</time>
      </trkpt>
      <trkpt lat="47.2531" lon="6.08019">
        <ele>259.2</ele>
        <time>2024-07-31T06:41:10Z</time>
      </trkpt>
      <trkpt lat="47.25314" lon="6.08024">
        <ele>259.2</ele>
        <time>2024-07-31T06:41:11Z</time>
      </trkpt>
      <trkpt lat="47.25318" lon="6.08029">
        <ele>259.2</ele>
        <time>2024-07-31T06:41:12Z</time>
      </trkpt>
      <trkpt lat="47.25322" lon="6.08034">
        <ele>259</ele>
        <time>2024-07-31T06:41:13Z</time>
      </trkpt>
      <trkpt lat="47.25326" lon="6.08038">
        <ele>259.2</ele>
        <time>2024-07-31T06:41:14Z</time>
      </trkpt>
      <trkpt lat="47.2533" lon="6.08043">
        <ele>259.2</ele>
        <time>2024-07-31T06:41:15Z</time>
      </trkpt>
      <trkpt lat="47.25333" lon="6.08048">
        <ele>258.8</ele>
        <time>2024-07-31T06:41:16Z</time>
      </trkpt>
      <trkpt lat="47.25336" lon="6.08054">
        <ele>258.8</ele>
        <time>2024-07-31T06:41:17Z</time>
      </trkpt>
      <trkpt lat="47.25339" lon="6.08061">
        <ele>259.2</ele>
        <time>2024-07-31T06:41:18Z</time>
      </trkpt>
      <trkpt lat="47.25342" lon="6.08067">
        <ele>259.4</ele>
        <time>2024-07-31T06:41:19Z</time>
      </trkpt>
      <trkpt lat="47.25345" lon="6.08072">
        <ele>259.4</ele>
        <time>2024-07-31T06:41:20Z</time>
      </trkpt>
      <trkpt lat="47.25349" lon="6.08076">
        <ele>259.2</ele>
        <time>2024-07-31T06:41:21Z</time>
      </trkpt>
      <trkpt lat="47.25353" lon="6.08081">
        <ele>259.4</ele>
        <time>2024-07-31T06:41:22Z</time>
      </trkpt>
      <trkpt lat="47.25358" lon="6.08086">
        <ele>259.4</ele>
        <time>2024-07-31T06:41:23Z</time>
      </trkpt>
      <trkpt lat="47.25362" lon="6.0809">
        <ele>259.2</ele>
        <time>2024-07-31T06:41:24Z</time>
      </trkpt>
      <trkpt lat="47.25367" lon="6.08095">
        <ele>259.2</ele>
        <time>2024-07-31T06:41:25Z</time>
      </trkpt>
      <trkpt lat="47.25372" lon="6.081">
        <ele>259.2</ele>
        <time>2024-07-31T06:41:26Z</time>
      </trkpt>
      <trkpt lat="47.25377" lon="6.08104">
        <ele>259.4</ele>
        <time>2024-07-31T06:41:27Z</time>
      </trkpt>
      <trkpt lat="47.25382" lon="6.08109">
        <ele>259.4</ele>
        <time>2024-07-31T06:41:28Z</time>
      </trkpt>
      <trkpt lat="47.25387" lon="6.08113">
        <ele>259.2</ele>
        <time>2024-07-31T06:41:29Z</time>
      </trkpt>
      <trkpt lat="47.25393" lon="6.08118">
        <ele>259.4</ele>
        <time>2024-07-31T06:41:30Z</time>
      </trkpt>
      <trkpt lat="47.25398" lon="6.08121">
        <ele>259.4</ele>
        <time>2024-07-31T06:41:31Z</time>
      </trkpt>
      <trkpt lat="47.25403" lon="6.08125">
        <ele>259.4</ele>
        <time>2024-07-31T06:41:32Z</time>
      </trkpt>
      <trkpt lat="47.25408" lon="6.08129">
        <ele>259.6</ele>
        <time>2024-07-31T06:41:33Z</time>
      </trkpt>
      <trkpt lat="47.25413" lon="6.08132">
        <ele>259.6</ele>
        <time>2024-07-31T06:41:34Z</time>
      </trkpt>
      <trkpt lat="47.25419" lon="6.08136">
        <ele>259.6</ele>
        <time>2024-07-31T06:41:35Z</time>
      </trkpt>
      <trkpt lat="47.25424" lon="6.0814">
        <ele>259.8</ele>
        <time>2024-07-31T06:41:36Z</time>
      </trkpt>
      <trkpt lat="47.25429" lon="6.08144">
        <ele>259.6</ele>
        <time>2024-07-31T06:41:37Z</time>
      </trkpt>
      <trkpt lat="47.25435" lon="6.08148">
        <ele>259.6</ele>
        <time>2024-07-31T06:41:38Z</time>
      </trkpt>
      <trkpt lat="47.2544" lon="6.08152">
        <ele>259.6</ele>
        <time>2024-07-31T06:41:39Z</time>
      </trkpt>
      <trkpt lat="47.25446" lon="6.08156">
        <ele>259.4</ele>
        <time>2024-07-31T06:41:40Z</time>
      </trkpt>
      <trkpt lat="47.25451" lon="6.0816">
        <ele>259.4</ele>
        <time>2024-07-31T06:41:41Z</time>
      </trkpt>
      <trkpt lat="47.25456" lon="6.08165">
        <ele>259.4</ele>
        <time>2024-07-31T06:41:42Z</time>
      </trkpt>
      <trkpt lat="47.25461" lon="6.08169">
        <ele>259.4</ele>
        <time>2024-07-31T06:41:43Z</time>
      </trkpt>
      <trkpt lat="47.25467" lon="6.08174">
        <ele>259.4</ele>
        <time>2024-07-31T06:41:44Z</time>
      </trkpt>
      <trkpt lat="47.25472" lon="6.08178">
        <ele>259.4</ele>
        <time>2024-07-31T06:41:45Z</time>
      </trkpt>
      <trkpt lat="47.25478" lon="6.08182">
        <ele>259.4</ele>
        <time>2024-07-31T06:41:46Z</time>
      </trkpt>
      <trkpt lat="47.25483" lon="6.08186">
        <ele>259.2</ele>
        <time>2024-07-31T06:41:47Z</time>
      </trkpt>
      <trkpt lat="47.25489" lon="6.0819">
        <ele>259.4</ele>
        <time>2024-07-31T06:41:48Z</time>
      </trkpt>
      <trkpt lat="47.25494" lon="6.08194">
        <ele>259.6</ele>
        <time>2024-07-31T06:41:49Z</time>
      </trkpt>
      <trkpt lat="47.255" lon="6.08197">
        <ele>259.4</ele>
        <time>2024-07-31T06:41:50Z</time>
      </trkpt>
      <trkpt lat="47.25506" lon="6.08201">
        <ele>259.6</ele>
        <time>2024-07-31T06:41:51Z</time>
      </trkpt>
      <trkpt lat="47.25511" lon="6.08204">
        <ele>259.4</ele>
        <time>2024-07-31T06:41:52Z</time>
      </trkpt>
      <trkpt lat="47.25517" lon="6.08208">
        <ele>259.4</ele>
        <time>2024-07-31T06:41:53Z</time>
      </trkpt>
      <trkpt lat="47.25522" lon="6.08211">
        <ele>259.4</ele>
        <time>2024-07-31T06:41:54Z</time>
      </trkpt>
      <trkpt lat="47.25528" lon="6.08215">
        <ele>259.4</ele>
        <time>2024-07-31T06:41:55Z</time>
      </trkpt>
      <trkpt lat="47.25533" lon="6.08218">
        <ele>259.4</ele>
        <time>2024-07-31T06:41:56Z</time>
      </trkpt>
      <trkpt lat="47.25539" lon="6.08221">
        <ele>259.4</ele>
        <time>2024-07-31T06:41:57Z</time>
      </trkpt>
      <trkpt lat="47.25544" lon="6.08224">
        <ele>259.6</ele>
        <time>2024-07-31T06:41:58Z</time>
      </trkpt>
      <trkpt lat="47.2555" lon="6.08228">
        <ele>259.6</ele>
        <time>2024-07-31T06:41:59Z</time>
      </trkpt>
      <trkpt lat="47.25555" lon="6.08231">
        <ele>259.6</ele>
        <time>2024-07-31T06:42:00Z</time>
      </trkpt>
      <trkpt lat="47.25561" lon="6.08234">
        <ele>259.6</ele>
        <time>2024-07-31T06:42:01Z</time>
      </trkpt>
      <trkpt lat="47.25567" lon="6.08238">
        <ele>259.6</ele>
        <time>2024-07-31T06:42:02Z</time>
      </trkpt>
      <trkpt lat="47.25572" lon="6.08241">
        <ele>259.6</ele>
        <time>2024-07-31T06:42:03Z</time>
      </trkpt>
      <trkpt lat="47.25578" lon="6.08244">
        <ele>259.6</ele>
        <time>2024-07-31T06:42:04Z</time>
      </trkpt>
      <trkpt lat="47.25583" lon="6.08248">
        <ele>259.6</ele>
        <time>2024-07-31T06:42:05Z</time>
      </trkpt>
      <trkpt lat="47.25589" lon="6.08251">
        <ele>259.6</ele>
        <time>2024-07-31T06:42:06Z</time>
      </trkpt>
      <trkpt lat="47.25595" lon="6.08254">
        <ele>259.6</ele>
        <time>2024-07-31T06:42:07Z</time>
      </trkpt>
      <trkpt lat="47.256" lon="6.08257">
        <ele>259.6</ele>
        <time>2024-07-31T06:42:08Z</time>
      </trkpt>
      <trkpt lat="47.25606" lon="6.0826">
        <ele>259.6</ele>
        <time>2024-07-31T06:42:09Z</time>
      </trkpt>
      <trkpt lat="47.25611" lon="6.08264">
        <ele>259.8</ele>
        <time>2024-07-31T06:42:10Z</time>
      </trkpt>
      <trkpt lat="47.25617" lon="6.08267">
        <ele>259.6</ele>
        <time>2024-07-31T06:42:11Z</time>
      </trkpt>
      <trkpt lat="47.25622" lon="6.0827">
        <ele>259.6</ele>
        <time>2024-07-31T06:42:12Z</time>
      </trkpt>
      <trkpt lat="47.25628" lon="6.08274">
        <ele>259.6</ele>
        <time>2024-07-31T06:42:13Z</time>
      </trkpt>
      <trkpt lat="47.25633" lon="6.08277">
        <ele>259.8</ele>
        <time>2024-07-31T06:42:14Z</time>
      </trkpt>
      <trkpt lat="47.25639" lon="6.0828">
        <ele>259.8</ele>
        <time>2024-07-31T06:42:15Z</time>
      </trkpt>
      <trkpt lat="47.25645" lon="6.08284">
        <ele>259.8</ele>
        <time>2024-07-31T06:42:16Z</time>
      </trkpt>
      <trkpt lat="47.2565" lon="6.08287">
        <ele>259.8</ele>
        <time>2024-07-31T06:42:17Z</time>
      </trkpt>
      <trkpt lat="47.25655" lon="6.08291">
        <ele>259.6</ele>
        <time>2024-07-31T06:42:18Z</time>
      </trkpt>
      <trkpt lat="47.25661" lon="6.08294">
        <ele>259.8</ele>
        <time>2024-07-31T06:42:19Z</time>
      </trkpt>
      <trkpt lat="47.25666" lon="6.08297">
        <ele>259.8</ele>
        <time>2024-07-31T06:42:20Z</time>
      </trkpt>
      <trkpt lat="47.25672" lon="6.083">
        <ele>260</ele>
        <time>2024-07-31T06:42:21Z</time>
      </trkpt>
      <trkpt lat="47.25677" lon="6.08303">
        <ele>260</ele>
        <time>2024-07-31T06:42:22Z</time>
      </trkpt>
      <trkpt lat="47.25683" lon="6.08307">
        <ele>260</ele>
        <time>2024-07-31T06:42:23Z</time>
      </trkpt>
      <trkpt lat="47.25688" lon="6.0831">
        <ele>259.8</ele>
        <time>2024-07-31T06:42:24Z</time>
      </trkpt>
      <trkpt lat="47.25693" lon="6.08313">
        <ele>260.6</ele>
        <time>2024-07-31T06:42:25Z</time>
      </trkpt>
      <trkpt lat="47.25698" lon="6.08316">
        <ele>260.2</ele>
        <time>2024-07-31T06:42:26Z</time>
      </trkpt>
      <trkpt lat="47.25704" lon="6.0832">
        <ele>260.2</ele>
        <time>2024-07-31T06:42:27Z</time>
      </trkpt>
      <trkpt lat="47.25709" lon="6.08323">
        <ele>260.2</ele>
        <time>2024-07-31T06:42:28Z</time>
      </trkpt>
      <trkpt lat="47.25714" lon="6.08326">
        <ele>260.2</ele>
        <time>2024-07-31T06:42:29Z</time>
      </trkpt>
      <trkpt lat="47.25719" lon="6.08329">
        <ele>260.2</ele>
        <time>2024-07-31T06:42:30Z</time>
      </trkpt>
      <trkpt lat="47.25725" lon="6.08332">
        <ele>260.4</ele>
        <time>2024-07-31T06:42:31Z</time>
      </trkpt>
      <trkpt lat="47.2573" lon="6.08335">
        <ele>260.4</ele>
        <time>2024-07-31T06:42:32Z</time>
      </trkpt>
      <trkpt lat="47.25736" lon="6.08338">
        <ele>260.4</ele>
        <time>2024-07-31T06:42:33Z</time>
      </trkpt>
      <trkpt lat="47.25741" lon="6.08342">
        <ele>260.4</ele>
        <time>2024-07-31T06:42:34Z</time>
      </trkpt>
      <trkpt lat="47.25747" lon="6.08345">
        <ele>260.6</ele>
        <time>2024-07-31T06:42:35Z</time>
      </trkpt>
      <trkpt lat="47.25752" lon="6.08348">
        <ele>260.4</ele>
        <time>2024-07-31T06:42:36Z</time>
      </trkpt>
      <trkpt lat="47.25758" lon="6.08351">
        <ele>260.2</ele>
        <time>2024-07-31T06:42:37Z</time>
      </trkpt>
      <trkpt lat="47.25763" lon="6.08354">
        <ele>260.2</ele>
        <time>2024-07-31T06:42:38Z</time>
      </trkpt>
      <trkpt lat="47.25769" lon="6.08358">
        <ele>260.2</ele>
        <time>2024-07-31T06:42:39Z</time>
      </trkpt>
      <trkpt lat="47.25774" lon="6.08361">
        <ele>260.2</ele>
        <time>2024-07-31T06:42:40Z</time>
      </trkpt>
      <trkpt lat="47.2578" lon="6.08365">
        <ele>260</ele>
        <time>2024-07-31T06:42:41Z</time>
      </trkpt>
      <trkpt lat="47.25786" lon="6.08369">
        <ele>260</ele>
        <time>2024-07-31T06:42:42Z</time>
      </trkpt>
      <trkpt lat="47.25792" lon="6.08373">
        <ele>259.8</ele>
        <time>2024-07-31T06:42:43Z</time>
      </trkpt>
      <trkpt lat="47.25799" lon="6.08377">
        <ele>259.8</ele>
        <time>2024-07-31T06:42:44Z</time>
      </trkpt>
      <trkpt lat="47.25805" lon="6.08381">
        <ele>259.8</ele>
        <time>2024-07-31T06:42:45Z</time>
      </trkpt>
      <trkpt lat="47.25811" lon="6.08385">
        <ele>259.8</ele>
        <time>2024-07-31T06:42:46Z</time>
      </trkpt>
      <trkpt lat="47.25817" lon="6.08389">
        <ele>259.8</ele>
        <time>2024-07-31T06:42:47Z</time>
      </trkpt>
      <trkpt lat="47.25823" lon="6.08393">
        <ele>259.6</ele>
        <time>2024-07-31T06:42:48Z</time>
      </trkpt>
      <trkpt lat="47.25829" lon="6.08397">
        <ele>259.6</ele>
        <time>2024-07-31T06:42:49Z</time>
      </trkpt>
      <trkpt lat="47.25835" lon="6.08402">
        <ele>259.6</ele>
        <time>2024-07-31T06:42:50Z</time>
      </trkpt>
      <trkpt lat="47.25841" lon="6.08406">
        <ele>259.4</ele>
        <time>2024-07-31T06:42:51Z</time>
      </trkpt>
      <trkpt lat="47.25847" lon="6.08411">
        <ele>259.4</ele>
        <time>2024-07-31T06:42:52Z</time>
      </trkpt>
      <trkpt lat="47.25853" lon="6.08415">
        <ele>259.2</ele>
        <time>2024-07-31T06:42:53Z</time>
      </trkpt>
      <trkpt lat="47.25859" lon="6.0842">
        <ele>259.2</ele>
        <time>2024-07-31T06:42:54Z</time>
      </trkpt>
      <trkpt lat="47.25865" lon="6.08424">
        <ele>259.2</ele>
        <time>2024-07-31T06:42:55Z</time>
      </trkpt>
      <trkpt lat="47.25872" lon="6.08428">
        <ele>259.2</ele>
        <time>2024-07-31T06:42:56Z</time>
      </trkpt>
      <trkpt lat="47.25878" lon="6.08432">
        <ele>259.2</ele>
        <time>2024-07-31T06:42:57Z</time>
      </trkpt>
      <trkpt lat="47.25884" lon="6.08436">
        <ele>259.2</ele>
        <time>2024-07-31T06:42:58Z</time>
      </trkpt>
      <trkpt lat="47.2589" lon="6.08439">
        <ele>259.2</ele>
        <time>2024-07-31T06:42:59Z</time>
      </trkpt>
      <trkpt lat="47.25897" lon="6.08442">
        <ele>259.2</ele>
        <time>2024-07-31T06:43:00Z</time>
      </trkpt>
      <trkpt lat="47.25903" lon="6.08445">
        <ele>259.2</ele>
        <time>2024-07-31T06:43:01Z</time>
      </trkpt>
      <trkpt lat="47.2591" lon="6.08448">
        <ele>259.2</ele>
        <time>2024-07-31T06:43:02Z</time>
      </trkpt>
      <trkpt lat="47.25916" lon="6.0845">
        <ele>259.2</ele>
        <time>2024-07-31T06:43:03Z</time>
      </trkpt>
      <trkpt lat="47.25922" lon="6.08452">
        <ele>259.2</ele>
        <time>2024-07-31T06:43:04Z</time>
      </trkpt>
      <trkpt lat="47.25928" lon="6.08455">
        <ele>259</ele>
        <time>2024-07-31T06:43:05Z</time>
      </trkpt>
      <trkpt lat="47.25935" lon="6.08457">
        <ele>259.2</ele>
        <time>2024-07-31T06:43:06Z</time>
      </trkpt>
      <trkpt lat="47.25941" lon="6.0846">
        <ele>259.2</ele>
        <time>2024-07-31T06:43:07Z</time>
      </trkpt>
      <trkpt lat="47.25947" lon="6.08462">
        <ele>259.4</ele>
        <time>2024-07-31T06:43:08Z</time>
      </trkpt>
      <trkpt lat="47.25953" lon="6.08465">
        <ele>259.4</ele>
        <time>2024-07-31T06:43:09Z</time>
      </trkpt>
      <trkpt lat="47.25958" lon="6.08468">
        <ele>259.6</ele>
        <time>2024-07-31T06:43:10Z</time>
      </trkpt>
      <trkpt lat="47.25964" lon="6.08471">
        <ele>259.6</ele>
        <time>2024-07-31T06:43:11Z</time>
      </trkpt>
      <trkpt lat="47.25969" lon="6.08474">
        <ele>259.6</ele>
        <time>2024-07-31T06:43:12Z</time>
      </trkpt>
      <trkpt lat="47.25975" lon="6.08477">
        <ele>259.6</ele>
        <time>2024-07-31T06:43:13Z</time>
      </trkpt>
      <trkpt lat="47.2598" lon="6.0848">
        <ele>259.6</ele>
        <time>2024-07-31T06:43:14Z</time>
      </trkpt>
      <trkpt lat="47.25985" lon="6.08484">
        <ele>259.6</ele>
        <time>2024-07-31T06:43:15Z</time>
      </trkpt>
      <trkpt lat="47.2599" lon="6.08489">
        <ele>259.4</ele>
        <time>2024-07-31T06:43:16Z</time>
      </trkpt>
      <trkpt lat="47.25996" lon="6.08493">
        <ele>259.4</ele>
        <time>2024-07-31T06:43:17Z</time>
      </trkpt>
      <trkpt lat="47.26001" lon="6.08497">
        <ele>259.4</ele>
        <time>2024-07-31T06:43:18Z</time>
      </trkpt>
      <trkpt lat="47.26007" lon="6.08502">
        <ele>259.2</ele>
        <time>2024-07-31T06:43:19Z</time>
      </trkpt>
      <trkpt lat="47.26012" lon="6.08506">
        <ele>259.4</ele>
        <time>2024-07-31T06:43:20Z</time>
      </trkpt>
      <trkpt lat="47.26018" lon="6.0851">
        <ele>259.2</ele>
        <time>2024-07-31T06:43:21Z</time>
      </trkpt>
      <trkpt lat="47.26023" lon="6.08513">
        <ele>259.2</ele>
        <time>2024-07-31T06:43:22Z</time>
      </trkpt>
      <trkpt lat="47.26029" lon="6.08517">
        <ele>259.2</ele>
        <time>2024-07-31T06:43:23Z</time>
      </trkpt>
      <trkpt lat="47.26034" lon="6.0852">
        <ele>259.4</ele>
        <time>2024-07-31T06:43:24Z</time>
      </trkpt>
      <trkpt lat="47.2604" lon="6.08523">
        <ele>259.4</ele>
        <time>2024-07-31T06:43:25Z</time>
      </trkpt>
      <trkpt lat="47.26045" lon="6.08527">
        <ele>259</ele>
        <time>2024-07-31T06:43:26Z</time>
      </trkpt>
      <trkpt lat="47.26051" lon="6.0853">
        <ele>259</ele>
        <time>2024-07-31T06:43:27Z</time>
      </trkpt>
      <trkpt lat="47.26056" lon="6.08534">
        <ele>259.2</ele>
        <time>2024-07-31T06:43:28Z</time>
      </trkpt>
      <trkpt lat="47.26062" lon="6.08537">
        <ele>259</ele>
        <time>2024-07-31T06:43:29Z</time>
      </trkpt>
      <trkpt lat="47.26067" lon="6.08541">
        <ele>259</ele>
        <time>2024-07-31T06:43:30Z</time>
      </trkpt>
      <trkpt lat="47.26073" lon="6.08544">
        <ele>259</ele>
        <time>2024-07-31T06:43:31Z</time>
      </trkpt>
      <trkpt lat="47.26078" lon="6.08548">
        <ele>259.2</ele>
        <time>2024-07-31T06:43:32Z</time>
      </trkpt>
      <trkpt lat="47.26084" lon="6.08551">
        <ele>259</ele>
        <time>2024-07-31T06:43:33Z</time>
      </trkpt>
      <trkpt lat="47.26089" lon="6.08555">
        <ele>259</ele>
        <time>2024-07-31T06:43:34Z</time>
      </trkpt>
      <trkpt lat="47.26094" lon="6.08559">
        <ele>259</ele>
        <time>2024-07-31T06:43:35Z</time>
      </trkpt>
      <trkpt lat="47.261" lon="6.08563">
        <ele>259</ele>
        <time>2024-07-31T06:43:36Z</time>
      </trkpt>
      <trkpt lat="47.26105" lon="6.08567">
        <ele>259</ele>
        <time>2024-07-31T06:43:37Z</time>
      </trkpt>
      <trkpt lat="47.26111" lon="6.08571">
        <ele>258.8</ele>
        <time>2024-07-31T06:43:38Z</time>
      </trkpt>
      <trkpt lat="47.26116" lon="6.08575">
        <ele>258.8</ele>
        <time>2024-07-31T06:43:39Z</time>
      </trkpt>
      <trkpt lat="47.26121" lon="6.08579">
        <ele>259</ele>
        <time>2024-07-31T06:43:40Z</time>
      </trkpt>
      <trkpt lat="47.26127" lon="6.08583">
        <ele>258.8</ele>
        <time>2024-07-31T06:43:41Z</time>
      </trkpt>
      <trkpt lat="47.26132" lon="6.08587">
        <ele>259</ele>
        <time>2024-07-31T06:43:42Z</time>
      </trkpt>
      <trkpt lat="47.26138" lon="6.08591">
        <ele>258.8</ele>
        <time>2024-07-31T06:43:43Z</time>
      </trkpt>
      <trkpt lat="47.26143" lon="6.08595">
        <ele>258.8</ele>
        <time>2024-07-31T06:43:44Z</time>
      </trkpt>
      <trkpt lat="47.26148" lon="6.086">
        <ele>258.6</ele>
        <time>2024-07-31T06:43:45Z</time>
      </trkpt>
      <trkpt lat="47.26153" lon="6.08604">
        <ele>258.6</ele>
        <time>2024-07-31T06:43:46Z</time>
      </trkpt>
      <trkpt lat="47.26159" lon="6.08608">
        <ele>258.6</ele>
        <time>2024-07-31T06:43:47Z</time>
      </trkpt>
      <trkpt lat="47.26164" lon="6.08613">
        <ele>258.6</ele>
        <time>2024-07-31T06:43:48Z</time>
      </trkpt>
      <trkpt lat="47.26169" lon="6.08617">
        <ele>258.6</ele>
        <time>2024-07-31T06:43:49Z</time>
      </trkpt>
      <trkpt lat="47.26174" lon="6.08621">
        <ele>258.6</ele>
        <time>2024-07-31T06:43:50Z</time>
      </trkpt>
      <trkpt lat="47.2618" lon="6.08625">
        <ele>258.6</ele>
        <time>2024-07-31T06:43:51Z</time>
      </trkpt>
      <trkpt lat="47.26185" lon="6.08629">
        <ele>258.6</ele>
        <time>2024-07-31T06:43:52Z</time>
      </trkpt>
      <trkpt lat="47.2619" lon="6.08633">
        <ele>258.6</ele>
        <time>2024-07-31T06:43:53Z</time>
      </trkpt>
      <trkpt lat="47.26195" lon="6.08638">
        <ele>258.6</ele>
        <time>2024-07-31T06:43:54Z</time>
      </trkpt>
      <trkpt lat="47.262" lon="6.08642">
        <ele>258.6</ele>
        <time>2024-07-31T06:43:55Z</time>
      </trkpt>
      <trkpt lat="47.26206" lon="6.08646">
        <ele>258.6</ele>
        <time>2024-07-31T06:43:56Z</time>
      </trkpt>
      <trkpt lat="47.26211" lon="6.0865">
        <ele>258.6</ele>
        <time>2024-07-31T06:43:57Z</time>
      </trkpt>
      <trkpt lat="47.26217" lon="6.08654">
        <ele>258.6</ele>
        <time>2024-07-31T06:43:58Z</time>
      </trkpt>
      <trkpt lat="47.26222" lon="6.08658">
        <ele>258.4</ele>
        <time>2024-07-31T06:43:59Z</time>
      </trkpt>
      <trkpt lat="47.26227" lon="6.08662">
        <ele>258.4</ele>
        <time>2024-07-31T06:44:00Z</time>
      </trkpt>
      <trkpt lat="47.26233" lon="6.08666">
        <ele>258.4</ele>
        <time>2024-07-31T06:44:01Z</time>
      </trkpt>
      <trkpt lat="47.26238" lon="6.0867">
        <ele>258.6</ele>
        <time>2024-07-31T06:44:02Z</time>
      </trkpt>
      <trkpt lat="47.26243" lon="6.08673">
        <ele>258.4</ele>
        <time>2024-07-31T06:44:03Z</time>
      </trkpt>
      <trkpt lat="47.26249" lon="6.08676">
        <ele>258.6</ele>
        <time>2024-07-31T06:44:04Z</time>
      </trkpt>
      <trkpt lat="47.26254" lon="6.08679">
        <ele>258.6</ele>
        <time>2024-07-31T06:44:05Z</time>
      </trkpt>
      <trkpt lat="47.2626" lon="6.08682">
        <ele>258.6</ele>
        <time>2024-07-31T06:44:06Z</time>
      </trkpt>
      <trkpt lat="47.26265" lon="6.08685">
        <ele>258.6</ele>
        <time>2024-07-31T06:44:07Z</time>
      </trkpt>
      <trkpt lat="47.26271" lon="6.08687">
        <ele>258.6</ele>
        <time>2024-07-31T06:44:08Z</time>
      </trkpt>
      <trkpt lat="47.26276" lon="6.0869">
        <ele>258.6</ele>
        <time>2024-07-31T06:44:09Z</time>
      </trkpt>
      <trkpt lat="47.26282" lon="6.08692">
        <ele>258.6</ele>
        <time>2024-07-31T06:44:10Z</time>
      </trkpt>
      <trkpt lat="47.26287" lon="6.08695">
        <ele>258.6</ele>
        <time>2024-07-31T06:44:11Z</time>
      </trkpt>
      <trkpt lat="47.26293" lon="6.08698">
        <ele>258.6</ele>
        <time>2024-07-31T06:44:12Z</time>
      </trkpt>
      <trkpt lat="47.26298" lon="6.08701">
        <ele>258.6</ele>
        <time>2024-07-31T06:44:13Z</time>
      </trkpt>
      <trkpt lat="47.26304" lon="6.08704">
        <ele>258.4</ele>
        <time>2024-07-31T06:44:14Z</time>
      </trkpt>
      <trkpt lat="47.26309" lon="6.08706">
        <ele>258.4</ele>
        <time>2024-07-31T06:44:15Z</time>
      </trkpt>
      <trkpt lat="47.26315" lon="6.08709">
        <ele>258.6</ele>
        <time>2024-07-31T06:44:16Z</time>
      </trkpt>
      <trkpt lat="47.26321" lon="6.08712">
        <ele>258.6</ele>
        <time>2024-07-31T06:44:17Z</time>
      </trkpt>
      <trkpt lat="47.26326" lon="6.08714">
        <ele>258.6</ele>
        <time>2024-07-31T06:44:18Z</time>
      </trkpt>
      <trkpt lat="47.26332" lon="6.08717">
        <ele>258.4</ele>
        <time>2024-07-31T06:44:19Z</time>
      </trkpt>
      <trkpt lat="47.26337" lon="6.08719">
        <ele>258.4</ele>
        <time>2024-07-31T06:44:20Z</time>
      </trkpt>
      <trkpt lat="47.26343" lon="6.08721">
        <ele>258.4</ele>
        <time>2024-07-31T06:44:21Z</time>
      </trkpt>
      <trkpt lat="47.26348" lon="6.08723">
        <ele>258.6</ele>
        <time>2024-07-31T06:44:22Z</time>
      </trkpt>
      <trkpt lat="47.26354" lon="6.08726">
        <ele>258.6</ele>
        <time>2024-07-31T06:44:23Z</time>
      </trkpt>
      <trkpt lat="47.2636" lon="6.08728">
        <ele>258.6</ele>
        <time>2024-07-31T06:44:24Z</time>
      </trkpt>
      <trkpt lat="47.26365" lon="6.0873">
        <ele>258.6</ele>
        <time>2024-07-31T06:44:25Z</time>
      </trkpt>
      <trkpt lat="47.26371" lon="6.08731">
        <ele>258.6</ele>
        <time>2024-07-31T06:44:26Z</time>
      </trkpt>
      <trkpt lat="47.26376" lon="6.08733">
        <ele>258.6</ele>
        <time>2024-07-31T06:44:27Z</time>
      </trkpt>
      <trkpt lat="47.26382" lon="6.08735">
        <ele>258.6</ele>
        <time>2024-07-31T06:44:28Z</time>
      </trkpt>
      <trkpt lat="47.26387" lon="6.08737">
        <ele>258.6</ele>
        <time>2024-07-31T06:44:29Z</time>
      </trkpt>
      <trkpt lat="47.26392" lon="6.08739">
        <ele>258.6</ele>
        <time>2024-07-31T06:44:30Z</time>
      </trkpt>
      <trkpt lat="47.26398" lon="6.08741">
        <ele>258.6</ele>
        <time>2024-07-31T06:44:31Z</time>
      </trkpt>
      <trkpt lat="47.26403" lon="6.08743">
        <ele>258.2</ele>
        <time>2024-07-31T06:44:32Z</time>
      </trkpt>
      <trkpt lat="47.26409" lon="6.08745">
        <ele>258.6</ele>
        <time>2024-07-31T06:44:33Z</time>
      </trkpt>
      <trkpt lat="47.26414" lon="6.08747">
        <ele>258.6</ele>
        <time>2024-07-31T06:44:34Z</time>
      </trkpt>
      <trkpt lat="47.26419" lon="6.08749">
        <ele>258.6</ele>
        <time>2024-07-31T06:44:35Z</time>
      </trkpt>
      <trkpt lat="47.26425" lon="6.08751">
        <ele>258.8</ele>
        <time>2024-07-31T06:44:36Z</time>
      </trkpt>
      <trkpt lat="47.2643" lon="6.08753">
        <ele>258.6</ele>
        <time>2024-07-31T06:44:37Z</time>
      </trkpt>
      <trkpt lat="47.26436" lon="6.08756">
        <ele>258.8</ele>
        <time>2024-07-31T06:44:38Z</time>
      </trkpt>
      <trkpt lat="47.26441" lon="6.08758">
        <ele>258.8</ele>
        <time>2024-07-31T06:44:39Z</time>
      </trkpt>
      <trkpt lat="47.26446" lon="6.08761">
        <ele>258.6</ele>
        <time>2024-07-31T06:44:40Z</time>
      </trkpt>
      <trkpt lat="47.26452" lon="6.08763">
        <ele>258.8</ele>
        <time>2024-07-31T06:44:41Z</time>
      </trkpt>
      <trkpt lat="47.26457" lon="6.08766">
        <ele>259</ele>
        <time>2024-07-31T06:44:42Z</time>
      </trkpt>
      <trkpt lat="47.26463" lon="6.08769">
        <ele>258.8</ele>
        <time>2024-07-31T06:44:43Z</time>
      </trkpt>
      <trkpt lat="47.26468" lon="6.08771">
        <ele>258.8</ele>
        <time>2024-07-31T06:44:44Z</time>
      </trkpt>
      <trkpt lat="47.26473" lon="6.08775">
        <ele>258.8</ele>
        <time>2024-07-31T06:44:45Z</time>
      </trkpt>
      <trkpt lat="47.26478" lon="6.08778">
        <ele>258.8</ele>
        <time>2024-07-31T06:44:46Z</time>
      </trkpt>
      <trkpt lat="47.26484" lon="6.08781">
        <ele>258.8</ele>
        <time>2024-07-31T06:44:47Z</time>
      </trkpt>
      <trkpt lat="47.26489" lon="6.08784">
        <ele>259</ele>
        <time>2024-07-31T06:44:48Z</time>
      </trkpt>
      <trkpt lat="47.26494" lon="6.08787">
        <ele>258.8</ele>
        <time>2024-07-31T06:44:49Z</time>
      </trkpt>
      <trkpt lat="47.26499" lon="6.0879">
        <ele>258.8</ele>
        <time>2024-07-31T06:44:50Z</time>
      </trkpt>
      <trkpt lat="47.26504" lon="6.08793">
        <ele>259</ele>
        <time>2024-07-31T06:44:51Z</time>
      </trkpt>
      <trkpt lat="47.26509" lon="6.08796">
        <ele>259</ele>
        <time>2024-07-31T06:44:52Z</time>
      </trkpt>
      <trkpt lat="47.26514" lon="6.088">
        <ele>259</ele>
        <time>2024-07-31T06:44:53Z</time>
      </trkpt>
      <trkpt lat="47.2652" lon="6.08803">
        <ele>259</ele>
        <time>2024-07-31T06:44:54Z</time>
      </trkpt>
      <trkpt lat="47.26525" lon="6.08806">
        <ele>259</ele>
        <time>2024-07-31T06:44:55Z</time>
      </trkpt>
      <trkpt lat="47.2653" lon="6.08809">
        <ele>259.2</ele>
        <time>2024-07-31T06:44:56Z</time>
      </trkpt>
      <trkpt lat="47.26535" lon="6.08812">
        <ele>259.2</ele>
        <time>2024-07-31T06:44:57Z</time>
      </trkpt>
      <trkpt lat="47.2654" lon="6.08815">
        <ele>259.2</ele>
        <time>2024-07-31T06:44:58Z</time>
      </trkpt>
      <trkpt lat="47.26546" lon="6.08818">
        <ele>259.2</ele>
        <time>2024-07-31T06:44:59Z</time>
      </trkpt>
      <trkpt lat="47.26551" lon="6.08821">
        <ele>259.2</ele>
        <time>2024-07-31T06:45:00Z</time>
      </trkpt>
      <trkpt lat="47.26556" lon="6.08824">
        <ele>259.4</ele>
        <time>2024-07-31T06:45:01Z</time>
      </trkpt>
      <trkpt lat="47.26561" lon="6.08827">
        <ele>259.4</ele>
        <time>2024-07-31T06:45:02Z</time>
      </trkpt>
      <trkpt lat="47.26567" lon="6.08829">
        <ele>259.4</ele>
        <time>2024-07-31T06:45:03Z</time>
      </trkpt>
      <trkpt lat="47.26572" lon="6.08832">
        <ele>259.6</ele>
        <time>2024-07-31T06:45:04Z</time>
      </trkpt>
      <trkpt lat="47.26577" lon="6.08834">
        <ele>259.6</ele>
        <time>2024-07-31T06:45:05Z</time>
      </trkpt>
      <trkpt lat="47.26582" lon="6.08836">
        <ele>259.8</ele>
        <time>2024-07-31T06:45:06Z</time>
      </trkpt>
      <trkpt lat="47.26587" lon="6.08838">
        <ele>259.8</ele>
        <time>2024-07-31T06:45:07Z</time>
      </trkpt>
      <trkpt lat="47.26592" lon="6.08841">
        <ele>259.8</ele>
        <time>2024-07-31T06:45:08Z</time>
      </trkpt>
      <trkpt lat="47.26597" lon="6.08843">
        <ele>259.8</ele>
        <time>2024-07-31T06:45:09Z</time>
      </trkpt>
      <trkpt lat="47.26603" lon="6.08845">
        <ele>259.8</ele>
        <time>2024-07-31T06:45:10Z</time>
      </trkpt>
      <trkpt lat="47.26608" lon="6.08846">
        <ele>260</ele>
        <time>2024-07-31T06:45:11Z</time>
      </trkpt>
      <trkpt lat="47.26614" lon="6.08848">
        <ele>260</ele>
        <time>2024-07-31T06:45:12Z</time>
      </trkpt>
      <trkpt lat="47.26619" lon="6.08849">
        <ele>260.2</ele>
        <time>2024-07-31T06:45:13Z</time>
      </trkpt>
      <trkpt lat="47.26624" lon="6.08851">
        <ele>260.2</ele>
        <time>2024-07-31T06:45:14Z</time>
      </trkpt>
      <trkpt lat="47.26629" lon="6.08851">
        <ele>260</ele>
        <time>2024-07-31T06:45:15Z</time>
      </trkpt>
      <trkpt lat="47.26634" lon="6.08852">
        <ele>260</ele>
        <time>2024-07-31T06:45:16Z</time>
      </trkpt>
      <trkpt lat="47.26639" lon="6.08853">
        <ele>260.2</ele>
        <time>2024-07-31T06:45:17Z</time>
      </trkpt>
      <trkpt lat="47.26645" lon="6.08854">
        <ele>260.2</ele>
        <time>2024-07-31T06:45:18Z</time>
      </trkpt>
      <trkpt lat="47.2665" lon="6.08855">
        <ele>260.4</ele>
        <time>2024-07-31T06:45:19Z</time>
      </trkpt>
      <trkpt lat="47.26655" lon="6.08857">
        <ele>260.4</ele>
        <time>2024-07-31T06:45:20Z</time>
      </trkpt>
      <trkpt lat="47.2666" lon="6.08858">
        <ele>260.6</ele>
        <time>2024-07-31T06:45:21Z</time>
      </trkpt>
      <trkpt lat="47.26665" lon="6.0886">
        <ele>260.6</ele>
        <time>2024-07-31T06:45:22Z</time>
      </trkpt>
      <trkpt lat="47.26669" lon="6.08862">
        <ele>260.6</ele>
        <time>2024-07-31T06:45:23Z</time>
      </trkpt>
      <trkpt lat="47.26674" lon="6.08864">
        <ele>260.8</ele>
        <time>2024-07-31T06:45:24Z</time>
      </trkpt>
      <trkpt lat="47.26678" lon="6.08866">
        <ele>261</ele>
        <time>2024-07-31T06:45:25Z</time>
      </trkpt>
      <trkpt lat="47.26681" lon="6.08868">
        <ele>261.2</ele>
        <time>2024-07-31T06:45:26Z</time>
      </trkpt>
      <trkpt lat="47.26685" lon="6.0887">
        <ele>261.2</ele>
        <time>2024-07-31T06:45:27Z</time>
      </trkpt>
      <trkpt lat="47.2669" lon="6.08872">
        <ele>261</ele>
        <time>2024-07-31T06:45:28Z</time>
      </trkpt>
      <trkpt lat="47.26694" lon="6.08873">
        <ele>261.2</ele>
        <time>2024-07-31T06:45:29Z</time>
      </trkpt>
      <trkpt lat="47.26698" lon="6.08874">
        <ele>261</ele>
        <time>2024-07-31T06:45:30Z</time>
      </trkpt>
      <trkpt lat="47.26702" lon="6.08875">
        <ele>261</ele>
        <time>2024-07-31T06:45:31Z</time>
      </trkpt>
      <trkpt lat="47.26706" lon="6.08876">
        <ele>261</ele>
        <time>2024-07-31T06:45:32Z</time>
      </trkpt>
      <trkpt lat="47.2671" lon="6.08877">
        <ele>260.8</ele>
        <time>2024-07-31T06:45:33Z</time>
      </trkpt>
      <trkpt lat="47.26714" lon="6.08879">
        <ele>260.8</ele>
        <time>2024-07-31T06:45:34Z</time>
      </trkpt>
      <trkpt lat="47.26718" lon="6.0888">
        <ele>260.8</ele>
        <time>2024-07-31T06:45:35Z</time>
      </trkpt>
      <trkpt lat="47.26722" lon="6.08882">
        <ele>260.6</ele>
        <time>2024-07-31T06:45:36Z</time>
      </trkpt>
      <trkpt lat="47.26725" lon="6.08883">
        <ele>260.6</ele>
        <time>2024-07-31T06:45:37Z</time>
      </trkpt>
      <trkpt lat="47.26728" lon="6.08885">
        <ele>260.2</ele>
        <time>2024-07-31T06:45:38Z</time>
      </trkpt>
      <trkpt lat="47.2673" lon="6.08887">
        <ele>260</ele>
        <time>2024-07-31T06:45:39Z</time>
      </trkpt>
      <trkpt lat="47.2673" lon="6.0889">
        <ele>260</ele>
        <time>2024-07-31T06:45:40Z</time>
      </trkpt>
      <trkpt lat="47.2673" lon="6.08894">
        <ele>260.2</ele>
        <time>2024-07-31T06:45:41Z</time>
      </trkpt>
      <trkpt lat="47.2673" lon="6.08897">
        <ele>260.4</ele>
        <time>2024-07-31T06:45:42Z</time>
      </trkpt>
      <trkpt lat="47.26728" lon="6.089">
        <ele>260.8</ele>
        <time>2024-07-31T06:45:43Z</time>
      </trkpt>
      <trkpt lat="47.26727" lon="6.08903">
        <ele>261</ele>
        <time>2024-07-31T06:45:44Z</time>
      </trkpt>
      <trkpt lat="47.26726" lon="6.08905">
        <ele>261</ele>
        <time>2024-07-31T06:45:45Z</time>
      </trkpt>
      <trkpt lat="47.26724" lon="6.08908">
        <ele>261.2</ele>
        <time>2024-07-31T06:45:46Z</time>
      </trkpt>
      <trkpt lat="47.26723" lon="6.08911">
        <ele>261.6</ele>
        <time>2024-07-31T06:45:47Z</time>
      </trkpt>
      <trkpt lat="47.26721" lon="6.08913">
        <ele>262</ele>
        <time>2024-07-31T06:45:48Z</time>
      </trkpt>
      <trkpt lat="47.2672" lon="6.08915">
        <ele>262.4</ele>
        <time>2024-07-31T06:45:49Z</time>
      </trkpt>
      <trkpt lat="47.26719" lon="6.08918">
        <ele>262.6</ele>
        <time>2024-07-31T06:45:50Z</time>
      </trkpt>
      <trkpt lat="47.26718" lon="6.0892">
        <ele>263</ele>
        <time>2024-07-31T06:45:51Z</time>
      </trkpt>
      <trkpt lat="47.26717" lon="6.08922">
        <ele>263.2</ele>
        <time>2024-07-31T06:45:52Z</time>
      </trkpt>
      <trkpt lat="47.26716" lon="6.08924">
        <ele>263.4</ele>
        <time>2024-07-31T06:45:53Z</time>
      </trkpt>
      <trkpt lat="47.26714" lon="6.08926">
        <ele>263.6</ele>
        <time>2024-07-31T06:45:54Z</time>
      </trkpt>
      <trkpt lat="47.26713" lon="6.08928">
        <ele>264</ele>
        <time>2024-07-31T06:45:55Z</time>
      </trkpt>
      <trkpt lat="47.26711" lon="6.08929">
        <ele>264</ele>
        <time>2024-07-31T06:45:56Z</time>
      </trkpt>
      <trkpt lat="47.2671" lon="6.0893">
        <ele>264.2</ele>
        <time>2024-07-31T06:45:57Z</time>
      </trkpt>
      <trkpt lat="47.26708" lon="6.08931">
        <ele>264.6</ele>
        <time>2024-07-31T06:45:58Z</time>
      </trkpt>
      <trkpt lat="47.26706" lon="6.08931">
        <ele>265</ele>
        <time>2024-07-31T06:45:59Z</time>
      </trkpt>
      <trkpt lat="47.26704" lon="6.08931">
        <ele>265</ele>
        <time>2024-07-31T06:46:00Z</time>
      </trkpt>
      <trkpt lat="47.26703" lon="6.08931">
        <ele>265.2</ele>
        <time>2024-07-31T06:46:01Z</time>
      </trkpt>
      <trkpt lat="47.26701" lon="6.08931">
        <ele>265.4</ele>
        <time>2024-07-31T06:46:02Z</time>
      </trkpt>
      <trkpt lat="47.26699" lon="6.08931">
        <ele>265.8</ele>
        <time>2024-07-31T06:46:03Z</time>
      </trkpt>
      <trkpt lat="47.26698" lon="6.08931">
        <ele>266</ele>
        <time>2024-07-31T06:46:04Z</time>
      </trkpt>
      <trkpt lat="47.26696" lon="6.08932">
        <ele>266.4</ele>
        <time>2024-07-31T06:46:05Z</time>
      </trkpt>
      <trkpt lat="47.26694" lon="6.08932">
        <ele>266.6</ele>
        <time>2024-07-31T06:46:06Z</time>
      </trkpt>
      <trkpt lat="47.26692" lon="6.08932">
        <ele>266.8</ele>
        <time>2024-07-31T06:46:07Z</time>
      </trkpt>
      <trkpt lat="47.2669" lon="6.08932">
        <ele>267</ele>
        <time>2024-07-31T06:46:08Z</time>
      </trkpt>
      <trkpt lat="47.26688" lon="6.08931">
        <ele>267.4</ele>
        <time>2024-07-31T06:46:09Z</time>
      </trkpt>
      <trkpt lat="47.26686" lon="6.08931">
        <ele>267.8</ele>
        <time>2024-07-31T06:46:10Z</time>
      </trkpt>
      <trkpt lat="47.26685" lon="6.08931">
        <ele>268</ele>
        <time>2024-07-31T06:46:11Z</time>
      </trkpt>
      <trkpt lat="47.26683" lon="6.08931">
        <ele>268.2</ele>
        <time>2024-07-31T06:46:12Z</time>
      </trkpt>
      <trkpt lat="47.26681" lon="6.08931">
        <ele>268.6</ele>
        <time>2024-07-31T06:46:13Z</time>
      </trkpt>
      <trkpt lat="47.26679" lon="6.0893">
        <ele>269</ele>
        <time>2024-07-31T06:46:14Z</time>
      </trkpt>
      <trkpt lat="47.26677" lon="6.0893">
        <ele>269.4</ele>
        <time>2024-07-31T06:46:15Z</time>
      </trkpt>
      <trkpt lat="47.26676" lon="6.08931">
        <ele>269.8</ele>
        <time>2024-07-31T06:46:16Z</time>
      </trkpt>
      <trkpt lat="47.26674" lon="6.08931">
        <ele>270</ele>
        <time>2024-07-31T06:46:17Z</time>
      </trkpt>
      <trkpt lat="47.26672" lon="6.08931">
        <ele>270</ele>
        <time>2024-07-31T06:46:18Z</time>
      </trkpt>
      <trkpt lat="47.26671" lon="6.08931">
        <ele>270.2</ele>
        <time>2024-07-31T06:46:19Z</time>
      </trkpt>
      <trkpt lat="47.26669" lon="6.08931">
        <ele>270.6</ele>
        <time>2024-07-31T06:46:20Z</time>
      </trkpt>
      <trkpt lat="47.26668" lon="6.08931">
        <ele>270.6</ele>
        <time>2024-07-31T06:46:21Z</time>
      </trkpt>
      <trkpt lat="47.26666" lon="6.08932">
        <ele>270.8</ele>
        <time>2024-07-31T06:46:22Z</time>
      </trkpt>
      <trkpt lat="47.26664" lon="6.08932">
        <ele>271.2</ele>
        <time>2024-07-31T06:46:23Z</time>
      </trkpt>
      <trkpt lat="47.26662" lon="6.08932">
        <ele>271.4</ele>
        <time>2024-07-31T06:46:24Z</time>
      </trkpt>
      <trkpt lat="47.26661" lon="6.08932">
        <ele>271.6</ele>
        <time>2024-07-31T06:46:25Z</time>
      </trkpt>
      <trkpt lat="47.26659" lon="6.08932">
        <ele>271.8</ele>
        <time>2024-07-31T06:46:26Z</time>
      </trkpt>
      <trkpt lat="47.26657" lon="6.08932">
        <ele>272</ele>
        <time>2024-07-31T06:46:27Z</time>
      </trkpt>
      <trkpt lat="47.26655" lon="6.08932">
        <ele>272.2</ele>
        <time>2024-07-31T06:46:28Z</time>
      </trkpt>
      <trkpt lat="47.26653" lon="6.08931">
        <ele>272.2</ele>
        <time>2024-07-31T06:46:29Z</time>
      </trkpt>
      <trkpt lat="47.26651" lon="6.08931">
        <ele>272.4</ele>
        <time>2024-07-31T06:46:30Z</time>
      </trkpt>
      <trkpt lat="47.2665" lon="6.08931">
        <ele>272.6</ele>
        <time>2024-07-31T06:46:31Z</time>
      </trkpt>
      <trkpt lat="47.26648" lon="6.08931">
        <ele>272.8</ele>
        <time>2024-07-31T06:46:32Z</time>
      </trkpt>
      <trkpt lat="47.26646" lon="6.0893">
        <ele>273.2</ele>
        <time>2024-07-31T06:46:33Z</time>
      </trkpt>
      <trkpt lat="47.26644" lon="6.0893">
        <ele>273.4</ele>
        <time>2024-07-31T06:46:34Z</time>
      </trkpt>
      <trkpt lat="47.26642" lon="6.0893">
        <ele>273.8</ele>
        <time>2024-07-31T06:46:35Z</time>
      </trkpt>
      <trkpt lat="47.2664" lon="6.0893">
        <ele>274</ele>
        <time>2024-07-31T06:46:36Z</time>
      </trkpt>
      <trkpt lat="47.26638" lon="6.0893">
        <ele>274.2</ele>
        <time>2024-07-31T06:46:37Z</time>
      </trkpt>
      <trkpt lat="47.26636" lon="6.0893">
        <ele>274.4</ele>
        <time>2024-07-31T06:46:38Z</time>
      </trkpt>
      <trkpt lat="47.26634" lon="6.0893">
        <ele>274.6</ele>
        <time>2024-07-31T06:46:39Z</time>
      </trkpt>
      <trkpt lat="47.26632" lon="6.0893">
        <ele>274.6</ele>
        <time>2024-07-31T06:46:40Z</time>
      </trkpt>
      <trkpt lat="47.2663" lon="6.0893">
        <ele>274.8</ele>
        <time>2024-07-31T06:46:41Z</time>
      </trkpt>
      <trkpt lat="47.26628" lon="6.0893">
        <ele>275.2</ele>
        <time>2024-07-31T06:46:42Z</time>
      </trkpt>
      <trkpt lat="47.26626" lon="6.0893">
        <ele>275.2</ele>
        <time>2024-07-31T06:46:43Z</time>
      </trkpt>
      <trkpt lat="47.26624" lon="6.0893">
        <ele>275.4</ele>
        <time>2024-07-31T06:46:44Z</time>
      </trkpt>
      <trkpt lat="47.26621" lon="6.0893">
        <ele>275.6</ele>
        <time>2024-07-31T06:46:45Z</time>
      </trkpt>
      <trkpt lat="47.26619" lon="6.0893">
        <ele>275.8</ele>
        <time>2024-07-31T06:46:46Z</time>
      </trkpt>
      <trkpt lat="47.26617" lon="6.0893">
        <ele>276</ele>
        <time>2024-07-31T06:46:47Z</time>
      </trkpt>
      <trkpt lat="47.26615" lon="6.0893">
        <ele>276.4</ele>
        <time>2024-07-31T06:46:48Z</time>
      </trkpt>
      <trkpt lat="47.26613" lon="6.08929">
        <ele>276.6</ele>
        <time>2024-07-31T06:46:49Z</time>
      </trkpt>
      <trkpt lat="47.26611" lon="6.08929">
        <ele>276.8</ele>
        <time>2024-07-31T06:46:50Z</time>
      </trkpt>
      <trkpt lat="47.26609" lon="6.08929">
        <ele>277</ele>
        <time>2024-07-31T06:46:51Z</time>
      </trkpt>
      <trkpt lat="47.26608" lon="6.08928">
        <ele>277.2</ele>
        <time>2024-07-31T06:46:52Z</time>
      </trkpt>
      <trkpt lat="47.26606" lon="6.08928">
        <ele>277.4</ele>
        <time>2024-07-31T06:46:53Z</time>
      </trkpt>
      <trkpt lat="47.26604" lon="6.08929">
        <ele>277.4</ele>
        <time>2024-07-31T06:46:54Z</time>
      </trkpt>
      <trkpt lat="47.26602" lon="6.08929">
        <ele>277.6</ele>
        <time>2024-07-31T06:46:55Z</time>
      </trkpt>
      <trkpt lat="47.266" lon="6.08929">
        <ele>277.8</ele>
        <time>2024-07-31T06:46:56Z</time>
      </trkpt>
      <trkpt lat="47.26598" lon="6.08929">
        <ele>278</ele>
        <time>2024-07-31T06:46:57Z</time>
      </trkpt>
      <trkpt lat="47.26596" lon="6.08929">
        <ele>278.2</ele>
        <time>2024-07-31T06:46:58Z</time>
      </trkpt>
      <trkpt lat="47.26595" lon="6.08929">
        <ele>278.4</ele>
        <time>2024-07-31T06:46:59Z</time>
      </trkpt>
      <trkpt lat="47.26593" lon="6.08928">
        <ele>278.6</ele>
        <time>2024-07-31T06:47:00Z</time>
      </trkpt>
      <trkpt lat="47.26591" lon="6.08928">
        <ele>278.6</ele>
        <time>2024-07-31T06:47:01Z</time>
      </trkpt>
      <trkpt lat="47.26589" lon="6.08928">
        <ele>278.8</ele>
        <time>2024-07-31T06:47:02Z</time>
      </trkpt>
      <trkpt lat="47.26587" lon="6.08927">
        <ele>279</ele>
        <time>2024-07-31T06:47:03Z</time>
      </trkpt>
      <trkpt lat="47.26586" lon="6.08927">
        <ele>279.2</ele>
        <time>2024-07-31T06:47:04Z</time>
      </trkpt>
      <trkpt lat="47.26584" lon="6.08926">
        <ele>279.6</ele>
        <time>2024-07-31T06:47:05Z</time>
      </trkpt>
      <trkpt lat="47.26582" lon="6.08926">
        <ele>279.8</ele>
        <time>2024-07-31T06:47:06Z</time>
      </trkpt>
      <trkpt lat="47.2658" lon="6.08926">
        <ele>280</ele>
        <time>2024-07-31T06:47:07Z</time>
      </trkpt>
      <trkpt lat="47.26578" lon="6.08926">
        <ele>280.2</ele>
        <time>2024-07-31T06:47:08Z</time>
      </trkpt>
      <trkpt lat="47.26576" lon="6.08926">
        <ele>280.4</ele>
        <time>2024-07-31T06:47:09Z</time>
      </trkpt>
      <trkpt lat="47.26574" lon="6.08926">
        <ele>280.4</ele>
        <time>2024-07-31T06:47:10Z</time>
      </trkpt>
      <trkpt lat="47.26572" lon="6.08926">
        <ele>280.6</ele>
        <time>2024-07-31T06:47:11Z</time>
      </trkpt>
      <trkpt lat="47.2657" lon="6.08926">
        <ele>280.8</ele>
        <time>2024-07-31T06:47:12Z</time>
      </trkpt>
      <trkpt lat="47.26568" lon="6.08926">
        <ele>281</ele>
        <time>2024-07-31T06:47:13Z</time>
      </trkpt>
      <trkpt lat="47.26566" lon="6.08925">
        <ele>281.4</ele>
        <time>2024-07-31T06:47:14Z</time>
      </trkpt>
      <trkpt lat="47.26564" lon="6.08925">
        <ele>281.4</ele>
        <time>2024-07-31T06:47:15Z</time>
      </trkpt>
      <trkpt lat="47.26562" lon="6.08925">
        <ele>281.6</ele>
        <time>2024-07-31T06:47:16Z</time>
      </trkpt>
      <trkpt lat="47.2656" lon="6.08924">
        <ele>281.8</ele>
        <time>2024-07-31T06:47:17Z</time>
      </trkpt>
      <trkpt lat="47.26558" lon="6.08924">
        <ele>282</ele>
        <time>2024-07-31T06:47:18Z</time>
      </trkpt>
      <trkpt lat="47.26556" lon="6.08924">
        <ele>282.2</ele>
        <time>2024-07-31T06:47:19Z</time>
      </trkpt>
      <trkpt lat="47.26554" lon="6.08924">
        <ele>282.4</ele>
        <time>2024-07-31T06:47:20Z</time>
      </trkpt>
      <trkpt lat="47.26552" lon="6.08924">
        <ele>282.6</ele>
        <time>2024-07-31T06:47:21Z</time>
      </trkpt>
      <trkpt lat="47.2655" lon="6.08924">
        <ele>283</ele>
        <time>2024-07-31T06:47:22Z</time>
      </trkpt>
      <trkpt lat="47.26548" lon="6.08924">
        <ele>283</ele>
        <time>2024-07-31T06:47:23Z</time>
      </trkpt>
      <trkpt lat="47.26546" lon="6.08925">
        <ele>283</ele>
        <time>2024-07-31T06:47:24Z</time>
      </trkpt>
      <trkpt lat="47.26544" lon="6.08925">
        <ele>283.2</ele>
        <time>2024-07-31T06:47:25Z</time>
      </trkpt>
      <trkpt lat="47.26542" lon="6.08925">
        <ele>283.4</ele>
        <time>2024-07-31T06:47:26Z</time>
      </trkpt>
      <trkpt lat="47.2654" lon="6.08924">
        <ele>283.6</ele>
        <time>2024-07-31T06:47:27Z</time>
      </trkpt>
      <trkpt lat="47.26538" lon="6.08924">
        <ele>283.6</ele>
        <time>2024-07-31T06:47:28Z</time>
      </trkpt>
      <trkpt lat="47.26536" lon="6.08924">
        <ele>284</ele>
        <time>2024-07-31T06:47:29Z</time>
      </trkpt>
      <trkpt lat="47.26534" lon="6.08924">
        <ele>284.2</ele>
        <time>2024-07-31T06:47:30Z</time>
      </trkpt>
      <trkpt lat="47.26532" lon="6.08924">
        <ele>284.4</ele>
        <time>2024-07-31T06:47:31Z</time>
      </trkpt>
      <trkpt lat="47.2653" lon="6.08924">
        <ele>284.6</ele>
        <time>2024-07-31T06:47:32Z</time>
      </trkpt>
      <trkpt lat="47.26528" lon="6.08924">
        <ele>284.8</ele>
        <time>2024-07-31T06:47:33Z</time>
      </trkpt>
      <trkpt lat="47.26527" lon="6.08924">
        <ele>285</ele>
        <time>2024-07-31T06:47:34Z</time>
      </trkpt>
      <trkpt lat="47.26525" lon="6.08924">
        <ele>285</ele>
        <time>2024-07-31T06:47:35Z</time>
      </trkpt>
      <trkpt lat="47.26523" lon="6.08923">
        <ele>285.4</ele>
        <time>2024-07-31T06:47:36Z</time>
      </trkpt>
      <trkpt lat="47.26521" lon="6.08923">
        <ele>285.4</ele>
        <time>2024-07-31T06:47:37Z</time>
      </trkpt>
      <trkpt lat="47.26519" lon="6.08923">
        <ele>285.6</ele>
        <time>2024-07-31T06:47:38Z</time>
      </trkpt>
      <trkpt lat="47.26517" lon="6.08922">
        <ele>285.6</ele>
        <time>2024-07-31T06:47:39Z</time>
      </trkpt>
      <trkpt lat="47.26515" lon="6.08922">
        <ele>285.8</ele>
        <time>2024-07-31T06:47:40Z</time>
      </trkpt>
      <trkpt lat="47.26513" lon="6.08921">
        <ele>286.2</ele>
        <time>2024-07-31T06:47:41Z</time>
      </trkpt>
      <trkpt lat="47.26511" lon="6.08921">
        <ele>286.2</ele>
        <time>2024-07-31T06:47:42Z</time>
      </trkpt>
      <trkpt lat="47.26509" lon="6.08921">
        <ele>286.4</ele>
        <time>2024-07-31T06:47:43Z</time>
      </trkpt>
      <trkpt lat="47.26507" lon="6.08921">
        <ele>286.6</ele>
        <time>2024-07-31T06:47:44Z</time>
      </trkpt>
      <trkpt lat="47.26505" lon="6.08921">
        <ele>286.6</ele>
        <time>2024-07-31T06:47:45Z</time>
      </trkpt>
      <trkpt lat="47.26503" lon="6.0892">
        <ele>286.8</ele>
        <time>2024-07-31T06:47:46Z</time>
      </trkpt>
      <trkpt lat="47.26501" lon="6.0892">
        <ele>287.2</ele>
        <time>2024-07-31T06:47:47Z</time>
      </trkpt>
      <trkpt lat="47.26499" lon="6.08919">
        <ele>287.2</ele>
        <time>2024-07-31T06:47:48Z</time>
      </trkpt>
      <trkpt lat="47.26497" lon="6.08919">
        <ele>287.2</ele>
        <time>2024-07-31T06:47:49Z</time>
      </trkpt>
      <trkpt lat="47.26495" lon="6.08919">
        <ele>287.6</ele>
        <time>2024-07-31T06:47:50Z</time>
      </trkpt>
      <trkpt lat="47.26493" lon="6.08919">
        <ele>287.8</ele>
        <time>2024-07-31T06:47:51Z</time>
      </trkpt>
      <trkpt lat="47.26491" lon="6.08919">
        <ele>288</ele>
        <time>2024-07-31T06:47:52Z</time>
      </trkpt>
      <trkpt lat="47.26489" lon="6.08918">
        <ele>288.2</ele>
        <time>2024-07-31T06:47:53Z</time>
      </trkpt>
      <trkpt lat="47.26487" lon="6.08918">
        <ele>288.6</ele>
        <time>2024-07-31T06:47:54Z</time>
      </trkpt>
      <trkpt lat="47.26485" lon="6.08918">
        <ele>288.8</ele>
        <time>2024-07-31T06:47:55Z</time>
      </trkpt>
      <trkpt lat="47.26483" lon="6.08918">
        <ele>288.8</ele>
        <time>2024-07-31T06:47:56Z</time>
      </trkpt>
      <trkpt lat="47.26481" lon="6.08918">
        <ele>289.2</ele>
        <time>2024-07-31T06:47:57Z</time>
      </trkpt>
      <trkpt lat="47.26479" lon="6.08918">
        <ele>289.4</ele>
        <time>2024-07-31T06:47:58Z</time>
      </trkpt>
      <trkpt lat="47.26477" lon="6.08918">
        <ele>289.6</ele>
        <time>2024-07-31T06:47:59Z</time>
      </trkpt>
      <trkpt lat="47.26475" lon="6.08917">
        <ele>289.6</ele>
        <time>2024-07-31T06:48:00Z</time>
      </trkpt>
      <trkpt lat="47.26473" lon="6.08917">
        <ele>289.8</ele>
        <time>2024-07-31T06:48:01Z</time>
      </trkpt>
      <trkpt lat="47.26471" lon="6.08917">
        <ele>290.2</ele>
        <time>2024-07-31T06:48:02Z</time>
      </trkpt>
      <trkpt lat="47.26469" lon="6.08916">
        <ele>290.4</ele>
        <time>2024-07-31T06:48:03Z</time>
      </trkpt>
      <trkpt lat="47.26467" lon="6.08916">
        <ele>290.8</ele>
        <time>2024-07-31T06:48:04Z</time>
      </trkpt>
      <trkpt lat="47.26465" lon="6.08916">
        <ele>290.8</ele>
        <time>2024-07-31T06:48:05Z</time>
      </trkpt>
      <trkpt lat="47.26463" lon="6.08915">
        <ele>291</ele>
        <time>2024-07-31T06:48:06Z</time>
      </trkpt>
      <trkpt lat="47.26461" lon="6.08915">
        <ele>291</ele>
        <time>2024-07-31T06:48:07Z</time>
      </trkpt>
      <trkpt lat="47.26459" lon="6.08915">
        <ele>291.4</ele>
        <time>2024-07-31T06:48:08Z</time>
      </trkpt>
      <trkpt lat="47.26458" lon="6.08914">
        <ele>291.4</ele>
        <time>2024-07-31T06:48:09Z</time>
      </trkpt>
      <trkpt lat="47.26456" lon="6.08913">
        <ele>291.6</ele>
        <time>2024-07-31T06:48:10Z</time>
      </trkpt>
      <trkpt lat="47.26454" lon="6.08912">
        <ele>291.8</ele>
        <time>2024-07-31T06:48:11Z</time>
      </trkpt>
      <trkpt lat="47.26452" lon="6.08911">
        <ele>292.2</ele>
        <time>2024-07-31T06:48:12Z</time>
      </trkpt>
      <trkpt lat="47.26451" lon="6.0891">
        <ele>292.2</ele>
        <time>2024-07-31T06:48:13Z</time>
      </trkpt>
      <trkpt lat="47.26449" lon="6.08909">
        <ele>292.4</ele>
        <time>2024-07-31T06:48:14Z</time>
      </trkpt>
      <trkpt lat="47.26447" lon="6.08909">
        <ele>292.6</ele>
        <time>2024-07-31T06:48:15Z</time>
      </trkpt>
      <trkpt lat="47.26445" lon="6.08909">
        <ele>292.8</ele>
        <time>2024-07-31T06:48:16Z</time>
      </trkpt>
      <trkpt lat="47.26443" lon="6.08908">
        <ele>292.8</ele>
        <time>2024-07-31T06:48:17Z</time>
      </trkpt>
      <trkpt lat="47.26441" lon="6.08909">
        <ele>293</ele>
        <time>2024-07-31T06:48:18Z</time>
      </trkpt>
      <trkpt lat="47.26439" lon="6.08909">
        <ele>293.4</ele>
        <time>2024-07-31T06:48:19Z</time>
      </trkpt>
      <trkpt lat="47.26437" lon="6.08909">
        <ele>293.6</ele>
        <time>2024-07-31T06:48:20Z</time>
      </trkpt>
      <trkpt lat="47.26436" lon="6.0891">
        <ele>293.6</ele>
        <time>2024-07-31T06:48:21Z</time>
      </trkpt>
      <trkpt lat="47.26434" lon="6.08912">
        <ele>294</ele>
        <time>2024-07-31T06:48:22Z</time>
      </trkpt>
      <trkpt lat="47.26433" lon="6.08913">
        <ele>294.2</ele>
        <time>2024-07-31T06:48:23Z</time>
      </trkpt>
      <trkpt lat="47.26432" lon="6.08916">
        <ele>294.4</ele>
        <time>2024-07-31T06:48:24Z</time>
      </trkpt>
      <trkpt lat="47.26431" lon="6.08918">
        <ele>294.8</ele>
        <time>2024-07-31T06:48:25Z</time>
      </trkpt>
      <trkpt lat="47.2643" lon="6.0892">
        <ele>295</ele>
        <time>2024-07-31T06:48:26Z</time>
      </trkpt>
      <trkpt lat="47.26431" lon="6.08923">
        <ele>295</ele>
        <time>2024-07-31T06:48:27Z</time>
      </trkpt>
      <trkpt lat="47.26432" lon="6.08925">
        <ele>295.2</ele>
        <time>2024-07-31T06:48:28Z</time>
      </trkpt>
      <trkpt lat="47.26433" lon="6.08927">
        <ele>295.2</ele>
        <time>2024-07-31T06:48:29Z</time>
      </trkpt>
      <trkpt lat="47.26434" lon="6.08929">
        <ele>295.2</ele>
        <time>2024-07-31T06:48:30Z</time>
      </trkpt>
      <trkpt lat="47.26435" lon="6.0893">
        <ele>295.4</ele>
        <time>2024-07-31T06:48:31Z</time>
      </trkpt>
      <trkpt lat="47.26437" lon="6.08932">
        <ele>295.6</ele>
        <time>2024-07-31T06:48:32Z</time>
      </trkpt>
      <trkpt lat="47.26438" lon="6.08934">
        <ele>295.8</ele>
        <time>2024-07-31T06:48:33Z</time>
      </trkpt>
      <trkpt lat="47.2644" lon="6.08935">
        <ele>296</ele>
        <time>2024-07-31T06:48:34Z</time>
      </trkpt>
      <trkpt lat="47.26442" lon="6.08936">
        <ele>296.4</ele>
        <time>2024-07-31T06:48:35Z</time>
      </trkpt>
      <trkpt lat="47.26443" lon="6.08938">
        <ele>296.6</ele>
        <time>2024-07-31T06:48:36Z</time>
      </trkpt>
      <trkpt lat="47.26445" lon="6.08939">
        <ele>296.6</ele>
        <time>2024-07-31T06:48:37Z</time>
      </trkpt>
      <trkpt lat="47.26446" lon="6.0894">
        <ele>296.8</ele>
        <time>2024-07-31T06:48:38Z</time>
      </trkpt>
      <trkpt lat="47.26448" lon="6.08942">
        <ele>297</ele>
        <time>2024-07-31T06:48:39Z</time>
      </trkpt>
      <trkpt lat="47.2645" lon="6.08943">
        <ele>297.4</ele>
        <time>2024-07-31T06:48:40Z</time>
      </trkpt>
      <trkpt lat="47.26451" lon="6.08945">
        <ele>297.4</ele>
        <time>2024-07-31T06:48:41Z</time>
      </trkpt>
      <trkpt lat="47.26453" lon="6.08946">
        <ele>297.8</ele>
        <time>2024-07-31T06:48:42Z</time>
      </trkpt>
      <trkpt lat="47.26455" lon="6.08948">
        <ele>298</ele>
        <time>2024-07-31T06:48:43Z</time>
      </trkpt>
      <trkpt lat="47.26456" lon="6.0895">
        <ele>298</ele>
        <time>2024-07-31T06:48:44Z</time>
      </trkpt>
      <trkpt lat="47.26458" lon="6.08952">
        <ele>298.2</ele>
        <time>2024-07-31T06:48:45Z</time>
      </trkpt>
      <trkpt lat="47.26459" lon="6.08954">
        <ele>298.6</ele>
        <time>2024-07-31T06:48:46Z</time>
      </trkpt>
      <trkpt lat="47.2646" lon="6.08956">
        <ele>298.8</ele>
        <time>2024-07-31T06:48:47Z</time>
      </trkpt>
      <trkpt lat="47.26462" lon="6.08958">
        <ele>299</ele>
        <time>2024-07-31T06:48:48Z</time>
      </trkpt>
      <trkpt lat="47.26463" lon="6.0896">
        <ele>299.2</ele>
        <time>2024-07-31T06:48:49Z</time>
      </trkpt>
      <trkpt lat="47.26465" lon="6.08962">
        <ele>299.2</ele>
        <time>2024-07-31T06:48:50Z</time>
      </trkpt>
      <trkpt lat="47.26467" lon="6.08964">
        <ele>299.2</ele>
        <time>2024-07-31T06:48:51Z</time>
      </trkpt>
      <trkpt lat="47.26468" lon="6.08965">
        <ele>299.4</ele>
        <time>2024-07-31T06:48:52Z</time>
      </trkpt>
      <trkpt lat="47.2647" lon="6.08967">
        <ele>299.8</ele>
        <time>2024-07-31T06:48:53Z</time>
      </trkpt>
      <trkpt lat="47.26472" lon="6.08969">
        <ele>300</ele>
        <time>2024-07-31T06:48:54Z</time>
      </trkpt>
      <trkpt lat="47.26473" lon="6.08971">
        <ele>300.2</ele>
        <time>2024-07-31T06:48:55Z</time>
      </trkpt>
      <trkpt lat="47.26475" lon="6.08972">
        <ele>300.4</ele>
        <time>2024-07-31T06:48:56Z</time>
      </trkpt>
      <trkpt lat="47.26477" lon="6.08974">
        <ele>300.4</ele>
        <time>2024-07-31T06:48:57Z</time>
      </trkpt>
      <trkpt lat="47.26478" lon="6.08976">
        <ele>300.6</ele>
        <time>2024-07-31T06:48:58Z</time>
      </trkpt>
      <trkpt lat="47.2648" lon="6.08978">
        <ele>300.8</ele>
        <time>2024-07-31T06:48:59Z</time>
      </trkpt>
      <trkpt lat="47.26481" lon="6.0898">
        <ele>301</ele>
        <time>2024-07-31T06:49:00Z</time>
      </trkpt>
      <trkpt lat="47.26483" lon="6.08981">
        <ele>301.2</ele>
        <time>2024-07-31T06:49:01Z</time>
      </trkpt>
      <trkpt lat="47.26485" lon="6.08983">
        <ele>301.4</ele>
        <time>2024-07-31T06:49:02Z</time>
      </trkpt>
      <trkpt lat="47.26486" lon="6.08986">
        <ele>301.4</ele>
        <time>2024-07-31T06:49:03Z</time>
      </trkpt>
      <trkpt lat="47.26488" lon="6.08988">
        <ele>301.8</ele>
        <time>2024-07-31T06:49:04Z</time>
      </trkpt>
      <trkpt lat="47.26489" lon="6.0899">
        <ele>302</ele>
        <time>2024-07-31T06:49:05Z</time>
      </trkpt>
      <trkpt lat="47.26491" lon="6.08992">
        <ele>302</ele>
        <time>2024-07-31T06:49:06Z</time>
      </trkpt>
      <trkpt lat="47.26493" lon="6.08994">
        <ele>302.2</ele>
        <time>2024-07-31T06:49:07Z</time>
      </trkpt>
      <trkpt lat="47.26494" lon="6.08995">
        <ele>302.4</ele>
        <time>2024-07-31T06:49:08Z</time>
      </trkpt>
      <trkpt lat="47.26496" lon="6.08997">
        <ele>302.6</ele>
        <time>2024-07-31T06:49:09Z</time>
      </trkpt>
      <trkpt lat="47.26497" lon="6.08999">
        <ele>302.8</ele>
        <time>2024-07-31T06:49:10Z</time>
      </trkpt>
      <trkpt lat="47.26499" lon="6.09">
        <ele>302.8</ele>
        <time>2024-07-31T06:49:11Z</time>
      </trkpt>
      <trkpt lat="47.265" lon="6.09002">
        <ele>303</ele>
        <time>2024-07-31T06:49:12Z</time>
      </trkpt>
      <trkpt lat="47.26502" lon="6.09004">
        <ele>303</ele>
        <time>2024-07-31T06:49:13Z</time>
      </trkpt>
      <trkpt lat="47.26503" lon="6.09006">
        <ele>303.2</ele>
        <time>2024-07-31T06:49:14Z</time>
      </trkpt>
      <trkpt lat="47.26504" lon="6.09008">
        <ele>303.4</ele>
        <time>2024-07-31T06:49:15Z</time>
      </trkpt>
      <trkpt lat="47.26506" lon="6.0901">
        <ele>303.8</ele>
        <time>2024-07-31T06:49:16Z</time>
      </trkpt>
      <trkpt lat="47.26507" lon="6.09012">
        <ele>303.8</ele>
        <time>2024-07-31T06:49:17Z</time>
      </trkpt>
      <trkpt lat="47.26509" lon="6.09014">
        <ele>304</ele>
        <time>2024-07-31T06:49:18Z</time>
      </trkpt>
      <trkpt lat="47.26511" lon="6.09015">
        <ele>304.2</ele>
        <time>2024-07-31T06:49:19Z</time>
      </trkpt>
      <trkpt lat="47.26512" lon="6.09017">
        <ele>304.4</ele>
        <time>2024-07-31T06:49:20Z</time>
      </trkpt>
      <trkpt lat="47.26514" lon="6.09019">
        <ele>304.6</ele>
        <time>2024-07-31T06:49:21Z</time>
      </trkpt>
      <trkpt lat="47.26515" lon="6.09021">
        <ele>304.8</ele>
        <time>2024-07-31T06:49:22Z</time>
      </trkpt>
      <trkpt lat="47.26516" lon="6.09023">
        <ele>305</ele>
        <time>2024-07-31T06:49:23Z</time>
      </trkpt>
      <trkpt lat="47.26518" lon="6.09026">
        <ele>305</ele>
        <time>2024-07-31T06:49:24Z</time>
      </trkpt>
      <trkpt lat="47.26519" lon="6.09028">
        <ele>305.2</ele>
        <time>2024-07-31T06:49:25Z</time>
      </trkpt>
      <trkpt lat="47.2652" lon="6.09031">
        <ele>305.4</ele>
        <time>2024-07-31T06:49:26Z</time>
      </trkpt>
      <trkpt lat="47.26521" lon="6.09034">
        <ele>305.8</ele>
        <time>2024-07-31T06:49:27Z</time>
      </trkpt>
      <trkpt lat="47.26521" lon="6.09037">
        <ele>305.8</ele>
        <time>2024-07-31T06:49:28Z</time>
      </trkpt>
      <trkpt lat="47.26522" lon="6.09039">
        <ele>306</ele>
        <time>2024-07-31T06:49:29Z</time>
      </trkpt>
      <trkpt lat="47.26523" lon="6.09042">
        <ele>306.2</ele>
        <time>2024-07-31T06:49:30Z</time>
      </trkpt>
      <trkpt lat="47.26523" lon="6.09045">
        <ele>306.4</ele>
        <time>2024-07-31T06:49:31Z</time>
      </trkpt>
      <trkpt lat="47.26524" lon="6.09048">
        <ele>306.6</ele>
        <time>2024-07-31T06:49:32Z</time>
      </trkpt>
      <trkpt lat="47.26525" lon="6.09051">
        <ele>306.8</ele>
        <time>2024-07-31T06:49:33Z</time>
      </trkpt>
      <trkpt lat="47.26525" lon="6.09053">
        <ele>307</ele>
        <time>2024-07-31T06:49:34Z</time>
      </trkpt>
      <trkpt lat="47.26526" lon="6.09056">
        <ele>307</ele>
        <time>2024-07-31T06:49:35Z</time>
      </trkpt>
      <trkpt lat="47.26527" lon="6.09058">
        <ele>307.2</ele>
        <time>2024-07-31T06:49:36Z</time>
      </trkpt>
      <trkpt lat="47.26527" lon="6.0906">
        <ele>307.2</ele>
        <time>2024-07-31T06:49:37Z</time>
      </trkpt>
      <trkpt lat="47.26528" lon="6.09063">
        <ele>307.4</ele>
        <time>2024-07-31T06:49:38Z</time>
      </trkpt>
      <trkpt lat="47.26528" lon="6.09065">
        <ele>307.6</ele>
        <time>2024-07-31T06:49:39Z</time>
      </trkpt>
      <trkpt lat="47.26528" lon="6.09066">
        <ele>307.6</ele>
        <time>2024-07-31T06:49:40Z</time>
      </trkpt>
      <trkpt lat="47.26528" lon="6.09068">
        <ele>307.6</ele>
        <time>2024-07-31T06:49:41Z</time>
      </trkpt>
      <trkpt lat="47.26529" lon="6.0907">
        <ele>307.8</ele>
        <time>2024-07-31T06:49:42Z</time>
      </trkpt>
      <trkpt lat="47.26529" lon="6.09072">
        <ele>307.8</ele>
        <time>2024-07-31T06:49:43Z</time>
      </trkpt>
      <trkpt lat="47.2653" lon="6.09074">
        <ele>308</ele>
        <time>2024-07-31T06:49:44Z</time>
      </trkpt>
      <trkpt lat="47.2653" lon="6.09077">
        <ele>308.2</ele>
        <time>2024-07-31T06:49:45Z</time>
      </trkpt>
      <trkpt lat="47.26531" lon="6.09079">
        <ele>308.2</ele>
        <time>2024-07-31T06:49:46Z</time>
      </trkpt>
      <trkpt lat="47.26532" lon="6.09081">
        <ele>308.6</ele>
        <time>2024-07-31T06:49:47Z</time>
      </trkpt>
      <trkpt lat="47.26533" lon="6.09084">
        <ele>308.6</ele>
        <time>2024-07-31T06:49:48Z</time>
      </trkpt>
      <trkpt lat="47.26534" lon="6.09087">
        <ele>308.8</ele>
        <time>2024-07-31T06:49:49Z</time>
      </trkpt>
      <trkpt lat="47.26534" lon="6.0909">
        <ele>308.8</ele>
        <time>2024-07-31T06:49:50Z</time>
      </trkpt>
      <trkpt lat="47.26535" lon="6.09092">
        <ele>308.8</ele>
        <time>2024-07-31T06:49:51Z</time>
      </trkpt>
      <trkpt lat="47.26536" lon="6.09095">
        <ele>309</ele>
        <time>2024-07-31T06:49:52Z</time>
      </trkpt>
      <trkpt lat="47.26537" lon="6.09097">
        <ele>309</ele>
        <time>2024-07-31T06:49:53Z</time>
      </trkpt>
      <trkpt lat="47.26538" lon="6.09099">
        <ele>309.2</ele>
        <time>2024-07-31T06:49:54Z</time>
      </trkpt>
      <trkpt lat="47.26539" lon="6.09102">
        <ele>309.4</ele>
        <time>2024-07-31T06:49:55Z</time>
      </trkpt>
      <trkpt lat="47.2654" lon="6.09105">
        <ele>309.4</ele>
        <time>2024-07-31T06:49:56Z</time>
      </trkpt>
      <trkpt lat="47.2654" lon="6.09107">
        <ele>309.4</ele>
        <time>2024-07-31T06:49:57Z</time>
      </trkpt>
      <trkpt lat="47.26541" lon="6.0911">
        <ele>309.6</ele>
        <time>2024-07-31T06:49:58Z</time>
      </trkpt>
      <trkpt lat="47.26541" lon="6.09113">
        <ele>309.6</ele>
        <time>2024-07-31T06:49:59Z</time>
      </trkpt>
      <trkpt lat="47.26541" lon="6.09116">
        <ele>309.6</ele>
        <time>2024-07-31T06:50:00Z</time>
      </trkpt>
      <trkpt lat="47.26541" lon="6.09118">
        <ele>309.6</ele>
        <time>2024-07-31T06:50:01Z</time>
      </trkpt>
      <trkpt lat="47.26541" lon="6.0912">
        <ele>309.8</ele>
        <time>2024-07-31T06:50:02Z</time>
      </trkpt>
      <trkpt lat="47.26541" lon="6.09122">
        <ele>309.8</ele>
        <time>2024-07-31T06:50:03Z</time>
      </trkpt>
      <trkpt lat="47.2654" lon="6.09125">
        <ele>309.8</ele>
        <time>2024-07-31T06:50:04Z</time>
      </trkpt>
      <trkpt lat="47.26539" lon="6.09127">
        <ele>309.8</ele>
        <time>2024-07-31T06:50:05Z</time>
      </trkpt>
      <trkpt lat="47.26538" lon="6.09128">
        <ele>310</ele>
        <time>2024-07-31T06:50:06Z</time>
      </trkpt>
      <trkpt lat="47.26537" lon="6.0913">
        <ele>310</ele>
        <time>2024-07-31T06:50:07Z</time>
      </trkpt>
      <trkpt lat="47.26536" lon="6.09133">
        <ele>310</ele>
        <time>2024-07-31T06:50:08Z</time>
      </trkpt>
      <trkpt lat="47.26535" lon="6.09135">
        <ele>310</ele>
        <time>2024-07-31T06:50:09Z</time>
      </trkpt>
      <trkpt lat="47.26533" lon="6.09138">
        <ele>310.2</ele>
        <time>2024-07-31T06:50:10Z</time>
      </trkpt>
      <trkpt lat="47.26532" lon="6.0914">
        <ele>310.4</ele>
        <time>2024-07-31T06:50:11Z</time>
      </trkpt>
      <trkpt lat="47.26531" lon="6.09143">
        <ele>310.4</ele>
        <time>2024-07-31T06:50:12Z</time>
      </trkpt>
      <trkpt lat="47.2653" lon="6.09145">
        <ele>310.6</ele>
        <time>2024-07-31T06:50:13Z</time>
      </trkpt>
      <trkpt lat="47.26529" lon="6.09148">
        <ele>310.6</ele>
        <time>2024-07-31T06:50:14Z</time>
      </trkpt>
      <trkpt lat="47.26528" lon="6.0915">
        <ele>310.8</ele>
        <time>2024-07-31T06:50:15Z</time>
      </trkpt>
      <trkpt lat="47.26526" lon="6.09152">
        <ele>310.8</ele>
        <time>2024-07-31T06:50:16Z</time>
      </trkpt>
      <trkpt lat="47.26524" lon="6.09154">
        <ele>310.8</ele>
        <time>2024-07-31T06:50:17Z</time>
      </trkpt>
      <trkpt lat="47.26523" lon="6.09157">
        <ele>311</ele>
        <time>2024-07-31T06:50:18Z</time>
      </trkpt>
      <trkpt lat="47.26522" lon="6.09159">
        <ele>311</ele>
        <time>2024-07-31T06:50:19Z</time>
      </trkpt>
      <trkpt lat="47.2652" lon="6.09161">
        <ele>311.2</ele>
        <time>2024-07-31T06:50:20Z</time>
      </trkpt>
      <trkpt lat="47.26518" lon="6.09163">
        <ele>311.2</ele>
        <time>2024-07-31T06:50:21Z</time>
      </trkpt>
      <trkpt lat="47.26516" lon="6.09164">
        <ele>311.2</ele>
        <time>2024-07-31T06:50:22Z</time>
      </trkpt>
      <trkpt lat="47.26515" lon="6.09166">
        <ele>311</ele>
        <time>2024-07-31T06:50:23Z</time>
      </trkpt>
      <trkpt lat="47.26513" lon="6.09167">
        <ele>311</ele>
        <time>2024-07-31T06:50:24Z</time>
      </trkpt>
      <trkpt lat="47.26511" lon="6.09167">
        <ele>311</ele>
        <time>2024-07-31T06:50:25Z</time>
      </trkpt>
      <trkpt lat="47.2651" lon="6.09166">
        <ele>310.8</ele>
        <time>2024-07-31T06:50:26Z</time>
      </trkpt>
      <trkpt lat="47.26509" lon="6.09163">
        <ele>310.8</ele>
        <time>2024-07-31T06:50:27Z</time>
      </trkpt>
      <trkpt lat="47.26508" lon="6.09161">
        <ele>310.8</ele>
        <time>2024-07-31T06:50:28Z</time>
      </trkpt>
      <trkpt lat="47.26506" lon="6.09158">
        <ele>310.6</ele>
        <time>2024-07-31T06:50:29Z</time>
      </trkpt>
      <trkpt lat="47.26504" lon="6.09155">
        <ele>310.6</ele>
        <time>2024-07-31T06:50:30Z</time>
      </trkpt>
      <trkpt lat="47.26502" lon="6.09152">
        <ele>310.6</ele>
        <time>2024-07-31T06:50:31Z</time>
      </trkpt>
      <trkpt lat="47.265" lon="6.09149">
        <ele>310.4</ele>
        <time>2024-07-31T06:50:32Z</time>
      </trkpt>
      <trkpt lat="47.26498" lon="6.09146">
        <ele>310.4</ele>
        <time>2024-07-31T06:50:33Z</time>
      </trkpt>
      <trkpt lat="47.26496" lon="6.09143">
        <ele>310.4</ele>
        <time>2024-07-31T06:50:34Z</time>
      </trkpt>
      <trkpt lat="47.26494" lon="6.09141">
        <ele>310.2</ele>
        <time>2024-07-31T06:50:35Z</time>
      </trkpt>
      <trkpt lat="47.26492" lon="6.09138">
        <ele>310</ele>
        <time>2024-07-31T06:50:36Z</time>
      </trkpt>
      <trkpt lat="47.26489" lon="6.09137">
        <ele>310</ele>
        <time>2024-07-31T06:50:37Z</time>
      </trkpt>
      <trkpt lat="47.26487" lon="6.09135">
        <ele>310</ele>
        <time>2024-07-31T06:50:38Z</time>
      </trkpt>
      <trkpt lat="47.26485" lon="6.09133">
        <ele>310</ele>
        <time>2024-07-31T06:50:39Z</time>
      </trkpt>
      <trkpt lat="47.26483" lon="6.09131">
        <ele>309.8</ele>
        <time>2024-07-31T06:50:40Z</time>
      </trkpt>
      <trkpt lat="47.26482" lon="6.09129">
        <ele>309.8</ele>
        <time>2024-07-31T06:50:41Z</time>
      </trkpt>
      <trkpt lat="47.26481" lon="6.09127">
        <ele>309.8</ele>
        <time>2024-07-31T06:50:42Z</time>
      </trkpt>
      <trkpt lat="47.26481" lon="6.09125">
        <ele>309.8</ele>
        <time>2024-07-31T06:50:43Z</time>
      </trkpt>
      <trkpt lat="47.2648" lon="6.09123">
        <ele>309.6</ele>
        <time>2024-07-31T06:50:44Z</time>
      </trkpt>
      <trkpt lat="47.26479" lon="6.0912">
        <ele>309.6</ele>
        <time>2024-07-31T06:50:45Z</time>
      </trkpt>
      <trkpt lat="47.26478" lon="6.09118">
        <ele>309.6</ele>
        <time>2024-07-31T06:50:46Z</time>
      </trkpt>
      <trkpt lat="47.26477" lon="6.09118">
        <ele>309.6</ele>
        <time>2024-07-31T06:50:47Z</time>
      </trkpt>
      <trkpt lat="47.26477" lon="6.09119">
        <ele>309.8</ele>
        <time>2024-07-31T06:50:48Z</time>
      </trkpt>
      <trkpt lat="47.26477" lon="6.09121">
        <ele>309.8</ele>
        <time>2024-07-31T06:50:49Z</time>
      </trkpt>
      <trkpt lat="47.26478" lon="6.09123">
        <ele>309.8</ele>
        <time>2024-07-31T06:50:50Z</time>
      </trkpt>
      <trkpt lat="47.2648" lon="6.09124">
        <ele>309.6</ele>
        <time>2024-07-31T06:50:51Z</time>
      </trkpt>
      <trkpt lat="47.26481" lon="6.09126">
        <ele>310</ele>
        <time>2024-07-31T06:50:52Z</time>
      </trkpt>
      <trkpt lat="47.26483" lon="6.09129">
        <ele>310</ele>
        <time>2024-07-31T06:50:53Z</time>
      </trkpt>
      <trkpt lat="47.26484" lon="6.09131">
        <ele>310.2</ele>
        <time>2024-07-31T06:50:54Z</time>
      </trkpt>
      <trkpt lat="47.26486" lon="6.09133">
        <ele>310.2</ele>
        <time>2024-07-31T06:50:55Z</time>
      </trkpt>
      <trkpt lat="47.26488" lon="6.09136">
        <ele>310</ele>
        <time>2024-07-31T06:50:56Z</time>
      </trkpt>
      <trkpt lat="47.2649" lon="6.09138">
        <ele>310</ele>
        <time>2024-07-31T06:50:57Z</time>
      </trkpt>
      <trkpt lat="47.26492" lon="6.0914">
        <ele>310.2</ele>
        <time>2024-07-31T06:50:58Z</time>
      </trkpt>
      <trkpt lat="47.26494" lon="6.09143">
        <ele>310</ele>
        <time>2024-07-31T06:50:59Z</time>
      </trkpt>
      <trkpt lat="47.26496" lon="6.09146">
        <ele>310.2</ele>
        <time>2024-07-31T06:51:00Z</time>
      </trkpt>
      <trkpt lat="47.26497" lon="6.09148">
        <ele>310.2</ele>
        <time>2024-07-31T06:51:01Z</time>
      </trkpt>
      <trkpt lat="47.26499" lon="6.09151">
        <ele>310.4</ele>
        <time>2024-07-31T06:51:02Z</time>
      </trkpt>
      <trkpt lat="47.26501" lon="6.09154">
        <ele>310.4</ele>
        <time>2024-07-31T06:51:03Z</time>
      </trkpt>
      <trkpt lat="47.26503" lon="6.09157">
        <ele>310.2</ele>
        <time>2024-07-31T06:51:04Z</time>
      </trkpt>
      <trkpt lat="47.26505" lon="6.0916">
        <ele>310.2</ele>
        <time>2024-07-31T06:51:05Z</time>
      </trkpt>
      <trkpt lat="47.26507" lon="6.09163">
        <ele>310.4</ele>
        <time>2024-07-31T06:51:06Z</time>
      </trkpt>
      <trkpt lat="47.26509" lon="6.09165">
        <ele>310.4</ele>
        <time>2024-07-31T06:51:07Z</time>
      </trkpt>
      <trkpt lat="47.26512" lon="6.09166">
        <ele>310.6</ele>
        <time>2024-07-31T06:51:08Z</time>
      </trkpt>
      <trkpt lat="47.26515" lon="6.09166">
        <ele>310.6</ele>
        <time>2024-07-31T06:51:09Z</time>
      </trkpt>
      <trkpt lat="47.26518" lon="6.09165">
        <ele>310.8</ele>
        <time>2024-07-31T06:51:10Z</time>
      </trkpt>
      <trkpt lat="47.2652" lon="6.09163">
        <ele>310.6</ele>
        <time>2024-07-31T06:51:11Z</time>
      </trkpt>
      <trkpt lat="47.26523" lon="6.0916">
        <ele>310.6</ele>
        <time>2024-07-31T06:51:12Z</time>
      </trkpt>
      <trkpt lat="47.26525" lon="6.09157">
        <ele>310.8</ele>
        <time>2024-07-31T06:51:13Z</time>
      </trkpt>
      <trkpt lat="47.26527" lon="6.09154">
        <ele>310.6</ele>
        <time>2024-07-31T06:51:14Z</time>
      </trkpt>
      <trkpt lat="47.2653" lon="6.0915">
        <ele>310.6</ele>
        <time>2024-07-31T06:51:15Z</time>
      </trkpt>
      <trkpt lat="47.26532" lon="6.09146">
        <ele>310.6</ele>
        <time>2024-07-31T06:51:16Z</time>
      </trkpt>
      <trkpt lat="47.26534" lon="6.09141">
        <ele>310.4</ele>
        <time>2024-07-31T06:51:17Z</time>
      </trkpt>
      <trkpt lat="47.26537" lon="6.09136">
        <ele>310.2</ele>
        <time>2024-07-31T06:51:18Z</time>
      </trkpt>
      <trkpt lat="47.26539" lon="6.09131">
        <ele>310</ele>
        <time>2024-07-31T06:51:19Z</time>
      </trkpt>
      <trkpt lat="47.26542" lon="6.09126">
        <ele>310</ele>
        <time>2024-07-31T06:51:20Z</time>
      </trkpt>
      <trkpt lat="47.26543" lon="6.0912">
        <ele>309.8</ele>
        <time>2024-07-31T06:51:21Z</time>
      </trkpt>
      <trkpt lat="47.26543" lon="6.09113">
        <ele>309.6</ele>
        <time>2024-07-31T06:51:22Z</time>
      </trkpt>
      <trkpt lat="47.26541" lon="6.09107">
        <ele>309.4</ele>
        <time>2024-07-31T06:51:23Z</time>
      </trkpt>
      <trkpt lat="47.2654" lon="6.09101">
        <ele>309.4</ele>
        <time>2024-07-31T06:51:24Z</time>
      </trkpt>
      <trkpt lat="47.26538" lon="6.09095">
        <ele>309.4</ele>
        <time>2024-07-31T06:51:25Z</time>
      </trkpt>
      <trkpt lat="47.26535" lon="6.09089">
        <ele>309.2</ele>
        <time>2024-07-31T06:51:26Z</time>
      </trkpt>
      <trkpt lat="47.26533" lon="6.09083">
        <ele>309</ele>
        <time>2024-07-31T06:51:27Z</time>
      </trkpt>
      <trkpt lat="47.26531" lon="6.09076">
        <ele>308.6</ele>
        <time>2024-07-31T06:51:28Z</time>
      </trkpt>
      <trkpt lat="47.26529" lon="6.0907">
        <ele>308.2</ele>
        <time>2024-07-31T06:51:29Z</time>
      </trkpt>
      <trkpt lat="47.26528" lon="6.09063">
        <ele>307.8</ele>
        <time>2024-07-31T06:51:30Z</time>
      </trkpt>
      <trkpt lat="47.26527" lon="6.09056">
        <ele>307.4</ele>
        <time>2024-07-31T06:51:31Z</time>
      </trkpt>
      <trkpt lat="47.26526" lon="6.09048">
        <ele>306.6</ele>
        <time>2024-07-31T06:51:32Z</time>
      </trkpt>
      <trkpt lat="47.26524" lon="6.09041">
        <ele>306</ele>
        <time>2024-07-31T06:51:33Z</time>
      </trkpt>
      <trkpt lat="47.26522" lon="6.09034">
        <ele>305.6</ele>
        <time>2024-07-31T06:51:34Z</time>
      </trkpt>
      <trkpt lat="47.26519" lon="6.09027">
        <ele>305</ele>
        <time>2024-07-31T06:51:35Z</time>
      </trkpt>
      <trkpt lat="47.26516" lon="6.09021">
        <ele>304.4</ele>
        <time>2024-07-31T06:51:36Z</time>
      </trkpt>
      <trkpt lat="47.26513" lon="6.09015">
        <ele>303.8</ele>
        <time>2024-07-31T06:51:37Z</time>
      </trkpt>
      <trkpt lat="47.26509" lon="6.0901">
        <ele>303.2</ele>
        <time>2024-07-31T06:51:38Z</time>
      </trkpt>
      <trkpt lat="47.26506" lon="6.09006">
        <ele>302.8</ele>
        <time>2024-07-31T06:51:39Z</time>
      </trkpt>
      <trkpt lat="47.26502" lon="6.09003">
        <ele>302.6</ele>
        <time>2024-07-31T06:51:40Z</time>
      </trkpt>
      <trkpt lat="47.26499" lon="6.09002">
        <ele>302.4</ele>
        <time>2024-07-31T06:51:41Z</time>
      </trkpt>
      <trkpt lat="47.26495" lon="6.09002">
        <ele>302.4</ele>
        <time>2024-07-31T06:51:42Z</time>
      </trkpt>
      <trkpt lat="47.26492" lon="6.09004">
        <ele>302.4</ele>
        <time>2024-07-31T06:51:43Z</time>
      </trkpt>
      <trkpt lat="47.26489" lon="6.09006">
        <ele>302.8</ele>
        <time>2024-07-31T06:51:44Z</time>
      </trkpt>
      <trkpt lat="47.26486" lon="6.09008">
        <ele>303.2</ele>
        <time>2024-07-31T06:51:45Z</time>
      </trkpt>
      <trkpt lat="47.26483" lon="6.09009">
        <ele>303.4</ele>
        <time>2024-07-31T06:51:46Z</time>
      </trkpt>
      <trkpt lat="47.26481" lon="6.09009">
        <ele>303.4</ele>
        <time>2024-07-31T06:51:47Z</time>
      </trkpt>
      <trkpt lat="47.26478" lon="6.09009">
        <ele>303.6</ele>
        <time>2024-07-31T06:51:48Z</time>
      </trkpt>
      <trkpt lat="47.26476" lon="6.09008">
        <ele>303.8</ele>
        <time>2024-07-31T06:51:49Z</time>
      </trkpt>
      <trkpt lat="47.26474" lon="6.09007">
        <ele>304</ele>
        <time>2024-07-31T06:51:50Z</time>
      </trkpt>
      <trkpt lat="47.26471" lon="6.09006">
        <ele>304</ele>
        <time>2024-07-31T06:51:51Z</time>
      </trkpt>
      <trkpt lat="47.26469" lon="6.09005">
        <ele>304.4</ele>
        <time>2024-07-31T06:51:52Z</time>
      </trkpt>
      <trkpt lat="47.26466" lon="6.09004">
        <ele>304.6</ele>
        <time>2024-07-31T06:51:53Z</time>
      </trkpt>
      <trkpt lat="47.26464" lon="6.09003">
        <ele>304.8</ele>
        <time>2024-07-31T06:51:54Z</time>
      </trkpt>
      <trkpt lat="47.26461" lon="6.09002">
        <ele>305</ele>
        <time>2024-07-31T06:51:55Z</time>
      </trkpt>
      <trkpt lat="47.26459" lon="6.09001">
        <ele>305.2</ele>
        <time>2024-07-31T06:51:56Z</time>
      </trkpt>
      <trkpt lat="47.26456" lon="6.09001">
        <ele>305.2</ele>
        <time>2024-07-31T06:51:57Z</time>
      </trkpt>
      <trkpt lat="47.26453" lon="6.09">
        <ele>305.4</ele>
        <time>2024-07-31T06:51:58Z</time>
      </trkpt>
      <trkpt lat="47.26451" lon="6.09">
        <ele>305.6</ele>
        <time>2024-07-31T06:51:59Z</time>
      </trkpt>
      <trkpt lat="47.26448" lon="6.09001">
        <ele>305.8</ele>
        <time>2024-07-31T06:52:00Z</time>
      </trkpt>
      <trkpt lat="47.26446" lon="6.09001">
        <ele>305.8</ele>
        <time>2024-07-31T06:52:01Z</time>
      </trkpt>
      <trkpt lat="47.26444" lon="6.09002">
        <ele>306</ele>
        <time>2024-07-31T06:52:02Z</time>
      </trkpt>
      <trkpt lat="47.26441" lon="6.09003">
        <ele>306</ele>
        <time>2024-07-31T06:52:03Z</time>
      </trkpt>
      <trkpt lat="47.26439" lon="6.09005">
        <ele>306.2</ele>
        <time>2024-07-31T06:52:04Z</time>
      </trkpt>
      <trkpt lat="47.26436" lon="6.09006">
        <ele>306.4</ele>
        <time>2024-07-31T06:52:05Z</time>
      </trkpt>
      <trkpt lat="47.26434" lon="6.09008">
        <ele>306.4</ele>
        <time>2024-07-31T06:52:06Z</time>
      </trkpt>
      <trkpt lat="47.26432" lon="6.0901">
        <ele>306.6</ele>
        <time>2024-07-31T06:52:07Z</time>
      </trkpt>
      <trkpt lat="47.2643" lon="6.09013">
        <ele>306.6</ele>
        <time>2024-07-31T06:52:08Z</time>
      </trkpt>
      <trkpt lat="47.26429" lon="6.09015">
        <ele>306.6</ele>
        <time>2024-07-31T06:52:09Z</time>
      </trkpt>
      <trkpt lat="47.26427" lon="6.09017">
        <ele>306.8</ele>
        <time>2024-07-31T06:52:10Z</time>
      </trkpt>
      <trkpt lat="47.26425" lon="6.0902">
        <ele>306.8</ele>
        <time>2024-07-31T06:52:11Z</time>
      </trkpt>
      <trkpt lat="47.26423" lon="6.09023">
        <ele>307</ele>
        <time>2024-07-31T06:52:12Z</time>
      </trkpt>
      <trkpt lat="47.26421" lon="6.09025">
        <ele>307</ele>
        <time>2024-07-31T06:52:13Z</time>
      </trkpt>
      <trkpt lat="47.26419" lon="6.09028">
        <ele>307.2</ele>
        <time>2024-07-31T06:52:14Z</time>
      </trkpt>
      <trkpt lat="47.26417" lon="6.09031">
        <ele>307</ele>
        <time>2024-07-31T06:52:15Z</time>
      </trkpt>
      <trkpt lat="47.26415" lon="6.09033">
        <ele>307.4</ele>
        <time>2024-07-31T06:52:16Z</time>
      </trkpt>
      <trkpt lat="47.26413" lon="6.09036">
        <ele>307.6</ele>
        <time>2024-07-31T06:52:17Z</time>
      </trkpt>
      <trkpt lat="47.26411" lon="6.09038">
        <ele>307.6</ele>
        <time>2024-07-31T06:52:18Z</time>
      </trkpt>
      <trkpt lat="47.26409" lon="6.09041">
        <ele>307.6</ele>
        <time>2024-07-31T06:52:19Z</time>
      </trkpt>
      <trkpt lat="47.26406" lon="6.09044">
        <ele>307.6</ele>
        <time>2024-07-31T06:52:20Z</time>
      </trkpt>
      <trkpt lat="47.26404" lon="6.09048">
        <ele>307.8</ele>
        <time>2024-07-31T06:52:21Z</time>
      </trkpt>
      <trkpt lat="47.26402" lon="6.09051">
        <ele>307.8</ele>
        <time>2024-07-31T06:52:22Z</time>
      </trkpt>
      <trkpt lat="47.264" lon="6.09054">
        <ele>308</ele>
        <time>2024-07-31T06:52:23Z</time>
      </trkpt>
      <trkpt lat="47.26397" lon="6.09057">
        <ele>308</ele>
        <time>2024-07-31T06:52:24Z</time>
      </trkpt>
      <trkpt lat="47.26395" lon="6.0906">
        <ele>308.2</ele>
        <time>2024-07-31T06:52:25Z</time>
      </trkpt>
      <trkpt lat="47.26393" lon="6.09063">
        <ele>308.4</ele>
        <time>2024-07-31T06:52:26Z</time>
      </trkpt>
      <trkpt lat="47.26391" lon="6.09065">
        <ele>308.4</ele>
        <time>2024-07-31T06:52:27Z</time>
      </trkpt>
      <trkpt lat="47.26389" lon="6.09068">
        <ele>308.4</ele>
        <time>2024-07-31T06:52:28Z</time>
      </trkpt>
      <trkpt lat="47.26387" lon="6.0907">
        <ele>308.6</ele>
        <time>2024-07-31T06:52:29Z</time>
      </trkpt>
      <trkpt lat="47.26385" lon="6.09073">
        <ele>308.8</ele>
        <time>2024-07-31T06:52:30Z</time>
      </trkpt>
      <trkpt lat="47.26382" lon="6.09076">
        <ele>308.8</ele>
        <time>2024-07-31T06:52:31Z</time>
      </trkpt>
      <trkpt lat="47.2638" lon="6.09078">
        <ele>308.8</ele>
        <time>2024-07-31T06:52:32Z</time>
      </trkpt>
      <trkpt lat="47.26378" lon="6.09081">
        <ele>308.8</ele>
        <time>2024-07-31T06:52:33Z</time>
      </trkpt>
      <trkpt lat="47.26376" lon="6.09084">
        <ele>309</ele>
        <time>2024-07-31T06:52:34Z</time>
      </trkpt>
      <trkpt lat="47.26374" lon="6.09087">
        <ele>309.2</ele>
        <time>2024-07-31T06:52:35Z</time>
      </trkpt>
      <trkpt lat="47.26372" lon="6.09091">
        <ele>309.2</ele>
        <time>2024-07-31T06:52:36Z</time>
      </trkpt>
      <trkpt lat="47.2637" lon="6.09094">
        <ele>309.2</ele>
        <time>2024-07-31T06:52:37Z</time>
      </trkpt>
      <trkpt lat="47.26368" lon="6.09097">
        <ele>309.2</ele>
        <time>2024-07-31T06:52:38Z</time>
      </trkpt>
      <trkpt lat="47.26365" lon="6.091">
        <ele>309.4</ele>
        <time>2024-07-31T06:52:39Z</time>
      </trkpt>
      <trkpt lat="47.26363" lon="6.09103">
        <ele>309.4</ele>
        <time>2024-07-31T06:52:40Z</time>
      </trkpt>
      <trkpt lat="47.26361" lon="6.09106">
        <ele>309.6</ele>
        <time>2024-07-31T06:52:41Z</time>
      </trkpt>
      <trkpt lat="47.26359" lon="6.09109">
        <ele>309.6</ele>
        <time>2024-07-31T06:52:42Z</time>
      </trkpt>
      <trkpt lat="47.26357" lon="6.09112">
        <ele>309.8</ele>
        <time>2024-07-31T06:52:43Z</time>
      </trkpt>
      <trkpt lat="47.26355" lon="6.09114">
        <ele>309.8</ele>
        <time>2024-07-31T06:52:44Z</time>
      </trkpt>
      <trkpt lat="47.26353" lon="6.09118">
        <ele>310</ele>
        <time>2024-07-31T06:52:45Z</time>
      </trkpt>
      <trkpt lat="47.26351" lon="6.09121">
        <ele>310.2</ele>
        <time>2024-07-31T06:52:46Z</time>
      </trkpt>
      <trkpt lat="47.2635" lon="6.09125">
        <ele>310.4</ele>
        <time>2024-07-31T06:52:47Z</time>
      </trkpt>
      <trkpt lat="47.26348" lon="6.09128">
        <ele>310.4</ele>
        <time>2024-07-31T06:52:48Z</time>
      </trkpt>
      <trkpt lat="47.26347" lon="6.09132">
        <ele>310.6</ele>
        <time>2024-07-31T06:52:49Z</time>
      </trkpt>
      <trkpt lat="47.26345" lon="6.09135">
        <ele>310.6</ele>
        <time>2024-07-31T06:52:50Z</time>
      </trkpt>
      <trkpt lat="47.26344" lon="6.09139">
        <ele>310.6</ele>
        <time>2024-07-31T06:52:51Z</time>
      </trkpt>
      <trkpt lat="47.26343" lon="6.09143">
        <ele>310.8</ele>
        <time>2024-07-31T06:52:52Z</time>
      </trkpt>
      <trkpt lat="47.26341" lon="6.09147">
        <ele>310.8</ele>
        <time>2024-07-31T06:52:53Z</time>
      </trkpt>
      <trkpt lat="47.2634" lon="6.09151">
        <ele>311</ele>
        <time>2024-07-31T06:52:54Z</time>
      </trkpt>
      <trkpt lat="47.26339" lon="6.09155">
        <ele>311.2</ele>
        <time>2024-07-31T06:52:55Z</time>
      </trkpt>
      <trkpt lat="47.26338" lon="6.09158">
        <ele>311.2</ele>
        <time>2024-07-31T06:52:56Z</time>
      </trkpt>
      <trkpt lat="47.26337" lon="6.09162">
        <ele>311.2</ele>
        <time>2024-07-31T06:52:57Z</time>
      </trkpt>
      <trkpt lat="47.26336" lon="6.09166">
        <ele>311.4</ele>
        <time>2024-07-31T06:52:58Z</time>
      </trkpt>
      <trkpt lat="47.26335" lon="6.0917">
        <ele>311.6</ele>
        <time>2024-07-31T06:52:59Z</time>
      </trkpt>
      <trkpt lat="47.26334" lon="6.09174">
        <ele>312</ele>
        <time>2024-07-31T06:53:00Z</time>
      </trkpt>
      <trkpt lat="47.26333" lon="6.09177">
        <ele>312.2</ele>
        <time>2024-07-31T06:53:01Z</time>
      </trkpt>
      <trkpt lat="47.26332" lon="6.09181">
        <ele>312.2</ele>
        <time>2024-07-31T06:53:02Z</time>
      </trkpt>
      <trkpt lat="47.26331" lon="6.09185">
        <ele>312.4</ele>
        <time>2024-07-31T06:53:03Z</time>
      </trkpt>
      <trkpt lat="47.2633" lon="6.09189">
        <ele>312.6</ele>
        <time>2024-07-31T06:53:04Z</time>
      </trkpt>
      <trkpt lat="47.2633" lon="6.09193">
        <ele>312.6</ele>
        <time>2024-07-31T06:53:05Z</time>
      </trkpt>
      <trkpt lat="47.26329" lon="6.09197">
        <ele>312.8</ele>
        <time>2024-07-31T06:53:06Z</time>
      </trkpt>
      <trkpt lat="47.26329" lon="6.09201">
        <ele>312.8</ele>
        <time>2024-07-31T06:53:07Z</time>
      </trkpt>
      <trkpt lat="47.26328" lon="6.09204">
        <ele>313</ele>
        <time>2024-07-31T06:53:08Z</time>
      </trkpt>
      <trkpt lat="47.26328" lon="6.09208">
        <ele>313.2</ele>
        <time>2024-07-31T06:53:09Z</time>
      </trkpt>
      <trkpt lat="47.26327" lon="6.09212">
        <ele>313.4</ele>
        <time>2024-07-31T06:53:10Z</time>
      </trkpt>
      <trkpt lat="47.26326" lon="6.09216">
        <ele>313.4</ele>
        <time>2024-07-31T06:53:11Z</time>
      </trkpt>
      <trkpt lat="47.26326" lon="6.0922">
        <ele>313.6</ele>
        <time>2024-07-31T06:53:12Z</time>
      </trkpt>
      <trkpt lat="47.26325" lon="6.09223">
        <ele>313.8</ele>
        <time>2024-07-31T06:53:13Z</time>
      </trkpt>
      <trkpt lat="47.26325" lon="6.09227">
        <ele>313.8</ele>
        <time>2024-07-31T06:53:14Z</time>
      </trkpt>
      <trkpt lat="47.26324" lon="6.0923">
        <ele>313.8</ele>
        <time>2024-07-31T06:53:15Z</time>
      </trkpt>
      <trkpt lat="47.26323" lon="6.09233">
        <ele>314</ele>
        <time>2024-07-31T06:53:16Z</time>
      </trkpt>
      <trkpt lat="47.26322" lon="6.09236">
        <ele>314.2</ele>
        <time>2024-07-31T06:53:17Z</time>
      </trkpt>
      <trkpt lat="47.26321" lon="6.0924">
        <ele>314.2</ele>
        <time>2024-07-31T06:53:18Z</time>
      </trkpt>
      <trkpt lat="47.2632" lon="6.09243">
        <ele>314.4</ele>
        <time>2024-07-31T06:53:19Z</time>
      </trkpt>
      <trkpt lat="47.26319" lon="6.09246">
        <ele>314.6</ele>
        <time>2024-07-31T06:53:20Z</time>
      </trkpt>
      <trkpt lat="47.26318" lon="6.0925">
        <ele>314.8</ele>
        <time>2024-07-31T06:53:21Z</time>
      </trkpt>
      <trkpt lat="47.26317" lon="6.09253">
        <ele>314.8</ele>
        <time>2024-07-31T06:53:22Z</time>
      </trkpt>
      <trkpt lat="47.26316" lon="6.09256">
        <ele>315.2</ele>
        <time>2024-07-31T06:53:23Z</time>
      </trkpt>
      <trkpt lat="47.26314" lon="6.09259">
        <ele>315.2</ele>
        <time>2024-07-31T06:53:24Z</time>
      </trkpt>
      <trkpt lat="47.26313" lon="6.09263">
        <ele>315.2</ele>
        <time>2024-07-31T06:53:25Z</time>
      </trkpt>
      <trkpt lat="47.26311" lon="6.09266">
        <ele>315.6</ele>
        <time>2024-07-31T06:53:26Z</time>
      </trkpt>
      <trkpt lat="47.2631" lon="6.0927">
        <ele>315.8</ele>
        <time>2024-07-31T06:53:27Z</time>
      </trkpt>
      <trkpt lat="47.26309" lon="6.09273">
        <ele>316</ele>
        <time>2024-07-31T06:53:28Z</time>
      </trkpt>
      <trkpt lat="47.26308" lon="6.09276">
        <ele>316</ele>
        <time>2024-07-31T06:53:29Z</time>
      </trkpt>
      <trkpt lat="47.26306" lon="6.0928">
        <ele>316.2</ele>
        <time>2024-07-31T06:53:30Z</time>
      </trkpt>
      <trkpt lat="47.26305" lon="6.09283">
        <ele>316.2</ele>
        <time>2024-07-31T06:53:31Z</time>
      </trkpt>
      <trkpt lat="47.26304" lon="6.09287">
        <ele>316.4</ele>
        <time>2024-07-31T06:53:32Z</time>
      </trkpt>
      <trkpt lat="47.26303" lon="6.0929">
        <ele>316.6</ele>
        <time>2024-07-31T06:53:33Z</time>
      </trkpt>
      <trkpt lat="47.26302" lon="6.09293">
        <ele>316.8</ele>
        <time>2024-07-31T06:53:34Z</time>
      </trkpt>
      <trkpt lat="47.26301" lon="6.09297">
        <ele>317</ele>
        <time>2024-07-31T06:53:35Z</time>
      </trkpt>
      <trkpt lat="47.26299" lon="6.093">
        <ele>317</ele>
        <time>2024-07-31T06:53:36Z</time>
      </trkpt>
      <trkpt lat="47.26298" lon="6.09303">
        <ele>317.2</ele>
        <time>2024-07-31T06:53:37Z</time>
      </trkpt>
      <trkpt lat="47.26297" lon="6.09307">
        <ele>317.4</ele>
        <time>2024-07-31T06:53:38Z</time>
      </trkpt>
      <trkpt lat="47.26296" lon="6.0931">
        <ele>317.6</ele>
        <time>2024-07-31T06:53:39Z</time>
      </trkpt>
      <trkpt lat="47.26295" lon="6.09314">
        <ele>317.8</ele>
        <time>2024-07-31T06:53:40Z</time>
      </trkpt>
      <trkpt lat="47.26295" lon="6.09317">
        <ele>318</ele>
        <time>2024-07-31T06:53:41Z</time>
      </trkpt>
      <trkpt lat="47.26294" lon="6.0932">
        <ele>318.4</ele>
        <time>2024-07-31T06:53:42Z</time>
      </trkpt>
      <trkpt lat="47.26294" lon="6.09323">
        <ele>318.8</ele>
        <time>2024-07-31T06:53:43Z</time>
      </trkpt>
      <trkpt lat="47.26293" lon="6.09327">
        <ele>319</ele>
        <time>2024-07-31T06:53:44Z</time>
      </trkpt>
      <trkpt lat="47.26292" lon="6.0933">
        <ele>319.2</ele>
        <time>2024-07-31T06:53:45Z</time>
      </trkpt>
      <trkpt lat="47.26291" lon="6.09333">
        <ele>319.2</ele>
        <time>2024-07-31T06:53:46Z</time>
      </trkpt>
      <trkpt lat="47.26291" lon="6.09337">
        <ele>319.4</ele>
        <time>2024-07-31T06:53:47Z</time>
      </trkpt>
      <trkpt lat="47.2629" lon="6.0934">
        <ele>319.6</ele>
        <time>2024-07-31T06:53:48Z</time>
      </trkpt>
      <trkpt lat="47.26289" lon="6.09343">
        <ele>320</ele>
        <time>2024-07-31T06:53:49Z</time>
      </trkpt>
      <trkpt lat="47.26288" lon="6.09345">
        <ele>320</ele>
        <time>2024-07-31T06:53:50Z</time>
      </trkpt>
      <trkpt lat="47.26287" lon="6.09349">
        <ele>320.4</ele>
        <time>2024-07-31T06:53:51Z</time>
      </trkpt>
      <trkpt lat="47.26286" lon="6.09352">
        <ele>320.4</ele>
        <time>2024-07-31T06:53:52Z</time>
      </trkpt>
      <trkpt lat="47.26285" lon="6.09355">
        <ele>320.6</ele>
        <time>2024-07-31T06:53:53Z</time>
      </trkpt>
      <trkpt lat="47.26284" lon="6.09359">
        <ele>320.8</ele>
        <time>2024-07-31T06:53:54Z</time>
      </trkpt>
      <trkpt lat="47.26284" lon="6.09362">
        <ele>321</ele>
        <time>2024-07-31T06:53:55Z</time>
      </trkpt>
      <trkpt lat="47.26283" lon="6.09366">
        <ele>321.4</ele>
        <time>2024-07-31T06:53:56Z</time>
      </trkpt>
      <trkpt lat="47.26282" lon="6.09369">
        <ele>321.6</ele>
        <time>2024-07-31T06:53:57Z</time>
      </trkpt>
      <trkpt lat="47.26281" lon="6.09372">
        <ele>321.6</ele>
        <time>2024-07-31T06:53:58Z</time>
      </trkpt>
      <trkpt lat="47.26279" lon="6.09375">
        <ele>321.8</ele>
        <time>2024-07-31T06:53:59Z</time>
      </trkpt>
      <trkpt lat="47.26278" lon="6.09378">
        <ele>322</ele>
        <time>2024-07-31T06:54:00Z</time>
      </trkpt>
      <trkpt lat="47.26277" lon="6.09381">
        <ele>322.2</ele>
        <time>2024-07-31T06:54:01Z</time>
      </trkpt>
      <trkpt lat="47.26277" lon="6.09384">
        <ele>322.4</ele>
        <time>2024-07-31T06:54:02Z</time>
      </trkpt>
      <trkpt lat="47.26276" lon="6.09387">
        <ele>322.4</ele>
        <time>2024-07-31T06:54:03Z</time>
      </trkpt>
      <trkpt lat="47.26275" lon="6.0939">
        <ele>322.6</ele>
        <time>2024-07-31T06:54:04Z</time>
      </trkpt>
      <trkpt lat="47.26274" lon="6.09394">
        <ele>323</ele>
        <time>2024-07-31T06:54:05Z</time>
      </trkpt>
      <trkpt lat="47.26274" lon="6.09396">
        <ele>323.2</ele>
        <time>2024-07-31T06:54:06Z</time>
      </trkpt>
      <trkpt lat="47.26272" lon="6.09399">
        <ele>323.4</ele>
        <time>2024-07-31T06:54:07Z</time>
      </trkpt>
      <trkpt lat="47.26271" lon="6.09401">
        <ele>323.6</ele>
        <time>2024-07-31T06:54:08Z</time>
      </trkpt>
      <trkpt lat="47.26269" lon="6.09403">
        <ele>324</ele>
        <time>2024-07-31T06:54:09Z</time>
      </trkpt>
      <trkpt lat="47.26267" lon="6.09405">
        <ele>324</ele>
        <time>2024-07-31T06:54:10Z</time>
      </trkpt>
      <trkpt lat="47.26265" lon="6.09406">
        <ele>324.4</ele>
        <time>2024-07-31T06:54:11Z</time>
      </trkpt>
      <trkpt lat="47.26264" lon="6.09408">
        <ele>325.2</ele>
        <time>2024-07-31T06:54:12Z</time>
      </trkpt>
      <trkpt lat="47.26262" lon="6.09409">
        <ele>325.4</ele>
        <time>2024-07-31T06:54:13Z</time>
      </trkpt>
      <trkpt lat="47.2626" lon="6.0941">
        <ele>325.8</ele>
        <time>2024-07-31T06:54:14Z</time>
      </trkpt>
      <trkpt lat="47.26257" lon="6.09411">
        <ele>326</ele>
        <time>2024-07-31T06:54:15Z</time>
      </trkpt>
      <trkpt lat="47.26255" lon="6.09412">
        <ele>326.2</ele>
        <time>2024-07-31T06:54:16Z</time>
      </trkpt>
      <trkpt lat="47.26253" lon="6.09413">
        <ele>326.4</ele>
        <time>2024-07-31T06:54:17Z</time>
      </trkpt>
      <trkpt lat="47.26251" lon="6.09413">
        <ele>326.8</ele>
        <time>2024-07-31T06:54:18Z</time>
      </trkpt>
      <trkpt lat="47.26248" lon="6.09413">
        <ele>327</ele>
        <time>2024-07-31T06:54:19Z</time>
      </trkpt>
      <trkpt lat="47.26246" lon="6.09413">
        <ele>327.2</ele>
        <time>2024-07-31T06:54:20Z</time>
      </trkpt>
      <trkpt lat="47.26244" lon="6.09413">
        <ele>327.2</ele>
        <time>2024-07-31T06:54:21Z</time>
      </trkpt>
      <trkpt lat="47.26241" lon="6.09412">
        <ele>327.4</ele>
        <time>2024-07-31T06:54:22Z</time>
      </trkpt>
      <trkpt lat="47.26239" lon="6.09412">
        <ele>327.6</ele>
        <time>2024-07-31T06:54:23Z</time>
      </trkpt>
      <trkpt lat="47.26237" lon="6.09411">
        <ele>327.8</ele>
        <time>2024-07-31T06:54:24Z</time>
      </trkpt>
      <trkpt lat="47.26235" lon="6.0941">
        <ele>328</ele>
        <time>2024-07-31T06:54:25Z</time>
      </trkpt>
      <trkpt lat="47.26232" lon="6.0941">
        <ele>328.2</ele>
        <time>2024-07-31T06:54:26Z</time>
      </trkpt>
      <trkpt lat="47.2623" lon="6.09409">
        <ele>328.4</ele>
        <time>2024-07-31T06:54:27Z</time>
      </trkpt>
      <trkpt lat="47.26228" lon="6.09408">
        <ele>328.6</ele>
        <time>2024-07-31T06:54:28Z</time>
      </trkpt>
      <trkpt lat="47.26226" lon="6.09408">
        <ele>328.8</ele>
        <time>2024-07-31T06:54:29Z</time>
      </trkpt>
      <trkpt lat="47.26223" lon="6.09408">
        <ele>329</ele>
        <time>2024-07-31T06:54:30Z</time>
      </trkpt>
      <trkpt lat="47.26221" lon="6.09407">
        <ele>329.2</ele>
        <time>2024-07-31T06:54:31Z</time>
      </trkpt>
      <trkpt lat="47.26219" lon="6.09407">
        <ele>329.4</ele>
        <time>2024-07-31T06:54:32Z</time>
      </trkpt>
      <trkpt lat="47.26216" lon="6.09406">
        <ele>329.6</ele>
        <time>2024-07-31T06:54:33Z</time>
      </trkpt>
      <trkpt lat="47.26214" lon="6.09406">
        <ele>330</ele>
        <time>2024-07-31T06:54:34Z</time>
      </trkpt>
      <trkpt lat="47.26212" lon="6.09405">
        <ele>330</ele>
        <time>2024-07-31T06:54:35Z</time>
      </trkpt>
      <trkpt lat="47.2621" lon="6.09405">
        <ele>330.2</ele>
        <time>2024-07-31T06:54:36Z</time>
      </trkpt>
      <trkpt lat="47.26208" lon="6.09405">
        <ele>330.6</ele>
        <time>2024-07-31T06:54:37Z</time>
      </trkpt>
      <trkpt lat="47.26206" lon="6.09405">
        <ele>330.8</ele>
        <time>2024-07-31T06:54:38Z</time>
      </trkpt>
      <trkpt lat="47.26204" lon="6.09404">
        <ele>331</ele>
        <time>2024-07-31T06:54:39Z</time>
      </trkpt>
      <trkpt lat="47.26202" lon="6.09404">
        <ele>331.2</ele>
        <time>2024-07-31T06:54:40Z</time>
      </trkpt>
      <trkpt lat="47.26199" lon="6.09404">
        <ele>331.4</ele>
        <time>2024-07-31T06:54:41Z</time>
      </trkpt>
      <trkpt lat="47.26197" lon="6.09404">
        <ele>331.6</ele>
        <time>2024-07-31T06:54:42Z</time>
      </trkpt>
      <trkpt lat="47.26195" lon="6.09404">
        <ele>331.6</ele>
        <time>2024-07-31T06:54:43Z</time>
      </trkpt>
      <trkpt lat="47.26194" lon="6.09403">
        <ele>331.8</ele>
        <time>2024-07-31T06:54:44Z</time>
      </trkpt>
      <trkpt lat="47.26191" lon="6.09403">
        <ele>332</ele>
        <time>2024-07-31T06:54:45Z</time>
      </trkpt>
      <trkpt lat="47.26189" lon="6.09402">
        <ele>332.2</ele>
        <time>2024-07-31T06:54:46Z</time>
      </trkpt>
      <trkpt lat="47.26187" lon="6.09402">
        <ele>332.4</ele>
        <time>2024-07-31T06:54:47Z</time>
      </trkpt>
      <trkpt lat="47.26185" lon="6.09401">
        <ele>332.6</ele>
        <time>2024-07-31T06:54:48Z</time>
      </trkpt>
      <trkpt lat="47.26183" lon="6.09401">
        <ele>332.8</ele>
        <time>2024-07-31T06:54:49Z</time>
      </trkpt>
      <trkpt lat="47.26181" lon="6.094">
        <ele>333</ele>
        <time>2024-07-31T06:54:50Z</time>
      </trkpt>
      <trkpt lat="47.26179" lon="6.094">
        <ele>333.2</ele>
        <time>2024-07-31T06:54:51Z</time>
      </trkpt>
      <trkpt lat="47.26177" lon="6.094">
        <ele>333.4</ele>
        <time>2024-07-31T06:54:52Z</time>
      </trkpt>
      <trkpt lat="47.26175" lon="6.094">
        <ele>333.6</ele>
        <time>2024-07-31T06:54:53Z</time>
      </trkpt>
      <trkpt lat="47.26173" lon="6.09401">
        <ele>333.8</ele>
        <time>2024-07-31T06:54:54Z</time>
      </trkpt>
      <trkpt lat="47.26171" lon="6.09401">
        <ele>334</ele>
        <time>2024-07-31T06:54:55Z</time>
      </trkpt>
      <trkpt lat="47.26169" lon="6.09401">
        <ele>334.2</ele>
        <time>2024-07-31T06:54:56Z</time>
      </trkpt>
      <trkpt lat="47.26167" lon="6.09401">
        <ele>334.6</ele>
        <time>2024-07-31T06:54:57Z</time>
      </trkpt>
      <trkpt lat="47.26165" lon="6.09401">
        <ele>334.8</ele>
        <time>2024-07-31T06:54:58Z</time>
      </trkpt>
      <trkpt lat="47.26163" lon="6.09402">
        <ele>334.8</ele>
        <time>2024-07-31T06:54:59Z</time>
      </trkpt>
      <trkpt lat="47.26161" lon="6.09404">
        <ele>335</ele>
        <time>2024-07-31T06:55:00Z</time>
      </trkpt>
      <trkpt lat="47.26159" lon="6.09406">
        <ele>335.2</ele>
        <time>2024-07-31T06:55:01Z</time>
      </trkpt>
      <trkpt lat="47.26158" lon="6.09409">
        <ele>335</ele>
        <time>2024-07-31T06:55:02Z</time>
      </trkpt>
      <trkpt lat="47.26157" lon="6.09411">
        <ele>335.2</ele>
        <time>2024-07-31T06:55:03Z</time>
      </trkpt>
      <trkpt lat="47.26157" lon="6.09415">
        <ele>335.4</ele>
        <time>2024-07-31T06:55:04Z</time>
      </trkpt>
      <trkpt lat="47.26156" lon="6.09418">
        <ele>335.4</ele>
        <time>2024-07-31T06:55:05Z</time>
      </trkpt>
      <trkpt lat="47.26156" lon="6.09421">
        <ele>335.8</ele>
        <time>2024-07-31T06:55:06Z</time>
      </trkpt>
      <trkpt lat="47.26156" lon="6.09424">
        <ele>335.8</ele>
        <time>2024-07-31T06:55:07Z</time>
      </trkpt>
      <trkpt lat="47.26156" lon="6.09427">
        <ele>336</ele>
        <time>2024-07-31T06:55:08Z</time>
      </trkpt>
      <trkpt lat="47.26157" lon="6.0943">
        <ele>336.2</ele>
        <time>2024-07-31T06:55:09Z</time>
      </trkpt>
      <trkpt lat="47.26158" lon="6.09433">
        <ele>336.2</ele>
        <time>2024-07-31T06:55:10Z</time>
      </trkpt>
      <trkpt lat="47.2616" lon="6.09436">
        <ele>336.4</ele>
        <time>2024-07-31T06:55:11Z</time>
      </trkpt>
      <trkpt lat="47.26162" lon="6.09438">
        <ele>336.6</ele>
        <time>2024-07-31T06:55:12Z</time>
      </trkpt>
      <trkpt lat="47.26164" lon="6.09439">
        <ele>336.8</ele>
        <time>2024-07-31T06:55:13Z</time>
      </trkpt>
      <trkpt lat="47.26165" lon="6.0944">
        <ele>336.8</ele>
        <time>2024-07-31T06:55:14Z</time>
      </trkpt>
      <trkpt lat="47.26167" lon="6.09441">
        <ele>337</ele>
        <time>2024-07-31T06:55:15Z</time>
      </trkpt>
      <trkpt lat="47.26169" lon="6.09442">
        <ele>337.4</ele>
        <time>2024-07-31T06:55:16Z</time>
      </trkpt>
      <trkpt lat="47.26171" lon="6.09443">
        <ele>337.4</ele>
        <time>2024-07-31T06:55:17Z</time>
      </trkpt>
      <trkpt lat="47.26172" lon="6.09444">
        <ele>337.6</ele>
        <time>2024-07-31T06:55:18Z</time>
      </trkpt>
      <trkpt lat="47.26174" lon="6.09445">
        <ele>337.8</ele>
        <time>2024-07-31T06:55:19Z</time>
      </trkpt>
      <trkpt lat="47.26176" lon="6.09446">
        <ele>338</ele>
        <time>2024-07-31T06:55:20Z</time>
      </trkpt>
      <trkpt lat="47.26179" lon="6.09447">
        <ele>338</ele>
        <time>2024-07-31T06:55:21Z</time>
      </trkpt>
      <trkpt lat="47.26181" lon="6.09449">
        <ele>338.2</ele>
        <time>2024-07-31T06:55:22Z</time>
      </trkpt>
      <trkpt lat="47.26183" lon="6.0945">
        <ele>338.4</ele>
        <time>2024-07-31T06:55:23Z</time>
      </trkpt>
      <trkpt lat="47.26185" lon="6.09451">
        <ele>338.6</ele>
        <time>2024-07-31T06:55:24Z</time>
      </trkpt>
      <trkpt lat="47.26187" lon="6.09452">
        <ele>338.6</ele>
        <time>2024-07-31T06:55:25Z</time>
      </trkpt>
      <trkpt lat="47.2619" lon="6.09453">
        <ele>338.6</ele>
        <time>2024-07-31T06:55:26Z</time>
      </trkpt>
      <trkpt lat="47.26192" lon="6.09455">
        <ele>338.8</ele>
        <time>2024-07-31T06:55:27Z</time>
      </trkpt>
      <trkpt lat="47.26194" lon="6.09457">
        <ele>339</ele>
        <time>2024-07-31T06:55:28Z</time>
      </trkpt>
      <trkpt lat="47.26196" lon="6.09458">
        <ele>339</ele>
        <time>2024-07-31T06:55:29Z</time>
      </trkpt>
      <trkpt lat="47.26198" lon="6.0946">
        <ele>339.2</ele>
        <time>2024-07-31T06:55:30Z</time>
      </trkpt>
      <trkpt lat="47.262" lon="6.09461">
        <ele>339.4</ele>
        <time>2024-07-31T06:55:31Z</time>
      </trkpt>
      <trkpt lat="47.26202" lon="6.09462">
        <ele>339.6</ele>
        <time>2024-07-31T06:55:32Z</time>
      </trkpt>
      <trkpt lat="47.26204" lon="6.09463">
        <ele>339.6</ele>
        <time>2024-07-31T06:55:33Z</time>
      </trkpt>
      <trkpt lat="47.26206" lon="6.09464">
        <ele>340</ele>
        <time>2024-07-31T06:55:34Z</time>
      </trkpt>
      <trkpt lat="47.26208" lon="6.09466">
        <ele>340.2</ele>
        <time>2024-07-31T06:55:35Z</time>
      </trkpt>
      <trkpt lat="47.26209" lon="6.09468">
        <ele>340.4</ele>
        <time>2024-07-31T06:55:36Z</time>
      </trkpt>
      <trkpt lat="47.26211" lon="6.0947">
        <ele>340.6</ele>
        <time>2024-07-31T06:55:37Z</time>
      </trkpt>
      <trkpt lat="47.26213" lon="6.09471">
        <ele>340.6</ele>
        <time>2024-07-31T06:55:38Z</time>
      </trkpt>
      <trkpt lat="47.26214" lon="6.09473">
        <ele>340.6</ele>
        <time>2024-07-31T06:55:39Z</time>
      </trkpt>
      <trkpt lat="47.26216" lon="6.09475">
        <ele>340.8</ele>
        <time>2024-07-31T06:55:40Z</time>
      </trkpt>
      <trkpt lat="47.26218" lon="6.09477">
        <ele>341</ele>
        <time>2024-07-31T06:55:41Z</time>
      </trkpt>
      <trkpt lat="47.26219" lon="6.09481">
        <ele>341.2</ele>
        <time>2024-07-31T06:55:42Z</time>
      </trkpt>
      <trkpt lat="47.26221" lon="6.09485">
        <ele>341.4</ele>
        <time>2024-07-31T06:55:43Z</time>
      </trkpt>
      <trkpt lat="47.26223" lon="6.09489">
        <ele>341.4</ele>
        <time>2024-07-31T06:55:44Z</time>
      </trkpt>
      <trkpt lat="47.26224" lon="6.09492">
        <ele>341.6</ele>
        <time>2024-07-31T06:55:45Z</time>
      </trkpt>
      <trkpt lat="47.26225" lon="6.09494">
        <ele>341.6</ele>
        <time>2024-07-31T06:55:46Z</time>
      </trkpt>
      <trkpt lat="47.26226" lon="6.09497">
        <ele>341.6</ele>
        <time>2024-07-31T06:55:47Z</time>
      </trkpt>
      <trkpt lat="47.26227" lon="6.095">
        <ele>341.6</ele>
        <time>2024-07-31T06:55:48Z</time>
      </trkpt>
      <trkpt lat="47.26228" lon="6.09503">
        <ele>341.8</ele>
        <time>2024-07-31T06:55:49Z</time>
      </trkpt>
      <trkpt lat="47.26228" lon="6.09507">
        <ele>342</ele>
        <time>2024-07-31T06:55:50Z</time>
      </trkpt>
      <trkpt lat="47.26229" lon="6.0951">
        <ele>342.2</ele>
        <time>2024-07-31T06:55:51Z</time>
      </trkpt>
      <trkpt lat="47.2623" lon="6.09513">
        <ele>342.2</ele>
        <time>2024-07-31T06:55:52Z</time>
      </trkpt>
      <trkpt lat="47.26231" lon="6.09515">
        <ele>342.4</ele>
        <time>2024-07-31T06:55:53Z</time>
      </trkpt>
      <trkpt lat="47.26232" lon="6.09518">
        <ele>342.8</ele>
        <time>2024-07-31T06:55:54Z</time>
      </trkpt>
      <trkpt lat="47.26234" lon="6.09521">
        <ele>342.8</ele>
        <time>2024-07-31T06:55:55Z</time>
      </trkpt>
      <trkpt lat="47.26235" lon="6.09524">
        <ele>343.2</ele>
        <time>2024-07-31T06:55:56Z</time>
      </trkpt>
      <trkpt lat="47.26237" lon="6.09527">
        <ele>343.2</ele>
        <time>2024-07-31T06:55:57Z</time>
      </trkpt>
      <trkpt lat="47.26238" lon="6.0953">
        <ele>343.4</ele>
        <time>2024-07-31T06:55:58Z</time>
      </trkpt>
      <trkpt lat="47.26239" lon="6.09533">
        <ele>343.6</ele>
        <time>2024-07-31T06:55:59Z</time>
      </trkpt>
      <trkpt lat="47.2624" lon="6.09536">
        <ele>343.8</ele>
        <time>2024-07-31T06:56:00Z</time>
      </trkpt>
      <trkpt lat="47.26241" lon="6.09539">
        <ele>343.8</ele>
        <time>2024-07-31T06:56:01Z</time>
      </trkpt>
      <trkpt lat="47.26242" lon="6.09543">
        <ele>344</ele>
        <time>2024-07-31T06:56:02Z</time>
      </trkpt>
      <trkpt lat="47.26243" lon="6.09546">
        <ele>344.2</ele>
        <time>2024-07-31T06:56:03Z</time>
      </trkpt>
      <trkpt lat="47.26244" lon="6.0955">
        <ele>344.4</ele>
        <time>2024-07-31T06:56:04Z</time>
      </trkpt>
      <trkpt lat="47.26244" lon="6.09554">
        <ele>344.6</ele>
        <time>2024-07-31T06:56:05Z</time>
      </trkpt>
      <trkpt lat="47.26245" lon="6.09557">
        <ele>344.8</ele>
        <time>2024-07-31T06:56:06Z</time>
      </trkpt>
      <trkpt lat="47.26246" lon="6.0956">
        <ele>345</ele>
        <time>2024-07-31T06:56:07Z</time>
      </trkpt>
      <trkpt lat="47.26246" lon="6.09564">
        <ele>345.2</ele>
        <time>2024-07-31T06:56:08Z</time>
      </trkpt>
      <trkpt lat="47.26247" lon="6.09567">
        <ele>345.6</ele>
        <time>2024-07-31T06:56:09Z</time>
      </trkpt>
      <trkpt lat="47.26247" lon="6.09571">
        <ele>345.6</ele>
        <time>2024-07-31T06:56:10Z</time>
      </trkpt>
      <trkpt lat="47.26248" lon="6.09574">
        <ele>345.8</ele>
        <time>2024-07-31T06:56:11Z</time>
      </trkpt>
      <trkpt lat="47.26249" lon="6.09577">
        <ele>345.8</ele>
        <time>2024-07-31T06:56:12Z</time>
      </trkpt>
      <trkpt lat="47.2625" lon="6.0958">
        <ele>346.2</ele>
        <time>2024-07-31T06:56:13Z</time>
      </trkpt>
      <trkpt lat="47.26251" lon="6.09583">
        <ele>346.4</ele>
        <time>2024-07-31T06:56:14Z</time>
      </trkpt>
      <trkpt lat="47.26252" lon="6.09587">
        <ele>346.6</ele>
        <time>2024-07-31T06:56:15Z</time>
      </trkpt>
      <trkpt lat="47.26253" lon="6.0959">
        <ele>346.8</ele>
        <time>2024-07-31T06:56:16Z</time>
      </trkpt>
      <trkpt lat="47.26254" lon="6.09593">
        <ele>347</ele>
        <time>2024-07-31T06:56:17Z</time>
      </trkpt>
      <trkpt lat="47.26255" lon="6.09596">
        <ele>347</ele>
        <time>2024-07-31T06:56:18Z</time>
      </trkpt>
      <trkpt lat="47.26256" lon="6.09599">
        <ele>347.4</ele>
        <time>2024-07-31T06:56:19Z</time>
      </trkpt>
      <trkpt lat="47.26257" lon="6.09603">
        <ele>347.6</ele>
        <time>2024-07-31T06:56:20Z</time>
      </trkpt>
      <trkpt lat="47.26258" lon="6.09606">
        <ele>347.6</ele>
        <time>2024-07-31T06:56:21Z</time>
      </trkpt>
      <trkpt lat="47.26259" lon="6.09609">
        <ele>347.8</ele>
        <time>2024-07-31T06:56:22Z</time>
      </trkpt>
      <trkpt lat="47.26261" lon="6.09612">
        <ele>348</ele>
        <time>2024-07-31T06:56:23Z</time>
      </trkpt>
      <trkpt lat="47.26262" lon="6.09615">
        <ele>348.2</ele>
        <time>2024-07-31T06:56:24Z</time>
      </trkpt>
      <trkpt lat="47.26263" lon="6.09618">
        <ele>348.6</ele>
        <time>2024-07-31T06:56:25Z</time>
      </trkpt>
      <trkpt lat="47.26264" lon="6.09621">
        <ele>348.8</ele>
        <time>2024-07-31T06:56:26Z</time>
      </trkpt>
      <trkpt lat="47.26265" lon="6.09624">
        <ele>349</ele>
        <time>2024-07-31T06:56:27Z</time>
      </trkpt>
      <trkpt lat="47.26266" lon="6.09626">
        <ele>349.2</ele>
        <time>2024-07-31T06:56:28Z</time>
      </trkpt>
      <trkpt lat="47.26267" lon="6.09629">
        <ele>349.4</ele>
        <time>2024-07-31T06:56:29Z</time>
      </trkpt>
      <trkpt lat="47.26268" lon="6.09631">
        <ele>349.6</ele>
        <time>2024-07-31T06:56:30Z</time>
      </trkpt>
      <trkpt lat="47.26269" lon="6.09634">
        <ele>349.6</ele>
        <time>2024-07-31T06:56:31Z</time>
      </trkpt>
      <trkpt lat="47.2627" lon="6.09637">
        <ele>349.6</ele>
        <time>2024-07-31T06:56:32Z</time>
      </trkpt>
      <trkpt lat="47.26272" lon="6.0964">
        <ele>350</ele>
        <time>2024-07-31T06:56:33Z</time>
      </trkpt>
      <trkpt lat="47.26273" lon="6.09644">
        <ele>350.2</ele>
        <time>2024-07-31T06:56:34Z</time>
      </trkpt>
      <trkpt lat="47.26274" lon="6.09646">
        <ele>350.2</ele>
        <time>2024-07-31T06:56:35Z</time>
      </trkpt>
      <trkpt lat="47.26276" lon="6.0965">
        <ele>350.4</ele>
        <time>2024-07-31T06:56:36Z</time>
      </trkpt>
      <trkpt lat="47.26277" lon="6.09653">
        <ele>350.8</ele>
        <time>2024-07-31T06:56:37Z</time>
      </trkpt>
      <trkpt lat="47.26278" lon="6.09656">
        <ele>350.8</ele>
        <time>2024-07-31T06:56:38Z</time>
      </trkpt>
      <trkpt lat="47.26279" lon="6.0966">
        <ele>351</ele>
        <time>2024-07-31T06:56:39Z</time>
      </trkpt>
      <trkpt lat="47.26279" lon="6.09663">
        <ele>351.2</ele>
        <time>2024-07-31T06:56:40Z</time>
      </trkpt>
      <trkpt lat="47.2628" lon="6.09666">
        <ele>351.4</ele>
        <time>2024-07-31T06:56:41Z</time>
      </trkpt>
      <trkpt lat="47.26281" lon="6.0967">
        <ele>351.6</ele>
        <time>2024-07-31T06:56:42Z</time>
      </trkpt>
      <trkpt lat="47.26281" lon="6.09673">
        <ele>351.8</ele>
        <time>2024-07-31T06:56:43Z</time>
      </trkpt>
      <trkpt lat="47.26282" lon="6.09676">
        <ele>352</ele>
        <time>2024-07-31T06:56:44Z</time>
      </trkpt>
      <trkpt lat="47.26283" lon="6.09679">
        <ele>352.2</ele>
        <time>2024-07-31T06:56:45Z</time>
      </trkpt>
      <trkpt lat="47.26284" lon="6.09682">
        <ele>352.2</ele>
        <time>2024-07-31T06:56:46Z</time>
      </trkpt>
      <trkpt lat="47.26285" lon="6.09685">
        <ele>352.6</ele>
        <time>2024-07-31T06:56:47Z</time>
      </trkpt>
      <trkpt lat="47.26286" lon="6.09687">
        <ele>352.8</ele>
        <time>2024-07-31T06:56:48Z</time>
      </trkpt>
      <trkpt lat="47.26287" lon="6.0969">
        <ele>352.8</ele>
        <time>2024-07-31T06:56:49Z</time>
      </trkpt>
      <trkpt lat="47.26288" lon="6.09693">
        <ele>353</ele>
        <time>2024-07-31T06:56:50Z</time>
      </trkpt>
      <trkpt lat="47.26289" lon="6.09695">
        <ele>353.2</ele>
        <time>2024-07-31T06:56:51Z</time>
      </trkpt>
      <trkpt lat="47.2629" lon="6.09697">
        <ele>353.4</ele>
        <time>2024-07-31T06:56:52Z</time>
      </trkpt>
      <trkpt lat="47.26291" lon="6.09699">
        <ele>353.6</ele>
        <time>2024-07-31T06:56:53Z</time>
      </trkpt>
      <trkpt lat="47.26292" lon="6.09701">
        <ele>353.6</ele>
        <time>2024-07-31T06:56:54Z</time>
      </trkpt>
      <trkpt lat="47.26293" lon="6.09704">
        <ele>353.6</ele>
        <time>2024-07-31T06:56:55Z</time>
      </trkpt>
      <trkpt lat="47.26294" lon="6.09706">
        <ele>353.8</ele>
        <time>2024-07-31T06:56:56Z</time>
      </trkpt>
      <trkpt lat="47.26295" lon="6.09709">
        <ele>354</ele>
        <time>2024-07-31T06:56:57Z</time>
      </trkpt>
      <trkpt lat="47.26296" lon="6.09712">
        <ele>354.2</ele>
        <time>2024-07-31T06:56:58Z</time>
      </trkpt>
      <trkpt lat="47.26297" lon="6.09715">
        <ele>354.6</ele>
        <time>2024-07-31T06:56:59Z</time>
      </trkpt>
      <trkpt lat="47.26297" lon="6.09717">
        <ele>354.6</ele>
        <time>2024-07-31T06:57:00Z</time>
      </trkpt>
      <trkpt lat="47.26298" lon="6.0972">
        <ele>354.8</ele>
        <time>2024-07-31T06:57:01Z</time>
      </trkpt>
      <trkpt lat="47.26299" lon="6.09723">
        <ele>355</ele>
        <time>2024-07-31T06:57:02Z</time>
      </trkpt>
      <trkpt lat="47.263" lon="6.09726">
        <ele>355</ele>
        <time>2024-07-31T06:57:03Z</time>
      </trkpt>
      <trkpt lat="47.263" lon="6.09729">
        <ele>355.2</ele>
        <time>2024-07-31T06:57:04Z</time>
      </trkpt>
      <trkpt lat="47.26301" lon="6.09732">
        <ele>355.6</ele>
        <time>2024-07-31T06:57:05Z</time>
      </trkpt>
      <trkpt lat="47.26302" lon="6.09734">
        <ele>355.8</ele>
        <time>2024-07-31T06:57:06Z</time>
      </trkpt>
      <trkpt lat="47.26303" lon="6.09737">
        <ele>355.8</ele>
        <time>2024-07-31T06:57:07Z</time>
      </trkpt>
      <trkpt lat="47.26304" lon="6.0974">
        <ele>356.2</ele>
        <time>2024-07-31T06:57:08Z</time>
      </trkpt>
      <trkpt lat="47.26304" lon="6.09742">
        <ele>356.4</ele>
        <time>2024-07-31T06:57:09Z</time>
      </trkpt>
      <trkpt lat="47.26305" lon="6.09744">
        <ele>356.6</ele>
        <time>2024-07-31T06:57:10Z</time>
      </trkpt>
      <trkpt lat="47.26306" lon="6.09746">
        <ele>357</ele>
        <time>2024-07-31T06:57:11Z</time>
      </trkpt>
      <trkpt lat="47.26307" lon="6.09748">
        <ele>357.2</ele>
        <time>2024-07-31T06:57:12Z</time>
      </trkpt>
      <trkpt lat="47.26308" lon="6.09751">
        <ele>357.4</ele>
        <time>2024-07-31T06:57:13Z</time>
      </trkpt>
      <trkpt lat="47.26309" lon="6.09753">
        <ele>357.6</ele>
        <time>2024-07-31T06:57:14Z</time>
      </trkpt>
      <trkpt lat="47.2631" lon="6.09756">
        <ele>357.8</ele>
        <time>2024-07-31T06:57:15Z</time>
      </trkpt>
      <trkpt lat="47.2631" lon="6.0976">
        <ele>357.8</ele>
        <time>2024-07-31T06:57:16Z</time>
      </trkpt>
      <trkpt lat="47.2631" lon="6.09763">
        <ele>358</ele>
        <time>2024-07-31T06:57:17Z</time>
      </trkpt>
      <trkpt lat="47.26311" lon="6.09766">
        <ele>358.2</ele>
        <time>2024-07-31T06:57:18Z</time>
      </trkpt>
      <trkpt lat="47.26312" lon="6.09769">
        <ele>358.4</ele>
        <time>2024-07-31T06:57:19Z</time>
      </trkpt>
      <trkpt lat="47.26313" lon="6.09773">
        <ele>358.8</ele>
        <time>2024-07-31T06:57:20Z</time>
      </trkpt>
      <trkpt lat="47.26313" lon="6.09776">
        <ele>358.8</ele>
        <time>2024-07-31T06:57:21Z</time>
      </trkpt>
      <trkpt lat="47.26314" lon="6.09779">
        <ele>359</ele>
        <time>2024-07-31T06:57:22Z</time>
      </trkpt>
      <trkpt lat="47.26315" lon="6.09782">
        <ele>359.2</ele>
        <time>2024-07-31T06:57:23Z</time>
      </trkpt>
      <trkpt lat="47.26316" lon="6.09785">
        <ele>359.4</ele>
        <time>2024-07-31T06:57:24Z</time>
      </trkpt>
      <trkpt lat="47.26317" lon="6.09788">
        <ele>359.8</ele>
        <time>2024-07-31T06:57:25Z</time>
      </trkpt>
      <trkpt lat="47.26318" lon="6.09791">
        <ele>359.8</ele>
        <time>2024-07-31T06:57:26Z</time>
      </trkpt>
      <trkpt lat="47.26318" lon="6.09794">
        <ele>360</ele>
        <time>2024-07-31T06:57:27Z</time>
      </trkpt>
      <trkpt lat="47.26319" lon="6.09797">
        <ele>360.4</ele>
        <time>2024-07-31T06:57:28Z</time>
      </trkpt>
      <trkpt lat="47.2632" lon="6.098">
        <ele>360.6</ele>
        <time>2024-07-31T06:57:29Z</time>
      </trkpt>
      <trkpt lat="47.26321" lon="6.09803">
        <ele>360.8</ele>
        <time>2024-07-31T06:57:30Z</time>
      </trkpt>
      <trkpt lat="47.26322" lon="6.09806">
        <ele>361</ele>
        <time>2024-07-31T06:57:31Z</time>
      </trkpt>
      <trkpt lat="47.26323" lon="6.09809">
        <ele>361.4</ele>
        <time>2024-07-31T06:57:32Z</time>
      </trkpt>
      <trkpt lat="47.26324" lon="6.09813">
        <ele>361.4</ele>
        <time>2024-07-31T06:57:33Z</time>
      </trkpt>
      <trkpt lat="47.26325" lon="6.09816">
        <ele>361.6</ele>
        <time>2024-07-31T06:57:34Z</time>
      </trkpt>
      <trkpt lat="47.26326" lon="6.0982">
        <ele>361.8</ele>
        <time>2024-07-31T06:57:35Z</time>
      </trkpt>
      <trkpt lat="47.26327" lon="6.09823">
        <ele>362</ele>
        <time>2024-07-31T06:57:36Z</time>
      </trkpt>
      <trkpt lat="47.26328" lon="6.09826">
        <ele>362.2</ele>
        <time>2024-07-31T06:57:37Z</time>
      </trkpt>
      <trkpt lat="47.26328" lon="6.09829">
        <ele>362.2</ele>
        <time>2024-07-31T06:57:38Z</time>
      </trkpt>
      <trkpt lat="47.26329" lon="6.09833">
        <ele>362.6</ele>
        <time>2024-07-31T06:57:39Z</time>
      </trkpt>
      <trkpt lat="47.26329" lon="6.09836">
        <ele>362.8</ele>
        <time>2024-07-31T06:57:40Z</time>
      </trkpt>
      <trkpt lat="47.2633" lon="6.09839">
        <ele>362.8</ele>
        <time>2024-07-31T06:57:41Z</time>
      </trkpt>
      <trkpt lat="47.2633" lon="6.09842">
        <ele>363</ele>
        <time>2024-07-31T06:57:42Z</time>
      </trkpt>
      <trkpt lat="47.26331" lon="6.09845">
        <ele>363.2</ele>
        <time>2024-07-31T06:57:43Z</time>
      </trkpt>
      <trkpt lat="47.26332" lon="6.09848">
        <ele>363.6</ele>
        <time>2024-07-31T06:57:44Z</time>
      </trkpt>
      <trkpt lat="47.26333" lon="6.09851">
        <ele>363.8</ele>
        <time>2024-07-31T06:57:45Z</time>
      </trkpt>
      <trkpt lat="47.26334" lon="6.09854">
        <ele>364</ele>
        <time>2024-07-31T06:57:46Z</time>
      </trkpt>
      <trkpt lat="47.26334" lon="6.09857">
        <ele>364</ele>
        <time>2024-07-31T06:57:47Z</time>
      </trkpt>
      <trkpt lat="47.26335" lon="6.0986">
        <ele>364.2</ele>
        <time>2024-07-31T06:57:48Z</time>
      </trkpt>
      <trkpt lat="47.26335" lon="6.09863">
        <ele>364.4</ele>
        <time>2024-07-31T06:57:49Z</time>
      </trkpt>
      <trkpt lat="47.26336" lon="6.09865">
        <ele>364.6</ele>
        <time>2024-07-31T06:57:50Z</time>
      </trkpt>
      <trkpt lat="47.26337" lon="6.09868">
        <ele>364.8</ele>
        <time>2024-07-31T06:57:51Z</time>
      </trkpt>
      <trkpt lat="47.26338" lon="6.09871">
        <ele>365</ele>
        <time>2024-07-31T06:57:52Z</time>
      </trkpt>
      <trkpt lat="47.26339" lon="6.09874">
        <ele>365</ele>
        <time>2024-07-31T06:57:53Z</time>
      </trkpt>
      <trkpt lat="47.26339" lon="6.09876">
        <ele>365.2</ele>
        <time>2024-07-31T06:57:54Z</time>
      </trkpt>
      <trkpt lat="47.2634" lon="6.09879">
        <ele>365.4</ele>
        <time>2024-07-31T06:57:55Z</time>
      </trkpt>
      <trkpt lat="47.26341" lon="6.09882">
        <ele>365.8</ele>
        <time>2024-07-31T06:57:56Z</time>
      </trkpt>
      <trkpt lat="47.26342" lon="6.09885">
        <ele>365.6</ele>
        <time>2024-07-31T06:57:57Z</time>
      </trkpt>
      <trkpt lat="47.26342" lon="6.09888">
        <ele>366</ele>
        <time>2024-07-31T06:57:58Z</time>
      </trkpt>
      <trkpt lat="47.26342" lon="6.09891">
        <ele>366.2</ele>
        <time>2024-07-31T06:57:59Z</time>
      </trkpt>
      <trkpt lat="47.26343" lon="6.09894">
        <ele>366.2</ele>
        <time>2024-07-31T06:58:00Z</time>
      </trkpt>
      <trkpt lat="47.26344" lon="6.09897">
        <ele>366.4</ele>
        <time>2024-07-31T06:58:01Z</time>
      </trkpt>
      <trkpt lat="47.26344" lon="6.099">
        <ele>366.6</ele>
        <time>2024-07-31T06:58:02Z</time>
      </trkpt>
      <trkpt lat="47.26345" lon="6.09903">
        <ele>366.8</ele>
        <time>2024-07-31T06:58:03Z</time>
      </trkpt>
      <trkpt lat="47.26346" lon="6.09906">
        <ele>367</ele>
        <time>2024-07-31T06:58:04Z</time>
      </trkpt>
      <trkpt lat="47.26346" lon="6.09909">
        <ele>367.4</ele>
        <time>2024-07-31T06:58:05Z</time>
      </trkpt>
      <trkpt lat="47.26346" lon="6.09911">
        <ele>367.2</ele>
        <time>2024-07-31T06:58:06Z</time>
      </trkpt>
      <trkpt lat="47.26347" lon="6.09914">
        <ele>367.4</ele>
        <time>2024-07-31T06:58:07Z</time>
      </trkpt>
      <trkpt lat="47.26347" lon="6.09918">
        <ele>367.8</ele>
        <time>2024-07-31T06:58:08Z</time>
      </trkpt>
      <trkpt lat="47.26348" lon="6.09921">
        <ele>368</ele>
        <time>2024-07-31T06:58:09Z</time>
      </trkpt>
      <trkpt lat="47.26349" lon="6.09924">
        <ele>368.2</ele>
        <time>2024-07-31T06:58:10Z</time>
      </trkpt>
      <trkpt lat="47.2635" lon="6.09928">
        <ele>368.4</ele>
        <time>2024-07-31T06:58:11Z</time>
      </trkpt>
      <trkpt lat="47.26351" lon="6.09931">
        <ele>368.4</ele>
        <time>2024-07-31T06:58:12Z</time>
      </trkpt>
      <trkpt lat="47.26352" lon="6.09935">
        <ele>368.6</ele>
        <time>2024-07-31T06:58:13Z</time>
      </trkpt>
      <trkpt lat="47.26353" lon="6.09938">
        <ele>368.8</ele>
        <time>2024-07-31T06:58:14Z</time>
      </trkpt>
      <trkpt lat="47.26354" lon="6.09941">
        <ele>369</ele>
        <time>2024-07-31T06:58:15Z</time>
      </trkpt>
      <trkpt lat="47.26355" lon="6.09944">
        <ele>369.2</ele>
        <time>2024-07-31T06:58:16Z</time>
      </trkpt>
      <trkpt lat="47.26356" lon="6.09947">
        <ele>369.4</ele>
        <time>2024-07-31T06:58:17Z</time>
      </trkpt>
      <trkpt lat="47.26357" lon="6.0995">
        <ele>369.6</ele>
        <time>2024-07-31T06:58:18Z</time>
      </trkpt>
      <trkpt lat="47.26358" lon="6.09953">
        <ele>369.8</ele>
        <time>2024-07-31T06:58:19Z</time>
      </trkpt>
      <trkpt lat="47.26359" lon="6.09956">
        <ele>369.8</ele>
        <time>2024-07-31T06:58:20Z</time>
      </trkpt>
      <trkpt lat="47.2636" lon="6.09959">
        <ele>370.2</ele>
        <time>2024-07-31T06:58:21Z</time>
      </trkpt>
      <trkpt lat="47.26361" lon="6.09961">
        <ele>370.2</ele>
        <time>2024-07-31T06:58:22Z</time>
      </trkpt>
      <trkpt lat="47.26362" lon="6.09965">
        <ele>370.4</ele>
        <time>2024-07-31T06:58:23Z</time>
      </trkpt>
      <trkpt lat="47.26364" lon="6.09968">
        <ele>370.6</ele>
        <time>2024-07-31T06:58:24Z</time>
      </trkpt>
      <trkpt lat="47.26365" lon="6.0997">
        <ele>370.6</ele>
        <time>2024-07-31T06:58:25Z</time>
      </trkpt>
      <trkpt lat="47.26366" lon="6.09973">
        <ele>370.8</ele>
        <time>2024-07-31T06:58:26Z</time>
      </trkpt>
      <trkpt lat="47.26367" lon="6.09975">
        <ele>371</ele>
        <time>2024-07-31T06:58:27Z</time>
      </trkpt>
      <trkpt lat="47.26368" lon="6.09979">
        <ele>371.2</ele>
        <time>2024-07-31T06:58:28Z</time>
      </trkpt>
      <trkpt lat="47.26368" lon="6.09982">
        <ele>371.4</ele>
        <time>2024-07-31T06:58:29Z</time>
      </trkpt>
      <trkpt lat="47.26369" lon="6.09985">
        <ele>371.4</ele>
        <time>2024-07-31T06:58:30Z</time>
      </trkpt>
      <trkpt lat="47.2637" lon="6.09988">
        <ele>371.6</ele>
        <time>2024-07-31T06:58:31Z</time>
      </trkpt>
      <trkpt lat="47.26371" lon="6.09991">
        <ele>371.8</ele>
        <time>2024-07-31T06:58:32Z</time>
      </trkpt>
      <trkpt lat="47.26372" lon="6.09993">
        <ele>372</ele>
        <time>2024-07-31T06:58:33Z</time>
      </trkpt>
      <trkpt lat="47.26373" lon="6.09995">
        <ele>372.2</ele>
        <time>2024-07-31T06:58:34Z</time>
      </trkpt>
      <trkpt lat="47.26374" lon="6.09998">
        <ele>372.4</ele>
        <time>2024-07-31T06:58:35Z</time>
      </trkpt>
      <trkpt lat="47.26376" lon="6.10001">
        <ele>372.6</ele>
        <time>2024-07-31T06:58:36Z</time>
      </trkpt>
      <trkpt lat="47.26376" lon="6.10003">
        <ele>372.8</ele>
        <time>2024-07-31T06:58:37Z</time>
      </trkpt>
      <trkpt lat="47.26377" lon="6.10006">
        <ele>373.2</ele>
        <time>2024-07-31T06:58:38Z</time>
      </trkpt>
      <trkpt lat="47.26378" lon="6.10009">
        <ele>373.4</ele>
        <time>2024-07-31T06:58:39Z</time>
      </trkpt>
      <trkpt lat="47.26379" lon="6.10012">
        <ele>373.4</ele>
        <time>2024-07-31T06:58:40Z</time>
      </trkpt>
      <trkpt lat="47.2638" lon="6.10016">
        <ele>373.8</ele>
        <time>2024-07-31T06:58:41Z</time>
      </trkpt>
      <trkpt lat="47.26381" lon="6.10019">
        <ele>374</ele>
        <time>2024-07-31T06:58:42Z</time>
      </trkpt>
      <trkpt lat="47.26382" lon="6.10022">
        <ele>374</ele>
        <time>2024-07-31T06:58:43Z</time>
      </trkpt>
      <trkpt lat="47.26383" lon="6.10025">
        <ele>374</ele>
        <time>2024-07-31T06:58:44Z</time>
      </trkpt>
      <trkpt lat="47.26384" lon="6.10027">
        <ele>374.2</ele>
        <time>2024-07-31T06:58:45Z</time>
      </trkpt>
      <trkpt lat="47.26385" lon="6.1003">
        <ele>374.6</ele>
        <time>2024-07-31T06:58:46Z</time>
      </trkpt>
      <trkpt lat="47.26386" lon="6.10033">
        <ele>374.8</ele>
        <time>2024-07-31T06:58:47Z</time>
      </trkpt>
      <trkpt lat="47.26387" lon="6.10036">
        <ele>374.8</ele>
        <time>2024-07-31T06:58:48Z</time>
      </trkpt>
      <trkpt lat="47.26387" lon="6.1004">
        <ele>375.2</ele>
        <time>2024-07-31T06:58:49Z</time>
      </trkpt>
      <trkpt lat="47.26388" lon="6.10043">
        <ele>375.2</ele>
        <time>2024-07-31T06:58:50Z</time>
      </trkpt>
      <trkpt lat="47.26389" lon="6.10047">
        <ele>375.4</ele>
        <time>2024-07-31T06:58:51Z</time>
      </trkpt>
      <trkpt lat="47.2639" lon="6.1005">
        <ele>375.6</ele>
        <time>2024-07-31T06:58:52Z</time>
      </trkpt>
      <trkpt lat="47.2639" lon="6.10053">
        <ele>375.8</ele>
        <time>2024-07-31T06:58:53Z</time>
      </trkpt>
      <trkpt lat="47.26391" lon="6.10056">
        <ele>376</ele>
        <time>2024-07-31T06:58:54Z</time>
      </trkpt>
      <trkpt lat="47.26392" lon="6.1006">
        <ele>376.2</ele>
        <time>2024-07-31T06:58:55Z</time>
      </trkpt>
      <trkpt lat="47.26393" lon="6.10063">
        <ele>376.4</ele>
        <time>2024-07-31T06:58:56Z</time>
      </trkpt>
      <trkpt lat="47.26393" lon="6.10066">
        <ele>376.6</ele>
        <time>2024-07-31T06:58:57Z</time>
      </trkpt>
      <trkpt lat="47.26395" lon="6.10068">
        <ele>376.6</ele>
        <time>2024-07-31T06:58:58Z</time>
      </trkpt>
      <trkpt lat="47.26396" lon="6.10071">
        <ele>376.8</ele>
        <time>2024-07-31T06:58:59Z</time>
      </trkpt>
      <trkpt lat="47.26397" lon="6.10074">
        <ele>377</ele>
        <time>2024-07-31T06:59:00Z</time>
      </trkpt>
      <trkpt lat="47.26397" lon="6.10077">
        <ele>377.4</ele>
        <time>2024-07-31T06:59:01Z</time>
      </trkpt>
      <trkpt lat="47.26398" lon="6.1008">
        <ele>377.4</ele>
        <time>2024-07-31T06:59:02Z</time>
      </trkpt>
      <trkpt lat="47.26399" lon="6.10083">
        <ele>377.6</ele>
        <time>2024-07-31T06:59:03Z</time>
      </trkpt>
      <trkpt lat="47.26399" lon="6.10087">
        <ele>378</ele>
        <time>2024-07-31T06:59:04Z</time>
      </trkpt>
      <trkpt lat="47.264" lon="6.1009">
        <ele>378.2</ele>
        <time>2024-07-31T06:59:05Z</time>
      </trkpt>
      <trkpt lat="47.26401" lon="6.10092">
        <ele>378.2</ele>
        <time>2024-07-31T06:59:06Z</time>
      </trkpt>
      <trkpt lat="47.26402" lon="6.10095">
        <ele>378.2</ele>
        <time>2024-07-31T06:59:07Z</time>
      </trkpt>
      <trkpt lat="47.26403" lon="6.10098">
        <ele>378.4</ele>
        <time>2024-07-31T06:59:08Z</time>
      </trkpt>
      <trkpt lat="47.26403" lon="6.10101">
        <ele>378.6</ele>
        <time>2024-07-31T06:59:09Z</time>
      </trkpt>
      <trkpt lat="47.26404" lon="6.10104">
        <ele>379</ele>
        <time>2024-07-31T06:59:10Z</time>
      </trkpt>
      <trkpt lat="47.26405" lon="6.10107">
        <ele>379</ele>
        <time>2024-07-31T06:59:11Z</time>
      </trkpt>
      <trkpt lat="47.26406" lon="6.10111">
        <ele>379.2</ele>
        <time>2024-07-31T06:59:12Z</time>
      </trkpt>
      <trkpt lat="47.26407" lon="6.10114">
        <ele>379.4</ele>
        <time>2024-07-31T06:59:13Z</time>
      </trkpt>
      <trkpt lat="47.26408" lon="6.10117">
        <ele>379.6</ele>
        <time>2024-07-31T06:59:14Z</time>
      </trkpt>
      <trkpt lat="47.26409" lon="6.10119">
        <ele>379.8</ele>
        <time>2024-07-31T06:59:15Z</time>
      </trkpt>
      <trkpt lat="47.26409" lon="6.10122">
        <ele>379.8</ele>
        <time>2024-07-31T06:59:16Z</time>
      </trkpt>
      <trkpt lat="47.2641" lon="6.10124">
        <ele>380</ele>
        <time>2024-07-31T06:59:17Z</time>
      </trkpt>
      <trkpt lat="47.26411" lon="6.10127">
        <ele>380.4</ele>
        <time>2024-07-31T06:59:18Z</time>
      </trkpt>
      <trkpt lat="47.26411" lon="6.1013">
        <ele>380.6</ele>
        <time>2024-07-31T06:59:19Z</time>
      </trkpt>
      <trkpt lat="47.26412" lon="6.10132">
        <ele>380.6</ele>
        <time>2024-07-31T06:59:20Z</time>
      </trkpt>
      <trkpt lat="47.26413" lon="6.10136">
        <ele>380.8</ele>
        <time>2024-07-31T06:59:21Z</time>
      </trkpt>
      <trkpt lat="47.26413" lon="6.1014">
        <ele>381</ele>
        <time>2024-07-31T06:59:22Z</time>
      </trkpt>
      <trkpt lat="47.26414" lon="6.10143">
        <ele>381.4</ele>
        <time>2024-07-31T06:59:23Z</time>
      </trkpt>
      <trkpt lat="47.26415" lon="6.10146">
        <ele>381.6</ele>
        <time>2024-07-31T06:59:24Z</time>
      </trkpt>
      <trkpt lat="47.26416" lon="6.10148">
        <ele>382</ele>
        <time>2024-07-31T06:59:25Z</time>
      </trkpt>
      <trkpt lat="47.26416" lon="6.10151">
        <ele>382.2</ele>
        <time>2024-07-31T06:59:26Z</time>
      </trkpt>
      <trkpt lat="47.26416" lon="6.10154">
        <ele>382.4</ele>
        <time>2024-07-31T06:59:27Z</time>
      </trkpt>
      <trkpt lat="47.26417" lon="6.10157">
        <ele>382.6</ele>
        <time>2024-07-31T06:59:28Z</time>
      </trkpt>
      <trkpt lat="47.26418" lon="6.1016">
        <ele>382.8</ele>
        <time>2024-07-31T06:59:29Z</time>
      </trkpt>
      <trkpt lat="47.26418" lon="6.10163">
        <ele>382.8</ele>
        <time>2024-07-31T06:59:30Z</time>
      </trkpt>
      <trkpt lat="47.26419" lon="6.10166">
        <ele>383</ele>
        <time>2024-07-31T06:59:31Z</time>
      </trkpt>
      <trkpt lat="47.2642" lon="6.1017">
        <ele>383.2</ele>
        <time>2024-07-31T06:59:32Z</time>
      </trkpt>
      <trkpt lat="47.2642" lon="6.10173">
        <ele>383.4</ele>
        <time>2024-07-31T06:59:33Z</time>
      </trkpt>
      <trkpt lat="47.2642" lon="6.10176">
        <ele>383.6</ele>
        <time>2024-07-31T06:59:34Z</time>
      </trkpt>
      <trkpt lat="47.26421" lon="6.10179">
        <ele>383.6</ele>
        <time>2024-07-31T06:59:35Z</time>
      </trkpt>
      <trkpt lat="47.26422" lon="6.10181">
        <ele>383.8</ele>
        <time>2024-07-31T06:59:36Z</time>
      </trkpt>
      <trkpt lat="47.26423" lon="6.10184">
        <ele>383.8</ele>
        <time>2024-07-31T06:59:37Z</time>
      </trkpt>
      <trkpt lat="47.26424" lon="6.10188">
        <ele>384</ele>
        <time>2024-07-31T06:59:38Z</time>
      </trkpt>
      <trkpt lat="47.26425" lon="6.10191">
        <ele>384.2</ele>
        <time>2024-07-31T06:59:39Z</time>
      </trkpt>
      <trkpt lat="47.26425" lon="6.10194">
        <ele>384.4</ele>
        <time>2024-07-31T06:59:40Z</time>
      </trkpt>
      <trkpt lat="47.26426" lon="6.10197">
        <ele>384.8</ele>
        <time>2024-07-31T06:59:41Z</time>
      </trkpt>
      <trkpt lat="47.26426" lon="6.102">
        <ele>385</ele>
        <time>2024-07-31T06:59:42Z</time>
      </trkpt>
      <trkpt lat="47.26428" lon="6.10203">
        <ele>385.2</ele>
        <time>2024-07-31T06:59:43Z</time>
      </trkpt>
      <trkpt lat="47.26429" lon="6.10206">
        <ele>385.4</ele>
        <time>2024-07-31T06:59:44Z</time>
      </trkpt>
      <trkpt lat="47.2643" lon="6.10209">
        <ele>385.6</ele>
        <time>2024-07-31T06:59:45Z</time>
      </trkpt>
      <trkpt lat="47.26431" lon="6.10212">
        <ele>385.8</ele>
        <time>2024-07-31T06:59:46Z</time>
      </trkpt>
      <trkpt lat="47.26431" lon="6.10215">
        <ele>386</ele>
        <time>2024-07-31T06:59:47Z</time>
      </trkpt>
      <trkpt lat="47.26432" lon="6.10218">
        <ele>386.4</ele>
        <time>2024-07-31T06:59:48Z</time>
      </trkpt>
      <trkpt lat="47.26433" lon="6.1022">
        <ele>386.4</ele>
        <time>2024-07-31T06:59:49Z</time>
      </trkpt>
      <trkpt lat="47.26433" lon="6.10222">
        <ele>386.6</ele>
        <time>2024-07-31T06:59:50Z</time>
      </trkpt>
      <trkpt lat="47.26434" lon="6.10225">
        <ele>386.8</ele>
        <time>2024-07-31T06:59:51Z</time>
      </trkpt>
      <trkpt lat="47.26435" lon="6.10228">
        <ele>386.8</ele>
        <time>2024-07-31T06:59:52Z</time>
      </trkpt>
      <trkpt lat="47.26435" lon="6.1023">
        <ele>386.8</ele>
        <time>2024-07-31T06:59:53Z</time>
      </trkpt>
      <trkpt lat="47.26435" lon="6.10233">
        <ele>387</ele>
        <time>2024-07-31T06:59:54Z</time>
      </trkpt>
      <trkpt lat="47.26435" lon="6.10236">
        <ele>387.2</ele>
        <time>2024-07-31T06:59:55Z</time>
      </trkpt>
      <trkpt lat="47.26435" lon="6.1024">
        <ele>387.6</ele>
        <time>2024-07-31T06:59:56Z</time>
      </trkpt>
      <trkpt lat="47.26435" lon="6.10242">
        <ele>387.8</ele>
        <time>2024-07-31T06:59:57Z</time>
      </trkpt>
      <trkpt lat="47.26434" lon="6.10245">
        <ele>387.8</ele>
        <time>2024-07-31T06:59:58Z</time>
      </trkpt>
      <trkpt lat="47.26434" lon="6.10248">
        <ele>388.2</ele>
        <time>2024-07-31T06:59:59Z</time>
      </trkpt>
      <trkpt lat="47.26433" lon="6.10251">
        <ele>388.4</ele>
        <time>2024-07-31T07:00:00Z</time>
      </trkpt>
      <trkpt lat="47.26433" lon="6.10254">
        <ele>388.6</ele>
        <time>2024-07-31T07:00:01Z</time>
      </trkpt>
      <trkpt lat="47.26432" lon="6.10257">
        <ele>388.8</ele>
        <time>2024-07-31T07:00:02Z</time>
      </trkpt>
      <trkpt lat="47.26431" lon="6.1026">
        <ele>389</ele>
        <time>2024-07-31T07:00:03Z</time>
      </trkpt>
      <trkpt lat="47.2643" lon="6.10263">
        <ele>389.2</ele>
        <time>2024-07-31T07:00:04Z</time>
      </trkpt>
      <trkpt lat="47.2643" lon="6.10265">
        <ele>389.4</ele>
        <time>2024-07-31T07:00:05Z</time>
      </trkpt>
      <trkpt lat="47.26429" lon="6.10269">
        <ele>389.6</ele>
        <time>2024-07-31T07:00:06Z</time>
      </trkpt>
      <trkpt lat="47.26428" lon="6.10272">
        <ele>389.8</ele>
        <time>2024-07-31T07:00:07Z</time>
      </trkpt>
      <trkpt lat="47.26427" lon="6.10275">
        <ele>389.8</ele>
        <time>2024-07-31T07:00:08Z</time>
      </trkpt>
      <trkpt lat="47.26426" lon="6.10278">
        <ele>390.2</ele>
        <time>2024-07-31T07:00:09Z</time>
      </trkpt>
      <trkpt lat="47.26425" lon="6.1028">
        <ele>390.2</ele>
        <time>2024-07-31T07:00:10Z</time>
      </trkpt>
      <trkpt lat="47.26424" lon="6.10283">
        <ele>390.4</ele>
        <time>2024-07-31T07:00:11Z</time>
      </trkpt>
      <trkpt lat="47.26423" lon="6.10285">
        <ele>390.6</ele>
        <time>2024-07-31T07:00:12Z</time>
      </trkpt>
      <trkpt lat="47.26421" lon="6.10288">
        <ele>390.6</ele>
        <time>2024-07-31T07:00:13Z</time>
      </trkpt>
      <trkpt lat="47.2642" lon="6.1029">
        <ele>390.6</ele>
        <time>2024-07-31T07:00:14Z</time>
      </trkpt>
      <trkpt lat="47.26418" lon="6.10292">
        <ele>391</ele>
        <time>2024-07-31T07:00:15Z</time>
      </trkpt>
      <trkpt lat="47.26416" lon="6.10295">
        <ele>391.2</ele>
        <time>2024-07-31T07:00:16Z</time>
      </trkpt>
      <trkpt lat="47.26414" lon="6.10298">
        <ele>391.4</ele>
        <time>2024-07-31T07:00:17Z</time>
      </trkpt>
      <trkpt lat="47.26413" lon="6.103">
        <ele>391.6</ele>
        <time>2024-07-31T07:00:18Z</time>
      </trkpt>
      <trkpt lat="47.26411" lon="6.10302">
        <ele>391.6</ele>
        <time>2024-07-31T07:00:19Z</time>
      </trkpt>
      <trkpt lat="47.26409" lon="6.10304">
        <ele>391.8</ele>
        <time>2024-07-31T07:00:20Z</time>
      </trkpt>
      <trkpt lat="47.26407" lon="6.10305">
        <ele>392</ele>
        <time>2024-07-31T07:00:21Z</time>
      </trkpt>
      <trkpt lat="47.26405" lon="6.10308">
        <ele>392.2</ele>
        <time>2024-07-31T07:00:22Z</time>
      </trkpt>
      <trkpt lat="47.26404" lon="6.1031">
        <ele>392.6</ele>
        <time>2024-07-31T07:00:23Z</time>
      </trkpt>
      <trkpt lat="47.26402" lon="6.10312">
        <ele>392.6</ele>
        <time>2024-07-31T07:00:24Z</time>
      </trkpt>
      <trkpt lat="47.264" lon="6.10313">
        <ele>392.8</ele>
        <time>2024-07-31T07:00:25Z</time>
      </trkpt>
      <trkpt lat="47.26398" lon="6.10314">
        <ele>393.2</ele>
        <time>2024-07-31T07:00:26Z</time>
      </trkpt>
      <trkpt lat="47.26396" lon="6.10315">
        <ele>393.4</ele>
        <time>2024-07-31T07:00:27Z</time>
      </trkpt>
      <trkpt lat="47.26394" lon="6.10316">
        <ele>393.6</ele>
        <time>2024-07-31T07:00:28Z</time>
      </trkpt>
      <trkpt lat="47.26392" lon="6.10317">
        <ele>394</ele>
        <time>2024-07-31T07:00:29Z</time>
      </trkpt>
      <trkpt lat="47.2639" lon="6.10318">
        <ele>394</ele>
        <time>2024-07-31T07:00:30Z</time>
      </trkpt>
      <trkpt lat="47.26387" lon="6.10319">
        <ele>394.4</ele>
        <time>2024-07-31T07:00:31Z</time>
      </trkpt>
      <trkpt lat="47.26385" lon="6.10319">
        <ele>394.4</ele>
        <time>2024-07-31T07:00:32Z</time>
      </trkpt>
      <trkpt lat="47.26382" lon="6.1032">
        <ele>394.6</ele>
        <time>2024-07-31T07:00:33Z</time>
      </trkpt>
      <trkpt lat="47.26381" lon="6.10321">
        <ele>394.6</ele>
        <time>2024-07-31T07:00:34Z</time>
      </trkpt>
      <trkpt lat="47.26379" lon="6.10321">
        <ele>394.6</ele>
        <time>2024-07-31T07:00:35Z</time>
      </trkpt>
      <trkpt lat="47.26376" lon="6.10321">
        <ele>395</ele>
        <time>2024-07-31T07:00:36Z</time>
      </trkpt>
      <trkpt lat="47.26374" lon="6.10321">
        <ele>395.2</ele>
        <time>2024-07-31T07:00:37Z</time>
      </trkpt>
      <trkpt lat="47.26371" lon="6.10321">
        <ele>395</ele>
        <time>2024-07-31T07:00:38Z</time>
      </trkpt>
      <trkpt lat="47.26369" lon="6.10321">
        <ele>395.6</ele>
        <time>2024-07-31T07:00:39Z</time>
      </trkpt>
      <trkpt lat="47.26367" lon="6.1032">
        <ele>395.8</ele>
        <time>2024-07-31T07:00:40Z</time>
      </trkpt>
      <trkpt lat="47.26364" lon="6.10319">
        <ele>395.8</ele>
        <time>2024-07-31T07:00:41Z</time>
      </trkpt>
      <trkpt lat="47.26362" lon="6.10318">
        <ele>396.2</ele>
        <time>2024-07-31T07:00:42Z</time>
      </trkpt>
      <trkpt lat="47.2636" lon="6.10317">
        <ele>396.4</ele>
        <time>2024-07-31T07:00:43Z</time>
      </trkpt>
      <trkpt lat="47.26357" lon="6.10317">
        <ele>396.4</ele>
        <time>2024-07-31T07:00:44Z</time>
      </trkpt>
      <trkpt lat="47.26355" lon="6.10316">
        <ele>396.6</ele>
        <time>2024-07-31T07:00:45Z</time>
      </trkpt>
      <trkpt lat="47.26353" lon="6.10315">
        <ele>397</ele>
        <time>2024-07-31T07:00:46Z</time>
      </trkpt>
      <trkpt lat="47.26351" lon="6.10314">
        <ele>397.2</ele>
        <time>2024-07-31T07:00:47Z</time>
      </trkpt>
      <trkpt lat="47.26348" lon="6.10314">
        <ele>397.4</ele>
        <time>2024-07-31T07:00:48Z</time>
      </trkpt>
      <trkpt lat="47.26346" lon="6.10313">
        <ele>397.8</ele>
        <time>2024-07-31T07:00:49Z</time>
      </trkpt>
      <trkpt lat="47.26344" lon="6.10312">
        <ele>397.8</ele>
        <time>2024-07-31T07:00:50Z</time>
      </trkpt>
      <trkpt lat="47.26342" lon="6.10311">
        <ele>398</ele>
        <time>2024-07-31T07:00:51Z</time>
      </trkpt>
      <trkpt lat="47.26341" lon="6.1031">
        <ele>398.4</ele>
        <time>2024-07-31T07:00:52Z</time>
      </trkpt>
      <trkpt lat="47.26339" lon="6.10308">
        <ele>398.6</ele>
        <time>2024-07-31T07:00:53Z</time>
      </trkpt>
      <trkpt lat="47.26337" lon="6.10306">
        <ele>398.8</ele>
        <time>2024-07-31T07:00:54Z</time>
      </trkpt>
      <trkpt lat="47.26336" lon="6.10304">
        <ele>399</ele>
        <time>2024-07-31T07:00:55Z</time>
      </trkpt>
      <trkpt lat="47.26334" lon="6.10303">
        <ele>399</ele>
        <time>2024-07-31T07:00:56Z</time>
      </trkpt>
      <trkpt lat="47.26333" lon="6.10301">
        <ele>399</ele>
        <time>2024-07-31T07:00:57Z</time>
      </trkpt>
      <trkpt lat="47.26332" lon="6.10298">
        <ele>399.2</ele>
        <time>2024-07-31T07:00:58Z</time>
      </trkpt>
      <trkpt lat="47.26331" lon="6.10296">
        <ele>399.4</ele>
        <time>2024-07-31T07:00:59Z</time>
      </trkpt>
      <trkpt lat="47.2633" lon="6.10294">
        <ele>399.6</ele>
        <time>2024-07-31T07:01:00Z</time>
      </trkpt>
      <trkpt lat="47.26329" lon="6.10292">
        <ele>399.8</ele>
        <time>2024-07-31T07:01:01Z</time>
      </trkpt>
      <trkpt lat="47.26328" lon="6.10289">
        <ele>400</ele>
        <time>2024-07-31T07:01:02Z</time>
      </trkpt>
      <trkpt lat="47.26327" lon="6.10286">
        <ele>400.2</ele>
        <time>2024-07-31T07:01:03Z</time>
      </trkpt>
      <trkpt lat="47.26327" lon="6.10284">
        <ele>400.6</ele>
        <time>2024-07-31T07:01:04Z</time>
      </trkpt>
      <trkpt lat="47.26326" lon="6.10281">
        <ele>400.8</ele>
        <time>2024-07-31T07:01:05Z</time>
      </trkpt>
      <trkpt lat="47.26326" lon="6.10279">
        <ele>400.8</ele>
        <time>2024-07-31T07:01:06Z</time>
      </trkpt>
      <trkpt lat="47.26325" lon="6.10276">
        <ele>401</ele>
        <time>2024-07-31T07:01:07Z</time>
      </trkpt>
      <trkpt lat="47.26325" lon="6.10273">
        <ele>401.4</ele>
        <time>2024-07-31T07:01:08Z</time>
      </trkpt>
      <trkpt lat="47.26324" lon="6.1027">
        <ele>401.4</ele>
        <time>2024-07-31T07:01:09Z</time>
      </trkpt>
      <trkpt lat="47.26324" lon="6.10267">
        <ele>401.6</ele>
        <time>2024-07-31T07:01:10Z</time>
      </trkpt>
      <trkpt lat="47.26323" lon="6.10264">
        <ele>401.8</ele>
        <time>2024-07-31T07:01:11Z</time>
      </trkpt>
      <trkpt lat="47.26323" lon="6.10261">
        <ele>402</ele>
        <time>2024-07-31T07:01:12Z</time>
      </trkpt>
      <trkpt lat="47.26322" lon="6.10258">
        <ele>402.2</ele>
        <time>2024-07-31T07:01:13Z</time>
      </trkpt>
      <trkpt lat="47.26321" lon="6.10255">
        <ele>402.4</ele>
        <time>2024-07-31T07:01:14Z</time>
      </trkpt>
      <trkpt lat="47.26321" lon="6.10251">
        <ele>402.4</ele>
        <time>2024-07-31T07:01:15Z</time>
      </trkpt>
      <trkpt lat="47.2632" lon="6.10248">
        <ele>402.6</ele>
        <time>2024-07-31T07:01:16Z</time>
      </trkpt>
      <trkpt lat="47.26319" lon="6.10245">
        <ele>402.8</ele>
        <time>2024-07-31T07:01:17Z</time>
      </trkpt>
      <trkpt lat="47.26319" lon="6.10242">
        <ele>403</ele>
        <time>2024-07-31T07:01:18Z</time>
      </trkpt>
      <trkpt lat="47.26319" lon="6.10239">
        <ele>403</ele>
        <time>2024-07-31T07:01:19Z</time>
      </trkpt>
      <trkpt lat="47.26318" lon="6.10236">
        <ele>403.2</ele>
        <time>2024-07-31T07:01:20Z</time>
      </trkpt>
      <trkpt lat="47.26318" lon="6.10234">
        <ele>403.4</ele>
        <time>2024-07-31T07:01:21Z</time>
      </trkpt>
      <trkpt lat="47.26317" lon="6.10231">
        <ele>403.6</ele>
        <time>2024-07-31T07:01:22Z</time>
      </trkpt>
      <trkpt lat="47.26317" lon="6.10228">
        <ele>403.8</ele>
        <time>2024-07-31T07:01:23Z</time>
      </trkpt>
      <trkpt lat="47.26316" lon="6.10225">
        <ele>404</ele>
        <time>2024-07-31T07:01:24Z</time>
      </trkpt>
      <trkpt lat="47.26314" lon="6.10222">
        <ele>404.2</ele>
        <time>2024-07-31T07:01:25Z</time>
      </trkpt>
      <trkpt lat="47.26314" lon="6.10219">
        <ele>404.4</ele>
        <time>2024-07-31T07:01:26Z</time>
      </trkpt>
      <trkpt lat="47.26313" lon="6.10216">
        <ele>404.4</ele>
        <time>2024-07-31T07:01:27Z</time>
      </trkpt>
      <trkpt lat="47.26312" lon="6.10213">
        <ele>404.8</ele>
        <time>2024-07-31T07:01:28Z</time>
      </trkpt>
      <trkpt lat="47.26312" lon="6.10209">
        <ele>404.8</ele>
        <time>2024-07-31T07:01:29Z</time>
      </trkpt>
      <trkpt lat="47.26311" lon="6.10206">
        <ele>404.8</ele>
        <time>2024-07-31T07:01:30Z</time>
      </trkpt>
      <trkpt lat="47.2631" lon="6.10203">
        <ele>405</ele>
        <time>2024-07-31T07:01:31Z</time>
      </trkpt>
      <trkpt lat="47.2631" lon="6.102">
        <ele>405.2</ele>
        <time>2024-07-31T07:01:32Z</time>
      </trkpt>
      <trkpt lat="47.26309" lon="6.10197">
        <ele>405.4</ele>
        <time>2024-07-31T07:01:33Z</time>
      </trkpt>
      <trkpt lat="47.26308" lon="6.10194">
        <ele>405.6</ele>
        <time>2024-07-31T07:01:34Z</time>
      </trkpt>
      <trkpt lat="47.26307" lon="6.10191">
        <ele>405.6</ele>
        <time>2024-07-31T07:01:35Z</time>
      </trkpt>
      <trkpt lat="47.26306" lon="6.10188">
        <ele>406</ele>
        <time>2024-07-31T07:01:36Z</time>
      </trkpt>
      <trkpt lat="47.26304" lon="6.10184">
        <ele>406.2</ele>
        <time>2024-07-31T07:01:37Z</time>
      </trkpt>
      <trkpt lat="47.26303" lon="6.10181">
        <ele>406.2</ele>
        <time>2024-07-31T07:01:38Z</time>
      </trkpt>
      <trkpt lat="47.26302" lon="6.10178">
        <ele>406.2</ele>
        <time>2024-07-31T07:01:39Z</time>
      </trkpt>
      <trkpt lat="47.26302" lon="6.10174">
        <ele>406.6</ele>
        <time>2024-07-31T07:01:40Z</time>
      </trkpt>
      <trkpt lat="47.26301" lon="6.10171">
        <ele>406.6</ele>
        <time>2024-07-31T07:01:41Z</time>
      </trkpt>
      <trkpt lat="47.263" lon="6.10168">
        <ele>406.8</ele>
        <time>2024-07-31T07:01:42Z</time>
      </trkpt>
      <trkpt lat="47.26299" lon="6.10164">
        <ele>407</ele>
        <time>2024-07-31T07:01:43Z</time>
      </trkpt>
      <trkpt lat="47.26297" lon="6.10161">
        <ele>407</ele>
        <time>2024-07-31T07:01:44Z</time>
      </trkpt>
      <trkpt lat="47.26296" lon="6.10158">
        <ele>407.4</ele>
        <time>2024-07-31T07:01:45Z</time>
      </trkpt>
      <trkpt lat="47.26296" lon="6.10155">
        <ele>407.8</ele>
        <time>2024-07-31T07:01:46Z</time>
      </trkpt>
      <trkpt lat="47.26295" lon="6.10151">
        <ele>408</ele>
        <time>2024-07-31T07:01:47Z</time>
      </trkpt>
      <trkpt lat="47.26294" lon="6.10148">
        <ele>408</ele>
        <time>2024-07-31T07:01:48Z</time>
      </trkpt>
      <trkpt lat="47.26293" lon="6.10145">
        <ele>408.4</ele>
        <time>2024-07-31T07:01:49Z</time>
      </trkpt>
      <trkpt lat="47.26292" lon="6.10141">
        <ele>408.4</ele>
        <time>2024-07-31T07:01:50Z</time>
      </trkpt>
      <trkpt lat="47.2629" lon="6.10138">
        <ele>408.4</ele>
        <time>2024-07-31T07:01:51Z</time>
      </trkpt>
      <trkpt lat="47.26289" lon="6.10135">
        <ele>408.6</ele>
        <time>2024-07-31T07:01:52Z</time>
      </trkpt>
      <trkpt lat="47.26288" lon="6.10132">
        <ele>408.6</ele>
        <time>2024-07-31T07:01:53Z</time>
      </trkpt>
      <trkpt lat="47.26286" lon="6.10129">
        <ele>409</ele>
        <time>2024-07-31T07:01:54Z</time>
      </trkpt>
      <trkpt lat="47.26285" lon="6.10126">
        <ele>409.2</ele>
        <time>2024-07-31T07:01:55Z</time>
      </trkpt>
      <trkpt lat="47.26283" lon="6.10123">
        <ele>409</ele>
        <time>2024-07-31T07:01:56Z</time>
      </trkpt>
      <trkpt lat="47.26281" lon="6.10121">
        <ele>409</ele>
        <time>2024-07-31T07:01:57Z</time>
      </trkpt>
      <trkpt lat="47.26279" lon="6.10119">
        <ele>409</ele>
        <time>2024-07-31T07:01:58Z</time>
      </trkpt>
      <trkpt lat="47.26277" lon="6.10116">
        <ele>409</ele>
        <time>2024-07-31T07:01:59Z</time>
      </trkpt>
      <trkpt lat="47.26274" lon="6.10113">
        <ele>409</ele>
        <time>2024-07-31T07:02:00Z</time>
      </trkpt>
      <trkpt lat="47.26272" lon="6.10111">
        <ele>409.2</ele>
        <time>2024-07-31T07:02:01Z</time>
      </trkpt>
      <trkpt lat="47.2627" lon="6.10109">
        <ele>409.2</ele>
        <time>2024-07-31T07:02:02Z</time>
      </trkpt>
      <trkpt lat="47.26267" lon="6.10106">
        <ele>409.2</ele>
        <time>2024-07-31T07:02:03Z</time>
      </trkpt>
      <trkpt lat="47.26264" lon="6.10104">
        <ele>409.4</ele>
        <time>2024-07-31T07:02:04Z</time>
      </trkpt>
      <trkpt lat="47.26262" lon="6.10101">
        <ele>409.2</ele>
        <time>2024-07-31T07:02:05Z</time>
      </trkpt>
      <trkpt lat="47.2626" lon="6.10098">
        <ele>409.4</ele>
        <time>2024-07-31T07:02:06Z</time>
      </trkpt>
      <trkpt lat="47.26257" lon="6.10096">
        <ele>409.4</ele>
        <time>2024-07-31T07:02:07Z</time>
      </trkpt>
      <trkpt lat="47.26256" lon="6.10094">
        <ele>409.4</ele>
        <time>2024-07-31T07:02:08Z</time>
      </trkpt>
      <trkpt lat="47.26254" lon="6.10092">
        <ele>409.4</ele>
        <time>2024-07-31T07:02:09Z</time>
      </trkpt>
      <trkpt lat="47.26252" lon="6.1009">
        <ele>409.4</ele>
        <time>2024-07-31T07:02:10Z</time>
      </trkpt>
      <trkpt lat="47.26249" lon="6.10088">
        <ele>409.6</ele>
        <time>2024-07-31T07:02:11Z</time>
      </trkpt>
      <trkpt lat="47.26246" lon="6.10085">
        <ele>409.8</ele>
        <time>2024-07-31T07:02:12Z</time>
      </trkpt>
      <trkpt lat="47.26243" lon="6.10082">
        <ele>409.8</ele>
        <time>2024-07-31T07:02:13Z</time>
      </trkpt>
      <trkpt lat="47.2624" lon="6.10079">
        <ele>409.8</ele>
        <time>2024-07-31T07:02:14Z</time>
      </trkpt>
      <trkpt lat="47.26237" lon="6.10077">
        <ele>409.8</ele>
        <time>2024-07-31T07:02:15Z</time>
      </trkpt>
      <trkpt lat="47.26234" lon="6.10074">
        <ele>409.8</ele>
        <time>2024-07-31T07:02:16Z</time>
      </trkpt>
      <trkpt lat="47.26231" lon="6.10071">
        <ele>410</ele>
        <time>2024-07-31T07:02:17Z</time>
      </trkpt>
      <trkpt lat="47.26228" lon="6.10069">
        <ele>410.2</ele>
        <time>2024-07-31T07:02:18Z</time>
      </trkpt>
      <trkpt lat="47.26225" lon="6.10067">
        <ele>410.2</ele>
        <time>2024-07-31T07:02:19Z</time>
      </trkpt>
      <trkpt lat="47.26222" lon="6.10065">
        <ele>410</ele>
        <time>2024-07-31T07:02:20Z</time>
      </trkpt>
      <trkpt lat="47.2622" lon="6.10063">
        <ele>410.2</ele>
        <time>2024-07-31T07:02:21Z</time>
      </trkpt>
      <trkpt lat="47.26218" lon="6.10061">
        <ele>410.2</ele>
        <time>2024-07-31T07:02:22Z</time>
      </trkpt>
      <trkpt lat="47.26215" lon="6.10058">
        <ele>410.4</ele>
        <time>2024-07-31T07:02:23Z</time>
      </trkpt>
      <trkpt lat="47.26212" lon="6.10056">
        <ele>410.4</ele>
        <time>2024-07-31T07:02:24Z</time>
      </trkpt>
      <trkpt lat="47.26209" lon="6.10055">
        <ele>410.4</ele>
        <time>2024-07-31T07:02:25Z</time>
      </trkpt>
      <trkpt lat="47.26206" lon="6.10053">
        <ele>410.6</ele>
        <time>2024-07-31T07:02:26Z</time>
      </trkpt>
      <trkpt lat="47.26204" lon="6.10051">
        <ele>410.4</ele>
        <time>2024-07-31T07:02:27Z</time>
      </trkpt>
      <trkpt lat="47.262" lon="6.10049">
        <ele>410.4</ele>
        <time>2024-07-31T07:02:28Z</time>
      </trkpt>
      <trkpt lat="47.26198" lon="6.10048">
        <ele>410.2</ele>
        <time>2024-07-31T07:02:29Z</time>
      </trkpt>
      <trkpt lat="47.26195" lon="6.10046">
        <ele>410.2</ele>
        <time>2024-07-31T07:02:30Z</time>
      </trkpt>
      <trkpt lat="47.26192" lon="6.10044">
        <ele>410.2</ele>
        <time>2024-07-31T07:02:31Z</time>
      </trkpt>
      <trkpt lat="47.26189" lon="6.10043">
        <ele>410.2</ele>
        <time>2024-07-31T07:02:32Z</time>
      </trkpt>
      <trkpt lat="47.26186" lon="6.10042">
        <ele>410</ele>
        <time>2024-07-31T07:02:33Z</time>
      </trkpt>
      <trkpt lat="47.26182" lon="6.10041">
        <ele>410.2</ele>
        <time>2024-07-31T07:02:34Z</time>
      </trkpt>
      <trkpt lat="47.2618" lon="6.10041">
        <ele>410</ele>
        <time>2024-07-31T07:02:35Z</time>
      </trkpt>
      <trkpt lat="47.26177" lon="6.10042">
        <ele>410.2</ele>
        <time>2024-07-31T07:02:36Z</time>
      </trkpt>
      <trkpt lat="47.26174" lon="6.10045">
        <ele>410.4</ele>
        <time>2024-07-31T07:02:37Z</time>
      </trkpt>
      <trkpt lat="47.26171" lon="6.10047">
        <ele>410.6</ele>
        <time>2024-07-31T07:02:38Z</time>
      </trkpt>
      <trkpt lat="47.26169" lon="6.1005">
        <ele>410.6</ele>
        <time>2024-07-31T07:02:39Z</time>
      </trkpt>
      <trkpt lat="47.26167" lon="6.10053">
        <ele>410.8</ele>
        <time>2024-07-31T07:02:40Z</time>
      </trkpt>
      <trkpt lat="47.26165" lon="6.10055">
        <ele>411</ele>
        <time>2024-07-31T07:02:41Z</time>
      </trkpt>
      <trkpt lat="47.26163" lon="6.10057">
        <ele>411.2</ele>
        <time>2024-07-31T07:02:42Z</time>
      </trkpt>
      <trkpt lat="47.26161" lon="6.10059">
        <ele>411.8</ele>
        <time>2024-07-31T07:02:43Z</time>
      </trkpt>
      <trkpt lat="47.26159" lon="6.1006">
        <ele>412</ele>
        <time>2024-07-31T07:02:44Z</time>
      </trkpt>
      <trkpt lat="47.26157" lon="6.10062">
        <ele>412</ele>
        <time>2024-07-31T07:02:45Z</time>
      </trkpt>
      <trkpt lat="47.26154" lon="6.10064">
        <ele>412.4</ele>
        <time>2024-07-31T07:02:46Z</time>
      </trkpt>
      <trkpt lat="47.26152" lon="6.10066">
        <ele>412.4</ele>
        <time>2024-07-31T07:02:47Z</time>
      </trkpt>
      <trkpt lat="47.2615" lon="6.10069">
        <ele>412.8</ele>
        <time>2024-07-31T07:02:48Z</time>
      </trkpt>
      <trkpt lat="47.26149" lon="6.10071">
        <ele>413</ele>
        <time>2024-07-31T07:02:49Z</time>
      </trkpt>
      <trkpt lat="47.26148" lon="6.10074">
        <ele>413.4</ele>
        <time>2024-07-31T07:02:50Z</time>
      </trkpt>
      <trkpt lat="47.26146" lon="6.10076">
        <ele>413.4</ele>
        <time>2024-07-31T07:02:51Z</time>
      </trkpt>
      <trkpt lat="47.26145" lon="6.10078">
        <ele>413.8</ele>
        <time>2024-07-31T07:02:52Z</time>
      </trkpt>
      <trkpt lat="47.26143" lon="6.1008">
        <ele>413.8</ele>
        <time>2024-07-31T07:02:53Z</time>
      </trkpt>
      <trkpt lat="47.26141" lon="6.10082">
        <ele>414</ele>
        <time>2024-07-31T07:02:54Z</time>
      </trkpt>
      <trkpt lat="47.26139" lon="6.10085">
        <ele>414.4</ele>
        <time>2024-07-31T07:02:55Z</time>
      </trkpt>
      <trkpt lat="47.26137" lon="6.10087">
        <ele>414.4</ele>
        <time>2024-07-31T07:02:56Z</time>
      </trkpt>
      <trkpt lat="47.26135" lon="6.10088">
        <ele>414.6</ele>
        <time>2024-07-31T07:02:57Z</time>
      </trkpt>
      <trkpt lat="47.26132" lon="6.1009">
        <ele>415</ele>
        <time>2024-07-31T07:02:58Z</time>
      </trkpt>
      <trkpt lat="47.2613" lon="6.10093">
        <ele>415</ele>
        <time>2024-07-31T07:02:59Z</time>
      </trkpt>
      <trkpt lat="47.26128" lon="6.10095">
        <ele>415.4</ele>
        <time>2024-07-31T07:03:00Z</time>
      </trkpt>
      <trkpt lat="47.26126" lon="6.10098">
        <ele>415.6</ele>
        <time>2024-07-31T07:03:01Z</time>
      </trkpt>
      <trkpt lat="47.26125" lon="6.101">
        <ele>415.6</ele>
        <time>2024-07-31T07:03:02Z</time>
      </trkpt>
      <trkpt lat="47.26123" lon="6.10103">
        <ele>415.8</ele>
        <time>2024-07-31T07:03:03Z</time>
      </trkpt>
      <trkpt lat="47.26122" lon="6.10105">
        <ele>416</ele>
        <time>2024-07-31T07:03:04Z</time>
      </trkpt>
      <trkpt lat="47.2612" lon="6.10107">
        <ele>416.4</ele>
        <time>2024-07-31T07:03:05Z</time>
      </trkpt>
      <trkpt lat="47.2612" lon="6.10109">
        <ele>416.6</ele>
        <time>2024-07-31T07:03:06Z</time>
      </trkpt>
      <trkpt lat="47.26119" lon="6.10112">
        <ele>416.6</ele>
        <time>2024-07-31T07:03:07Z</time>
      </trkpt>
      <trkpt lat="47.26118" lon="6.10115">
        <ele>417</ele>
        <time>2024-07-31T07:03:08Z</time>
      </trkpt>
      <trkpt lat="47.26117" lon="6.10118">
        <ele>417</ele>
        <time>2024-07-31T07:03:09Z</time>
      </trkpt>
      <trkpt lat="47.26116" lon="6.10121">
        <ele>417.2</ele>
        <time>2024-07-31T07:03:10Z</time>
      </trkpt>
      <trkpt lat="47.26115" lon="6.10124">
        <ele>417.4</ele>
        <time>2024-07-31T07:03:11Z</time>
      </trkpt>
      <trkpt lat="47.26114" lon="6.10127">
        <ele>417.6</ele>
        <time>2024-07-31T07:03:12Z</time>
      </trkpt>
      <trkpt lat="47.26114" lon="6.1013">
        <ele>417.6</ele>
        <time>2024-07-31T07:03:13Z</time>
      </trkpt>
      <trkpt lat="47.26113" lon="6.10133">
        <ele>417.8</ele>
        <time>2024-07-31T07:03:14Z</time>
      </trkpt>
      <trkpt lat="47.26113" lon="6.10136">
        <ele>417.8</ele>
        <time>2024-07-31T07:03:15Z</time>
      </trkpt>
      <trkpt lat="47.26112" lon="6.10139">
        <ele>418</ele>
        <time>2024-07-31T07:03:16Z</time>
      </trkpt>
      <trkpt lat="47.26112" lon="6.10143">
        <ele>418.2</ele>
        <time>2024-07-31T07:03:17Z</time>
      </trkpt>
      <trkpt lat="47.26111" lon="6.10147">
        <ele>418.2</ele>
        <time>2024-07-31T07:03:18Z</time>
      </trkpt>
      <trkpt lat="47.2611" lon="6.1015">
        <ele>418.4</ele>
        <time>2024-07-31T07:03:19Z</time>
      </trkpt>
      <trkpt lat="47.2611" lon="6.10153">
        <ele>418.4</ele>
        <time>2024-07-31T07:03:20Z</time>
      </trkpt>
      <trkpt lat="47.26109" lon="6.10157">
        <ele>418.2</ele>
        <time>2024-07-31T07:03:21Z</time>
      </trkpt>
      <trkpt lat="47.26109" lon="6.10161">
        <ele>418.2</ele>
        <time>2024-07-31T07:03:22Z</time>
      </trkpt>
      <trkpt lat="47.26108" lon="6.10165">
        <ele>418.6</ele>
        <time>2024-07-31T07:03:23Z</time>
      </trkpt>
      <trkpt lat="47.26108" lon="6.10169">
        <ele>418.4</ele>
        <time>2024-07-31T07:03:24Z</time>
      </trkpt>
      <trkpt lat="47.26107" lon="6.10173">
        <ele>418.6</ele>
        <time>2024-07-31T07:03:25Z</time>
      </trkpt>
      <trkpt lat="47.26107" lon="6.10179">
        <ele>418.4</ele>
        <time>2024-07-31T07:03:26Z</time>
      </trkpt>
      <trkpt lat="47.26106" lon="6.10184">
        <ele>418.4</ele>
        <time>2024-07-31T07:03:27Z</time>
      </trkpt>
      <trkpt lat="47.26106" lon="6.10188">
        <ele>418.4</ele>
        <time>2024-07-31T07:03:28Z</time>
      </trkpt>
      <trkpt lat="47.26105" lon="6.10192">
        <ele>418.4</ele>
        <time>2024-07-31T07:03:29Z</time>
      </trkpt>
      <trkpt lat="47.26105" lon="6.10196">
        <ele>418.2</ele>
        <time>2024-07-31T07:03:30Z</time>
      </trkpt>
      <trkpt lat="47.26104" lon="6.102">
        <ele>418.2</ele>
        <time>2024-07-31T07:03:31Z</time>
      </trkpt>
      <trkpt lat="47.26103" lon="6.10204">
        <ele>418.4</ele>
        <time>2024-07-31T07:03:32Z</time>
      </trkpt>
      <trkpt lat="47.26102" lon="6.10208">
        <ele>418.6</ele>
        <time>2024-07-31T07:03:33Z</time>
      </trkpt>
      <trkpt lat="47.26102" lon="6.10213">
        <ele>418.6</ele>
        <time>2024-07-31T07:03:34Z</time>
      </trkpt>
      <trkpt lat="47.26101" lon="6.10217">
        <ele>418.6</ele>
        <time>2024-07-31T07:03:35Z</time>
      </trkpt>
      <trkpt lat="47.26099" lon="6.10221">
        <ele>418.8</ele>
        <time>2024-07-31T07:03:36Z</time>
      </trkpt>
      <trkpt lat="47.26098" lon="6.10225">
        <ele>419</ele>
        <time>2024-07-31T07:03:37Z</time>
      </trkpt>
      <trkpt lat="47.26097" lon="6.10229">
        <ele>419</ele>
        <time>2024-07-31T07:03:38Z</time>
      </trkpt>
      <trkpt lat="47.26095" lon="6.10233">
        <ele>419.2</ele>
        <time>2024-07-31T07:03:39Z</time>
      </trkpt>
      <trkpt lat="47.26094" lon="6.10237">
        <ele>419.6</ele>
        <time>2024-07-31T07:03:40Z</time>
      </trkpt>
      <trkpt lat="47.26092" lon="6.10241">
        <ele>419.8</ele>
        <time>2024-07-31T07:03:41Z</time>
      </trkpt>
      <trkpt lat="47.26091" lon="6.10244">
        <ele>420</ele>
        <time>2024-07-31T07:03:42Z</time>
      </trkpt>
      <trkpt lat="47.26089" lon="6.10248">
        <ele>420.2</ele>
        <time>2024-07-31T07:03:43Z</time>
      </trkpt>
      <trkpt lat="47.26088" lon="6.10253">
        <ele>420.4</ele>
        <time>2024-07-31T07:03:44Z</time>
      </trkpt>
      <trkpt lat="47.26087" lon="6.10257">
        <ele>420.8</ele>
        <time>2024-07-31T07:03:45Z</time>
      </trkpt>
      <trkpt lat="47.26086" lon="6.10262">
        <ele>420.8</ele>
        <time>2024-07-31T07:03:46Z</time>
      </trkpt>
      <trkpt lat="47.26085" lon="6.10267">
        <ele>421.2</ele>
        <time>2024-07-31T07:03:47Z</time>
      </trkpt>
      <trkpt lat="47.26084" lon="6.10271">
        <ele>421.2</ele>
        <time>2024-07-31T07:03:48Z</time>
      </trkpt>
      <trkpt lat="47.26083" lon="6.10275">
        <ele>421.6</ele>
        <time>2024-07-31T07:03:49Z</time>
      </trkpt>
      <trkpt lat="47.26081" lon="6.10279">
        <ele>421.6</ele>
        <time>2024-07-31T07:03:50Z</time>
      </trkpt>
      <trkpt lat="47.2608" lon="6.10283">
        <ele>421.8</ele>
        <time>2024-07-31T07:03:51Z</time>
      </trkpt>
      <trkpt lat="47.26079" lon="6.10286">
        <ele>422</ele>
        <time>2024-07-31T07:03:52Z</time>
      </trkpt>
      <trkpt lat="47.26077" lon="6.1029">
        <ele>422</ele>
        <time>2024-07-31T07:03:53Z</time>
      </trkpt>
      <trkpt lat="47.26076" lon="6.10293">
        <ele>422.2</ele>
        <time>2024-07-31T07:03:54Z</time>
      </trkpt>
      <trkpt lat="47.26074" lon="6.10297">
        <ele>422.2</ele>
        <time>2024-07-31T07:03:55Z</time>
      </trkpt>
      <trkpt lat="47.26073" lon="6.10301">
        <ele>422.4</ele>
        <time>2024-07-31T07:03:56Z</time>
      </trkpt>
      <trkpt lat="47.26071" lon="6.10305">
        <ele>422.6</ele>
        <time>2024-07-31T07:03:57Z</time>
      </trkpt>
      <trkpt lat="47.26069" lon="6.10308">
        <ele>423</ele>
        <time>2024-07-31T07:03:58Z</time>
      </trkpt>
      <trkpt lat="47.26068" lon="6.10311">
        <ele>423</ele>
        <time>2024-07-31T07:03:59Z</time>
      </trkpt>
      <trkpt lat="47.26066" lon="6.10315">
        <ele>423.2</ele>
        <time>2024-07-31T07:04:00Z</time>
      </trkpt>
      <trkpt lat="47.26065" lon="6.10318">
        <ele>423.4</ele>
        <time>2024-07-31T07:04:01Z</time>
      </trkpt>
      <trkpt lat="47.26063" lon="6.10322">
        <ele>423.6</ele>
        <time>2024-07-31T07:04:02Z</time>
      </trkpt>
      <trkpt lat="47.26062" lon="6.10325">
        <ele>423.8</ele>
        <time>2024-07-31T07:04:03Z</time>
      </trkpt>
      <trkpt lat="47.2606" lon="6.10327">
        <ele>423.8</ele>
        <time>2024-07-31T07:04:04Z</time>
      </trkpt>
      <trkpt lat="47.26058" lon="6.1033">
        <ele>423.8</ele>
        <time>2024-07-31T07:04:05Z</time>
      </trkpt>
      <trkpt lat="47.26056" lon="6.10333">
        <ele>424.2</ele>
        <time>2024-07-31T07:04:06Z</time>
      </trkpt>
      <trkpt lat="47.26054" lon="6.10335">
        <ele>424.4</ele>
        <time>2024-07-31T07:04:07Z</time>
      </trkpt>
      <trkpt lat="47.26052" lon="6.10337">
        <ele>424.6</ele>
        <time>2024-07-31T07:04:08Z</time>
      </trkpt>
      <trkpt lat="47.26051" lon="6.10339">
        <ele>424.6</ele>
        <time>2024-07-31T07:04:09Z</time>
      </trkpt>
      <trkpt lat="47.26049" lon="6.1034">
        <ele>424.8</ele>
        <time>2024-07-31T07:04:10Z</time>
      </trkpt>
      <trkpt lat="47.26048" lon="6.10342">
        <ele>425</ele>
        <time>2024-07-31T07:04:11Z</time>
      </trkpt>
      <trkpt lat="47.26047" lon="6.10342">
        <ele>425.2</ele>
        <time>2024-07-31T07:04:12Z</time>
      </trkpt>
      <trkpt lat="47.26045" lon="6.10344">
        <ele>425</ele>
        <time>2024-07-31T07:04:13Z</time>
      </trkpt>
      <trkpt lat="47.26044" lon="6.10345">
        <ele>425.2</ele>
        <time>2024-07-31T07:04:14Z</time>
      </trkpt>
      <trkpt lat="47.26043" lon="6.10345">
        <ele>425.2</ele>
        <time>2024-07-31T07:04:15Z</time>
      </trkpt>
      <trkpt lat="47.26041" lon="6.10346">
        <ele>425.6</ele>
        <time>2024-07-31T07:04:16Z</time>
      </trkpt>
      <trkpt lat="47.2604" lon="6.10347">
        <ele>425.4</ele>
        <time>2024-07-31T07:04:17Z</time>
      </trkpt>
      <trkpt lat="47.26039" lon="6.10349">
        <ele>425.6</ele>
        <time>2024-07-31T07:04:18Z</time>
      </trkpt>
      <trkpt lat="47.26038" lon="6.10351">
        <ele>425.8</ele>
        <time>2024-07-31T07:04:19Z</time>
      </trkpt>
      <trkpt lat="47.26038" lon="6.10353">
        <ele>425.6</ele>
        <time>2024-07-31T07:04:20Z</time>
      </trkpt>
      <trkpt lat="47.26037" lon="6.10355">
        <ele>425.6</ele>
        <time>2024-07-31T07:04:21Z</time>
      </trkpt>
      <trkpt lat="47.26038" lon="6.10357">
        <ele>425.4</ele>
        <time>2024-07-31T07:04:22Z</time>
      </trkpt>
      <trkpt lat="47.26038" lon="6.10359">
        <ele>425</ele>
        <time>2024-07-31T07:04:23Z</time>
      </trkpt>
      <trkpt lat="47.26039" lon="6.1036">
        <ele>425</ele>
        <time>2024-07-31T07:04:24Z</time>
      </trkpt>
      <trkpt lat="47.2604" lon="6.10362">
        <ele>425.2</ele>
        <time>2024-07-31T07:04:25Z</time>
      </trkpt>
      <trkpt lat="47.2604" lon="6.10363">
        <ele>425</ele>
        <time>2024-07-31T07:04:26Z</time>
      </trkpt>
      <trkpt lat="47.26041" lon="6.10362">
        <ele>424.8</ele>
        <time>2024-07-31T07:04:27Z</time>
      </trkpt>
      <trkpt lat="47.26042" lon="6.10361">
        <ele>424.8</ele>
        <time>2024-07-31T07:04:28Z</time>
      </trkpt>
      <trkpt lat="47.26043" lon="6.1036">
        <ele>425.2</ele>
        <time>2024-07-31T07:04:29Z</time>
      </trkpt>
      <trkpt lat="47.26043" lon="6.10359">
        <ele>425.2</ele>
        <time>2024-07-31T07:04:30Z</time>
      </trkpt>
      <trkpt lat="47.26043" lon="6.10356">
        <ele>425.4</ele>
        <time>2024-07-31T07:04:31Z</time>
      </trkpt>
      <trkpt lat="47.26042" lon="6.10355">
        <ele>425.4</ele>
        <time>2024-07-31T07:04:32Z</time>
      </trkpt>
      <trkpt lat="47.26042" lon="6.10354">
        <ele>425.6</ele>
        <time>2024-07-31T07:04:33Z</time>
      </trkpt>
      <trkpt lat="47.2604" lon="6.10353">
        <ele>425.6</ele>
        <time>2024-07-31T07:04:34Z</time>
      </trkpt>
      <trkpt lat="47.26039" lon="6.10354">
        <ele>425.8</ele>
        <time>2024-07-31T07:04:35Z</time>
      </trkpt>
      <trkpt lat="47.26038" lon="6.10354">
        <ele>426</ele>
        <time>2024-07-31T07:04:36Z</time>
      </trkpt>
      <trkpt lat="47.26037" lon="6.10354">
        <ele>426</ele>
        <time>2024-07-31T07:04:37Z</time>
      </trkpt>
      <trkpt lat="47.26036" lon="6.10353">
        <ele>426.2</ele>
        <time>2024-07-31T07:04:38Z</time>
      </trkpt>
      <trkpt lat="47.26035" lon="6.10352">
        <ele>426.2</ele>
        <time>2024-07-31T07:04:39Z</time>
      </trkpt>
      <trkpt lat="47.26034" lon="6.10351">
        <ele>426.4</ele>
        <time>2024-07-31T07:04:40Z</time>
      </trkpt>
      <trkpt lat="47.26033" lon="6.1035">
        <ele>426.6</ele>
        <time>2024-07-31T07:04:41Z</time>
      </trkpt>
      <trkpt lat="47.26033" lon="6.10348">
        <ele>426.8</ele>
        <time>2024-07-31T07:04:42Z</time>
      </trkpt>
      <trkpt lat="47.26032" lon="6.10346">
        <ele>427.4</ele>
        <time>2024-07-31T07:04:43Z</time>
      </trkpt>
      <trkpt lat="47.26032" lon="6.10345">
        <ele>427.6</ele>
        <time>2024-07-31T07:04:44Z</time>
      </trkpt>
      <trkpt lat="47.26031" lon="6.10344">
        <ele>428</ele>
        <time>2024-07-31T07:04:45Z</time>
      </trkpt>
      <trkpt lat="47.2603" lon="6.10343">
        <ele>428</ele>
        <time>2024-07-31T07:04:46Z</time>
      </trkpt>
      <trkpt lat="47.26029" lon="6.10342">
        <ele>428.2</ele>
        <time>2024-07-31T07:04:47Z</time>
      </trkpt>
      <trkpt lat="47.26028" lon="6.1034">
        <ele>428.6</ele>
        <time>2024-07-31T07:04:48Z</time>
      </trkpt>
      <trkpt lat="47.26027" lon="6.10339">
        <ele>428.8</ele>
        <time>2024-07-31T07:04:49Z</time>
      </trkpt>
      <trkpt lat="47.26027" lon="6.10338">
        <ele>429.2</ele>
        <time>2024-07-31T07:04:50Z</time>
      </trkpt>
      <trkpt lat="47.26026" lon="6.10336">
        <ele>429.2</ele>
        <time>2024-07-31T07:04:51Z</time>
      </trkpt>
      <trkpt lat="47.26026" lon="6.10335">
        <ele>429.4</ele>
        <time>2024-07-31T07:04:52Z</time>
      </trkpt>
      <trkpt lat="47.26025" lon="6.10333">
        <ele>429.8</ele>
        <time>2024-07-31T07:04:53Z</time>
      </trkpt>
      <trkpt lat="47.26024" lon="6.10332">
        <ele>429.8</ele>
        <time>2024-07-31T07:04:54Z</time>
      </trkpt>
      <trkpt lat="47.26024" lon="6.10331">
        <ele>430</ele>
        <time>2024-07-31T07:04:55Z</time>
      </trkpt>
      <trkpt lat="47.26023" lon="6.1033">
        <ele>430.4</ele>
        <time>2024-07-31T07:04:56Z</time>
      </trkpt>
      <trkpt lat="47.26023" lon="6.10329">
        <ele>430.4</ele>
        <time>2024-07-31T07:04:57Z</time>
      </trkpt>
      <trkpt lat="47.26023" lon="6.10328">
        <ele>430.4</ele>
        <time>2024-07-31T07:04:58Z</time>
      </trkpt>
      <trkpt lat="47.26022" lon="6.10326">
        <ele>430.4</ele>
        <time>2024-07-31T07:04:59Z</time>
      </trkpt>
      <trkpt lat="47.26022" lon="6.10325">
        <ele>430.6</ele>
        <time>2024-07-31T07:05:00Z</time>
      </trkpt>
      <trkpt lat="47.26022" lon="6.10323">
        <ele>430.8</ele>
        <time>2024-07-31T07:05:01Z</time>
      </trkpt>
      <trkpt lat="47.26021" lon="6.10322">
        <ele>431.2</ele>
        <time>2024-07-31T07:05:02Z</time>
      </trkpt>
      <trkpt lat="47.26021" lon="6.1032">
        <ele>431.4</ele>
        <time>2024-07-31T07:05:03Z</time>
      </trkpt>
      <trkpt lat="47.26021" lon="6.10318">
        <ele>431.6</ele>
        <time>2024-07-31T07:05:04Z</time>
      </trkpt>
      <trkpt lat="47.26021" lon="6.10316">
        <ele>431.8</ele>
        <time>2024-07-31T07:05:05Z</time>
      </trkpt>
      <trkpt lat="47.26021" lon="6.10314">
        <ele>432</ele>
        <time>2024-07-31T07:05:06Z</time>
      </trkpt>
      <trkpt lat="47.26021" lon="6.10313">
        <ele>432.2</ele>
        <time>2024-07-31T07:05:07Z</time>
      </trkpt>
      <trkpt lat="47.26021" lon="6.10311">
        <ele>432.4</ele>
        <time>2024-07-31T07:05:08Z</time>
      </trkpt>
      <trkpt lat="47.2602" lon="6.10309">
        <ele>432.4</ele>
        <time>2024-07-31T07:05:09Z</time>
      </trkpt>
      <trkpt lat="47.2602" lon="6.10308">
        <ele>432.6</ele>
        <time>2024-07-31T07:05:10Z</time>
      </trkpt>
      <trkpt lat="47.2602" lon="6.10307">
        <ele>432.8</ele>
        <time>2024-07-31T07:05:11Z</time>
      </trkpt>
      <trkpt lat="47.26019" lon="6.10305">
        <ele>433</ele>
        <time>2024-07-31T07:05:12Z</time>
      </trkpt>
      <trkpt lat="47.26019" lon="6.10303">
        <ele>433.2</ele>
        <time>2024-07-31T07:05:13Z</time>
      </trkpt>
      <trkpt lat="47.26019" lon="6.10301">
        <ele>433.2</ele>
        <time>2024-07-31T07:05:14Z</time>
      </trkpt>
      <trkpt lat="47.26018" lon="6.10298">
        <ele>433.4</ele>
        <time>2024-07-31T07:05:15Z</time>
      </trkpt>
      <trkpt lat="47.26018" lon="6.10297">
        <ele>433.8</ele>
        <time>2024-07-31T07:05:16Z</time>
      </trkpt>
      <trkpt lat="47.26018" lon="6.10294">
        <ele>434</ele>
        <time>2024-07-31T07:05:17Z</time>
      </trkpt>
      <trkpt lat="47.26017" lon="6.10292">
        <ele>434.2</ele>
        <time>2024-07-31T07:05:18Z</time>
      </trkpt>
      <trkpt lat="47.26017" lon="6.10291">
        <ele>434.4</ele>
        <time>2024-07-31T07:05:19Z</time>
      </trkpt>
      <trkpt lat="47.26016" lon="6.10289">
        <ele>434.2</ele>
        <time>2024-07-31T07:05:20Z</time>
      </trkpt>
      <trkpt lat="47.26016" lon="6.10287">
        <ele>434.2</ele>
        <time>2024-07-31T07:05:21Z</time>
      </trkpt>
      <trkpt lat="47.26016" lon="6.10285">
        <ele>434.6</ele>
        <time>2024-07-31T07:05:22Z</time>
      </trkpt>
      <trkpt lat="47.26016" lon="6.10283">
        <ele>434.8</ele>
        <time>2024-07-31T07:05:23Z</time>
      </trkpt>
      <trkpt lat="47.26016" lon="6.10281">
        <ele>435</ele>
        <time>2024-07-31T07:05:24Z</time>
      </trkpt>
      <trkpt lat="47.26016" lon="6.1028">
        <ele>435.2</ele>
        <time>2024-07-31T07:05:25Z</time>
      </trkpt>
      <trkpt lat="47.26016" lon="6.10278">
        <ele>435.4</ele>
        <time>2024-07-31T07:05:26Z</time>
      </trkpt>
      <trkpt lat="47.26016" lon="6.10277">
        <ele>435.4</ele>
        <time>2024-07-31T07:05:27Z</time>
      </trkpt>
      <trkpt lat="47.26016" lon="6.10275">
        <ele>435.4</ele>
        <time>2024-07-31T07:05:28Z</time>
      </trkpt>
      <trkpt lat="47.26015" lon="6.10273">
        <ele>435.6</ele>
        <time>2024-07-31T07:05:29Z</time>
      </trkpt>
      <trkpt lat="47.26014" lon="6.10271">
        <ele>435.8</ele>
        <time>2024-07-31T07:05:30Z</time>
      </trkpt>
      <trkpt lat="47.26014" lon="6.10269">
        <ele>436</ele>
        <time>2024-07-31T07:05:31Z</time>
      </trkpt>
      <trkpt lat="47.26014" lon="6.10266">
        <ele>436.4</ele>
        <time>2024-07-31T07:05:32Z</time>
      </trkpt>
      <trkpt lat="47.26014" lon="6.10264">
        <ele>436.4</ele>
        <time>2024-07-31T07:05:33Z</time>
      </trkpt>
      <trkpt lat="47.26014" lon="6.10262">
        <ele>436.6</ele>
        <time>2024-07-31T07:05:34Z</time>
      </trkpt>
      <trkpt lat="47.26014" lon="6.1026">
        <ele>436.8</ele>
        <time>2024-07-31T07:05:35Z</time>
      </trkpt>
      <trkpt lat="47.26015" lon="6.10258">
        <ele>437</ele>
        <time>2024-07-31T07:05:36Z</time>
      </trkpt>
      <trkpt lat="47.26015" lon="6.10255">
        <ele>437.2</ele>
        <time>2024-07-31T07:05:37Z</time>
      </trkpt>
      <trkpt lat="47.26015" lon="6.10253">
        <ele>437.4</ele>
        <time>2024-07-31T07:05:38Z</time>
      </trkpt>
      <trkpt lat="47.26016" lon="6.10251">
        <ele>437.6</ele>
        <time>2024-07-31T07:05:39Z</time>
      </trkpt>
      <trkpt lat="47.26016" lon="6.10248">
        <ele>437.8</ele>
        <time>2024-07-31T07:05:40Z</time>
      </trkpt>
      <trkpt lat="47.26016" lon="6.10246">
        <ele>438</ele>
        <time>2024-07-31T07:05:41Z</time>
      </trkpt>
      <trkpt lat="47.26016" lon="6.10243">
        <ele>438.2</ele>
        <time>2024-07-31T07:05:42Z</time>
      </trkpt>
      <trkpt lat="47.26016" lon="6.10241">
        <ele>438.2</ele>
        <time>2024-07-31T07:05:43Z</time>
      </trkpt>
      <trkpt lat="47.26016" lon="6.10239">
        <ele>438.4</ele>
        <time>2024-07-31T07:05:44Z</time>
      </trkpt>
      <trkpt lat="47.26016" lon="6.10236">
        <ele>438.4</ele>
        <time>2024-07-31T07:05:45Z</time>
      </trkpt>
      <trkpt lat="47.26016" lon="6.10233">
        <ele>438.8</ele>
        <time>2024-07-31T07:05:46Z</time>
      </trkpt>
      <trkpt lat="47.26015" lon="6.1023">
        <ele>438.8</ele>
        <time>2024-07-31T07:05:47Z</time>
      </trkpt>
      <trkpt lat="47.26014" lon="6.10228">
        <ele>439</ele>
        <time>2024-07-31T07:05:48Z</time>
      </trkpt>
      <trkpt lat="47.26014" lon="6.10225">
        <ele>439.2</ele>
        <time>2024-07-31T07:05:49Z</time>
      </trkpt>
      <trkpt lat="47.26014" lon="6.10224">
        <ele>439.4</ele>
        <time>2024-07-31T07:05:50Z</time>
      </trkpt>
      <trkpt lat="47.26014" lon="6.10222">
        <ele>439.6</ele>
        <time>2024-07-31T07:05:51Z</time>
      </trkpt>
      <trkpt lat="47.26013" lon="6.1022">
        <ele>440</ele>
        <time>2024-07-31T07:05:52Z</time>
      </trkpt>
      <trkpt lat="47.26012" lon="6.10218">
        <ele>440</ele>
        <time>2024-07-31T07:05:53Z</time>
      </trkpt>
      <trkpt lat="47.26012" lon="6.10217">
        <ele>440.4</ele>
        <time>2024-07-31T07:05:54Z</time>
      </trkpt>
      <trkpt lat="47.26012" lon="6.10215">
        <ele>440.6</ele>
        <time>2024-07-31T07:05:55Z</time>
      </trkpt>
      <trkpt lat="47.26011" lon="6.10214">
        <ele>440.6</ele>
        <time>2024-07-31T07:05:56Z</time>
      </trkpt>
      <trkpt lat="47.2601" lon="6.10212">
        <ele>441</ele>
        <time>2024-07-31T07:05:57Z</time>
      </trkpt>
      <trkpt lat="47.26009" lon="6.10211">
        <ele>441</ele>
        <time>2024-07-31T07:05:58Z</time>
      </trkpt>
      <trkpt lat="47.26008" lon="6.1021">
        <ele>441.2</ele>
        <time>2024-07-31T07:05:59Z</time>
      </trkpt>
      <trkpt lat="47.26006" lon="6.10209">
        <ele>441.6</ele>
        <time>2024-07-31T07:06:00Z</time>
      </trkpt>
      <trkpt lat="47.26004" lon="6.10208">
        <ele>441.6</ele>
        <time>2024-07-31T07:06:01Z</time>
      </trkpt>
      <trkpt lat="47.26003" lon="6.10207">
        <ele>441.6</ele>
        <time>2024-07-31T07:06:02Z</time>
      </trkpt>
      <trkpt lat="47.26002" lon="6.10206">
        <ele>441.8</ele>
        <time>2024-07-31T07:06:03Z</time>
      </trkpt>
      <trkpt lat="47.26" lon="6.10204">
        <ele>442.2</ele>
        <time>2024-07-31T07:06:04Z</time>
      </trkpt>
      <trkpt lat="47.25999" lon="6.10203">
        <ele>442.2</ele>
        <time>2024-07-31T07:06:05Z</time>
      </trkpt>
      <trkpt lat="47.25998" lon="6.10201">
        <ele>442.4</ele>
        <time>2024-07-31T07:06:06Z</time>
      </trkpt>
      <trkpt lat="47.25997" lon="6.102">
        <ele>442.6</ele>
        <time>2024-07-31T07:06:07Z</time>
      </trkpt>
      <trkpt lat="47.25996" lon="6.10199">
        <ele>442.8</ele>
        <time>2024-07-31T07:06:08Z</time>
      </trkpt>
      <trkpt lat="47.25995" lon="6.10198">
        <ele>443</ele>
        <time>2024-07-31T07:06:09Z</time>
      </trkpt>
      <trkpt lat="47.25994" lon="6.10196">
        <ele>443</ele>
        <time>2024-07-31T07:06:10Z</time>
      </trkpt>
      <trkpt lat="47.25993" lon="6.10195">
        <ele>443.2</ele>
        <time>2024-07-31T07:06:11Z</time>
      </trkpt>
      <trkpt lat="47.25992" lon="6.10193">
        <ele>443.4</ele>
        <time>2024-07-31T07:06:12Z</time>
      </trkpt>
      <trkpt lat="47.25991" lon="6.10192">
        <ele>443.4</ele>
        <time>2024-07-31T07:06:13Z</time>
      </trkpt>
      <trkpt lat="47.2599" lon="6.10191">
        <ele>443.6</ele>
        <time>2024-07-31T07:06:14Z</time>
      </trkpt>
      <trkpt lat="47.25989" lon="6.10189">
        <ele>443.8</ele>
        <time>2024-07-31T07:06:15Z</time>
      </trkpt>
      <trkpt lat="47.25988" lon="6.10188">
        <ele>444</ele>
        <time>2024-07-31T07:06:16Z</time>
      </trkpt>
      <trkpt lat="47.25987" lon="6.10187">
        <ele>444.2</ele>
        <time>2024-07-31T07:06:17Z</time>
      </trkpt>
      <trkpt lat="47.25985" lon="6.10185">
        <ele>444.4</ele>
        <time>2024-07-31T07:06:18Z</time>
      </trkpt>
      <trkpt lat="47.25984" lon="6.10184">
        <ele>444.6</ele>
        <time>2024-07-31T07:06:19Z</time>
      </trkpt>
      <trkpt lat="47.25983" lon="6.10183">
        <ele>444.8</ele>
        <time>2024-07-31T07:06:20Z</time>
      </trkpt>
      <trkpt lat="47.25982" lon="6.10183">
        <ele>445</ele>
        <time>2024-07-31T07:06:21Z</time>
      </trkpt>
      <trkpt lat="47.25981" lon="6.10181">
        <ele>445.2</ele>
        <time>2024-07-31T07:06:22Z</time>
      </trkpt>
      <trkpt lat="47.2598" lon="6.10179">
        <ele>445.6</ele>
        <time>2024-07-31T07:06:23Z</time>
      </trkpt>
      <trkpt lat="47.2598" lon="6.10178">
        <ele>445.8</ele>
        <time>2024-07-31T07:06:24Z</time>
      </trkpt>
      <trkpt lat="47.25979" lon="6.10177">
        <ele>445.8</ele>
        <time>2024-07-31T07:06:25Z</time>
      </trkpt>
      <trkpt lat="47.25979" lon="6.10175">
        <ele>446.2</ele>
        <time>2024-07-31T07:06:26Z</time>
      </trkpt>
      <trkpt lat="47.25978" lon="6.10174">
        <ele>446.4</ele>
        <time>2024-07-31T07:06:27Z</time>
      </trkpt>
      <trkpt lat="47.25977" lon="6.10173">
        <ele>446.4</ele>
        <time>2024-07-31T07:06:28Z</time>
      </trkpt>
      <trkpt lat="47.25977" lon="6.10172">
        <ele>446.6</ele>
        <time>2024-07-31T07:06:29Z</time>
      </trkpt>
      <trkpt lat="47.25975" lon="6.1017">
        <ele>446.8</ele>
        <time>2024-07-31T07:06:30Z</time>
      </trkpt>
      <trkpt lat="47.25974" lon="6.10168">
        <ele>447.2</ele>
        <time>2024-07-31T07:06:31Z</time>
      </trkpt>
      <trkpt lat="47.25973" lon="6.10166">
        <ele>447.4</ele>
        <time>2024-07-31T07:06:32Z</time>
      </trkpt>
      <trkpt lat="47.25973" lon="6.10165">
        <ele>447.8</ele>
        <time>2024-07-31T07:06:33Z</time>
      </trkpt>
      <trkpt lat="47.25972" lon="6.10164">
        <ele>448</ele>
        <time>2024-07-31T07:06:34Z</time>
      </trkpt>
      <trkpt lat="47.25971" lon="6.10162">
        <ele>448.2</ele>
        <time>2024-07-31T07:06:35Z</time>
      </trkpt>
      <trkpt lat="47.25971" lon="6.10161">
        <ele>448.2</ele>
        <time>2024-07-31T07:06:36Z</time>
      </trkpt>
      <trkpt lat="47.25971" lon="6.10159">
        <ele>448.6</ele>
        <time>2024-07-31T07:06:37Z</time>
      </trkpt>
      <trkpt lat="47.25971" lon="6.10158">
        <ele>448.8</ele>
        <time>2024-07-31T07:06:38Z</time>
      </trkpt>
      <trkpt lat="47.2597" lon="6.10156">
        <ele>449.2</ele>
        <time>2024-07-31T07:06:39Z</time>
      </trkpt>
      <trkpt lat="47.2597" lon="6.10155">
        <ele>449</ele>
        <time>2024-07-31T07:06:40Z</time>
      </trkpt>
      <trkpt lat="47.25969" lon="6.10153">
        <ele>449.4</ele>
        <time>2024-07-31T07:06:41Z</time>
      </trkpt>
      <trkpt lat="47.25969" lon="6.10151">
        <ele>449.6</ele>
        <time>2024-07-31T07:06:42Z</time>
      </trkpt>
      <trkpt lat="47.25968" lon="6.10149">
        <ele>450</ele>
        <time>2024-07-31T07:06:43Z</time>
      </trkpt>
      <trkpt lat="47.25968" lon="6.10147">
        <ele>450</ele>
        <time>2024-07-31T07:06:44Z</time>
      </trkpt>
      <trkpt lat="47.25968" lon="6.10146">
        <ele>450.4</ele>
        <time>2024-07-31T07:06:45Z</time>
      </trkpt>
      <trkpt lat="47.25967" lon="6.10145">
        <ele>450.4</ele>
        <time>2024-07-31T07:06:46Z</time>
      </trkpt>
      <trkpt lat="47.25967" lon="6.10143">
        <ele>450.6</ele>
        <time>2024-07-31T07:06:47Z</time>
      </trkpt>
      <trkpt lat="47.25967" lon="6.10142">
        <ele>450.8</ele>
        <time>2024-07-31T07:06:48Z</time>
      </trkpt>
      <trkpt lat="47.25966" lon="6.10141">
        <ele>450.8</ele>
        <time>2024-07-31T07:06:49Z</time>
      </trkpt>
      <trkpt lat="47.25966" lon="6.10139">
        <ele>451</ele>
        <time>2024-07-31T07:06:50Z</time>
      </trkpt>
      <trkpt lat="47.25965" lon="6.10138">
        <ele>451.2</ele>
        <time>2024-07-31T07:06:51Z</time>
      </trkpt>
      <trkpt lat="47.25965" lon="6.10137">
        <ele>451.6</ele>
        <time>2024-07-31T07:06:52Z</time>
      </trkpt>
      <trkpt lat="47.25964" lon="6.10136">
        <ele>451.8</ele>
        <time>2024-07-31T07:06:53Z</time>
      </trkpt>
      <trkpt lat="47.25963" lon="6.10135">
        <ele>452</ele>
        <time>2024-07-31T07:06:54Z</time>
      </trkpt>
      <trkpt lat="47.25962" lon="6.10134">
        <ele>452.2</ele>
        <time>2024-07-31T07:06:55Z</time>
      </trkpt>
      <trkpt lat="47.25961" lon="6.10132">
        <ele>452.6</ele>
        <time>2024-07-31T07:06:56Z</time>
      </trkpt>
      <trkpt lat="47.25961" lon="6.10131">
        <ele>452.8</ele>
        <time>2024-07-31T07:06:57Z</time>
      </trkpt>
      <trkpt lat="47.2596" lon="6.10129">
        <ele>453</ele>
        <time>2024-07-31T07:06:58Z</time>
      </trkpt>
      <trkpt lat="47.2596" lon="6.10127">
        <ele>453.2</ele>
        <time>2024-07-31T07:06:59Z</time>
      </trkpt>
      <trkpt lat="47.25959" lon="6.10126">
        <ele>453.2</ele>
        <time>2024-07-31T07:07:00Z</time>
      </trkpt>
      <trkpt lat="47.25959" lon="6.10124">
        <ele>453.6</ele>
        <time>2024-07-31T07:07:01Z</time>
      </trkpt>
      <trkpt lat="47.25958" lon="6.10122">
        <ele>453.6</ele>
        <time>2024-07-31T07:07:02Z</time>
      </trkpt>
      <trkpt lat="47.25957" lon="6.1012">
        <ele>453.8</ele>
        <time>2024-07-31T07:07:03Z</time>
      </trkpt>
      <trkpt lat="47.25957" lon="6.10119">
        <ele>454</ele>
        <time>2024-07-31T07:07:04Z</time>
      </trkpt>
      <trkpt lat="47.25955" lon="6.10117">
        <ele>454.4</ele>
        <time>2024-07-31T07:07:05Z</time>
      </trkpt>
      <trkpt lat="47.25955" lon="6.10116">
        <ele>454.6</ele>
        <time>2024-07-31T07:07:06Z</time>
      </trkpt>
      <trkpt lat="47.25954" lon="6.10114">
        <ele>454.8</ele>
        <time>2024-07-31T07:07:07Z</time>
      </trkpt>
      <trkpt lat="47.25952" lon="6.10112">
        <ele>454.8</ele>
        <time>2024-07-31T07:07:08Z</time>
      </trkpt>
      <trkpt lat="47.25951" lon="6.10111">
        <ele>455</ele>
        <time>2024-07-31T07:07:09Z</time>
      </trkpt>
      <trkpt lat="47.25951" lon="6.10109">
        <ele>455.2</ele>
        <time>2024-07-31T07:07:10Z</time>
      </trkpt>
      <trkpt lat="47.2595" lon="6.10108">
        <ele>455.2</ele>
        <time>2024-07-31T07:07:11Z</time>
      </trkpt>
      <trkpt lat="47.2595" lon="6.10106">
        <ele>455.2</ele>
        <time>2024-07-31T07:07:12Z</time>
      </trkpt>
      <trkpt lat="47.25949" lon="6.10104">
        <ele>455.4</ele>
        <time>2024-07-31T07:07:13Z</time>
      </trkpt>
      <trkpt lat="47.25949" lon="6.10102">
        <ele>455.6</ele>
        <time>2024-07-31T07:07:14Z</time>
      </trkpt>
      <trkpt lat="47.25948" lon="6.101">
        <ele>455.8</ele>
        <time>2024-07-31T07:07:15Z</time>
      </trkpt>
      <trkpt lat="47.25949" lon="6.10098">
        <ele>456.2</ele>
        <time>2024-07-31T07:07:16Z</time>
      </trkpt>
      <trkpt lat="47.25948" lon="6.10096">
        <ele>456.6</ele>
        <time>2024-07-31T07:07:17Z</time>
      </trkpt>
      <trkpt lat="47.25948" lon="6.10094">
        <ele>456.6</ele>
        <time>2024-07-31T07:07:18Z</time>
      </trkpt>
      <trkpt lat="47.25947" lon="6.10092">
        <ele>457</ele>
        <time>2024-07-31T07:07:19Z</time>
      </trkpt>
      <trkpt lat="47.25946" lon="6.1009">
        <ele>457.2</ele>
        <time>2024-07-31T07:07:20Z</time>
      </trkpt>
      <trkpt lat="47.25945" lon="6.10088">
        <ele>457.4</ele>
        <time>2024-07-31T07:07:21Z</time>
      </trkpt>
      <trkpt lat="47.25945" lon="6.10085">
        <ele>457.6</ele>
        <time>2024-07-31T07:07:22Z</time>
      </trkpt>
      <trkpt lat="47.25944" lon="6.10083">
        <ele>458</ele>
        <time>2024-07-31T07:07:23Z</time>
      </trkpt>
      <trkpt lat="47.25944" lon="6.10081">
        <ele>457.8</ele>
        <time>2024-07-31T07:07:24Z</time>
      </trkpt>
      <trkpt lat="47.25944" lon="6.10079">
        <ele>458</ele>
        <time>2024-07-31T07:07:25Z</time>
      </trkpt>
      <trkpt lat="47.25943" lon="6.10077">
        <ele>458.4</ele>
        <time>2024-07-31T07:07:26Z</time>
      </trkpt>
      <trkpt lat="47.25943" lon="6.10075">
        <ele>458.6</ele>
        <time>2024-07-31T07:07:27Z</time>
      </trkpt>
      <trkpt lat="47.25942" lon="6.10073">
        <ele>458.8</ele>
        <time>2024-07-31T07:07:28Z</time>
      </trkpt>
      <trkpt lat="47.25942" lon="6.10071">
        <ele>458.8</ele>
        <time>2024-07-31T07:07:29Z</time>
      </trkpt>
      <trkpt lat="47.25942" lon="6.10069">
        <ele>459</ele>
        <time>2024-07-31T07:07:30Z</time>
      </trkpt>
      <trkpt lat="47.25941" lon="6.10067">
        <ele>459</ele>
        <time>2024-07-31T07:07:31Z</time>
      </trkpt>
      <trkpt lat="47.25941" lon="6.10065">
        <ele>459.2</ele>
        <time>2024-07-31T07:07:32Z</time>
      </trkpt>
      <trkpt lat="47.25941" lon="6.10064">
        <ele>459.6</ele>
        <time>2024-07-31T07:07:33Z</time>
      </trkpt>
      <trkpt lat="47.2594" lon="6.10062">
        <ele>459.6</ele>
        <time>2024-07-31T07:07:34Z</time>
      </trkpt>
      <trkpt lat="47.2594" lon="6.10059">
        <ele>459.8</ele>
        <time>2024-07-31T07:07:35Z</time>
      </trkpt>
      <trkpt lat="47.2594" lon="6.10058">
        <ele>459.8</ele>
        <time>2024-07-31T07:07:36Z</time>
      </trkpt>
      <trkpt lat="47.25939" lon="6.10056">
        <ele>460.2</ele>
        <time>2024-07-31T07:07:37Z</time>
      </trkpt>
      <trkpt lat="47.25939" lon="6.10054">
        <ele>460.4</ele>
        <time>2024-07-31T07:07:38Z</time>
      </trkpt>
      <trkpt lat="47.25938" lon="6.10052">
        <ele>460.6</ele>
        <time>2024-07-31T07:07:39Z</time>
      </trkpt>
      <trkpt lat="47.25938" lon="6.10051">
        <ele>460.8</ele>
        <time>2024-07-31T07:07:40Z</time>
      </trkpt>
      <trkpt lat="47.25937" lon="6.10048">
        <ele>461</ele>
        <time>2024-07-31T07:07:41Z</time>
      </trkpt>
      <trkpt lat="47.25937" lon="6.10047">
        <ele>461.2</ele>
        <time>2024-07-31T07:07:42Z</time>
      </trkpt>
      <trkpt lat="47.25936" lon="6.10045">
        <ele>461.2</ele>
        <time>2024-07-31T07:07:43Z</time>
      </trkpt>
      <trkpt lat="47.25936" lon="6.10044">
        <ele>461.4</ele>
        <time>2024-07-31T07:07:44Z</time>
      </trkpt>
      <trkpt lat="47.25937" lon="6.10043">
        <ele>461.6</ele>
        <time>2024-07-31T07:07:45Z</time>
      </trkpt>
      <trkpt lat="47.25937" lon="6.10043">
        <ele>461.6</ele>
        <time>2024-07-31T07:07:46Z</time>
      </trkpt>
      <trkpt lat="47.25936" lon="6.10042">
        <ele>461.6</ele>
        <time>2024-07-31T07:07:47Z</time>
      </trkpt>
      <trkpt lat="47.25937" lon="6.10041">
        <ele>461.8</ele>
        <time>2024-07-31T07:07:48Z</time>
      </trkpt>
      <trkpt lat="47.25936" lon="6.1004">
        <ele>461.8</ele>
        <time>2024-07-31T07:07:49Z</time>
      </trkpt>
      <trkpt lat="47.25936" lon="6.10038">
        <ele>461.8</ele>
        <time>2024-07-31T07:07:50Z</time>
      </trkpt>
      <trkpt lat="47.25936" lon="6.10036">
        <ele>462.2</ele>
        <time>2024-07-31T07:07:51Z</time>
      </trkpt>
      <trkpt lat="47.25936" lon="6.10033">
        <ele>462.2</ele>
        <time>2024-07-31T07:07:52Z</time>
      </trkpt>
      <trkpt lat="47.25935" lon="6.10032">
        <ele>462.4</ele>
        <time>2024-07-31T07:07:53Z</time>
      </trkpt>
      <trkpt lat="47.25935" lon="6.1003">
        <ele>462.8</ele>
        <time>2024-07-31T07:07:54Z</time>
      </trkpt>
      <trkpt lat="47.25935" lon="6.10028">
        <ele>462.8</ele>
        <time>2024-07-31T07:07:55Z</time>
      </trkpt>
      <trkpt lat="47.25935" lon="6.10026">
        <ele>463</ele>
        <time>2024-07-31T07:07:56Z</time>
      </trkpt>
      <trkpt lat="47.25935" lon="6.10025">
        <ele>463</ele>
        <time>2024-07-31T07:07:57Z</time>
      </trkpt>
      <trkpt lat="47.25935" lon="6.10023">
        <ele>463.4</ele>
        <time>2024-07-31T07:07:58Z</time>
      </trkpt>
      <trkpt lat="47.25935" lon="6.10021">
        <ele>463.4</ele>
        <time>2024-07-31T07:07:59Z</time>
      </trkpt>
      <trkpt lat="47.25935" lon="6.10019">
        <ele>463.8</ele>
        <time>2024-07-31T07:08:00Z</time>
      </trkpt>
      <trkpt lat="47.25934" lon="6.10017">
        <ele>463.8</ele>
        <time>2024-07-31T07:08:01Z</time>
      </trkpt>
      <trkpt lat="47.25934" lon="6.10016">
        <ele>464</ele>
        <time>2024-07-31T07:08:02Z</time>
      </trkpt>
      <trkpt lat="47.25934" lon="6.10014">
        <ele>464.2</ele>
        <time>2024-07-31T07:08:03Z</time>
      </trkpt>
      <trkpt lat="47.25934" lon="6.10012">
        <ele>464.4</ele>
        <time>2024-07-31T07:08:04Z</time>
      </trkpt>
      <trkpt lat="47.25934" lon="6.1001">
        <ele>464.4</ele>
        <time>2024-07-31T07:08:05Z</time>
      </trkpt>
      <trkpt lat="47.25933" lon="6.10009">
        <ele>464.6</ele>
        <time>2024-07-31T07:08:06Z</time>
      </trkpt>
      <trkpt lat="47.25933" lon="6.10007">
        <ele>464.8</ele>
        <time>2024-07-31T07:08:07Z</time>
      </trkpt>
      <trkpt lat="47.25933" lon="6.10005">
        <ele>464.8</ele>
        <time>2024-07-31T07:08:08Z</time>
      </trkpt>
      <trkpt lat="47.25933" lon="6.10004">
        <ele>465.2</ele>
        <time>2024-07-31T07:08:09Z</time>
      </trkpt>
      <trkpt lat="47.25933" lon="6.10002">
        <ele>465.4</ele>
        <time>2024-07-31T07:08:10Z</time>
      </trkpt>
      <trkpt lat="47.25933" lon="6.10001">
        <ele>465.6</ele>
        <time>2024-07-31T07:08:11Z</time>
      </trkpt>
      <trkpt lat="47.25932" lon="6.09999">
        <ele>465.6</ele>
        <time>2024-07-31T07:08:12Z</time>
      </trkpt>
      <trkpt lat="47.25932" lon="6.09997">
        <ele>466</ele>
        <time>2024-07-31T07:08:13Z</time>
      </trkpt>
      <trkpt lat="47.25932" lon="6.09996">
        <ele>466.2</ele>
        <time>2024-07-31T07:08:14Z</time>
      </trkpt>
      <trkpt lat="47.25932" lon="6.09995">
        <ele>466.2</ele>
        <time>2024-07-31T07:08:15Z</time>
      </trkpt>
      <trkpt lat="47.25932" lon="6.09993">
        <ele>466.4</ele>
        <time>2024-07-31T07:08:16Z</time>
      </trkpt>
      <trkpt lat="47.25932" lon="6.09991">
        <ele>466.4</ele>
        <time>2024-07-31T07:08:17Z</time>
      </trkpt>
      <trkpt lat="47.25931" lon="6.0999">
        <ele>466.6</ele>
        <time>2024-07-31T07:08:18Z</time>
      </trkpt>
      <trkpt lat="47.25931" lon="6.09988">
        <ele>467</ele>
        <time>2024-07-31T07:08:19Z</time>
      </trkpt>
      <trkpt lat="47.25931" lon="6.09986">
        <ele>467</ele>
        <time>2024-07-31T07:08:20Z</time>
      </trkpt>
      <trkpt lat="47.2593" lon="6.09984">
        <ele>467.2</ele>
        <time>2024-07-31T07:08:21Z</time>
      </trkpt>
      <trkpt lat="47.25929" lon="6.09983">
        <ele>467.6</ele>
        <time>2024-07-31T07:08:22Z</time>
      </trkpt>
      <trkpt lat="47.25928" lon="6.09981">
        <ele>467.8</ele>
        <time>2024-07-31T07:08:23Z</time>
      </trkpt>
      <trkpt lat="47.25927" lon="6.0998">
        <ele>467.6</ele>
        <time>2024-07-31T07:08:24Z</time>
      </trkpt>
      <trkpt lat="47.25927" lon="6.09978">
        <ele>467.6</ele>
        <time>2024-07-31T07:08:25Z</time>
      </trkpt>
      <trkpt lat="47.25927" lon="6.09975">
        <ele>467.8</ele>
        <time>2024-07-31T07:08:26Z</time>
      </trkpt>
      <trkpt lat="47.25927" lon="6.09972">
        <ele>468</ele>
        <time>2024-07-31T07:08:27Z</time>
      </trkpt>
      <trkpt lat="47.25927" lon="6.09969">
        <ele>468.2</ele>
        <time>2024-07-31T07:08:28Z</time>
      </trkpt>
      <trkpt lat="47.25927" lon="6.09966">
        <ele>468.4</ele>
        <time>2024-07-31T07:08:29Z</time>
      </trkpt>
      <trkpt lat="47.25927" lon="6.09964">
        <ele>468.6</ele>
        <time>2024-07-31T07:08:30Z</time>
      </trkpt>
      <trkpt lat="47.25927" lon="6.09961">
        <ele>468.4</ele>
        <time>2024-07-31T07:08:31Z</time>
      </trkpt>
      <trkpt lat="47.25927" lon="6.09958">
        <ele>468.6</ele>
        <time>2024-07-31T07:08:32Z</time>
      </trkpt>
      <trkpt lat="47.25927" lon="6.09956">
        <ele>468.8</ele>
        <time>2024-07-31T07:08:33Z</time>
      </trkpt>
      <trkpt lat="47.25927" lon="6.09953">
        <ele>469</ele>
        <time>2024-07-31T07:08:34Z</time>
      </trkpt>
      <trkpt lat="47.25927" lon="6.0995">
        <ele>469.2</ele>
        <time>2024-07-31T07:08:35Z</time>
      </trkpt>
      <trkpt lat="47.25927" lon="6.09947">
        <ele>469.2</ele>
        <time>2024-07-31T07:08:36Z</time>
      </trkpt>
      <trkpt lat="47.25926" lon="6.09944">
        <ele>469.4</ele>
        <time>2024-07-31T07:08:37Z</time>
      </trkpt>
      <trkpt lat="47.25926" lon="6.09942">
        <ele>469.6</ele>
        <time>2024-07-31T07:08:38Z</time>
      </trkpt>
      <trkpt lat="47.25926" lon="6.09939">
        <ele>469.6</ele>
        <time>2024-07-31T07:08:39Z</time>
      </trkpt>
      <trkpt lat="47.25925" lon="6.09937">
        <ele>469.8</ele>
        <time>2024-07-31T07:08:40Z</time>
      </trkpt>
      <trkpt lat="47.25924" lon="6.09935">
        <ele>470</ele>
        <time>2024-07-31T07:08:41Z</time>
      </trkpt>
      <trkpt lat="47.25923" lon="6.09932">
        <ele>470</ele>
        <time>2024-07-31T07:08:42Z</time>
      </trkpt>
      <trkpt lat="47.25922" lon="6.09929">
        <ele>470.2</ele>
        <time>2024-07-31T07:08:43Z</time>
      </trkpt>
      <trkpt lat="47.25921" lon="6.09926">
        <ele>470.2</ele>
        <time>2024-07-31T07:08:44Z</time>
      </trkpt>
      <trkpt lat="47.2592" lon="6.09924">
        <ele>470.4</ele>
        <time>2024-07-31T07:08:45Z</time>
      </trkpt>
      <trkpt lat="47.25919" lon="6.09921">
        <ele>470.6</ele>
        <time>2024-07-31T07:08:46Z</time>
      </trkpt>
      <trkpt lat="47.25918" lon="6.09919">
        <ele>470.8</ele>
        <time>2024-07-31T07:08:47Z</time>
      </trkpt>
      <trkpt lat="47.25917" lon="6.09917">
        <ele>471</ele>
        <time>2024-07-31T07:08:48Z</time>
      </trkpt>
      <trkpt lat="47.25916" lon="6.09914">
        <ele>471.2</ele>
        <time>2024-07-31T07:08:49Z</time>
      </trkpt>
      <trkpt lat="47.25915" lon="6.09912">
        <ele>471.4</ele>
        <time>2024-07-31T07:08:50Z</time>
      </trkpt>
      <trkpt lat="47.25913" lon="6.09909">
        <ele>471.6</ele>
        <time>2024-07-31T07:08:51Z</time>
      </trkpt>
      <trkpt lat="47.25912" lon="6.09907">
        <ele>471.8</ele>
        <time>2024-07-31T07:08:52Z</time>
      </trkpt>
      <trkpt lat="47.25911" lon="6.09905">
        <ele>471.8</ele>
        <time>2024-07-31T07:08:53Z</time>
      </trkpt>
      <trkpt lat="47.2591" lon="6.09903">
        <ele>472</ele>
        <time>2024-07-31T07:08:54Z</time>
      </trkpt>
      <trkpt lat="47.25909" lon="6.09901">
        <ele>472.2</ele>
        <time>2024-07-31T07:08:55Z</time>
      </trkpt>
      <trkpt lat="47.25907" lon="6.09899">
        <ele>472.6</ele>
        <time>2024-07-31T07:08:56Z</time>
      </trkpt>
      <trkpt lat="47.25906" lon="6.09897">
        <ele>472.8</ele>
        <time>2024-07-31T07:08:57Z</time>
      </trkpt>
      <trkpt lat="47.25904" lon="6.09895">
        <ele>473</ele>
        <time>2024-07-31T07:08:58Z</time>
      </trkpt>
      <trkpt lat="47.25903" lon="6.09893">
        <ele>473.2</ele>
        <time>2024-07-31T07:08:59Z</time>
      </trkpt>
      <trkpt lat="47.25902" lon="6.09891">
        <ele>473.4</ele>
        <time>2024-07-31T07:09:00Z</time>
      </trkpt>
      <trkpt lat="47.259" lon="6.09889">
        <ele>473.4</ele>
        <time>2024-07-31T07:09:01Z</time>
      </trkpt>
      <trkpt lat="47.25899" lon="6.09887">
        <ele>473.6</ele>
        <time>2024-07-31T07:09:02Z</time>
      </trkpt>
      <trkpt lat="47.25898" lon="6.09885">
        <ele>473.8</ele>
        <time>2024-07-31T07:09:03Z</time>
      </trkpt>
      <trkpt lat="47.25897" lon="6.09883">
        <ele>474</ele>
        <time>2024-07-31T07:09:04Z</time>
      </trkpt>
      <trkpt lat="47.25895" lon="6.09881">
        <ele>474.2</ele>
        <time>2024-07-31T07:09:05Z</time>
      </trkpt>
      <trkpt lat="47.25894" lon="6.09879">
        <ele>474.4</ele>
        <time>2024-07-31T07:09:06Z</time>
      </trkpt>
      <trkpt lat="47.25892" lon="6.09877">
        <ele>474.6</ele>
        <time>2024-07-31T07:09:07Z</time>
      </trkpt>
      <trkpt lat="47.25891" lon="6.09875">
        <ele>474.6</ele>
        <time>2024-07-31T07:09:08Z</time>
      </trkpt>
      <trkpt lat="47.25889" lon="6.09873">
        <ele>474.6</ele>
        <time>2024-07-31T07:09:09Z</time>
      </trkpt>
      <trkpt lat="47.25888" lon="6.09872">
        <ele>474.8</ele>
        <time>2024-07-31T07:09:10Z</time>
      </trkpt>
      <trkpt lat="47.25887" lon="6.0987">
        <ele>475</ele>
        <time>2024-07-31T07:09:11Z</time>
      </trkpt>
      <trkpt lat="47.25886" lon="6.09868">
        <ele>475.2</ele>
        <time>2024-07-31T07:09:12Z</time>
      </trkpt>
      <trkpt lat="47.25885" lon="6.09866">
        <ele>475.4</ele>
        <time>2024-07-31T07:09:13Z</time>
      </trkpt>
      <trkpt lat="47.25884" lon="6.09864">
        <ele>475.4</ele>
        <time>2024-07-31T07:09:14Z</time>
      </trkpt>
      <trkpt lat="47.25882" lon="6.09863">
        <ele>475.6</ele>
        <time>2024-07-31T07:09:15Z</time>
      </trkpt>
      <trkpt lat="47.25881" lon="6.09861">
        <ele>475.6</ele>
        <time>2024-07-31T07:09:16Z</time>
      </trkpt>
      <trkpt lat="47.25879" lon="6.0986">
        <ele>475.8</ele>
        <time>2024-07-31T07:09:17Z</time>
      </trkpt>
      <trkpt lat="47.25878" lon="6.09858">
        <ele>476</ele>
        <time>2024-07-31T07:09:18Z</time>
      </trkpt>
      <trkpt lat="47.25876" lon="6.09856">
        <ele>476.2</ele>
        <time>2024-07-31T07:09:19Z</time>
      </trkpt>
      <trkpt lat="47.25875" lon="6.09854">
        <ele>476.6</ele>
        <time>2024-07-31T07:09:20Z</time>
      </trkpt>
      <trkpt lat="47.25874" lon="6.09852">
        <ele>476.6</ele>
        <time>2024-07-31T07:09:21Z</time>
      </trkpt>
      <trkpt lat="47.25873" lon="6.0985">
        <ele>476.8</ele>
        <time>2024-07-31T07:09:22Z</time>
      </trkpt>
      <trkpt lat="47.25871" lon="6.09848">
        <ele>476.8</ele>
        <time>2024-07-31T07:09:23Z</time>
      </trkpt>
      <trkpt lat="47.2587" lon="6.09846">
        <ele>476.8</ele>
        <time>2024-07-31T07:09:24Z</time>
      </trkpt>
      <trkpt lat="47.25869" lon="6.09844">
        <ele>477</ele>
        <time>2024-07-31T07:09:25Z</time>
      </trkpt>
      <trkpt lat="47.25868" lon="6.09842">
        <ele>477.2</ele>
        <time>2024-07-31T07:09:26Z</time>
      </trkpt>
      <trkpt lat="47.25867" lon="6.0984">
        <ele>477.4</ele>
        <time>2024-07-31T07:09:27Z</time>
      </trkpt>
      <trkpt lat="47.25865" lon="6.09839">
        <ele>477.6</ele>
        <time>2024-07-31T07:09:28Z</time>
      </trkpt>
      <trkpt lat="47.25863" lon="6.09836">
        <ele>477.6</ele>
        <time>2024-07-31T07:09:29Z</time>
      </trkpt>
      <trkpt lat="47.25862" lon="6.09835">
        <ele>477.8</ele>
        <time>2024-07-31T07:09:30Z</time>
      </trkpt>
      <trkpt lat="47.2586" lon="6.09833">
        <ele>478</ele>
        <time>2024-07-31T07:09:31Z</time>
      </trkpt>
      <trkpt lat="47.25859" lon="6.09831">
        <ele>478.2</ele>
        <time>2024-07-31T07:09:32Z</time>
      </trkpt>
      <trkpt lat="47.25858" lon="6.09829">
        <ele>478.2</ele>
        <time>2024-07-31T07:09:33Z</time>
      </trkpt>
      <trkpt lat="47.25856" lon="6.09827">
        <ele>478.4</ele>
        <time>2024-07-31T07:09:34Z</time>
      </trkpt>
      <trkpt lat="47.25855" lon="6.09826">
        <ele>478.6</ele>
        <time>2024-07-31T07:09:35Z</time>
      </trkpt>
      <trkpt lat="47.25854" lon="6.09824">
        <ele>479</ele>
        <time>2024-07-31T07:09:36Z</time>
      </trkpt>
      <trkpt lat="47.25853" lon="6.09823">
        <ele>479</ele>
        <time>2024-07-31T07:09:37Z</time>
      </trkpt>
      <trkpt lat="47.25851" lon="6.09821">
        <ele>479.2</ele>
        <time>2024-07-31T07:09:38Z</time>
      </trkpt>
      <trkpt lat="47.2585" lon="6.09819">
        <ele>479.4</ele>
        <time>2024-07-31T07:09:39Z</time>
      </trkpt>
      <trkpt lat="47.25849" lon="6.09818">
        <ele>479.6</ele>
        <time>2024-07-31T07:09:40Z</time>
      </trkpt>
      <trkpt lat="47.25847" lon="6.09817">
        <ele>479.8</ele>
        <time>2024-07-31T07:09:41Z</time>
      </trkpt>
      <trkpt lat="47.25846" lon="6.09815">
        <ele>480</ele>
        <time>2024-07-31T07:09:42Z</time>
      </trkpt>
      <trkpt lat="47.25844" lon="6.09814">
        <ele>480.2</ele>
        <time>2024-07-31T07:09:43Z</time>
      </trkpt>
      <trkpt lat="47.25843" lon="6.09813">
        <ele>480.2</ele>
        <time>2024-07-31T07:09:44Z</time>
      </trkpt>
      <trkpt lat="47.25842" lon="6.09811">
        <ele>480.2</ele>
        <time>2024-07-31T07:09:45Z</time>
      </trkpt>
      <trkpt lat="47.2584" lon="6.09809">
        <ele>480.6</ele>
        <time>2024-07-31T07:09:46Z</time>
      </trkpt>
      <trkpt lat="47.25839" lon="6.09806">
        <ele>480.8</ele>
        <time>2024-07-31T07:09:47Z</time>
      </trkpt>
      <trkpt lat="47.25837" lon="6.09805">
        <ele>480.8</ele>
        <time>2024-07-31T07:09:48Z</time>
      </trkpt>
      <trkpt lat="47.25835" lon="6.09803">
        <ele>481</ele>
        <time>2024-07-31T07:09:49Z</time>
      </trkpt>
      <trkpt lat="47.25834" lon="6.09801">
        <ele>481.2</ele>
        <time>2024-07-31T07:09:50Z</time>
      </trkpt>
      <trkpt lat="47.25832" lon="6.098">
        <ele>481.4</ele>
        <time>2024-07-31T07:09:51Z</time>
      </trkpt>
      <trkpt lat="47.25831" lon="6.09798">
        <ele>481.6</ele>
        <time>2024-07-31T07:09:52Z</time>
      </trkpt>
      <trkpt lat="47.25829" lon="6.09797">
        <ele>481.8</ele>
        <time>2024-07-31T07:09:53Z</time>
      </trkpt>
      <trkpt lat="47.25828" lon="6.09795">
        <ele>481.8</ele>
        <time>2024-07-31T07:09:54Z</time>
      </trkpt>
      <trkpt lat="47.25826" lon="6.09793">
        <ele>482.2</ele>
        <time>2024-07-31T07:09:55Z</time>
      </trkpt>
      <trkpt lat="47.25825" lon="6.09792">
        <ele>482.2</ele>
        <time>2024-07-31T07:09:56Z</time>
      </trkpt>
      <trkpt lat="47.25823" lon="6.0979">
        <ele>482.2</ele>
        <time>2024-07-31T07:09:57Z</time>
      </trkpt>
      <trkpt lat="47.25822" lon="6.09789">
        <ele>482.4</ele>
        <time>2024-07-31T07:09:58Z</time>
      </trkpt>
      <trkpt lat="47.2582" lon="6.09787">
        <ele>482.6</ele>
        <time>2024-07-31T07:09:59Z</time>
      </trkpt>
      <trkpt lat="47.25819" lon="6.09786">
        <ele>482.8</ele>
        <time>2024-07-31T07:10:00Z</time>
      </trkpt>
      <trkpt lat="47.25818" lon="6.09784">
        <ele>482.8</ele>
        <time>2024-07-31T07:10:01Z</time>
      </trkpt>
      <trkpt lat="47.25816" lon="6.09782">
        <ele>483</ele>
        <time>2024-07-31T07:10:02Z</time>
      </trkpt>
      <trkpt lat="47.25815" lon="6.0978">
        <ele>483.4</ele>
        <time>2024-07-31T07:10:03Z</time>
      </trkpt>
      <trkpt lat="47.25813" lon="6.09778">
        <ele>483.6</ele>
        <time>2024-07-31T07:10:04Z</time>
      </trkpt>
      <trkpt lat="47.25811" lon="6.09777">
        <ele>483.6</ele>
        <time>2024-07-31T07:10:05Z</time>
      </trkpt>
      <trkpt lat="47.2581" lon="6.09775">
        <ele>483.8</ele>
        <time>2024-07-31T07:10:06Z</time>
      </trkpt>
      <trkpt lat="47.25808" lon="6.09774">
        <ele>483.8</ele>
        <time>2024-07-31T07:10:07Z</time>
      </trkpt>
      <trkpt lat="47.25807" lon="6.09773">
        <ele>484</ele>
        <time>2024-07-31T07:10:08Z</time>
      </trkpt>
      <trkpt lat="47.25805" lon="6.09771">
        <ele>484</ele>
        <time>2024-07-31T07:10:09Z</time>
      </trkpt>
      <trkpt lat="47.25804" lon="6.0977">
        <ele>484.2</ele>
        <time>2024-07-31T07:10:10Z</time>
      </trkpt>
      <trkpt lat="47.25802" lon="6.09769">
        <ele>484.4</ele>
        <time>2024-07-31T07:10:11Z</time>
      </trkpt>
      <trkpt lat="47.25801" lon="6.09768">
        <ele>484.6</ele>
        <time>2024-07-31T07:10:12Z</time>
      </trkpt>
      <trkpt lat="47.25799" lon="6.09767">
        <ele>484.8</ele>
        <time>2024-07-31T07:10:13Z</time>
      </trkpt>
      <trkpt lat="47.25797" lon="6.09765">
        <ele>484.8</ele>
        <time>2024-07-31T07:10:14Z</time>
      </trkpt>
      <trkpt lat="47.25795" lon="6.09764">
        <ele>484.8</ele>
        <time>2024-07-31T07:10:15Z</time>
      </trkpt>
      <trkpt lat="47.25793" lon="6.09762">
        <ele>485</ele>
        <time>2024-07-31T07:10:16Z</time>
      </trkpt>
      <trkpt lat="47.25791" lon="6.09761">
        <ele>485.2</ele>
        <time>2024-07-31T07:10:17Z</time>
      </trkpt>
      <trkpt lat="47.2579" lon="6.0976">
        <ele>485.2</ele>
        <time>2024-07-31T07:10:18Z</time>
      </trkpt>
      <trkpt lat="47.25788" lon="6.0976">
        <ele>485.4</ele>
        <time>2024-07-31T07:10:19Z</time>
      </trkpt>
      <trkpt lat="47.25787" lon="6.09759">
        <ele>485.6</ele>
        <time>2024-07-31T07:10:20Z</time>
      </trkpt>
      <trkpt lat="47.25785" lon="6.09757">
        <ele>485.8</ele>
        <time>2024-07-31T07:10:21Z</time>
      </trkpt>
      <trkpt lat="47.25783" lon="6.09756">
        <ele>486</ele>
        <time>2024-07-31T07:10:22Z</time>
      </trkpt>
      <trkpt lat="47.25782" lon="6.09754">
        <ele>486</ele>
        <time>2024-07-31T07:10:23Z</time>
      </trkpt>
      <trkpt lat="47.2578" lon="6.09753">
        <ele>486.2</ele>
        <time>2024-07-31T07:10:24Z</time>
      </trkpt>
      <trkpt lat="47.25779" lon="6.09751">
        <ele>486.2</ele>
        <time>2024-07-31T07:10:25Z</time>
      </trkpt>
      <trkpt lat="47.25777" lon="6.0975">
        <ele>486.4</ele>
        <time>2024-07-31T07:10:26Z</time>
      </trkpt>
      <trkpt lat="47.25775" lon="6.09749">
        <ele>486.6</ele>
        <time>2024-07-31T07:10:27Z</time>
      </trkpt>
      <trkpt lat="47.25773" lon="6.09748">
        <ele>486.8</ele>
        <time>2024-07-31T07:10:28Z</time>
      </trkpt>
      <trkpt lat="47.25772" lon="6.09747">
        <ele>486.8</ele>
        <time>2024-07-31T07:10:29Z</time>
      </trkpt>
      <trkpt lat="47.2577" lon="6.09745">
        <ele>487</ele>
        <time>2024-07-31T07:10:30Z</time>
      </trkpt>
      <trkpt lat="47.25768" lon="6.09743">
        <ele>487</ele>
        <time>2024-07-31T07:10:31Z</time>
      </trkpt>
      <trkpt lat="47.25766" lon="6.09741">
        <ele>487.2</ele>
        <time>2024-07-31T07:10:32Z</time>
      </trkpt>
      <trkpt lat="47.25764" lon="6.09739">
        <ele>487.2</ele>
        <time>2024-07-31T07:10:33Z</time>
      </trkpt>
      <trkpt lat="47.25763" lon="6.09738">
        <ele>487.4</ele>
        <time>2024-07-31T07:10:34Z</time>
      </trkpt>
      <trkpt lat="47.25761" lon="6.09736">
        <ele>487.4</ele>
        <time>2024-07-31T07:10:35Z</time>
      </trkpt>
      <trkpt lat="47.25759" lon="6.09734">
        <ele>487.4</ele>
        <time>2024-07-31T07:10:36Z</time>
      </trkpt>
      <trkpt lat="47.25758" lon="6.09732">
        <ele>487.6</ele>
        <time>2024-07-31T07:10:37Z</time>
      </trkpt>
      <trkpt lat="47.25756" lon="6.0973">
        <ele>487.4</ele>
        <time>2024-07-31T07:10:38Z</time>
      </trkpt>
      <trkpt lat="47.25755" lon="6.09728">
        <ele>487.6</ele>
        <time>2024-07-31T07:10:39Z</time>
      </trkpt>
      <trkpt lat="47.25754" lon="6.09726">
        <ele>487.8</ele>
        <time>2024-07-31T07:10:40Z</time>
      </trkpt>
      <trkpt lat="47.25753" lon="6.09725">
        <ele>487.8</ele>
        <time>2024-07-31T07:10:41Z</time>
      </trkpt>
      <trkpt lat="47.25752" lon="6.09723">
        <ele>488</ele>
        <time>2024-07-31T07:10:42Z</time>
      </trkpt>
      <trkpt lat="47.2575" lon="6.09721">
        <ele>488.2</ele>
        <time>2024-07-31T07:10:43Z</time>
      </trkpt>
      <trkpt lat="47.25749" lon="6.09719">
        <ele>488.2</ele>
        <time>2024-07-31T07:10:44Z</time>
      </trkpt>
      <trkpt lat="47.25748" lon="6.09717">
        <ele>488.2</ele>
        <time>2024-07-31T07:10:45Z</time>
      </trkpt>
      <trkpt lat="47.25746" lon="6.09715">
        <ele>488.6</ele>
        <time>2024-07-31T07:10:46Z</time>
      </trkpt>
      <trkpt lat="47.25744" lon="6.09713">
        <ele>488.8</ele>
        <time>2024-07-31T07:10:47Z</time>
      </trkpt>
      <trkpt lat="47.25743" lon="6.09711">
        <ele>488.8</ele>
        <time>2024-07-31T07:10:48Z</time>
      </trkpt>
      <trkpt lat="47.25742" lon="6.0971">
        <ele>488.8</ele>
        <time>2024-07-31T07:10:49Z</time>
      </trkpt>
      <trkpt lat="47.25741" lon="6.09708">
        <ele>489</ele>
        <time>2024-07-31T07:10:50Z</time>
      </trkpt>
      <trkpt lat="47.25739" lon="6.09707">
        <ele>489</ele>
        <time>2024-07-31T07:10:51Z</time>
      </trkpt>
      <trkpt lat="47.25738" lon="6.09705">
        <ele>489.2</ele>
        <time>2024-07-31T07:10:52Z</time>
      </trkpt>
      <trkpt lat="47.25737" lon="6.09703">
        <ele>489.2</ele>
        <time>2024-07-31T07:10:53Z</time>
      </trkpt>
      <trkpt lat="47.25735" lon="6.09701">
        <ele>489.2</ele>
        <time>2024-07-31T07:10:54Z</time>
      </trkpt>
      <trkpt lat="47.25734" lon="6.09698">
        <ele>489.6</ele>
        <time>2024-07-31T07:10:55Z</time>
      </trkpt>
      <trkpt lat="47.25732" lon="6.09696">
        <ele>489.6</ele>
        <time>2024-07-31T07:10:56Z</time>
      </trkpt>
      <trkpt lat="47.2573" lon="6.09694">
        <ele>489.6</ele>
        <time>2024-07-31T07:10:57Z</time>
      </trkpt>
      <trkpt lat="47.25729" lon="6.09693">
        <ele>489.6</ele>
        <time>2024-07-31T07:10:58Z</time>
      </trkpt>
      <trkpt lat="47.25727" lon="6.09691">
        <ele>489.6</ele>
        <time>2024-07-31T07:10:59Z</time>
      </trkpt>
      <trkpt lat="47.25726" lon="6.09689">
        <ele>489.6</ele>
        <time>2024-07-31T07:11:00Z</time>
      </trkpt>
      <trkpt lat="47.25725" lon="6.09688">
        <ele>489.6</ele>
        <time>2024-07-31T07:11:01Z</time>
      </trkpt>
      <trkpt lat="47.25723" lon="6.09686">
        <ele>490</ele>
        <time>2024-07-31T07:11:02Z</time>
      </trkpt>
      <trkpt lat="47.25722" lon="6.09684">
        <ele>490</ele>
        <time>2024-07-31T07:11:03Z</time>
      </trkpt>
      <trkpt lat="47.25721" lon="6.09683">
        <ele>490</ele>
        <time>2024-07-31T07:11:04Z</time>
      </trkpt>
      <trkpt lat="47.2572" lon="6.09681">
        <ele>490.2</ele>
        <time>2024-07-31T07:11:05Z</time>
      </trkpt>
      <trkpt lat="47.25718" lon="6.0968">
        <ele>490.2</ele>
        <time>2024-07-31T07:11:06Z</time>
      </trkpt>
      <trkpt lat="47.25717" lon="6.09679">
        <ele>490.4</ele>
        <time>2024-07-31T07:11:07Z</time>
      </trkpt>
      <trkpt lat="47.25715" lon="6.09678">
        <ele>490.4</ele>
        <time>2024-07-31T07:11:08Z</time>
      </trkpt>
      <trkpt lat="47.25713" lon="6.09676">
        <ele>490.6</ele>
        <time>2024-07-31T07:11:09Z</time>
      </trkpt>
      <trkpt lat="47.25711" lon="6.09675">
        <ele>490.6</ele>
        <time>2024-07-31T07:11:10Z</time>
      </trkpt>
      <trkpt lat="47.25709" lon="6.09674">
        <ele>490.6</ele>
        <time>2024-07-31T07:11:11Z</time>
      </trkpt>
      <trkpt lat="47.25707" lon="6.09672">
        <ele>490.6</ele>
        <time>2024-07-31T07:11:12Z</time>
      </trkpt>
      <trkpt lat="47.25705" lon="6.09671">
        <ele>490.6</ele>
        <time>2024-07-31T07:11:13Z</time>
      </trkpt>
      <trkpt lat="47.25703" lon="6.0967">
        <ele>490.8</ele>
        <time>2024-07-31T07:11:14Z</time>
      </trkpt>
      <trkpt lat="47.257" lon="6.09669">
        <ele>490.8</ele>
        <time>2024-07-31T07:11:15Z</time>
      </trkpt>
      <trkpt lat="47.25697" lon="6.09667">
        <ele>491</ele>
        <time>2024-07-31T07:11:16Z</time>
      </trkpt>
      <trkpt lat="47.25695" lon="6.09667">
        <ele>491</ele>
        <time>2024-07-31T07:11:17Z</time>
      </trkpt>
      <trkpt lat="47.25692" lon="6.09666">
        <ele>491.2</ele>
        <time>2024-07-31T07:11:18Z</time>
      </trkpt>
      <trkpt lat="47.2569" lon="6.09665">
        <ele>491.4</ele>
        <time>2024-07-31T07:11:19Z</time>
      </trkpt>
      <trkpt lat="47.25688" lon="6.09664">
        <ele>491.4</ele>
        <time>2024-07-31T07:11:20Z</time>
      </trkpt>
      <trkpt lat="47.25685" lon="6.09663">
        <ele>491.4</ele>
        <time>2024-07-31T07:11:21Z</time>
      </trkpt>
      <trkpt lat="47.25683" lon="6.09663">
        <ele>491.6</ele>
        <time>2024-07-31T07:11:22Z</time>
      </trkpt>
      <trkpt lat="47.2568" lon="6.09662">
        <ele>491.8</ele>
        <time>2024-07-31T07:11:23Z</time>
      </trkpt>
      <trkpt lat="47.25678" lon="6.09662">
        <ele>491.8</ele>
        <time>2024-07-31T07:11:24Z</time>
      </trkpt>
      <trkpt lat="47.25676" lon="6.09663">
        <ele>492</ele>
        <time>2024-07-31T07:11:25Z</time>
      </trkpt>
      <trkpt lat="47.25674" lon="6.09663">
        <ele>491.8</ele>
        <time>2024-07-31T07:11:26Z</time>
      </trkpt>
      <trkpt lat="47.25671" lon="6.09663">
        <ele>492</ele>
        <time>2024-07-31T07:11:27Z</time>
      </trkpt>
      <trkpt lat="47.25669" lon="6.09662">
        <ele>492</ele>
        <time>2024-07-31T07:11:28Z</time>
      </trkpt>
      <trkpt lat="47.25667" lon="6.09662">
        <ele>492</ele>
        <time>2024-07-31T07:11:29Z</time>
      </trkpt>
      <trkpt lat="47.25664" lon="6.09663">
        <ele>492.2</ele>
        <time>2024-07-31T07:11:30Z</time>
      </trkpt>
      <trkpt lat="47.25662" lon="6.09663">
        <ele>492.4</ele>
        <time>2024-07-31T07:11:31Z</time>
      </trkpt>
      <trkpt lat="47.25659" lon="6.09664">
        <ele>492.4</ele>
        <time>2024-07-31T07:11:32Z</time>
      </trkpt>
      <trkpt lat="47.25657" lon="6.09665">
        <ele>492.4</ele>
        <time>2024-07-31T07:11:33Z</time>
      </trkpt>
      <trkpt lat="47.25655" lon="6.09666">
        <ele>492.6</ele>
        <time>2024-07-31T07:11:34Z</time>
      </trkpt>
      <trkpt lat="47.25652" lon="6.09667">
        <ele>492.6</ele>
        <time>2024-07-31T07:11:35Z</time>
      </trkpt>
      <trkpt lat="47.2565" lon="6.09668">
        <ele>492.6</ele>
        <time>2024-07-31T07:11:36Z</time>
      </trkpt>
      <trkpt lat="47.25648" lon="6.0967">
        <ele>492.8</ele>
        <time>2024-07-31T07:11:37Z</time>
      </trkpt>
      <trkpt lat="47.25647" lon="6.09672">
        <ele>493</ele>
        <time>2024-07-31T07:11:38Z</time>
      </trkpt>
      <trkpt lat="47.25645" lon="6.09674">
        <ele>493</ele>
        <time>2024-07-31T07:11:39Z</time>
      </trkpt>
      <trkpt lat="47.25643" lon="6.09676">
        <ele>493.2</ele>
        <time>2024-07-31T07:11:40Z</time>
      </trkpt>
      <trkpt lat="47.25641" lon="6.09678">
        <ele>493.4</ele>
        <time>2024-07-31T07:11:41Z</time>
      </trkpt>
      <trkpt lat="47.2564" lon="6.09681">
        <ele>493.6</ele>
        <time>2024-07-31T07:11:42Z</time>
      </trkpt>
      <trkpt lat="47.25638" lon="6.09684">
        <ele>493.6</ele>
        <time>2024-07-31T07:11:43Z</time>
      </trkpt>
      <trkpt lat="47.25637" lon="6.09686">
        <ele>493.6</ele>
        <time>2024-07-31T07:11:44Z</time>
      </trkpt>
      <trkpt lat="47.25635" lon="6.09689">
        <ele>494</ele>
        <time>2024-07-31T07:11:45Z</time>
      </trkpt>
      <trkpt lat="47.25634" lon="6.09691">
        <ele>494.2</ele>
        <time>2024-07-31T07:11:46Z</time>
      </trkpt>
      <trkpt lat="47.25632" lon="6.09694">
        <ele>494.4</ele>
        <time>2024-07-31T07:11:47Z</time>
      </trkpt>
      <trkpt lat="47.25631" lon="6.09697">
        <ele>494.2</ele>
        <time>2024-07-31T07:11:48Z</time>
      </trkpt>
      <trkpt lat="47.2563" lon="6.097">
        <ele>494.6</ele>
        <time>2024-07-31T07:11:49Z</time>
      </trkpt>
      <trkpt lat="47.25628" lon="6.09703">
        <ele>494.8</ele>
        <time>2024-07-31T07:11:50Z</time>
      </trkpt>
      <trkpt lat="47.25627" lon="6.09706">
        <ele>494.8</ele>
        <time>2024-07-31T07:11:51Z</time>
      </trkpt>
      <trkpt lat="47.25626" lon="6.09709">
        <ele>495</ele>
        <time>2024-07-31T07:11:52Z</time>
      </trkpt>
      <trkpt lat="47.25624" lon="6.09711">
        <ele>495.2</ele>
        <time>2024-07-31T07:11:53Z</time>
      </trkpt>
      <trkpt lat="47.25623" lon="6.09714">
        <ele>495.4</ele>
        <time>2024-07-31T07:11:54Z</time>
      </trkpt>
      <trkpt lat="47.25622" lon="6.09717">
        <ele>495.6</ele>
        <time>2024-07-31T07:11:55Z</time>
      </trkpt>
      <trkpt lat="47.25621" lon="6.0972">
        <ele>495.8</ele>
        <time>2024-07-31T07:11:56Z</time>
      </trkpt>
      <trkpt lat="47.2562" lon="6.09723">
        <ele>495.8</ele>
        <time>2024-07-31T07:11:57Z</time>
      </trkpt>
      <trkpt lat="47.25618" lon="6.09726">
        <ele>495.8</ele>
        <time>2024-07-31T07:11:58Z</time>
      </trkpt>
      <trkpt lat="47.25617" lon="6.09729">
        <ele>495.8</ele>
        <time>2024-07-31T07:11:59Z</time>
      </trkpt>
      <trkpt lat="47.25616" lon="6.09732">
        <ele>495.8</ele>
        <time>2024-07-31T07:12:00Z</time>
      </trkpt>
      <trkpt lat="47.25615" lon="6.09734">
        <ele>496.2</ele>
        <time>2024-07-31T07:12:01Z</time>
      </trkpt>
      <trkpt lat="47.25613" lon="6.09737">
        <ele>496.2</ele>
        <time>2024-07-31T07:12:02Z</time>
      </trkpt>
      <trkpt lat="47.25612" lon="6.0974">
        <ele>496.6</ele>
        <time>2024-07-31T07:12:03Z</time>
      </trkpt>
      <trkpt lat="47.2561" lon="6.09743">
        <ele>496.6</ele>
        <time>2024-07-31T07:12:04Z</time>
      </trkpt>
      <trkpt lat="47.25609" lon="6.09746">
        <ele>496.6</ele>
        <time>2024-07-31T07:12:05Z</time>
      </trkpt>
      <trkpt lat="47.25608" lon="6.09749">
        <ele>496.8</ele>
        <time>2024-07-31T07:12:06Z</time>
      </trkpt>
      <trkpt lat="47.25606" lon="6.09752">
        <ele>497</ele>
        <time>2024-07-31T07:12:07Z</time>
      </trkpt>
      <trkpt lat="47.25605" lon="6.09755">
        <ele>496.8</ele>
        <time>2024-07-31T07:12:08Z</time>
      </trkpt>
      <trkpt lat="47.25603" lon="6.09758">
        <ele>497</ele>
        <time>2024-07-31T07:12:09Z</time>
      </trkpt>
      <trkpt lat="47.25602" lon="6.09761">
        <ele>497</ele>
        <time>2024-07-31T07:12:10Z</time>
      </trkpt>
      <trkpt lat="47.25601" lon="6.09764">
        <ele>497</ele>
        <time>2024-07-31T07:12:11Z</time>
      </trkpt>
      <trkpt lat="47.25599" lon="6.09767">
        <ele>497.2</ele>
        <time>2024-07-31T07:12:12Z</time>
      </trkpt>
      <trkpt lat="47.25598" lon="6.0977">
        <ele>497.4</ele>
        <time>2024-07-31T07:12:13Z</time>
      </trkpt>
      <trkpt lat="47.25597" lon="6.09773">
        <ele>497.6</ele>
        <time>2024-07-31T07:12:14Z</time>
      </trkpt>
      <trkpt lat="47.25595" lon="6.09776">
        <ele>497.6</ele>
        <time>2024-07-31T07:12:15Z</time>
      </trkpt>
      <trkpt lat="47.25594" lon="6.09779">
        <ele>497.6</ele>
        <time>2024-07-31T07:12:16Z</time>
      </trkpt>
      <trkpt lat="47.25593" lon="6.09782">
        <ele>497.6</ele>
        <time>2024-07-31T07:12:17Z</time>
      </trkpt>
      <trkpt lat="47.25591" lon="6.09784">
        <ele>497.6</ele>
        <time>2024-07-31T07:12:18Z</time>
      </trkpt>
      <trkpt lat="47.2559" lon="6.09787">
        <ele>497.6</ele>
        <time>2024-07-31T07:12:19Z</time>
      </trkpt>
      <trkpt lat="47.25589" lon="6.09789">
        <ele>497.6</ele>
        <time>2024-07-31T07:12:20Z</time>
      </trkpt>
      <trkpt lat="47.25588" lon="6.09789">
        <ele>497.8</ele>
        <time>2024-07-31T07:12:21Z</time>
      </trkpt>
      <trkpt lat="47.25588" lon="6.0979">
        <ele>497.8</ele>
        <time>2024-07-31T07:12:22Z</time>
      </trkpt>
      <trkpt lat="47.25588" lon="6.09791">
        <ele>497.8</ele>
        <time>2024-07-31T07:12:23Z</time>
      </trkpt>
      <trkpt lat="47.25588" lon="6.09791">
        <ele>497.8</ele>
        <time>2024-07-31T07:12:24Z</time>
      </trkpt>
      <trkpt lat="47.25589" lon="6.0979">
        <ele>497.8</ele>
        <time>2024-07-31T07:12:25Z</time>
      </trkpt>
      <trkpt lat="47.2559" lon="6.09788">
        <ele>497.8</ele>
        <time>2024-07-31T07:12:26Z</time>
      </trkpt>
      <trkpt lat="47.2559" lon="6.09787">
        <ele>497.6</ele>
        <time>2024-07-31T07:12:27Z</time>
      </trkpt>
      <trkpt lat="47.25592" lon="6.09785">
        <ele>497.6</ele>
        <time>2024-07-31T07:12:28Z</time>
      </trkpt>
      <trkpt lat="47.25593" lon="6.09783">
        <ele>497.4</ele>
        <time>2024-07-31T07:12:29Z</time>
      </trkpt>
      <trkpt lat="47.25594" lon="6.09781">
        <ele>497.4</ele>
        <time>2024-07-31T07:12:30Z</time>
      </trkpt>
      <trkpt lat="47.25595" lon="6.09779">
        <ele>497.4</ele>
        <time>2024-07-31T07:12:31Z</time>
      </trkpt>
      <trkpt lat="47.25597" lon="6.09776">
        <ele>497.2</ele>
        <time>2024-07-31T07:12:32Z</time>
      </trkpt>
      <trkpt lat="47.25598" lon="6.09774">
        <ele>497.2</ele>
        <time>2024-07-31T07:12:33Z</time>
      </trkpt>
      <trkpt lat="47.25599" lon="6.09772">
        <ele>497.2</ele>
        <time>2024-07-31T07:12:34Z</time>
      </trkpt>
      <trkpt lat="47.25599" lon="6.09769">
        <ele>497.2</ele>
        <time>2024-07-31T07:12:35Z</time>
      </trkpt>
      <trkpt lat="47.256" lon="6.09768">
        <ele>497</ele>
        <time>2024-07-31T07:12:36Z</time>
      </trkpt>
      <trkpt lat="47.25601" lon="6.09766">
        <ele>497</ele>
        <time>2024-07-31T07:12:37Z</time>
      </trkpt>
      <trkpt lat="47.25601" lon="6.09765">
        <ele>497</ele>
        <time>2024-07-31T07:12:38Z</time>
      </trkpt>
      <trkpt lat="47.25601" lon="6.09763">
        <ele>497</ele>
        <time>2024-07-31T07:12:39Z</time>
      </trkpt>
      <trkpt lat="47.25602" lon="6.09762">
        <ele>496.8</ele>
        <time>2024-07-31T07:12:40Z</time>
      </trkpt>
      <trkpt lat="47.25602" lon="6.0976">
        <ele>496.8</ele>
        <time>2024-07-31T07:12:41Z</time>
      </trkpt>
      <trkpt lat="47.25603" lon="6.09758">
        <ele>496.8</ele>
        <time>2024-07-31T07:12:42Z</time>
      </trkpt>
      <trkpt lat="47.25603" lon="6.09756">
        <ele>497</ele>
        <time>2024-07-31T07:12:43Z</time>
      </trkpt>
      <trkpt lat="47.25603" lon="6.09754">
        <ele>496.8</ele>
        <time>2024-07-31T07:12:44Z</time>
      </trkpt>
      <trkpt lat="47.25602" lon="6.09752">
        <ele>496.8</ele>
        <time>2024-07-31T07:12:45Z</time>
      </trkpt>
      <trkpt lat="47.25602" lon="6.09751">
        <ele>496.8</ele>
        <time>2024-07-31T07:12:46Z</time>
      </trkpt>
      <trkpt lat="47.25602" lon="6.09749">
        <ele>497</ele>
        <time>2024-07-31T07:12:47Z</time>
      </trkpt>
      <trkpt lat="47.25601" lon="6.09748">
        <ele>497.2</ele>
        <time>2024-07-31T07:12:48Z</time>
      </trkpt>
      <trkpt lat="47.256" lon="6.09747">
        <ele>497.4</ele>
        <time>2024-07-31T07:12:49Z</time>
      </trkpt>
      <trkpt lat="47.25599" lon="6.09746">
        <ele>497.4</ele>
        <time>2024-07-31T07:12:50Z</time>
      </trkpt>
      <trkpt lat="47.25597" lon="6.09745">
        <ele>497.6</ele>
        <time>2024-07-31T07:12:51Z</time>
      </trkpt>
      <trkpt lat="47.25596" lon="6.09744">
        <ele>497.6</ele>
        <time>2024-07-31T07:12:52Z</time>
      </trkpt>
      <trkpt lat="47.25595" lon="6.09743">
        <ele>497.8</ele>
        <time>2024-07-31T07:12:53Z</time>
      </trkpt>
      <trkpt lat="47.25594" lon="6.09742">
        <ele>497.8</ele>
        <time>2024-07-31T07:12:54Z</time>
      </trkpt>
      <trkpt lat="47.25593" lon="6.09741">
        <ele>497.8</ele>
        <time>2024-07-31T07:12:55Z</time>
      </trkpt>
      <trkpt lat="47.25592" lon="6.09741">
        <ele>498.2</ele>
        <time>2024-07-31T07:12:56Z</time>
      </trkpt>
      <trkpt lat="47.25592" lon="6.0974">
        <ele>498.4</ele>
        <time>2024-07-31T07:12:57Z</time>
      </trkpt>
      <trkpt lat="47.25591" lon="6.09739">
        <ele>498.8</ele>
        <time>2024-07-31T07:12:58Z</time>
      </trkpt>
      <trkpt lat="47.2559" lon="6.09739">
        <ele>498.8</ele>
        <time>2024-07-31T07:12:59Z</time>
      </trkpt>
      <trkpt lat="47.25589" lon="6.09739">
        <ele>498.8</ele>
        <time>2024-07-31T07:13:00Z</time>
      </trkpt>
      <trkpt lat="47.25589" lon="6.09739">
        <ele>498.6</ele>
        <time>2024-07-31T07:13:01Z</time>
      </trkpt>
      <trkpt lat="47.25589" lon="6.09739">
        <ele>498.6</ele>
        <time>2024-07-31T07:13:02Z</time>
      </trkpt>
      <trkpt lat="47.25589" lon="6.09739">
        <ele>498.6</ele>
        <time>2024-07-31T07:13:03Z</time>
      </trkpt>
      <trkpt lat="47.25589" lon="6.09739">
        <ele>498.6</ele>
        <time>2024-07-31T07:13:04Z</time>
      </trkpt>
      <trkpt lat="47.25589" lon="6.09739">
        <ele>498.6</ele>
        <time>2024-07-31T07:13:05Z</time>
      </trkpt>
      <trkpt lat="47.25589" lon="6.09739">
        <ele>498.6</ele>
        <time>2024-07-31T07:13:06Z</time>
      </trkpt>
      <trkpt lat="47.25589" lon="6.09739">
        <ele>498.6</ele>
        <time>2024-07-31T07:13:07Z</time>
      </trkpt>
      <trkpt lat="47.25589" lon="6.09739">
        <ele>498.6</ele>
        <time>2024-07-31T07:13:08Z</time>
      </trkpt>
      <trkpt lat="47.25589" lon="6.09739">
        <ele>498.6</ele>
        <time>2024-07-31T07:13:09Z</time>
      </trkpt>
      <trkpt lat="47.25589" lon="6.09739">
        <ele>498.6</ele>
        <time>2024-07-31T07:13:10Z</time>
      </trkpt>
      <trkpt lat="47.25589" lon="6.09739">
        <ele>498.8</ele>
        <time>2024-07-31T07:13:11Z</time>
      </trkpt>
      <trkpt lat="47.25589" lon="6.09739">
        <ele>498.6</ele>
        <time>2024-07-31T07:13:12Z</time>
      </trkpt>
      <trkpt lat="47.25589" lon="6.09739">
        <ele>498.6</ele>
        <time>2024-07-31T07:13:13Z</time>
      </trkpt>
      <trkpt lat="47.25589" lon="6.09739">
        <ele>498.6</ele>
        <time>2024-07-31T07:13:14Z</time>
      </trkpt>
      <trkpt lat="47.25589" lon="6.09739">
        <ele>498.6</ele>
        <time>2024-07-31T07:13:15Z</time>
      </trkpt>
      <trkpt lat="47.25589" lon="6.09739">
        <ele>498.4</ele>
        <time>2024-07-31T07:13:16Z</time>
      </trkpt>
      <trkpt lat="47.25589" lon="6.09739">
        <ele>498.6</ele>
        <time>2024-07-31T07:13:17Z</time>
      </trkpt>
      <trkpt lat="47.25589" lon="6.09739">
        <ele>498.6</ele>
        <time>2024-07-31T07:13:18Z</time>
      </trkpt>
      <trkpt lat="47.25589" lon="6.09739">
        <ele>498.6</ele>
        <time>2024-07-31T07:13:19Z</time>
      </trkpt>
      <trkpt lat="47.25589" lon="6.09739">
        <ele>498.6</ele>
        <time>2024-07-31T07:13:20Z</time>
      </trkpt>
      <trkpt lat="47.25589" lon="6.09739">
        <ele>498.6</ele>
        <time>2024-07-31T07:13:21Z</time>
      </trkpt>
      <trkpt lat="47.25589" lon="6.09739">
        <ele>498.6</ele>
        <time>2024-07-31T07:13:22Z</time>
      </trkpt>
      <trkpt lat="47.25589" lon="6.09739">
        <ele>498.6</ele>
        <time>2024-07-31T07:13:23Z</time>
      </trkpt>
      <trkpt lat="47.25589" lon="6.09739">
        <ele>498.4</ele>
        <time>2024-07-31T07:13:24Z</time>
      </trkpt>
      <trkpt lat="47.25589" lon="6.09739">
        <ele>498.4</ele>
        <time>2024-07-31T07:13:25Z</time>
      </trkpt>
      <trkpt lat="47.25589" lon="6.09739">
        <ele>498.4</ele>
        <time>2024-07-31T07:13:26Z</time>
      </trkpt>
      <trkpt lat="47.25589" lon="6.09739">
        <ele>498.4</ele>
        <time>2024-07-31T07:13:27Z</time>
      </trkpt>
      <trkpt lat="47.25589" lon="6.09739">
        <ele>498.4</ele>
        <time>2024-07-31T07:13:28Z</time>
      </trkpt>
      <trkpt lat="47.25589" lon="6.09739">
        <ele>498.4</ele>
        <time>2024-07-31T07:13:29Z</time>
      </trkpt>
      <trkpt lat="47.25589" lon="6.09739">
        <ele>498.4</ele>
        <time>2024-07-31T07:13:30Z</time>
      </trkpt>
      <trkpt lat="47.25589" lon="6.09739">
        <ele>498.4</ele>
        <time>2024-07-31T07:13:31Z</time>
      </trkpt>
      <trkpt lat="47.25589" lon="6.09739">
        <ele>498.4</ele>
        <time>2024-07-31T07:13:32Z</time>
      </trkpt>
      <trkpt lat="47.25589" lon="6.09739">
        <ele>498.6</ele>
        <time>2024-07-31T07:13:33Z</time>
      </trkpt>
      <trkpt lat="47.25589" lon="6.09739">
        <ele>498.6</ele>
        <time>2024-07-31T07:13:34Z</time>
      </trkpt>
      <trkpt lat="47.25589" lon="6.09739">
        <ele>498.4</ele>
        <time>2024-07-31T07:13:35Z</time>
      </trkpt>
      <trkpt lat="47.25589" lon="6.09739">
        <ele>498.6</ele>
        <time>2024-07-31T07:13:36Z</time>
      </trkpt>
      <trkpt lat="47.25589" lon="6.09739">
        <ele>498.6</ele>
        <time>2024-07-31T07:13:37Z</time>
      </trkpt>
      <trkpt lat="47.25589" lon="6.09739">
        <ele>498.6</ele>
        <time>2024-07-31T07:13:38Z</time>
      </trkpt>
      <trkpt lat="47.25589" lon="6.09739">
        <ele>498.6</ele>
        <time>2024-07-31T07:13:39Z</time>
      </trkpt>
      <trkpt lat="47.25589" lon="6.0974">
        <ele>498.6</ele>
        <time>2024-07-31T07:13:40Z</time>
      </trkpt>
      <trkpt lat="47.25589" lon="6.0974">
        <ele>498.6</ele>
        <time>2024-07-31T07:13:41Z</time>
      </trkpt>
      <trkpt lat="47.25589" lon="6.09739">
        <ele>498.6</ele>
        <time>2024-07-31T07:13:42Z</time>
      </trkpt>
      <trkpt lat="47.25589" lon="6.09739">
        <ele>498.6</ele>
        <time>2024-07-31T07:13:43Z</time>
      </trkpt>
      <trkpt lat="47.25589" lon="6.09739">
        <ele>498.6</ele>
        <time>2024-07-31T07:13:44Z</time>
      </trkpt>
      <trkpt lat="47.25589" lon="6.09739">
        <ele>498.6</ele>
        <time>2024-07-31T07:13:45Z</time>
      </trkpt>
      <trkpt lat="47.25589" lon="6.09739">
        <ele>498.6</ele>
        <time>2024-07-31T07:13:46Z</time>
      </trkpt>
      <trkpt lat="47.25589" lon="6.09739">
        <ele>498.6</ele>
        <time>2024-07-31T07:13:47Z</time>
      </trkpt>
      <trkpt lat="47.25589" lon="6.09739">
        <ele>498.4</ele>
        <time>2024-07-31T07:13:48Z</time>
      </trkpt>
      <trkpt lat="47.25589" lon="6.09739">
        <ele>498.6</ele>
        <time>2024-07-31T07:13:49Z</time>
      </trkpt>
      <trkpt lat="47.25589" lon="6.09739">
        <ele>498.6</ele>
        <time>2024-07-31T07:13:50Z</time>
      </trkpt>
      <trkpt lat="47.25589" lon="6.09739">
        <ele>498.6</ele>
        <time>2024-07-31T07:13:51Z</time>
      </trkpt>
      <trkpt lat="47.25589" lon="6.09739">
        <ele>498.6</ele>
        <time>2024-07-31T07:13:52Z</time>
      </trkpt>
      <trkpt lat="47.25589" lon="6.09739">
        <ele>498.4</ele>
        <time>2024-07-31T07:13:53Z</time>
      </trkpt>
      <trkpt lat="47.25589" lon="6.09739">
        <ele>498.4</ele>
        <time>2024-07-31T07:13:54Z</time>
      </trkpt>
      <trkpt lat="47.25589" lon="6.09739">
        <ele>498.4</ele>
        <time>2024-07-31T07:13:55Z</time>
      </trkpt>
      <trkpt lat="47.25589" lon="6.09739">
        <ele>498.4</ele>
        <time>2024-07-31T07:13:56Z</time>
      </trkpt>
      <trkpt lat="47.25589" lon="6.09739">
        <ele>498.2</ele>
        <time>2024-07-31T07:13:57Z</time>
      </trkpt>
      <trkpt lat="47.25589" lon="6.09739">
        <ele>498.4</ele>
        <time>2024-07-31T07:13:58Z</time>
      </trkpt>
      <trkpt lat="47.25589" lon="6.0974">
        <ele>498.4</ele>
        <time>2024-07-31T07:13:59Z</time>
      </trkpt>
      <trkpt lat="47.25589" lon="6.0974">
        <ele>498.2</ele>
        <time>2024-07-31T07:14:00Z</time>
      </trkpt>
      <trkpt lat="47.25589" lon="6.0974">
        <ele>498.2</ele>
        <time>2024-07-31T07:14:01Z</time>
      </trkpt>
      <trkpt lat="47.25589" lon="6.0974">
        <ele>498.4</ele>
        <time>2024-07-31T07:14:02Z</time>
      </trkpt>
      <trkpt lat="47.25589" lon="6.0974">
        <ele>498.4</ele>
        <time>2024-07-31T07:14:03Z</time>
      </trkpt>
      <trkpt lat="47.25589" lon="6.0974">
        <ele>498.4</ele>
        <time>2024-07-31T07:14:04Z</time>
      </trkpt>
      <trkpt lat="47.25589" lon="6.0974">
        <ele>498.4</ele>
        <time>2024-07-31T07:14:05Z</time>
      </trkpt>
      <trkpt lat="47.25589" lon="6.0974">
        <ele>498.4</ele>
        <time>2024-07-31T07:14:06Z</time>
      </trkpt>
      <trkpt lat="47.25589" lon="6.0974">
        <ele>498.4</ele>
        <time>2024-07-31T07:14:07Z</time>
      </trkpt>
      <trkpt lat="47.25589" lon="6.0974">
        <ele>498.4</ele>
        <time>2024-07-31T07:14:08Z</time>
      </trkpt>
      <trkpt lat="47.25589" lon="6.0974">
        <ele>498.4</ele>
        <time>2024-07-31T07:14:09Z</time>
      </trkpt>
      <trkpt lat="47.25589" lon="6.0974">
        <ele>498.6</ele>
        <time>2024-07-31T07:14:10Z</time>
      </trkpt>
      <trkpt lat="47.2559" lon="6.0974">
        <ele>498.6</ele>
        <time>2024-07-31T07:14:11Z</time>
      </trkpt>
      <trkpt lat="47.2559" lon="6.0974">
        <ele>498.4</ele>
        <time>2024-07-31T07:14:12Z</time>
      </trkpt>
      <trkpt lat="47.2559" lon="6.09741">
        <ele>498.4</ele>
        <time>2024-07-31T07:14:13Z</time>
      </trkpt>
      <trkpt lat="47.2559" lon="6.09741">
        <ele>498.6</ele>
        <time>2024-07-31T07:14:14Z</time>
      </trkpt>
      <trkpt lat="47.25591" lon="6.09742">
        <ele>498.4</ele>
        <time>2024-07-31T07:14:15Z</time>
      </trkpt>
      <trkpt lat="47.25591" lon="6.09743">
        <ele>498.2</ele>
        <time>2024-07-31T07:14:16Z</time>
      </trkpt>
      <trkpt lat="47.25592" lon="6.09744">
        <ele>498.4</ele>
        <time>2024-07-31T07:14:17Z</time>
      </trkpt>
      <trkpt lat="47.25592" lon="6.09745">
        <ele>498.4</ele>
        <time>2024-07-31T07:14:18Z</time>
      </trkpt>
      <trkpt lat="47.25592" lon="6.09745">
        <ele>498.2</ele>
        <time>2024-07-31T07:14:19Z</time>
      </trkpt>
      <trkpt lat="47.25592" lon="6.09746">
        <ele>498.2</ele>
        <time>2024-07-31T07:14:20Z</time>
      </trkpt>
      <trkpt lat="47.25592" lon="6.09746">
        <ele>498.2</ele>
        <time>2024-07-31T07:14:21Z</time>
      </trkpt>
      <trkpt lat="47.25592" lon="6.09746">
        <ele>498.2</ele>
        <time>2024-07-31T07:14:22Z</time>
      </trkpt>
      <trkpt lat="47.25592" lon="6.09746">
        <ele>498.2</ele>
        <time>2024-07-31T07:14:23Z</time>
      </trkpt>
      <trkpt lat="47.25592" lon="6.09746">
        <ele>498.2</ele>
        <time>2024-07-31T07:14:24Z</time>
      </trkpt>
      <trkpt lat="47.25592" lon="6.09746">
        <ele>498.2</ele>
        <time>2024-07-31T07:14:25Z</time>
      </trkpt>
      <trkpt lat="47.25592" lon="6.09746">
        <ele>498.2</ele>
        <time>2024-07-31T07:14:26Z</time>
      </trkpt>
      <trkpt lat="47.25592" lon="6.09746">
        <ele>498</ele>
        <time>2024-07-31T07:14:27Z</time>
      </trkpt>
      <trkpt lat="47.25592" lon="6.09746">
        <ele>498.2</ele>
        <time>2024-07-31T07:14:28Z</time>
      </trkpt>
      <trkpt lat="47.25592" lon="6.09746">
        <ele>498</ele>
        <time>2024-07-31T07:14:29Z</time>
      </trkpt>
      <trkpt lat="47.25592" lon="6.09746">
        <ele>498</ele>
        <time>2024-07-31T07:14:30Z</time>
      </trkpt>
      <trkpt lat="47.25592" lon="6.09746">
        <ele>498</ele>
        <time>2024-07-31T07:14:31Z</time>
      </trkpt>
      <trkpt lat="47.25592" lon="6.09746">
        <ele>498.2</ele>
        <time>2024-07-31T07:14:32Z</time>
      </trkpt>
      <trkpt lat="47.25592" lon="6.09746">
        <ele>498.2</ele>
        <time>2024-07-31T07:14:33Z</time>
      </trkpt>
      <trkpt lat="47.25592" lon="6.09746">
        <ele>498.2</ele>
        <time>2024-07-31T07:14:34Z</time>
      </trkpt>
      <trkpt lat="47.25592" lon="6.09746">
        <ele>498</ele>
        <time>2024-07-31T07:14:35Z</time>
      </trkpt>
      <trkpt lat="47.25592" lon="6.09746">
        <ele>498.2</ele>
        <time>2024-07-31T07:14:36Z</time>
      </trkpt>
      <trkpt lat="47.25592" lon="6.09746">
        <ele>498.2</ele>
        <time>2024-07-31T07:14:37Z</time>
      </trkpt>
      <trkpt lat="47.25592" lon="6.09746">
        <ele>498.2</ele>
        <time>2024-07-31T07:14:38Z</time>
      </trkpt>
      <trkpt lat="47.25592" lon="6.09746">
        <ele>498.2</ele>
        <time>2024-07-31T07:14:39Z</time>
      </trkpt>
      <trkpt lat="47.25592" lon="6.09746">
        <ele>498.2</ele>
        <time>2024-07-31T07:14:40Z</time>
      </trkpt>
      <trkpt lat="47.25592" lon="6.09746">
        <ele>498.2</ele>
        <time>2024-07-31T07:14:41Z</time>
      </trkpt>
      <trkpt lat="47.25592" lon="6.09746">
        <ele>498.2</ele>
        <time>2024-07-31T07:14:42Z</time>
      </trkpt>
      <trkpt lat="47.25592" lon="6.09746">
        <ele>498</ele>
        <time>2024-07-31T07:14:43Z</time>
      </trkpt>
      <trkpt lat="47.25592" lon="6.09746">
        <ele>498.2</ele>
        <time>2024-07-31T07:14:44Z</time>
      </trkpt>
      <trkpt lat="47.25592" lon="6.09746">
        <ele>498.2</ele>
        <time>2024-07-31T07:14:45Z</time>
      </trkpt>
      <trkpt lat="47.25592" lon="6.09746">
        <ele>498.2</ele>
        <time>2024-07-31T07:14:46Z</time>
      </trkpt>
      <trkpt lat="47.25592" lon="6.09746">
        <ele>498.2</ele>
        <time>2024-07-31T07:14:47Z</time>
      </trkpt>
      <trkpt lat="47.25592" lon="6.09746">
        <ele>498.2</ele>
        <time>2024-07-31T07:14:48Z</time>
      </trkpt>
      <trkpt lat="47.25592" lon="6.09746">
        <ele>498.2</ele>
        <time>2024-07-31T07:14:49Z</time>
      </trkpt>
      <trkpt lat="47.25592" lon="6.09745">
        <ele>498.2</ele>
        <time>2024-07-31T07:14:50Z</time>
      </trkpt>
      <trkpt lat="47.25592" lon="6.09745">
        <ele>498.2</ele>
        <time>2024-07-31T07:14:51Z</time>
      </trkpt>
      <trkpt lat="47.25592" lon="6.09746">
        <ele>498</ele>
        <time>2024-07-31T07:14:52Z</time>
      </trkpt>
      <trkpt lat="47.25592" lon="6.09746">
        <ele>498</ele>
        <time>2024-07-31T07:14:53Z</time>
      </trkpt>
      <trkpt lat="47.25592" lon="6.09746">
        <ele>498.2</ele>
        <time>2024-07-31T07:14:54Z</time>
      </trkpt>
      <trkpt lat="47.25592" lon="6.09746">
        <ele>498.2</ele>
        <time>2024-07-31T07:14:55Z</time>
      </trkpt>
      <trkpt lat="47.25592" lon="6.09746">
        <ele>498.2</ele>
        <time>2024-07-31T07:14:56Z</time>
      </trkpt>
      <trkpt lat="47.25592" lon="6.09746">
        <ele>498.2</ele>
        <time>2024-07-31T07:14:57Z</time>
      </trkpt>
      <trkpt lat="47.25592" lon="6.09746">
        <ele>498.2</ele>
        <time>2024-07-31T07:14:58Z</time>
      </trkpt>
      <trkpt lat="47.25592" lon="6.09746">
        <ele>498</ele>
        <time>2024-07-31T07:14:59Z</time>
      </trkpt>
      <trkpt lat="47.25592" lon="6.09746">
        <ele>498</ele>
        <time>2024-07-31T07:15:00Z</time>
      </trkpt>
      <trkpt lat="47.25592" lon="6.09746">
        <ele>498.2</ele>
        <time>2024-07-31T07:15:01Z</time>
      </trkpt>
      <trkpt lat="47.25592" lon="6.09746">
        <ele>498</ele>
        <time>2024-07-31T07:15:02Z</time>
      </trkpt>
      <trkpt lat="47.25592" lon="6.09746">
        <ele>498</ele>
        <time>2024-07-31T07:15:03Z</time>
      </trkpt>
      <trkpt lat="47.25592" lon="6.09746">
        <ele>498.2</ele>
        <time>2024-07-31T07:15:04Z</time>
      </trkpt>
      <trkpt lat="47.25592" lon="6.09746">
        <ele>498.2</ele>
        <time>2024-07-31T07:15:05Z</time>
      </trkpt>
      <trkpt lat="47.25592" lon="6.09746">
        <ele>498.2</ele>
        <time>2024-07-31T07:15:06Z</time>
      </trkpt>
      <trkpt lat="47.25592" lon="6.09746">
        <ele>498.4</ele>
        <time>2024-07-31T07:15:07Z</time>
      </trkpt>
      <trkpt lat="47.25592" lon="6.09746">
        <ele>498.2</ele>
        <time>2024-07-31T07:15:08Z</time>
      </trkpt>
      <trkpt lat="47.25592" lon="6.09746">
        <ele>498.2</ele>
        <time>2024-07-31T07:15:09Z</time>
      </trkpt>
      <trkpt lat="47.25592" lon="6.09746">
        <ele>498.2</ele>
        <time>2024-07-31T07:15:10Z</time>
      </trkpt>
      <trkpt lat="47.25592" lon="6.09746">
        <ele>498.2</ele>
        <time>2024-07-31T07:15:11Z</time>
      </trkpt>
      <trkpt lat="47.25592" lon="6.09746">
        <ele>498.4</ele>
        <time>2024-07-31T07:15:12Z</time>
      </trkpt>
      <trkpt lat="47.25592" lon="6.09746">
        <ele>498.4</ele>
        <time>2024-07-31T07:15:13Z</time>
      </trkpt>
      <trkpt lat="47.25592" lon="6.09746">
        <ele>498.4</ele>
        <time>2024-07-31T07:15:14Z</time>
      </trkpt>
      <trkpt lat="47.25592" lon="6.09746">
        <ele>498.4</ele>
        <time>2024-07-31T07:15:15Z</time>
      </trkpt>
      <trkpt lat="47.25592" lon="6.09746">
        <ele>498.4</ele>
        <time>2024-07-31T07:15:16Z</time>
      </trkpt>
      <trkpt lat="47.25592" lon="6.09746">
        <ele>498.4</ele>
        <time>2024-07-31T07:15:17Z</time>
      </trkpt>
      <trkpt lat="47.25592" lon="6.09746">
        <ele>498.4</ele>
        <time>2024-07-31T07:15:18Z</time>
      </trkpt>
      <trkpt lat="47.25592" lon="6.09747">
        <ele>498.2</ele>
        <time>2024-07-31T07:15:19Z</time>
      </trkpt>
      <trkpt lat="47.25593" lon="6.09748">
        <ele>498.2</ele>
        <time>2024-07-31T07:15:20Z</time>
      </trkpt>
      <trkpt lat="47.25593" lon="6.09749">
        <ele>498.2</ele>
        <time>2024-07-31T07:15:21Z</time>
      </trkpt>
      <trkpt lat="47.25594" lon="6.09749">
        <ele>498.2</ele>
        <time>2024-07-31T07:15:22Z</time>
      </trkpt>
      <trkpt lat="47.25595" lon="6.09751">
        <ele>498.2</ele>
        <time>2024-07-31T07:15:23Z</time>
      </trkpt>
      <trkpt lat="47.25595" lon="6.09752">
        <ele>498</ele>
        <time>2024-07-31T07:15:24Z</time>
      </trkpt>
      <trkpt lat="47.25595" lon="6.09754">
        <ele>498</ele>
        <time>2024-07-31T07:15:25Z</time>
      </trkpt>
      <trkpt lat="47.25596" lon="6.09755">
        <ele>497.8</ele>
        <time>2024-07-31T07:15:26Z</time>
      </trkpt>
      <trkpt lat="47.25597" lon="6.09756">
        <ele>498</ele>
        <time>2024-07-31T07:15:27Z</time>
      </trkpt>
      <trkpt lat="47.25597" lon="6.09758">
        <ele>497.8</ele>
        <time>2024-07-31T07:15:28Z</time>
      </trkpt>
      <trkpt lat="47.25598" lon="6.0976">
        <ele>497.8</ele>
        <time>2024-07-31T07:15:29Z</time>
      </trkpt>
      <trkpt lat="47.25598" lon="6.09763">
        <ele>497.8</ele>
        <time>2024-07-31T07:15:30Z</time>
      </trkpt>
      <trkpt lat="47.25598" lon="6.09765">
        <ele>498</ele>
        <time>2024-07-31T07:15:31Z</time>
      </trkpt>
      <trkpt lat="47.25598" lon="6.09767">
        <ele>498</ele>
        <time>2024-07-31T07:15:32Z</time>
      </trkpt>
      <trkpt lat="47.25597" lon="6.09769">
        <ele>498</ele>
        <time>2024-07-31T07:15:33Z</time>
      </trkpt>
      <trkpt lat="47.25596" lon="6.09771">
        <ele>498.2</ele>
        <time>2024-07-31T07:15:34Z</time>
      </trkpt>
      <trkpt lat="47.25596" lon="6.09774">
        <ele>498</ele>
        <time>2024-07-31T07:15:35Z</time>
      </trkpt>
      <trkpt lat="47.25595" lon="6.09777">
        <ele>498</ele>
        <time>2024-07-31T07:15:36Z</time>
      </trkpt>
      <trkpt lat="47.25594" lon="6.0978">
        <ele>498.2</ele>
        <time>2024-07-31T07:15:37Z</time>
      </trkpt>
      <trkpt lat="47.25593" lon="6.09782">
        <ele>498.4</ele>
        <time>2024-07-31T07:15:38Z</time>
      </trkpt>
      <trkpt lat="47.25592" lon="6.09785">
        <ele>498.6</ele>
        <time>2024-07-31T07:15:39Z</time>
      </trkpt>
      <trkpt lat="47.2559" lon="6.09788">
        <ele>498.6</ele>
        <time>2024-07-31T07:15:40Z</time>
      </trkpt>
      <trkpt lat="47.25589" lon="6.0979">
        <ele>498.4</ele>
        <time>2024-07-31T07:15:41Z</time>
      </trkpt>
      <trkpt lat="47.25588" lon="6.09793">
        <ele>498.6</ele>
        <time>2024-07-31T07:15:42Z</time>
      </trkpt>
      <trkpt lat="47.25587" lon="6.09795">
        <ele>498.6</ele>
        <time>2024-07-31T07:15:43Z</time>
      </trkpt>
      <trkpt lat="47.25586" lon="6.09797">
        <ele>498.8</ele>
        <time>2024-07-31T07:15:44Z</time>
      </trkpt>
      <trkpt lat="47.25585" lon="6.09799">
        <ele>498.8</ele>
        <time>2024-07-31T07:15:45Z</time>
      </trkpt>
      <trkpt lat="47.25585" lon="6.098">
        <ele>499</ele>
        <time>2024-07-31T07:15:46Z</time>
      </trkpt>
      <trkpt lat="47.25583" lon="6.09803">
        <ele>499</ele>
        <time>2024-07-31T07:15:47Z</time>
      </trkpt>
      <trkpt lat="47.25582" lon="6.09805">
        <ele>499.2</ele>
        <time>2024-07-31T07:15:48Z</time>
      </trkpt>
      <trkpt lat="47.25582" lon="6.09808">
        <ele>499.2</ele>
        <time>2024-07-31T07:15:49Z</time>
      </trkpt>
      <trkpt lat="47.2558" lon="6.0981">
        <ele>499.2</ele>
        <time>2024-07-31T07:15:50Z</time>
      </trkpt>
      <trkpt lat="47.25579" lon="6.09813">
        <ele>499</ele>
        <time>2024-07-31T07:15:51Z</time>
      </trkpt>
      <trkpt lat="47.25578" lon="6.09815">
        <ele>499.4</ele>
        <time>2024-07-31T07:15:52Z</time>
      </trkpt>
      <trkpt lat="47.25577" lon="6.09818">
        <ele>499.4</ele>
        <time>2024-07-31T07:15:53Z</time>
      </trkpt>
      <trkpt lat="47.25576" lon="6.09821">
        <ele>499.4</ele>
        <time>2024-07-31T07:15:54Z</time>
      </trkpt>
      <trkpt lat="47.25574" lon="6.09824">
        <ele>499.6</ele>
        <time>2024-07-31T07:15:55Z</time>
      </trkpt>
      <trkpt lat="47.25573" lon="6.09827">
        <ele>499.8</ele>
        <time>2024-07-31T07:15:56Z</time>
      </trkpt>
      <trkpt lat="47.25571" lon="6.09831">
        <ele>499.8</ele>
        <time>2024-07-31T07:15:57Z</time>
      </trkpt>
      <trkpt lat="47.2557" lon="6.09834">
        <ele>499.8</ele>
        <time>2024-07-31T07:15:58Z</time>
      </trkpt>
      <trkpt lat="47.25568" lon="6.09837">
        <ele>499.8</ele>
        <time>2024-07-31T07:15:59Z</time>
      </trkpt>
      <trkpt lat="47.25566" lon="6.0984">
        <ele>500</ele>
        <time>2024-07-31T07:16:00Z</time>
      </trkpt>
      <trkpt lat="47.25565" lon="6.09843">
        <ele>500</ele>
        <time>2024-07-31T07:16:01Z</time>
      </trkpt>
      <trkpt lat="47.25563" lon="6.09846">
        <ele>500.2</ele>
        <time>2024-07-31T07:16:02Z</time>
      </trkpt>
      <trkpt lat="47.25562" lon="6.0985">
        <ele>500.2</ele>
        <time>2024-07-31T07:16:03Z</time>
      </trkpt>
      <trkpt lat="47.2556" lon="6.09853">
        <ele>500.4</ele>
        <time>2024-07-31T07:16:04Z</time>
      </trkpt>
      <trkpt lat="47.25559" lon="6.09856">
        <ele>500.2</ele>
        <time>2024-07-31T07:16:05Z</time>
      </trkpt>
      <trkpt lat="47.25558" lon="6.09859">
        <ele>500.6</ele>
        <time>2024-07-31T07:16:06Z</time>
      </trkpt>
      <trkpt lat="47.25556" lon="6.09862">
        <ele>500.8</ele>
        <time>2024-07-31T07:16:07Z</time>
      </trkpt>
      <trkpt lat="47.25555" lon="6.09865">
        <ele>500.8</ele>
        <time>2024-07-31T07:16:08Z</time>
      </trkpt>
      <trkpt lat="47.25554" lon="6.09868">
        <ele>500.8</ele>
        <time>2024-07-31T07:16:09Z</time>
      </trkpt>
      <trkpt lat="47.25553" lon="6.09871">
        <ele>501</ele>
        <time>2024-07-31T07:16:10Z</time>
      </trkpt>
      <trkpt lat="47.25551" lon="6.09874">
        <ele>501.2</ele>
        <time>2024-07-31T07:16:11Z</time>
      </trkpt>
      <trkpt lat="47.2555" lon="6.09876">
        <ele>501.4</ele>
        <time>2024-07-31T07:16:12Z</time>
      </trkpt>
      <trkpt lat="47.25548" lon="6.09879">
        <ele>501.4</ele>
        <time>2024-07-31T07:16:13Z</time>
      </trkpt>
      <trkpt lat="47.25547" lon="6.09882">
        <ele>501.8</ele>
        <time>2024-07-31T07:16:14Z</time>
      </trkpt>
      <trkpt lat="47.25545" lon="6.09886">
        <ele>501.6</ele>
        <time>2024-07-31T07:16:15Z</time>
      </trkpt>
      <trkpt lat="47.25544" lon="6.09889">
        <ele>502</ele>
        <time>2024-07-31T07:16:16Z</time>
      </trkpt>
      <trkpt lat="47.25543" lon="6.09892">
        <ele>502</ele>
        <time>2024-07-31T07:16:17Z</time>
      </trkpt>
      <trkpt lat="47.25542" lon="6.09894">
        <ele>502.2</ele>
        <time>2024-07-31T07:16:18Z</time>
      </trkpt>
      <trkpt lat="47.2554" lon="6.09897">
        <ele>502.4</ele>
        <time>2024-07-31T07:16:19Z</time>
      </trkpt>
      <trkpt lat="47.25539" lon="6.099">
        <ele>502.6</ele>
        <time>2024-07-31T07:16:20Z</time>
      </trkpt>
      <trkpt lat="47.25537" lon="6.09903">
        <ele>502.6</ele>
        <time>2024-07-31T07:16:21Z</time>
      </trkpt>
      <trkpt lat="47.25536" lon="6.09906">
        <ele>502.8</ele>
        <time>2024-07-31T07:16:22Z</time>
      </trkpt>
      <trkpt lat="47.25534" lon="6.09909">
        <ele>502.8</ele>
        <time>2024-07-31T07:16:23Z</time>
      </trkpt>
      <trkpt lat="47.25532" lon="6.09912">
        <ele>502.8</ele>
        <time>2024-07-31T07:16:24Z</time>
      </trkpt>
      <trkpt lat="47.2553" lon="6.09915">
        <ele>502.8</ele>
        <time>2024-07-31T07:16:25Z</time>
      </trkpt>
      <trkpt lat="47.25528" lon="6.09918">
        <ele>503.2</ele>
        <time>2024-07-31T07:16:26Z</time>
      </trkpt>
      <trkpt lat="47.25526" lon="6.09921">
        <ele>503.4</ele>
        <time>2024-07-31T07:16:27Z</time>
      </trkpt>
      <trkpt lat="47.25525" lon="6.09923">
        <ele>503.4</ele>
        <time>2024-07-31T07:16:28Z</time>
      </trkpt>
      <trkpt lat="47.25523" lon="6.09926">
        <ele>503.6</ele>
        <time>2024-07-31T07:16:29Z</time>
      </trkpt>
      <trkpt lat="47.25521" lon="6.09928">
        <ele>503.4</ele>
        <time>2024-07-31T07:16:30Z</time>
      </trkpt>
      <trkpt lat="47.25519" lon="6.09931">
        <ele>503.8</ele>
        <time>2024-07-31T07:16:31Z</time>
      </trkpt>
      <trkpt lat="47.25517" lon="6.09934">
        <ele>504</ele>
        <time>2024-07-31T07:16:32Z</time>
      </trkpt>
      <trkpt lat="47.25515" lon="6.09936">
        <ele>504</ele>
        <time>2024-07-31T07:16:33Z</time>
      </trkpt>
      <trkpt lat="47.25513" lon="6.09939">
        <ele>504.2</ele>
        <time>2024-07-31T07:16:34Z</time>
      </trkpt>
      <trkpt lat="47.25511" lon="6.09941">
        <ele>504.2</ele>
        <time>2024-07-31T07:16:35Z</time>
      </trkpt>
      <trkpt lat="47.25509" lon="6.09944">
        <ele>504.4</ele>
        <time>2024-07-31T07:16:36Z</time>
      </trkpt>
      <trkpt lat="47.25506" lon="6.09946">
        <ele>504.6</ele>
        <time>2024-07-31T07:16:37Z</time>
      </trkpt>
      <trkpt lat="47.25504" lon="6.09949">
        <ele>504.6</ele>
        <time>2024-07-31T07:16:38Z</time>
      </trkpt>
      <trkpt lat="47.25501" lon="6.09951">
        <ele>504.6</ele>
        <time>2024-07-31T07:16:39Z</time>
      </trkpt>
      <trkpt lat="47.25498" lon="6.09954">
        <ele>504.6</ele>
        <time>2024-07-31T07:16:40Z</time>
      </trkpt>
      <trkpt lat="47.25496" lon="6.09957">
        <ele>504.8</ele>
        <time>2024-07-31T07:16:41Z</time>
      </trkpt>
      <trkpt lat="47.25493" lon="6.09959">
        <ele>504.8</ele>
        <time>2024-07-31T07:16:42Z</time>
      </trkpt>
      <trkpt lat="47.25491" lon="6.09961">
        <ele>504.8</ele>
        <time>2024-07-31T07:16:43Z</time>
      </trkpt>
      <trkpt lat="47.25489" lon="6.09964">
        <ele>504.8</ele>
        <time>2024-07-31T07:16:44Z</time>
      </trkpt>
      <trkpt lat="47.25487" lon="6.09966">
        <ele>505</ele>
        <time>2024-07-31T07:16:45Z</time>
      </trkpt>
      <trkpt lat="47.25485" lon="6.09968">
        <ele>505.2</ele>
        <time>2024-07-31T07:16:46Z</time>
      </trkpt>
      <trkpt lat="47.25482" lon="6.09971">
        <ele>505.4</ele>
        <time>2024-07-31T07:16:47Z</time>
      </trkpt>
      <trkpt lat="47.25479" lon="6.09973">
        <ele>505.4</ele>
        <time>2024-07-31T07:16:48Z</time>
      </trkpt>
      <trkpt lat="47.25477" lon="6.09975">
        <ele>505.6</ele>
        <time>2024-07-31T07:16:49Z</time>
      </trkpt>
      <trkpt lat="47.25475" lon="6.09978">
        <ele>505.8</ele>
        <time>2024-07-31T07:16:50Z</time>
      </trkpt>
      <trkpt lat="47.25473" lon="6.0998">
        <ele>505.8</ele>
        <time>2024-07-31T07:16:51Z</time>
      </trkpt>
      <trkpt lat="47.2547" lon="6.09983">
        <ele>505.8</ele>
        <time>2024-07-31T07:16:52Z</time>
      </trkpt>
      <trkpt lat="47.25468" lon="6.09985">
        <ele>506</ele>
        <time>2024-07-31T07:16:53Z</time>
      </trkpt>
      <trkpt lat="47.25465" lon="6.09988">
        <ele>506</ele>
        <time>2024-07-31T07:16:54Z</time>
      </trkpt>
      <trkpt lat="47.25463" lon="6.09991">
        <ele>506.2</ele>
        <time>2024-07-31T07:16:55Z</time>
      </trkpt>
      <trkpt lat="47.25461" lon="6.09994">
        <ele>506.2</ele>
        <time>2024-07-31T07:16:56Z</time>
      </trkpt>
      <trkpt lat="47.25459" lon="6.09997">
        <ele>506.2</ele>
        <time>2024-07-31T07:16:57Z</time>
      </trkpt>
      <trkpt lat="47.25457" lon="6.1">
        <ele>506.4</ele>
        <time>2024-07-31T07:16:58Z</time>
      </trkpt>
      <trkpt lat="47.25454" lon="6.10005">
        <ele>506.4</ele>
        <time>2024-07-31T07:16:59Z</time>
      </trkpt>
      <trkpt lat="47.25452" lon="6.10009">
        <ele>506.4</ele>
        <time>2024-07-31T07:17:00Z</time>
      </trkpt>
      <trkpt lat="47.2545" lon="6.10013">
        <ele>506.6</ele>
        <time>2024-07-31T07:17:01Z</time>
      </trkpt>
      <trkpt lat="47.25448" lon="6.10016">
        <ele>506.8</ele>
        <time>2024-07-31T07:17:02Z</time>
      </trkpt>
      <trkpt lat="47.25446" lon="6.1002">
        <ele>506.8</ele>
        <time>2024-07-31T07:17:03Z</time>
      </trkpt>
      <trkpt lat="47.25445" lon="6.10024">
        <ele>507</ele>
        <time>2024-07-31T07:17:04Z</time>
      </trkpt>
      <trkpt lat="47.25443" lon="6.10029">
        <ele>507</ele>
        <time>2024-07-31T07:17:05Z</time>
      </trkpt>
      <trkpt lat="47.25441" lon="6.10033">
        <ele>507</ele>
        <time>2024-07-31T07:17:06Z</time>
      </trkpt>
      <trkpt lat="47.2544" lon="6.10038">
        <ele>507.2</ele>
        <time>2024-07-31T07:17:07Z</time>
      </trkpt>
      <trkpt lat="47.25439" lon="6.10042">
        <ele>507.2</ele>
        <time>2024-07-31T07:17:08Z</time>
      </trkpt>
      <trkpt lat="47.25438" lon="6.10046">
        <ele>507.2</ele>
        <time>2024-07-31T07:17:09Z</time>
      </trkpt>
      <trkpt lat="47.25437" lon="6.10051">
        <ele>507.4</ele>
        <time>2024-07-31T07:17:10Z</time>
      </trkpt>
      <trkpt lat="47.25436" lon="6.10055">
        <ele>507.8</ele>
        <time>2024-07-31T07:17:11Z</time>
      </trkpt>
      <trkpt lat="47.25436" lon="6.1006">
        <ele>507.8</ele>
        <time>2024-07-31T07:17:12Z</time>
      </trkpt>
      <trkpt lat="47.25435" lon="6.10065">
        <ele>508</ele>
        <time>2024-07-31T07:17:13Z</time>
      </trkpt>
      <trkpt lat="47.25434" lon="6.1007">
        <ele>508.2</ele>
        <time>2024-07-31T07:17:14Z</time>
      </trkpt>
      <trkpt lat="47.25433" lon="6.10075">
        <ele>508</ele>
        <time>2024-07-31T07:17:15Z</time>
      </trkpt>
      <trkpt lat="47.25433" lon="6.10079">
        <ele>508</ele>
        <time>2024-07-31T07:17:16Z</time>
      </trkpt>
      <trkpt lat="47.25432" lon="6.10083">
        <ele>508.2</ele>
        <time>2024-07-31T07:17:17Z</time>
      </trkpt>
      <trkpt lat="47.2543" lon="6.10086">
        <ele>508.2</ele>
        <time>2024-07-31T07:17:18Z</time>
      </trkpt>
      <trkpt lat="47.25429" lon="6.10091">
        <ele>508.2</ele>
        <time>2024-07-31T07:17:19Z</time>
      </trkpt>
      <trkpt lat="47.25428" lon="6.10097">
        <ele>508.4</ele>
        <time>2024-07-31T07:17:20Z</time>
      </trkpt>
      <trkpt lat="47.25428" lon="6.10101">
        <ele>508.6</ele>
        <time>2024-07-31T07:17:21Z</time>
      </trkpt>
      <trkpt lat="47.25427" lon="6.10106">
        <ele>508.8</ele>
        <time>2024-07-31T07:17:22Z</time>
      </trkpt>
      <trkpt lat="47.25426" lon="6.1011">
        <ele>509</ele>
        <time>2024-07-31T07:17:23Z</time>
      </trkpt>
      <trkpt lat="47.25426" lon="6.10114">
        <ele>508.8</ele>
        <time>2024-07-31T07:17:24Z</time>
      </trkpt>
      <trkpt lat="47.25425" lon="6.10119">
        <ele>509.2</ele>
        <time>2024-07-31T07:17:25Z</time>
      </trkpt>
      <trkpt lat="47.25424" lon="6.10124">
        <ele>509.2</ele>
        <time>2024-07-31T07:17:26Z</time>
      </trkpt>
      <trkpt lat="47.25423" lon="6.10128">
        <ele>509.2</ele>
        <time>2024-07-31T07:17:27Z</time>
      </trkpt>
      <trkpt lat="47.25422" lon="6.10132">
        <ele>509.2</ele>
        <time>2024-07-31T07:17:28Z</time>
      </trkpt>
      <trkpt lat="47.25421" lon="6.10137">
        <ele>509.2</ele>
        <time>2024-07-31T07:17:29Z</time>
      </trkpt>
      <trkpt lat="47.25421" lon="6.10141">
        <ele>509.4</ele>
        <time>2024-07-31T07:17:30Z</time>
      </trkpt>
      <trkpt lat="47.2542" lon="6.10145">
        <ele>509.8</ele>
        <time>2024-07-31T07:17:31Z</time>
      </trkpt>
      <trkpt lat="47.25419" lon="6.10149">
        <ele>509.6</ele>
        <time>2024-07-31T07:17:32Z</time>
      </trkpt>
      <trkpt lat="47.25418" lon="6.10154">
        <ele>509.8</ele>
        <time>2024-07-31T07:17:33Z</time>
      </trkpt>
      <trkpt lat="47.25417" lon="6.10159">
        <ele>510</ele>
        <time>2024-07-31T07:17:34Z</time>
      </trkpt>
      <trkpt lat="47.25416" lon="6.10163">
        <ele>510.2</ele>
        <time>2024-07-31T07:17:35Z</time>
      </trkpt>
      <trkpt lat="47.25415" lon="6.10167">
        <ele>510.2</ele>
        <time>2024-07-31T07:17:36Z</time>
      </trkpt>
      <trkpt lat="47.25415" lon="6.10171">
        <ele>510.2</ele>
        <time>2024-07-31T07:17:37Z</time>
      </trkpt>
      <trkpt lat="47.25414" lon="6.10176">
        <ele>510.6</ele>
        <time>2024-07-31T07:17:38Z</time>
      </trkpt>
      <trkpt lat="47.25413" lon="6.1018">
        <ele>510.4</ele>
        <time>2024-07-31T07:17:39Z</time>
      </trkpt>
      <trkpt lat="47.25412" lon="6.10186">
        <ele>510.6</ele>
        <time>2024-07-31T07:17:40Z</time>
      </trkpt>
      <trkpt lat="47.25412" lon="6.10191">
        <ele>510.6</ele>
        <time>2024-07-31T07:17:41Z</time>
      </trkpt>
      <trkpt lat="47.25412" lon="6.10195">
        <ele>510.8</ele>
        <time>2024-07-31T07:17:42Z</time>
      </trkpt>
      <trkpt lat="47.25411" lon="6.102">
        <ele>510.6</ele>
        <time>2024-07-31T07:17:43Z</time>
      </trkpt>
      <trkpt lat="47.25411" lon="6.10204">
        <ele>510.6</ele>
        <time>2024-07-31T07:17:44Z</time>
      </trkpt>
      <trkpt lat="47.25412" lon="6.10209">
        <ele>510.8</ele>
        <time>2024-07-31T07:17:45Z</time>
      </trkpt>
      <trkpt lat="47.25412" lon="6.10213">
        <ele>511</ele>
        <time>2024-07-31T07:17:46Z</time>
      </trkpt>
      <trkpt lat="47.25412" lon="6.10218">
        <ele>511</ele>
        <time>2024-07-31T07:17:47Z</time>
      </trkpt>
      <trkpt lat="47.25412" lon="6.10223">
        <ele>511.2</ele>
        <time>2024-07-31T07:17:48Z</time>
      </trkpt>
      <trkpt lat="47.25412" lon="6.10227">
        <ele>511.2</ele>
        <time>2024-07-31T07:17:49Z</time>
      </trkpt>
      <trkpt lat="47.25412" lon="6.10232">
        <ele>511.2</ele>
        <time>2024-07-31T07:17:50Z</time>
      </trkpt>
      <trkpt lat="47.25413" lon="6.10237">
        <ele>511.6</ele>
        <time>2024-07-31T07:17:51Z</time>
      </trkpt>
      <trkpt lat="47.25414" lon="6.10242">
        <ele>511.8</ele>
        <time>2024-07-31T07:17:52Z</time>
      </trkpt>
      <trkpt lat="47.25414" lon="6.10247">
        <ele>511.8</ele>
        <time>2024-07-31T07:17:53Z</time>
      </trkpt>
      <trkpt lat="47.25415" lon="6.10252">
        <ele>512.2</ele>
        <time>2024-07-31T07:17:54Z</time>
      </trkpt>
      <trkpt lat="47.25416" lon="6.10257">
        <ele>512.2</ele>
        <time>2024-07-31T07:17:55Z</time>
      </trkpt>
      <trkpt lat="47.25416" lon="6.10262">
        <ele>512.6</ele>
        <time>2024-07-31T07:17:56Z</time>
      </trkpt>
      <trkpt lat="47.25417" lon="6.10267">
        <ele>512.6</ele>
        <time>2024-07-31T07:17:57Z</time>
      </trkpt>
      <trkpt lat="47.25418" lon="6.10272">
        <ele>512.8</ele>
        <time>2024-07-31T07:17:58Z</time>
      </trkpt>
      <trkpt lat="47.25419" lon="6.10276">
        <ele>513</ele>
        <time>2024-07-31T07:17:59Z</time>
      </trkpt>
      <trkpt lat="47.2542" lon="6.1028">
        <ele>513</ele>
        <time>2024-07-31T07:18:00Z</time>
      </trkpt>
      <trkpt lat="47.25421" lon="6.10285">
        <ele>513.4</ele>
        <time>2024-07-31T07:18:01Z</time>
      </trkpt>
      <trkpt lat="47.25421" lon="6.1029">
        <ele>513.6</ele>
        <time>2024-07-31T07:18:02Z</time>
      </trkpt>
      <trkpt lat="47.25422" lon="6.10294">
        <ele>513.8</ele>
        <time>2024-07-31T07:18:03Z</time>
      </trkpt>
      <trkpt lat="47.25422" lon="6.10299">
        <ele>514.2</ele>
        <time>2024-07-31T07:18:04Z</time>
      </trkpt>
      <trkpt lat="47.25423" lon="6.10303">
        <ele>514.2</ele>
        <time>2024-07-31T07:18:05Z</time>
      </trkpt>
      <trkpt lat="47.25424" lon="6.10308">
        <ele>514.4</ele>
        <time>2024-07-31T07:18:06Z</time>
      </trkpt>
      <trkpt lat="47.25425" lon="6.10312">
        <ele>514.6</ele>
        <time>2024-07-31T07:18:07Z</time>
      </trkpt>
      <trkpt lat="47.25425" lon="6.10317">
        <ele>514.8</ele>
        <time>2024-07-31T07:18:08Z</time>
      </trkpt>
      <trkpt lat="47.25426" lon="6.10321">
        <ele>515</ele>
        <time>2024-07-31T07:18:09Z</time>
      </trkpt>
      <trkpt lat="47.25426" lon="6.10326">
        <ele>515.2</ele>
        <time>2024-07-31T07:18:10Z</time>
      </trkpt>
      <trkpt lat="47.25427" lon="6.1033">
        <ele>515.2</ele>
        <time>2024-07-31T07:18:11Z</time>
      </trkpt>
      <trkpt lat="47.25427" lon="6.10334">
        <ele>515.4</ele>
        <time>2024-07-31T07:18:12Z</time>
      </trkpt>
      <trkpt lat="47.25428" lon="6.10339">
        <ele>515.8</ele>
        <time>2024-07-31T07:18:13Z</time>
      </trkpt>
      <trkpt lat="47.25428" lon="6.10343">
        <ele>516</ele>
        <time>2024-07-31T07:18:14Z</time>
      </trkpt>
      <trkpt lat="47.25429" lon="6.10346">
        <ele>516</ele>
        <time>2024-07-31T07:18:15Z</time>
      </trkpt>
      <trkpt lat="47.25429" lon="6.1035">
        <ele>516.2</ele>
        <time>2024-07-31T07:18:16Z</time>
      </trkpt>
      <trkpt lat="47.2543" lon="6.10354">
        <ele>516.4</ele>
        <time>2024-07-31T07:18:17Z</time>
      </trkpt>
      <trkpt lat="47.25431" lon="6.10358">
        <ele>516.4</ele>
        <time>2024-07-31T07:18:18Z</time>
      </trkpt>
      <trkpt lat="47.25431" lon="6.10363">
        <ele>516.8</ele>
        <time>2024-07-31T07:18:19Z</time>
      </trkpt>
      <trkpt lat="47.25432" lon="6.10366">
        <ele>517.2</ele>
        <time>2024-07-31T07:18:20Z</time>
      </trkpt>
      <trkpt lat="47.25432" lon="6.1037">
        <ele>517.4</ele>
        <time>2024-07-31T07:18:21Z</time>
      </trkpt>
      <trkpt lat="47.25433" lon="6.10374">
        <ele>517.4</ele>
        <time>2024-07-31T07:18:22Z</time>
      </trkpt>
      <trkpt lat="47.25433" lon="6.10377">
        <ele>517.8</ele>
        <time>2024-07-31T07:18:23Z</time>
      </trkpt>
      <trkpt lat="47.25434" lon="6.10381">
        <ele>517.8</ele>
        <time>2024-07-31T07:18:24Z</time>
      </trkpt>
      <trkpt lat="47.25435" lon="6.10385">
        <ele>518</ele>
        <time>2024-07-31T07:18:25Z</time>
      </trkpt>
      <trkpt lat="47.25435" lon="6.10389">
        <ele>518</ele>
        <time>2024-07-31T07:18:26Z</time>
      </trkpt>
      <trkpt lat="47.25436" lon="6.10393">
        <ele>518.2</ele>
        <time>2024-07-31T07:18:27Z</time>
      </trkpt>
      <trkpt lat="47.25436" lon="6.10397">
        <ele>518.4</ele>
        <time>2024-07-31T07:18:28Z</time>
      </trkpt>
      <trkpt lat="47.25436" lon="6.10401">
        <ele>518.6</ele>
        <time>2024-07-31T07:18:29Z</time>
      </trkpt>
      <trkpt lat="47.25436" lon="6.10405">
        <ele>518.8</ele>
        <time>2024-07-31T07:18:30Z</time>
      </trkpt>
      <trkpt lat="47.25436" lon="6.10409">
        <ele>519</ele>
        <time>2024-07-31T07:18:31Z</time>
      </trkpt>
      <trkpt lat="47.25435" lon="6.10413">
        <ele>519.2</ele>
        <time>2024-07-31T07:18:32Z</time>
      </trkpt>
      <trkpt lat="47.25434" lon="6.10415">
        <ele>519.2</ele>
        <time>2024-07-31T07:18:33Z</time>
      </trkpt>
      <trkpt lat="47.25432" lon="6.10418">
        <ele>519.4</ele>
        <time>2024-07-31T07:18:34Z</time>
      </trkpt>
      <trkpt lat="47.2543" lon="6.10419">
        <ele>519.4</ele>
        <time>2024-07-31T07:18:35Z</time>
      </trkpt>
      <trkpt lat="47.25428" lon="6.10419">
        <ele>519.6</ele>
        <time>2024-07-31T07:18:36Z</time>
      </trkpt>
      <trkpt lat="47.25426" lon="6.10418">
        <ele>520</ele>
        <time>2024-07-31T07:18:37Z</time>
      </trkpt>
      <trkpt lat="47.25423" lon="6.10417">
        <ele>520.2</ele>
        <time>2024-07-31T07:18:38Z</time>
      </trkpt>
      <trkpt lat="47.25421" lon="6.10416">
        <ele>520.2</ele>
        <time>2024-07-31T07:18:39Z</time>
      </trkpt>
      <trkpt lat="47.25419" lon="6.10414">
        <ele>520.4</ele>
        <time>2024-07-31T07:18:40Z</time>
      </trkpt>
      <trkpt lat="47.25417" lon="6.10412">
        <ele>520.6</ele>
        <time>2024-07-31T07:18:41Z</time>
      </trkpt>
      <trkpt lat="47.25416" lon="6.10409">
        <ele>520.8</ele>
        <time>2024-07-31T07:18:42Z</time>
      </trkpt>
      <trkpt lat="47.25414" lon="6.10406">
        <ele>521</ele>
        <time>2024-07-31T07:18:43Z</time>
      </trkpt>
      <trkpt lat="47.25412" lon="6.10403">
        <ele>521.2</ele>
        <time>2024-07-31T07:18:44Z</time>
      </trkpt>
      <trkpt lat="47.2541" lon="6.10401">
        <ele>521.4</ele>
        <time>2024-07-31T07:18:45Z</time>
      </trkpt>
      <trkpt lat="47.25408" lon="6.10398">
        <ele>521.8</ele>
        <time>2024-07-31T07:18:46Z</time>
      </trkpt>
      <trkpt lat="47.25406" lon="6.10396">
        <ele>522</ele>
        <time>2024-07-31T07:18:47Z</time>
      </trkpt>
      <trkpt lat="47.25404" lon="6.10393">
        <ele>522.2</ele>
        <time>2024-07-31T07:18:48Z</time>
      </trkpt>
      <trkpt lat="47.25403" lon="6.1039">
        <ele>522.2</ele>
        <time>2024-07-31T07:18:49Z</time>
      </trkpt>
      <trkpt lat="47.25401" lon="6.10388">
        <ele>522.6</ele>
        <time>2024-07-31T07:18:50Z</time>
      </trkpt>
      <trkpt lat="47.25399" lon="6.10385">
        <ele>522.8</ele>
        <time>2024-07-31T07:18:51Z</time>
      </trkpt>
      <trkpt lat="47.25398" lon="6.10383">
        <ele>523</ele>
        <time>2024-07-31T07:18:52Z</time>
      </trkpt>
      <trkpt lat="47.25397" lon="6.10381">
        <ele>523.2</ele>
        <time>2024-07-31T07:18:53Z</time>
      </trkpt>
      <trkpt lat="47.25395" lon="6.10378">
        <ele>523.4</ele>
        <time>2024-07-31T07:18:54Z</time>
      </trkpt>
      <trkpt lat="47.25393" lon="6.10376">
        <ele>523.4</ele>
        <time>2024-07-31T07:18:55Z</time>
      </trkpt>
      <trkpt lat="47.25391" lon="6.10375">
        <ele>523.8</ele>
        <time>2024-07-31T07:18:56Z</time>
      </trkpt>
      <trkpt lat="47.2539" lon="6.10373">
        <ele>524</ele>
        <time>2024-07-31T07:18:57Z</time>
      </trkpt>
      <trkpt lat="47.25388" lon="6.10372">
        <ele>524</ele>
        <time>2024-07-31T07:18:58Z</time>
      </trkpt>
      <trkpt lat="47.25387" lon="6.10371">
        <ele>524.2</ele>
        <time>2024-07-31T07:18:59Z</time>
      </trkpt>
      <trkpt lat="47.25385" lon="6.1037">
        <ele>524.4</ele>
        <time>2024-07-31T07:19:00Z</time>
      </trkpt>
      <trkpt lat="47.25384" lon="6.10368">
        <ele>524.6</ele>
        <time>2024-07-31T07:19:01Z</time>
      </trkpt>
      <trkpt lat="47.25382" lon="6.10367">
        <ele>524.8</ele>
        <time>2024-07-31T07:19:02Z</time>
      </trkpt>
      <trkpt lat="47.25381" lon="6.10366">
        <ele>525</ele>
        <time>2024-07-31T07:19:03Z</time>
      </trkpt>
      <trkpt lat="47.25379" lon="6.10364">
        <ele>525.2</ele>
        <time>2024-07-31T07:19:04Z</time>
      </trkpt>
      <trkpt lat="47.25377" lon="6.10363">
        <ele>525.4</ele>
        <time>2024-07-31T07:19:05Z</time>
      </trkpt>
      <trkpt lat="47.25376" lon="6.10362">
        <ele>525.8</ele>
        <time>2024-07-31T07:19:06Z</time>
      </trkpt>
      <trkpt lat="47.25374" lon="6.10361">
        <ele>526</ele>
        <time>2024-07-31T07:19:07Z</time>
      </trkpt>
      <trkpt lat="47.25372" lon="6.10361">
        <ele>526.2</ele>
        <time>2024-07-31T07:19:08Z</time>
      </trkpt>
      <trkpt lat="47.2537" lon="6.1036">
        <ele>526.4</ele>
        <time>2024-07-31T07:19:09Z</time>
      </trkpt>
      <trkpt lat="47.25368" lon="6.10359">
        <ele>526.6</ele>
        <time>2024-07-31T07:19:10Z</time>
      </trkpt>
      <trkpt lat="47.25366" lon="6.1036">
        <ele>526.8</ele>
        <time>2024-07-31T07:19:11Z</time>
      </trkpt>
      <trkpt lat="47.25364" lon="6.1036">
        <ele>526.8</ele>
        <time>2024-07-31T07:19:12Z</time>
      </trkpt>
      <trkpt lat="47.25362" lon="6.1036">
        <ele>527.2</ele>
        <time>2024-07-31T07:19:13Z</time>
      </trkpt>
      <trkpt lat="47.2536" lon="6.10359">
        <ele>527.2</ele>
        <time>2024-07-31T07:19:14Z</time>
      </trkpt>
      <trkpt lat="47.25358" lon="6.10359">
        <ele>527.6</ele>
        <time>2024-07-31T07:19:15Z</time>
      </trkpt>
      <trkpt lat="47.25356" lon="6.10359">
        <ele>527.8</ele>
        <time>2024-07-31T07:19:16Z</time>
      </trkpt>
      <trkpt lat="47.25353" lon="6.10359">
        <ele>527.8</ele>
        <time>2024-07-31T07:19:17Z</time>
      </trkpt>
      <trkpt lat="47.25352" lon="6.10359">
        <ele>528</ele>
        <time>2024-07-31T07:19:18Z</time>
      </trkpt>
      <trkpt lat="47.25349" lon="6.10359">
        <ele>528.2</ele>
        <time>2024-07-31T07:19:19Z</time>
      </trkpt>
      <trkpt lat="47.25347" lon="6.10358">
        <ele>528.4</ele>
        <time>2024-07-31T07:19:20Z</time>
      </trkpt>
      <trkpt lat="47.25345" lon="6.10357">
        <ele>528.6</ele>
        <time>2024-07-31T07:19:21Z</time>
      </trkpt>
      <trkpt lat="47.25344" lon="6.10357">
        <ele>528.8</ele>
        <time>2024-07-31T07:19:22Z</time>
      </trkpt>
      <trkpt lat="47.25342" lon="6.10357">
        <ele>529</ele>
        <time>2024-07-31T07:19:23Z</time>
      </trkpt>
      <trkpt lat="47.2534" lon="6.10357">
        <ele>529.2</ele>
        <time>2024-07-31T07:19:24Z</time>
      </trkpt>
      <trkpt lat="47.25338" lon="6.10358">
        <ele>529.4</ele>
        <time>2024-07-31T07:19:25Z</time>
      </trkpt>
      <trkpt lat="47.25335" lon="6.10358">
        <ele>529.6</ele>
        <time>2024-07-31T07:19:26Z</time>
      </trkpt>
      <trkpt lat="47.25334" lon="6.10359">
        <ele>529.8</ele>
        <time>2024-07-31T07:19:27Z</time>
      </trkpt>
      <trkpt lat="47.25331" lon="6.10359">
        <ele>530</ele>
        <time>2024-07-31T07:19:28Z</time>
      </trkpt>
      <trkpt lat="47.2533" lon="6.1036">
        <ele>530.2</ele>
        <time>2024-07-31T07:19:29Z</time>
      </trkpt>
      <trkpt lat="47.25328" lon="6.1036">
        <ele>530.6</ele>
        <time>2024-07-31T07:19:30Z</time>
      </trkpt>
      <trkpt lat="47.25326" lon="6.10361">
        <ele>530.6</ele>
        <time>2024-07-31T07:19:31Z</time>
      </trkpt>
      <trkpt lat="47.25324" lon="6.10361">
        <ele>530.8</ele>
        <time>2024-07-31T07:19:32Z</time>
      </trkpt>
      <trkpt lat="47.25323" lon="6.10361">
        <ele>531</ele>
        <time>2024-07-31T07:19:33Z</time>
      </trkpt>
      <trkpt lat="47.25321" lon="6.10362">
        <ele>531.2</ele>
        <time>2024-07-31T07:19:34Z</time>
      </trkpt>
      <trkpt lat="47.25319" lon="6.10362">
        <ele>531.4</ele>
        <time>2024-07-31T07:19:35Z</time>
      </trkpt>
      <trkpt lat="47.25317" lon="6.10362">
        <ele>531.6</ele>
        <time>2024-07-31T07:19:36Z</time>
      </trkpt>
      <trkpt lat="47.25316" lon="6.10363">
        <ele>531.8</ele>
        <time>2024-07-31T07:19:37Z</time>
      </trkpt>
      <trkpt lat="47.25314" lon="6.10363">
        <ele>532.2</ele>
        <time>2024-07-31T07:19:38Z</time>
      </trkpt>
      <trkpt lat="47.25312" lon="6.10363">
        <ele>532.2</ele>
        <time>2024-07-31T07:19:39Z</time>
      </trkpt>
      <trkpt lat="47.25311" lon="6.10363">
        <ele>532.4</ele>
        <time>2024-07-31T07:19:40Z</time>
      </trkpt>
      <trkpt lat="47.25309" lon="6.10363">
        <ele>532.4</ele>
        <time>2024-07-31T07:19:41Z</time>
      </trkpt>
      <trkpt lat="47.25308" lon="6.10363">
        <ele>532.6</ele>
        <time>2024-07-31T07:19:42Z</time>
      </trkpt>
      <trkpt lat="47.25306" lon="6.10363">
        <ele>532.8</ele>
        <time>2024-07-31T07:19:43Z</time>
      </trkpt>
      <trkpt lat="47.25305" lon="6.10363">
        <ele>533</ele>
        <time>2024-07-31T07:19:44Z</time>
      </trkpt>
      <trkpt lat="47.25303" lon="6.10364">
        <ele>533.4</ele>
        <time>2024-07-31T07:19:45Z</time>
      </trkpt>
      <trkpt lat="47.253" lon="6.10364">
        <ele>533.4</ele>
        <time>2024-07-31T07:19:46Z</time>
      </trkpt>
      <trkpt lat="47.25298" lon="6.10365">
        <ele>533.6</ele>
        <time>2024-07-31T07:19:47Z</time>
      </trkpt>
      <trkpt lat="47.25296" lon="6.10364">
        <ele>533.8</ele>
        <time>2024-07-31T07:19:48Z</time>
      </trkpt>
      <trkpt lat="47.25294" lon="6.10364">
        <ele>534</ele>
        <time>2024-07-31T07:19:49Z</time>
      </trkpt>
      <trkpt lat="47.25292" lon="6.10362">
        <ele>534</ele>
        <time>2024-07-31T07:19:50Z</time>
      </trkpt>
      <trkpt lat="47.25291" lon="6.10361">
        <ele>534.2</ele>
        <time>2024-07-31T07:19:51Z</time>
      </trkpt>
      <trkpt lat="47.2529" lon="6.10358">
        <ele>534.4</ele>
        <time>2024-07-31T07:19:52Z</time>
      </trkpt>
      <trkpt lat="47.25289" lon="6.10356">
        <ele>534.4</ele>
        <time>2024-07-31T07:19:53Z</time>
      </trkpt>
      <trkpt lat="47.25288" lon="6.10353">
        <ele>534.6</ele>
        <time>2024-07-31T07:19:54Z</time>
      </trkpt>
      <trkpt lat="47.25287" lon="6.1035">
        <ele>534.8</ele>
        <time>2024-07-31T07:19:55Z</time>
      </trkpt>
      <trkpt lat="47.25287" lon="6.10347">
        <ele>535.2</ele>
        <time>2024-07-31T07:19:56Z</time>
      </trkpt>
      <trkpt lat="47.25287" lon="6.10344">
        <ele>535.4</ele>
        <time>2024-07-31T07:19:57Z</time>
      </trkpt>
      <trkpt lat="47.25287" lon="6.10342">
        <ele>535.6</ele>
        <time>2024-07-31T07:19:58Z</time>
      </trkpt>
      <trkpt lat="47.25287" lon="6.10339">
        <ele>535.8</ele>
        <time>2024-07-31T07:19:59Z</time>
      </trkpt>
      <trkpt lat="47.25287" lon="6.10336">
        <ele>536</ele>
        <time>2024-07-31T07:20:00Z</time>
      </trkpt>
      <trkpt lat="47.25287" lon="6.10333">
        <ele>536</ele>
        <time>2024-07-31T07:20:01Z</time>
      </trkpt>
      <trkpt lat="47.25287" lon="6.10331">
        <ele>536.2</ele>
        <time>2024-07-31T07:20:02Z</time>
      </trkpt>
      <trkpt lat="47.25287" lon="6.10328">
        <ele>536.4</ele>
        <time>2024-07-31T07:20:03Z</time>
      </trkpt>
      <trkpt lat="47.25287" lon="6.10324">
        <ele>536.6</ele>
        <time>2024-07-31T07:20:04Z</time>
      </trkpt>
      <trkpt lat="47.25287" lon="6.1032">
        <ele>536.8</ele>
        <time>2024-07-31T07:20:05Z</time>
      </trkpt>
      <trkpt lat="47.25288" lon="6.10317">
        <ele>537</ele>
        <time>2024-07-31T07:20:06Z</time>
      </trkpt>
      <trkpt lat="47.25287" lon="6.10314">
        <ele>536.8</ele>
        <time>2024-07-31T07:20:07Z</time>
      </trkpt>
      <trkpt lat="47.25287" lon="6.1031">
        <ele>537.2</ele>
        <time>2024-07-31T07:20:08Z</time>
      </trkpt>
      <trkpt lat="47.25287" lon="6.10307">
        <ele>537.6</ele>
        <time>2024-07-31T07:20:09Z</time>
      </trkpt>
      <trkpt lat="47.25287" lon="6.10304">
        <ele>537.6</ele>
        <time>2024-07-31T07:20:10Z</time>
      </trkpt>
      <trkpt lat="47.25286" lon="6.10301">
        <ele>537.8</ele>
        <time>2024-07-31T07:20:11Z</time>
      </trkpt>
      <trkpt lat="47.25285" lon="6.10298">
        <ele>538</ele>
        <time>2024-07-31T07:20:12Z</time>
      </trkpt>
      <trkpt lat="47.25285" lon="6.10295">
        <ele>538.2</ele>
        <time>2024-07-31T07:20:13Z</time>
      </trkpt>
      <trkpt lat="47.25285" lon="6.10292">
        <ele>538.2</ele>
        <time>2024-07-31T07:20:14Z</time>
      </trkpt>
      <trkpt lat="47.25284" lon="6.10289">
        <ele>538.4</ele>
        <time>2024-07-31T07:20:15Z</time>
      </trkpt>
      <trkpt lat="47.25284" lon="6.10286">
        <ele>538.6</ele>
        <time>2024-07-31T07:20:16Z</time>
      </trkpt>
      <trkpt lat="47.25282" lon="6.10283">
        <ele>538.8</ele>
        <time>2024-07-31T07:20:17Z</time>
      </trkpt>
      <trkpt lat="47.25281" lon="6.10279">
        <ele>539</ele>
        <time>2024-07-31T07:20:18Z</time>
      </trkpt>
      <trkpt lat="47.25279" lon="6.10276">
        <ele>539.2</ele>
        <time>2024-07-31T07:20:19Z</time>
      </trkpt>
      <trkpt lat="47.25278" lon="6.10273">
        <ele>539.4</ele>
        <time>2024-07-31T07:20:20Z</time>
      </trkpt>
      <trkpt lat="47.25277" lon="6.1027">
        <ele>539.4</ele>
        <time>2024-07-31T07:20:21Z</time>
      </trkpt>
      <trkpt lat="47.25276" lon="6.10268">
        <ele>539.8</ele>
        <time>2024-07-31T07:20:22Z</time>
      </trkpt>
      <trkpt lat="47.25275" lon="6.10266">
        <ele>540</ele>
        <time>2024-07-31T07:20:23Z</time>
      </trkpt>
      <trkpt lat="47.25274" lon="6.10264">
        <ele>540</ele>
        <time>2024-07-31T07:20:24Z</time>
      </trkpt>
      <trkpt lat="47.25272" lon="6.10262">
        <ele>540.4</ele>
        <time>2024-07-31T07:20:25Z</time>
      </trkpt>
      <trkpt lat="47.2527" lon="6.1026">
        <ele>540.6</ele>
        <time>2024-07-31T07:20:26Z</time>
      </trkpt>
      <trkpt lat="47.25268" lon="6.10258">
        <ele>540.8</ele>
        <time>2024-07-31T07:20:27Z</time>
      </trkpt>
      <trkpt lat="47.25266" lon="6.10256">
        <ele>540.8</ele>
        <time>2024-07-31T07:20:28Z</time>
      </trkpt>
      <trkpt lat="47.25264" lon="6.10254">
        <ele>541</ele>
        <time>2024-07-31T07:20:29Z</time>
      </trkpt>
      <trkpt lat="47.25262" lon="6.10252">
        <ele>541.2</ele>
        <time>2024-07-31T07:20:30Z</time>
      </trkpt>
      <trkpt lat="47.25261" lon="6.1025">
        <ele>541.4</ele>
        <time>2024-07-31T07:20:31Z</time>
      </trkpt>
      <trkpt lat="47.25259" lon="6.10249">
        <ele>541.8</ele>
        <time>2024-07-31T07:20:32Z</time>
      </trkpt>
      <trkpt lat="47.25257" lon="6.10246">
        <ele>542</ele>
        <time>2024-07-31T07:20:33Z</time>
      </trkpt>
      <trkpt lat="47.25255" lon="6.10244">
        <ele>542.2</ele>
        <time>2024-07-31T07:20:34Z</time>
      </trkpt>
      <trkpt lat="47.25253" lon="6.10243">
        <ele>542.2</ele>
        <time>2024-07-31T07:20:35Z</time>
      </trkpt>
      <trkpt lat="47.25252" lon="6.10241">
        <ele>542.4</ele>
        <time>2024-07-31T07:20:36Z</time>
      </trkpt>
      <trkpt lat="47.2525" lon="6.1024">
        <ele>542.6</ele>
        <time>2024-07-31T07:20:37Z</time>
      </trkpt>
      <trkpt lat="47.25248" lon="6.10238">
        <ele>542.8</ele>
        <time>2024-07-31T07:20:38Z</time>
      </trkpt>
      <trkpt lat="47.25246" lon="6.10238">
        <ele>543.2</ele>
        <time>2024-07-31T07:20:39Z</time>
      </trkpt>
      <trkpt lat="47.25245" lon="6.10237">
        <ele>543.4</ele>
        <time>2024-07-31T07:20:40Z</time>
      </trkpt>
      <trkpt lat="47.25243" lon="6.10236">
        <ele>543.6</ele>
        <time>2024-07-31T07:20:41Z</time>
      </trkpt>
      <trkpt lat="47.25241" lon="6.10235">
        <ele>543.8</ele>
        <time>2024-07-31T07:20:42Z</time>
      </trkpt>
      <trkpt lat="47.25239" lon="6.10234">
        <ele>544</ele>
        <time>2024-07-31T07:20:43Z</time>
      </trkpt>
      <trkpt lat="47.25237" lon="6.10233">
        <ele>544.2</ele>
        <time>2024-07-31T07:20:44Z</time>
      </trkpt>
      <trkpt lat="47.25236" lon="6.10232">
        <ele>544.4</ele>
        <time>2024-07-31T07:20:45Z</time>
      </trkpt>
      <trkpt lat="47.25234" lon="6.10231">
        <ele>544.4</ele>
        <time>2024-07-31T07:20:46Z</time>
      </trkpt>
      <trkpt lat="47.25233" lon="6.10229">
        <ele>544.8</ele>
        <time>2024-07-31T07:20:47Z</time>
      </trkpt>
      <trkpt lat="47.25231" lon="6.10228">
        <ele>545</ele>
        <time>2024-07-31T07:20:48Z</time>
      </trkpt>
      <trkpt lat="47.25229" lon="6.10226">
        <ele>545.2</ele>
        <time>2024-07-31T07:20:49Z</time>
      </trkpt>
      <trkpt lat="47.25228" lon="6.10225">
        <ele>545.4</ele>
        <time>2024-07-31T07:20:50Z</time>
      </trkpt>
      <trkpt lat="47.25226" lon="6.10223">
        <ele>545.4</ele>
        <time>2024-07-31T07:20:51Z</time>
      </trkpt>
      <trkpt lat="47.25224" lon="6.10222">
        <ele>545.8</ele>
        <time>2024-07-31T07:20:52Z</time>
      </trkpt>
      <trkpt lat="47.25222" lon="6.1022">
        <ele>546</ele>
        <time>2024-07-31T07:20:53Z</time>
      </trkpt>
      <trkpt lat="47.2522" lon="6.10219">
        <ele>546.2</ele>
        <time>2024-07-31T07:20:54Z</time>
      </trkpt>
      <trkpt lat="47.25217" lon="6.10217">
        <ele>546.4</ele>
        <time>2024-07-31T07:20:55Z</time>
      </trkpt>
      <trkpt lat="47.25215" lon="6.10216">
        <ele>546.4</ele>
        <time>2024-07-31T07:20:56Z</time>
      </trkpt>
      <trkpt lat="47.25214" lon="6.10215">
        <ele>546.8</ele>
        <time>2024-07-31T07:20:57Z</time>
      </trkpt>
      <trkpt lat="47.25211" lon="6.10214">
        <ele>547</ele>
        <time>2024-07-31T07:20:58Z</time>
      </trkpt>
      <trkpt lat="47.25209" lon="6.10213">
        <ele>547</ele>
        <time>2024-07-31T07:20:59Z</time>
      </trkpt>
      <trkpt lat="47.25206" lon="6.10211">
        <ele>547.2</ele>
        <time>2024-07-31T07:21:00Z</time>
      </trkpt>
      <trkpt lat="47.25204" lon="6.1021">
        <ele>547.4</ele>
        <time>2024-07-31T07:21:01Z</time>
      </trkpt>
      <trkpt lat="47.25202" lon="6.1021">
        <ele>547.6</ele>
        <time>2024-07-31T07:21:02Z</time>
      </trkpt>
      <trkpt lat="47.252" lon="6.10208">
        <ele>547.8</ele>
        <time>2024-07-31T07:21:03Z</time>
      </trkpt>
      <trkpt lat="47.25197" lon="6.10207">
        <ele>548</ele>
        <time>2024-07-31T07:21:04Z</time>
      </trkpt>
      <trkpt lat="47.25196" lon="6.10206">
        <ele>548.2</ele>
        <time>2024-07-31T07:21:05Z</time>
      </trkpt>
      <trkpt lat="47.25193" lon="6.10205">
        <ele>548.4</ele>
        <time>2024-07-31T07:21:06Z</time>
      </trkpt>
      <trkpt lat="47.25192" lon="6.10203">
        <ele>548.8</ele>
        <time>2024-07-31T07:21:07Z</time>
      </trkpt>
      <trkpt lat="47.2519" lon="6.10201">
        <ele>548.8</ele>
        <time>2024-07-31T07:21:08Z</time>
      </trkpt>
      <trkpt lat="47.25188" lon="6.10199">
        <ele>549</ele>
        <time>2024-07-31T07:21:09Z</time>
      </trkpt>
      <trkpt lat="47.25187" lon="6.10197">
        <ele>549</ele>
        <time>2024-07-31T07:21:10Z</time>
      </trkpt>
      <trkpt lat="47.25185" lon="6.10195">
        <ele>549</ele>
        <time>2024-07-31T07:21:11Z</time>
      </trkpt>
      <trkpt lat="47.25183" lon="6.10193">
        <ele>549.4</ele>
        <time>2024-07-31T07:21:12Z</time>
      </trkpt>
      <trkpt lat="47.25182" lon="6.10191">
        <ele>549.4</ele>
        <time>2024-07-31T07:21:13Z</time>
      </trkpt>
      <trkpt lat="47.2518" lon="6.10189">
        <ele>549.8</ele>
        <time>2024-07-31T07:21:14Z</time>
      </trkpt>
      <trkpt lat="47.25178" lon="6.10186">
        <ele>549.8</ele>
        <time>2024-07-31T07:21:15Z</time>
      </trkpt>
      <trkpt lat="47.25176" lon="6.10184">
        <ele>550</ele>
        <time>2024-07-31T07:21:16Z</time>
      </trkpt>
      <trkpt lat="47.25174" lon="6.10182">
        <ele>550.4</ele>
        <time>2024-07-31T07:21:17Z</time>
      </trkpt>
      <trkpt lat="47.25173" lon="6.1018">
        <ele>550.6</ele>
        <time>2024-07-31T07:21:18Z</time>
      </trkpt>
      <trkpt lat="47.2517" lon="6.10177">
        <ele>551</ele>
        <time>2024-07-31T07:21:19Z</time>
      </trkpt>
      <trkpt lat="47.25168" lon="6.10175">
        <ele>551.4</ele>
        <time>2024-07-31T07:21:20Z</time>
      </trkpt>
      <trkpt lat="47.25166" lon="6.10172">
        <ele>551.6</ele>
        <time>2024-07-31T07:21:21Z</time>
      </trkpt>
      <trkpt lat="47.25165" lon="6.10169">
        <ele>551.8</ele>
        <time>2024-07-31T07:21:22Z</time>
      </trkpt>
      <trkpt lat="47.25163" lon="6.10167">
        <ele>551.8</ele>
        <time>2024-07-31T07:21:23Z</time>
      </trkpt>
      <trkpt lat="47.25161" lon="6.10165">
        <ele>552.2</ele>
        <time>2024-07-31T07:21:24Z</time>
      </trkpt>
      <trkpt lat="47.25159" lon="6.10163">
        <ele>552.4</ele>
        <time>2024-07-31T07:21:25Z</time>
      </trkpt>
      <trkpt lat="47.25158" lon="6.10161">
        <ele>552.6</ele>
        <time>2024-07-31T07:21:26Z</time>
      </trkpt>
      <trkpt lat="47.25156" lon="6.10159">
        <ele>552.8</ele>
        <time>2024-07-31T07:21:27Z</time>
      </trkpt>
      <trkpt lat="47.25154" lon="6.10157">
        <ele>553</ele>
        <time>2024-07-31T07:21:28Z</time>
      </trkpt>
      <trkpt lat="47.25153" lon="6.10155">
        <ele>553.2</ele>
        <time>2024-07-31T07:21:29Z</time>
      </trkpt>
      <trkpt lat="47.25151" lon="6.10154">
        <ele>553.2</ele>
        <time>2024-07-31T07:21:30Z</time>
      </trkpt>
      <trkpt lat="47.25149" lon="6.10152">
        <ele>553.6</ele>
        <time>2024-07-31T07:21:31Z</time>
      </trkpt>
      <trkpt lat="47.25148" lon="6.10149">
        <ele>553.6</ele>
        <time>2024-07-31T07:21:32Z</time>
      </trkpt>
      <trkpt lat="47.25147" lon="6.10147">
        <ele>553.8</ele>
        <time>2024-07-31T07:21:33Z</time>
      </trkpt>
      <trkpt lat="47.25146" lon="6.10145">
        <ele>554</ele>
        <time>2024-07-31T07:21:34Z</time>
      </trkpt>
      <trkpt lat="47.25145" lon="6.10143">
        <ele>554</ele>
        <time>2024-07-31T07:21:35Z</time>
      </trkpt>
      <trkpt lat="47.25143" lon="6.1014">
        <ele>554</ele>
        <time>2024-07-31T07:21:36Z</time>
      </trkpt>
      <trkpt lat="47.25142" lon="6.10138">
        <ele>554.4</ele>
        <time>2024-07-31T07:21:37Z</time>
      </trkpt>
      <trkpt lat="47.25141" lon="6.10136">
        <ele>554.4</ele>
        <time>2024-07-31T07:21:38Z</time>
      </trkpt>
      <trkpt lat="47.2514" lon="6.10134">
        <ele>554.6</ele>
        <time>2024-07-31T07:21:39Z</time>
      </trkpt>
      <trkpt lat="47.25138" lon="6.10133">
        <ele>554.8</ele>
        <time>2024-07-31T07:21:40Z</time>
      </trkpt>
      <trkpt lat="47.25137" lon="6.10131">
        <ele>554.6</ele>
        <time>2024-07-31T07:21:41Z</time>
      </trkpt>
      <trkpt lat="47.25136" lon="6.10129">
        <ele>554.6</ele>
        <time>2024-07-31T07:21:42Z</time>
      </trkpt>
      <trkpt lat="47.25135" lon="6.10127">
        <ele>554.6</ele>
        <time>2024-07-31T07:21:43Z</time>
      </trkpt>
      <trkpt lat="47.25133" lon="6.10125">
        <ele>554.8</ele>
        <time>2024-07-31T07:21:44Z</time>
      </trkpt>
      <trkpt lat="47.25131" lon="6.10123">
        <ele>555</ele>
        <time>2024-07-31T07:21:45Z</time>
      </trkpt>
      <trkpt lat="47.25129" lon="6.10122">
        <ele>555</ele>
        <time>2024-07-31T07:21:46Z</time>
      </trkpt>
      <trkpt lat="47.25128" lon="6.10122">
        <ele>555</ele>
        <time>2024-07-31T07:21:47Z</time>
      </trkpt>
      <trkpt lat="47.25127" lon="6.10122">
        <ele>555.2</ele>
        <time>2024-07-31T07:21:48Z</time>
      </trkpt>
      <trkpt lat="47.25125" lon="6.10123">
        <ele>555.2</ele>
        <time>2024-07-31T07:21:49Z</time>
      </trkpt>
      <trkpt lat="47.25124" lon="6.10123">
        <ele>555.6</ele>
        <time>2024-07-31T07:21:50Z</time>
      </trkpt>
      <trkpt lat="47.25122" lon="6.10124">
        <ele>555.4</ele>
        <time>2024-07-31T07:21:51Z</time>
      </trkpt>
      <trkpt lat="47.25121" lon="6.10125">
        <ele>555.4</ele>
        <time>2024-07-31T07:21:52Z</time>
      </trkpt>
      <trkpt lat="47.25119" lon="6.10126">
        <ele>555.8</ele>
        <time>2024-07-31T07:21:53Z</time>
      </trkpt>
      <trkpt lat="47.25118" lon="6.10127">
        <ele>556.2</ele>
        <time>2024-07-31T07:21:54Z</time>
      </trkpt>
      <trkpt lat="47.25117" lon="6.10129">
        <ele>556.2</ele>
        <time>2024-07-31T07:21:55Z</time>
      </trkpt>
      <trkpt lat="47.25115" lon="6.10131">
        <ele>556.2</ele>
        <time>2024-07-31T07:21:56Z</time>
      </trkpt>
      <trkpt lat="47.25114" lon="6.10133">
        <ele>556.4</ele>
        <time>2024-07-31T07:21:57Z</time>
      </trkpt>
      <trkpt lat="47.25112" lon="6.10134">
        <ele>556.8</ele>
        <time>2024-07-31T07:21:58Z</time>
      </trkpt>
      <trkpt lat="47.25111" lon="6.10136">
        <ele>556.8</ele>
        <time>2024-07-31T07:21:59Z</time>
      </trkpt>
      <trkpt lat="47.2511" lon="6.10137">
        <ele>556.8</ele>
        <time>2024-07-31T07:22:00Z</time>
      </trkpt>
      <trkpt lat="47.25108" lon="6.10139">
        <ele>557</ele>
        <time>2024-07-31T07:22:01Z</time>
      </trkpt>
      <trkpt lat="47.25107" lon="6.10141">
        <ele>557.4</ele>
        <time>2024-07-31T07:22:02Z</time>
      </trkpt>
      <trkpt lat="47.25106" lon="6.10143">
        <ele>557.6</ele>
        <time>2024-07-31T07:22:03Z</time>
      </trkpt>
      <trkpt lat="47.25105" lon="6.10144">
        <ele>557.6</ele>
        <time>2024-07-31T07:22:04Z</time>
      </trkpt>
      <trkpt lat="47.25105" lon="6.10145">
        <ele>557.8</ele>
        <time>2024-07-31T07:22:05Z</time>
      </trkpt>
      <trkpt lat="47.25104" lon="6.10147">
        <ele>557.8</ele>
        <time>2024-07-31T07:22:06Z</time>
      </trkpt>
      <trkpt lat="47.25104" lon="6.10149">
        <ele>557.8</ele>
        <time>2024-07-31T07:22:07Z</time>
      </trkpt>
      <trkpt lat="47.25103" lon="6.10151">
        <ele>558</ele>
        <time>2024-07-31T07:22:08Z</time>
      </trkpt>
      <trkpt lat="47.25103" lon="6.10153">
        <ele>558.2</ele>
        <time>2024-07-31T07:22:09Z</time>
      </trkpt>
      <trkpt lat="47.25102" lon="6.10156">
        <ele>558.2</ele>
        <time>2024-07-31T07:22:10Z</time>
      </trkpt>
      <trkpt lat="47.25102" lon="6.10158">
        <ele>558.4</ele>
        <time>2024-07-31T07:22:11Z</time>
      </trkpt>
      <trkpt lat="47.25101" lon="6.1016">
        <ele>558.6</ele>
        <time>2024-07-31T07:22:12Z</time>
      </trkpt>
      <trkpt lat="47.25101" lon="6.10162">
        <ele>558.8</ele>
        <time>2024-07-31T07:22:13Z</time>
      </trkpt>
      <trkpt lat="47.25101" lon="6.10164">
        <ele>558.8</ele>
        <time>2024-07-31T07:22:14Z</time>
      </trkpt>
      <trkpt lat="47.251" lon="6.10166">
        <ele>558.8</ele>
        <time>2024-07-31T07:22:15Z</time>
      </trkpt>
      <trkpt lat="47.251" lon="6.10168">
        <ele>559</ele>
        <time>2024-07-31T07:22:16Z</time>
      </trkpt>
      <trkpt lat="47.25099" lon="6.1017">
        <ele>559</ele>
        <time>2024-07-31T07:22:17Z</time>
      </trkpt>
      <trkpt lat="47.25099" lon="6.10172">
        <ele>559.4</ele>
        <time>2024-07-31T07:22:18Z</time>
      </trkpt>
      <trkpt lat="47.25098" lon="6.10174">
        <ele>559.2</ele>
        <time>2024-07-31T07:22:19Z</time>
      </trkpt>
      <trkpt lat="47.25097" lon="6.10177">
        <ele>559.2</ele>
        <time>2024-07-31T07:22:20Z</time>
      </trkpt>
      <trkpt lat="47.25097" lon="6.10179">
        <ele>559.6</ele>
        <time>2024-07-31T07:22:21Z</time>
      </trkpt>
      <trkpt lat="47.25096" lon="6.10181">
        <ele>559.6</ele>
        <time>2024-07-31T07:22:22Z</time>
      </trkpt>
      <trkpt lat="47.25096" lon="6.10183">
        <ele>559.6</ele>
        <time>2024-07-31T07:22:23Z</time>
      </trkpt>
      <trkpt lat="47.25096" lon="6.10185">
        <ele>559.8</ele>
        <time>2024-07-31T07:22:24Z</time>
      </trkpt>
      <trkpt lat="47.25095" lon="6.10188">
        <ele>560</ele>
        <time>2024-07-31T07:22:25Z</time>
      </trkpt>
      <trkpt lat="47.25095" lon="6.1019">
        <ele>560</ele>
        <time>2024-07-31T07:22:26Z</time>
      </trkpt>
      <trkpt lat="47.25095" lon="6.10193">
        <ele>560</ele>
        <time>2024-07-31T07:22:27Z</time>
      </trkpt>
      <trkpt lat="47.25095" lon="6.10196">
        <ele>560</ele>
        <time>2024-07-31T07:22:28Z</time>
      </trkpt>
      <trkpt lat="47.25095" lon="6.10198">
        <ele>560.2</ele>
        <time>2024-07-31T07:22:29Z</time>
      </trkpt>
      <trkpt lat="47.25095" lon="6.10201">
        <ele>560.2</ele>
        <time>2024-07-31T07:22:30Z</time>
      </trkpt>
      <trkpt lat="47.25095" lon="6.10204">
        <ele>560.2</ele>
        <time>2024-07-31T07:22:31Z</time>
      </trkpt>
      <trkpt lat="47.25095" lon="6.10206">
        <ele>560</ele>
        <time>2024-07-31T07:22:32Z</time>
      </trkpt>
      <trkpt lat="47.25094" lon="6.10208">
        <ele>560.2</ele>
        <time>2024-07-31T07:22:33Z</time>
      </trkpt>
      <trkpt lat="47.25094" lon="6.1021">
        <ele>560.4</ele>
        <time>2024-07-31T07:22:34Z</time>
      </trkpt>
      <trkpt lat="47.25094" lon="6.10213">
        <ele>560.2</ele>
        <time>2024-07-31T07:22:35Z</time>
      </trkpt>
      <trkpt lat="47.25094" lon="6.10216">
        <ele>560.2</ele>
        <time>2024-07-31T07:22:36Z</time>
      </trkpt>
      <trkpt lat="47.25094" lon="6.10219">
        <ele>560.4</ele>
        <time>2024-07-31T07:22:37Z</time>
      </trkpt>
      <trkpt lat="47.25094" lon="6.10222">
        <ele>560.4</ele>
        <time>2024-07-31T07:22:38Z</time>
      </trkpt>
      <trkpt lat="47.25094" lon="6.10224">
        <ele>560.8</ele>
        <time>2024-07-31T07:22:39Z</time>
      </trkpt>
      <trkpt lat="47.25093" lon="6.10227">
        <ele>560.6</ele>
        <time>2024-07-31T07:22:40Z</time>
      </trkpt>
      <trkpt lat="47.25093" lon="6.1023">
        <ele>560.8</ele>
        <time>2024-07-31T07:22:41Z</time>
      </trkpt>
      <trkpt lat="47.25092" lon="6.10232">
        <ele>560.8</ele>
        <time>2024-07-31T07:22:42Z</time>
      </trkpt>
      <trkpt lat="47.25092" lon="6.10235">
        <ele>560.8</ele>
        <time>2024-07-31T07:22:43Z</time>
      </trkpt>
      <trkpt lat="47.25092" lon="6.10237">
        <ele>561</ele>
        <time>2024-07-31T07:22:44Z</time>
      </trkpt>
      <trkpt lat="47.25092" lon="6.1024">
        <ele>560.8</ele>
        <time>2024-07-31T07:22:45Z</time>
      </trkpt>
      <trkpt lat="47.25092" lon="6.10242">
        <ele>561</ele>
        <time>2024-07-31T07:22:46Z</time>
      </trkpt>
      <trkpt lat="47.25092" lon="6.10245">
        <ele>560.8</ele>
        <time>2024-07-31T07:22:47Z</time>
      </trkpt>
      <trkpt lat="47.25091" lon="6.10248">
        <ele>561</ele>
        <time>2024-07-31T07:22:48Z</time>
      </trkpt>
      <trkpt lat="47.2509" lon="6.1025">
        <ele>561.2</ele>
        <time>2024-07-31T07:22:49Z</time>
      </trkpt>
      <trkpt lat="47.25089" lon="6.10253">
        <ele>561.2</ele>
        <time>2024-07-31T07:22:50Z</time>
      </trkpt>
      <trkpt lat="47.25089" lon="6.10256">
        <ele>561.2</ele>
        <time>2024-07-31T07:22:51Z</time>
      </trkpt>
      <trkpt lat="47.25088" lon="6.10258">
        <ele>561.2</ele>
        <time>2024-07-31T07:22:52Z</time>
      </trkpt>
      <trkpt lat="47.25087" lon="6.10261">
        <ele>561.4</ele>
        <time>2024-07-31T07:22:53Z</time>
      </trkpt>
      <trkpt lat="47.25087" lon="6.10263">
        <ele>561.4</ele>
        <time>2024-07-31T07:22:54Z</time>
      </trkpt>
      <trkpt lat="47.25086" lon="6.10266">
        <ele>561.2</ele>
        <time>2024-07-31T07:22:55Z</time>
      </trkpt>
      <trkpt lat="47.25085" lon="6.10269">
        <ele>561.4</ele>
        <time>2024-07-31T07:22:56Z</time>
      </trkpt>
      <trkpt lat="47.25084" lon="6.10272">
        <ele>561.4</ele>
        <time>2024-07-31T07:22:57Z</time>
      </trkpt>
      <trkpt lat="47.25084" lon="6.10275">
        <ele>561.4</ele>
        <time>2024-07-31T07:22:58Z</time>
      </trkpt>
      <trkpt lat="47.25083" lon="6.10277">
        <ele>561.6</ele>
        <time>2024-07-31T07:22:59Z</time>
      </trkpt>
      <trkpt lat="47.25083" lon="6.10279">
        <ele>561.6</ele>
        <time>2024-07-31T07:23:00Z</time>
      </trkpt>
      <trkpt lat="47.25082" lon="6.10282">
        <ele>561.8</ele>
        <time>2024-07-31T07:23:01Z</time>
      </trkpt>
      <trkpt lat="47.25082" lon="6.10284">
        <ele>561.8</ele>
        <time>2024-07-31T07:23:02Z</time>
      </trkpt>
      <trkpt lat="47.25081" lon="6.10287">
        <ele>562</ele>
        <time>2024-07-31T07:23:03Z</time>
      </trkpt>
      <trkpt lat="47.2508" lon="6.10289">
        <ele>562</ele>
        <time>2024-07-31T07:23:04Z</time>
      </trkpt>
      <trkpt lat="47.2508" lon="6.10292">
        <ele>562</ele>
        <time>2024-07-31T07:23:05Z</time>
      </trkpt>
      <trkpt lat="47.2508" lon="6.10294">
        <ele>562</ele>
        <time>2024-07-31T07:23:06Z</time>
      </trkpt>
      <trkpt lat="47.25079" lon="6.10296">
        <ele>562</ele>
        <time>2024-07-31T07:23:07Z</time>
      </trkpt>
      <trkpt lat="47.25078" lon="6.10298">
        <ele>562.2</ele>
        <time>2024-07-31T07:23:08Z</time>
      </trkpt>
      <trkpt lat="47.25077" lon="6.103">
        <ele>562</ele>
        <time>2024-07-31T07:23:09Z</time>
      </trkpt>
      <trkpt lat="47.25076" lon="6.10303">
        <ele>562.2</ele>
        <time>2024-07-31T07:23:10Z</time>
      </trkpt>
      <trkpt lat="47.25076" lon="6.10305">
        <ele>562.2</ele>
        <time>2024-07-31T07:23:11Z</time>
      </trkpt>
      <trkpt lat="47.25075" lon="6.10308">
        <ele>562.2</ele>
        <time>2024-07-31T07:23:12Z</time>
      </trkpt>
      <trkpt lat="47.25075" lon="6.10311">
        <ele>562.4</ele>
        <time>2024-07-31T07:23:13Z</time>
      </trkpt>
      <trkpt lat="47.25075" lon="6.10313">
        <ele>562.4</ele>
        <time>2024-07-31T07:23:14Z</time>
      </trkpt>
      <trkpt lat="47.25075" lon="6.10316">
        <ele>562.4</ele>
        <time>2024-07-31T07:23:15Z</time>
      </trkpt>
      <trkpt lat="47.25076" lon="6.10319">
        <ele>562.4</ele>
        <time>2024-07-31T07:23:16Z</time>
      </trkpt>
      <trkpt lat="47.25076" lon="6.10321">
        <ele>562.4</ele>
        <time>2024-07-31T07:23:17Z</time>
      </trkpt>
      <trkpt lat="47.25077" lon="6.10324">
        <ele>562.6</ele>
        <time>2024-07-31T07:23:18Z</time>
      </trkpt>
      <trkpt lat="47.25078" lon="6.10327">
        <ele>562.6</ele>
        <time>2024-07-31T07:23:19Z</time>
      </trkpt>
      <trkpt lat="47.25078" lon="6.1033">
        <ele>562.6</ele>
        <time>2024-07-31T07:23:20Z</time>
      </trkpt>
      <trkpt lat="47.25077" lon="6.10333">
        <ele>562.8</ele>
        <time>2024-07-31T07:23:21Z</time>
      </trkpt>
      <trkpt lat="47.25077" lon="6.10336">
        <ele>563</ele>
        <time>2024-07-31T07:23:22Z</time>
      </trkpt>
      <trkpt lat="47.25077" lon="6.10338">
        <ele>562.8</ele>
        <time>2024-07-31T07:23:23Z</time>
      </trkpt>
      <trkpt lat="47.25077" lon="6.10341">
        <ele>563.2</ele>
        <time>2024-07-31T07:23:24Z</time>
      </trkpt>
      <trkpt lat="47.25077" lon="6.10344">
        <ele>563</ele>
        <time>2024-07-31T07:23:25Z</time>
      </trkpt>
      <trkpt lat="47.25076" lon="6.10346">
        <ele>563.2</ele>
        <time>2024-07-31T07:23:26Z</time>
      </trkpt>
      <trkpt lat="47.25076" lon="6.10349">
        <ele>563.4</ele>
        <time>2024-07-31T07:23:27Z</time>
      </trkpt>
      <trkpt lat="47.25076" lon="6.10354">
        <ele>563.4</ele>
        <time>2024-07-31T07:23:28Z</time>
      </trkpt>
      <trkpt lat="47.25076" lon="6.10354">
        <ele>563.4</ele>
        <time>2024-07-31T07:23:29Z</time>
      </trkpt>
      <trkpt lat="47.25075" lon="6.10358">
        <ele>563.4</ele>
        <time>2024-07-31T07:23:30Z</time>
      </trkpt>
      <trkpt lat="47.25075" lon="6.10361">
        <ele>563.4</ele>
        <time>2024-07-31T07:23:31Z</time>
      </trkpt>
      <trkpt lat="47.25074" lon="6.10366">
        <ele>563.6</ele>
        <time>2024-07-31T07:23:32Z</time>
      </trkpt>
      <trkpt lat="47.25074" lon="6.10366">
        <ele>563.8</ele>
        <time>2024-07-31T07:23:33Z</time>
      </trkpt>
      <trkpt lat="47.25073" lon="6.10369">
        <ele>563.6</ele>
        <time>2024-07-31T07:23:34Z</time>
      </trkpt>
      <trkpt lat="47.25073" lon="6.10372">
        <ele>563.8</ele>
        <time>2024-07-31T07:23:35Z</time>
      </trkpt>
      <trkpt lat="47.25073" lon="6.10374">
        <ele>563.8</ele>
        <time>2024-07-31T07:23:36Z</time>
      </trkpt>
      <trkpt lat="47.25072" lon="6.10377">
        <ele>563.8</ele>
        <time>2024-07-31T07:23:37Z</time>
      </trkpt>
      <trkpt lat="47.25072" lon="6.10379">
        <ele>563.8</ele>
        <time>2024-07-31T07:23:38Z</time>
      </trkpt>
      <trkpt lat="47.25071" lon="6.10381">
        <ele>564</ele>
        <time>2024-07-31T07:23:39Z</time>
      </trkpt>
      <trkpt lat="47.25071" lon="6.10384">
        <ele>564</ele>
        <time>2024-07-31T07:23:40Z</time>
      </trkpt>
      <trkpt lat="47.25071" lon="6.10387">
        <ele>564</ele>
        <time>2024-07-31T07:23:41Z</time>
      </trkpt>
      <trkpt lat="47.25071" lon="6.10389">
        <ele>564</ele>
        <time>2024-07-31T07:23:42Z</time>
      </trkpt>
      <trkpt lat="47.2507" lon="6.10392">
        <ele>564.2</ele>
        <time>2024-07-31T07:23:43Z</time>
      </trkpt>
      <trkpt lat="47.2507" lon="6.10394">
        <ele>564</ele>
        <time>2024-07-31T07:23:44Z</time>
      </trkpt>
      <trkpt lat="47.25071" lon="6.10399">
        <ele>564.2</ele>
        <time>2024-07-31T07:23:45Z</time>
      </trkpt>
      <trkpt lat="47.25071" lon="6.10399">
        <ele>564.4</ele>
        <time>2024-07-31T07:23:46Z</time>
      </trkpt>
      <trkpt lat="47.2507" lon="6.10402">
        <ele>564.4</ele>
        <time>2024-07-31T07:23:47Z</time>
      </trkpt>
      <trkpt lat="47.25069" lon="6.10404">
        <ele>564.4</ele>
        <time>2024-07-31T07:23:48Z</time>
      </trkpt>
      <trkpt lat="47.25069" lon="6.10406">
        <ele>564.4</ele>
        <time>2024-07-31T07:23:49Z</time>
      </trkpt>
      <trkpt lat="47.25069" lon="6.10409">
        <ele>564.4</ele>
        <time>2024-07-31T07:23:50Z</time>
      </trkpt>
      <trkpt lat="47.25068" lon="6.10411">
        <ele>564.6</ele>
        <time>2024-07-31T07:23:51Z</time>
      </trkpt>
      <trkpt lat="47.25068" lon="6.10414">
        <ele>564.6</ele>
        <time>2024-07-31T07:23:52Z</time>
      </trkpt>
      <trkpt lat="47.25067" lon="6.10416">
        <ele>564.6</ele>
        <time>2024-07-31T07:23:53Z</time>
      </trkpt>
      <trkpt lat="47.25067" lon="6.10418">
        <ele>564.8</ele>
        <time>2024-07-31T07:23:54Z</time>
      </trkpt>
      <trkpt lat="47.25066" lon="6.10421">
        <ele>564.8</ele>
        <time>2024-07-31T07:23:55Z</time>
      </trkpt>
      <trkpt lat="47.25066" lon="6.10423">
        <ele>565</ele>
        <time>2024-07-31T07:23:56Z</time>
      </trkpt>
      <trkpt lat="47.25066" lon="6.10426">
        <ele>564.8</ele>
        <time>2024-07-31T07:23:57Z</time>
      </trkpt>
      <trkpt lat="47.25066" lon="6.10428">
        <ele>565</ele>
        <time>2024-07-31T07:23:58Z</time>
      </trkpt>
      <trkpt lat="47.25066" lon="6.10431">
        <ele>564.8</ele>
        <time>2024-07-31T07:23:59Z</time>
      </trkpt>
      <trkpt lat="47.25066" lon="6.10434">
        <ele>565</ele>
        <time>2024-07-31T07:24:00Z</time>
      </trkpt>
      <trkpt lat="47.25065" lon="6.10437">
        <ele>564.8</ele>
        <time>2024-07-31T07:24:01Z</time>
      </trkpt>
      <trkpt lat="47.25065" lon="6.10439">
        <ele>564.8</ele>
        <time>2024-07-31T07:24:02Z</time>
      </trkpt>
      <trkpt lat="47.25065" lon="6.10442">
        <ele>564.8</ele>
        <time>2024-07-31T07:24:03Z</time>
      </trkpt>
      <trkpt lat="47.25065" lon="6.10444">
        <ele>564.8</ele>
        <time>2024-07-31T07:24:04Z</time>
      </trkpt>
      <trkpt lat="47.25065" lon="6.10447">
        <ele>565.2</ele>
        <time>2024-07-31T07:24:05Z</time>
      </trkpt>
      <trkpt lat="47.25065" lon="6.1045">
        <ele>565</ele>
        <time>2024-07-31T07:24:06Z</time>
      </trkpt>
      <trkpt lat="47.25064" lon="6.10452">
        <ele>565</ele>
        <time>2024-07-31T07:24:07Z</time>
      </trkpt>
      <trkpt lat="47.25064" lon="6.10454">
        <ele>565.2</ele>
        <time>2024-07-31T07:24:08Z</time>
      </trkpt>
      <trkpt lat="47.25065" lon="6.10456">
        <ele>565.2</ele>
        <time>2024-07-31T07:24:09Z</time>
      </trkpt>
      <trkpt lat="47.25065" lon="6.10457">
        <ele>565.2</ele>
        <time>2024-07-31T07:24:10Z</time>
      </trkpt>
      <trkpt lat="47.25066" lon="6.10458">
        <ele>565</ele>
        <time>2024-07-31T07:24:11Z</time>
      </trkpt>
      <trkpt lat="47.25066" lon="6.10459">
        <ele>565</ele>
        <time>2024-07-31T07:24:12Z</time>
      </trkpt>
      <trkpt lat="47.25066" lon="6.10461">
        <ele>565</ele>
        <time>2024-07-31T07:24:13Z</time>
      </trkpt>
      <trkpt lat="47.25066" lon="6.10462">
        <ele>565</ele>
        <time>2024-07-31T07:24:14Z</time>
      </trkpt>
      <trkpt lat="47.25066" lon="6.10464">
        <ele>565</ele>
        <time>2024-07-31T07:24:15Z</time>
      </trkpt>
      <trkpt lat="47.25065" lon="6.10466">
        <ele>565</ele>
        <time>2024-07-31T07:24:16Z</time>
      </trkpt>
      <trkpt lat="47.25065" lon="6.10468">
        <ele>565.2</ele>
        <time>2024-07-31T07:24:17Z</time>
      </trkpt>
      <trkpt lat="47.25065" lon="6.1047">
        <ele>565.2</ele>
        <time>2024-07-31T07:24:18Z</time>
      </trkpt>
      <trkpt lat="47.25064" lon="6.10472">
        <ele>565</ele>
        <time>2024-07-31T07:24:19Z</time>
      </trkpt>
      <trkpt lat="47.25064" lon="6.10474">
        <ele>565</ele>
        <time>2024-07-31T07:24:20Z</time>
      </trkpt>
      <trkpt lat="47.25063" lon="6.10476">
        <ele>565</ele>
        <time>2024-07-31T07:24:21Z</time>
      </trkpt>
      <trkpt lat="47.25063" lon="6.10479">
        <ele>565</ele>
        <time>2024-07-31T07:24:22Z</time>
      </trkpt>
      <trkpt lat="47.25063" lon="6.10482">
        <ele>565</ele>
        <time>2024-07-31T07:24:23Z</time>
      </trkpt>
      <trkpt lat="47.25062" lon="6.10485">
        <ele>565.2</ele>
        <time>2024-07-31T07:24:24Z</time>
      </trkpt>
      <trkpt lat="47.25062" lon="6.10487">
        <ele>565</ele>
        <time>2024-07-31T07:24:25Z</time>
      </trkpt>
      <trkpt lat="47.25062" lon="6.1049">
        <ele>565</ele>
        <time>2024-07-31T07:24:26Z</time>
      </trkpt>
      <trkpt lat="47.25061" lon="6.10493">
        <ele>565.2</ele>
        <time>2024-07-31T07:24:27Z</time>
      </trkpt>
      <trkpt lat="47.25061" lon="6.10496">
        <ele>565</ele>
        <time>2024-07-31T07:24:28Z</time>
      </trkpt>
      <trkpt lat="47.2506" lon="6.10499">
        <ele>565</ele>
        <time>2024-07-31T07:24:29Z</time>
      </trkpt>
      <trkpt lat="47.2506" lon="6.10501">
        <ele>565</ele>
        <time>2024-07-31T07:24:30Z</time>
      </trkpt>
      <trkpt lat="47.2506" lon="6.10504">
        <ele>565.2</ele>
        <time>2024-07-31T07:24:31Z</time>
      </trkpt>
      <trkpt lat="47.25061" lon="6.10507">
        <ele>565</ele>
        <time>2024-07-31T07:24:32Z</time>
      </trkpt>
      <trkpt lat="47.25061" lon="6.10509">
        <ele>565</ele>
        <time>2024-07-31T07:24:33Z</time>
      </trkpt>
      <trkpt lat="47.2506" lon="6.10512">
        <ele>564.8</ele>
        <time>2024-07-31T07:24:34Z</time>
      </trkpt>
      <trkpt lat="47.2506" lon="6.10514">
        <ele>565</ele>
        <time>2024-07-31T07:24:35Z</time>
      </trkpt>
      <trkpt lat="47.25059" lon="6.10516">
        <ele>565</ele>
        <time>2024-07-31T07:24:36Z</time>
      </trkpt>
      <trkpt lat="47.25059" lon="6.10518">
        <ele>564.8</ele>
        <time>2024-07-31T07:24:37Z</time>
      </trkpt>
      <trkpt lat="47.25058" lon="6.1052">
        <ele>565</ele>
        <time>2024-07-31T07:24:38Z</time>
      </trkpt>
      <trkpt lat="47.25058" lon="6.10523">
        <ele>565</ele>
        <time>2024-07-31T07:24:39Z</time>
      </trkpt>
      <trkpt lat="47.25058" lon="6.10525">
        <ele>565</ele>
        <time>2024-07-31T07:24:40Z</time>
      </trkpt>
      <trkpt lat="47.25057" lon="6.10528">
        <ele>565</ele>
        <time>2024-07-31T07:24:41Z</time>
      </trkpt>
      <trkpt lat="47.25056" lon="6.10531">
        <ele>565</ele>
        <time>2024-07-31T07:24:42Z</time>
      </trkpt>
      <trkpt lat="47.25055" lon="6.10534">
        <ele>564.8</ele>
        <time>2024-07-31T07:24:43Z</time>
      </trkpt>
      <trkpt lat="47.25055" lon="6.10537">
        <ele>565</ele>
        <time>2024-07-31T07:24:44Z</time>
      </trkpt>
      <trkpt lat="47.25055" lon="6.1054">
        <ele>564.6</ele>
        <time>2024-07-31T07:24:45Z</time>
      </trkpt>
      <trkpt lat="47.25055" lon="6.10544">
        <ele>564.6</ele>
        <time>2024-07-31T07:24:46Z</time>
      </trkpt>
      <trkpt lat="47.25054" lon="6.10547">
        <ele>564.2</ele>
        <time>2024-07-31T07:24:47Z</time>
      </trkpt>
      <trkpt lat="47.25054" lon="6.10551">
        <ele>564.2</ele>
        <time>2024-07-31T07:24:48Z</time>
      </trkpt>
      <trkpt lat="47.25053" lon="6.10554">
        <ele>564.4</ele>
        <time>2024-07-31T07:24:49Z</time>
      </trkpt>
      <trkpt lat="47.25054" lon="6.10558">
        <ele>564.2</ele>
        <time>2024-07-31T07:24:50Z</time>
      </trkpt>
      <trkpt lat="47.25054" lon="6.10562">
        <ele>564.4</ele>
        <time>2024-07-31T07:24:51Z</time>
      </trkpt>
      <trkpt lat="47.25053" lon="6.10566">
        <ele>564.4</ele>
        <time>2024-07-31T07:24:52Z</time>
      </trkpt>
      <trkpt lat="47.25052" lon="6.10569">
        <ele>564.4</ele>
        <time>2024-07-31T07:24:53Z</time>
      </trkpt>
      <trkpt lat="47.25051" lon="6.10572">
        <ele>564</ele>
        <time>2024-07-31T07:24:54Z</time>
      </trkpt>
      <trkpt lat="47.2505" lon="6.10575">
        <ele>563.6</ele>
        <time>2024-07-31T07:24:55Z</time>
      </trkpt>
      <trkpt lat="47.25049" lon="6.10579">
        <ele>563.6</ele>
        <time>2024-07-31T07:24:56Z</time>
      </trkpt>
      <trkpt lat="47.25047" lon="6.10583">
        <ele>562.8</ele>
        <time>2024-07-31T07:24:57Z</time>
      </trkpt>
      <trkpt lat="47.25046" lon="6.10587">
        <ele>563</ele>
        <time>2024-07-31T07:24:58Z</time>
      </trkpt>
      <trkpt lat="47.25044" lon="6.10591">
        <ele>562.8</ele>
        <time>2024-07-31T07:24:59Z</time>
      </trkpt>
      <trkpt lat="47.25043" lon="6.10595">
        <ele>562.2</ele>
        <time>2024-07-31T07:25:00Z</time>
      </trkpt>
      <trkpt lat="47.25041" lon="6.10598">
        <ele>561.8</ele>
        <time>2024-07-31T07:25:01Z</time>
      </trkpt>
      <trkpt lat="47.25039" lon="6.10602">
        <ele>561.4</ele>
        <time>2024-07-31T07:25:02Z</time>
      </trkpt>
      <trkpt lat="47.25037" lon="6.10605">
        <ele>561.4</ele>
        <time>2024-07-31T07:25:03Z</time>
      </trkpt>
      <trkpt lat="47.25035" lon="6.10607">
        <ele>561</ele>
        <time>2024-07-31T07:25:04Z</time>
      </trkpt>
      <trkpt lat="47.25033" lon="6.1061">
        <ele>561</ele>
        <time>2024-07-31T07:25:05Z</time>
      </trkpt>
      <trkpt lat="47.25032" lon="6.10613">
        <ele>560.4</ele>
        <time>2024-07-31T07:25:06Z</time>
      </trkpt>
      <trkpt lat="47.25032" lon="6.10617">
        <ele>560.4</ele>
        <time>2024-07-31T07:25:07Z</time>
      </trkpt>
      <trkpt lat="47.2503" lon="6.10621">
        <ele>560.2</ele>
        <time>2024-07-31T07:25:08Z</time>
      </trkpt>
      <trkpt lat="47.25029" lon="6.10625">
        <ele>559.8</ele>
        <time>2024-07-31T07:25:09Z</time>
      </trkpt>
      <trkpt lat="47.25028" lon="6.10629">
        <ele>559.8</ele>
        <time>2024-07-31T07:25:10Z</time>
      </trkpt>
      <trkpt lat="47.25026" lon="6.10634">
        <ele>559</ele>
        <time>2024-07-31T07:25:11Z</time>
      </trkpt>
      <trkpt lat="47.25025" lon="6.10639">
        <ele>559</ele>
        <time>2024-07-31T07:25:12Z</time>
      </trkpt>
      <trkpt lat="47.25023" lon="6.10643">
        <ele>558.6</ele>
        <time>2024-07-31T07:25:13Z</time>
      </trkpt>
      <trkpt lat="47.25022" lon="6.10647">
        <ele>558</ele>
        <time>2024-07-31T07:25:14Z</time>
      </trkpt>
      <trkpt lat="47.25021" lon="6.10652">
        <ele>558.8</ele>
        <time>2024-07-31T07:25:15Z</time>
      </trkpt>
      <trkpt lat="47.25019" lon="6.10656">
        <ele>558.4</ele>
        <time>2024-07-31T07:25:16Z</time>
      </trkpt>
      <trkpt lat="47.25019" lon="6.10661">
        <ele>558.8</ele>
        <time>2024-07-31T07:25:17Z</time>
      </trkpt>
      <trkpt lat="47.25019" lon="6.10666">
        <ele>558.6</ele>
        <time>2024-07-31T07:25:18Z</time>
      </trkpt>
      <trkpt lat="47.25019" lon="6.10671">
        <ele>558.2</ele>
        <time>2024-07-31T07:25:19Z</time>
      </trkpt>
      <trkpt lat="47.25019" lon="6.10676">
        <ele>557.6</ele>
        <time>2024-07-31T07:25:20Z</time>
      </trkpt>
      <trkpt lat="47.2502" lon="6.1068">
        <ele>557.8</ele>
        <time>2024-07-31T07:25:21Z</time>
      </trkpt>
      <trkpt lat="47.2502" lon="6.10685">
        <ele>557.6</ele>
        <time>2024-07-31T07:25:22Z</time>
      </trkpt>
      <trkpt lat="47.2502" lon="6.10689">
        <ele>557.4</ele>
        <time>2024-07-31T07:25:23Z</time>
      </trkpt>
      <trkpt lat="47.2502" lon="6.10693">
        <ele>557.4</ele>
        <time>2024-07-31T07:25:24Z</time>
      </trkpt>
      <trkpt lat="47.2502" lon="6.10697">
        <ele>557.2</ele>
        <time>2024-07-31T07:25:25Z</time>
      </trkpt>
      <trkpt lat="47.25019" lon="6.10701">
        <ele>557.2</ele>
        <time>2024-07-31T07:25:26Z</time>
      </trkpt>
      <trkpt lat="47.25019" lon="6.10705">
        <ele>557</ele>
        <time>2024-07-31T07:25:27Z</time>
      </trkpt>
      <trkpt lat="47.25019" lon="6.10709">
        <ele>557.2</ele>
        <time>2024-07-31T07:25:28Z</time>
      </trkpt>
      <trkpt lat="47.25019" lon="6.10713">
        <ele>557</ele>
        <time>2024-07-31T07:25:29Z</time>
      </trkpt>
      <trkpt lat="47.25019" lon="6.10717">
        <ele>556.8</ele>
        <time>2024-07-31T07:25:30Z</time>
      </trkpt>
      <trkpt lat="47.25019" lon="6.10721">
        <ele>556.8</ele>
        <time>2024-07-31T07:25:31Z</time>
      </trkpt>
      <trkpt lat="47.25018" lon="6.10724">
        <ele>556.8</ele>
        <time>2024-07-31T07:25:32Z</time>
      </trkpt>
      <trkpt lat="47.25018" lon="6.10728">
        <ele>556.8</ele>
        <time>2024-07-31T07:25:33Z</time>
      </trkpt>
      <trkpt lat="47.25018" lon="6.10731">
        <ele>556.8</ele>
        <time>2024-07-31T07:25:34Z</time>
      </trkpt>
      <trkpt lat="47.25019" lon="6.10734">
        <ele>557</ele>
        <time>2024-07-31T07:25:35Z</time>
      </trkpt>
      <trkpt lat="47.25019" lon="6.10736">
        <ele>556.8</ele>
        <time>2024-07-31T07:25:36Z</time>
      </trkpt>
      <trkpt lat="47.2502" lon="6.10736">
        <ele>557</ele>
        <time>2024-07-31T07:25:37Z</time>
      </trkpt>
      <trkpt lat="47.25022" lon="6.10737">
        <ele>557.2</ele>
        <time>2024-07-31T07:25:38Z</time>
      </trkpt>
      <trkpt lat="47.25023" lon="6.10737">
        <ele>557.2</ele>
        <time>2024-07-31T07:25:39Z</time>
      </trkpt>
      <trkpt lat="47.25024" lon="6.10738">
        <ele>557.6</ele>
        <time>2024-07-31T07:25:40Z</time>
      </trkpt>
      <trkpt lat="47.25026" lon="6.1074">
        <ele>557.4</ele>
        <time>2024-07-31T07:25:41Z</time>
      </trkpt>
      <trkpt lat="47.25027" lon="6.10742">
        <ele>557.6</ele>
        <time>2024-07-31T07:25:42Z</time>
      </trkpt>
      <trkpt lat="47.25028" lon="6.10745">
        <ele>557.8</ele>
        <time>2024-07-31T07:25:43Z</time>
      </trkpt>
      <trkpt lat="47.25029" lon="6.10748">
        <ele>557.8</ele>
        <time>2024-07-31T07:25:44Z</time>
      </trkpt>
      <trkpt lat="47.2503" lon="6.10751">
        <ele>557.8</ele>
        <time>2024-07-31T07:25:45Z</time>
      </trkpt>
      <trkpt lat="47.25031" lon="6.10755">
        <ele>557.8</ele>
        <time>2024-07-31T07:25:46Z</time>
      </trkpt>
      <trkpt lat="47.25031" lon="6.10759">
        <ele>557.8</ele>
        <time>2024-07-31T07:25:47Z</time>
      </trkpt>
      <trkpt lat="47.25032" lon="6.10763">
        <ele>558</ele>
        <time>2024-07-31T07:25:48Z</time>
      </trkpt>
      <trkpt lat="47.25033" lon="6.10767">
        <ele>558.2</ele>
        <time>2024-07-31T07:25:49Z</time>
      </trkpt>
      <trkpt lat="47.25034" lon="6.1077">
        <ele>558.2</ele>
        <time>2024-07-31T07:25:50Z</time>
      </trkpt>
      <trkpt lat="47.25035" lon="6.10773">
        <ele>558.2</ele>
        <time>2024-07-31T07:25:51Z</time>
      </trkpt>
      <trkpt lat="47.25036" lon="6.10776">
        <ele>558.2</ele>
        <time>2024-07-31T07:25:52Z</time>
      </trkpt>
      <trkpt lat="47.25037" lon="6.10779">
        <ele>558.4</ele>
        <time>2024-07-31T07:25:53Z</time>
      </trkpt>
      <trkpt lat="47.25038" lon="6.10783">
        <ele>558.4</ele>
        <time>2024-07-31T07:25:54Z</time>
      </trkpt>
      <trkpt lat="47.25038" lon="6.10786">
        <ele>558.4</ele>
        <time>2024-07-31T07:25:55Z</time>
      </trkpt>
      <trkpt lat="47.25039" lon="6.10788">
        <ele>558.4</ele>
        <time>2024-07-31T07:25:56Z</time>
      </trkpt>
      <trkpt lat="47.2504" lon="6.10792">
        <ele>558.2</ele>
        <time>2024-07-31T07:25:57Z</time>
      </trkpt>
      <trkpt lat="47.2504" lon="6.10795">
        <ele>558.4</ele>
        <time>2024-07-31T07:25:58Z</time>
      </trkpt>
      <trkpt lat="47.25041" lon="6.10797">
        <ele>558.6</ele>
        <time>2024-07-31T07:25:59Z</time>
      </trkpt>
      <trkpt lat="47.25042" lon="6.108">
        <ele>558.4</ele>
        <time>2024-07-31T07:26:00Z</time>
      </trkpt>
      <trkpt lat="47.25043" lon="6.10803">
        <ele>558.6</ele>
        <time>2024-07-31T07:26:01Z</time>
      </trkpt>
      <trkpt lat="47.25044" lon="6.10806">
        <ele>558.6</ele>
        <time>2024-07-31T07:26:02Z</time>
      </trkpt>
      <trkpt lat="47.25045" lon="6.10809">
        <ele>558.6</ele>
        <time>2024-07-31T07:26:03Z</time>
      </trkpt>
      <trkpt lat="47.25045" lon="6.10812">
        <ele>558.8</ele>
        <time>2024-07-31T07:26:04Z</time>
      </trkpt>
      <trkpt lat="47.25046" lon="6.10815">
        <ele>558.6</ele>
        <time>2024-07-31T07:26:05Z</time>
      </trkpt>
      <trkpt lat="47.25046" lon="6.10818">
        <ele>558.8</ele>
        <time>2024-07-31T07:26:06Z</time>
      </trkpt>
      <trkpt lat="47.25047" lon="6.10823">
        <ele>559</ele>
        <time>2024-07-31T07:26:07Z</time>
      </trkpt>
      <trkpt lat="47.25048" lon="6.10826">
        <ele>559.4</ele>
        <time>2024-07-31T07:26:08Z</time>
      </trkpt>
      <trkpt lat="47.25048" lon="6.1083">
        <ele>559.2</ele>
        <time>2024-07-31T07:26:09Z</time>
      </trkpt>
      <trkpt lat="47.25048" lon="6.10834">
        <ele>559</ele>
        <time>2024-07-31T07:26:10Z</time>
      </trkpt>
      <trkpt lat="47.25049" lon="6.10837">
        <ele>559</ele>
        <time>2024-07-31T07:26:11Z</time>
      </trkpt>
      <trkpt lat="47.2505" lon="6.10841">
        <ele>559.8</ele>
        <time>2024-07-31T07:26:12Z</time>
      </trkpt>
      <trkpt lat="47.25051" lon="6.10844">
        <ele>560</ele>
        <time>2024-07-31T07:26:13Z</time>
      </trkpt>
      <trkpt lat="47.25051" lon="6.10846">
        <ele>559.6</ele>
        <time>2024-07-31T07:26:14Z</time>
      </trkpt>
      <trkpt lat="47.25052" lon="6.10849">
        <ele>559.8</ele>
        <time>2024-07-31T07:26:15Z</time>
      </trkpt>
      <trkpt lat="47.25053" lon="6.10853">
        <ele>559.8</ele>
        <time>2024-07-31T07:26:16Z</time>
      </trkpt>
      <trkpt lat="47.25055" lon="6.10856">
        <ele>559.8</ele>
        <time>2024-07-31T07:26:17Z</time>
      </trkpt>
      <trkpt lat="47.25056" lon="6.10861">
        <ele>559.6</ele>
        <time>2024-07-31T07:26:18Z</time>
      </trkpt>
      <trkpt lat="47.25057" lon="6.10864">
        <ele>560</ele>
        <time>2024-07-31T07:26:19Z</time>
      </trkpt>
      <trkpt lat="47.25058" lon="6.10867">
        <ele>560.6</ele>
        <time>2024-07-31T07:26:20Z</time>
      </trkpt>
      <trkpt lat="47.2506" lon="6.1087">
        <ele>560.8</ele>
        <time>2024-07-31T07:26:21Z</time>
      </trkpt>
      <trkpt lat="47.25061" lon="6.10873">
        <ele>560.2</ele>
        <time>2024-07-31T07:26:22Z</time>
      </trkpt>
      <trkpt lat="47.25062" lon="6.10876">
        <ele>560.2</ele>
        <time>2024-07-31T07:26:23Z</time>
      </trkpt>
      <trkpt lat="47.25064" lon="6.10879">
        <ele>560.4</ele>
        <time>2024-07-31T07:26:24Z</time>
      </trkpt>
      <trkpt lat="47.25065" lon="6.10882">
        <ele>560.4</ele>
        <time>2024-07-31T07:26:25Z</time>
      </trkpt>
      <trkpt lat="47.25067" lon="6.10885">
        <ele>560.6</ele>
        <time>2024-07-31T07:26:26Z</time>
      </trkpt>
      <trkpt lat="47.25069" lon="6.10888">
        <ele>560.4</ele>
        <time>2024-07-31T07:26:27Z</time>
      </trkpt>
      <trkpt lat="47.25072" lon="6.10891">
        <ele>560.4</ele>
        <time>2024-07-31T07:26:28Z</time>
      </trkpt>
      <trkpt lat="47.25072" lon="6.10895">
        <ele>560.6</ele>
        <time>2024-07-31T07:26:29Z</time>
      </trkpt>
      <trkpt lat="47.25073" lon="6.10898">
        <ele>560.8</ele>
        <time>2024-07-31T07:26:30Z</time>
      </trkpt>
      <trkpt lat="47.25074" lon="6.10901">
        <ele>560.8</ele>
        <time>2024-07-31T07:26:31Z</time>
      </trkpt>
      <trkpt lat="47.25075" lon="6.10903">
        <ele>560.6</ele>
        <time>2024-07-31T07:26:32Z</time>
      </trkpt>
      <trkpt lat="47.25076" lon="6.10905">
        <ele>560.6</ele>
        <time>2024-07-31T07:26:33Z</time>
      </trkpt>
      <trkpt lat="47.25078" lon="6.10908">
        <ele>560.8</ele>
        <time>2024-07-31T07:26:34Z</time>
      </trkpt>
      <trkpt lat="47.25079" lon="6.1091">
        <ele>560.8</ele>
        <time>2024-07-31T07:26:35Z</time>
      </trkpt>
      <trkpt lat="47.2508" lon="6.10911">
        <ele>560.6</ele>
        <time>2024-07-31T07:26:36Z</time>
      </trkpt>
      <trkpt lat="47.25082" lon="6.10913">
        <ele>560.4</ele>
        <time>2024-07-31T07:26:37Z</time>
      </trkpt>
      <trkpt lat="47.25084" lon="6.10913">
        <ele>560.4</ele>
        <time>2024-07-31T07:26:38Z</time>
      </trkpt>
      <trkpt lat="47.25085" lon="6.10913">
        <ele>560</ele>
        <time>2024-07-31T07:26:39Z</time>
      </trkpt>
      <trkpt lat="47.25087" lon="6.10914">
        <ele>560</ele>
        <time>2024-07-31T07:26:40Z</time>
      </trkpt>
      <trkpt lat="47.25088" lon="6.10916">
        <ele>559.8</ele>
        <time>2024-07-31T07:26:41Z</time>
      </trkpt>
      <trkpt lat="47.25089" lon="6.10919">
        <ele>560.2</ele>
        <time>2024-07-31T07:26:42Z</time>
      </trkpt>
      <trkpt lat="47.2509" lon="6.10922">
        <ele>560.4</ele>
        <time>2024-07-31T07:26:43Z</time>
      </trkpt>
      <trkpt lat="47.25092" lon="6.10925">
        <ele>560.4</ele>
        <time>2024-07-31T07:26:44Z</time>
      </trkpt>
      <trkpt lat="47.25092" lon="6.10929">
        <ele>560.8</ele>
        <time>2024-07-31T07:26:45Z</time>
      </trkpt>
      <trkpt lat="47.25093" lon="6.10932">
        <ele>560.8</ele>
        <time>2024-07-31T07:26:46Z</time>
      </trkpt>
      <trkpt lat="47.25094" lon="6.10936">
        <ele>561</ele>
        <time>2024-07-31T07:26:47Z</time>
      </trkpt>
      <trkpt lat="47.25095" lon="6.1094">
        <ele>561</ele>
        <time>2024-07-31T07:26:48Z</time>
      </trkpt>
      <trkpt lat="47.25097" lon="6.10944">
        <ele>561.2</ele>
        <time>2024-07-31T07:26:49Z</time>
      </trkpt>
      <trkpt lat="47.25098" lon="6.10948">
        <ele>561.2</ele>
        <time>2024-07-31T07:26:50Z</time>
      </trkpt>
      <trkpt lat="47.25099" lon="6.10952">
        <ele>561.4</ele>
        <time>2024-07-31T07:26:51Z</time>
      </trkpt>
      <trkpt lat="47.251" lon="6.10956">
        <ele>561.4</ele>
        <time>2024-07-31T07:26:52Z</time>
      </trkpt>
      <trkpt lat="47.25101" lon="6.1096">
        <ele>561.8</ele>
        <time>2024-07-31T07:26:53Z</time>
      </trkpt>
      <trkpt lat="47.25103" lon="6.10964">
        <ele>561.8</ele>
        <time>2024-07-31T07:26:54Z</time>
      </trkpt>
      <trkpt lat="47.25104" lon="6.10968">
        <ele>562</ele>
        <time>2024-07-31T07:26:55Z</time>
      </trkpt>
      <trkpt lat="47.25105" lon="6.10971">
        <ele>562.2</ele>
        <time>2024-07-31T07:26:56Z</time>
      </trkpt>
      <trkpt lat="47.25106" lon="6.10975">
        <ele>562.4</ele>
        <time>2024-07-31T07:26:57Z</time>
      </trkpt>
      <trkpt lat="47.25108" lon="6.10979">
        <ele>562.4</ele>
        <time>2024-07-31T07:26:58Z</time>
      </trkpt>
      <trkpt lat="47.2511" lon="6.10982">
        <ele>562.4</ele>
        <time>2024-07-31T07:26:59Z</time>
      </trkpt>
      <trkpt lat="47.25111" lon="6.10986">
        <ele>562.4</ele>
        <time>2024-07-31T07:27:00Z</time>
      </trkpt>
      <trkpt lat="47.25113" lon="6.10989">
        <ele>562.8</ele>
        <time>2024-07-31T07:27:01Z</time>
      </trkpt>
      <trkpt lat="47.25114" lon="6.10993">
        <ele>562.8</ele>
        <time>2024-07-31T07:27:02Z</time>
      </trkpt>
      <trkpt lat="47.25116" lon="6.10997">
        <ele>563</ele>
        <time>2024-07-31T07:27:03Z</time>
      </trkpt>
      <trkpt lat="47.25117" lon="6.11">
        <ele>563.2</ele>
        <time>2024-07-31T07:27:04Z</time>
      </trkpt>
      <trkpt lat="47.25118" lon="6.11003">
        <ele>563.2</ele>
        <time>2024-07-31T07:27:05Z</time>
      </trkpt>
      <trkpt lat="47.2512" lon="6.11006">
        <ele>563.6</ele>
        <time>2024-07-31T07:27:06Z</time>
      </trkpt>
      <trkpt lat="47.25122" lon="6.1101">
        <ele>563.6</ele>
        <time>2024-07-31T07:27:07Z</time>
      </trkpt>
      <trkpt lat="47.25123" lon="6.11015">
        <ele>563.6</ele>
        <time>2024-07-31T07:27:08Z</time>
      </trkpt>
      <trkpt lat="47.25124" lon="6.11019">
        <ele>564</ele>
        <time>2024-07-31T07:27:09Z</time>
      </trkpt>
      <trkpt lat="47.25125" lon="6.11022">
        <ele>564</ele>
        <time>2024-07-31T07:27:10Z</time>
      </trkpt>
      <trkpt lat="47.25126" lon="6.11026">
        <ele>564</ele>
        <time>2024-07-31T07:27:11Z</time>
      </trkpt>
      <trkpt lat="47.25127" lon="6.1103">
        <ele>564.2</ele>
        <time>2024-07-31T07:27:12Z</time>
      </trkpt>
      <trkpt lat="47.25127" lon="6.11034">
        <ele>564.2</ele>
        <time>2024-07-31T07:27:13Z</time>
      </trkpt>
      <trkpt lat="47.25128" lon="6.11038">
        <ele>564.4</ele>
        <time>2024-07-31T07:27:14Z</time>
      </trkpt>
      <trkpt lat="47.25129" lon="6.11041">
        <ele>564.4</ele>
        <time>2024-07-31T07:27:15Z</time>
      </trkpt>
      <trkpt lat="47.25129" lon="6.11044">
        <ele>564.2</ele>
        <time>2024-07-31T07:27:16Z</time>
      </trkpt>
      <trkpt lat="47.25129" lon="6.11047">
        <ele>564.4</ele>
        <time>2024-07-31T07:27:17Z</time>
      </trkpt>
      <trkpt lat="47.25129" lon="6.11047">
        <ele>564.4</ele>
        <time>2024-07-31T07:27:18Z</time>
      </trkpt>
      <trkpt lat="47.2513" lon="6.11049">
        <ele>564.4</ele>
        <time>2024-07-31T07:27:19Z</time>
      </trkpt>
      <trkpt lat="47.2513" lon="6.11055">
        <ele>564.6</ele>
        <time>2024-07-31T07:27:20Z</time>
      </trkpt>
      <trkpt lat="47.2513" lon="6.11055">
        <ele>564.6</ele>
        <time>2024-07-31T07:27:21Z</time>
      </trkpt>
      <trkpt lat="47.25131" lon="6.11057">
        <ele>564.6</ele>
        <time>2024-07-31T07:27:22Z</time>
      </trkpt>
      <trkpt lat="47.25131" lon="6.11058">
        <ele>564.6</ele>
        <time>2024-07-31T07:27:23Z</time>
      </trkpt>
      <trkpt lat="47.25131" lon="6.11058">
        <ele>564.6</ele>
        <time>2024-07-31T07:27:24Z</time>
      </trkpt>
      <trkpt lat="47.25131" lon="6.11059">
        <ele>564.6</ele>
        <time>2024-07-31T07:27:25Z</time>
      </trkpt>
      <trkpt lat="47.25132" lon="6.11059">
        <ele>564.6</ele>
        <time>2024-07-31T07:27:26Z</time>
      </trkpt>
      <trkpt lat="47.25132" lon="6.11059">
        <ele>564.8</ele>
        <time>2024-07-31T07:27:27Z</time>
      </trkpt>
      <trkpt lat="47.25132" lon="6.1106">
        <ele>564.6</ele>
        <time>2024-07-31T07:27:28Z</time>
      </trkpt>
      <trkpt lat="47.25133" lon="6.11062">
        <ele>565</ele>
        <time>2024-07-31T07:27:29Z</time>
      </trkpt>
      <trkpt lat="47.25133" lon="6.11064">
        <ele>565</ele>
        <time>2024-07-31T07:27:30Z</time>
      </trkpt>
      <trkpt lat="47.25132" lon="6.11066">
        <ele>565</ele>
        <time>2024-07-31T07:27:31Z</time>
      </trkpt>
      <trkpt lat="47.2513" lon="6.11069">
        <ele>565</ele>
        <time>2024-07-31T07:27:32Z</time>
      </trkpt>
      <trkpt lat="47.25128" lon="6.11072">
        <ele>565</ele>
        <time>2024-07-31T07:27:33Z</time>
      </trkpt>
      <trkpt lat="47.25127" lon="6.11076">
        <ele>564.8</ele>
        <time>2024-07-31T07:27:34Z</time>
      </trkpt>
      <trkpt lat="47.25125" lon="6.11078">
        <ele>564.8</ele>
        <time>2024-07-31T07:27:35Z</time>
      </trkpt>
      <trkpt lat="47.25122" lon="6.1108">
        <ele>565</ele>
        <time>2024-07-31T07:27:36Z</time>
      </trkpt>
      <trkpt lat="47.25118" lon="6.11084">
        <ele>564.8</ele>
        <time>2024-07-31T07:27:37Z</time>
      </trkpt>
      <trkpt lat="47.25118" lon="6.11084">
        <ele>565</ele>
        <time>2024-07-31T07:27:38Z</time>
      </trkpt>
      <trkpt lat="47.25115" lon="6.11085">
        <ele>565</ele>
        <time>2024-07-31T07:27:39Z</time>
      </trkpt>
      <trkpt lat="47.25113" lon="6.11087">
        <ele>564.8</ele>
        <time>2024-07-31T07:27:40Z</time>
      </trkpt>
      <trkpt lat="47.2511" lon="6.1109">
        <ele>564.4</ele>
        <time>2024-07-31T07:27:41Z</time>
      </trkpt>
      <trkpt lat="47.25108" lon="6.11093">
        <ele>564.2</ele>
        <time>2024-07-31T07:27:42Z</time>
      </trkpt>
      <trkpt lat="47.25102" lon="6.11098">
        <ele>564</ele>
        <time>2024-07-31T07:27:43Z</time>
      </trkpt>
      <trkpt lat="47.25099" lon="6.11101">
        <ele>564</ele>
        <time>2024-07-31T07:27:44Z</time>
      </trkpt>
      <trkpt lat="47.25099" lon="6.11101">
        <ele>563.8</ele>
        <time>2024-07-31T07:27:45Z</time>
      </trkpt>
      <trkpt lat="47.25096" lon="6.11104">
        <ele>563.4</ele>
        <time>2024-07-31T07:27:46Z</time>
      </trkpt>
      <trkpt lat="47.25092" lon="6.11107">
        <ele>563.4</ele>
        <time>2024-07-31T07:27:47Z</time>
      </trkpt>
      <trkpt lat="47.25089" lon="6.1111">
        <ele>563.2</ele>
        <time>2024-07-31T07:27:48Z</time>
      </trkpt>
      <trkpt lat="47.25086" lon="6.11113">
        <ele>562.6</ele>
        <time>2024-07-31T07:27:49Z</time>
      </trkpt>
      <trkpt lat="47.25084" lon="6.11116">
        <ele>562.4</ele>
        <time>2024-07-31T07:27:50Z</time>
      </trkpt>
      <trkpt lat="47.25082" lon="6.11118">
        <ele>562</ele>
        <time>2024-07-31T07:27:51Z</time>
      </trkpt>
      <trkpt lat="47.25081" lon="6.11119">
        <ele>561.6</ele>
        <time>2024-07-31T07:27:52Z</time>
      </trkpt>
      <trkpt lat="47.25079" lon="6.11121">
        <ele>561.4</ele>
        <time>2024-07-31T07:27:53Z</time>
      </trkpt>
      <trkpt lat="47.25079" lon="6.11123">
        <ele>561.2</ele>
        <time>2024-07-31T07:27:54Z</time>
      </trkpt>
      <trkpt lat="47.25079" lon="6.11127">
        <ele>561</ele>
        <time>2024-07-31T07:27:55Z</time>
      </trkpt>
      <trkpt lat="47.25081" lon="6.11134">
        <ele>561</ele>
        <time>2024-07-31T07:27:56Z</time>
      </trkpt>
      <trkpt lat="47.25081" lon="6.11134">
        <ele>561.4</ele>
        <time>2024-07-31T07:27:57Z</time>
      </trkpt>
      <trkpt lat="47.25082" lon="6.11137">
        <ele>561.4</ele>
        <time>2024-07-31T07:27:58Z</time>
      </trkpt>
      <trkpt lat="47.25083" lon="6.1114">
        <ele>561.6</ele>
        <time>2024-07-31T07:27:59Z</time>
      </trkpt>
      <trkpt lat="47.25086" lon="6.11147">
        <ele>561.6</ele>
        <time>2024-07-31T07:28:00Z</time>
      </trkpt>
      <trkpt lat="47.25086" lon="6.11147">
        <ele>561.4</ele>
        <time>2024-07-31T07:28:01Z</time>
      </trkpt>
      <trkpt lat="47.25087" lon="6.11151">
        <ele>561.6</ele>
        <time>2024-07-31T07:28:02Z</time>
      </trkpt>
      <trkpt lat="47.25089" lon="6.11157">
        <ele>561.4</ele>
        <time>2024-07-31T07:28:03Z</time>
      </trkpt>
      <trkpt lat="47.2509" lon="6.1116">
        <ele>561.6</ele>
        <time>2024-07-31T07:28:04Z</time>
      </trkpt>
      <trkpt lat="47.2509" lon="6.1116">
        <ele>561.6</ele>
        <time>2024-07-31T07:28:05Z</time>
      </trkpt>
      <trkpt lat="47.25093" lon="6.11166">
        <ele>561.6</ele>
        <time>2024-07-31T07:28:06Z</time>
      </trkpt>
      <trkpt lat="47.25094" lon="6.1117">
        <ele>561.6</ele>
        <time>2024-07-31T07:28:07Z</time>
      </trkpt>
      <trkpt lat="47.25094" lon="6.1117">
        <ele>562</ele>
        <time>2024-07-31T07:28:08Z</time>
      </trkpt>
      <trkpt lat="47.25094" lon="6.11172">
        <ele>562</ele>
        <time>2024-07-31T07:28:09Z</time>
      </trkpt>
      <trkpt lat="47.25095" lon="6.11174">
        <ele>561.8</ele>
        <time>2024-07-31T07:28:10Z</time>
      </trkpt>
      <trkpt lat="47.25098" lon="6.11179">
        <ele>562</ele>
        <time>2024-07-31T07:28:11Z</time>
      </trkpt>
      <trkpt lat="47.25098" lon="6.11179">
        <ele>562</ele>
        <time>2024-07-31T07:28:12Z</time>
      </trkpt>
      <trkpt lat="47.25099" lon="6.11182">
        <ele>562.2</ele>
        <time>2024-07-31T07:28:13Z</time>
      </trkpt>
      <trkpt lat="47.25099" lon="6.11185">
        <ele>562</ele>
        <time>2024-07-31T07:28:14Z</time>
      </trkpt>
      <trkpt lat="47.25101" lon="6.11189">
        <ele>562</ele>
        <time>2024-07-31T07:28:15Z</time>
      </trkpt>
      <trkpt lat="47.25102" lon="6.11191">
        <ele>562.2</ele>
        <time>2024-07-31T07:28:16Z</time>
      </trkpt>
      <trkpt lat="47.25103" lon="6.11194">
        <ele>562.2</ele>
        <time>2024-07-31T07:28:17Z</time>
      </trkpt>
      <trkpt lat="47.25103" lon="6.11194">
        <ele>562.4</ele>
        <time>2024-07-31T07:28:18Z</time>
      </trkpt>
      <trkpt lat="47.25103" lon="6.11196">
        <ele>562.4</ele>
        <time>2024-07-31T07:28:19Z</time>
      </trkpt>
      <trkpt lat="47.25105" lon="6.11199">
        <ele>562.4</ele>
        <time>2024-07-31T07:28:20Z</time>
      </trkpt>
      <trkpt lat="47.25107" lon="6.11203">
        <ele>562.4</ele>
        <time>2024-07-31T07:28:21Z</time>
      </trkpt>
      <trkpt lat="47.25108" lon="6.11206">
        <ele>562.6</ele>
        <time>2024-07-31T07:28:22Z</time>
      </trkpt>
      <trkpt lat="47.25109" lon="6.11212">
        <ele>562.4</ele>
        <time>2024-07-31T07:28:23Z</time>
      </trkpt>
      <trkpt lat="47.25109" lon="6.11212">
        <ele>562.4</ele>
        <time>2024-07-31T07:28:24Z</time>
      </trkpt>
      <trkpt lat="47.25111" lon="6.11215">
        <ele>562.4</ele>
        <time>2024-07-31T07:28:25Z</time>
      </trkpt>
      <trkpt lat="47.25112" lon="6.11218">
        <ele>562.8</ele>
        <time>2024-07-31T07:28:26Z</time>
      </trkpt>
      <trkpt lat="47.25114" lon="6.11222">
        <ele>562.6</ele>
        <time>2024-07-31T07:28:27Z</time>
      </trkpt>
      <trkpt lat="47.25115" lon="6.11225">
        <ele>562.6</ele>
        <time>2024-07-31T07:28:28Z</time>
      </trkpt>
      <trkpt lat="47.25117" lon="6.11229">
        <ele>562.4</ele>
        <time>2024-07-31T07:28:29Z</time>
      </trkpt>
      <trkpt lat="47.25118" lon="6.11232">
        <ele>562.4</ele>
        <time>2024-07-31T07:28:30Z</time>
      </trkpt>
      <trkpt lat="47.25119" lon="6.11236">
        <ele>562.6</ele>
        <time>2024-07-31T07:28:31Z</time>
      </trkpt>
      <trkpt lat="47.25121" lon="6.11239">
        <ele>562.6</ele>
        <time>2024-07-31T07:28:32Z</time>
      </trkpt>
      <trkpt lat="47.25123" lon="6.11242">
        <ele>562.4</ele>
        <time>2024-07-31T07:28:33Z</time>
      </trkpt>
      <trkpt lat="47.25126" lon="6.1125">
        <ele>562.4</ele>
        <time>2024-07-31T07:28:34Z</time>
      </trkpt>
      <trkpt lat="47.25127" lon="6.11254">
        <ele>562.4</ele>
        <time>2024-07-31T07:28:35Z</time>
      </trkpt>
      <trkpt lat="47.25127" lon="6.11254">
        <ele>562</ele>
        <time>2024-07-31T07:28:36Z</time>
      </trkpt>
      <trkpt lat="47.25129" lon="6.11257">
        <ele>562.2</ele>
        <time>2024-07-31T07:28:37Z</time>
      </trkpt>
      <trkpt lat="47.25131" lon="6.11261">
        <ele>562</ele>
        <time>2024-07-31T07:28:38Z</time>
      </trkpt>
      <trkpt lat="47.25132" lon="6.11265">
        <ele>562</ele>
        <time>2024-07-31T07:28:39Z</time>
      </trkpt>
      <trkpt lat="47.25134" lon="6.11268">
        <ele>562</ele>
        <time>2024-07-31T07:28:40Z</time>
      </trkpt>
      <trkpt lat="47.25136" lon="6.11273">
        <ele>561.6</ele>
        <time>2024-07-31T07:28:41Z</time>
      </trkpt>
      <trkpt lat="47.25136" lon="6.11273">
        <ele>561.6</ele>
        <time>2024-07-31T07:28:42Z</time>
      </trkpt>
      <trkpt lat="47.25137" lon="6.11275">
        <ele>561.2</ele>
        <time>2024-07-31T07:28:43Z</time>
      </trkpt>
      <trkpt lat="47.2514" lon="6.11279">
        <ele>561</ele>
        <time>2024-07-31T07:28:44Z</time>
      </trkpt>
      <trkpt lat="47.25141" lon="6.11281">
        <ele>560</ele>
        <time>2024-07-31T07:28:45Z</time>
      </trkpt>
      <trkpt lat="47.25141" lon="6.11281">
        <ele>559.2</ele>
        <time>2024-07-31T07:28:46Z</time>
      </trkpt>
      <trkpt lat="47.25142" lon="6.11284">
        <ele>559</ele>
        <time>2024-07-31T07:28:47Z</time>
      </trkpt>
      <trkpt lat="47.25145" lon="6.11293">
        <ele>557.6</ele>
        <time>2024-07-31T07:28:48Z</time>
      </trkpt>
      <trkpt lat="47.25145" lon="6.11293">
        <ele>557.6</ele>
        <time>2024-07-31T07:28:49Z</time>
      </trkpt>
      <trkpt lat="47.25147" lon="6.11297">
        <ele>557.4</ele>
        <time>2024-07-31T07:28:50Z</time>
      </trkpt>
      <trkpt lat="47.25148" lon="6.11305">
        <ele>557.2</ele>
        <time>2024-07-31T07:28:51Z</time>
      </trkpt>
      <trkpt lat="47.25148" lon="6.11305">
        <ele>557.2</ele>
        <time>2024-07-31T07:28:52Z</time>
      </trkpt>
      <trkpt lat="47.25147" lon="6.11308">
        <ele>556.8</ele>
        <time>2024-07-31T07:28:53Z</time>
      </trkpt>
      <trkpt lat="47.25147" lon="6.11312">
        <ele>556.8</ele>
        <time>2024-07-31T07:28:54Z</time>
      </trkpt>
      <trkpt lat="47.25147" lon="6.11315">
        <ele>556.4</ele>
        <time>2024-07-31T07:28:55Z</time>
      </trkpt>
      <trkpt lat="47.25148" lon="6.11318">
        <ele>556.2</ele>
        <time>2024-07-31T07:28:56Z</time>
      </trkpt>
      <trkpt lat="47.25149" lon="6.1132">
        <ele>556.4</ele>
        <time>2024-07-31T07:28:57Z</time>
      </trkpt>
      <trkpt lat="47.25153" lon="6.11325">
        <ele>556.6</ele>
        <time>2024-07-31T07:28:58Z</time>
      </trkpt>
      <trkpt lat="47.25155" lon="6.11328">
        <ele>556.8</ele>
        <time>2024-07-31T07:28:59Z</time>
      </trkpt>
      <trkpt lat="47.25155" lon="6.11328">
        <ele>556.6</ele>
        <time>2024-07-31T07:29:00Z</time>
      </trkpt>
      <trkpt lat="47.25158" lon="6.1133">
        <ele>556.6</ele>
        <time>2024-07-31T07:29:01Z</time>
      </trkpt>
      <trkpt lat="47.25162" lon="6.11333">
        <ele>556.6</ele>
        <time>2024-07-31T07:29:02Z</time>
      </trkpt>
      <trkpt lat="47.25165" lon="6.11335">
        <ele>556.8</ele>
        <time>2024-07-31T07:29:03Z</time>
      </trkpt>
      <trkpt lat="47.25166" lon="6.11337">
        <ele>556.4</ele>
        <time>2024-07-31T07:29:04Z</time>
      </trkpt>
      <trkpt lat="47.25169" lon="6.1134">
        <ele>556.8</ele>
        <time>2024-07-31T07:29:05Z</time>
      </trkpt>
      <trkpt lat="47.2517" lon="6.11344">
        <ele>557</ele>
        <time>2024-07-31T07:29:06Z</time>
      </trkpt>
      <trkpt lat="47.25171" lon="6.11347">
        <ele>557</ele>
        <time>2024-07-31T07:29:07Z</time>
      </trkpt>
      <trkpt lat="47.25173" lon="6.1135">
        <ele>557</ele>
        <time>2024-07-31T07:29:08Z</time>
      </trkpt>
      <trkpt lat="47.25175" lon="6.11353">
        <ele>557</ele>
        <time>2024-07-31T07:29:09Z</time>
      </trkpt>
      <trkpt lat="47.25176" lon="6.11356">
        <ele>557</ele>
        <time>2024-07-31T07:29:10Z</time>
      </trkpt>
      <trkpt lat="47.25178" lon="6.11359">
        <ele>557</ele>
        <time>2024-07-31T07:29:11Z</time>
      </trkpt>
      <trkpt lat="47.2518" lon="6.11363">
        <ele>557</ele>
        <time>2024-07-31T07:29:12Z</time>
      </trkpt>
      <trkpt lat="47.25181" lon="6.11366">
        <ele>557</ele>
        <time>2024-07-31T07:29:13Z</time>
      </trkpt>
      <trkpt lat="47.25183" lon="6.1137">
        <ele>557</ele>
        <time>2024-07-31T07:29:14Z</time>
      </trkpt>
      <trkpt lat="47.25187" lon="6.11378">
        <ele>557</ele>
        <time>2024-07-31T07:29:15Z</time>
      </trkpt>
      <trkpt lat="47.25189" lon="6.11382">
        <ele>556.8</ele>
        <time>2024-07-31T07:29:16Z</time>
      </trkpt>
      <trkpt lat="47.25191" lon="6.11386">
        <ele>556.8</ele>
        <time>2024-07-31T07:29:17Z</time>
      </trkpt>
      <trkpt lat="47.25193" lon="6.1139">
        <ele>555.6</ele>
        <time>2024-07-31T07:29:18Z</time>
      </trkpt>
      <trkpt lat="47.25196" lon="6.11394">
        <ele>556</ele>
        <time>2024-07-31T07:29:19Z</time>
      </trkpt>
      <trkpt lat="47.25196" lon="6.11394">
        <ele>556.2</ele>
        <time>2024-07-31T07:29:20Z</time>
      </trkpt>
      <trkpt lat="47.25201" lon="6.11404">
        <ele>556.2</ele>
        <time>2024-07-31T07:29:21Z</time>
      </trkpt>
      <trkpt lat="47.25204" lon="6.1141">
        <ele>556</ele>
        <time>2024-07-31T07:29:22Z</time>
      </trkpt>
      <trkpt lat="47.25207" lon="6.11415">
        <ele>556</ele>
        <time>2024-07-31T07:29:23Z</time>
      </trkpt>
      <trkpt lat="47.2521" lon="6.11421">
        <ele>555.8</ele>
        <time>2024-07-31T07:29:24Z</time>
      </trkpt>
      <trkpt lat="47.25212" lon="6.11425">
        <ele>555.4</ele>
        <time>2024-07-31T07:29:25Z</time>
      </trkpt>
      <trkpt lat="47.25215" lon="6.11429">
        <ele>555.4</ele>
        <time>2024-07-31T07:29:26Z</time>
      </trkpt>
      <trkpt lat="47.25215" lon="6.11429">
        <ele>555.4</ele>
        <time>2024-07-31T07:29:27Z</time>
      </trkpt>
      <trkpt lat="47.2522" lon="6.11437">
        <ele>554.8</ele>
        <time>2024-07-31T07:29:28Z</time>
      </trkpt>
      <trkpt lat="47.2522" lon="6.11437">
        <ele>554.8</ele>
        <time>2024-07-31T07:29:29Z</time>
      </trkpt>
      <trkpt lat="47.25225" lon="6.11445">
        <ele>554</ele>
        <time>2024-07-31T07:29:30Z</time>
      </trkpt>
      <trkpt lat="47.25225" lon="6.11445">
        <ele>554.8</ele>
        <time>2024-07-31T07:29:31Z</time>
      </trkpt>
      <trkpt lat="47.2523" lon="6.11452">
        <ele>554.4</ele>
        <time>2024-07-31T07:29:32Z</time>
      </trkpt>
      <trkpt lat="47.25232" lon="6.11456">
        <ele>554.2</ele>
        <time>2024-07-31T07:29:33Z</time>
      </trkpt>
      <trkpt lat="47.25232" lon="6.11456">
        <ele>554.2</ele>
        <time>2024-07-31T07:29:34Z</time>
      </trkpt>
      <trkpt lat="47.25236" lon="6.11463">
        <ele>553.6</ele>
        <time>2024-07-31T07:29:35Z</time>
      </trkpt>
      <trkpt lat="47.25238" lon="6.11466">
        <ele>552.8</ele>
        <time>2024-07-31T07:29:36Z</time>
      </trkpt>
      <trkpt lat="47.25241" lon="6.11469">
        <ele>553.2</ele>
        <time>2024-07-31T07:29:37Z</time>
      </trkpt>
      <trkpt lat="47.25243" lon="6.11474">
        <ele>551.6</ele>
        <time>2024-07-31T07:29:38Z</time>
      </trkpt>
      <trkpt lat="47.25246" lon="6.11478">
        <ele>551.8</ele>
        <time>2024-07-31T07:29:39Z</time>
      </trkpt>
      <trkpt lat="47.25248" lon="6.11482">
        <ele>551.4</ele>
        <time>2024-07-31T07:29:40Z</time>
      </trkpt>
      <trkpt lat="47.25252" lon="6.11487">
        <ele>551.6</ele>
        <time>2024-07-31T07:29:41Z</time>
      </trkpt>
      <trkpt lat="47.25252" lon="6.11487">
        <ele>551.4</ele>
        <time>2024-07-31T07:29:42Z</time>
      </trkpt>
      <trkpt lat="47.25259" lon="6.11499">
        <ele>551.2</ele>
        <time>2024-07-31T07:29:43Z</time>
      </trkpt>
      <trkpt lat="47.25259" lon="6.11499">
        <ele>550.8</ele>
        <time>2024-07-31T07:29:44Z</time>
      </trkpt>
      <trkpt lat="47.25268" lon="6.11512">
        <ele>549.6</ele>
        <time>2024-07-31T07:29:45Z</time>
      </trkpt>
      <trkpt lat="47.25276" lon="6.11519">
        <ele>550</ele>
        <time>2024-07-31T07:29:46Z</time>
      </trkpt>
      <trkpt lat="47.25276" lon="6.11519">
        <ele>549.6</ele>
        <time>2024-07-31T07:29:47Z</time>
      </trkpt>
      <trkpt lat="47.25292" lon="6.11532">
        <ele>549</ele>
        <time>2024-07-31T07:29:48Z</time>
      </trkpt>
      <trkpt lat="47.25298" lon="6.11539">
        <ele>549.4</ele>
        <time>2024-07-31T07:29:49Z</time>
      </trkpt>
      <trkpt lat="47.25298" lon="6.11539">
        <ele>549.4</ele>
        <time>2024-07-31T07:29:50Z</time>
      </trkpt>
      <trkpt lat="47.25309" lon="6.11552">
        <ele>549</ele>
        <time>2024-07-31T07:29:51Z</time>
      </trkpt>
      <trkpt lat="47.25315" lon="6.11559">
        <ele>549.2</ele>
        <time>2024-07-31T07:29:52Z</time>
      </trkpt>
      <trkpt lat="47.25315" lon="6.11559">
        <ele>549.2</ele>
        <time>2024-07-31T07:29:53Z</time>
      </trkpt>
      <trkpt lat="47.25325" lon="6.11571">
        <ele>548.4</ele>
        <time>2024-07-31T07:29:54Z</time>
      </trkpt>
      <trkpt lat="47.25329" lon="6.11576">
        <ele>548.4</ele>
        <time>2024-07-31T07:29:55Z</time>
      </trkpt>
      <trkpt lat="47.25332" lon="6.11581">
        <ele>548.4</ele>
        <time>2024-07-31T07:29:56Z</time>
      </trkpt>
      <trkpt lat="47.25336" lon="6.11587">
        <ele>549.2</ele>
        <time>2024-07-31T07:29:57Z</time>
      </trkpt>
      <trkpt lat="47.2534" lon="6.11592">
        <ele>549</ele>
        <time>2024-07-31T07:29:58Z</time>
      </trkpt>
      <trkpt lat="47.2534" lon="6.11592">
        <ele>548.4</ele>
        <time>2024-07-31T07:29:59Z</time>
      </trkpt>
      <trkpt lat="47.25347" lon="6.11603">
        <ele>548</ele>
        <time>2024-07-31T07:30:00Z</time>
      </trkpt>
      <trkpt lat="47.2535" lon="6.11608">
        <ele>547.6</ele>
        <time>2024-07-31T07:30:01Z</time>
      </trkpt>
      <trkpt lat="47.25353" lon="6.11613">
        <ele>547.8</ele>
        <time>2024-07-31T07:30:02Z</time>
      </trkpt>
      <trkpt lat="47.25357" lon="6.11618">
        <ele>547.8</ele>
        <time>2024-07-31T07:30:03Z</time>
      </trkpt>
      <trkpt lat="47.25361" lon="6.11622">
        <ele>547.4</ele>
        <time>2024-07-31T07:30:04Z</time>
      </trkpt>
      <trkpt lat="47.25365" lon="6.11627">
        <ele>547.6</ele>
        <time>2024-07-31T07:30:05Z</time>
      </trkpt>
      <trkpt lat="47.25369" lon="6.11631">
        <ele>547.8</ele>
        <time>2024-07-31T07:30:06Z</time>
      </trkpt>
      <trkpt lat="47.25373" lon="6.11635">
        <ele>547.4</ele>
        <time>2024-07-31T07:30:07Z</time>
      </trkpt>
      <trkpt lat="47.25373" lon="6.11635">
        <ele>547.6</ele>
        <time>2024-07-31T07:30:08Z</time>
      </trkpt>
      <trkpt lat="47.25382" lon="6.11643">
        <ele>547.8</ele>
        <time>2024-07-31T07:30:09Z</time>
      </trkpt>
      <trkpt lat="47.25382" lon="6.11643">
        <ele>547.6</ele>
        <time>2024-07-31T07:30:10Z</time>
      </trkpt>
      <trkpt lat="47.25388" lon="6.1165">
        <ele>547.4</ele>
        <time>2024-07-31T07:30:11Z</time>
      </trkpt>
      <trkpt lat="47.25391" lon="6.11654">
        <ele>547.2</ele>
        <time>2024-07-31T07:30:12Z</time>
      </trkpt>
      <trkpt lat="47.25393" lon="6.11658">
        <ele>546.8</ele>
        <time>2024-07-31T07:30:13Z</time>
      </trkpt>
      <trkpt lat="47.25395" lon="6.11661">
        <ele>546.4</ele>
        <time>2024-07-31T07:30:14Z</time>
      </trkpt>
      <trkpt lat="47.25395" lon="6.11661">
        <ele>546.4</ele>
        <time>2024-07-31T07:30:15Z</time>
      </trkpt>
      <trkpt lat="47.25399" lon="6.11668">
        <ele>546.2</ele>
        <time>2024-07-31T07:30:16Z</time>
      </trkpt>
      <trkpt lat="47.25401" lon="6.11672">
        <ele>546.2</ele>
        <time>2024-07-31T07:30:17Z</time>
      </trkpt>
      <trkpt lat="47.25404" lon="6.11676">
        <ele>546.2</ele>
        <time>2024-07-31T07:30:18Z</time>
      </trkpt>
      <trkpt lat="47.25407" lon="6.1168">
        <ele>546.4</ele>
        <time>2024-07-31T07:30:19Z</time>
      </trkpt>
      <trkpt lat="47.25411" lon="6.11683">
        <ele>546</ele>
        <time>2024-07-31T07:30:20Z</time>
      </trkpt>
      <trkpt lat="47.25414" lon="6.11686">
        <ele>546</ele>
        <time>2024-07-31T07:30:21Z</time>
      </trkpt>
      <trkpt lat="47.25417" lon="6.11688">
        <ele>546.4</ele>
        <time>2024-07-31T07:30:22Z</time>
      </trkpt>
      <trkpt lat="47.25419" lon="6.11691">
        <ele>545.4</ele>
        <time>2024-07-31T07:30:23Z</time>
      </trkpt>
      <trkpt lat="47.25421" lon="6.11694">
        <ele>545.6</ele>
        <time>2024-07-31T07:30:24Z</time>
      </trkpt>
      <trkpt lat="47.25423" lon="6.11697">
        <ele>545.6</ele>
        <time>2024-07-31T07:30:25Z</time>
      </trkpt>
      <trkpt lat="47.25425" lon="6.117">
        <ele>545.4</ele>
        <time>2024-07-31T07:30:26Z</time>
      </trkpt>
      <trkpt lat="47.25426" lon="6.11703">
        <ele>545</ele>
        <time>2024-07-31T07:30:27Z</time>
      </trkpt>
      <trkpt lat="47.25428" lon="6.11706">
        <ele>544.6</ele>
        <time>2024-07-31T07:30:28Z</time>
      </trkpt>
      <trkpt lat="47.25429" lon="6.11708">
        <ele>545.4</ele>
        <time>2024-07-31T07:30:29Z</time>
      </trkpt>
      <trkpt lat="47.2543" lon="6.11711">
        <ele>545</ele>
        <time>2024-07-31T07:30:30Z</time>
      </trkpt>
      <trkpt lat="47.25432" lon="6.11713">
        <ele>545.2</ele>
        <time>2024-07-31T07:30:31Z</time>
      </trkpt>
      <trkpt lat="47.25434" lon="6.11715">
        <ele>545.2</ele>
        <time>2024-07-31T07:30:32Z</time>
      </trkpt>
      <trkpt lat="47.25435" lon="6.11717">
        <ele>545.6</ele>
        <time>2024-07-31T07:30:33Z</time>
      </trkpt>
      <trkpt lat="47.25437" lon="6.1172">
        <ele>545.2</ele>
        <time>2024-07-31T07:30:34Z</time>
      </trkpt>
      <trkpt lat="47.25438" lon="6.11722">
        <ele>545.2</ele>
        <time>2024-07-31T07:30:35Z</time>
      </trkpt>
      <trkpt lat="47.25439" lon="6.11724">
        <ele>545</ele>
        <time>2024-07-31T07:30:36Z</time>
      </trkpt>
      <trkpt lat="47.25441" lon="6.11726">
        <ele>545</ele>
        <time>2024-07-31T07:30:37Z</time>
      </trkpt>
      <trkpt lat="47.25442" lon="6.11729">
        <ele>544.8</ele>
        <time>2024-07-31T07:30:38Z</time>
      </trkpt>
      <trkpt lat="47.25444" lon="6.11733">
        <ele>544.8</ele>
        <time>2024-07-31T07:30:39Z</time>
      </trkpt>
      <trkpt lat="47.25445" lon="6.11737">
        <ele>544.8</ele>
        <time>2024-07-31T07:30:40Z</time>
      </trkpt>
      <trkpt lat="47.25448" lon="6.1174">
        <ele>545</ele>
        <time>2024-07-31T07:30:41Z</time>
      </trkpt>
      <trkpt lat="47.2545" lon="6.11745">
        <ele>545</ele>
        <time>2024-07-31T07:30:42Z</time>
      </trkpt>
      <trkpt lat="47.25452" lon="6.11749">
        <ele>545</ele>
        <time>2024-07-31T07:30:43Z</time>
      </trkpt>
      <trkpt lat="47.25454" lon="6.11752">
        <ele>545</ele>
        <time>2024-07-31T07:30:44Z</time>
      </trkpt>
      <trkpt lat="47.25456" lon="6.11755">
        <ele>544.8</ele>
        <time>2024-07-31T07:30:45Z</time>
      </trkpt>
      <trkpt lat="47.25458" lon="6.11758">
        <ele>544.8</ele>
        <time>2024-07-31T07:30:46Z</time>
      </trkpt>
      <trkpt lat="47.25461" lon="6.1176">
        <ele>544.6</ele>
        <time>2024-07-31T07:30:47Z</time>
      </trkpt>
      <trkpt lat="47.25461" lon="6.1176">
        <ele>545</ele>
        <time>2024-07-31T07:30:48Z</time>
      </trkpt>
      <trkpt lat="47.25463" lon="6.11762">
        <ele>545</ele>
        <time>2024-07-31T07:30:49Z</time>
      </trkpt>
      <trkpt lat="47.25468" lon="6.11765">
        <ele>545</ele>
        <time>2024-07-31T07:30:50Z</time>
      </trkpt>
      <trkpt lat="47.25469" lon="6.11768">
        <ele>545.4</ele>
        <time>2024-07-31T07:30:51Z</time>
      </trkpt>
      <trkpt lat="47.2547" lon="6.1177">
        <ele>545</ele>
        <time>2024-07-31T07:30:52Z</time>
      </trkpt>
      <trkpt lat="47.25472" lon="6.11772">
        <ele>545</ele>
        <time>2024-07-31T07:30:53Z</time>
      </trkpt>
      <trkpt lat="47.25473" lon="6.11775">
        <ele>545.2</ele>
        <time>2024-07-31T07:30:54Z</time>
      </trkpt>
      <trkpt lat="47.25474" lon="6.11778">
        <ele>545.2</ele>
        <time>2024-07-31T07:30:55Z</time>
      </trkpt>
      <trkpt lat="47.25474" lon="6.11778">
        <ele>544.8</ele>
        <time>2024-07-31T07:30:56Z</time>
      </trkpt>
      <trkpt lat="47.25477" lon="6.11783">
        <ele>544.8</ele>
        <time>2024-07-31T07:30:57Z</time>
      </trkpt>
      <trkpt lat="47.25478" lon="6.11786">
        <ele>544.8</ele>
        <time>2024-07-31T07:30:58Z</time>
      </trkpt>
      <trkpt lat="47.2548" lon="6.11788">
        <ele>545</ele>
        <time>2024-07-31T07:30:59Z</time>
      </trkpt>
      <trkpt lat="47.25482" lon="6.11791">
        <ele>544.4</ele>
        <time>2024-07-31T07:31:00Z</time>
      </trkpt>
      <trkpt lat="47.25484" lon="6.11794">
        <ele>544.4</ele>
        <time>2024-07-31T07:31:01Z</time>
      </trkpt>
      <trkpt lat="47.25488" lon="6.11796">
        <ele>544.4</ele>
        <time>2024-07-31T07:31:02Z</time>
      </trkpt>
      <trkpt lat="47.2549" lon="6.11799">
        <ele>544.4</ele>
        <time>2024-07-31T07:31:03Z</time>
      </trkpt>
      <trkpt lat="47.25491" lon="6.11801">
        <ele>544.4</ele>
        <time>2024-07-31T07:31:04Z</time>
      </trkpt>
      <trkpt lat="47.25492" lon="6.11803">
        <ele>544.4</ele>
        <time>2024-07-31T07:31:05Z</time>
      </trkpt>
      <trkpt lat="47.25494" lon="6.11805">
        <ele>544.4</ele>
        <time>2024-07-31T07:31:06Z</time>
      </trkpt>
      <trkpt lat="47.25495" lon="6.11808">
        <ele>544</ele>
        <time>2024-07-31T07:31:07Z</time>
      </trkpt>
      <trkpt lat="47.25498" lon="6.1181">
        <ele>543.8</ele>
        <time>2024-07-31T07:31:08Z</time>
      </trkpt>
      <trkpt lat="47.25499" lon="6.11812">
        <ele>544</ele>
        <time>2024-07-31T07:31:09Z</time>
      </trkpt>
      <trkpt lat="47.255" lon="6.11814">
        <ele>543.6</ele>
        <time>2024-07-31T07:31:10Z</time>
      </trkpt>
      <trkpt lat="47.25501" lon="6.11815">
        <ele>543.4</ele>
        <time>2024-07-31T07:31:11Z</time>
      </trkpt>
      <trkpt lat="47.25501" lon="6.11816">
        <ele>543.4</ele>
        <time>2024-07-31T07:31:12Z</time>
      </trkpt>
      <trkpt lat="47.25502" lon="6.11817">
        <ele>543.2</ele>
        <time>2024-07-31T07:31:13Z</time>
      </trkpt>
      <trkpt lat="47.25503" lon="6.11818">
        <ele>543.4</ele>
        <time>2024-07-31T07:31:14Z</time>
      </trkpt>
      <trkpt lat="47.25503" lon="6.11819">
        <ele>543.4</ele>
        <time>2024-07-31T07:31:15Z</time>
      </trkpt>
      <trkpt lat="47.25504" lon="6.1182">
        <ele>543.2</ele>
        <time>2024-07-31T07:31:16Z</time>
      </trkpt>
      <trkpt lat="47.25505" lon="6.11821">
        <ele>543.2</ele>
        <time>2024-07-31T07:31:17Z</time>
      </trkpt>
      <trkpt lat="47.25505" lon="6.11822">
        <ele>543</ele>
        <time>2024-07-31T07:31:18Z</time>
      </trkpt>
      <trkpt lat="47.25508" lon="6.11823">
        <ele>542.8</ele>
        <time>2024-07-31T07:31:19Z</time>
      </trkpt>
      <trkpt lat="47.25508" lon="6.11823">
        <ele>542.6</ele>
        <time>2024-07-31T07:31:20Z</time>
      </trkpt>
      <trkpt lat="47.25509" lon="6.11824">
        <ele>542.4</ele>
        <time>2024-07-31T07:31:21Z</time>
      </trkpt>
      <trkpt lat="47.25509" lon="6.11825">
        <ele>542</ele>
        <time>2024-07-31T07:31:22Z</time>
      </trkpt>
      <trkpt lat="47.2551" lon="6.11826">
        <ele>542</ele>
        <time>2024-07-31T07:31:23Z</time>
      </trkpt>
      <trkpt lat="47.25511" lon="6.11827">
        <ele>542</ele>
        <time>2024-07-31T07:31:24Z</time>
      </trkpt>
      <trkpt lat="47.25511" lon="6.11828">
        <ele>541.8</ele>
        <time>2024-07-31T07:31:25Z</time>
      </trkpt>
      <trkpt lat="47.25512" lon="6.11829">
        <ele>541.8</ele>
        <time>2024-07-31T07:31:26Z</time>
      </trkpt>
      <trkpt lat="47.25512" lon="6.1183">
        <ele>541.6</ele>
        <time>2024-07-31T07:31:27Z</time>
      </trkpt>
      <trkpt lat="47.25512" lon="6.11831">
        <ele>541.4</ele>
        <time>2024-07-31T07:31:28Z</time>
      </trkpt>
      <trkpt lat="47.25513" lon="6.11832">
        <ele>541.2</ele>
        <time>2024-07-31T07:31:29Z</time>
      </trkpt>
      <trkpt lat="47.25513" lon="6.11832">
        <ele>541.2</ele>
        <time>2024-07-31T07:31:30Z</time>
      </trkpt>
      <trkpt lat="47.25513" lon="6.11833">
        <ele>541</ele>
        <time>2024-07-31T07:31:31Z</time>
      </trkpt>
      <trkpt lat="47.25513" lon="6.11833">
        <ele>541</ele>
        <time>2024-07-31T07:31:32Z</time>
      </trkpt>
      <trkpt lat="47.25513" lon="6.11834">
        <ele>540.8</ele>
        <time>2024-07-31T07:31:33Z</time>
      </trkpt>
      <trkpt lat="47.25513" lon="6.11835">
        <ele>540.4</ele>
        <time>2024-07-31T07:31:34Z</time>
      </trkpt>
      <trkpt lat="47.25514" lon="6.11835">
        <ele>540.4</ele>
        <time>2024-07-31T07:31:35Z</time>
      </trkpt>
      <trkpt lat="47.25514" lon="6.11835">
        <ele>540.2</ele>
        <time>2024-07-31T07:31:36Z</time>
      </trkpt>
      <trkpt lat="47.25516" lon="6.11835">
        <ele>539.8</ele>
        <time>2024-07-31T07:31:37Z</time>
      </trkpt>
      <trkpt lat="47.25518" lon="6.11835">
        <ele>539.6</ele>
        <time>2024-07-31T07:31:38Z</time>
      </trkpt>
      <trkpt lat="47.25519" lon="6.11835">
        <ele>539.4</ele>
        <time>2024-07-31T07:31:39Z</time>
      </trkpt>
      <trkpt lat="47.2552" lon="6.11835">
        <ele>539.2</ele>
        <time>2024-07-31T07:31:40Z</time>
      </trkpt>
      <trkpt lat="47.25521" lon="6.11835">
        <ele>539.2</ele>
        <time>2024-07-31T07:31:41Z</time>
      </trkpt>
      <trkpt lat="47.25521" lon="6.11835">
        <ele>539.2</ele>
        <time>2024-07-31T07:31:42Z</time>
      </trkpt>
      <trkpt lat="47.25522" lon="6.11836">
        <ele>539.2</ele>
        <time>2024-07-31T07:31:43Z</time>
      </trkpt>
      <trkpt lat="47.25522" lon="6.11836">
        <ele>539.2</ele>
        <time>2024-07-31T07:31:44Z</time>
      </trkpt>
      <trkpt lat="47.25522" lon="6.11836">
        <ele>539.4</ele>
        <time>2024-07-31T07:31:45Z</time>
      </trkpt>
      <trkpt lat="47.25522" lon="6.11837">
        <ele>539.4</ele>
        <time>2024-07-31T07:31:46Z</time>
      </trkpt>
      <trkpt lat="47.25522" lon="6.11838">
        <ele>539</ele>
        <time>2024-07-31T07:31:47Z</time>
      </trkpt>
      <trkpt lat="47.25523" lon="6.1184">
        <ele>538.4</ele>
        <time>2024-07-31T07:31:48Z</time>
      </trkpt>
      <trkpt lat="47.25524" lon="6.11842">
        <ele>537.8</ele>
        <time>2024-07-31T07:31:49Z</time>
      </trkpt>
      <trkpt lat="47.25525" lon="6.11845">
        <ele>536.8</ele>
        <time>2024-07-31T07:31:50Z</time>
      </trkpt>
      <trkpt lat="47.25527" lon="6.11849">
        <ele>536.2</ele>
        <time>2024-07-31T07:31:51Z</time>
      </trkpt>
      <trkpt lat="47.25529" lon="6.11852">
        <ele>536.2</ele>
        <time>2024-07-31T07:31:52Z</time>
      </trkpt>
      <trkpt lat="47.25532" lon="6.11856">
        <ele>535.8</ele>
        <time>2024-07-31T07:31:53Z</time>
      </trkpt>
      <trkpt lat="47.25535" lon="6.1186">
        <ele>536</ele>
        <time>2024-07-31T07:31:54Z</time>
      </trkpt>
      <trkpt lat="47.25538" lon="6.11866">
        <ele>535.8</ele>
        <time>2024-07-31T07:31:55Z</time>
      </trkpt>
      <trkpt lat="47.25544" lon="6.1187">
        <ele>535.6</ele>
        <time>2024-07-31T07:31:56Z</time>
      </trkpt>
      <trkpt lat="47.25548" lon="6.11874">
        <ele>535.4</ele>
        <time>2024-07-31T07:31:57Z</time>
      </trkpt>
      <trkpt lat="47.25551" lon="6.11877">
        <ele>536.2</ele>
        <time>2024-07-31T07:31:58Z</time>
      </trkpt>
      <trkpt lat="47.25553" lon="6.11879">
        <ele>536.8</ele>
        <time>2024-07-31T07:31:59Z</time>
      </trkpt>
      <trkpt lat="47.25555" lon="6.1188">
        <ele>536.8</ele>
        <time>2024-07-31T07:32:00Z</time>
      </trkpt>
      <trkpt lat="47.25556" lon="6.11882">
        <ele>537.2</ele>
        <time>2024-07-31T07:32:01Z</time>
      </trkpt>
      <trkpt lat="47.25556" lon="6.11883">
        <ele>537.2</ele>
        <time>2024-07-31T07:32:02Z</time>
      </trkpt>
      <trkpt lat="47.25558" lon="6.11885">
        <ele>537.4</ele>
        <time>2024-07-31T07:32:03Z</time>
      </trkpt>
      <trkpt lat="47.25559" lon="6.11886">
        <ele>537.4</ele>
        <time>2024-07-31T07:32:04Z</time>
      </trkpt>
      <trkpt lat="47.2556" lon="6.11888">
        <ele>537.6</ele>
        <time>2024-07-31T07:32:05Z</time>
      </trkpt>
      <trkpt lat="47.25561" lon="6.11889">
        <ele>537.8</ele>
        <time>2024-07-31T07:32:06Z</time>
      </trkpt>
      <trkpt lat="47.25562" lon="6.1189">
        <ele>537.8</ele>
        <time>2024-07-31T07:32:07Z</time>
      </trkpt>
      <trkpt lat="47.25563" lon="6.11892">
        <ele>537.8</ele>
        <time>2024-07-31T07:32:08Z</time>
      </trkpt>
      <trkpt lat="47.25563" lon="6.11895">
        <ele>538</ele>
        <time>2024-07-31T07:32:09Z</time>
      </trkpt>
      <trkpt lat="47.25564" lon="6.11898">
        <ele>538.2</ele>
        <time>2024-07-31T07:32:10Z</time>
      </trkpt>
      <trkpt lat="47.25564" lon="6.11898">
        <ele>538.2</ele>
        <time>2024-07-31T07:32:11Z</time>
      </trkpt>
      <trkpt lat="47.25568" lon="6.11902">
        <ele>538.2</ele>
        <time>2024-07-31T07:32:12Z</time>
      </trkpt>
      <trkpt lat="47.25569" lon="6.11903">
        <ele>538.2</ele>
        <time>2024-07-31T07:32:13Z</time>
      </trkpt>
      <trkpt lat="47.25571" lon="6.11907">
        <ele>538.4</ele>
        <time>2024-07-31T07:32:14Z</time>
      </trkpt>
      <trkpt lat="47.25572" lon="6.11909">
        <ele>538.4</ele>
        <time>2024-07-31T07:32:15Z</time>
      </trkpt>
      <trkpt lat="47.25575" lon="6.11913">
        <ele>538.4</ele>
        <time>2024-07-31T07:32:16Z</time>
      </trkpt>
      <trkpt lat="47.25578" lon="6.11915">
        <ele>538.4</ele>
        <time>2024-07-31T07:32:17Z</time>
      </trkpt>
      <trkpt lat="47.25579" lon="6.11917">
        <ele>538.2</ele>
        <time>2024-07-31T07:32:18Z</time>
      </trkpt>
      <trkpt lat="47.25581" lon="6.1192">
        <ele>538.4</ele>
        <time>2024-07-31T07:32:19Z</time>
      </trkpt>
      <trkpt lat="47.25584" lon="6.11924">
        <ele>538</ele>
        <time>2024-07-31T07:32:20Z</time>
      </trkpt>
      <trkpt lat="47.25587" lon="6.11927">
        <ele>538.6</ele>
        <time>2024-07-31T07:32:21Z</time>
      </trkpt>
      <trkpt lat="47.25589" lon="6.1193">
        <ele>538.2</ele>
        <time>2024-07-31T07:32:22Z</time>
      </trkpt>
      <trkpt lat="47.25591" lon="6.11934">
        <ele>538.4</ele>
        <time>2024-07-31T07:32:23Z</time>
      </trkpt>
      <trkpt lat="47.25593" lon="6.11937">
        <ele>538.4</ele>
        <time>2024-07-31T07:32:24Z</time>
      </trkpt>
      <trkpt lat="47.25595" lon="6.11941">
        <ele>538</ele>
        <time>2024-07-31T07:32:25Z</time>
      </trkpt>
      <trkpt lat="47.25597" lon="6.11944">
        <ele>538.2</ele>
        <time>2024-07-31T07:32:26Z</time>
      </trkpt>
      <trkpt lat="47.25598" lon="6.11947">
        <ele>538.4</ele>
        <time>2024-07-31T07:32:27Z</time>
      </trkpt>
      <trkpt lat="47.256" lon="6.1195">
        <ele>538.2</ele>
        <time>2024-07-31T07:32:28Z</time>
      </trkpt>
      <trkpt lat="47.25603" lon="6.11954">
        <ele>538.2</ele>
        <time>2024-07-31T07:32:29Z</time>
      </trkpt>
      <trkpt lat="47.25605" lon="6.11957">
        <ele>538.2</ele>
        <time>2024-07-31T07:32:30Z</time>
      </trkpt>
      <trkpt lat="47.25608" lon="6.11961">
        <ele>538.4</ele>
        <time>2024-07-31T07:32:31Z</time>
      </trkpt>
      <trkpt lat="47.25611" lon="6.11964">
        <ele>538.4</ele>
        <time>2024-07-31T07:32:32Z</time>
      </trkpt>
      <trkpt lat="47.25614" lon="6.11967">
        <ele>538.6</ele>
        <time>2024-07-31T07:32:33Z</time>
      </trkpt>
      <trkpt lat="47.25616" lon="6.11971">
        <ele>538.2</ele>
        <time>2024-07-31T07:32:34Z</time>
      </trkpt>
      <trkpt lat="47.25618" lon="6.11975">
        <ele>538.2</ele>
        <time>2024-07-31T07:32:35Z</time>
      </trkpt>
      <trkpt lat="47.25621" lon="6.11979">
        <ele>538.4</ele>
        <time>2024-07-31T07:32:36Z</time>
      </trkpt>
      <trkpt lat="47.25623" lon="6.11984">
        <ele>538.2</ele>
        <time>2024-07-31T07:32:37Z</time>
      </trkpt>
      <trkpt lat="47.25626" lon="6.11988">
        <ele>538.2</ele>
        <time>2024-07-31T07:32:38Z</time>
      </trkpt>
      <trkpt lat="47.25628" lon="6.11992">
        <ele>538.2</ele>
        <time>2024-07-31T07:32:39Z</time>
      </trkpt>
      <trkpt lat="47.25631" lon="6.11997">
        <ele>538</ele>
        <time>2024-07-31T07:32:40Z</time>
      </trkpt>
      <trkpt lat="47.25634" lon="6.12001">
        <ele>538.2</ele>
        <time>2024-07-31T07:32:41Z</time>
      </trkpt>
      <trkpt lat="47.25638" lon="6.12006">
        <ele>538</ele>
        <time>2024-07-31T07:32:42Z</time>
      </trkpt>
      <trkpt lat="47.25641" lon="6.12011">
        <ele>538</ele>
        <time>2024-07-31T07:32:43Z</time>
      </trkpt>
      <trkpt lat="47.25644" lon="6.12016">
        <ele>538</ele>
        <time>2024-07-31T07:32:44Z</time>
      </trkpt>
      <trkpt lat="47.25647" lon="6.12021">
        <ele>538.2</ele>
        <time>2024-07-31T07:32:45Z</time>
      </trkpt>
      <trkpt lat="47.2565" lon="6.12025">
        <ele>538</ele>
        <time>2024-07-31T07:32:46Z</time>
      </trkpt>
      <trkpt lat="47.25653" lon="6.12029">
        <ele>537.8</ele>
        <time>2024-07-31T07:32:47Z</time>
      </trkpt>
      <trkpt lat="47.25656" lon="6.12033">
        <ele>538</ele>
        <time>2024-07-31T07:32:48Z</time>
      </trkpt>
      <trkpt lat="47.25659" lon="6.12037">
        <ele>537.8</ele>
        <time>2024-07-31T07:32:49Z</time>
      </trkpt>
      <trkpt lat="47.25662" lon="6.12041">
        <ele>537.6</ele>
        <time>2024-07-31T07:32:50Z</time>
      </trkpt>
      <trkpt lat="47.25665" lon="6.12046">
        <ele>537.2</ele>
        <time>2024-07-31T07:32:51Z</time>
      </trkpt>
      <trkpt lat="47.25665" lon="6.12046">
        <ele>537.2</ele>
        <time>2024-07-31T07:32:52Z</time>
      </trkpt>
      <trkpt lat="47.25671" lon="6.12057">
        <ele>537.4</ele>
        <time>2024-07-31T07:32:53Z</time>
      </trkpt>
      <trkpt lat="47.25674" lon="6.12061">
        <ele>536.8</ele>
        <time>2024-07-31T07:32:54Z</time>
      </trkpt>
      <trkpt lat="47.25678" lon="6.12066">
        <ele>536.8</ele>
        <time>2024-07-31T07:32:55Z</time>
      </trkpt>
      <trkpt lat="47.25682" lon="6.1207">
        <ele>537</ele>
        <time>2024-07-31T07:32:56Z</time>
      </trkpt>
      <trkpt lat="47.25685" lon="6.12075">
        <ele>536.8</ele>
        <time>2024-07-31T07:32:57Z</time>
      </trkpt>
      <trkpt lat="47.25689" lon="6.12079">
        <ele>536.6</ele>
        <time>2024-07-31T07:32:58Z</time>
      </trkpt>
      <trkpt lat="47.25692" lon="6.12084">
        <ele>536.2</ele>
        <time>2024-07-31T07:32:59Z</time>
      </trkpt>
      <trkpt lat="47.25697" lon="6.12088">
        <ele>536.2</ele>
        <time>2024-07-31T07:33:00Z</time>
      </trkpt>
      <trkpt lat="47.257" lon="6.12093">
        <ele>536.2</ele>
        <time>2024-07-31T07:33:01Z</time>
      </trkpt>
      <trkpt lat="47.25703" lon="6.12097">
        <ele>536.2</ele>
        <time>2024-07-31T07:33:02Z</time>
      </trkpt>
      <trkpt lat="47.25706" lon="6.12101">
        <ele>536.2</ele>
        <time>2024-07-31T07:33:03Z</time>
      </trkpt>
      <trkpt lat="47.25709" lon="6.12105">
        <ele>535.8</ele>
        <time>2024-07-31T07:33:04Z</time>
      </trkpt>
      <trkpt lat="47.25712" lon="6.12108">
        <ele>535.8</ele>
        <time>2024-07-31T07:33:05Z</time>
      </trkpt>
      <trkpt lat="47.25716" lon="6.12112">
        <ele>535.6</ele>
        <time>2024-07-31T07:33:06Z</time>
      </trkpt>
      <trkpt lat="47.25719" lon="6.12115">
        <ele>535</ele>
        <time>2024-07-31T07:33:07Z</time>
      </trkpt>
      <trkpt lat="47.25722" lon="6.1212">
        <ele>535.2</ele>
        <time>2024-07-31T07:33:08Z</time>
      </trkpt>
      <trkpt lat="47.25725" lon="6.12124">
        <ele>535.2</ele>
        <time>2024-07-31T07:33:09Z</time>
      </trkpt>
      <trkpt lat="47.25729" lon="6.12128">
        <ele>535.2</ele>
        <time>2024-07-31T07:33:10Z</time>
      </trkpt>
      <trkpt lat="47.25732" lon="6.12134">
        <ele>534.4</ele>
        <time>2024-07-31T07:33:11Z</time>
      </trkpt>
      <trkpt lat="47.25736" lon="6.12138">
        <ele>534.4</ele>
        <time>2024-07-31T07:33:12Z</time>
      </trkpt>
      <trkpt lat="47.25739" lon="6.12143">
        <ele>533.8</ele>
        <time>2024-07-31T07:33:13Z</time>
      </trkpt>
      <trkpt lat="47.25743" lon="6.12146">
        <ele>533.8</ele>
        <time>2024-07-31T07:33:14Z</time>
      </trkpt>
      <trkpt lat="47.25746" lon="6.12149">
        <ele>533</ele>
        <time>2024-07-31T07:33:15Z</time>
      </trkpt>
      <trkpt lat="47.25748" lon="6.12151">
        <ele>533</ele>
        <time>2024-07-31T07:33:16Z</time>
      </trkpt>
      <trkpt lat="47.25751" lon="6.12153">
        <ele>533</ele>
        <time>2024-07-31T07:33:17Z</time>
      </trkpt>
      <trkpt lat="47.25754" lon="6.12155">
        <ele>532.8</ele>
        <time>2024-07-31T07:33:18Z</time>
      </trkpt>
      <trkpt lat="47.25757" lon="6.12158">
        <ele>531.6</ele>
        <time>2024-07-31T07:33:19Z</time>
      </trkpt>
      <trkpt lat="47.25759" lon="6.12161">
        <ele>531.6</ele>
        <time>2024-07-31T07:33:20Z</time>
      </trkpt>
      <trkpt lat="47.25762" lon="6.12163">
        <ele>531</ele>
        <time>2024-07-31T07:33:21Z</time>
      </trkpt>
      <trkpt lat="47.25765" lon="6.12166">
        <ele>530.4</ele>
        <time>2024-07-31T07:33:22Z</time>
      </trkpt>
      <trkpt lat="47.25767" lon="6.12169">
        <ele>530.6</ele>
        <time>2024-07-31T07:33:23Z</time>
      </trkpt>
      <trkpt lat="47.2577" lon="6.12173">
        <ele>529.8</ele>
        <time>2024-07-31T07:33:24Z</time>
      </trkpt>
      <trkpt lat="47.25772" lon="6.12177">
        <ele>529.2</ele>
        <time>2024-07-31T07:33:25Z</time>
      </trkpt>
      <trkpt lat="47.25774" lon="6.1218">
        <ele>529.6</ele>
        <time>2024-07-31T07:33:26Z</time>
      </trkpt>
      <trkpt lat="47.25776" lon="6.12183">
        <ele>529.6</ele>
        <time>2024-07-31T07:33:27Z</time>
      </trkpt>
      <trkpt lat="47.25779" lon="6.12186">
        <ele>529.2</ele>
        <time>2024-07-31T07:33:28Z</time>
      </trkpt>
      <trkpt lat="47.2578" lon="6.12189">
        <ele>529.4</ele>
        <time>2024-07-31T07:33:29Z</time>
      </trkpt>
      <trkpt lat="47.25782" lon="6.1219">
        <ele>529.2</ele>
        <time>2024-07-31T07:33:30Z</time>
      </trkpt>
      <trkpt lat="47.25782" lon="6.12192">
        <ele>529</ele>
        <time>2024-07-31T07:33:31Z</time>
      </trkpt>
      <trkpt lat="47.25784" lon="6.12194">
        <ele>528.8</ele>
        <time>2024-07-31T07:33:32Z</time>
      </trkpt>
      <trkpt lat="47.25784" lon="6.12194">
        <ele>528.6</ele>
        <time>2024-07-31T07:33:33Z</time>
      </trkpt>
      <trkpt lat="47.25788" lon="6.122">
        <ele>528.2</ele>
        <time>2024-07-31T07:33:34Z</time>
      </trkpt>
      <trkpt lat="47.25789" lon="6.12203">
        <ele>528</ele>
        <time>2024-07-31T07:33:35Z</time>
      </trkpt>
      <trkpt lat="47.2579" lon="6.12206">
        <ele>528</ele>
        <time>2024-07-31T07:33:36Z</time>
      </trkpt>
      <trkpt lat="47.25792" lon="6.1221">
        <ele>528</ele>
        <time>2024-07-31T07:33:37Z</time>
      </trkpt>
      <trkpt lat="47.25794" lon="6.12214">
        <ele>527.8</ele>
        <time>2024-07-31T07:33:38Z</time>
      </trkpt>
      <trkpt lat="47.25795" lon="6.12218">
        <ele>527.4</ele>
        <time>2024-07-31T07:33:39Z</time>
      </trkpt>
      <trkpt lat="47.25797" lon="6.12223">
        <ele>527.2</ele>
        <time>2024-07-31T07:33:40Z</time>
      </trkpt>
      <trkpt lat="47.258" lon="6.12229">
        <ele>526.4</ele>
        <time>2024-07-31T07:33:41Z</time>
      </trkpt>
      <trkpt lat="47.25802" lon="6.12233">
        <ele>525.8</ele>
        <time>2024-07-31T07:33:42Z</time>
      </trkpt>
      <trkpt lat="47.25807" lon="6.12238">
        <ele>525.4</ele>
        <time>2024-07-31T07:33:43Z</time>
      </trkpt>
      <trkpt lat="47.2581" lon="6.12242">
        <ele>525</ele>
        <time>2024-07-31T07:33:44Z</time>
      </trkpt>
      <trkpt lat="47.25812" lon="6.12247">
        <ele>524.6</ele>
        <time>2024-07-31T07:33:45Z</time>
      </trkpt>
      <trkpt lat="47.25813" lon="6.12252">
        <ele>524.4</ele>
        <time>2024-07-31T07:33:46Z</time>
      </trkpt>
      <trkpt lat="47.25815" lon="6.12256">
        <ele>524.2</ele>
        <time>2024-07-31T07:33:47Z</time>
      </trkpt>
      <trkpt lat="47.25818" lon="6.12261">
        <ele>523.2</ele>
        <time>2024-07-31T07:33:48Z</time>
      </trkpt>
      <trkpt lat="47.25821" lon="6.12266">
        <ele>522.6</ele>
        <time>2024-07-31T07:33:49Z</time>
      </trkpt>
      <trkpt lat="47.25823" lon="6.12272">
        <ele>522</ele>
        <time>2024-07-31T07:33:50Z</time>
      </trkpt>
      <trkpt lat="47.25825" lon="6.12277">
        <ele>521.8</ele>
        <time>2024-07-31T07:33:51Z</time>
      </trkpt>
      <trkpt lat="47.25828" lon="6.12282">
        <ele>521.8</ele>
        <time>2024-07-31T07:33:52Z</time>
      </trkpt>
      <trkpt lat="47.2583" lon="6.12287">
        <ele>521</ele>
        <time>2024-07-31T07:33:53Z</time>
      </trkpt>
      <trkpt lat="47.25832" lon="6.1229">
        <ele>520.8</ele>
        <time>2024-07-31T07:33:54Z</time>
      </trkpt>
      <trkpt lat="47.25833" lon="6.12293">
        <ele>520.6</ele>
        <time>2024-07-31T07:33:55Z</time>
      </trkpt>
      <trkpt lat="47.25834" lon="6.12297">
        <ele>520.2</ele>
        <time>2024-07-31T07:33:56Z</time>
      </trkpt>
      <trkpt lat="47.25835" lon="6.123">
        <ele>520</ele>
        <time>2024-07-31T07:33:57Z</time>
      </trkpt>
      <trkpt lat="47.25837" lon="6.12303">
        <ele>520</ele>
        <time>2024-07-31T07:33:58Z</time>
      </trkpt>
      <trkpt lat="47.25837" lon="6.12306">
        <ele>520</ele>
        <time>2024-07-31T07:33:59Z</time>
      </trkpt>
      <trkpt lat="47.25838" lon="6.12309">
        <ele>519.8</ele>
        <time>2024-07-31T07:34:00Z</time>
      </trkpt>
      <trkpt lat="47.2584" lon="6.12313">
        <ele>519</ele>
        <time>2024-07-31T07:34:01Z</time>
      </trkpt>
      <trkpt lat="47.25841" lon="6.12317">
        <ele>519.2</ele>
        <time>2024-07-31T07:34:02Z</time>
      </trkpt>
      <trkpt lat="47.25842" lon="6.1232">
        <ele>518.8</ele>
        <time>2024-07-31T07:34:03Z</time>
      </trkpt>
      <trkpt lat="47.25842" lon="6.12324">
        <ele>519</ele>
        <time>2024-07-31T07:34:04Z</time>
      </trkpt>
      <trkpt lat="47.25843" lon="6.12329">
        <ele>517.8</ele>
        <time>2024-07-31T07:34:05Z</time>
      </trkpt>
      <trkpt lat="47.25844" lon="6.12334">
        <ele>517.6</ele>
        <time>2024-07-31T07:34:06Z</time>
      </trkpt>
      <trkpt lat="47.25845" lon="6.12339">
        <ele>517</ele>
        <time>2024-07-31T07:34:07Z</time>
      </trkpt>
      <trkpt lat="47.25847" lon="6.12343">
        <ele>516</ele>
        <time>2024-07-31T07:34:08Z</time>
      </trkpt>
      <trkpt lat="47.2585" lon="6.12347">
        <ele>515.6</ele>
        <time>2024-07-31T07:34:09Z</time>
      </trkpt>
      <trkpt lat="47.25851" lon="6.12351">
        <ele>515</ele>
        <time>2024-07-31T07:34:10Z</time>
      </trkpt>
      <trkpt lat="47.25853" lon="6.12353">
        <ele>515</ele>
        <time>2024-07-31T07:34:11Z</time>
      </trkpt>
      <trkpt lat="47.25854" lon="6.12354">
        <ele>515</ele>
        <time>2024-07-31T07:34:12Z</time>
      </trkpt>
      <trkpt lat="47.25855" lon="6.12355">
        <ele>515</ele>
        <time>2024-07-31T07:34:13Z</time>
      </trkpt>
      <trkpt lat="47.25855" lon="6.12356">
        <ele>515.2</ele>
        <time>2024-07-31T07:34:14Z</time>
      </trkpt>
      <trkpt lat="47.25855" lon="6.12357">
        <ele>515.2</ele>
        <time>2024-07-31T07:34:15Z</time>
      </trkpt>
      <trkpt lat="47.25855" lon="6.12357">
        <ele>515.2</ele>
        <time>2024-07-31T07:34:16Z</time>
      </trkpt>
      <trkpt lat="47.25854" lon="6.12358">
        <ele>515.2</ele>
        <time>2024-07-31T07:34:17Z</time>
      </trkpt>
      <trkpt lat="47.25855" lon="6.12359">
        <ele>515.2</ele>
        <time>2024-07-31T07:34:18Z</time>
      </trkpt>
      <trkpt lat="47.25855" lon="6.1236">
        <ele>515</ele>
        <time>2024-07-31T07:34:19Z</time>
      </trkpt>
      <trkpt lat="47.25855" lon="6.1236">
        <ele>515</ele>
        <time>2024-07-31T07:34:20Z</time>
      </trkpt>
      <trkpt lat="47.25855" lon="6.12361">
        <ele>515</ele>
        <time>2024-07-31T07:34:21Z</time>
      </trkpt>
      <trkpt lat="47.25856" lon="6.12362">
        <ele>514.8</ele>
        <time>2024-07-31T07:34:22Z</time>
      </trkpt>
      <trkpt lat="47.25856" lon="6.12365">
        <ele>514.8</ele>
        <time>2024-07-31T07:34:23Z</time>
      </trkpt>
      <trkpt lat="47.25857" lon="6.12369">
        <ele>514.6</ele>
        <time>2024-07-31T07:34:24Z</time>
      </trkpt>
      <trkpt lat="47.25857" lon="6.12371">
        <ele>514.4</ele>
        <time>2024-07-31T07:34:25Z</time>
      </trkpt>
      <trkpt lat="47.25858" lon="6.12374">
        <ele>514.4</ele>
        <time>2024-07-31T07:34:26Z</time>
      </trkpt>
      <trkpt lat="47.2586" lon="6.12376">
        <ele>514.2</ele>
        <time>2024-07-31T07:34:27Z</time>
      </trkpt>
      <trkpt lat="47.2586" lon="6.12378">
        <ele>514</ele>
        <time>2024-07-31T07:34:28Z</time>
      </trkpt>
      <trkpt lat="47.25861" lon="6.1238">
        <ele>513.8</ele>
        <time>2024-07-31T07:34:29Z</time>
      </trkpt>
      <trkpt lat="47.25862" lon="6.12381">
        <ele>513.8</ele>
        <time>2024-07-31T07:34:30Z</time>
      </trkpt>
      <trkpt lat="47.25862" lon="6.12383">
        <ele>513.8</ele>
        <time>2024-07-31T07:34:31Z</time>
      </trkpt>
      <trkpt lat="47.25863" lon="6.12385">
        <ele>514</ele>
        <time>2024-07-31T07:34:32Z</time>
      </trkpt>
      <trkpt lat="47.25863" lon="6.12387">
        <ele>513.6</ele>
        <time>2024-07-31T07:34:33Z</time>
      </trkpt>
      <trkpt lat="47.25864" lon="6.12391">
        <ele>513.4</ele>
        <time>2024-07-31T07:34:34Z</time>
      </trkpt>
      <trkpt lat="47.25865" lon="6.12394">
        <ele>513.6</ele>
        <time>2024-07-31T07:34:35Z</time>
      </trkpt>
      <trkpt lat="47.25866" lon="6.12398">
        <ele>513.6</ele>
        <time>2024-07-31T07:34:36Z</time>
      </trkpt>
      <trkpt lat="47.25867" lon="6.12402">
        <ele>513</ele>
        <time>2024-07-31T07:34:37Z</time>
      </trkpt>
      <trkpt lat="47.25868" lon="6.12406">
        <ele>513.2</ele>
        <time>2024-07-31T07:34:38Z</time>
      </trkpt>
      <trkpt lat="47.25869" lon="6.1241">
        <ele>513.4</ele>
        <time>2024-07-31T07:34:39Z</time>
      </trkpt>
      <trkpt lat="47.2587" lon="6.12414">
        <ele>513.4</ele>
        <time>2024-07-31T07:34:40Z</time>
      </trkpt>
      <trkpt lat="47.25872" lon="6.12419">
        <ele>513.4</ele>
        <time>2024-07-31T07:34:41Z</time>
      </trkpt>
      <trkpt lat="47.25873" lon="6.12424">
        <ele>513.4</ele>
        <time>2024-07-31T07:34:42Z</time>
      </trkpt>
      <trkpt lat="47.25875" lon="6.12429">
        <ele>513.4</ele>
        <time>2024-07-31T07:34:43Z</time>
      </trkpt>
      <trkpt lat="47.25877" lon="6.12434">
        <ele>513.2</ele>
        <time>2024-07-31T07:34:44Z</time>
      </trkpt>
      <trkpt lat="47.25878" lon="6.12438">
        <ele>513.2</ele>
        <time>2024-07-31T07:34:45Z</time>
      </trkpt>
      <trkpt lat="47.25879" lon="6.12442">
        <ele>513</ele>
        <time>2024-07-31T07:34:46Z</time>
      </trkpt>
      <trkpt lat="47.25882" lon="6.12446">
        <ele>513.4</ele>
        <time>2024-07-31T07:34:47Z</time>
      </trkpt>
      <trkpt lat="47.25886" lon="6.1245">
        <ele>513</ele>
        <time>2024-07-31T07:34:48Z</time>
      </trkpt>
      <trkpt lat="47.25887" lon="6.12453">
        <ele>512.8</ele>
        <time>2024-07-31T07:34:49Z</time>
      </trkpt>
      <trkpt lat="47.25889" lon="6.12457">
        <ele>512.8</ele>
        <time>2024-07-31T07:34:50Z</time>
      </trkpt>
      <trkpt lat="47.25891" lon="6.1246">
        <ele>512.6</ele>
        <time>2024-07-31T07:34:51Z</time>
      </trkpt>
      <trkpt lat="47.25893" lon="6.12464">
        <ele>512.8</ele>
        <time>2024-07-31T07:34:52Z</time>
      </trkpt>
      <trkpt lat="47.25895" lon="6.12467">
        <ele>512.8</ele>
        <time>2024-07-31T07:34:53Z</time>
      </trkpt>
      <trkpt lat="47.25897" lon="6.12471">
        <ele>512.6</ele>
        <time>2024-07-31T07:34:54Z</time>
      </trkpt>
      <trkpt lat="47.259" lon="6.12474">
        <ele>512</ele>
        <time>2024-07-31T07:34:55Z</time>
      </trkpt>
      <trkpt lat="47.25902" lon="6.12478">
        <ele>512.4</ele>
        <time>2024-07-31T07:34:56Z</time>
      </trkpt>
      <trkpt lat="47.25903" lon="6.12482">
        <ele>511.6</ele>
        <time>2024-07-31T07:34:57Z</time>
      </trkpt>
      <trkpt lat="47.25906" lon="6.12487">
        <ele>511.4</ele>
        <time>2024-07-31T07:34:58Z</time>
      </trkpt>
      <trkpt lat="47.25908" lon="6.12492">
        <ele>510.8</ele>
        <time>2024-07-31T07:34:59Z</time>
      </trkpt>
      <trkpt lat="47.2591" lon="6.12498">
        <ele>511</ele>
        <time>2024-07-31T07:35:00Z</time>
      </trkpt>
      <trkpt lat="47.25911" lon="6.12505">
        <ele>511</ele>
        <time>2024-07-31T07:35:01Z</time>
      </trkpt>
      <trkpt lat="47.25911" lon="6.1251">
        <ele>510.6</ele>
        <time>2024-07-31T07:35:02Z</time>
      </trkpt>
      <trkpt lat="47.25912" lon="6.12514">
        <ele>510.4</ele>
        <time>2024-07-31T07:35:03Z</time>
      </trkpt>
      <trkpt lat="47.25913" lon="6.12519">
        <ele>510.4</ele>
        <time>2024-07-31T07:35:04Z</time>
      </trkpt>
      <trkpt lat="47.25914" lon="6.12523">
        <ele>510.6</ele>
        <time>2024-07-31T07:35:05Z</time>
      </trkpt>
      <trkpt lat="47.25915" lon="6.12527">
        <ele>510.2</ele>
        <time>2024-07-31T07:35:06Z</time>
      </trkpt>
      <trkpt lat="47.25917" lon="6.12531">
        <ele>510.4</ele>
        <time>2024-07-31T07:35:07Z</time>
      </trkpt>
      <trkpt lat="47.2592" lon="6.12535">
        <ele>510.2</ele>
        <time>2024-07-31T07:35:08Z</time>
      </trkpt>
      <trkpt lat="47.25922" lon="6.12539">
        <ele>509.6</ele>
        <time>2024-07-31T07:35:09Z</time>
      </trkpt>
      <trkpt lat="47.25925" lon="6.12544">
        <ele>509.8</ele>
        <time>2024-07-31T07:35:10Z</time>
      </trkpt>
      <trkpt lat="47.25928" lon="6.12548">
        <ele>509.8</ele>
        <time>2024-07-31T07:35:11Z</time>
      </trkpt>
      <trkpt lat="47.2593" lon="6.12553">
        <ele>509.6</ele>
        <time>2024-07-31T07:35:12Z</time>
      </trkpt>
      <trkpt lat="47.25933" lon="6.12557">
        <ele>509.6</ele>
        <time>2024-07-31T07:35:13Z</time>
      </trkpt>
      <trkpt lat="47.25936" lon="6.12563">
        <ele>509.6</ele>
        <time>2024-07-31T07:35:14Z</time>
      </trkpt>
      <trkpt lat="47.2594" lon="6.12568">
        <ele>509</ele>
        <time>2024-07-31T07:35:15Z</time>
      </trkpt>
      <trkpt lat="47.25944" lon="6.12574">
        <ele>509.4</ele>
        <time>2024-07-31T07:35:16Z</time>
      </trkpt>
      <trkpt lat="47.25947" lon="6.12579">
        <ele>509</ele>
        <time>2024-07-31T07:35:17Z</time>
      </trkpt>
      <trkpt lat="47.2595" lon="6.12584">
        <ele>508.6</ele>
        <time>2024-07-31T07:35:18Z</time>
      </trkpt>
      <trkpt lat="47.25952" lon="6.1259">
        <ele>508.4</ele>
        <time>2024-07-31T07:35:19Z</time>
      </trkpt>
      <trkpt lat="47.25956" lon="6.12595">
        <ele>508.2</ele>
        <time>2024-07-31T07:35:20Z</time>
      </trkpt>
      <trkpt lat="47.25961" lon="6.12599">
        <ele>508.2</ele>
        <time>2024-07-31T07:35:21Z</time>
      </trkpt>
      <trkpt lat="47.25965" lon="6.12604">
        <ele>508.2</ele>
        <time>2024-07-31T07:35:22Z</time>
      </trkpt>
      <trkpt lat="47.25968" lon="6.12609">
        <ele>508.4</ele>
        <time>2024-07-31T07:35:23Z</time>
      </trkpt>
      <trkpt lat="47.25973" lon="6.12614">
        <ele>507</ele>
        <time>2024-07-31T07:35:24Z</time>
      </trkpt>
      <trkpt lat="47.25977" lon="6.12619">
        <ele>507</ele>
        <time>2024-07-31T07:35:25Z</time>
      </trkpt>
      <trkpt lat="47.25982" lon="6.12624">
        <ele>507</ele>
        <time>2024-07-31T07:35:26Z</time>
      </trkpt>
      <trkpt lat="47.25987" lon="6.1263">
        <ele>506.8</ele>
        <time>2024-07-31T07:35:27Z</time>
      </trkpt>
      <trkpt lat="47.25991" lon="6.12636">
        <ele>505.6</ele>
        <time>2024-07-31T07:35:28Z</time>
      </trkpt>
      <trkpt lat="47.25994" lon="6.12642">
        <ele>505.6</ele>
        <time>2024-07-31T07:35:29Z</time>
      </trkpt>
      <trkpt lat="47.25997" lon="6.12649">
        <ele>505.4</ele>
        <time>2024-07-31T07:35:30Z</time>
      </trkpt>
      <trkpt lat="47.26" lon="6.12656">
        <ele>504.8</ele>
        <time>2024-07-31T07:35:31Z</time>
      </trkpt>
      <trkpt lat="47.26002" lon="6.12664">
        <ele>504.6</ele>
        <time>2024-07-31T07:35:32Z</time>
      </trkpt>
      <trkpt lat="47.26004" lon="6.12673">
        <ele>504</ele>
        <time>2024-07-31T07:35:33Z</time>
      </trkpt>
      <trkpt lat="47.26007" lon="6.12681">
        <ele>503.4</ele>
        <time>2024-07-31T07:35:34Z</time>
      </trkpt>
      <trkpt lat="47.2601" lon="6.12689">
        <ele>503</ele>
        <time>2024-07-31T07:35:35Z</time>
      </trkpt>
      <trkpt lat="47.26012" lon="6.12696">
        <ele>503.4</ele>
        <time>2024-07-31T07:35:36Z</time>
      </trkpt>
      <trkpt lat="47.26014" lon="6.12702">
        <ele>503.8</ele>
        <time>2024-07-31T07:35:37Z</time>
      </trkpt>
      <trkpt lat="47.26016" lon="6.12707">
        <ele>504</ele>
        <time>2024-07-31T07:35:38Z</time>
      </trkpt>
      <trkpt lat="47.26019" lon="6.12711">
        <ele>504.2</ele>
        <time>2024-07-31T07:35:39Z</time>
      </trkpt>
      <trkpt lat="47.2602" lon="6.12715">
        <ele>504</ele>
        <time>2024-07-31T07:35:40Z</time>
      </trkpt>
      <trkpt lat="47.26022" lon="6.12719">
        <ele>504.2</ele>
        <time>2024-07-31T07:35:41Z</time>
      </trkpt>
      <trkpt lat="47.26023" lon="6.12724">
        <ele>504</ele>
        <time>2024-07-31T07:35:42Z</time>
      </trkpt>
      <trkpt lat="47.26025" lon="6.12729">
        <ele>504.4</ele>
        <time>2024-07-31T07:35:43Z</time>
      </trkpt>
      <trkpt lat="47.26026" lon="6.12734">
        <ele>504</ele>
        <time>2024-07-31T07:35:44Z</time>
      </trkpt>
      <trkpt lat="47.26027" lon="6.12739">
        <ele>504.2</ele>
        <time>2024-07-31T07:35:45Z</time>
      </trkpt>
      <trkpt lat="47.2603" lon="6.12745">
        <ele>504</ele>
        <time>2024-07-31T07:35:46Z</time>
      </trkpt>
      <trkpt lat="47.26031" lon="6.12752">
        <ele>504.2</ele>
        <time>2024-07-31T07:35:47Z</time>
      </trkpt>
      <trkpt lat="47.26032" lon="6.12758">
        <ele>504.2</ele>
        <time>2024-07-31T07:35:48Z</time>
      </trkpt>
      <trkpt lat="47.26032" lon="6.12765">
        <ele>504.4</ele>
        <time>2024-07-31T07:35:49Z</time>
      </trkpt>
      <trkpt lat="47.26032" lon="6.12772">
        <ele>504</ele>
        <time>2024-07-31T07:35:50Z</time>
      </trkpt>
      <trkpt lat="47.26031" lon="6.12779">
        <ele>504.4</ele>
        <time>2024-07-31T07:35:51Z</time>
      </trkpt>
      <trkpt lat="47.26031" lon="6.12786">
        <ele>504.2</ele>
        <time>2024-07-31T07:35:52Z</time>
      </trkpt>
      <trkpt lat="47.2603" lon="6.12792">
        <ele>504.4</ele>
        <time>2024-07-31T07:35:53Z</time>
      </trkpt>
      <trkpt lat="47.26029" lon="6.12798">
        <ele>504.8</ele>
        <time>2024-07-31T07:35:54Z</time>
      </trkpt>
      <trkpt lat="47.26029" lon="6.12804">
        <ele>505</ele>
        <time>2024-07-31T07:35:55Z</time>
      </trkpt>
      <trkpt lat="47.26029" lon="6.1281">
        <ele>505</ele>
        <time>2024-07-31T07:35:56Z</time>
      </trkpt>
      <trkpt lat="47.26029" lon="6.12816">
        <ele>505.4</ele>
        <time>2024-07-31T07:35:57Z</time>
      </trkpt>
      <trkpt lat="47.2603" lon="6.12821">
        <ele>505.4</ele>
        <time>2024-07-31T07:35:58Z</time>
      </trkpt>
      <trkpt lat="47.26031" lon="6.12826">
        <ele>505.2</ele>
        <time>2024-07-31T07:35:59Z</time>
      </trkpt>
      <trkpt lat="47.26033" lon="6.1283">
        <ele>505.2</ele>
        <time>2024-07-31T07:36:00Z</time>
      </trkpt>
      <trkpt lat="47.26033" lon="6.12835">
        <ele>505.2</ele>
        <time>2024-07-31T07:36:01Z</time>
      </trkpt>
      <trkpt lat="47.26034" lon="6.12839">
        <ele>505.4</ele>
        <time>2024-07-31T07:36:02Z</time>
      </trkpt>
      <trkpt lat="47.26033" lon="6.12844">
        <ele>505.2</ele>
        <time>2024-07-31T07:36:03Z</time>
      </trkpt>
      <trkpt lat="47.26032" lon="6.12847">
        <ele>505.6</ele>
        <time>2024-07-31T07:36:04Z</time>
      </trkpt>
      <trkpt lat="47.26031" lon="6.12851">
        <ele>506</ele>
        <time>2024-07-31T07:36:05Z</time>
      </trkpt>
      <trkpt lat="47.26029" lon="6.12853">
        <ele>506</ele>
        <time>2024-07-31T07:36:06Z</time>
      </trkpt>
      <trkpt lat="47.26027" lon="6.12855">
        <ele>506</ele>
        <time>2024-07-31T07:36:07Z</time>
      </trkpt>
      <trkpt lat="47.26026" lon="6.12857">
        <ele>506.2</ele>
        <time>2024-07-31T07:36:08Z</time>
      </trkpt>
      <trkpt lat="47.26024" lon="6.12859">
        <ele>506.4</ele>
        <time>2024-07-31T07:36:09Z</time>
      </trkpt>
      <trkpt lat="47.26021" lon="6.1286">
        <ele>506.4</ele>
        <time>2024-07-31T07:36:10Z</time>
      </trkpt>
      <trkpt lat="47.26019" lon="6.12862">
        <ele>506.2</ele>
        <time>2024-07-31T07:36:11Z</time>
      </trkpt>
      <trkpt lat="47.26016" lon="6.12863">
        <ele>506.2</ele>
        <time>2024-07-31T07:36:12Z</time>
      </trkpt>
      <trkpt lat="47.26013" lon="6.12865">
        <ele>506.2</ele>
        <time>2024-07-31T07:36:13Z</time>
      </trkpt>
      <trkpt lat="47.26011" lon="6.12866">
        <ele>506.2</ele>
        <time>2024-07-31T07:36:14Z</time>
      </trkpt>
      <trkpt lat="47.26009" lon="6.12866">
        <ele>506.2</ele>
        <time>2024-07-31T07:36:15Z</time>
      </trkpt>
      <trkpt lat="47.26006" lon="6.12865">
        <ele>506</ele>
        <time>2024-07-31T07:36:16Z</time>
      </trkpt>
      <trkpt lat="47.26004" lon="6.12865">
        <ele>506.2</ele>
        <time>2024-07-31T07:36:17Z</time>
      </trkpt>
      <trkpt lat="47.26002" lon="6.12866">
        <ele>505.8</ele>
        <time>2024-07-31T07:36:18Z</time>
      </trkpt>
      <trkpt lat="47.26" lon="6.12867">
        <ele>505.8</ele>
        <time>2024-07-31T07:36:19Z</time>
      </trkpt>
      <trkpt lat="47.25997" lon="6.12869">
        <ele>506</ele>
        <time>2024-07-31T07:36:20Z</time>
      </trkpt>
      <trkpt lat="47.25995" lon="6.12872">
        <ele>505.2</ele>
        <time>2024-07-31T07:36:21Z</time>
      </trkpt>
      <trkpt lat="47.25992" lon="6.12874">
        <ele>505.4</ele>
        <time>2024-07-31T07:36:22Z</time>
      </trkpt>
      <trkpt lat="47.2599" lon="6.12876">
        <ele>504.8</ele>
        <time>2024-07-31T07:36:23Z</time>
      </trkpt>
      <trkpt lat="47.25987" lon="6.12878">
        <ele>505.4</ele>
        <time>2024-07-31T07:36:24Z</time>
      </trkpt>
      <trkpt lat="47.25986" lon="6.12879">
        <ele>505.4</ele>
        <time>2024-07-31T07:36:25Z</time>
      </trkpt>
      <trkpt lat="47.25983" lon="6.1288">
        <ele>504.8</ele>
        <time>2024-07-31T07:36:26Z</time>
      </trkpt>
      <trkpt lat="47.25981" lon="6.12882">
        <ele>504.4</ele>
        <time>2024-07-31T07:36:27Z</time>
      </trkpt>
      <trkpt lat="47.25978" lon="6.12884">
        <ele>504.6</ele>
        <time>2024-07-31T07:36:28Z</time>
      </trkpt>
      <trkpt lat="47.25975" lon="6.12888">
        <ele>503.2</ele>
        <time>2024-07-31T07:36:29Z</time>
      </trkpt>
      <trkpt lat="47.25971" lon="6.12891">
        <ele>502.8</ele>
        <time>2024-07-31T07:36:30Z</time>
      </trkpt>
      <trkpt lat="47.25967" lon="6.12894">
        <ele>503</ele>
        <time>2024-07-31T07:36:31Z</time>
      </trkpt>
      <trkpt lat="47.25963" lon="6.12896">
        <ele>503</ele>
        <time>2024-07-31T07:36:32Z</time>
      </trkpt>
      <trkpt lat="47.2596" lon="6.12898">
        <ele>503.2</ele>
        <time>2024-07-31T07:36:33Z</time>
      </trkpt>
      <trkpt lat="47.25957" lon="6.12901">
        <ele>503.4</ele>
        <time>2024-07-31T07:36:34Z</time>
      </trkpt>
      <trkpt lat="47.25954" lon="6.12904">
        <ele>503.6</ele>
        <time>2024-07-31T07:36:35Z</time>
      </trkpt>
      <trkpt lat="47.25952" lon="6.12906">
        <ele>503.6</ele>
        <time>2024-07-31T07:36:36Z</time>
      </trkpt>
      <trkpt lat="47.25949" lon="6.12909">
        <ele>503.8</ele>
        <time>2024-07-31T07:36:37Z</time>
      </trkpt>
      <trkpt lat="47.25947" lon="6.12911">
        <ele>503.8</ele>
        <time>2024-07-31T07:36:38Z</time>
      </trkpt>
      <trkpt lat="47.25944" lon="6.12913">
        <ele>504</ele>
        <time>2024-07-31T07:36:39Z</time>
      </trkpt>
      <trkpt lat="47.25941" lon="6.12916">
        <ele>504.2</ele>
        <time>2024-07-31T07:36:40Z</time>
      </trkpt>
      <trkpt lat="47.25938" lon="6.12918">
        <ele>504.2</ele>
        <time>2024-07-31T07:36:41Z</time>
      </trkpt>
      <trkpt lat="47.25935" lon="6.1292">
        <ele>504.4</ele>
        <time>2024-07-31T07:36:42Z</time>
      </trkpt>
      <trkpt lat="47.25933" lon="6.12922">
        <ele>504.6</ele>
        <time>2024-07-31T07:36:43Z</time>
      </trkpt>
      <trkpt lat="47.25931" lon="6.12924">
        <ele>504.8</ele>
        <time>2024-07-31T07:36:44Z</time>
      </trkpt>
      <trkpt lat="47.25929" lon="6.12926">
        <ele>505.4</ele>
        <time>2024-07-31T07:36:45Z</time>
      </trkpt>
      <trkpt lat="47.25927" lon="6.12928">
        <ele>505.2</ele>
        <time>2024-07-31T07:36:46Z</time>
      </trkpt>
      <trkpt lat="47.25925" lon="6.12929">
        <ele>505.4</ele>
        <time>2024-07-31T07:36:47Z</time>
      </trkpt>
      <trkpt lat="47.25923" lon="6.12931">
        <ele>505.6</ele>
        <time>2024-07-31T07:36:48Z</time>
      </trkpt>
      <trkpt lat="47.25921" lon="6.12933">
        <ele>505.4</ele>
        <time>2024-07-31T07:36:49Z</time>
      </trkpt>
      <trkpt lat="47.25918" lon="6.12935">
        <ele>505.4</ele>
        <time>2024-07-31T07:36:50Z</time>
      </trkpt>
      <trkpt lat="47.25914" lon="6.12936">
        <ele>505.4</ele>
        <time>2024-07-31T07:36:51Z</time>
      </trkpt>
      <trkpt lat="47.25912" lon="6.12938">
        <ele>505.4</ele>
        <time>2024-07-31T07:36:52Z</time>
      </trkpt>
      <trkpt lat="47.25909" lon="6.12941">
        <ele>505.2</ele>
        <time>2024-07-31T07:36:53Z</time>
      </trkpt>
      <trkpt lat="47.25907" lon="6.12944">
        <ele>505.2</ele>
        <time>2024-07-31T07:36:54Z</time>
      </trkpt>
      <trkpt lat="47.25904" lon="6.12946">
        <ele>505</ele>
        <time>2024-07-31T07:36:55Z</time>
      </trkpt>
      <trkpt lat="47.259" lon="6.12948">
        <ele>504.8</ele>
        <time>2024-07-31T07:36:56Z</time>
      </trkpt>
      <trkpt lat="47.25896" lon="6.1295">
        <ele>504.8</ele>
        <time>2024-07-31T07:36:57Z</time>
      </trkpt>
      <trkpt lat="47.25892" lon="6.12952">
        <ele>505</ele>
        <time>2024-07-31T07:36:58Z</time>
      </trkpt>
      <trkpt lat="47.2589" lon="6.12954">
        <ele>504.4</ele>
        <time>2024-07-31T07:36:59Z</time>
      </trkpt>
      <trkpt lat="47.25887" lon="6.12956">
        <ele>504.4</ele>
        <time>2024-07-31T07:37:00Z</time>
      </trkpt>
      <trkpt lat="47.25884" lon="6.12958">
        <ele>503.8</ele>
        <time>2024-07-31T07:37:01Z</time>
      </trkpt>
      <trkpt lat="47.25881" lon="6.12961">
        <ele>503.4</ele>
        <time>2024-07-31T07:37:02Z</time>
      </trkpt>
      <trkpt lat="47.25876" lon="6.12963">
        <ele>503.4</ele>
        <time>2024-07-31T07:37:03Z</time>
      </trkpt>
      <trkpt lat="47.25872" lon="6.12967">
        <ele>503</ele>
        <time>2024-07-31T07:37:04Z</time>
      </trkpt>
      <trkpt lat="47.25869" lon="6.1297">
        <ele>502.2</ele>
        <time>2024-07-31T07:37:05Z</time>
      </trkpt>
      <trkpt lat="47.25864" lon="6.12974">
        <ele>502.4</ele>
        <time>2024-07-31T07:37:06Z</time>
      </trkpt>
      <trkpt lat="47.25859" lon="6.12976">
        <ele>501.6</ele>
        <time>2024-07-31T07:37:07Z</time>
      </trkpt>
      <trkpt lat="47.25854" lon="6.12979">
        <ele>501.8</ele>
        <time>2024-07-31T07:37:08Z</time>
      </trkpt>
      <trkpt lat="47.25849" lon="6.12982">
        <ele>500.8</ele>
        <time>2024-07-31T07:37:09Z</time>
      </trkpt>
      <trkpt lat="47.25845" lon="6.12986">
        <ele>500.4</ele>
        <time>2024-07-31T07:37:10Z</time>
      </trkpt>
      <trkpt lat="47.2584" lon="6.12989">
        <ele>499.8</ele>
        <time>2024-07-31T07:37:11Z</time>
      </trkpt>
      <trkpt lat="47.25837" lon="6.12992">
        <ele>499.4</ele>
        <time>2024-07-31T07:37:12Z</time>
      </trkpt>
      <trkpt lat="47.25832" lon="6.12995">
        <ele>500</ele>
        <time>2024-07-31T07:37:13Z</time>
      </trkpt>
      <trkpt lat="47.25828" lon="6.12998">
        <ele>498.6</ele>
        <time>2024-07-31T07:37:14Z</time>
      </trkpt>
      <trkpt lat="47.25823" lon="6.13001">
        <ele>497.6</ele>
        <time>2024-07-31T07:37:15Z</time>
      </trkpt>
      <trkpt lat="47.25818" lon="6.13005">
        <ele>497.6</ele>
        <time>2024-07-31T07:37:16Z</time>
      </trkpt>
      <trkpt lat="47.25813" lon="6.1301">
        <ele>497.2</ele>
        <time>2024-07-31T07:37:17Z</time>
      </trkpt>
      <trkpt lat="47.25807" lon="6.13014">
        <ele>496.6</ele>
        <time>2024-07-31T07:37:18Z</time>
      </trkpt>
      <trkpt lat="47.25801" lon="6.13019">
        <ele>496.2</ele>
        <time>2024-07-31T07:37:19Z</time>
      </trkpt>
      <trkpt lat="47.25796" lon="6.13023">
        <ele>495.4</ele>
        <time>2024-07-31T07:37:20Z</time>
      </trkpt>
      <trkpt lat="47.25792" lon="6.13027">
        <ele>494.8</ele>
        <time>2024-07-31T07:37:21Z</time>
      </trkpt>
      <trkpt lat="47.25788" lon="6.13031">
        <ele>494</ele>
        <time>2024-07-31T07:37:22Z</time>
      </trkpt>
      <trkpt lat="47.25784" lon="6.13035">
        <ele>493.2</ele>
        <time>2024-07-31T07:37:23Z</time>
      </trkpt>
      <trkpt lat="47.2578" lon="6.13039">
        <ele>492.8</ele>
        <time>2024-07-31T07:37:24Z</time>
      </trkpt>
      <trkpt lat="47.25776" lon="6.13042">
        <ele>492.4</ele>
        <time>2024-07-31T07:37:25Z</time>
      </trkpt>
      <trkpt lat="47.25771" lon="6.13046">
        <ele>491.2</ele>
        <time>2024-07-31T07:37:26Z</time>
      </trkpt>
      <trkpt lat="47.25767" lon="6.1305">
        <ele>490.4</ele>
        <time>2024-07-31T07:37:27Z</time>
      </trkpt>
      <trkpt lat="47.25763" lon="6.13053">
        <ele>489.2</ele>
        <time>2024-07-31T07:37:28Z</time>
      </trkpt>
      <trkpt lat="47.25757" lon="6.13056">
        <ele>487.8</ele>
        <time>2024-07-31T07:37:29Z</time>
      </trkpt>
      <trkpt lat="47.25751" lon="6.13061">
        <ele>487.6</ele>
        <time>2024-07-31T07:37:30Z</time>
      </trkpt>
      <trkpt lat="47.25743" lon="6.13066">
        <ele>487</ele>
        <time>2024-07-31T07:37:31Z</time>
      </trkpt>
      <trkpt lat="47.25736" lon="6.13072">
        <ele>486.4</ele>
        <time>2024-07-31T07:37:32Z</time>
      </trkpt>
      <trkpt lat="47.2573" lon="6.13077">
        <ele>485.8</ele>
        <time>2024-07-31T07:37:33Z</time>
      </trkpt>
      <trkpt lat="47.25725" lon="6.13083">
        <ele>486.2</ele>
        <time>2024-07-31T07:37:34Z</time>
      </trkpt>
      <trkpt lat="47.25719" lon="6.13087">
        <ele>486.8</ele>
        <time>2024-07-31T07:37:35Z</time>
      </trkpt>
      <trkpt lat="47.25715" lon="6.13091">
        <ele>486.4</ele>
        <time>2024-07-31T07:37:36Z</time>
      </trkpt>
      <trkpt lat="47.25711" lon="6.13094">
        <ele>486.2</ele>
        <time>2024-07-31T07:37:37Z</time>
      </trkpt>
      <trkpt lat="47.25707" lon="6.13097">
        <ele>486.2</ele>
        <time>2024-07-31T07:37:38Z</time>
      </trkpt>
      <trkpt lat="47.25702" lon="6.131">
        <ele>486.2</ele>
        <time>2024-07-31T07:37:39Z</time>
      </trkpt>
      <trkpt lat="47.25698" lon="6.13104">
        <ele>485.8</ele>
        <time>2024-07-31T07:37:40Z</time>
      </trkpt>
      <trkpt lat="47.25692" lon="6.13108">
        <ele>485.8</ele>
        <time>2024-07-31T07:37:41Z</time>
      </trkpt>
      <trkpt lat="47.25687" lon="6.13113">
        <ele>484.8</ele>
        <time>2024-07-31T07:37:42Z</time>
      </trkpt>
      <trkpt lat="47.2568" lon="6.13118">
        <ele>483.8</ele>
        <time>2024-07-31T07:37:43Z</time>
      </trkpt>
      <trkpt lat="47.25675" lon="6.13122">
        <ele>483.4</ele>
        <time>2024-07-31T07:37:44Z</time>
      </trkpt>
      <trkpt lat="47.2567" lon="6.13125">
        <ele>483.2</ele>
        <time>2024-07-31T07:37:45Z</time>
      </trkpt>
      <trkpt lat="47.25665" lon="6.13129">
        <ele>482.8</ele>
        <time>2024-07-31T07:37:46Z</time>
      </trkpt>
      <trkpt lat="47.2566" lon="6.13132">
        <ele>482</ele>
        <time>2024-07-31T07:37:47Z</time>
      </trkpt>
      <trkpt lat="47.25656" lon="6.13135">
        <ele>481.8</ele>
        <time>2024-07-31T07:37:48Z</time>
      </trkpt>
      <trkpt lat="47.25653" lon="6.13138">
        <ele>481.2</ele>
        <time>2024-07-31T07:37:49Z</time>
      </trkpt>
      <trkpt lat="47.2565" lon="6.1314">
        <ele>480.8</ele>
        <time>2024-07-31T07:37:50Z</time>
      </trkpt>
      <trkpt lat="47.25646" lon="6.13142">
        <ele>480.4</ele>
        <time>2024-07-31T07:37:51Z</time>
      </trkpt>
      <trkpt lat="47.25643" lon="6.13144">
        <ele>479.8</ele>
        <time>2024-07-31T07:37:52Z</time>
      </trkpt>
      <trkpt lat="47.2564" lon="6.13146">
        <ele>479.4</ele>
        <time>2024-07-31T07:37:53Z</time>
      </trkpt>
      <trkpt lat="47.25636" lon="6.13147">
        <ele>478.8</ele>
        <time>2024-07-31T07:37:54Z</time>
      </trkpt>
      <trkpt lat="47.25635" lon="6.13151">
        <ele>478.6</ele>
        <time>2024-07-31T07:37:55Z</time>
      </trkpt>
      <trkpt lat="47.25631" lon="6.13152">
        <ele>478.4</ele>
        <time>2024-07-31T07:37:56Z</time>
      </trkpt>
      <trkpt lat="47.2563" lon="6.13153">
        <ele>478.8</ele>
        <time>2024-07-31T07:37:57Z</time>
      </trkpt>
      <trkpt lat="47.25631" lon="6.13154">
        <ele>478.6</ele>
        <time>2024-07-31T07:37:58Z</time>
      </trkpt>
      <trkpt lat="47.25632" lon="6.13155">
        <ele>478.8</ele>
        <time>2024-07-31T07:37:59Z</time>
      </trkpt>
      <trkpt lat="47.25631" lon="6.13156">
        <ele>478.8</ele>
        <time>2024-07-31T07:38:00Z</time>
      </trkpt>
      <trkpt lat="47.25632" lon="6.13159">
        <ele>479.2</ele>
        <time>2024-07-31T07:38:01Z</time>
      </trkpt>
      <trkpt lat="47.25634" lon="6.13162">
        <ele>479.2</ele>
        <time>2024-07-31T07:38:02Z</time>
      </trkpt>
      <trkpt lat="47.25635" lon="6.13164">
        <ele>479.2</ele>
        <time>2024-07-31T07:38:03Z</time>
      </trkpt>
      <trkpt lat="47.25637" lon="6.13167">
        <ele>479.6</ele>
        <time>2024-07-31T07:38:04Z</time>
      </trkpt>
      <trkpt lat="47.25638" lon="6.13169">
        <ele>479.8</ele>
        <time>2024-07-31T07:38:05Z</time>
      </trkpt>
      <trkpt lat="47.2564" lon="6.13172">
        <ele>480.2</ele>
        <time>2024-07-31T07:38:06Z</time>
      </trkpt>
      <trkpt lat="47.25641" lon="6.13175">
        <ele>480.2</ele>
        <time>2024-07-31T07:38:07Z</time>
      </trkpt>
      <trkpt lat="47.25643" lon="6.13178">
        <ele>480.4</ele>
        <time>2024-07-31T07:38:08Z</time>
      </trkpt>
      <trkpt lat="47.25644" lon="6.1318">
        <ele>480.4</ele>
        <time>2024-07-31T07:38:09Z</time>
      </trkpt>
      <trkpt lat="47.25646" lon="6.13183">
        <ele>480.8</ele>
        <time>2024-07-31T07:38:10Z</time>
      </trkpt>
      <trkpt lat="47.25647" lon="6.13184">
        <ele>480.8</ele>
        <time>2024-07-31T07:38:11Z</time>
      </trkpt>
      <trkpt lat="47.25648" lon="6.13186">
        <ele>481</ele>
        <time>2024-07-31T07:38:12Z</time>
      </trkpt>
      <trkpt lat="47.2565" lon="6.13187">
        <ele>481.2</ele>
        <time>2024-07-31T07:38:13Z</time>
      </trkpt>
      <trkpt lat="47.25652" lon="6.13189">
        <ele>481.2</ele>
        <time>2024-07-31T07:38:14Z</time>
      </trkpt>
      <trkpt lat="47.25654" lon="6.1319">
        <ele>481.2</ele>
        <time>2024-07-31T07:38:15Z</time>
      </trkpt>
      <trkpt lat="47.25656" lon="6.13192">
        <ele>481.6</ele>
        <time>2024-07-31T07:38:16Z</time>
      </trkpt>
      <trkpt lat="47.25659" lon="6.13193">
        <ele>482</ele>
        <time>2024-07-31T07:38:17Z</time>
      </trkpt>
      <trkpt lat="47.25661" lon="6.13195">
        <ele>481.8</ele>
        <time>2024-07-31T07:38:18Z</time>
      </trkpt>
      <trkpt lat="47.25663" lon="6.13197">
        <ele>482.2</ele>
        <time>2024-07-31T07:38:19Z</time>
      </trkpt>
      <trkpt lat="47.25666" lon="6.13199">
        <ele>482.2</ele>
        <time>2024-07-31T07:38:20Z</time>
      </trkpt>
      <trkpt lat="47.25668" lon="6.132">
        <ele>482.6</ele>
        <time>2024-07-31T07:38:21Z</time>
      </trkpt>
      <trkpt lat="47.2567" lon="6.13201">
        <ele>482.6</ele>
        <time>2024-07-31T07:38:22Z</time>
      </trkpt>
      <trkpt lat="47.25672" lon="6.13203">
        <ele>482.8</ele>
        <time>2024-07-31T07:38:23Z</time>
      </trkpt>
      <trkpt lat="47.25674" lon="6.13205">
        <ele>483</ele>
        <time>2024-07-31T07:38:24Z</time>
      </trkpt>
      <trkpt lat="47.25676" lon="6.13207">
        <ele>483</ele>
        <time>2024-07-31T07:38:25Z</time>
      </trkpt>
      <trkpt lat="47.25678" lon="6.13209">
        <ele>483.2</ele>
        <time>2024-07-31T07:38:26Z</time>
      </trkpt>
      <trkpt lat="47.2568" lon="6.13211">
        <ele>483.6</ele>
        <time>2024-07-31T07:38:27Z</time>
      </trkpt>
      <trkpt lat="47.25682" lon="6.13213">
        <ele>483.6</ele>
        <time>2024-07-31T07:38:28Z</time>
      </trkpt>
      <trkpt lat="47.25684" lon="6.13216">
        <ele>483.6</ele>
        <time>2024-07-31T07:38:29Z</time>
      </trkpt>
      <trkpt lat="47.25686" lon="6.13219">
        <ele>483.8</ele>
        <time>2024-07-31T07:38:30Z</time>
      </trkpt>
      <trkpt lat="47.25688" lon="6.13221">
        <ele>484</ele>
        <time>2024-07-31T07:38:31Z</time>
      </trkpt>
      <trkpt lat="47.2569" lon="6.13224">
        <ele>484.4</ele>
        <time>2024-07-31T07:38:32Z</time>
      </trkpt>
      <trkpt lat="47.25691" lon="6.13228">
        <ele>484.6</ele>
        <time>2024-07-31T07:38:33Z</time>
      </trkpt>
      <trkpt lat="47.25692" lon="6.13231">
        <ele>484.4</ele>
        <time>2024-07-31T07:38:34Z</time>
      </trkpt>
      <trkpt lat="47.25694" lon="6.13234">
        <ele>484.6</ele>
        <time>2024-07-31T07:38:35Z</time>
      </trkpt>
      <trkpt lat="47.25695" lon="6.13236">
        <ele>484.6</ele>
        <time>2024-07-31T07:38:36Z</time>
      </trkpt>
      <trkpt lat="47.25697" lon="6.13239">
        <ele>484.8</ele>
        <time>2024-07-31T07:38:37Z</time>
      </trkpt>
      <trkpt lat="47.25699" lon="6.13242">
        <ele>484.8</ele>
        <time>2024-07-31T07:38:38Z</time>
      </trkpt>
      <trkpt lat="47.25701" lon="6.13245">
        <ele>485</ele>
        <time>2024-07-31T07:38:39Z</time>
      </trkpt>
      <trkpt lat="47.25703" lon="6.13248">
        <ele>485.2</ele>
        <time>2024-07-31T07:38:40Z</time>
      </trkpt>
      <trkpt lat="47.25705" lon="6.13252">
        <ele>485</ele>
        <time>2024-07-31T07:38:41Z</time>
      </trkpt>
      <trkpt lat="47.25707" lon="6.13256">
        <ele>485.2</ele>
        <time>2024-07-31T07:38:42Z</time>
      </trkpt>
      <trkpt lat="47.25709" lon="6.13259">
        <ele>485</ele>
        <time>2024-07-31T07:38:43Z</time>
      </trkpt>
      <trkpt lat="47.25711" lon="6.13263">
        <ele>485</ele>
        <time>2024-07-31T07:38:44Z</time>
      </trkpt>
      <trkpt lat="47.25713" lon="6.13266">
        <ele>485</ele>
        <time>2024-07-31T07:38:45Z</time>
      </trkpt>
      <trkpt lat="47.25714" lon="6.1327">
        <ele>485.2</ele>
        <time>2024-07-31T07:38:46Z</time>
      </trkpt>
      <trkpt lat="47.25716" lon="6.13273">
        <ele>485.6</ele>
        <time>2024-07-31T07:38:47Z</time>
      </trkpt>
      <trkpt lat="47.25718" lon="6.13275">
        <ele>485.8</ele>
        <time>2024-07-31T07:38:48Z</time>
      </trkpt>
      <trkpt lat="47.2572" lon="6.13278">
        <ele>486</ele>
        <time>2024-07-31T07:38:49Z</time>
      </trkpt>
      <trkpt lat="47.25722" lon="6.13281">
        <ele>486</ele>
        <time>2024-07-31T07:38:50Z</time>
      </trkpt>
      <trkpt lat="47.25724" lon="6.13284">
        <ele>486.2</ele>
        <time>2024-07-31T07:38:51Z</time>
      </trkpt>
      <trkpt lat="47.25725" lon="6.13287">
        <ele>486.2</ele>
        <time>2024-07-31T07:38:52Z</time>
      </trkpt>
      <trkpt lat="47.25728" lon="6.1329">
        <ele>486.6</ele>
        <time>2024-07-31T07:38:53Z</time>
      </trkpt>
      <trkpt lat="47.25729" lon="6.13293">
        <ele>486.8</ele>
        <time>2024-07-31T07:38:54Z</time>
      </trkpt>
      <trkpt lat="47.25731" lon="6.13296">
        <ele>486.6</ele>
        <time>2024-07-31T07:38:55Z</time>
      </trkpt>
      <trkpt lat="47.25733" lon="6.13299">
        <ele>487</ele>
        <time>2024-07-31T07:38:56Z</time>
      </trkpt>
      <trkpt lat="47.25736" lon="6.13302">
        <ele>487.2</ele>
        <time>2024-07-31T07:38:57Z</time>
      </trkpt>
      <trkpt lat="47.25738" lon="6.13305">
        <ele>487</ele>
        <time>2024-07-31T07:38:58Z</time>
      </trkpt>
      <trkpt lat="47.2574" lon="6.13308">
        <ele>487.2</ele>
        <time>2024-07-31T07:38:59Z</time>
      </trkpt>
      <trkpt lat="47.25742" lon="6.13311">
        <ele>487.4</ele>
        <time>2024-07-31T07:39:00Z</time>
      </trkpt>
      <trkpt lat="47.25744" lon="6.13314">
        <ele>487.8</ele>
        <time>2024-07-31T07:39:01Z</time>
      </trkpt>
      <trkpt lat="47.25746" lon="6.13317">
        <ele>487.8</ele>
        <time>2024-07-31T07:39:02Z</time>
      </trkpt>
      <trkpt lat="47.25748" lon="6.13319">
        <ele>487.6</ele>
        <time>2024-07-31T07:39:03Z</time>
      </trkpt>
      <trkpt lat="47.2575" lon="6.13322">
        <ele>487.8</ele>
        <time>2024-07-31T07:39:04Z</time>
      </trkpt>
      <trkpt lat="47.25752" lon="6.13325">
        <ele>487.8</ele>
        <time>2024-07-31T07:39:05Z</time>
      </trkpt>
      <trkpt lat="47.25754" lon="6.13327">
        <ele>488.4</ele>
        <time>2024-07-31T07:39:06Z</time>
      </trkpt>
      <trkpt lat="47.25756" lon="6.1333">
        <ele>488.8</ele>
        <time>2024-07-31T07:39:07Z</time>
      </trkpt>
      <trkpt lat="47.25758" lon="6.13332">
        <ele>488.6</ele>
        <time>2024-07-31T07:39:08Z</time>
      </trkpt>
      <trkpt lat="47.2576" lon="6.13334">
        <ele>489.2</ele>
        <time>2024-07-31T07:39:09Z</time>
      </trkpt>
      <trkpt lat="47.25762" lon="6.13337">
        <ele>489.2</ele>
        <time>2024-07-31T07:39:10Z</time>
      </trkpt>
      <trkpt lat="47.25764" lon="6.1334">
        <ele>489.4</ele>
        <time>2024-07-31T07:39:11Z</time>
      </trkpt>
      <trkpt lat="47.25766" lon="6.13343">
        <ele>489.4</ele>
        <time>2024-07-31T07:39:12Z</time>
      </trkpt>
      <trkpt lat="47.25768" lon="6.13346">
        <ele>489.4</ele>
        <time>2024-07-31T07:39:13Z</time>
      </trkpt>
      <trkpt lat="47.25769" lon="6.1335">
        <ele>489.6</ele>
        <time>2024-07-31T07:39:14Z</time>
      </trkpt>
      <trkpt lat="47.25771" lon="6.13353">
        <ele>489.8</ele>
        <time>2024-07-31T07:39:15Z</time>
      </trkpt>
      <trkpt lat="47.25772" lon="6.13357">
        <ele>489.8</ele>
        <time>2024-07-31T07:39:16Z</time>
      </trkpt>
      <trkpt lat="47.25774" lon="6.1336">
        <ele>490</ele>
        <time>2024-07-31T07:39:17Z</time>
      </trkpt>
      <trkpt lat="47.25775" lon="6.13364">
        <ele>490</ele>
        <time>2024-07-31T07:39:18Z</time>
      </trkpt>
      <trkpt lat="47.25777" lon="6.13368">
        <ele>490.2</ele>
        <time>2024-07-31T07:39:19Z</time>
      </trkpt>
      <trkpt lat="47.25778" lon="6.13371">
        <ele>490.2</ele>
        <time>2024-07-31T07:39:20Z</time>
      </trkpt>
      <trkpt lat="47.25779" lon="6.13375">
        <ele>490.2</ele>
        <time>2024-07-31T07:39:21Z</time>
      </trkpt>
      <trkpt lat="47.2578" lon="6.13379">
        <ele>490.4</ele>
        <time>2024-07-31T07:39:22Z</time>
      </trkpt>
      <trkpt lat="47.25781" lon="6.13383">
        <ele>490.6</ele>
        <time>2024-07-31T07:39:23Z</time>
      </trkpt>
      <trkpt lat="47.25782" lon="6.13387">
        <ele>490.6</ele>
        <time>2024-07-31T07:39:24Z</time>
      </trkpt>
      <trkpt lat="47.25783" lon="6.13391">
        <ele>490.6</ele>
        <time>2024-07-31T07:39:25Z</time>
      </trkpt>
      <trkpt lat="47.25784" lon="6.13395">
        <ele>490.8</ele>
        <time>2024-07-31T07:39:26Z</time>
      </trkpt>
      <trkpt lat="47.25785" lon="6.134">
        <ele>491</ele>
        <time>2024-07-31T07:39:27Z</time>
      </trkpt>
      <trkpt lat="47.25786" lon="6.13404">
        <ele>491</ele>
        <time>2024-07-31T07:39:28Z</time>
      </trkpt>
      <trkpt lat="47.25787" lon="6.13408">
        <ele>490.8</ele>
        <time>2024-07-31T07:39:29Z</time>
      </trkpt>
      <trkpt lat="47.25788" lon="6.13412">
        <ele>490.8</ele>
        <time>2024-07-31T07:39:30Z</time>
      </trkpt>
      <trkpt lat="47.25789" lon="6.13417">
        <ele>491</ele>
        <time>2024-07-31T07:39:31Z</time>
      </trkpt>
      <trkpt lat="47.2579" lon="6.13421">
        <ele>491</ele>
        <time>2024-07-31T07:39:32Z</time>
      </trkpt>
      <trkpt lat="47.25791" lon="6.13425">
        <ele>491.2</ele>
        <time>2024-07-31T07:39:33Z</time>
      </trkpt>
      <trkpt lat="47.25792" lon="6.13429">
        <ele>491.2</ele>
        <time>2024-07-31T07:39:34Z</time>
      </trkpt>
      <trkpt lat="47.25793" lon="6.13433">
        <ele>491.2</ele>
        <time>2024-07-31T07:39:35Z</time>
      </trkpt>
      <trkpt lat="47.25794" lon="6.13436">
        <ele>491.2</ele>
        <time>2024-07-31T07:39:36Z</time>
      </trkpt>
      <trkpt lat="47.25796" lon="6.1344">
        <ele>491.8</ele>
        <time>2024-07-31T07:39:37Z</time>
      </trkpt>
      <trkpt lat="47.25797" lon="6.13443">
        <ele>491.8</ele>
        <time>2024-07-31T07:39:38Z</time>
      </trkpt>
      <trkpt lat="47.25799" lon="6.13446">
        <ele>492.2</ele>
        <time>2024-07-31T07:39:39Z</time>
      </trkpt>
      <trkpt lat="47.258" lon="6.13448">
        <ele>492.4</ele>
        <time>2024-07-31T07:39:40Z</time>
      </trkpt>
      <trkpt lat="47.25801" lon="6.13451">
        <ele>492.2</ele>
        <time>2024-07-31T07:39:41Z</time>
      </trkpt>
      <trkpt lat="47.25803" lon="6.13454">
        <ele>492.6</ele>
        <time>2024-07-31T07:39:42Z</time>
      </trkpt>
      <trkpt lat="47.25804" lon="6.13458">
        <ele>492.6</ele>
        <time>2024-07-31T07:39:43Z</time>
      </trkpt>
      <trkpt lat="47.25805" lon="6.13461">
        <ele>492.8</ele>
        <time>2024-07-31T07:39:44Z</time>
      </trkpt>
      <trkpt lat="47.25806" lon="6.13464">
        <ele>492.8</ele>
        <time>2024-07-31T07:39:45Z</time>
      </trkpt>
      <trkpt lat="47.25807" lon="6.13468">
        <ele>493.2</ele>
        <time>2024-07-31T07:39:46Z</time>
      </trkpt>
      <trkpt lat="47.25809" lon="6.13471">
        <ele>493.2</ele>
        <time>2024-07-31T07:39:47Z</time>
      </trkpt>
      <trkpt lat="47.2581" lon="6.13474">
        <ele>493.4</ele>
        <time>2024-07-31T07:39:48Z</time>
      </trkpt>
      <trkpt lat="47.25811" lon="6.13477">
        <ele>493.4</ele>
        <time>2024-07-31T07:39:49Z</time>
      </trkpt>
      <trkpt lat="47.25812" lon="6.1348">
        <ele>493.2</ele>
        <time>2024-07-31T07:39:50Z</time>
      </trkpt>
      <trkpt lat="47.25812" lon="6.13484">
        <ele>493.4</ele>
        <time>2024-07-31T07:39:51Z</time>
      </trkpt>
      <trkpt lat="47.25813" lon="6.13487">
        <ele>493.4</ele>
        <time>2024-07-31T07:39:52Z</time>
      </trkpt>
      <trkpt lat="47.25814" lon="6.1349">
        <ele>493.8</ele>
        <time>2024-07-31T07:39:53Z</time>
      </trkpt>
      <trkpt lat="47.25815" lon="6.13494">
        <ele>494</ele>
        <time>2024-07-31T07:39:54Z</time>
      </trkpt>
      <trkpt lat="47.25817" lon="6.13497">
        <ele>494</ele>
        <time>2024-07-31T07:39:55Z</time>
      </trkpt>
      <trkpt lat="47.25818" lon="6.135">
        <ele>494.2</ele>
        <time>2024-07-31T07:39:56Z</time>
      </trkpt>
      <trkpt lat="47.2582" lon="6.13504">
        <ele>494.6</ele>
        <time>2024-07-31T07:39:57Z</time>
      </trkpt>
      <trkpt lat="47.25821" lon="6.13507">
        <ele>494.8</ele>
        <time>2024-07-31T07:39:58Z</time>
      </trkpt>
      <trkpt lat="47.25823" lon="6.13509">
        <ele>495</ele>
        <time>2024-07-31T07:39:59Z</time>
      </trkpt>
      <trkpt lat="47.25824" lon="6.13512">
        <ele>495.4</ele>
        <time>2024-07-31T07:40:00Z</time>
      </trkpt>
      <trkpt lat="47.25826" lon="6.13514">
        <ele>495.6</ele>
        <time>2024-07-31T07:40:01Z</time>
      </trkpt>
      <trkpt lat="47.25827" lon="6.13517">
        <ele>495.6</ele>
        <time>2024-07-31T07:40:02Z</time>
      </trkpt>
      <trkpt lat="47.25829" lon="6.13519">
        <ele>496</ele>
        <time>2024-07-31T07:40:03Z</time>
      </trkpt>
      <trkpt lat="47.2583" lon="6.13522">
        <ele>496.4</ele>
        <time>2024-07-31T07:40:04Z</time>
      </trkpt>
      <trkpt lat="47.25831" lon="6.13525">
        <ele>496.8</ele>
        <time>2024-07-31T07:40:05Z</time>
      </trkpt>
      <trkpt lat="47.25833" lon="6.13527">
        <ele>497.2</ele>
        <time>2024-07-31T07:40:06Z</time>
      </trkpt>
      <trkpt lat="47.25834" lon="6.13529">
        <ele>497.2</ele>
        <time>2024-07-31T07:40:07Z</time>
      </trkpt>
      <trkpt lat="47.25835" lon="6.13533">
        <ele>497.4</ele>
        <time>2024-07-31T07:40:08Z</time>
      </trkpt>
      <trkpt lat="47.25837" lon="6.13536">
        <ele>497.6</ele>
        <time>2024-07-31T07:40:09Z</time>
      </trkpt>
      <trkpt lat="47.25838" lon="6.1354">
        <ele>498</ele>
        <time>2024-07-31T07:40:10Z</time>
      </trkpt>
      <trkpt lat="47.2584" lon="6.13543">
        <ele>498.4</ele>
        <time>2024-07-31T07:40:11Z</time>
      </trkpt>
      <trkpt lat="47.25841" lon="6.13546">
        <ele>498.4</ele>
        <time>2024-07-31T07:40:12Z</time>
      </trkpt>
      <trkpt lat="47.25842" lon="6.1355">
        <ele>498.8</ele>
        <time>2024-07-31T07:40:13Z</time>
      </trkpt>
      <trkpt lat="47.25843" lon="6.13553">
        <ele>499.2</ele>
        <time>2024-07-31T07:40:14Z</time>
      </trkpt>
      <trkpt lat="47.25844" lon="6.13555">
        <ele>499</ele>
        <time>2024-07-31T07:40:15Z</time>
      </trkpt>
      <trkpt lat="47.25845" lon="6.13558">
        <ele>499.4</ele>
        <time>2024-07-31T07:40:16Z</time>
      </trkpt>
      <trkpt lat="47.25846" lon="6.1356">
        <ele>499.8</ele>
        <time>2024-07-31T07:40:17Z</time>
      </trkpt>
      <trkpt lat="47.25848" lon="6.13562">
        <ele>500</ele>
        <time>2024-07-31T07:40:18Z</time>
      </trkpt>
      <trkpt lat="47.2585" lon="6.13565">
        <ele>499.8</ele>
        <time>2024-07-31T07:40:19Z</time>
      </trkpt>
      <trkpt lat="47.25851" lon="6.13568">
        <ele>500</ele>
        <time>2024-07-31T07:40:20Z</time>
      </trkpt>
      <trkpt lat="47.25852" lon="6.13571">
        <ele>500.4</ele>
        <time>2024-07-31T07:40:21Z</time>
      </trkpt>
      <trkpt lat="47.25853" lon="6.13573">
        <ele>500.6</ele>
        <time>2024-07-31T07:40:22Z</time>
      </trkpt>
      <trkpt lat="47.25854" lon="6.13575">
        <ele>500.8</ele>
        <time>2024-07-31T07:40:23Z</time>
      </trkpt>
      <trkpt lat="47.25855" lon="6.13578">
        <ele>500.8</ele>
        <time>2024-07-31T07:40:24Z</time>
      </trkpt>
      <trkpt lat="47.25857" lon="6.13582">
        <ele>500.8</ele>
        <time>2024-07-31T07:40:25Z</time>
      </trkpt>
      <trkpt lat="47.25858" lon="6.13585">
        <ele>501</ele>
        <time>2024-07-31T07:40:26Z</time>
      </trkpt>
      <trkpt lat="47.25859" lon="6.13588">
        <ele>501</ele>
        <time>2024-07-31T07:40:27Z</time>
      </trkpt>
      <trkpt lat="47.2586" lon="6.13592">
        <ele>501.2</ele>
        <time>2024-07-31T07:40:28Z</time>
      </trkpt>
      <trkpt lat="47.25861" lon="6.13595">
        <ele>501.2</ele>
        <time>2024-07-31T07:40:29Z</time>
      </trkpt>
      <trkpt lat="47.25862" lon="6.13598">
        <ele>501.2</ele>
        <time>2024-07-31T07:40:30Z</time>
      </trkpt>
      <trkpt lat="47.25863" lon="6.13601">
        <ele>501.6</ele>
        <time>2024-07-31T07:40:31Z</time>
      </trkpt>
      <trkpt lat="47.25864" lon="6.13604">
        <ele>501.8</ele>
        <time>2024-07-31T07:40:32Z</time>
      </trkpt>
      <trkpt lat="47.25866" lon="6.13607">
        <ele>501.8</ele>
        <time>2024-07-31T07:40:33Z</time>
      </trkpt>
      <trkpt lat="47.25867" lon="6.1361">
        <ele>502</ele>
        <time>2024-07-31T07:40:34Z</time>
      </trkpt>
      <trkpt lat="47.25869" lon="6.13612">
        <ele>502</ele>
        <time>2024-07-31T07:40:35Z</time>
      </trkpt>
      <trkpt lat="47.2587" lon="6.13615">
        <ele>502.2</ele>
        <time>2024-07-31T07:40:36Z</time>
      </trkpt>
      <trkpt lat="47.25872" lon="6.13618">
        <ele>502.2</ele>
        <time>2024-07-31T07:40:37Z</time>
      </trkpt>
      <trkpt lat="47.25874" lon="6.13621">
        <ele>502.4</ele>
        <time>2024-07-31T07:40:38Z</time>
      </trkpt>
      <trkpt lat="47.25875" lon="6.13623">
        <ele>502.6</ele>
        <time>2024-07-31T07:40:39Z</time>
      </trkpt>
      <trkpt lat="47.25877" lon="6.13626">
        <ele>502.6</ele>
        <time>2024-07-31T07:40:40Z</time>
      </trkpt>
      <trkpt lat="47.25879" lon="6.13629">
        <ele>502.6</ele>
        <time>2024-07-31T07:40:41Z</time>
      </trkpt>
      <trkpt lat="47.25881" lon="6.13633">
        <ele>502.8</ele>
        <time>2024-07-31T07:40:42Z</time>
      </trkpt>
      <trkpt lat="47.25883" lon="6.13636">
        <ele>502.8</ele>
        <time>2024-07-31T07:40:43Z</time>
      </trkpt>
      <trkpt lat="47.25885" lon="6.13639">
        <ele>503</ele>
        <time>2024-07-31T07:40:44Z</time>
      </trkpt>
      <trkpt lat="47.25887" lon="6.13643">
        <ele>503.2</ele>
        <time>2024-07-31T07:40:45Z</time>
      </trkpt>
      <trkpt lat="47.25888" lon="6.13647">
        <ele>503.2</ele>
        <time>2024-07-31T07:40:46Z</time>
      </trkpt>
      <trkpt lat="47.2589" lon="6.13651">
        <ele>503.2</ele>
        <time>2024-07-31T07:40:47Z</time>
      </trkpt>
      <trkpt lat="47.25892" lon="6.13654">
        <ele>503.4</ele>
        <time>2024-07-31T07:40:48Z</time>
      </trkpt>
      <trkpt lat="47.25894" lon="6.13658">
        <ele>503.2</ele>
        <time>2024-07-31T07:40:49Z</time>
      </trkpt>
      <trkpt lat="47.25896" lon="6.13662">
        <ele>503.6</ele>
        <time>2024-07-31T07:40:50Z</time>
      </trkpt>
      <trkpt lat="47.25897" lon="6.13666">
        <ele>503.6</ele>
        <time>2024-07-31T07:40:51Z</time>
      </trkpt>
      <trkpt lat="47.25899" lon="6.1367">
        <ele>503.8</ele>
        <time>2024-07-31T07:40:52Z</time>
      </trkpt>
      <trkpt lat="47.259" lon="6.13673">
        <ele>503.6</ele>
        <time>2024-07-31T07:40:53Z</time>
      </trkpt>
      <trkpt lat="47.25901" lon="6.13677">
        <ele>503.8</ele>
        <time>2024-07-31T07:40:54Z</time>
      </trkpt>
      <trkpt lat="47.25903" lon="6.1368">
        <ele>503.8</ele>
        <time>2024-07-31T07:40:55Z</time>
      </trkpt>
      <trkpt lat="47.25903" lon="6.13684">
        <ele>504</ele>
        <time>2024-07-31T07:40:56Z</time>
      </trkpt>
      <trkpt lat="47.25904" lon="6.13687">
        <ele>504</ele>
        <time>2024-07-31T07:40:57Z</time>
      </trkpt>
      <trkpt lat="47.25905" lon="6.13692">
        <ele>504.2</ele>
        <time>2024-07-31T07:40:58Z</time>
      </trkpt>
      <trkpt lat="47.25905" lon="6.13696">
        <ele>504.4</ele>
        <time>2024-07-31T07:40:59Z</time>
      </trkpt>
      <trkpt lat="47.25906" lon="6.137">
        <ele>504.6</ele>
        <time>2024-07-31T07:41:00Z</time>
      </trkpt>
      <trkpt lat="47.25906" lon="6.13704">
        <ele>504.8</ele>
        <time>2024-07-31T07:41:01Z</time>
      </trkpt>
      <trkpt lat="47.25906" lon="6.13708">
        <ele>505</ele>
        <time>2024-07-31T07:41:02Z</time>
      </trkpt>
      <trkpt lat="47.25906" lon="6.13712">
        <ele>505</ele>
        <time>2024-07-31T07:41:03Z</time>
      </trkpt>
      <trkpt lat="47.25907" lon="6.13715">
        <ele>505.2</ele>
        <time>2024-07-31T07:41:04Z</time>
      </trkpt>
      <trkpt lat="47.25907" lon="6.13718">
        <ele>504.8</ele>
        <time>2024-07-31T07:41:05Z</time>
      </trkpt>
      <trkpt lat="47.25908" lon="6.13721">
        <ele>505</ele>
        <time>2024-07-31T07:41:06Z</time>
      </trkpt>
      <trkpt lat="47.25909" lon="6.13725">
        <ele>504.8</ele>
        <time>2024-07-31T07:41:07Z</time>
      </trkpt>
      <trkpt lat="47.25909" lon="6.13729">
        <ele>504.8</ele>
        <time>2024-07-31T07:41:08Z</time>
      </trkpt>
      <trkpt lat="47.2591" lon="6.13733">
        <ele>504.8</ele>
        <time>2024-07-31T07:41:09Z</time>
      </trkpt>
      <trkpt lat="47.2591" lon="6.13737">
        <ele>505</ele>
        <time>2024-07-31T07:41:10Z</time>
      </trkpt>
      <trkpt lat="47.25911" lon="6.1374">
        <ele>505</ele>
        <time>2024-07-31T07:41:11Z</time>
      </trkpt>
      <trkpt lat="47.25912" lon="6.13745">
        <ele>504.8</ele>
        <time>2024-07-31T07:41:12Z</time>
      </trkpt>
      <trkpt lat="47.25913" lon="6.13749">
        <ele>504.8</ele>
        <time>2024-07-31T07:41:13Z</time>
      </trkpt>
      <trkpt lat="47.25913" lon="6.13753">
        <ele>505</ele>
        <time>2024-07-31T07:41:14Z</time>
      </trkpt>
      <trkpt lat="47.25914" lon="6.13757">
        <ele>505.2</ele>
        <time>2024-07-31T07:41:15Z</time>
      </trkpt>
      <trkpt lat="47.25915" lon="6.13761">
        <ele>505.2</ele>
        <time>2024-07-31T07:41:16Z</time>
      </trkpt>
      <trkpt lat="47.25915" lon="6.13765">
        <ele>505.2</ele>
        <time>2024-07-31T07:41:17Z</time>
      </trkpt>
      <trkpt lat="47.25915" lon="6.1377">
        <ele>505.2</ele>
        <time>2024-07-31T07:41:18Z</time>
      </trkpt>
      <trkpt lat="47.25916" lon="6.13775">
        <ele>505</ele>
        <time>2024-07-31T07:41:19Z</time>
      </trkpt>
      <trkpt lat="47.25917" lon="6.13779">
        <ele>504.8</ele>
        <time>2024-07-31T07:41:20Z</time>
      </trkpt>
      <trkpt lat="47.25919" lon="6.13783">
        <ele>504.8</ele>
        <time>2024-07-31T07:41:21Z</time>
      </trkpt>
      <trkpt lat="47.25922" lon="6.13787">
        <ele>504.8</ele>
        <time>2024-07-31T07:41:22Z</time>
      </trkpt>
      <trkpt lat="47.25924" lon="6.13793">
        <ele>504.6</ele>
        <time>2024-07-31T07:41:23Z</time>
      </trkpt>
      <trkpt lat="47.25926" lon="6.13799">
        <ele>504.6</ele>
        <time>2024-07-31T07:41:24Z</time>
      </trkpt>
      <trkpt lat="47.25928" lon="6.13804">
        <ele>504.8</ele>
        <time>2024-07-31T07:41:25Z</time>
      </trkpt>
      <trkpt lat="47.2593" lon="6.13808">
        <ele>504.8</ele>
        <time>2024-07-31T07:41:26Z</time>
      </trkpt>
      <trkpt lat="47.25931" lon="6.13812">
        <ele>505</ele>
        <time>2024-07-31T07:41:27Z</time>
      </trkpt>
      <trkpt lat="47.25934" lon="6.13816">
        <ele>505.6</ele>
        <time>2024-07-31T07:41:28Z</time>
      </trkpt>
      <trkpt lat="47.25937" lon="6.13819">
        <ele>505.2</ele>
        <time>2024-07-31T07:41:29Z</time>
      </trkpt>
      <trkpt lat="47.25941" lon="6.13822">
        <ele>505.8</ele>
        <time>2024-07-31T07:41:30Z</time>
      </trkpt>
      <trkpt lat="47.25944" lon="6.13825">
        <ele>506.2</ele>
        <time>2024-07-31T07:41:31Z</time>
      </trkpt>
      <trkpt lat="47.25946" lon="6.13827">
        <ele>506.8</ele>
        <time>2024-07-31T07:41:32Z</time>
      </trkpt>
      <trkpt lat="47.25948" lon="6.1383">
        <ele>506.6</ele>
        <time>2024-07-31T07:41:33Z</time>
      </trkpt>
      <trkpt lat="47.2595" lon="6.13832">
        <ele>507</ele>
        <time>2024-07-31T07:41:34Z</time>
      </trkpt>
      <trkpt lat="47.25952" lon="6.13835">
        <ele>507.2</ele>
        <time>2024-07-31T07:41:35Z</time>
      </trkpt>
      <trkpt lat="47.25955" lon="6.13838">
        <ele>507.2</ele>
        <time>2024-07-31T07:41:36Z</time>
      </trkpt>
      <trkpt lat="47.25956" lon="6.1384">
        <ele>507.4</ele>
        <time>2024-07-31T07:41:37Z</time>
      </trkpt>
      <trkpt lat="47.25958" lon="6.13842">
        <ele>507.4</ele>
        <time>2024-07-31T07:41:38Z</time>
      </trkpt>
      <trkpt lat="47.2596" lon="6.13843">
        <ele>507.4</ele>
        <time>2024-07-31T07:41:39Z</time>
      </trkpt>
      <trkpt lat="47.25961" lon="6.13845">
        <ele>507.4</ele>
        <time>2024-07-31T07:41:40Z</time>
      </trkpt>
      <trkpt lat="47.25962" lon="6.13846">
        <ele>507.8</ele>
        <time>2024-07-31T07:41:41Z</time>
      </trkpt>
      <trkpt lat="47.25964" lon="6.13848">
        <ele>507.8</ele>
        <time>2024-07-31T07:41:42Z</time>
      </trkpt>
      <trkpt lat="47.25965" lon="6.13852">
        <ele>508</ele>
        <time>2024-07-31T07:41:43Z</time>
      </trkpt>
      <trkpt lat="47.25967" lon="6.13854">
        <ele>508.2</ele>
        <time>2024-07-31T07:41:44Z</time>
      </trkpt>
      <trkpt lat="47.25968" lon="6.13857">
        <ele>508.4</ele>
        <time>2024-07-31T07:41:45Z</time>
      </trkpt>
      <trkpt lat="47.2597" lon="6.13861">
        <ele>508.8</ele>
        <time>2024-07-31T07:41:46Z</time>
      </trkpt>
      <trkpt lat="47.25971" lon="6.13864">
        <ele>509</ele>
        <time>2024-07-31T07:41:47Z</time>
      </trkpt>
      <trkpt lat="47.25972" lon="6.13868">
        <ele>509</ele>
        <time>2024-07-31T07:41:48Z</time>
      </trkpt>
      <trkpt lat="47.25973" lon="6.13871">
        <ele>509.4</ele>
        <time>2024-07-31T07:41:49Z</time>
      </trkpt>
      <trkpt lat="47.25973" lon="6.13874">
        <ele>509.6</ele>
        <time>2024-07-31T07:41:50Z</time>
      </trkpt>
      <trkpt lat="47.25974" lon="6.13876">
        <ele>509.6</ele>
        <time>2024-07-31T07:41:51Z</time>
      </trkpt>
      <trkpt lat="47.25975" lon="6.13879">
        <ele>509.8</ele>
        <time>2024-07-31T07:41:52Z</time>
      </trkpt>
      <trkpt lat="47.25976" lon="6.13882">
        <ele>510.2</ele>
        <time>2024-07-31T07:41:53Z</time>
      </trkpt>
      <trkpt lat="47.25977" lon="6.13885">
        <ele>510.4</ele>
        <time>2024-07-31T07:41:54Z</time>
      </trkpt>
      <trkpt lat="47.25978" lon="6.13888">
        <ele>510.2</ele>
        <time>2024-07-31T07:41:55Z</time>
      </trkpt>
      <trkpt lat="47.25978" lon="6.1389">
        <ele>510.4</ele>
        <time>2024-07-31T07:41:56Z</time>
      </trkpt>
      <trkpt lat="47.25979" lon="6.13892">
        <ele>510</ele>
        <time>2024-07-31T07:41:57Z</time>
      </trkpt>
      <trkpt lat="47.2598" lon="6.13894">
        <ele>510.4</ele>
        <time>2024-07-31T07:41:58Z</time>
      </trkpt>
      <trkpt lat="47.25981" lon="6.13897">
        <ele>510.6</ele>
        <time>2024-07-31T07:41:59Z</time>
      </trkpt>
      <trkpt lat="47.25982" lon="6.139">
        <ele>510.4</ele>
        <time>2024-07-31T07:42:00Z</time>
      </trkpt>
      <trkpt lat="47.25983" lon="6.13903">
        <ele>510.6</ele>
        <time>2024-07-31T07:42:01Z</time>
      </trkpt>
      <trkpt lat="47.25984" lon="6.13907">
        <ele>510.6</ele>
        <time>2024-07-31T07:42:02Z</time>
      </trkpt>
      <trkpt lat="47.25985" lon="6.1391">
        <ele>511</ele>
        <time>2024-07-31T07:42:03Z</time>
      </trkpt>
      <trkpt lat="47.25987" lon="6.13913">
        <ele>510.8</ele>
        <time>2024-07-31T07:42:04Z</time>
      </trkpt>
      <trkpt lat="47.25988" lon="6.13915">
        <ele>511.2</ele>
        <time>2024-07-31T07:42:05Z</time>
      </trkpt>
      <trkpt lat="47.25989" lon="6.13919">
        <ele>511.2</ele>
        <time>2024-07-31T07:42:06Z</time>
      </trkpt>
      <trkpt lat="47.2599" lon="6.13922">
        <ele>511.4</ele>
        <time>2024-07-31T07:42:07Z</time>
      </trkpt>
      <trkpt lat="47.2599" lon="6.13925">
        <ele>511.6</ele>
        <time>2024-07-31T07:42:08Z</time>
      </trkpt>
      <trkpt lat="47.25991" lon="6.13929">
        <ele>511.8</ele>
        <time>2024-07-31T07:42:09Z</time>
      </trkpt>
      <trkpt lat="47.25991" lon="6.13932">
        <ele>511.6</ele>
        <time>2024-07-31T07:42:10Z</time>
      </trkpt>
      <trkpt lat="47.25992" lon="6.13935">
        <ele>511.8</ele>
        <time>2024-07-31T07:42:11Z</time>
      </trkpt>
      <trkpt lat="47.25993" lon="6.13939">
        <ele>511.8</ele>
        <time>2024-07-31T07:42:12Z</time>
      </trkpt>
      <trkpt lat="47.25994" lon="6.13943">
        <ele>512</ele>
        <time>2024-07-31T07:42:13Z</time>
      </trkpt>
      <trkpt lat="47.25994" lon="6.13947">
        <ele>511.8</ele>
        <time>2024-07-31T07:42:14Z</time>
      </trkpt>
      <trkpt lat="47.25994" lon="6.13951">
        <ele>511.6</ele>
        <time>2024-07-31T07:42:15Z</time>
      </trkpt>
      <trkpt lat="47.25994" lon="6.13955">
        <ele>511.8</ele>
        <time>2024-07-31T07:42:16Z</time>
      </trkpt>
      <trkpt lat="47.25995" lon="6.13959">
        <ele>512</ele>
        <time>2024-07-31T07:42:17Z</time>
      </trkpt>
      <trkpt lat="47.25995" lon="6.13963">
        <ele>512.2</ele>
        <time>2024-07-31T07:42:18Z</time>
      </trkpt>
      <trkpt lat="47.25996" lon="6.13966">
        <ele>512.4</ele>
        <time>2024-07-31T07:42:19Z</time>
      </trkpt>
      <trkpt lat="47.25996" lon="6.1397">
        <ele>512.4</ele>
        <time>2024-07-31T07:42:20Z</time>
      </trkpt>
      <trkpt lat="47.25997" lon="6.13974">
        <ele>512.6</ele>
        <time>2024-07-31T07:42:21Z</time>
      </trkpt>
      <trkpt lat="47.25997" lon="6.13978">
        <ele>512.6</ele>
        <time>2024-07-31T07:42:22Z</time>
      </trkpt>
      <trkpt lat="47.25998" lon="6.13982">
        <ele>512.6</ele>
        <time>2024-07-31T07:42:23Z</time>
      </trkpt>
      <trkpt lat="47.26002" lon="6.13986">
        <ele>512.6</ele>
        <time>2024-07-31T07:42:24Z</time>
      </trkpt>
      <trkpt lat="47.26002" lon="6.1399">
        <ele>513</ele>
        <time>2024-07-31T07:42:25Z</time>
      </trkpt>
      <trkpt lat="47.26002" lon="6.13994">
        <ele>513.4</ele>
        <time>2024-07-31T07:42:26Z</time>
      </trkpt>
      <trkpt lat="47.26003" lon="6.13999">
        <ele>513.2</ele>
        <time>2024-07-31T07:42:27Z</time>
      </trkpt>
      <trkpt lat="47.26004" lon="6.14005">
        <ele>513</ele>
        <time>2024-07-31T07:42:28Z</time>
      </trkpt>
      <trkpt lat="47.26004" lon="6.14011">
        <ele>513.2</ele>
        <time>2024-07-31T07:42:29Z</time>
      </trkpt>
      <trkpt lat="47.26004" lon="6.14016">
        <ele>513.4</ele>
        <time>2024-07-31T07:42:30Z</time>
      </trkpt>
      <trkpt lat="47.26004" lon="6.14021">
        <ele>513</ele>
        <time>2024-07-31T07:42:31Z</time>
      </trkpt>
      <trkpt lat="47.26004" lon="6.14026">
        <ele>513.4</ele>
        <time>2024-07-31T07:42:32Z</time>
      </trkpt>
      <trkpt lat="47.26004" lon="6.14031">
        <ele>513.6</ele>
        <time>2024-07-31T07:42:33Z</time>
      </trkpt>
      <trkpt lat="47.26005" lon="6.14036">
        <ele>513.2</ele>
        <time>2024-07-31T07:42:34Z</time>
      </trkpt>
      <trkpt lat="47.26006" lon="6.1404">
        <ele>513.6</ele>
        <time>2024-07-31T07:42:35Z</time>
      </trkpt>
      <trkpt lat="47.26006" lon="6.14044">
        <ele>513.4</ele>
        <time>2024-07-31T07:42:36Z</time>
      </trkpt>
      <trkpt lat="47.26008" lon="6.14048">
        <ele>513.6</ele>
        <time>2024-07-31T07:42:37Z</time>
      </trkpt>
      <trkpt lat="47.26009" lon="6.14053">
        <ele>513.6</ele>
        <time>2024-07-31T07:42:38Z</time>
      </trkpt>
      <trkpt lat="47.26009" lon="6.14057">
        <ele>514</ele>
        <time>2024-07-31T07:42:39Z</time>
      </trkpt>
      <trkpt lat="47.2601" lon="6.14062">
        <ele>514</ele>
        <time>2024-07-31T07:42:40Z</time>
      </trkpt>
      <trkpt lat="47.26011" lon="6.14066">
        <ele>514.2</ele>
        <time>2024-07-31T07:42:41Z</time>
      </trkpt>
      <trkpt lat="47.26012" lon="6.1407">
        <ele>514.2</ele>
        <time>2024-07-31T07:42:42Z</time>
      </trkpt>
      <trkpt lat="47.26013" lon="6.14074">
        <ele>514.4</ele>
        <time>2024-07-31T07:42:43Z</time>
      </trkpt>
      <trkpt lat="47.26014" lon="6.14078">
        <ele>514.4</ele>
        <time>2024-07-31T07:42:44Z</time>
      </trkpt>
      <trkpt lat="47.26015" lon="6.14082">
        <ele>514.6</ele>
        <time>2024-07-31T07:42:45Z</time>
      </trkpt>
      <trkpt lat="47.26015" lon="6.14086">
        <ele>514.6</ele>
        <time>2024-07-31T07:42:46Z</time>
      </trkpt>
      <trkpt lat="47.26016" lon="6.1409">
        <ele>515</ele>
        <time>2024-07-31T07:42:47Z</time>
      </trkpt>
      <trkpt lat="47.26016" lon="6.14096">
        <ele>515</ele>
        <time>2024-07-31T07:42:48Z</time>
      </trkpt>
      <trkpt lat="47.26017" lon="6.141">
        <ele>515</ele>
        <time>2024-07-31T07:42:49Z</time>
      </trkpt>
      <trkpt lat="47.26018" lon="6.14105">
        <ele>515</ele>
        <time>2024-07-31T07:42:50Z</time>
      </trkpt>
      <trkpt lat="47.26019" lon="6.1411">
        <ele>515.2</ele>
        <time>2024-07-31T07:42:51Z</time>
      </trkpt>
      <trkpt lat="47.26019" lon="6.14114">
        <ele>515.2</ele>
        <time>2024-07-31T07:42:52Z</time>
      </trkpt>
      <trkpt lat="47.2602" lon="6.14118">
        <ele>515.4</ele>
        <time>2024-07-31T07:42:53Z</time>
      </trkpt>
      <trkpt lat="47.2602" lon="6.14123">
        <ele>515.4</ele>
        <time>2024-07-31T07:42:54Z</time>
      </trkpt>
      <trkpt lat="47.26021" lon="6.14127">
        <ele>515.4</ele>
        <time>2024-07-31T07:42:55Z</time>
      </trkpt>
      <trkpt lat="47.26022" lon="6.1413">
        <ele>515.8</ele>
        <time>2024-07-31T07:42:56Z</time>
      </trkpt>
      <trkpt lat="47.26023" lon="6.14134">
        <ele>516</ele>
        <time>2024-07-31T07:42:57Z</time>
      </trkpt>
      <trkpt lat="47.26024" lon="6.14138">
        <ele>515.4</ele>
        <time>2024-07-31T07:42:58Z</time>
      </trkpt>
      <trkpt lat="47.26025" lon="6.14141">
        <ele>515.6</ele>
        <time>2024-07-31T07:42:59Z</time>
      </trkpt>
      <trkpt lat="47.26027" lon="6.14145">
        <ele>515.8</ele>
        <time>2024-07-31T07:43:00Z</time>
      </trkpt>
      <trkpt lat="47.26029" lon="6.1415">
        <ele>516</ele>
        <time>2024-07-31T07:43:01Z</time>
      </trkpt>
      <trkpt lat="47.26033" lon="6.14154">
        <ele>516</ele>
        <time>2024-07-31T07:43:02Z</time>
      </trkpt>
      <trkpt lat="47.26035" lon="6.14159">
        <ele>516.2</ele>
        <time>2024-07-31T07:43:03Z</time>
      </trkpt>
      <trkpt lat="47.26037" lon="6.14163">
        <ele>516.6</ele>
        <time>2024-07-31T07:43:04Z</time>
      </trkpt>
      <trkpt lat="47.26041" lon="6.14166">
        <ele>516.6</ele>
        <time>2024-07-31T07:43:05Z</time>
      </trkpt>
      <trkpt lat="47.26044" lon="6.1417">
        <ele>516.8</ele>
        <time>2024-07-31T07:43:06Z</time>
      </trkpt>
      <trkpt lat="47.26048" lon="6.14173">
        <ele>516.6</ele>
        <time>2024-07-31T07:43:07Z</time>
      </trkpt>
      <trkpt lat="47.2605" lon="6.14177">
        <ele>516.6</ele>
        <time>2024-07-31T07:43:08Z</time>
      </trkpt>
      <trkpt lat="47.26052" lon="6.14181">
        <ele>516.2</ele>
        <time>2024-07-31T07:43:09Z</time>
      </trkpt>
      <trkpt lat="47.26055" lon="6.14186">
        <ele>516.2</ele>
        <time>2024-07-31T07:43:10Z</time>
      </trkpt>
      <trkpt lat="47.26058" lon="6.14191">
        <ele>516</ele>
        <time>2024-07-31T07:43:11Z</time>
      </trkpt>
      <trkpt lat="47.26061" lon="6.14196">
        <ele>515.6</ele>
        <time>2024-07-31T07:43:12Z</time>
      </trkpt>
      <trkpt lat="47.26063" lon="6.14202">
        <ele>515.4</ele>
        <time>2024-07-31T07:43:13Z</time>
      </trkpt>
      <trkpt lat="47.26066" lon="6.14206">
        <ele>516.2</ele>
        <time>2024-07-31T07:43:14Z</time>
      </trkpt>
      <trkpt lat="47.26068" lon="6.1421">
        <ele>516.8</ele>
        <time>2024-07-31T07:43:15Z</time>
      </trkpt>
      <trkpt lat="47.2607" lon="6.14214">
        <ele>516.2</ele>
        <time>2024-07-31T07:43:16Z</time>
      </trkpt>
      <trkpt lat="47.26071" lon="6.14217">
        <ele>516.8</ele>
        <time>2024-07-31T07:43:17Z</time>
      </trkpt>
      <trkpt lat="47.26071" lon="6.1422">
        <ele>516.6</ele>
        <time>2024-07-31T07:43:18Z</time>
      </trkpt>
      <trkpt lat="47.26072" lon="6.14223">
        <ele>517.8</ele>
        <time>2024-07-31T07:43:19Z</time>
      </trkpt>
      <trkpt lat="47.26074" lon="6.14226">
        <ele>517.8</ele>
        <time>2024-07-31T07:43:20Z</time>
      </trkpt>
      <trkpt lat="47.26075" lon="6.1423">
        <ele>517.2</ele>
        <time>2024-07-31T07:43:21Z</time>
      </trkpt>
      <trkpt lat="47.26076" lon="6.14233">
        <ele>517.6</ele>
        <time>2024-07-31T07:43:22Z</time>
      </trkpt>
      <trkpt lat="47.26077" lon="6.14237">
        <ele>518</ele>
        <time>2024-07-31T07:43:23Z</time>
      </trkpt>
      <trkpt lat="47.26078" lon="6.14242">
        <ele>517.8</ele>
        <time>2024-07-31T07:43:24Z</time>
      </trkpt>
      <trkpt lat="47.26079" lon="6.14245">
        <ele>518</ele>
        <time>2024-07-31T07:43:25Z</time>
      </trkpt>
      <trkpt lat="47.26081" lon="6.14249">
        <ele>517.6</ele>
        <time>2024-07-31T07:43:26Z</time>
      </trkpt>
      <trkpt lat="47.26083" lon="6.14252">
        <ele>517.4</ele>
        <time>2024-07-31T07:43:27Z</time>
      </trkpt>
      <trkpt lat="47.26083" lon="6.14256">
        <ele>517.6</ele>
        <time>2024-07-31T07:43:28Z</time>
      </trkpt>
      <trkpt lat="47.26084" lon="6.14259">
        <ele>517.8</ele>
        <time>2024-07-31T07:43:29Z</time>
      </trkpt>
      <trkpt lat="47.26085" lon="6.14263">
        <ele>517.8</ele>
        <time>2024-07-31T07:43:30Z</time>
      </trkpt>
      <trkpt lat="47.26085" lon="6.14267">
        <ele>518.2</ele>
        <time>2024-07-31T07:43:31Z</time>
      </trkpt>
      <trkpt lat="47.26086" lon="6.14272">
        <ele>517.4</ele>
        <time>2024-07-31T07:43:32Z</time>
      </trkpt>
      <trkpt lat="47.26086" lon="6.14278">
        <ele>517.4</ele>
        <time>2024-07-31T07:43:33Z</time>
      </trkpt>
      <trkpt lat="47.26086" lon="6.14283">
        <ele>517.2</ele>
        <time>2024-07-31T07:43:34Z</time>
      </trkpt>
      <trkpt lat="47.26086" lon="6.14288">
        <ele>517.2</ele>
        <time>2024-07-31T07:43:35Z</time>
      </trkpt>
      <trkpt lat="47.26085" lon="6.14293">
        <ele>517.4</ele>
        <time>2024-07-31T07:43:36Z</time>
      </trkpt>
      <trkpt lat="47.26085" lon="6.14299">
        <ele>517</ele>
        <time>2024-07-31T07:43:37Z</time>
      </trkpt>
      <trkpt lat="47.26084" lon="6.14304">
        <ele>517</ele>
        <time>2024-07-31T07:43:38Z</time>
      </trkpt>
      <trkpt lat="47.26083" lon="6.14309">
        <ele>517.4</ele>
        <time>2024-07-31T07:43:39Z</time>
      </trkpt>
      <trkpt lat="47.26083" lon="6.14314">
        <ele>516.6</ele>
        <time>2024-07-31T07:43:40Z</time>
      </trkpt>
      <trkpt lat="47.26084" lon="6.14319">
        <ele>516.4</ele>
        <time>2024-07-31T07:43:41Z</time>
      </trkpt>
      <trkpt lat="47.26084" lon="6.14325">
        <ele>516.2</ele>
        <time>2024-07-31T07:43:42Z</time>
      </trkpt>
      <trkpt lat="47.26083" lon="6.14332">
        <ele>516</ele>
        <time>2024-07-31T07:43:43Z</time>
      </trkpt>
      <trkpt lat="47.26082" lon="6.14339">
        <ele>515.6</ele>
        <time>2024-07-31T07:43:44Z</time>
      </trkpt>
      <trkpt lat="47.26082" lon="6.14347">
        <ele>514.6</ele>
        <time>2024-07-31T07:43:45Z</time>
      </trkpt>
      <trkpt lat="47.26082" lon="6.14354">
        <ele>514.2</ele>
        <time>2024-07-31T07:43:46Z</time>
      </trkpt>
      <trkpt lat="47.26081" lon="6.14363">
        <ele>514</ele>
        <time>2024-07-31T07:43:47Z</time>
      </trkpt>
      <trkpt lat="47.2608" lon="6.14371">
        <ele>513</ele>
        <time>2024-07-31T07:43:48Z</time>
      </trkpt>
      <trkpt lat="47.2608" lon="6.14379">
        <ele>512.4</ele>
        <time>2024-07-31T07:43:49Z</time>
      </trkpt>
      <trkpt lat="47.26079" lon="6.14386">
        <ele>512.2</ele>
        <time>2024-07-31T07:43:50Z</time>
      </trkpt>
      <trkpt lat="47.26079" lon="6.14393">
        <ele>512.2</ele>
        <time>2024-07-31T07:43:51Z</time>
      </trkpt>
      <trkpt lat="47.26079" lon="6.14399">
        <ele>512.2</ele>
        <time>2024-07-31T07:43:52Z</time>
      </trkpt>
      <trkpt lat="47.26079" lon="6.14405">
        <ele>512</ele>
        <time>2024-07-31T07:43:53Z</time>
      </trkpt>
      <trkpt lat="47.26079" lon="6.14411">
        <ele>511.6</ele>
        <time>2024-07-31T07:43:54Z</time>
      </trkpt>
      <trkpt lat="47.2608" lon="6.14416">
        <ele>511.4</ele>
        <time>2024-07-31T07:43:55Z</time>
      </trkpt>
      <trkpt lat="47.26082" lon="6.14422">
        <ele>511.6</ele>
        <time>2024-07-31T07:43:56Z</time>
      </trkpt>
      <trkpt lat="47.26083" lon="6.14427">
        <ele>511.6</ele>
        <time>2024-07-31T07:43:57Z</time>
      </trkpt>
      <trkpt lat="47.26084" lon="6.14432">
        <ele>511.4</ele>
        <time>2024-07-31T07:43:58Z</time>
      </trkpt>
      <trkpt lat="47.26085" lon="6.14438">
        <ele>511</ele>
        <time>2024-07-31T07:43:59Z</time>
      </trkpt>
      <trkpt lat="47.26087" lon="6.14443">
        <ele>511.2</ele>
        <time>2024-07-31T07:44:00Z</time>
      </trkpt>
      <trkpt lat="47.26087" lon="6.14446">
        <ele>511</ele>
        <time>2024-07-31T07:44:01Z</time>
      </trkpt>
      <trkpt lat="47.26088" lon="6.14449">
        <ele>511</ele>
        <time>2024-07-31T07:44:02Z</time>
      </trkpt>
      <trkpt lat="47.26089" lon="6.14453">
        <ele>511.2</ele>
        <time>2024-07-31T07:44:03Z</time>
      </trkpt>
      <trkpt lat="47.2609" lon="6.14457">
        <ele>511</ele>
        <time>2024-07-31T07:44:04Z</time>
      </trkpt>
      <trkpt lat="47.26089" lon="6.14462">
        <ele>511</ele>
        <time>2024-07-31T07:44:05Z</time>
      </trkpt>
      <trkpt lat="47.26087" lon="6.14468">
        <ele>510.6</ele>
        <time>2024-07-31T07:44:06Z</time>
      </trkpt>
      <trkpt lat="47.26086" lon="6.14474">
        <ele>510</ele>
        <time>2024-07-31T07:44:07Z</time>
      </trkpt>
      <trkpt lat="47.26083" lon="6.14478">
        <ele>509.2</ele>
        <time>2024-07-31T07:44:08Z</time>
      </trkpt>
      <trkpt lat="47.26079" lon="6.14482">
        <ele>508.6</ele>
        <time>2024-07-31T07:44:09Z</time>
      </trkpt>
      <trkpt lat="47.26076" lon="6.14486">
        <ele>507.8</ele>
        <time>2024-07-31T07:44:10Z</time>
      </trkpt>
      <trkpt lat="47.26072" lon="6.1449">
        <ele>507.2</ele>
        <time>2024-07-31T07:44:11Z</time>
      </trkpt>
      <trkpt lat="47.26068" lon="6.14494">
        <ele>506.4</ele>
        <time>2024-07-31T07:44:12Z</time>
      </trkpt>
      <trkpt lat="47.26064" lon="6.14498">
        <ele>505.6</ele>
        <time>2024-07-31T07:44:13Z</time>
      </trkpt>
      <trkpt lat="47.26061" lon="6.14502">
        <ele>505.6</ele>
        <time>2024-07-31T07:44:14Z</time>
      </trkpt>
      <trkpt lat="47.26058" lon="6.14505">
        <ele>505</ele>
        <time>2024-07-31T07:44:15Z</time>
      </trkpt>
      <trkpt lat="47.26055" lon="6.14509">
        <ele>504.6</ele>
        <time>2024-07-31T07:44:16Z</time>
      </trkpt>
      <trkpt lat="47.26052" lon="6.14512">
        <ele>503.6</ele>
        <time>2024-07-31T07:44:17Z</time>
      </trkpt>
      <trkpt lat="47.2605" lon="6.14516">
        <ele>503.2</ele>
        <time>2024-07-31T07:44:18Z</time>
      </trkpt>
      <trkpt lat="47.26048" lon="6.14521">
        <ele>503.4</ele>
        <time>2024-07-31T07:44:19Z</time>
      </trkpt>
      <trkpt lat="47.26048" lon="6.14527">
        <ele>502.6</ele>
        <time>2024-07-31T07:44:20Z</time>
      </trkpt>
      <trkpt lat="47.26048" lon="6.14533">
        <ele>502.6</ele>
        <time>2024-07-31T07:44:21Z</time>
      </trkpt>
      <trkpt lat="47.26047" lon="6.14539">
        <ele>502.6</ele>
        <time>2024-07-31T07:44:22Z</time>
      </trkpt>
      <trkpt lat="47.26047" lon="6.14546">
        <ele>502.2</ele>
        <time>2024-07-31T07:44:23Z</time>
      </trkpt>
      <trkpt lat="47.26046" lon="6.14553">
        <ele>502</ele>
        <time>2024-07-31T07:44:24Z</time>
      </trkpt>
      <trkpt lat="47.26046" lon="6.1456">
        <ele>501.8</ele>
        <time>2024-07-31T07:44:25Z</time>
      </trkpt>
      <trkpt lat="47.26045" lon="6.14567">
        <ele>501.2</ele>
        <time>2024-07-31T07:44:26Z</time>
      </trkpt>
      <trkpt lat="47.26044" lon="6.14574">
        <ele>500.6</ele>
        <time>2024-07-31T07:44:27Z</time>
      </trkpt>
      <trkpt lat="47.26043" lon="6.14581">
        <ele>500.4</ele>
        <time>2024-07-31T07:44:28Z</time>
      </trkpt>
      <trkpt lat="47.26042" lon="6.14588">
        <ele>500.4</ele>
        <time>2024-07-31T07:44:29Z</time>
      </trkpt>
      <trkpt lat="47.26042" lon="6.14596">
        <ele>499.6</ele>
        <time>2024-07-31T07:44:30Z</time>
      </trkpt>
      <trkpt lat="47.26041" lon="6.14603">
        <ele>499.4</ele>
        <time>2024-07-31T07:44:31Z</time>
      </trkpt>
      <trkpt lat="47.26041" lon="6.14611">
        <ele>499.2</ele>
        <time>2024-07-31T07:44:32Z</time>
      </trkpt>
      <trkpt lat="47.26038" lon="6.14618">
        <ele>498.4</ele>
        <time>2024-07-31T07:44:33Z</time>
      </trkpt>
      <trkpt lat="47.26035" lon="6.14626">
        <ele>497.8</ele>
        <time>2024-07-31T07:44:34Z</time>
      </trkpt>
      <trkpt lat="47.26032" lon="6.14634">
        <ele>497.4</ele>
        <time>2024-07-31T07:44:35Z</time>
      </trkpt>
      <trkpt lat="47.26029" lon="6.14642">
        <ele>497.4</ele>
        <time>2024-07-31T07:44:36Z</time>
      </trkpt>
      <trkpt lat="47.26026" lon="6.14651">
        <ele>496.4</ele>
        <time>2024-07-31T07:44:37Z</time>
      </trkpt>
      <trkpt lat="47.26024" lon="6.14659">
        <ele>495.4</ele>
        <time>2024-07-31T07:44:38Z</time>
      </trkpt>
      <trkpt lat="47.26022" lon="6.14666">
        <ele>494.6</ele>
        <time>2024-07-31T07:44:39Z</time>
      </trkpt>
      <trkpt lat="47.2602" lon="6.14674">
        <ele>493.8</ele>
        <time>2024-07-31T07:44:40Z</time>
      </trkpt>
      <trkpt lat="47.26018" lon="6.14681">
        <ele>493.4</ele>
        <time>2024-07-31T07:44:41Z</time>
      </trkpt>
      <trkpt lat="47.26016" lon="6.1469">
        <ele>491.8</ele>
        <time>2024-07-31T07:44:42Z</time>
      </trkpt>
      <trkpt lat="47.26015" lon="6.14698">
        <ele>492</ele>
        <time>2024-07-31T07:44:43Z</time>
      </trkpt>
      <trkpt lat="47.26014" lon="6.14707">
        <ele>490.4</ele>
        <time>2024-07-31T07:44:44Z</time>
      </trkpt>
      <trkpt lat="47.26012" lon="6.14716">
        <ele>490.2</ele>
        <time>2024-07-31T07:44:45Z</time>
      </trkpt>
      <trkpt lat="47.26011" lon="6.14725">
        <ele>489.8</ele>
        <time>2024-07-31T07:44:46Z</time>
      </trkpt>
      <trkpt lat="47.26009" lon="6.14734">
        <ele>489.4</ele>
        <time>2024-07-31T07:44:47Z</time>
      </trkpt>
      <trkpt lat="47.26007" lon="6.14742">
        <ele>489</ele>
        <time>2024-07-31T07:44:48Z</time>
      </trkpt>
      <trkpt lat="47.26006" lon="6.14748">
        <ele>488.6</ele>
        <time>2024-07-31T07:44:49Z</time>
      </trkpt>
      <trkpt lat="47.26004" lon="6.14754">
        <ele>488.4</ele>
        <time>2024-07-31T07:44:50Z</time>
      </trkpt>
      <trkpt lat="47.26003" lon="6.14759">
        <ele>488.4</ele>
        <time>2024-07-31T07:44:51Z</time>
      </trkpt>
      <trkpt lat="47.26002" lon="6.14766">
        <ele>488.4</ele>
        <time>2024-07-31T07:44:52Z</time>
      </trkpt>
      <trkpt lat="47.26002" lon="6.14772">
        <ele>488</ele>
        <time>2024-07-31T07:44:53Z</time>
      </trkpt>
      <trkpt lat="47.26002" lon="6.14778">
        <ele>488.2</ele>
        <time>2024-07-31T07:44:54Z</time>
      </trkpt>
      <trkpt lat="47.26002" lon="6.14784">
        <ele>488</ele>
        <time>2024-07-31T07:44:55Z</time>
      </trkpt>
      <trkpt lat="47.26003" lon="6.14791">
        <ele>488</ele>
        <time>2024-07-31T07:44:56Z</time>
      </trkpt>
      <trkpt lat="47.26004" lon="6.14797">
        <ele>488</ele>
        <time>2024-07-31T07:44:57Z</time>
      </trkpt>
      <trkpt lat="47.26004" lon="6.14803">
        <ele>488</ele>
        <time>2024-07-31T07:44:58Z</time>
      </trkpt>
      <trkpt lat="47.26005" lon="6.14809">
        <ele>487.8</ele>
        <time>2024-07-31T07:44:59Z</time>
      </trkpt>
      <trkpt lat="47.26006" lon="6.14815">
        <ele>487.8</ele>
        <time>2024-07-31T07:45:00Z</time>
      </trkpt>
      <trkpt lat="47.26006" lon="6.14822">
        <ele>488</ele>
        <time>2024-07-31T07:45:01Z</time>
      </trkpt>
      <trkpt lat="47.26007" lon="6.14829">
        <ele>487.8</ele>
        <time>2024-07-31T07:45:02Z</time>
      </trkpt>
      <trkpt lat="47.26007" lon="6.14837">
        <ele>487.6</ele>
        <time>2024-07-31T07:45:03Z</time>
      </trkpt>
      <trkpt lat="47.26008" lon="6.14845">
        <ele>487.4</ele>
        <time>2024-07-31T07:45:04Z</time>
      </trkpt>
      <trkpt lat="47.26009" lon="6.14853">
        <ele>487.4</ele>
        <time>2024-07-31T07:45:05Z</time>
      </trkpt>
      <trkpt lat="47.2601" lon="6.1486">
        <ele>487.2</ele>
        <time>2024-07-31T07:45:06Z</time>
      </trkpt>
      <trkpt lat="47.26011" lon="6.14868">
        <ele>487</ele>
        <time>2024-07-31T07:45:07Z</time>
      </trkpt>
      <trkpt lat="47.26012" lon="6.14875">
        <ele>487</ele>
        <time>2024-07-31T07:45:08Z</time>
      </trkpt>
      <trkpt lat="47.26013" lon="6.14883">
        <ele>486.8</ele>
        <time>2024-07-31T07:45:09Z</time>
      </trkpt>
      <trkpt lat="47.26013" lon="6.1489">
        <ele>486.6</ele>
        <time>2024-07-31T07:45:10Z</time>
      </trkpt>
      <trkpt lat="47.26015" lon="6.14898">
        <ele>486.8</ele>
        <time>2024-07-31T07:45:11Z</time>
      </trkpt>
      <trkpt lat="47.26016" lon="6.14905">
        <ele>486.6</ele>
        <time>2024-07-31T07:45:12Z</time>
      </trkpt>
      <trkpt lat="47.26017" lon="6.14912">
        <ele>486.6</ele>
        <time>2024-07-31T07:45:13Z</time>
      </trkpt>
      <trkpt lat="47.26018" lon="6.1492">
        <ele>486.2</ele>
        <time>2024-07-31T07:45:14Z</time>
      </trkpt>
      <trkpt lat="47.26019" lon="6.14927">
        <ele>486</ele>
        <time>2024-07-31T07:45:15Z</time>
      </trkpt>
      <trkpt lat="47.2602" lon="6.14934">
        <ele>485.8</ele>
        <time>2024-07-31T07:45:16Z</time>
      </trkpt>
      <trkpt lat="47.26021" lon="6.14941">
        <ele>486.2</ele>
        <time>2024-07-31T07:45:17Z</time>
      </trkpt>
      <trkpt lat="47.26022" lon="6.14949">
        <ele>485.6</ele>
        <time>2024-07-31T07:45:18Z</time>
      </trkpt>
      <trkpt lat="47.26023" lon="6.14956">
        <ele>485.4</ele>
        <time>2024-07-31T07:45:19Z</time>
      </trkpt>
      <trkpt lat="47.26023" lon="6.14964">
        <ele>485.4</ele>
        <time>2024-07-31T07:45:20Z</time>
      </trkpt>
      <trkpt lat="47.26024" lon="6.1497">
        <ele>485.2</ele>
        <time>2024-07-31T07:45:21Z</time>
      </trkpt>
      <trkpt lat="47.26025" lon="6.14977">
        <ele>485</ele>
        <time>2024-07-31T07:45:22Z</time>
      </trkpt>
      <trkpt lat="47.26025" lon="6.14983">
        <ele>484.8</ele>
        <time>2024-07-31T07:45:23Z</time>
      </trkpt>
      <trkpt lat="47.26026" lon="6.14989">
        <ele>484.2</ele>
        <time>2024-07-31T07:45:24Z</time>
      </trkpt>
      <trkpt lat="47.26027" lon="6.14995">
        <ele>484</ele>
        <time>2024-07-31T07:45:25Z</time>
      </trkpt>
      <trkpt lat="47.26027" lon="6.15">
        <ele>483.8</ele>
        <time>2024-07-31T07:45:26Z</time>
      </trkpt>
      <trkpt lat="47.26028" lon="6.15004">
        <ele>483.4</ele>
        <time>2024-07-31T07:45:27Z</time>
      </trkpt>
      <trkpt lat="47.26028" lon="6.15006">
        <ele>483.2</ele>
        <time>2024-07-31T07:45:28Z</time>
      </trkpt>
      <trkpt lat="47.26028" lon="6.15007">
        <ele>483.2</ele>
        <time>2024-07-31T07:45:29Z</time>
      </trkpt>
      <trkpt lat="47.26028" lon="6.15007">
        <ele>483.2</ele>
        <time>2024-07-31T07:45:30Z</time>
      </trkpt>
      <trkpt lat="47.26028" lon="6.15007">
        <ele>483</ele>
        <time>2024-07-31T07:45:31Z</time>
      </trkpt>
      <trkpt lat="47.26027" lon="6.15007">
        <ele>483.2</ele>
        <time>2024-07-31T07:45:32Z</time>
      </trkpt>
      <trkpt lat="47.26025" lon="6.15008">
        <ele>483</ele>
        <time>2024-07-31T07:45:33Z</time>
      </trkpt>
      <trkpt lat="47.26023" lon="6.15008">
        <ele>482.6</ele>
        <time>2024-07-31T07:45:34Z</time>
      </trkpt>
      <trkpt lat="47.2602" lon="6.15009">
        <ele>482.2</ele>
        <time>2024-07-31T07:45:35Z</time>
      </trkpt>
      <trkpt lat="47.26017" lon="6.1501">
        <ele>481.6</ele>
        <time>2024-07-31T07:45:36Z</time>
      </trkpt>
      <trkpt lat="47.26014" lon="6.15012">
        <ele>481</ele>
        <time>2024-07-31T07:45:37Z</time>
      </trkpt>
      <trkpt lat="47.26011" lon="6.15013">
        <ele>480.2</ele>
        <time>2024-07-31T07:45:38Z</time>
      </trkpt>
      <trkpt lat="47.26008" lon="6.15014">
        <ele>479.8</ele>
        <time>2024-07-31T07:45:39Z</time>
      </trkpt>
      <trkpt lat="47.26005" lon="6.15015">
        <ele>479.2</ele>
        <time>2024-07-31T07:45:40Z</time>
      </trkpt>
      <trkpt lat="47.26002" lon="6.15016">
        <ele>478.6</ele>
        <time>2024-07-31T07:45:41Z</time>
      </trkpt>
      <trkpt lat="47.26" lon="6.15016">
        <ele>478.6</ele>
        <time>2024-07-31T07:45:42Z</time>
      </trkpt>
      <trkpt lat="47.25997" lon="6.15017">
        <ele>478.2</ele>
        <time>2024-07-31T07:45:43Z</time>
      </trkpt>
      <trkpt lat="47.25994" lon="6.15018">
        <ele>477.8</ele>
        <time>2024-07-31T07:45:44Z</time>
      </trkpt>
      <trkpt lat="47.25991" lon="6.15019">
        <ele>477</ele>
        <time>2024-07-31T07:45:45Z</time>
      </trkpt>
      <trkpt lat="47.25988" lon="6.15021">
        <ele>476.6</ele>
        <time>2024-07-31T07:45:46Z</time>
      </trkpt>
      <trkpt lat="47.25986" lon="6.15022">
        <ele>476</ele>
        <time>2024-07-31T07:45:47Z</time>
      </trkpt>
      <trkpt lat="47.25983" lon="6.15024">
        <ele>475.4</ele>
        <time>2024-07-31T07:45:48Z</time>
      </trkpt>
      <trkpt lat="47.2598" lon="6.15025">
        <ele>474.6</ele>
        <time>2024-07-31T07:45:49Z</time>
      </trkpt>
      <trkpt lat="47.25977" lon="6.15027">
        <ele>474.2</ele>
        <time>2024-07-31T07:45:50Z</time>
      </trkpt>
      <trkpt lat="47.25974" lon="6.15028">
        <ele>473.6</ele>
        <time>2024-07-31T07:45:51Z</time>
      </trkpt>
      <trkpt lat="47.25971" lon="6.15029">
        <ele>473.4</ele>
        <time>2024-07-31T07:45:52Z</time>
      </trkpt>
      <trkpt lat="47.25968" lon="6.15029">
        <ele>472.6</ele>
        <time>2024-07-31T07:45:53Z</time>
      </trkpt>
      <trkpt lat="47.25965" lon="6.1503">
        <ele>471.6</ele>
        <time>2024-07-31T07:45:54Z</time>
      </trkpt>
      <trkpt lat="47.25961" lon="6.15031">
        <ele>471.2</ele>
        <time>2024-07-31T07:45:55Z</time>
      </trkpt>
      <trkpt lat="47.25958" lon="6.15033">
        <ele>470.2</ele>
        <time>2024-07-31T07:45:56Z</time>
      </trkpt>
      <trkpt lat="47.25955" lon="6.15034">
        <ele>469.6</ele>
        <time>2024-07-31T07:45:57Z</time>
      </trkpt>
      <trkpt lat="47.25952" lon="6.15036">
        <ele>468.8</ele>
        <time>2024-07-31T07:45:58Z</time>
      </trkpt>
      <trkpt lat="47.2595" lon="6.15037">
        <ele>468.2</ele>
        <time>2024-07-31T07:45:59Z</time>
      </trkpt>
      <trkpt lat="47.25947" lon="6.15038">
        <ele>467.8</ele>
        <time>2024-07-31T07:46:00Z</time>
      </trkpt>
      <trkpt lat="47.25945" lon="6.15039">
        <ele>467.2</ele>
        <time>2024-07-31T07:46:01Z</time>
      </trkpt>
      <trkpt lat="47.25942" lon="6.1504">
        <ele>466.4</ele>
        <time>2024-07-31T07:46:02Z</time>
      </trkpt>
      <trkpt lat="47.25939" lon="6.15041">
        <ele>466.4</ele>
        <time>2024-07-31T07:46:03Z</time>
      </trkpt>
      <trkpt lat="47.25937" lon="6.15042">
        <ele>466</ele>
        <time>2024-07-31T07:46:04Z</time>
      </trkpt>
      <trkpt lat="47.25934" lon="6.15043">
        <ele>465.4</ele>
        <time>2024-07-31T07:46:05Z</time>
      </trkpt>
      <trkpt lat="47.25932" lon="6.15044">
        <ele>464.8</ele>
        <time>2024-07-31T07:46:06Z</time>
      </trkpt>
      <trkpt lat="47.2593" lon="6.15045">
        <ele>464.2</ele>
        <time>2024-07-31T07:46:07Z</time>
      </trkpt>
      <trkpt lat="47.25927" lon="6.15046">
        <ele>463.6</ele>
        <time>2024-07-31T07:46:08Z</time>
      </trkpt>
      <trkpt lat="47.25924" lon="6.15047">
        <ele>462.8</ele>
        <time>2024-07-31T07:46:09Z</time>
      </trkpt>
      <trkpt lat="47.25922" lon="6.15049">
        <ele>461.8</ele>
        <time>2024-07-31T07:46:10Z</time>
      </trkpt>
      <trkpt lat="47.25919" lon="6.1505">
        <ele>461</ele>
        <time>2024-07-31T07:46:11Z</time>
      </trkpt>
      <trkpt lat="47.25916" lon="6.15052">
        <ele>460.4</ele>
        <time>2024-07-31T07:46:12Z</time>
      </trkpt>
      <trkpt lat="47.25913" lon="6.15053">
        <ele>459.8</ele>
        <time>2024-07-31T07:46:13Z</time>
      </trkpt>
      <trkpt lat="47.2591" lon="6.15054">
        <ele>459</ele>
        <time>2024-07-31T07:46:14Z</time>
      </trkpt>
      <trkpt lat="47.25907" lon="6.15056">
        <ele>458</ele>
        <time>2024-07-31T07:46:15Z</time>
      </trkpt>
      <trkpt lat="47.25905" lon="6.15057">
        <ele>457.4</ele>
        <time>2024-07-31T07:46:16Z</time>
      </trkpt>
      <trkpt lat="47.25902" lon="6.15058">
        <ele>456.2</ele>
        <time>2024-07-31T07:46:17Z</time>
      </trkpt>
      <trkpt lat="47.259" lon="6.15059">
        <ele>455.4</ele>
        <time>2024-07-31T07:46:18Z</time>
      </trkpt>
      <trkpt lat="47.25898" lon="6.1506">
        <ele>454.2</ele>
        <time>2024-07-31T07:46:19Z</time>
      </trkpt>
      <trkpt lat="47.25895" lon="6.15061">
        <ele>453.8</ele>
        <time>2024-07-31T07:46:20Z</time>
      </trkpt>
      <trkpt lat="47.25892" lon="6.15063">
        <ele>452.4</ele>
        <time>2024-07-31T07:46:21Z</time>
      </trkpt>
      <trkpt lat="47.25889" lon="6.15064">
        <ele>451.2</ele>
        <time>2024-07-31T07:46:22Z</time>
      </trkpt>
      <trkpt lat="47.25886" lon="6.15066">
        <ele>450</ele>
        <time>2024-07-31T07:46:23Z</time>
      </trkpt>
      <trkpt lat="47.25883" lon="6.15067">
        <ele>449.2</ele>
        <time>2024-07-31T07:46:24Z</time>
      </trkpt>
      <trkpt lat="47.25881" lon="6.15068">
        <ele>449.2</ele>
        <time>2024-07-31T07:46:25Z</time>
      </trkpt>
      <trkpt lat="47.25879" lon="6.15069">
        <ele>448.4</ele>
        <time>2024-07-31T07:46:26Z</time>
      </trkpt>
      <trkpt lat="47.25876" lon="6.1507">
        <ele>447.8</ele>
        <time>2024-07-31T07:46:27Z</time>
      </trkpt>
      <trkpt lat="47.25874" lon="6.15071">
        <ele>447.6</ele>
        <time>2024-07-31T07:46:28Z</time>
      </trkpt>
      <trkpt lat="47.25871" lon="6.15072">
        <ele>447.4</ele>
        <time>2024-07-31T07:46:29Z</time>
      </trkpt>
      <trkpt lat="47.25867" lon="6.15074">
        <ele>446.6</ele>
        <time>2024-07-31T07:46:30Z</time>
      </trkpt>
      <trkpt lat="47.25864" lon="6.15075">
        <ele>446.2</ele>
        <time>2024-07-31T07:46:31Z</time>
      </trkpt>
      <trkpt lat="47.25861" lon="6.15076">
        <ele>445.6</ele>
        <time>2024-07-31T07:46:32Z</time>
      </trkpt>
      <trkpt lat="47.25859" lon="6.15077">
        <ele>445</ele>
        <time>2024-07-31T07:46:33Z</time>
      </trkpt>
      <trkpt lat="47.25856" lon="6.15078">
        <ele>444.8</ele>
        <time>2024-07-31T07:46:34Z</time>
      </trkpt>
      <trkpt lat="47.25854" lon="6.15079">
        <ele>444.4</ele>
        <time>2024-07-31T07:46:35Z</time>
      </trkpt>
      <trkpt lat="47.25851" lon="6.1508">
        <ele>444.2</ele>
        <time>2024-07-31T07:46:36Z</time>
      </trkpt>
      <trkpt lat="47.25849" lon="6.15081">
        <ele>443.8</ele>
        <time>2024-07-31T07:46:37Z</time>
      </trkpt>
      <trkpt lat="47.25847" lon="6.15082">
        <ele>443.4</ele>
        <time>2024-07-31T07:46:38Z</time>
      </trkpt>
      <trkpt lat="47.25845" lon="6.15083">
        <ele>443.2</ele>
        <time>2024-07-31T07:46:39Z</time>
      </trkpt>
      <trkpt lat="47.25842" lon="6.15083">
        <ele>443</ele>
        <time>2024-07-31T07:46:40Z</time>
      </trkpt>
      <trkpt lat="47.25839" lon="6.15084">
        <ele>442.8</ele>
        <time>2024-07-31T07:46:41Z</time>
      </trkpt>
      <trkpt lat="47.25836" lon="6.15085">
        <ele>442.2</ele>
        <time>2024-07-31T07:46:42Z</time>
      </trkpt>
      <trkpt lat="47.25833" lon="6.15087">
        <ele>442</ele>
        <time>2024-07-31T07:46:43Z</time>
      </trkpt>
      <trkpt lat="47.2583" lon="6.15088">
        <ele>441.6</ele>
        <time>2024-07-31T07:46:44Z</time>
      </trkpt>
      <trkpt lat="47.25827" lon="6.1509">
        <ele>441.2</ele>
        <time>2024-07-31T07:46:45Z</time>
      </trkpt>
      <trkpt lat="47.25824" lon="6.15091">
        <ele>440.6</ele>
        <time>2024-07-31T07:46:46Z</time>
      </trkpt>
      <trkpt lat="47.25821" lon="6.15092">
        <ele>440.2</ele>
        <time>2024-07-31T07:46:47Z</time>
      </trkpt>
      <trkpt lat="47.25819" lon="6.15093">
        <ele>440.2</ele>
        <time>2024-07-31T07:46:48Z</time>
      </trkpt>
      <trkpt lat="47.25817" lon="6.15094">
        <ele>440</ele>
        <time>2024-07-31T07:46:49Z</time>
      </trkpt>
      <trkpt lat="47.25814" lon="6.15095">
        <ele>439.4</ele>
        <time>2024-07-31T07:46:50Z</time>
      </trkpt>
      <trkpt lat="47.25811" lon="6.15097">
        <ele>438.8</ele>
        <time>2024-07-31T07:46:51Z</time>
      </trkpt>
      <trkpt lat="47.25808" lon="6.15099">
        <ele>438.2</ele>
        <time>2024-07-31T07:46:52Z</time>
      </trkpt>
      <trkpt lat="47.25805" lon="6.151">
        <ele>437.8</ele>
        <time>2024-07-31T07:46:53Z</time>
      </trkpt>
      <trkpt lat="47.25802" lon="6.15102">
        <ele>436.8</ele>
        <time>2024-07-31T07:46:54Z</time>
      </trkpt>
      <trkpt lat="47.25799" lon="6.15104">
        <ele>436.2</ele>
        <time>2024-07-31T07:46:55Z</time>
      </trkpt>
      <trkpt lat="47.25796" lon="6.15106">
        <ele>435.4</ele>
        <time>2024-07-31T07:46:56Z</time>
      </trkpt>
      <trkpt lat="47.25793" lon="6.15108">
        <ele>434.2</ele>
        <time>2024-07-31T07:46:57Z</time>
      </trkpt>
      <trkpt lat="47.2579" lon="6.15109">
        <ele>433.8</ele>
        <time>2024-07-31T07:46:58Z</time>
      </trkpt>
      <trkpt lat="47.25788" lon="6.15109">
        <ele>433.4</ele>
        <time>2024-07-31T07:46:59Z</time>
      </trkpt>
      <trkpt lat="47.25785" lon="6.1511">
        <ele>432.8</ele>
        <time>2024-07-31T07:47:00Z</time>
      </trkpt>
      <trkpt lat="47.25783" lon="6.1511">
        <ele>431.8</ele>
        <time>2024-07-31T07:47:01Z</time>
      </trkpt>
      <trkpt lat="47.2578" lon="6.15111">
        <ele>430.8</ele>
        <time>2024-07-31T07:47:02Z</time>
      </trkpt>
      <trkpt lat="47.25778" lon="6.15111">
        <ele>430.4</ele>
        <time>2024-07-31T07:47:03Z</time>
      </trkpt>
      <trkpt lat="47.25776" lon="6.15111">
        <ele>429.6</ele>
        <time>2024-07-31T07:47:04Z</time>
      </trkpt>
      <trkpt lat="47.25773" lon="6.15111">
        <ele>429</ele>
        <time>2024-07-31T07:47:05Z</time>
      </trkpt>
      <trkpt lat="47.25771" lon="6.15112">
        <ele>428.6</ele>
        <time>2024-07-31T07:47:06Z</time>
      </trkpt>
      <trkpt lat="47.25769" lon="6.15113">
        <ele>427.6</ele>
        <time>2024-07-31T07:47:07Z</time>
      </trkpt>
      <trkpt lat="47.25767" lon="6.15114">
        <ele>427.2</ele>
        <time>2024-07-31T07:47:08Z</time>
      </trkpt>
      <trkpt lat="47.25764" lon="6.15115">
        <ele>426.4</ele>
        <time>2024-07-31T07:47:09Z</time>
      </trkpt>
      <trkpt lat="47.25761" lon="6.15116">
        <ele>426.4</ele>
        <time>2024-07-31T07:47:10Z</time>
      </trkpt>
      <trkpt lat="47.25759" lon="6.15118">
        <ele>426.2</ele>
        <time>2024-07-31T07:47:11Z</time>
      </trkpt>
      <trkpt lat="47.25757" lon="6.1512">
        <ele>425.8</ele>
        <time>2024-07-31T07:47:12Z</time>
      </trkpt>
      <trkpt lat="47.25755" lon="6.15121">
        <ele>425.6</ele>
        <time>2024-07-31T07:47:13Z</time>
      </trkpt>
      <trkpt lat="47.25753" lon="6.15123">
        <ele>425.2</ele>
        <time>2024-07-31T07:47:14Z</time>
      </trkpt>
      <trkpt lat="47.25751" lon="6.15125">
        <ele>425</ele>
        <time>2024-07-31T07:47:15Z</time>
      </trkpt>
      <trkpt lat="47.25747" lon="6.15127">
        <ele>424.4</ele>
        <time>2024-07-31T07:47:16Z</time>
      </trkpt>
      <trkpt lat="47.25744" lon="6.15128">
        <ele>423.8</ele>
        <time>2024-07-31T07:47:17Z</time>
      </trkpt>
      <trkpt lat="47.25741" lon="6.1513">
        <ele>423.4</ele>
        <time>2024-07-31T07:47:18Z</time>
      </trkpt>
      <trkpt lat="47.25737" lon="6.15132">
        <ele>423</ele>
        <time>2024-07-31T07:47:19Z</time>
      </trkpt>
      <trkpt lat="47.25733" lon="6.15134">
        <ele>422.4</ele>
        <time>2024-07-31T07:47:20Z</time>
      </trkpt>
      <trkpt lat="47.2573" lon="6.15135">
        <ele>421.8</ele>
        <time>2024-07-31T07:47:21Z</time>
      </trkpt>
      <trkpt lat="47.25726" lon="6.15136">
        <ele>420.6</ele>
        <time>2024-07-31T07:47:22Z</time>
      </trkpt>
      <trkpt lat="47.25722" lon="6.15137">
        <ele>420.2</ele>
        <time>2024-07-31T07:47:23Z</time>
      </trkpt>
      <trkpt lat="47.25719" lon="6.15139">
        <ele>419.2</ele>
        <time>2024-07-31T07:47:24Z</time>
      </trkpt>
      <trkpt lat="47.25716" lon="6.1514">
        <ele>418.6</ele>
        <time>2024-07-31T07:47:25Z</time>
      </trkpt>
      <trkpt lat="47.25713" lon="6.15141">
        <ele>417.8</ele>
        <time>2024-07-31T07:47:26Z</time>
      </trkpt>
      <trkpt lat="47.25711" lon="6.15142">
        <ele>417.2</ele>
        <time>2024-07-31T07:47:27Z</time>
      </trkpt>
      <trkpt lat="47.2571" lon="6.15144">
        <ele>416.8</ele>
        <time>2024-07-31T07:47:28Z</time>
      </trkpt>
      <trkpt lat="47.25708" lon="6.15147">
        <ele>416.4</ele>
        <time>2024-07-31T07:47:29Z</time>
      </trkpt>
      <trkpt lat="47.25708" lon="6.15151">
        <ele>416.4</ele>
        <time>2024-07-31T07:47:30Z</time>
      </trkpt>
      <trkpt lat="47.25708" lon="6.15155">
        <ele>416.2</ele>
        <time>2024-07-31T07:47:31Z</time>
      </trkpt>
      <trkpt lat="47.25708" lon="6.15159">
        <ele>416.2</ele>
        <time>2024-07-31T07:47:32Z</time>
      </trkpt>
      <trkpt lat="47.25708" lon="6.15164">
        <ele>415.6</ele>
        <time>2024-07-31T07:47:33Z</time>
      </trkpt>
      <trkpt lat="47.25707" lon="6.15168">
        <ele>416</ele>
        <time>2024-07-31T07:47:34Z</time>
      </trkpt>
      <trkpt lat="47.25707" lon="6.15172">
        <ele>415.8</ele>
        <time>2024-07-31T07:47:35Z</time>
      </trkpt>
      <trkpt lat="47.25707" lon="6.15176">
        <ele>415.6</ele>
        <time>2024-07-31T07:47:36Z</time>
      </trkpt>
      <trkpt lat="47.25708" lon="6.15179">
        <ele>415.6</ele>
        <time>2024-07-31T07:47:37Z</time>
      </trkpt>
      <trkpt lat="47.25708" lon="6.15183">
        <ele>415.8</ele>
        <time>2024-07-31T07:47:38Z</time>
      </trkpt>
      <trkpt lat="47.25708" lon="6.15186">
        <ele>415.4</ele>
        <time>2024-07-31T07:47:39Z</time>
      </trkpt>
      <trkpt lat="47.25708" lon="6.1519">
        <ele>415.6</ele>
        <time>2024-07-31T07:47:40Z</time>
      </trkpt>
      <trkpt lat="47.25708" lon="6.15194">
        <ele>416</ele>
        <time>2024-07-31T07:47:41Z</time>
      </trkpt>
      <trkpt lat="47.25708" lon="6.15198">
        <ele>415.8</ele>
        <time>2024-07-31T07:47:42Z</time>
      </trkpt>
      <trkpt lat="47.25708" lon="6.15201">
        <ele>415.8</ele>
        <time>2024-07-31T07:47:43Z</time>
      </trkpt>
      <trkpt lat="47.25708" lon="6.15205">
        <ele>415.8</ele>
        <time>2024-07-31T07:47:44Z</time>
      </trkpt>
      <trkpt lat="47.25709" lon="6.1521">
        <ele>415.6</ele>
        <time>2024-07-31T07:47:45Z</time>
      </trkpt>
      <trkpt lat="47.25709" lon="6.15214">
        <ele>415.8</ele>
        <time>2024-07-31T07:47:46Z</time>
      </trkpt>
      <trkpt lat="47.25709" lon="6.15219">
        <ele>415.6</ele>
        <time>2024-07-31T07:47:47Z</time>
      </trkpt>
      <trkpt lat="47.25709" lon="6.15223">
        <ele>415.6</ele>
        <time>2024-07-31T07:47:48Z</time>
      </trkpt>
      <trkpt lat="47.25709" lon="6.15228">
        <ele>415.4</ele>
        <time>2024-07-31T07:47:49Z</time>
      </trkpt>
      <trkpt lat="47.2571" lon="6.15232">
        <ele>414.8</ele>
        <time>2024-07-31T07:47:50Z</time>
      </trkpt>
      <trkpt lat="47.25711" lon="6.15236">
        <ele>415</ele>
        <time>2024-07-31T07:47:51Z</time>
      </trkpt>
      <trkpt lat="47.25711" lon="6.1524">
        <ele>414.6</ele>
        <time>2024-07-31T07:47:52Z</time>
      </trkpt>
      <trkpt lat="47.25712" lon="6.15245">
        <ele>414.8</ele>
        <time>2024-07-31T07:47:53Z</time>
      </trkpt>
      <trkpt lat="47.25712" lon="6.15249">
        <ele>414.8</ele>
        <time>2024-07-31T07:47:54Z</time>
      </trkpt>
      <trkpt lat="47.25712" lon="6.15254">
        <ele>415</ele>
        <time>2024-07-31T07:47:55Z</time>
      </trkpt>
      <trkpt lat="47.25713" lon="6.15258">
        <ele>414.8</ele>
        <time>2024-07-31T07:47:56Z</time>
      </trkpt>
      <trkpt lat="47.25713" lon="6.15261">
        <ele>414.6</ele>
        <time>2024-07-31T07:47:57Z</time>
      </trkpt>
      <trkpt lat="47.25714" lon="6.15266">
        <ele>414.6</ele>
        <time>2024-07-31T07:47:58Z</time>
      </trkpt>
      <trkpt lat="47.25715" lon="6.15271">
        <ele>414.6</ele>
        <time>2024-07-31T07:47:59Z</time>
      </trkpt>
      <trkpt lat="47.25716" lon="6.15276">
        <ele>414.8</ele>
        <time>2024-07-31T07:48:00Z</time>
      </trkpt>
      <trkpt lat="47.25717" lon="6.15281">
        <ele>414.8</ele>
        <time>2024-07-31T07:48:01Z</time>
      </trkpt>
      <trkpt lat="47.25718" lon="6.15285">
        <ele>414.8</ele>
        <time>2024-07-31T07:48:02Z</time>
      </trkpt>
      <trkpt lat="47.2572" lon="6.1529">
        <ele>414.8</ele>
        <time>2024-07-31T07:48:03Z</time>
      </trkpt>
      <trkpt lat="47.25721" lon="6.15295">
        <ele>414.8</ele>
        <time>2024-07-31T07:48:04Z</time>
      </trkpt>
      <trkpt lat="47.25722" lon="6.15299">
        <ele>414.6</ele>
        <time>2024-07-31T07:48:05Z</time>
      </trkpt>
      <trkpt lat="47.25724" lon="6.15303">
        <ele>414.6</ele>
        <time>2024-07-31T07:48:06Z</time>
      </trkpt>
      <trkpt lat="47.25726" lon="6.15306">
        <ele>414.6</ele>
        <time>2024-07-31T07:48:07Z</time>
      </trkpt>
      <trkpt lat="47.25727" lon="6.1531">
        <ele>415</ele>
        <time>2024-07-31T07:48:08Z</time>
      </trkpt>
      <trkpt lat="47.25728" lon="6.15313">
        <ele>414.8</ele>
        <time>2024-07-31T07:48:09Z</time>
      </trkpt>
      <trkpt lat="47.2573" lon="6.15316">
        <ele>414.8</ele>
        <time>2024-07-31T07:48:10Z</time>
      </trkpt>
      <trkpt lat="47.25731" lon="6.15319">
        <ele>414.8</ele>
        <time>2024-07-31T07:48:11Z</time>
      </trkpt>
      <trkpt lat="47.25732" lon="6.15323">
        <ele>415</ele>
        <time>2024-07-31T07:48:12Z</time>
      </trkpt>
      <trkpt lat="47.25733" lon="6.15326">
        <ele>414.4</ele>
        <time>2024-07-31T07:48:13Z</time>
      </trkpt>
      <trkpt lat="47.25734" lon="6.1533">
        <ele>415</ele>
        <time>2024-07-31T07:48:14Z</time>
      </trkpt>
      <trkpt lat="47.25734" lon="6.15333">
        <ele>415.4</ele>
        <time>2024-07-31T07:48:15Z</time>
      </trkpt>
      <trkpt lat="47.25736" lon="6.15337">
        <ele>415.4</ele>
        <time>2024-07-31T07:48:16Z</time>
      </trkpt>
      <trkpt lat="47.25737" lon="6.15341">
        <ele>415.4</ele>
        <time>2024-07-31T07:48:17Z</time>
      </trkpt>
      <trkpt lat="47.25738" lon="6.15344">
        <ele>415</ele>
        <time>2024-07-31T07:48:18Z</time>
      </trkpt>
      <trkpt lat="47.2574" lon="6.15347">
        <ele>415.2</ele>
        <time>2024-07-31T07:48:19Z</time>
      </trkpt>
      <trkpt lat="47.2574" lon="6.1535">
        <ele>415.2</ele>
        <time>2024-07-31T07:48:20Z</time>
      </trkpt>
      <trkpt lat="47.25741" lon="6.15353">
        <ele>415.2</ele>
        <time>2024-07-31T07:48:21Z</time>
      </trkpt>
      <trkpt lat="47.25742" lon="6.15357">
        <ele>415.2</ele>
        <time>2024-07-31T07:48:22Z</time>
      </trkpt>
      <trkpt lat="47.25743" lon="6.1536">
        <ele>415.6</ele>
        <time>2024-07-31T07:48:23Z</time>
      </trkpt>
      <trkpt lat="47.25743" lon="6.15363">
        <ele>416</ele>
        <time>2024-07-31T07:48:24Z</time>
      </trkpt>
      <trkpt lat="47.25744" lon="6.15366">
        <ele>415.6</ele>
        <time>2024-07-31T07:48:25Z</time>
      </trkpt>
      <trkpt lat="47.25745" lon="6.15369">
        <ele>415.6</ele>
        <time>2024-07-31T07:48:26Z</time>
      </trkpt>
      <trkpt lat="47.25746" lon="6.15372">
        <ele>415.4</ele>
        <time>2024-07-31T07:48:27Z</time>
      </trkpt>
      <trkpt lat="47.25747" lon="6.15375">
        <ele>415.4</ele>
        <time>2024-07-31T07:48:28Z</time>
      </trkpt>
      <trkpt lat="47.25747" lon="6.15379">
        <ele>415.2</ele>
        <time>2024-07-31T07:48:29Z</time>
      </trkpt>
      <trkpt lat="47.25747" lon="6.15383">
        <ele>415.2</ele>
        <time>2024-07-31T07:48:30Z</time>
      </trkpt>
      <trkpt lat="47.25748" lon="6.15387">
        <ele>415.2</ele>
        <time>2024-07-31T07:48:31Z</time>
      </trkpt>
      <trkpt lat="47.25748" lon="6.1539">
        <ele>415.2</ele>
        <time>2024-07-31T07:48:32Z</time>
      </trkpt>
      <trkpt lat="47.25749" lon="6.15394">
        <ele>414.8</ele>
        <time>2024-07-31T07:48:33Z</time>
      </trkpt>
      <trkpt lat="47.25749" lon="6.15397">
        <ele>414.8</ele>
        <time>2024-07-31T07:48:34Z</time>
      </trkpt>
      <trkpt lat="47.2575" lon="6.154">
        <ele>415</ele>
        <time>2024-07-31T07:48:35Z</time>
      </trkpt>
      <trkpt lat="47.2575" lon="6.15404">
        <ele>414.8</ele>
        <time>2024-07-31T07:48:36Z</time>
      </trkpt>
      <trkpt lat="47.25751" lon="6.15407">
        <ele>415</ele>
        <time>2024-07-31T07:48:37Z</time>
      </trkpt>
      <trkpt lat="47.25751" lon="6.1541">
        <ele>415</ele>
        <time>2024-07-31T07:48:38Z</time>
      </trkpt>
      <trkpt lat="47.25751" lon="6.15412">
        <ele>415.2</ele>
        <time>2024-07-31T07:48:39Z</time>
      </trkpt>
      <trkpt lat="47.25751" lon="6.15415">
        <ele>415.2</ele>
        <time>2024-07-31T07:48:40Z</time>
      </trkpt>
      <trkpt lat="47.25752" lon="6.15418">
        <ele>415.2</ele>
        <time>2024-07-31T07:48:41Z</time>
      </trkpt>
      <trkpt lat="47.25752" lon="6.15421">
        <ele>415</ele>
        <time>2024-07-31T07:48:42Z</time>
      </trkpt>
      <trkpt lat="47.25753" lon="6.15425">
        <ele>415.2</ele>
        <time>2024-07-31T07:48:43Z</time>
      </trkpt>
      <trkpt lat="47.25754" lon="6.15428">
        <ele>415.4</ele>
        <time>2024-07-31T07:48:44Z</time>
      </trkpt>
      <trkpt lat="47.25754" lon="6.15431">
        <ele>415.2</ele>
        <time>2024-07-31T07:48:45Z</time>
      </trkpt>
      <trkpt lat="47.25755" lon="6.15435">
        <ele>415.2</ele>
        <time>2024-07-31T07:48:46Z</time>
      </trkpt>
      <trkpt lat="47.25755" lon="6.15438">
        <ele>415.2</ele>
        <time>2024-07-31T07:48:47Z</time>
      </trkpt>
      <trkpt lat="47.25756" lon="6.15441">
        <ele>415.2</ele>
        <time>2024-07-31T07:48:48Z</time>
      </trkpt>
      <trkpt lat="47.25756" lon="6.15444">
        <ele>415.2</ele>
        <time>2024-07-31T07:48:49Z</time>
      </trkpt>
      <trkpt lat="47.25757" lon="6.15447">
        <ele>415.6</ele>
        <time>2024-07-31T07:48:50Z</time>
      </trkpt>
      <trkpt lat="47.25758" lon="6.1545">
        <ele>415.6</ele>
        <time>2024-07-31T07:48:51Z</time>
      </trkpt>
      <trkpt lat="47.25758" lon="6.15453">
        <ele>415.8</ele>
        <time>2024-07-31T07:48:52Z</time>
      </trkpt>
      <trkpt lat="47.25759" lon="6.15457">
        <ele>415.6</ele>
        <time>2024-07-31T07:48:53Z</time>
      </trkpt>
      <trkpt lat="47.2576" lon="6.1546">
        <ele>415.8</ele>
        <time>2024-07-31T07:48:54Z</time>
      </trkpt>
      <trkpt lat="47.25761" lon="6.15463">
        <ele>415.8</ele>
        <time>2024-07-31T07:48:55Z</time>
      </trkpt>
      <trkpt lat="47.25762" lon="6.15467">
        <ele>415.8</ele>
        <time>2024-07-31T07:48:56Z</time>
      </trkpt>
      <trkpt lat="47.25763" lon="6.1547">
        <ele>416.2</ele>
        <time>2024-07-31T07:48:57Z</time>
      </trkpt>
      <trkpt lat="47.25764" lon="6.15473">
        <ele>416.2</ele>
        <time>2024-07-31T07:48:58Z</time>
      </trkpt>
      <trkpt lat="47.25765" lon="6.15475">
        <ele>416.4</ele>
        <time>2024-07-31T07:48:59Z</time>
      </trkpt>
      <trkpt lat="47.25767" lon="6.15477">
        <ele>416.4</ele>
        <time>2024-07-31T07:49:00Z</time>
      </trkpt>
      <trkpt lat="47.25768" lon="6.1548">
        <ele>416.4</ele>
        <time>2024-07-31T07:49:01Z</time>
      </trkpt>
      <trkpt lat="47.25769" lon="6.15482">
        <ele>416.6</ele>
        <time>2024-07-31T07:49:02Z</time>
      </trkpt>
      <trkpt lat="47.2577" lon="6.15485">
        <ele>416.6</ele>
        <time>2024-07-31T07:49:03Z</time>
      </trkpt>
      <trkpt lat="47.25771" lon="6.15488">
        <ele>416.8</ele>
        <time>2024-07-31T07:49:04Z</time>
      </trkpt>
      <trkpt lat="47.25772" lon="6.15491">
        <ele>417</ele>
        <time>2024-07-31T07:49:05Z</time>
      </trkpt>
      <trkpt lat="47.25773" lon="6.15495">
        <ele>417.2</ele>
        <time>2024-07-31T07:49:06Z</time>
      </trkpt>
      <trkpt lat="47.25774" lon="6.15498">
        <ele>417.2</ele>
        <time>2024-07-31T07:49:07Z</time>
      </trkpt>
      <trkpt lat="47.25775" lon="6.15501">
        <ele>417.2</ele>
        <time>2024-07-31T07:49:08Z</time>
      </trkpt>
      <trkpt lat="47.25776" lon="6.15503">
        <ele>417.2</ele>
        <time>2024-07-31T07:49:09Z</time>
      </trkpt>
      <trkpt lat="47.25776" lon="6.15505">
        <ele>417.2</ele>
        <time>2024-07-31T07:49:10Z</time>
      </trkpt>
      <trkpt lat="47.25776" lon="6.15507">
        <ele>417.2</ele>
        <time>2024-07-31T07:49:11Z</time>
      </trkpt>
      <trkpt lat="47.25776" lon="6.15509">
        <ele>417.2</ele>
        <time>2024-07-31T07:49:12Z</time>
      </trkpt>
      <trkpt lat="47.25774" lon="6.1551">
        <ele>417</ele>
        <time>2024-07-31T07:49:13Z</time>
      </trkpt>
      <trkpt lat="47.25773" lon="6.15511">
        <ele>416.8</ele>
        <time>2024-07-31T07:49:14Z</time>
      </trkpt>
      <trkpt lat="47.25771" lon="6.15512">
        <ele>416.6</ele>
        <time>2024-07-31T07:49:15Z</time>
      </trkpt>
      <trkpt lat="47.25769" lon="6.15512">
        <ele>416.2</ele>
        <time>2024-07-31T07:49:16Z</time>
      </trkpt>
      <trkpt lat="47.25767" lon="6.15512">
        <ele>415.8</ele>
        <time>2024-07-31T07:49:17Z</time>
      </trkpt>
      <trkpt lat="47.25766" lon="6.15513">
        <ele>415.6</ele>
        <time>2024-07-31T07:49:18Z</time>
      </trkpt>
      <trkpt lat="47.25765" lon="6.15514">
        <ele>415.2</ele>
        <time>2024-07-31T07:49:19Z</time>
      </trkpt>
      <trkpt lat="47.25764" lon="6.15515">
        <ele>415.2</ele>
        <time>2024-07-31T07:49:20Z</time>
      </trkpt>
      <trkpt lat="47.25762" lon="6.15516">
        <ele>414.6</ele>
        <time>2024-07-31T07:49:21Z</time>
      </trkpt>
      <trkpt lat="47.25761" lon="6.15517">
        <ele>414.6</ele>
        <time>2024-07-31T07:49:22Z</time>
      </trkpt>
      <trkpt lat="47.25759" lon="6.15517">
        <ele>414.2</ele>
        <time>2024-07-31T07:49:23Z</time>
      </trkpt>
      <trkpt lat="47.25757" lon="6.15518">
        <ele>414.4</ele>
        <time>2024-07-31T07:49:24Z</time>
      </trkpt>
      <trkpt lat="47.25755" lon="6.15518">
        <ele>414</ele>
        <time>2024-07-31T07:49:25Z</time>
      </trkpt>
      <trkpt lat="47.25753" lon="6.15519">
        <ele>413.4</ele>
        <time>2024-07-31T07:49:26Z</time>
      </trkpt>
      <trkpt lat="47.25751" lon="6.15519">
        <ele>413</ele>
        <time>2024-07-31T07:49:27Z</time>
      </trkpt>
      <trkpt lat="47.2575" lon="6.1552">
        <ele>412.6</ele>
        <time>2024-07-31T07:49:28Z</time>
      </trkpt>
      <trkpt lat="47.25748" lon="6.15521">
        <ele>412.2</ele>
        <time>2024-07-31T07:49:29Z</time>
      </trkpt>
      <trkpt lat="47.25746" lon="6.15521">
        <ele>411.8</ele>
        <time>2024-07-31T07:49:30Z</time>
      </trkpt>
      <trkpt lat="47.25744" lon="6.15522">
        <ele>411.2</ele>
        <time>2024-07-31T07:49:31Z</time>
      </trkpt>
      <trkpt lat="47.25742" lon="6.15522">
        <ele>411</ele>
        <time>2024-07-31T07:49:32Z</time>
      </trkpt>
      <trkpt lat="47.25741" lon="6.15523">
        <ele>410.6</ele>
        <time>2024-07-31T07:49:33Z</time>
      </trkpt>
      <trkpt lat="47.25741" lon="6.15524">
        <ele>410.6</ele>
        <time>2024-07-31T07:49:34Z</time>
      </trkpt>
      <trkpt lat="47.2574" lon="6.15525">
        <ele>410.4</ele>
        <time>2024-07-31T07:49:35Z</time>
      </trkpt>
      <trkpt lat="47.2574" lon="6.15526">
        <ele>410.4</ele>
        <time>2024-07-31T07:49:36Z</time>
      </trkpt>
      <trkpt lat="47.2574" lon="6.15528">
        <ele>410.2</ele>
        <time>2024-07-31T07:49:37Z</time>
      </trkpt>
      <trkpt lat="47.25739" lon="6.1553">
        <ele>409.8</ele>
        <time>2024-07-31T07:49:38Z</time>
      </trkpt>
      <trkpt lat="47.25738" lon="6.15531">
        <ele>409.6</ele>
        <time>2024-07-31T07:49:39Z</time>
      </trkpt>
      <trkpt lat="47.25736" lon="6.15532">
        <ele>409.2</ele>
        <time>2024-07-31T07:49:40Z</time>
      </trkpt>
      <trkpt lat="47.25732" lon="6.15533">
        <ele>409</ele>
        <time>2024-07-31T07:49:41Z</time>
      </trkpt>
      <trkpt lat="47.25729" lon="6.15535">
        <ele>408.6</ele>
        <time>2024-07-31T07:49:42Z</time>
      </trkpt>
      <trkpt lat="47.25726" lon="6.15536">
        <ele>408.4</ele>
        <time>2024-07-31T07:49:43Z</time>
      </trkpt>
      <trkpt lat="47.25724" lon="6.15537">
        <ele>408.4</ele>
        <time>2024-07-31T07:49:44Z</time>
      </trkpt>
      <trkpt lat="47.25721" lon="6.15538">
        <ele>408</ele>
        <time>2024-07-31T07:49:45Z</time>
      </trkpt>
      <trkpt lat="47.25718" lon="6.1554">
        <ele>407.8</ele>
        <time>2024-07-31T07:49:46Z</time>
      </trkpt>
      <trkpt lat="47.25715" lon="6.15542">
        <ele>407.2</ele>
        <time>2024-07-31T07:49:47Z</time>
      </trkpt>
      <trkpt lat="47.25713" lon="6.15544">
        <ele>407.2</ele>
        <time>2024-07-31T07:49:48Z</time>
      </trkpt>
      <trkpt lat="47.2571" lon="6.15548">
        <ele>406.8</ele>
        <time>2024-07-31T07:49:49Z</time>
      </trkpt>
      <trkpt lat="47.25708" lon="6.15551">
        <ele>406.8</ele>
        <time>2024-07-31T07:49:50Z</time>
      </trkpt>
      <trkpt lat="47.25705" lon="6.15554">
        <ele>406.6</ele>
        <time>2024-07-31T07:49:51Z</time>
      </trkpt>
      <trkpt lat="47.25703" lon="6.15557">
        <ele>406.4</ele>
        <time>2024-07-31T07:49:52Z</time>
      </trkpt>
      <trkpt lat="47.257" lon="6.1556">
        <ele>406.2</ele>
        <time>2024-07-31T07:49:53Z</time>
      </trkpt>
      <trkpt lat="47.25698" lon="6.15562">
        <ele>406</ele>
        <time>2024-07-31T07:49:54Z</time>
      </trkpt>
      <trkpt lat="47.25695" lon="6.15565">
        <ele>405.6</ele>
        <time>2024-07-31T07:49:55Z</time>
      </trkpt>
      <trkpt lat="47.25692" lon="6.15567">
        <ele>405.6</ele>
        <time>2024-07-31T07:49:56Z</time>
      </trkpt>
      <trkpt lat="47.2569" lon="6.15568">
        <ele>405.2</ele>
        <time>2024-07-31T07:49:57Z</time>
      </trkpt>
      <trkpt lat="47.25688" lon="6.15569">
        <ele>405.2</ele>
        <time>2024-07-31T07:49:58Z</time>
      </trkpt>
      <trkpt lat="47.25686" lon="6.15569">
        <ele>405</ele>
        <time>2024-07-31T07:49:59Z</time>
      </trkpt>
      <trkpt lat="47.25684" lon="6.1557">
        <ele>404.6</ele>
        <time>2024-07-31T07:50:00Z</time>
      </trkpt>
      <trkpt lat="47.25683" lon="6.15571">
        <ele>404.6</ele>
        <time>2024-07-31T07:50:01Z</time>
      </trkpt>
      <trkpt lat="47.25682" lon="6.15571">
        <ele>404.6</ele>
        <time>2024-07-31T07:50:02Z</time>
      </trkpt>
      <trkpt lat="47.25681" lon="6.15572">
        <ele>404.4</ele>
        <time>2024-07-31T07:50:03Z</time>
      </trkpt>
      <trkpt lat="47.25679" lon="6.15574">
        <ele>404.2</ele>
        <time>2024-07-31T07:50:04Z</time>
      </trkpt>
      <trkpt lat="47.25678" lon="6.15574">
        <ele>404.2</ele>
        <time>2024-07-31T07:50:05Z</time>
      </trkpt>
      <trkpt lat="47.25676" lon="6.15574">
        <ele>404.2</ele>
        <time>2024-07-31T07:50:06Z</time>
      </trkpt>
      <trkpt lat="47.25673" lon="6.15574">
        <ele>403.8</ele>
        <time>2024-07-31T07:50:07Z</time>
      </trkpt>
      <trkpt lat="47.25671" lon="6.15574">
        <ele>403.8</ele>
        <time>2024-07-31T07:50:08Z</time>
      </trkpt>
      <trkpt lat="47.25669" lon="6.15574">
        <ele>403.4</ele>
        <time>2024-07-31T07:50:09Z</time>
      </trkpt>
      <trkpt lat="47.25667" lon="6.15574">
        <ele>403.2</ele>
        <time>2024-07-31T07:50:10Z</time>
      </trkpt>
      <trkpt lat="47.25665" lon="6.15574">
        <ele>403</ele>
        <time>2024-07-31T07:50:11Z</time>
      </trkpt>
      <trkpt lat="47.25663" lon="6.15575">
        <ele>402.6</ele>
        <time>2024-07-31T07:50:12Z</time>
      </trkpt>
      <trkpt lat="47.25661" lon="6.15575">
        <ele>402.2</ele>
        <time>2024-07-31T07:50:13Z</time>
      </trkpt>
      <trkpt lat="47.25658" lon="6.15576">
        <ele>401.6</ele>
        <time>2024-07-31T07:50:14Z</time>
      </trkpt>
      <trkpt lat="47.25656" lon="6.15577">
        <ele>401.6</ele>
        <time>2024-07-31T07:50:15Z</time>
      </trkpt>
      <trkpt lat="47.25654" lon="6.15577">
        <ele>401</ele>
        <time>2024-07-31T07:50:16Z</time>
      </trkpt>
      <trkpt lat="47.25652" lon="6.15578">
        <ele>400.6</ele>
        <time>2024-07-31T07:50:17Z</time>
      </trkpt>
      <trkpt lat="47.2565" lon="6.15579">
        <ele>400.2</ele>
        <time>2024-07-31T07:50:18Z</time>
      </trkpt>
      <trkpt lat="47.25649" lon="6.1558">
        <ele>399.8</ele>
        <time>2024-07-31T07:50:19Z</time>
      </trkpt>
      <trkpt lat="47.25648" lon="6.15581">
        <ele>399.8</ele>
        <time>2024-07-31T07:50:20Z</time>
      </trkpt>
      <trkpt lat="47.25647" lon="6.15582">
        <ele>399.6</ele>
        <time>2024-07-31T07:50:21Z</time>
      </trkpt>
      <trkpt lat="47.25646" lon="6.15584">
        <ele>399.8</ele>
        <time>2024-07-31T07:50:22Z</time>
      </trkpt>
      <trkpt lat="47.25645" lon="6.15587">
        <ele>399.6</ele>
        <time>2024-07-31T07:50:23Z</time>
      </trkpt>
      <trkpt lat="47.25645" lon="6.15589">
        <ele>399.6</ele>
        <time>2024-07-31T07:50:24Z</time>
      </trkpt>
      <trkpt lat="47.25644" lon="6.15592">
        <ele>399.4</ele>
        <time>2024-07-31T07:50:25Z</time>
      </trkpt>
      <trkpt lat="47.25644" lon="6.15593">
        <ele>399.4</ele>
        <time>2024-07-31T07:50:26Z</time>
      </trkpt>
      <trkpt lat="47.25644" lon="6.15595">
        <ele>399.4</ele>
        <time>2024-07-31T07:50:27Z</time>
      </trkpt>
      <trkpt lat="47.25644" lon="6.15597">
        <ele>399.4</ele>
        <time>2024-07-31T07:50:28Z</time>
      </trkpt>
      <trkpt lat="47.25644" lon="6.15599">
        <ele>399.4</ele>
        <time>2024-07-31T07:50:29Z</time>
      </trkpt>
      <trkpt lat="47.25644" lon="6.15602">
        <ele>399.2</ele>
        <time>2024-07-31T07:50:30Z</time>
      </trkpt>
      <trkpt lat="47.25645" lon="6.15603">
        <ele>399.4</ele>
        <time>2024-07-31T07:50:31Z</time>
      </trkpt>
      <trkpt lat="47.25645" lon="6.15605">
        <ele>399.4</ele>
        <time>2024-07-31T07:50:32Z</time>
      </trkpt>
      <trkpt lat="47.25646" lon="6.15608">
        <ele>399.4</ele>
        <time>2024-07-31T07:50:33Z</time>
      </trkpt>
      <trkpt lat="47.25646" lon="6.1561">
        <ele>399.4</ele>
        <time>2024-07-31T07:50:34Z</time>
      </trkpt>
      <trkpt lat="47.25646" lon="6.15612">
        <ele>399.4</ele>
        <time>2024-07-31T07:50:35Z</time>
      </trkpt>
      <trkpt lat="47.25647" lon="6.15613">
        <ele>399.4</ele>
        <time>2024-07-31T07:50:36Z</time>
      </trkpt>
      <trkpt lat="47.25648" lon="6.15613">
        <ele>399.6</ele>
        <time>2024-07-31T07:50:37Z</time>
      </trkpt>
      <trkpt lat="47.25647" lon="6.15612">
        <ele>399.6</ele>
        <time>2024-07-31T07:50:38Z</time>
      </trkpt>
      <trkpt lat="47.25647" lon="6.1561">
        <ele>399.6</ele>
        <time>2024-07-31T07:50:39Z</time>
      </trkpt>
      <trkpt lat="47.25646" lon="6.15608">
        <ele>399.6</ele>
        <time>2024-07-31T07:50:40Z</time>
      </trkpt>
      <trkpt lat="47.25646" lon="6.15606">
        <ele>399.6</ele>
        <time>2024-07-31T07:50:41Z</time>
      </trkpt>
      <trkpt lat="47.25646" lon="6.15605">
        <ele>399.6</ele>
        <time>2024-07-31T07:50:42Z</time>
      </trkpt>
      <trkpt lat="47.25646" lon="6.15602">
        <ele>399.6</ele>
        <time>2024-07-31T07:50:43Z</time>
      </trkpt>
      <trkpt lat="47.25646" lon="6.156">
        <ele>399.6</ele>
        <time>2024-07-31T07:50:44Z</time>
      </trkpt>
      <trkpt lat="47.25645" lon="6.15597">
        <ele>399.6</ele>
        <time>2024-07-31T07:50:45Z</time>
      </trkpt>
      <trkpt lat="47.25645" lon="6.15595">
        <ele>399.6</ele>
        <time>2024-07-31T07:50:46Z</time>
      </trkpt>
      <trkpt lat="47.25645" lon="6.15593">
        <ele>399.6</ele>
        <time>2024-07-31T07:50:47Z</time>
      </trkpt>
      <trkpt lat="47.25644" lon="6.15591">
        <ele>399.6</ele>
        <time>2024-07-31T07:50:48Z</time>
      </trkpt>
      <trkpt lat="47.25643" lon="6.1559">
        <ele>399.8</ele>
        <time>2024-07-31T07:50:49Z</time>
      </trkpt>
      <trkpt lat="47.25641" lon="6.15591">
        <ele>399.8</ele>
        <time>2024-07-31T07:50:50Z</time>
      </trkpt>
      <trkpt lat="47.25639" lon="6.15592">
        <ele>399.6</ele>
        <time>2024-07-31T07:50:51Z</time>
      </trkpt>
      <trkpt lat="47.25636" lon="6.15593">
        <ele>399.4</ele>
        <time>2024-07-31T07:50:52Z</time>
      </trkpt>
      <trkpt lat="47.25635" lon="6.15594">
        <ele>399.2</ele>
        <time>2024-07-31T07:50:53Z</time>
      </trkpt>
      <trkpt lat="47.25633" lon="6.15594">
        <ele>399</ele>
        <time>2024-07-31T07:50:54Z</time>
      </trkpt>
      <trkpt lat="47.25632" lon="6.15593">
        <ele>398.8</ele>
        <time>2024-07-31T07:50:55Z</time>
      </trkpt>
      <trkpt lat="47.2563" lon="6.15592">
        <ele>398.8</ele>
        <time>2024-07-31T07:50:56Z</time>
      </trkpt>
      <trkpt lat="47.25628" lon="6.15591">
        <ele>399</ele>
        <time>2024-07-31T07:50:57Z</time>
      </trkpt>
      <trkpt lat="47.25626" lon="6.1559">
        <ele>398.8</ele>
        <time>2024-07-31T07:50:58Z</time>
      </trkpt>
      <trkpt lat="47.25625" lon="6.15588">
        <ele>398.8</ele>
        <time>2024-07-31T07:50:59Z</time>
      </trkpt>
      <trkpt lat="47.25623" lon="6.15586">
        <ele>398.8</ele>
        <time>2024-07-31T07:51:00Z</time>
      </trkpt>
      <trkpt lat="47.25621" lon="6.15583">
        <ele>398.8</ele>
        <time>2024-07-31T07:51:01Z</time>
      </trkpt>
      <trkpt lat="47.2562" lon="6.15581">
        <ele>399</ele>
        <time>2024-07-31T07:51:02Z</time>
      </trkpt>
      <trkpt lat="47.25618" lon="6.15579">
        <ele>398.8</ele>
        <time>2024-07-31T07:51:03Z</time>
      </trkpt>
      <trkpt lat="47.25615" lon="6.15576">
        <ele>399</ele>
        <time>2024-07-31T07:51:04Z</time>
      </trkpt>
      <trkpt lat="47.25613" lon="6.15574">
        <ele>399.2</ele>
        <time>2024-07-31T07:51:05Z</time>
      </trkpt>
      <trkpt lat="47.2561" lon="6.15572">
        <ele>399.2</ele>
        <time>2024-07-31T07:51:06Z</time>
      </trkpt>
      <trkpt lat="47.25608" lon="6.1557">
        <ele>399.6</ele>
        <time>2024-07-31T07:51:07Z</time>
      </trkpt>
      <trkpt lat="47.25605" lon="6.15568">
        <ele>399.6</ele>
        <time>2024-07-31T07:51:08Z</time>
      </trkpt>
      <trkpt lat="47.25602" lon="6.15566">
        <ele>399.8</ele>
        <time>2024-07-31T07:51:09Z</time>
      </trkpt>
      <trkpt lat="47.256" lon="6.15563">
        <ele>399.8</ele>
        <time>2024-07-31T07:51:10Z</time>
      </trkpt>
      <trkpt lat="47.25598" lon="6.15561">
        <ele>399.8</ele>
        <time>2024-07-31T07:51:11Z</time>
      </trkpt>
      <trkpt lat="47.25596" lon="6.15559">
        <ele>399.8</ele>
        <time>2024-07-31T07:51:12Z</time>
      </trkpt>
      <trkpt lat="47.25593" lon="6.15556">
        <ele>400.4</ele>
        <time>2024-07-31T07:51:13Z</time>
      </trkpt>
      <trkpt lat="47.25591" lon="6.15555">
        <ele>400.4</ele>
        <time>2024-07-31T07:51:14Z</time>
      </trkpt>
      <trkpt lat="47.25589" lon="6.15553">
        <ele>400.6</ele>
        <time>2024-07-31T07:51:15Z</time>
      </trkpt>
      <trkpt lat="47.25586" lon="6.15552">
        <ele>400.8</ele>
        <time>2024-07-31T07:51:16Z</time>
      </trkpt>
      <trkpt lat="47.25584" lon="6.1555">
        <ele>400.8</ele>
        <time>2024-07-31T07:51:17Z</time>
      </trkpt>
      <trkpt lat="47.25582" lon="6.15549">
        <ele>401.2</ele>
        <time>2024-07-31T07:51:18Z</time>
      </trkpt>
      <trkpt lat="47.25579" lon="6.15547">
        <ele>401.4</ele>
        <time>2024-07-31T07:51:19Z</time>
      </trkpt>
      <trkpt lat="47.25577" lon="6.15546">
        <ele>401.4</ele>
        <time>2024-07-31T07:51:20Z</time>
      </trkpt>
      <trkpt lat="47.25575" lon="6.15545">
        <ele>401.8</ele>
        <time>2024-07-31T07:51:21Z</time>
      </trkpt>
      <trkpt lat="47.25573" lon="6.15544">
        <ele>401.8</ele>
        <time>2024-07-31T07:51:22Z</time>
      </trkpt>
      <trkpt lat="47.25571" lon="6.15542">
        <ele>402</ele>
        <time>2024-07-31T07:51:23Z</time>
      </trkpt>
      <trkpt lat="47.25569" lon="6.15541">
        <ele>402.4</ele>
        <time>2024-07-31T07:51:24Z</time>
      </trkpt>
      <trkpt lat="47.25566" lon="6.1554">
        <ele>402.6</ele>
        <time>2024-07-31T07:51:25Z</time>
      </trkpt>
      <trkpt lat="47.25564" lon="6.15539">
        <ele>402.8</ele>
        <time>2024-07-31T07:51:26Z</time>
      </trkpt>
      <trkpt lat="47.25562" lon="6.15538">
        <ele>403</ele>
        <time>2024-07-31T07:51:27Z</time>
      </trkpt>
      <trkpt lat="47.2556" lon="6.15537">
        <ele>403.4</ele>
        <time>2024-07-31T07:51:28Z</time>
      </trkpt>
      <trkpt lat="47.25558" lon="6.15535">
        <ele>403.2</ele>
        <time>2024-07-31T07:51:29Z</time>
      </trkpt>
      <trkpt lat="47.25555" lon="6.15534">
        <ele>403.6</ele>
        <time>2024-07-31T07:51:30Z</time>
      </trkpt>
      <trkpt lat="47.25553" lon="6.15533">
        <ele>403.8</ele>
        <time>2024-07-31T07:51:31Z</time>
      </trkpt>
      <trkpt lat="47.25551" lon="6.15532">
        <ele>404</ele>
        <time>2024-07-31T07:51:32Z</time>
      </trkpt>
      <trkpt lat="47.25548" lon="6.15531">
        <ele>404.2</ele>
        <time>2024-07-31T07:51:33Z</time>
      </trkpt>
      <trkpt lat="47.25546" lon="6.1553">
        <ele>404.2</ele>
        <time>2024-07-31T07:51:34Z</time>
      </trkpt>
      <trkpt lat="47.25544" lon="6.15529">
        <ele>404.4</ele>
        <time>2024-07-31T07:51:35Z</time>
      </trkpt>
      <trkpt lat="47.25541" lon="6.15529">
        <ele>404.4</ele>
        <time>2024-07-31T07:51:36Z</time>
      </trkpt>
      <trkpt lat="47.25539" lon="6.15528">
        <ele>404.6</ele>
        <time>2024-07-31T07:51:37Z</time>
      </trkpt>
      <trkpt lat="47.25537" lon="6.15527">
        <ele>404.8</ele>
        <time>2024-07-31T07:51:38Z</time>
      </trkpt>
      <trkpt lat="47.25534" lon="6.15527">
        <ele>405</ele>
        <time>2024-07-31T07:51:39Z</time>
      </trkpt>
      <trkpt lat="47.25532" lon="6.15526">
        <ele>405.2</ele>
        <time>2024-07-31T07:51:40Z</time>
      </trkpt>
      <trkpt lat="47.2553" lon="6.15526">
        <ele>405.2</ele>
        <time>2024-07-31T07:51:41Z</time>
      </trkpt>
      <trkpt lat="47.25527" lon="6.15525">
        <ele>405.4</ele>
        <time>2024-07-31T07:51:42Z</time>
      </trkpt>
      <trkpt lat="47.25525" lon="6.15525">
        <ele>405.6</ele>
        <time>2024-07-31T07:51:43Z</time>
      </trkpt>
      <trkpt lat="47.25523" lon="6.15526">
        <ele>406</ele>
        <time>2024-07-31T07:51:44Z</time>
      </trkpt>
      <trkpt lat="47.25521" lon="6.15526">
        <ele>406</ele>
        <time>2024-07-31T07:51:45Z</time>
      </trkpt>
      <trkpt lat="47.25518" lon="6.15526">
        <ele>406.2</ele>
        <time>2024-07-31T07:51:46Z</time>
      </trkpt>
      <trkpt lat="47.25516" lon="6.15526">
        <ele>406.4</ele>
        <time>2024-07-31T07:51:47Z</time>
      </trkpt>
      <trkpt lat="47.25514" lon="6.15527">
        <ele>406.6</ele>
        <time>2024-07-31T07:51:48Z</time>
      </trkpt>
      <trkpt lat="47.25512" lon="6.15527">
        <ele>406.8</ele>
        <time>2024-07-31T07:51:49Z</time>
      </trkpt>
      <trkpt lat="47.25511" lon="6.15528">
        <ele>406.8</ele>
        <time>2024-07-31T07:51:50Z</time>
      </trkpt>
      <trkpt lat="47.2551" lon="6.15529">
        <ele>407</ele>
        <time>2024-07-31T07:51:51Z</time>
      </trkpt>
      <trkpt lat="47.25509" lon="6.15531">
        <ele>407</ele>
        <time>2024-07-31T07:51:52Z</time>
      </trkpt>
      <trkpt lat="47.25508" lon="6.15533">
        <ele>407</ele>
        <time>2024-07-31T07:51:53Z</time>
      </trkpt>
      <trkpt lat="47.25507" lon="6.15536">
        <ele>407.4</ele>
        <time>2024-07-31T07:51:54Z</time>
      </trkpt>
      <trkpt lat="47.25506" lon="6.1554">
        <ele>407</ele>
        <time>2024-07-31T07:51:55Z</time>
      </trkpt>
      <trkpt lat="47.25506" lon="6.15543">
        <ele>407</ele>
        <time>2024-07-31T07:51:56Z</time>
      </trkpt>
      <trkpt lat="47.25504" lon="6.15546">
        <ele>407.2</ele>
        <time>2024-07-31T07:51:57Z</time>
      </trkpt>
      <trkpt lat="47.25504" lon="6.15548">
        <ele>407.2</ele>
        <time>2024-07-31T07:51:58Z</time>
      </trkpt>
      <trkpt lat="47.25503" lon="6.15551">
        <ele>407.4</ele>
        <time>2024-07-31T07:51:59Z</time>
      </trkpt>
      <trkpt lat="47.25502" lon="6.15554">
        <ele>407.4</ele>
        <time>2024-07-31T07:52:00Z</time>
      </trkpt>
      <trkpt lat="47.255" lon="6.15556">
        <ele>407.4</ele>
        <time>2024-07-31T07:52:01Z</time>
      </trkpt>
      <trkpt lat="47.25499" lon="6.15558">
        <ele>407.4</ele>
        <time>2024-07-31T07:52:02Z</time>
      </trkpt>
      <trkpt lat="47.25498" lon="6.15561">
        <ele>407.6</ele>
        <time>2024-07-31T07:52:03Z</time>
      </trkpt>
      <trkpt lat="47.25497" lon="6.15562">
        <ele>407.6</ele>
        <time>2024-07-31T07:52:04Z</time>
      </trkpt>
      <trkpt lat="47.25495" lon="6.15564">
        <ele>407.8</ele>
        <time>2024-07-31T07:52:05Z</time>
      </trkpt>
      <trkpt lat="47.25494" lon="6.15566">
        <ele>408</ele>
        <time>2024-07-31T07:52:06Z</time>
      </trkpt>
      <trkpt lat="47.25493" lon="6.15567">
        <ele>408.2</ele>
        <time>2024-07-31T07:52:07Z</time>
      </trkpt>
      <trkpt lat="47.25491" lon="6.15569">
        <ele>408.4</ele>
        <time>2024-07-31T07:52:08Z</time>
      </trkpt>
      <trkpt lat="47.25489" lon="6.1557">
        <ele>408.4</ele>
        <time>2024-07-31T07:52:09Z</time>
      </trkpt>
      <trkpt lat="47.25488" lon="6.15571">
        <ele>408.8</ele>
        <time>2024-07-31T07:52:10Z</time>
      </trkpt>
      <trkpt lat="47.25487" lon="6.15573">
        <ele>409</ele>
        <time>2024-07-31T07:52:11Z</time>
      </trkpt>
      <trkpt lat="47.25486" lon="6.15574">
        <ele>409</ele>
        <time>2024-07-31T07:52:12Z</time>
      </trkpt>
      <trkpt lat="47.25484" lon="6.15575">
        <ele>409.2</ele>
        <time>2024-07-31T07:52:13Z</time>
      </trkpt>
      <trkpt lat="47.25483" lon="6.15577">
        <ele>409.4</ele>
        <time>2024-07-31T07:52:14Z</time>
      </trkpt>
      <trkpt lat="47.25482" lon="6.15578">
        <ele>409.6</ele>
        <time>2024-07-31T07:52:15Z</time>
      </trkpt>
      <trkpt lat="47.25481" lon="6.1558">
        <ele>409.6</ele>
        <time>2024-07-31T07:52:16Z</time>
      </trkpt>
      <trkpt lat="47.2548" lon="6.15582">
        <ele>410</ele>
        <time>2024-07-31T07:52:17Z</time>
      </trkpt>
      <trkpt lat="47.25478" lon="6.15584">
        <ele>410</ele>
        <time>2024-07-31T07:52:18Z</time>
      </trkpt>
      <trkpt lat="47.25477" lon="6.15586">
        <ele>410</ele>
        <time>2024-07-31T07:52:19Z</time>
      </trkpt>
      <trkpt lat="47.25476" lon="6.15588">
        <ele>410.4</ele>
        <time>2024-07-31T07:52:20Z</time>
      </trkpt>
      <trkpt lat="47.25475" lon="6.1559">
        <ele>410.6</ele>
        <time>2024-07-31T07:52:21Z</time>
      </trkpt>
      <trkpt lat="47.25474" lon="6.15592">
        <ele>410.6</ele>
        <time>2024-07-31T07:52:22Z</time>
      </trkpt>
      <trkpt lat="47.25472" lon="6.15594">
        <ele>410.6</ele>
        <time>2024-07-31T07:52:23Z</time>
      </trkpt>
      <trkpt lat="47.2547" lon="6.15596">
        <ele>411</ele>
        <time>2024-07-31T07:52:24Z</time>
      </trkpt>
      <trkpt lat="47.25469" lon="6.15598">
        <ele>411</ele>
        <time>2024-07-31T07:52:25Z</time>
      </trkpt>
      <trkpt lat="47.25467" lon="6.156">
        <ele>411.2</ele>
        <time>2024-07-31T07:52:26Z</time>
      </trkpt>
      <trkpt lat="47.25466" lon="6.15602">
        <ele>411.4</ele>
        <time>2024-07-31T07:52:27Z</time>
      </trkpt>
      <trkpt lat="47.25465" lon="6.15605">
        <ele>411.4</ele>
        <time>2024-07-31T07:52:28Z</time>
      </trkpt>
      <trkpt lat="47.25463" lon="6.15607">
        <ele>411.6</ele>
        <time>2024-07-31T07:52:29Z</time>
      </trkpt>
      <trkpt lat="47.25462" lon="6.15609">
        <ele>411.6</ele>
        <time>2024-07-31T07:52:30Z</time>
      </trkpt>
      <trkpt lat="47.25461" lon="6.15612">
        <ele>411.8</ele>
        <time>2024-07-31T07:52:31Z</time>
      </trkpt>
      <trkpt lat="47.25459" lon="6.15614">
        <ele>412</ele>
        <time>2024-07-31T07:52:32Z</time>
      </trkpt>
      <trkpt lat="47.25458" lon="6.15616">
        <ele>412.2</ele>
        <time>2024-07-31T07:52:33Z</time>
      </trkpt>
      <trkpt lat="47.25457" lon="6.15618">
        <ele>412.2</ele>
        <time>2024-07-31T07:52:34Z</time>
      </trkpt>
      <trkpt lat="47.25456" lon="6.1562">
        <ele>412.4</ele>
        <time>2024-07-31T07:52:35Z</time>
      </trkpt>
      <trkpt lat="47.25454" lon="6.15623">
        <ele>412.6</ele>
        <time>2024-07-31T07:52:36Z</time>
      </trkpt>
      <trkpt lat="47.25453" lon="6.15625">
        <ele>412.8</ele>
        <time>2024-07-31T07:52:37Z</time>
      </trkpt>
      <trkpt lat="47.25452" lon="6.15627">
        <ele>412.8</ele>
        <time>2024-07-31T07:52:38Z</time>
      </trkpt>
      <trkpt lat="47.25451" lon="6.15629">
        <ele>413</ele>
        <time>2024-07-31T07:52:39Z</time>
      </trkpt>
      <trkpt lat="47.2545" lon="6.15629">
        <ele>413</ele>
        <time>2024-07-31T07:52:40Z</time>
      </trkpt>
      <trkpt lat="47.25449" lon="6.1563">
        <ele>413</ele>
        <time>2024-07-31T07:52:41Z</time>
      </trkpt>
      <trkpt lat="47.25448" lon="6.15631">
        <ele>413</ele>
        <time>2024-07-31T07:52:42Z</time>
      </trkpt>
      <trkpt lat="47.25448" lon="6.15631">
        <ele>413.2</ele>
        <time>2024-07-31T07:52:43Z</time>
      </trkpt>
      <trkpt lat="47.25447" lon="6.15632">
        <ele>413</ele>
        <time>2024-07-31T07:52:44Z</time>
      </trkpt>
      <trkpt lat="47.25446" lon="6.15633">
        <ele>413.2</ele>
        <time>2024-07-31T07:52:45Z</time>
      </trkpt>
      <trkpt lat="47.25445" lon="6.15634">
        <ele>413.6</ele>
        <time>2024-07-31T07:52:46Z</time>
      </trkpt>
      <trkpt lat="47.25445" lon="6.15635">
        <ele>413.8</ele>
        <time>2024-07-31T07:52:47Z</time>
      </trkpt>
      <trkpt lat="47.25444" lon="6.15636">
        <ele>414</ele>
        <time>2024-07-31T07:52:48Z</time>
      </trkpt>
      <trkpt lat="47.25443" lon="6.15636">
        <ele>414.4</ele>
        <time>2024-07-31T07:52:49Z</time>
      </trkpt>
      <trkpt lat="47.25442" lon="6.15638">
        <ele>414.6</ele>
        <time>2024-07-31T07:52:50Z</time>
      </trkpt>
      <trkpt lat="47.25441" lon="6.15638">
        <ele>414.8</ele>
        <time>2024-07-31T07:52:51Z</time>
      </trkpt>
      <trkpt lat="47.2544" lon="6.15639">
        <ele>415</ele>
        <time>2024-07-31T07:52:52Z</time>
      </trkpt>
      <trkpt lat="47.25439" lon="6.1564">
        <ele>415.6</ele>
        <time>2024-07-31T07:52:53Z</time>
      </trkpt>
      <trkpt lat="47.25438" lon="6.15641">
        <ele>415.8</ele>
        <time>2024-07-31T07:52:54Z</time>
      </trkpt>
      <trkpt lat="47.25437" lon="6.15642">
        <ele>416.2</ele>
        <time>2024-07-31T07:52:55Z</time>
      </trkpt>
      <trkpt lat="47.25435" lon="6.15643">
        <ele>416.4</ele>
        <time>2024-07-31T07:52:56Z</time>
      </trkpt>
      <trkpt lat="47.25434" lon="6.15645">
        <ele>416.6</ele>
        <time>2024-07-31T07:52:57Z</time>
      </trkpt>
      <trkpt lat="47.25433" lon="6.15646">
        <ele>416.6</ele>
        <time>2024-07-31T07:52:58Z</time>
      </trkpt>
      <trkpt lat="47.25432" lon="6.15647">
        <ele>416.8</ele>
        <time>2024-07-31T07:52:59Z</time>
      </trkpt>
      <trkpt lat="47.25431" lon="6.15648">
        <ele>417</ele>
        <time>2024-07-31T07:53:00Z</time>
      </trkpt>
      <trkpt lat="47.2543" lon="6.1565">
        <ele>417.4</ele>
        <time>2024-07-31T07:53:01Z</time>
      </trkpt>
      <trkpt lat="47.25429" lon="6.15652">
        <ele>417.4</ele>
        <time>2024-07-31T07:53:02Z</time>
      </trkpt>
      <trkpt lat="47.25427" lon="6.15653">
        <ele>417.4</ele>
        <time>2024-07-31T07:53:03Z</time>
      </trkpt>
      <trkpt lat="47.25426" lon="6.15654">
        <ele>417.6</ele>
        <time>2024-07-31T07:53:04Z</time>
      </trkpt>
      <trkpt lat="47.25425" lon="6.15656">
        <ele>418</ele>
        <time>2024-07-31T07:53:05Z</time>
      </trkpt>
      <trkpt lat="47.25424" lon="6.15658">
        <ele>418.2</ele>
        <time>2024-07-31T07:53:06Z</time>
      </trkpt>
      <trkpt lat="47.25423" lon="6.1566">
        <ele>418.4</ele>
        <time>2024-07-31T07:53:07Z</time>
      </trkpt>
      <trkpt lat="47.25421" lon="6.15661">
        <ele>418.6</ele>
        <time>2024-07-31T07:53:08Z</time>
      </trkpt>
      <trkpt lat="47.2542" lon="6.15663">
        <ele>419</ele>
        <time>2024-07-31T07:53:09Z</time>
      </trkpt>
      <trkpt lat="47.25419" lon="6.15665">
        <ele>419.4</ele>
        <time>2024-07-31T07:53:10Z</time>
      </trkpt>
      <trkpt lat="47.25417" lon="6.15667">
        <ele>419.4</ele>
        <time>2024-07-31T07:53:11Z</time>
      </trkpt>
      <trkpt lat="47.25417" lon="6.15668">
        <ele>419.8</ele>
        <time>2024-07-31T07:53:12Z</time>
      </trkpt>
      <trkpt lat="47.25416" lon="6.1567">
        <ele>419.8</ele>
        <time>2024-07-31T07:53:13Z</time>
      </trkpt>
      <trkpt lat="47.25415" lon="6.15671">
        <ele>420.2</ele>
        <time>2024-07-31T07:53:14Z</time>
      </trkpt>
      <trkpt lat="47.25414" lon="6.15673">
        <ele>420.2</ele>
        <time>2024-07-31T07:53:15Z</time>
      </trkpt>
      <trkpt lat="47.25413" lon="6.15673">
        <ele>420.2</ele>
        <time>2024-07-31T07:53:16Z</time>
      </trkpt>
      <trkpt lat="47.25412" lon="6.15674">
        <ele>420.2</ele>
        <time>2024-07-31T07:53:17Z</time>
      </trkpt>
      <trkpt lat="47.25411" lon="6.15676">
        <ele>420.2</ele>
        <time>2024-07-31T07:53:18Z</time>
      </trkpt>
      <trkpt lat="47.25411" lon="6.15677">
        <ele>420.4</ele>
        <time>2024-07-31T07:53:19Z</time>
      </trkpt>
      <trkpt lat="47.2541" lon="6.15678">
        <ele>420.4</ele>
        <time>2024-07-31T07:53:20Z</time>
      </trkpt>
      <trkpt lat="47.2541" lon="6.15679">
        <ele>420.8</ele>
        <time>2024-07-31T07:53:21Z</time>
      </trkpt>
      <trkpt lat="47.2541" lon="6.1568">
        <ele>420.8</ele>
        <time>2024-07-31T07:53:22Z</time>
      </trkpt>
      <trkpt lat="47.25409" lon="6.15681">
        <ele>421</ele>
        <time>2024-07-31T07:53:23Z</time>
      </trkpt>
      <trkpt lat="47.25409" lon="6.15683">
        <ele>421</ele>
        <time>2024-07-31T07:53:24Z</time>
      </trkpt>
      <trkpt lat="47.25409" lon="6.15683">
        <ele>421</ele>
        <time>2024-07-31T07:53:25Z</time>
      </trkpt>
      <trkpt lat="47.25408" lon="6.15684">
        <ele>421</ele>
        <time>2024-07-31T07:53:26Z</time>
      </trkpt>
      <trkpt lat="47.25408" lon="6.15684">
        <ele>421</ele>
        <time>2024-07-31T07:53:27Z</time>
      </trkpt>
      <trkpt lat="47.25408" lon="6.15684">
        <ele>421.2</ele>
        <time>2024-07-31T07:53:28Z</time>
      </trkpt>
      <trkpt lat="47.25408" lon="6.15684">
        <ele>421.2</ele>
        <time>2024-07-31T07:53:29Z</time>
      </trkpt>
      <trkpt lat="47.25408" lon="6.15684">
        <ele>421.2</ele>
        <time>2024-07-31T07:53:30Z</time>
      </trkpt>
      <trkpt lat="47.25408" lon="6.15685">
        <ele>421.2</ele>
        <time>2024-07-31T07:53:31Z</time>
      </trkpt>
      <trkpt lat="47.25408" lon="6.15685">
        <ele>421.2</ele>
        <time>2024-07-31T07:53:32Z</time>
      </trkpt>
      <trkpt lat="47.25408" lon="6.15685">
        <ele>421.2</ele>
        <time>2024-07-31T07:53:33Z</time>
      </trkpt>
      <trkpt lat="47.25408" lon="6.15685">
        <ele>421.2</ele>
        <time>2024-07-31T07:53:34Z</time>
      </trkpt>
      <trkpt lat="47.25408" lon="6.15685">
        <ele>421.2</ele>
        <time>2024-07-31T07:53:35Z</time>
      </trkpt>
      <trkpt lat="47.25408" lon="6.15685">
        <ele>421</ele>
        <time>2024-07-31T07:53:36Z</time>
      </trkpt>
      <trkpt lat="47.25408" lon="6.15685">
        <ele>421.2</ele>
        <time>2024-07-31T07:53:37Z</time>
      </trkpt>
      <trkpt lat="47.25408" lon="6.15685">
        <ele>421</ele>
        <time>2024-07-31T07:53:38Z</time>
      </trkpt>
      <trkpt lat="47.25408" lon="6.15685">
        <ele>421.2</ele>
        <time>2024-07-31T07:53:39Z</time>
      </trkpt>
      <trkpt lat="47.25408" lon="6.15686">
        <ele>421.2</ele>
        <time>2024-07-31T07:53:40Z</time>
      </trkpt>
      <trkpt lat="47.25407" lon="6.15687">
        <ele>421.6</ele>
        <time>2024-07-31T07:53:41Z</time>
      </trkpt>
      <trkpt lat="47.25407" lon="6.15688">
        <ele>421.8</ele>
        <time>2024-07-31T07:53:42Z</time>
      </trkpt>
      <trkpt lat="47.25407" lon="6.1569">
        <ele>422.2</ele>
        <time>2024-07-31T07:53:43Z</time>
      </trkpt>
      <trkpt lat="47.25406" lon="6.15691">
        <ele>422.6</ele>
        <time>2024-07-31T07:53:44Z</time>
      </trkpt>
      <trkpt lat="47.25406" lon="6.15693">
        <ele>422.8</ele>
        <time>2024-07-31T07:53:45Z</time>
      </trkpt>
      <trkpt lat="47.25406" lon="6.15695">
        <ele>422.8</ele>
        <time>2024-07-31T07:53:46Z</time>
      </trkpt>
      <trkpt lat="47.25405" lon="6.15696">
        <ele>423.2</ele>
        <time>2024-07-31T07:53:47Z</time>
      </trkpt>
      <trkpt lat="47.25404" lon="6.15698">
        <ele>423.4</ele>
        <time>2024-07-31T07:53:48Z</time>
      </trkpt>
      <trkpt lat="47.25404" lon="6.15699">
        <ele>423.8</ele>
        <time>2024-07-31T07:53:49Z</time>
      </trkpt>
      <trkpt lat="47.25403" lon="6.15701">
        <ele>424.4</ele>
        <time>2024-07-31T07:53:50Z</time>
      </trkpt>
      <trkpt lat="47.25403" lon="6.15703">
        <ele>424.4</ele>
        <time>2024-07-31T07:53:51Z</time>
      </trkpt>
      <trkpt lat="47.25402" lon="6.15705">
        <ele>424.6</ele>
        <time>2024-07-31T07:53:52Z</time>
      </trkpt>
      <trkpt lat="47.25401" lon="6.15707">
        <ele>425</ele>
        <time>2024-07-31T07:53:53Z</time>
      </trkpt>
      <trkpt lat="47.254" lon="6.15709">
        <ele>425.2</ele>
        <time>2024-07-31T07:53:54Z</time>
      </trkpt>
      <trkpt lat="47.254" lon="6.15711">
        <ele>425.4</ele>
        <time>2024-07-31T07:53:55Z</time>
      </trkpt>
      <trkpt lat="47.25399" lon="6.15713">
        <ele>425.6</ele>
        <time>2024-07-31T07:53:56Z</time>
      </trkpt>
      <trkpt lat="47.25399" lon="6.15715">
        <ele>425.8</ele>
        <time>2024-07-31T07:53:57Z</time>
      </trkpt>
      <trkpt lat="47.25399" lon="6.15718">
        <ele>426.2</ele>
        <time>2024-07-31T07:53:58Z</time>
      </trkpt>
      <trkpt lat="47.25399" lon="6.1572">
        <ele>426.4</ele>
        <time>2024-07-31T07:53:59Z</time>
      </trkpt>
      <trkpt lat="47.25398" lon="6.15722">
        <ele>426.6</ele>
        <time>2024-07-31T07:54:00Z</time>
      </trkpt>
      <trkpt lat="47.25398" lon="6.15724">
        <ele>426.8</ele>
        <time>2024-07-31T07:54:01Z</time>
      </trkpt>
      <trkpt lat="47.25397" lon="6.15727">
        <ele>427.2</ele>
        <time>2024-07-31T07:54:02Z</time>
      </trkpt>
      <trkpt lat="47.25396" lon="6.15729">
        <ele>427.4</ele>
        <time>2024-07-31T07:54:03Z</time>
      </trkpt>
      <trkpt lat="47.25395" lon="6.15731">
        <ele>427.6</ele>
        <time>2024-07-31T07:54:04Z</time>
      </trkpt>
      <trkpt lat="47.25394" lon="6.15733">
        <ele>428</ele>
        <time>2024-07-31T07:54:05Z</time>
      </trkpt>
      <trkpt lat="47.25392" lon="6.15735">
        <ele>428.2</ele>
        <time>2024-07-31T07:54:06Z</time>
      </trkpt>
      <trkpt lat="47.25391" lon="6.15736">
        <ele>428.4</ele>
        <time>2024-07-31T07:54:07Z</time>
      </trkpt>
      <trkpt lat="47.25389" lon="6.15738">
        <ele>428.4</ele>
        <time>2024-07-31T07:54:08Z</time>
      </trkpt>
      <trkpt lat="47.25388" lon="6.1574">
        <ele>428.8</ele>
        <time>2024-07-31T07:54:09Z</time>
      </trkpt>
      <trkpt lat="47.25387" lon="6.15741">
        <ele>429</ele>
        <time>2024-07-31T07:54:10Z</time>
      </trkpt>
      <trkpt lat="47.25387" lon="6.15742">
        <ele>429.2</ele>
        <time>2024-07-31T07:54:11Z</time>
      </trkpt>
      <trkpt lat="47.25386" lon="6.15742">
        <ele>429</ele>
        <time>2024-07-31T07:54:12Z</time>
      </trkpt>
      <trkpt lat="47.25385" lon="6.15743">
        <ele>429.2</ele>
        <time>2024-07-31T07:54:13Z</time>
      </trkpt>
      <trkpt lat="47.25385" lon="6.15743">
        <ele>429.4</ele>
        <time>2024-07-31T07:54:14Z</time>
      </trkpt>
      <trkpt lat="47.25385" lon="6.15744">
        <ele>429.4</ele>
        <time>2024-07-31T07:54:15Z</time>
      </trkpt>
      <trkpt lat="47.25384" lon="6.15743">
        <ele>429.4</ele>
        <time>2024-07-31T07:54:16Z</time>
      </trkpt>
      <trkpt lat="47.25384" lon="6.15743">
        <ele>429.4</ele>
        <time>2024-07-31T07:54:17Z</time>
      </trkpt>
      <trkpt lat="47.25384" lon="6.15744">
        <ele>429.6</ele>
        <time>2024-07-31T07:54:18Z</time>
      </trkpt>
      <trkpt lat="47.25384" lon="6.15744">
        <ele>429.6</ele>
        <time>2024-07-31T07:54:19Z</time>
      </trkpt>
      <trkpt lat="47.25384" lon="6.15745">
        <ele>429.8</ele>
        <time>2024-07-31T07:54:20Z</time>
      </trkpt>
      <trkpt lat="47.25384" lon="6.15746">
        <ele>429.8</ele>
        <time>2024-07-31T07:54:21Z</time>
      </trkpt>
      <trkpt lat="47.25384" lon="6.15747">
        <ele>429.8</ele>
        <time>2024-07-31T07:54:22Z</time>
      </trkpt>
      <trkpt lat="47.25384" lon="6.15747">
        <ele>429.8</ele>
        <time>2024-07-31T07:54:23Z</time>
      </trkpt>
      <trkpt lat="47.25384" lon="6.15747">
        <ele>429.8</ele>
        <time>2024-07-31T07:54:24Z</time>
      </trkpt>
      <trkpt lat="47.25384" lon="6.15748">
        <ele>430</ele>
        <time>2024-07-31T07:54:25Z</time>
      </trkpt>
      <trkpt lat="47.25384" lon="6.15748">
        <ele>430.2</ele>
        <time>2024-07-31T07:54:26Z</time>
      </trkpt>
      <trkpt lat="47.25383" lon="6.15749">
        <ele>430.2</ele>
        <time>2024-07-31T07:54:27Z</time>
      </trkpt>
      <trkpt lat="47.25383" lon="6.1575">
        <ele>430.2</ele>
        <time>2024-07-31T07:54:28Z</time>
      </trkpt>
      <trkpt lat="47.25382" lon="6.15751">
        <ele>430.2</ele>
        <time>2024-07-31T07:54:29Z</time>
      </trkpt>
      <trkpt lat="47.25381" lon="6.15752">
        <ele>430.6</ele>
        <time>2024-07-31T07:54:30Z</time>
      </trkpt>
      <trkpt lat="47.25381" lon="6.15753">
        <ele>430.8</ele>
        <time>2024-07-31T07:54:31Z</time>
      </trkpt>
      <trkpt lat="47.25381" lon="6.15754">
        <ele>430.6</ele>
        <time>2024-07-31T07:54:32Z</time>
      </trkpt>
      <trkpt lat="47.2538" lon="6.15755">
        <ele>430.6</ele>
        <time>2024-07-31T07:54:33Z</time>
      </trkpt>
      <trkpt lat="47.2538" lon="6.15756">
        <ele>430.6</ele>
        <time>2024-07-31T07:54:34Z</time>
      </trkpt>
      <trkpt lat="47.2538" lon="6.15757">
        <ele>430.6</ele>
        <time>2024-07-31T07:54:35Z</time>
      </trkpt>
      <trkpt lat="47.25379" lon="6.15758">
        <ele>430.6</ele>
        <time>2024-07-31T07:54:36Z</time>
      </trkpt>
      <trkpt lat="47.25379" lon="6.15759">
        <ele>430.6</ele>
        <time>2024-07-31T07:54:37Z</time>
      </trkpt>
      <trkpt lat="47.25379" lon="6.1576">
        <ele>430.6</ele>
        <time>2024-07-31T07:54:38Z</time>
      </trkpt>
      <trkpt lat="47.25378" lon="6.15761">
        <ele>430.8</ele>
        <time>2024-07-31T07:54:39Z</time>
      </trkpt>
      <trkpt lat="47.25378" lon="6.15762">
        <ele>431</ele>
        <time>2024-07-31T07:54:40Z</time>
      </trkpt>
      <trkpt lat="47.25377" lon="6.15762">
        <ele>431.2</ele>
        <time>2024-07-31T07:54:41Z</time>
      </trkpt>
      <trkpt lat="47.25376" lon="6.15763">
        <ele>431.4</ele>
        <time>2024-07-31T07:54:42Z</time>
      </trkpt>
      <trkpt lat="47.25375" lon="6.15763">
        <ele>431.4</ele>
        <time>2024-07-31T07:54:43Z</time>
      </trkpt>
      <trkpt lat="47.25375" lon="6.15764">
        <ele>431.6</ele>
        <time>2024-07-31T07:54:44Z</time>
      </trkpt>
      <trkpt lat="47.25374" lon="6.15764">
        <ele>431.6</ele>
        <time>2024-07-31T07:54:45Z</time>
      </trkpt>
      <trkpt lat="47.25374" lon="6.15764">
        <ele>431.6</ele>
        <time>2024-07-31T07:54:46Z</time>
      </trkpt>
      <trkpt lat="47.25374" lon="6.15764">
        <ele>431.6</ele>
        <time>2024-07-31T07:54:47Z</time>
      </trkpt>
      <trkpt lat="47.25373" lon="6.15764">
        <ele>431.6</ele>
        <time>2024-07-31T07:54:48Z</time>
      </trkpt>
      <trkpt lat="47.25372" lon="6.15765">
        <ele>431.8</ele>
        <time>2024-07-31T07:54:49Z</time>
      </trkpt>
      <trkpt lat="47.25372" lon="6.15766">
        <ele>431.8</ele>
        <time>2024-07-31T07:54:50Z</time>
      </trkpt>
      <trkpt lat="47.25372" lon="6.15768">
        <ele>431.8</ele>
        <time>2024-07-31T07:54:51Z</time>
      </trkpt>
      <trkpt lat="47.25371" lon="6.15768">
        <ele>432.2</ele>
        <time>2024-07-31T07:54:52Z</time>
      </trkpt>
      <trkpt lat="47.25371" lon="6.15769">
        <ele>432.2</ele>
        <time>2024-07-31T07:54:53Z</time>
      </trkpt>
      <trkpt lat="47.25371" lon="6.1577">
        <ele>432.2</ele>
        <time>2024-07-31T07:54:54Z</time>
      </trkpt>
      <trkpt lat="47.2537" lon="6.15772">
        <ele>432.2</ele>
        <time>2024-07-31T07:54:55Z</time>
      </trkpt>
      <trkpt lat="47.25369" lon="6.15773">
        <ele>432.2</ele>
        <time>2024-07-31T07:54:56Z</time>
      </trkpt>
      <trkpt lat="47.25368" lon="6.15773">
        <ele>432.4</ele>
        <time>2024-07-31T07:54:57Z</time>
      </trkpt>
      <trkpt lat="47.25366" lon="6.15774">
        <ele>432.6</ele>
        <time>2024-07-31T07:54:58Z</time>
      </trkpt>
      <trkpt lat="47.25365" lon="6.15776">
        <ele>432.6</ele>
        <time>2024-07-31T07:54:59Z</time>
      </trkpt>
      <trkpt lat="47.25364" lon="6.15777">
        <ele>432.8</ele>
        <time>2024-07-31T07:55:00Z</time>
      </trkpt>
      <trkpt lat="47.25363" lon="6.15778">
        <ele>433.2</ele>
        <time>2024-07-31T07:55:01Z</time>
      </trkpt>
      <trkpt lat="47.25361" lon="6.15779">
        <ele>433.4</ele>
        <time>2024-07-31T07:55:02Z</time>
      </trkpt>
      <trkpt lat="47.2536" lon="6.15781">
        <ele>433.6</ele>
        <time>2024-07-31T07:55:03Z</time>
      </trkpt>
      <trkpt lat="47.25358" lon="6.15782">
        <ele>433.8</ele>
        <time>2024-07-31T07:55:04Z</time>
      </trkpt>
      <trkpt lat="47.25357" lon="6.15784">
        <ele>434</ele>
        <time>2024-07-31T07:55:05Z</time>
      </trkpt>
      <trkpt lat="47.25355" lon="6.15786">
        <ele>434.2</ele>
        <time>2024-07-31T07:55:06Z</time>
      </trkpt>
      <trkpt lat="47.25353" lon="6.15788">
        <ele>434.2</ele>
        <time>2024-07-31T07:55:07Z</time>
      </trkpt>
      <trkpt lat="47.25351" lon="6.15789">
        <ele>434.4</ele>
        <time>2024-07-31T07:55:08Z</time>
      </trkpt>
      <trkpt lat="47.2535" lon="6.15791">
        <ele>434.4</ele>
        <time>2024-07-31T07:55:09Z</time>
      </trkpt>
      <trkpt lat="47.25349" lon="6.15792">
        <ele>434.6</ele>
        <time>2024-07-31T07:55:10Z</time>
      </trkpt>
      <trkpt lat="47.25348" lon="6.15793">
        <ele>434.8</ele>
        <time>2024-07-31T07:55:11Z</time>
      </trkpt>
      <trkpt lat="47.25347" lon="6.15793">
        <ele>435.2</ele>
        <time>2024-07-31T07:55:12Z</time>
      </trkpt>
      <trkpt lat="47.25346" lon="6.15794">
        <ele>435.4</ele>
        <time>2024-07-31T07:55:13Z</time>
      </trkpt>
      <trkpt lat="47.25345" lon="6.15794">
        <ele>435.4</ele>
        <time>2024-07-31T07:55:14Z</time>
      </trkpt>
      <trkpt lat="47.25343" lon="6.15795">
        <ele>435.4</ele>
        <time>2024-07-31T07:55:15Z</time>
      </trkpt>
      <trkpt lat="47.25342" lon="6.15797">
        <ele>435.6</ele>
        <time>2024-07-31T07:55:16Z</time>
      </trkpt>
      <trkpt lat="47.25341" lon="6.15798">
        <ele>435.4</ele>
        <time>2024-07-31T07:55:17Z</time>
      </trkpt>
      <trkpt lat="47.25341" lon="6.158">
        <ele>435.4</ele>
        <time>2024-07-31T07:55:18Z</time>
      </trkpt>
      <trkpt lat="47.2534" lon="6.15802">
        <ele>435.6</ele>
        <time>2024-07-31T07:55:19Z</time>
      </trkpt>
      <trkpt lat="47.25339" lon="6.15803">
        <ele>435.4</ele>
        <time>2024-07-31T07:55:20Z</time>
      </trkpt>
      <trkpt lat="47.25338" lon="6.15805">
        <ele>435.6</ele>
        <time>2024-07-31T07:55:21Z</time>
      </trkpt>
      <trkpt lat="47.25337" lon="6.15807">
        <ele>435.6</ele>
        <time>2024-07-31T07:55:22Z</time>
      </trkpt>
      <trkpt lat="47.25335" lon="6.15809">
        <ele>435.6</ele>
        <time>2024-07-31T07:55:23Z</time>
      </trkpt>
      <trkpt lat="47.25334" lon="6.15812">
        <ele>435.8</ele>
        <time>2024-07-31T07:55:24Z</time>
      </trkpt>
      <trkpt lat="47.25333" lon="6.15815">
        <ele>436</ele>
        <time>2024-07-31T07:55:25Z</time>
      </trkpt>
      <trkpt lat="47.25332" lon="6.15818">
        <ele>435.6</ele>
        <time>2024-07-31T07:55:26Z</time>
      </trkpt>
      <trkpt lat="47.2533" lon="6.15821">
        <ele>435.6</ele>
        <time>2024-07-31T07:55:27Z</time>
      </trkpt>
      <trkpt lat="47.25329" lon="6.15825">
        <ele>435.8</ele>
        <time>2024-07-31T07:55:28Z</time>
      </trkpt>
      <trkpt lat="47.25328" lon="6.15828">
        <ele>435.8</ele>
        <time>2024-07-31T07:55:29Z</time>
      </trkpt>
      <trkpt lat="47.25326" lon="6.15831">
        <ele>435.6</ele>
        <time>2024-07-31T07:55:30Z</time>
      </trkpt>
      <trkpt lat="47.25325" lon="6.15833">
        <ele>436</ele>
        <time>2024-07-31T07:55:31Z</time>
      </trkpt>
      <trkpt lat="47.25324" lon="6.15835">
        <ele>435.8</ele>
        <time>2024-07-31T07:55:32Z</time>
      </trkpt>
      <trkpt lat="47.25323" lon="6.15837">
        <ele>435.8</ele>
        <time>2024-07-31T07:55:33Z</time>
      </trkpt>
      <trkpt lat="47.25321" lon="6.15838">
        <ele>436</ele>
        <time>2024-07-31T07:55:34Z</time>
      </trkpt>
      <trkpt lat="47.2532" lon="6.15839">
        <ele>436</ele>
        <time>2024-07-31T07:55:35Z</time>
      </trkpt>
      <trkpt lat="47.25319" lon="6.15841">
        <ele>436</ele>
        <time>2024-07-31T07:55:36Z</time>
      </trkpt>
      <trkpt lat="47.25318" lon="6.15842">
        <ele>436</ele>
        <time>2024-07-31T07:55:37Z</time>
      </trkpt>
      <trkpt lat="47.25318" lon="6.15844">
        <ele>436</ele>
        <time>2024-07-31T07:55:38Z</time>
      </trkpt>
      <trkpt lat="47.25317" lon="6.15846">
        <ele>436</ele>
        <time>2024-07-31T07:55:39Z</time>
      </trkpt>
      <trkpt lat="47.25315" lon="6.15848">
        <ele>436</ele>
        <time>2024-07-31T07:55:40Z</time>
      </trkpt>
      <trkpt lat="47.25314" lon="6.1585">
        <ele>436.2</ele>
        <time>2024-07-31T07:55:41Z</time>
      </trkpt>
      <trkpt lat="47.25312" lon="6.15852">
        <ele>436.4</ele>
        <time>2024-07-31T07:55:42Z</time>
      </trkpt>
      <trkpt lat="47.25311" lon="6.15854">
        <ele>436</ele>
        <time>2024-07-31T07:55:43Z</time>
      </trkpt>
      <trkpt lat="47.25308" lon="6.15858">
        <ele>436.2</ele>
        <time>2024-07-31T07:55:44Z</time>
      </trkpt>
      <trkpt lat="47.25306" lon="6.15861">
        <ele>436</ele>
        <time>2024-07-31T07:55:45Z</time>
      </trkpt>
      <trkpt lat="47.25304" lon="6.15864">
        <ele>436</ele>
        <time>2024-07-31T07:55:46Z</time>
      </trkpt>
      <trkpt lat="47.25302" lon="6.15866">
        <ele>435.6</ele>
        <time>2024-07-31T07:55:47Z</time>
      </trkpt>
      <trkpt lat="47.25301" lon="6.15869">
        <ele>435.4</ele>
        <time>2024-07-31T07:55:48Z</time>
      </trkpt>
      <trkpt lat="47.25298" lon="6.15873">
        <ele>435.6</ele>
        <time>2024-07-31T07:55:49Z</time>
      </trkpt>
      <trkpt lat="47.25295" lon="6.15876">
        <ele>435.2</ele>
        <time>2024-07-31T07:55:50Z</time>
      </trkpt>
      <trkpt lat="47.25293" lon="6.15879">
        <ele>435.2</ele>
        <time>2024-07-31T07:55:51Z</time>
      </trkpt>
      <trkpt lat="47.25291" lon="6.15883">
        <ele>435</ele>
        <time>2024-07-31T07:55:52Z</time>
      </trkpt>
      <trkpt lat="47.25288" lon="6.15886">
        <ele>434.8</ele>
        <time>2024-07-31T07:55:53Z</time>
      </trkpt>
      <trkpt lat="47.25285" lon="6.15889">
        <ele>434.6</ele>
        <time>2024-07-31T07:55:54Z</time>
      </trkpt>
      <trkpt lat="47.25282" lon="6.15893">
        <ele>434.4</ele>
        <time>2024-07-31T07:55:55Z</time>
      </trkpt>
      <trkpt lat="47.25279" lon="6.15897">
        <ele>434</ele>
        <time>2024-07-31T07:55:56Z</time>
      </trkpt>
      <trkpt lat="47.25276" lon="6.15902">
        <ele>433.8</ele>
        <time>2024-07-31T07:55:57Z</time>
      </trkpt>
      <trkpt lat="47.25273" lon="6.15906">
        <ele>433.8</ele>
        <time>2024-07-31T07:55:58Z</time>
      </trkpt>
      <trkpt lat="47.2527" lon="6.15911">
        <ele>433.8</ele>
        <time>2024-07-31T07:55:59Z</time>
      </trkpt>
      <trkpt lat="47.25266" lon="6.15915">
        <ele>433.8</ele>
        <time>2024-07-31T07:56:00Z</time>
      </trkpt>
      <trkpt lat="47.25262" lon="6.15919">
        <ele>433.4</ele>
        <time>2024-07-31T07:56:01Z</time>
      </trkpt>
      <trkpt lat="47.25258" lon="6.15923">
        <ele>433.2</ele>
        <time>2024-07-31T07:56:02Z</time>
      </trkpt>
      <trkpt lat="47.25254" lon="6.15928">
        <ele>433</ele>
        <time>2024-07-31T07:56:03Z</time>
      </trkpt>
      <trkpt lat="47.2525" lon="6.15933">
        <ele>432.8</ele>
        <time>2024-07-31T07:56:04Z</time>
      </trkpt>
      <trkpt lat="47.25246" lon="6.15937">
        <ele>432.4</ele>
        <time>2024-07-31T07:56:05Z</time>
      </trkpt>
      <trkpt lat="47.25243" lon="6.15941">
        <ele>432</ele>
        <time>2024-07-31T07:56:06Z</time>
      </trkpt>
      <trkpt lat="47.25239" lon="6.15943">
        <ele>431.8</ele>
        <time>2024-07-31T07:56:07Z</time>
      </trkpt>
      <trkpt lat="47.25237" lon="6.15944">
        <ele>431.6</ele>
        <time>2024-07-31T07:56:08Z</time>
      </trkpt>
      <trkpt lat="47.25235" lon="6.15945">
        <ele>431.4</ele>
        <time>2024-07-31T07:56:09Z</time>
      </trkpt>
      <trkpt lat="47.25234" lon="6.15944">
        <ele>431.2</ele>
        <time>2024-07-31T07:56:10Z</time>
      </trkpt>
      <trkpt lat="47.25232" lon="6.15944">
        <ele>431</ele>
        <time>2024-07-31T07:56:11Z</time>
      </trkpt>
      <trkpt lat="47.25229" lon="6.15944">
        <ele>431</ele>
        <time>2024-07-31T07:56:12Z</time>
      </trkpt>
      <trkpt lat="47.25227" lon="6.15945">
        <ele>431.2</ele>
        <time>2024-07-31T07:56:13Z</time>
      </trkpt>
      <trkpt lat="47.25223" lon="6.15947">
        <ele>431</ele>
        <time>2024-07-31T07:56:14Z</time>
      </trkpt>
      <trkpt lat="47.25219" lon="6.15951">
        <ele>430.4</ele>
        <time>2024-07-31T07:56:15Z</time>
      </trkpt>
      <trkpt lat="47.25215" lon="6.15955">
        <ele>430.4</ele>
        <time>2024-07-31T07:56:16Z</time>
      </trkpt>
      <trkpt lat="47.25211" lon="6.1596">
        <ele>430</ele>
        <time>2024-07-31T07:56:17Z</time>
      </trkpt>
      <trkpt lat="47.25205" lon="6.15965">
        <ele>430</ele>
        <time>2024-07-31T07:56:18Z</time>
      </trkpt>
      <trkpt lat="47.25203" lon="6.15971">
        <ele>429.8</ele>
        <time>2024-07-31T07:56:19Z</time>
      </trkpt>
      <trkpt lat="47.25201" lon="6.15977">
        <ele>429.8</ele>
        <time>2024-07-31T07:56:20Z</time>
      </trkpt>
      <trkpt lat="47.25199" lon="6.15983">
        <ele>429.6</ele>
        <time>2024-07-31T07:56:21Z</time>
      </trkpt>
      <trkpt lat="47.25196" lon="6.15989">
        <ele>429.6</ele>
        <time>2024-07-31T07:56:22Z</time>
      </trkpt>
      <trkpt lat="47.25194" lon="6.15995">
        <ele>429.6</ele>
        <time>2024-07-31T07:56:23Z</time>
      </trkpt>
      <trkpt lat="47.25191" lon="6.16001">
        <ele>429.4</ele>
        <time>2024-07-31T07:56:24Z</time>
      </trkpt>
      <trkpt lat="47.25188" lon="6.16007">
        <ele>429</ele>
        <time>2024-07-31T07:56:25Z</time>
      </trkpt>
      <trkpt lat="47.25184" lon="6.16013">
        <ele>429</ele>
        <time>2024-07-31T07:56:26Z</time>
      </trkpt>
      <trkpt lat="47.2518" lon="6.1602">
        <ele>428.8</ele>
        <time>2024-07-31T07:56:27Z</time>
      </trkpt>
      <trkpt lat="47.25177" lon="6.16026">
        <ele>428.4</ele>
        <time>2024-07-31T07:56:28Z</time>
      </trkpt>
      <trkpt lat="47.25174" lon="6.16032">
        <ele>428.2</ele>
        <time>2024-07-31T07:56:29Z</time>
      </trkpt>
      <trkpt lat="47.2517" lon="6.16038">
        <ele>428.2</ele>
        <time>2024-07-31T07:56:30Z</time>
      </trkpt>
      <trkpt lat="47.25166" lon="6.16043">
        <ele>428.2</ele>
        <time>2024-07-31T07:56:31Z</time>
      </trkpt>
      <trkpt lat="47.25161" lon="6.1605">
        <ele>427.4</ele>
        <time>2024-07-31T07:56:32Z</time>
      </trkpt>
      <trkpt lat="47.25156" lon="6.16057">
        <ele>427.2</ele>
        <time>2024-07-31T07:56:33Z</time>
      </trkpt>
      <trkpt lat="47.25151" lon="6.16063">
        <ele>427.4</ele>
        <time>2024-07-31T07:56:34Z</time>
      </trkpt>
      <trkpt lat="47.25146" lon="6.1607">
        <ele>427</ele>
        <time>2024-07-31T07:56:35Z</time>
      </trkpt>
      <trkpt lat="47.2514" lon="6.16078">
        <ele>426.4</ele>
        <time>2024-07-31T07:56:36Z</time>
      </trkpt>
      <trkpt lat="47.25134" lon="6.16085">
        <ele>426.6</ele>
        <time>2024-07-31T07:56:37Z</time>
      </trkpt>
      <trkpt lat="47.25129" lon="6.16092">
        <ele>426.2</ele>
        <time>2024-07-31T07:56:38Z</time>
      </trkpt>
      <trkpt lat="47.25124" lon="6.161">
        <ele>425.6</ele>
        <time>2024-07-31T07:56:39Z</time>
      </trkpt>
      <trkpt lat="47.2512" lon="6.16108">
        <ele>425.4</ele>
        <time>2024-07-31T07:56:40Z</time>
      </trkpt>
      <trkpt lat="47.25116" lon="6.16115">
        <ele>425.2</ele>
        <time>2024-07-31T07:56:41Z</time>
      </trkpt>
      <trkpt lat="47.25112" lon="6.16122">
        <ele>425.2</ele>
        <time>2024-07-31T07:56:42Z</time>
      </trkpt>
      <trkpt lat="47.25108" lon="6.16131">
        <ele>424.8</ele>
        <time>2024-07-31T07:56:43Z</time>
      </trkpt>
      <trkpt lat="47.25104" lon="6.16139">
        <ele>424.8</ele>
        <time>2024-07-31T07:56:44Z</time>
      </trkpt>
      <trkpt lat="47.251" lon="6.16147">
        <ele>424.2</ele>
        <time>2024-07-31T07:56:45Z</time>
      </trkpt>
      <trkpt lat="47.25096" lon="6.16153">
        <ele>423.8</ele>
        <time>2024-07-31T07:56:46Z</time>
      </trkpt>
      <trkpt lat="47.25092" lon="6.1616">
        <ele>423.8</ele>
        <time>2024-07-31T07:56:47Z</time>
      </trkpt>
      <trkpt lat="47.25087" lon="6.16166">
        <ele>423.6</ele>
        <time>2024-07-31T07:56:48Z</time>
      </trkpt>
      <trkpt lat="47.25084" lon="6.16172">
        <ele>422.8</ele>
        <time>2024-07-31T07:56:49Z</time>
      </trkpt>
      <trkpt lat="47.25082" lon="6.16176">
        <ele>422.6</ele>
        <time>2024-07-31T07:56:50Z</time>
      </trkpt>
      <trkpt lat="47.2508" lon="6.1618">
        <ele>422.6</ele>
        <time>2024-07-31T07:56:51Z</time>
      </trkpt>
      <trkpt lat="47.25079" lon="6.16184">
        <ele>422.4</ele>
        <time>2024-07-31T07:56:52Z</time>
      </trkpt>
      <trkpt lat="47.25078" lon="6.16187">
        <ele>422.4</ele>
        <time>2024-07-31T07:56:53Z</time>
      </trkpt>
      <trkpt lat="47.25077" lon="6.1619">
        <ele>422.4</ele>
        <time>2024-07-31T07:56:54Z</time>
      </trkpt>
      <trkpt lat="47.25077" lon="6.16191">
        <ele>422.4</ele>
        <time>2024-07-31T07:56:55Z</time>
      </trkpt>
      <trkpt lat="47.25076" lon="6.16193">
        <ele>422.4</ele>
        <time>2024-07-31T07:56:56Z</time>
      </trkpt>
      <trkpt lat="47.25077" lon="6.16193">
        <ele>422.4</ele>
        <time>2024-07-31T07:56:57Z</time>
      </trkpt>
      <trkpt lat="47.25077" lon="6.16193">
        <ele>422.6</ele>
        <time>2024-07-31T07:56:58Z</time>
      </trkpt>
      <trkpt lat="47.25077" lon="6.16191">
        <ele>422.6</ele>
        <time>2024-07-31T07:56:59Z</time>
      </trkpt>
      <trkpt lat="47.25077" lon="6.1619">
        <ele>422.6</ele>
        <time>2024-07-31T07:57:00Z</time>
      </trkpt>
      <trkpt lat="47.25077" lon="6.16188">
        <ele>422.6</ele>
        <time>2024-07-31T07:57:01Z</time>
      </trkpt>
      <trkpt lat="47.25077" lon="6.16185">
        <ele>422.6</ele>
        <time>2024-07-31T07:57:02Z</time>
      </trkpt>
      <trkpt lat="47.25076" lon="6.16183">
        <ele>422.6</ele>
        <time>2024-07-31T07:57:03Z</time>
      </trkpt>
      <trkpt lat="47.25075" lon="6.16181">
        <ele>422.6</ele>
        <time>2024-07-31T07:57:04Z</time>
      </trkpt>
      <trkpt lat="47.25074" lon="6.1618">
        <ele>422.6</ele>
        <time>2024-07-31T07:57:05Z</time>
      </trkpt>
      <trkpt lat="47.25073" lon="6.16179">
        <ele>422.6</ele>
        <time>2024-07-31T07:57:06Z</time>
      </trkpt>
      <trkpt lat="47.25073" lon="6.16178">
        <ele>422.6</ele>
        <time>2024-07-31T07:57:07Z</time>
      </trkpt>
      <trkpt lat="47.25072" lon="6.16177">
        <ele>422.4</ele>
        <time>2024-07-31T07:57:08Z</time>
      </trkpt>
      <trkpt lat="47.25071" lon="6.16177">
        <ele>422.4</ele>
        <time>2024-07-31T07:57:09Z</time>
      </trkpt>
      <trkpt lat="47.2507" lon="6.16176">
        <ele>422.4</ele>
        <time>2024-07-31T07:57:10Z</time>
      </trkpt>
      <trkpt lat="47.25069" lon="6.16176">
        <ele>422.4</ele>
        <time>2024-07-31T07:57:11Z</time>
      </trkpt>
      <trkpt lat="47.25069" lon="6.16176">
        <ele>422.4</ele>
        <time>2024-07-31T07:57:12Z</time>
      </trkpt>
      <trkpt lat="47.25069" lon="6.16176">
        <ele>422.4</ele>
        <time>2024-07-31T07:57:13Z</time>
      </trkpt>
      <trkpt lat="47.25069" lon="6.16177">
        <ele>422.4</ele>
        <time>2024-07-31T07:57:14Z</time>
      </trkpt>
      <trkpt lat="47.25069" lon="6.16177">
        <ele>422.4</ele>
        <time>2024-07-31T07:57:15Z</time>
      </trkpt>
      <trkpt lat="47.25069" lon="6.16178">
        <ele>422.4</ele>
        <time>2024-07-31T07:57:16Z</time>
      </trkpt>
      <trkpt lat="47.2507" lon="6.16178">
        <ele>422.4</ele>
        <time>2024-07-31T07:57:17Z</time>
      </trkpt>
      <trkpt lat="47.2507" lon="6.16178">
        <ele>422.4</ele>
        <time>2024-07-31T07:57:18Z</time>
      </trkpt>
      <trkpt lat="47.25072" lon="6.16178">
        <ele>422.6</ele>
        <time>2024-07-31T07:57:19Z</time>
      </trkpt>
      <trkpt lat="47.25073" lon="6.16178">
        <ele>422.6</ele>
        <time>2024-07-31T07:57:20Z</time>
      </trkpt>
      <trkpt lat="47.25074" lon="6.16179">
        <ele>422.6</ele>
        <time>2024-07-31T07:57:21Z</time>
      </trkpt>
      <trkpt lat="47.25075" lon="6.16182">
        <ele>422.6</ele>
        <time>2024-07-31T07:57:22Z</time>
      </trkpt>
      <trkpt lat="47.25076" lon="6.16184">
        <ele>422.6</ele>
        <time>2024-07-31T07:57:23Z</time>
      </trkpt>
      <trkpt lat="47.25077" lon="6.16187">
        <ele>422.6</ele>
        <time>2024-07-31T07:57:24Z</time>
      </trkpt>
      <trkpt lat="47.25078" lon="6.16191">
        <ele>422.6</ele>
        <time>2024-07-31T07:57:25Z</time>
      </trkpt>
      <trkpt lat="47.25078" lon="6.16196">
        <ele>422.6</ele>
        <time>2024-07-31T07:57:26Z</time>
      </trkpt>
      <trkpt lat="47.25079" lon="6.162">
        <ele>422.6</ele>
        <time>2024-07-31T07:57:27Z</time>
      </trkpt>
      <trkpt lat="47.25078" lon="6.16205">
        <ele>422.6</ele>
        <time>2024-07-31T07:57:28Z</time>
      </trkpt>
      <trkpt lat="47.25078" lon="6.1621">
        <ele>422.4</ele>
        <time>2024-07-31T07:57:29Z</time>
      </trkpt>
      <trkpt lat="47.25078" lon="6.16215">
        <ele>422.6</ele>
        <time>2024-07-31T07:57:30Z</time>
      </trkpt>
      <trkpt lat="47.25078" lon="6.16221">
        <ele>422.4</ele>
        <time>2024-07-31T07:57:31Z</time>
      </trkpt>
      <trkpt lat="47.25078" lon="6.16227">
        <ele>422.2</ele>
        <time>2024-07-31T07:57:32Z</time>
      </trkpt>
      <trkpt lat="47.25078" lon="6.16233">
        <ele>422</ele>
        <time>2024-07-31T07:57:33Z</time>
      </trkpt>
      <trkpt lat="47.25078" lon="6.16239">
        <ele>421.6</ele>
        <time>2024-07-31T07:57:34Z</time>
      </trkpt>
      <trkpt lat="47.25078" lon="6.16245">
        <ele>421.4</ele>
        <time>2024-07-31T07:57:35Z</time>
      </trkpt>
      <trkpt lat="47.25078" lon="6.1625">
        <ele>421.8</ele>
        <time>2024-07-31T07:57:36Z</time>
      </trkpt>
      <trkpt lat="47.25078" lon="6.16255">
        <ele>422</ele>
        <time>2024-07-31T07:57:37Z</time>
      </trkpt>
      <trkpt lat="47.25078" lon="6.16261">
        <ele>422</ele>
        <time>2024-07-31T07:57:38Z</time>
      </trkpt>
      <trkpt lat="47.25078" lon="6.16267">
        <ele>421.8</ele>
        <time>2024-07-31T07:57:39Z</time>
      </trkpt>
      <trkpt lat="47.25077" lon="6.16273">
        <ele>421.8</ele>
        <time>2024-07-31T07:57:40Z</time>
      </trkpt>
      <trkpt lat="47.25077" lon="6.1628">
        <ele>421.6</ele>
        <time>2024-07-31T07:57:41Z</time>
      </trkpt>
      <trkpt lat="47.25077" lon="6.16287">
        <ele>421.6</ele>
        <time>2024-07-31T07:57:42Z</time>
      </trkpt>
      <trkpt lat="47.25076" lon="6.16293">
        <ele>421.8</ele>
        <time>2024-07-31T07:57:43Z</time>
      </trkpt>
      <trkpt lat="47.25075" lon="6.163">
        <ele>421.8</ele>
        <time>2024-07-31T07:57:44Z</time>
      </trkpt>
      <trkpt lat="47.25075" lon="6.16307">
        <ele>421.8</ele>
        <time>2024-07-31T07:57:45Z</time>
      </trkpt>
      <trkpt lat="47.25073" lon="6.16314">
        <ele>421.8</ele>
        <time>2024-07-31T07:57:46Z</time>
      </trkpt>
      <trkpt lat="47.25072" lon="6.16322">
        <ele>421.6</ele>
        <time>2024-07-31T07:57:47Z</time>
      </trkpt>
      <trkpt lat="47.25071" lon="6.16329">
        <ele>421.6</ele>
        <time>2024-07-31T07:57:48Z</time>
      </trkpt>
      <trkpt lat="47.2507" lon="6.16335">
        <ele>422</ele>
        <time>2024-07-31T07:57:49Z</time>
      </trkpt>
      <trkpt lat="47.25069" lon="6.16342">
        <ele>421.6</ele>
        <time>2024-07-31T07:57:50Z</time>
      </trkpt>
      <trkpt lat="47.25067" lon="6.16348">
        <ele>421.6</ele>
        <time>2024-07-31T07:57:51Z</time>
      </trkpt>
      <trkpt lat="47.25065" lon="6.16355">
        <ele>421.4</ele>
        <time>2024-07-31T07:57:52Z</time>
      </trkpt>
      <trkpt lat="47.25063" lon="6.16362">
        <ele>421.4</ele>
        <time>2024-07-31T07:57:53Z</time>
      </trkpt>
      <trkpt lat="47.25061" lon="6.16369">
        <ele>421.2</ele>
        <time>2024-07-31T07:57:54Z</time>
      </trkpt>
      <trkpt lat="47.25058" lon="6.16376">
        <ele>421.4</ele>
        <time>2024-07-31T07:57:55Z</time>
      </trkpt>
      <trkpt lat="47.25055" lon="6.16382">
        <ele>421.2</ele>
        <time>2024-07-31T07:57:56Z</time>
      </trkpt>
      <trkpt lat="47.25053" lon="6.16389">
        <ele>421.4</ele>
        <time>2024-07-31T07:57:57Z</time>
      </trkpt>
      <trkpt lat="47.25051" lon="6.16395">
        <ele>422</ele>
        <time>2024-07-31T07:57:58Z</time>
      </trkpt>
      <trkpt lat="47.25049" lon="6.16401">
        <ele>422</ele>
        <time>2024-07-31T07:57:59Z</time>
      </trkpt>
      <trkpt lat="47.25047" lon="6.16406">
        <ele>421.6</ele>
        <time>2024-07-31T07:58:00Z</time>
      </trkpt>
      <trkpt lat="47.25045" lon="6.16412">
        <ele>421.8</ele>
        <time>2024-07-31T07:58:01Z</time>
      </trkpt>
      <trkpt lat="47.25043" lon="6.16418">
        <ele>422</ele>
        <time>2024-07-31T07:58:02Z</time>
      </trkpt>
      <trkpt lat="47.25042" lon="6.16424">
        <ele>421.8</ele>
        <time>2024-07-31T07:58:03Z</time>
      </trkpt>
      <trkpt lat="47.25041" lon="6.1643">
        <ele>422.2</ele>
        <time>2024-07-31T07:58:04Z</time>
      </trkpt>
      <trkpt lat="47.25039" lon="6.16437">
        <ele>422.2</ele>
        <time>2024-07-31T07:58:05Z</time>
      </trkpt>
      <trkpt lat="47.25037" lon="6.16443">
        <ele>422.6</ele>
        <time>2024-07-31T07:58:06Z</time>
      </trkpt>
      <trkpt lat="47.25035" lon="6.16449">
        <ele>422.4</ele>
        <time>2024-07-31T07:58:07Z</time>
      </trkpt>
      <trkpt lat="47.25033" lon="6.16456">
        <ele>422.6</ele>
        <time>2024-07-31T07:58:08Z</time>
      </trkpt>
      <trkpt lat="47.25032" lon="6.16462">
        <ele>422.6</ele>
        <time>2024-07-31T07:58:09Z</time>
      </trkpt>
      <trkpt lat="47.25031" lon="6.16469">
        <ele>422.6</ele>
        <time>2024-07-31T07:58:10Z</time>
      </trkpt>
      <trkpt lat="47.2503" lon="6.16476">
        <ele>422.4</ele>
        <time>2024-07-31T07:58:11Z</time>
      </trkpt>
      <trkpt lat="47.25029" lon="6.16482">
        <ele>422.4</ele>
        <time>2024-07-31T07:58:12Z</time>
      </trkpt>
      <trkpt lat="47.25028" lon="6.16489">
        <ele>422.8</ele>
        <time>2024-07-31T07:58:13Z</time>
      </trkpt>
      <trkpt lat="47.25027" lon="6.16496">
        <ele>422.8</ele>
        <time>2024-07-31T07:58:14Z</time>
      </trkpt>
      <trkpt lat="47.25025" lon="6.16504">
        <ele>422.8</ele>
        <time>2024-07-31T07:58:15Z</time>
      </trkpt>
      <trkpt lat="47.25024" lon="6.16512">
        <ele>422.8</ele>
        <time>2024-07-31T07:58:16Z</time>
      </trkpt>
      <trkpt lat="47.25023" lon="6.1652">
        <ele>422.8</ele>
        <time>2024-07-31T07:58:17Z</time>
      </trkpt>
      <trkpt lat="47.25022" lon="6.16528">
        <ele>422.6</ele>
        <time>2024-07-31T07:58:18Z</time>
      </trkpt>
      <trkpt lat="47.25021" lon="6.16536">
        <ele>422.8</ele>
        <time>2024-07-31T07:58:19Z</time>
      </trkpt>
      <trkpt lat="47.25021" lon="6.16544">
        <ele>422.6</ele>
        <time>2024-07-31T07:58:20Z</time>
      </trkpt>
      <trkpt lat="47.2502" lon="6.16552">
        <ele>422.8</ele>
        <time>2024-07-31T07:58:21Z</time>
      </trkpt>
      <trkpt lat="47.25019" lon="6.1656">
        <ele>422.6</ele>
        <time>2024-07-31T07:58:22Z</time>
      </trkpt>
      <trkpt lat="47.25017" lon="6.16568">
        <ele>422.4</ele>
        <time>2024-07-31T07:58:23Z</time>
      </trkpt>
      <trkpt lat="47.25014" lon="6.16576">
        <ele>422.2</ele>
        <time>2024-07-31T07:58:24Z</time>
      </trkpt>
      <trkpt lat="47.25012" lon="6.16583">
        <ele>422.4</ele>
        <time>2024-07-31T07:58:25Z</time>
      </trkpt>
      <trkpt lat="47.2501" lon="6.16591">
        <ele>422</ele>
        <time>2024-07-31T07:58:26Z</time>
      </trkpt>
      <trkpt lat="47.25007" lon="6.16599">
        <ele>422</ele>
        <time>2024-07-31T07:58:27Z</time>
      </trkpt>
      <trkpt lat="47.25006" lon="6.16607">
        <ele>421.8</ele>
        <time>2024-07-31T07:58:28Z</time>
      </trkpt>
      <trkpt lat="47.25003" lon="6.16616">
        <ele>421.6</ele>
        <time>2024-07-31T07:58:29Z</time>
      </trkpt>
      <trkpt lat="47.25002" lon="6.16625">
        <ele>421.6</ele>
        <time>2024-07-31T07:58:30Z</time>
      </trkpt>
      <trkpt lat="47.25" lon="6.16634">
        <ele>421.6</ele>
        <time>2024-07-31T07:58:31Z</time>
      </trkpt>
      <trkpt lat="47.24998" lon="6.16643">
        <ele>421.6</ele>
        <time>2024-07-31T07:58:32Z</time>
      </trkpt>
      <trkpt lat="47.24996" lon="6.16651">
        <ele>421.6</ele>
        <time>2024-07-31T07:58:33Z</time>
      </trkpt>
      <trkpt lat="47.24994" lon="6.1666">
        <ele>421</ele>
        <time>2024-07-31T07:58:34Z</time>
      </trkpt>
      <trkpt lat="47.24992" lon="6.16669">
        <ele>421</ele>
        <time>2024-07-31T07:58:35Z</time>
      </trkpt>
      <trkpt lat="47.24989" lon="6.16678">
        <ele>421</ele>
        <time>2024-07-31T07:58:36Z</time>
      </trkpt>
      <trkpt lat="47.24987" lon="6.16687">
        <ele>420.8</ele>
        <time>2024-07-31T07:58:37Z</time>
      </trkpt>
      <trkpt lat="47.24985" lon="6.16696">
        <ele>420.6</ele>
        <time>2024-07-31T07:58:38Z</time>
      </trkpt>
      <trkpt lat="47.24984" lon="6.16706">
        <ele>420.4</ele>
        <time>2024-07-31T07:58:39Z</time>
      </trkpt>
      <trkpt lat="47.24982" lon="6.16714">
        <ele>420.2</ele>
        <time>2024-07-31T07:58:40Z</time>
      </trkpt>
      <trkpt lat="47.2498" lon="6.16723">
        <ele>420.2</ele>
        <time>2024-07-31T07:58:41Z</time>
      </trkpt>
      <trkpt lat="47.24977" lon="6.16732">
        <ele>420.2</ele>
        <time>2024-07-31T07:58:42Z</time>
      </trkpt>
      <trkpt lat="47.24975" lon="6.1674">
        <ele>420</ele>
        <time>2024-07-31T07:58:43Z</time>
      </trkpt>
      <trkpt lat="47.24973" lon="6.16749">
        <ele>419.6</ele>
        <time>2024-07-31T07:58:44Z</time>
      </trkpt>
      <trkpt lat="47.2497" lon="6.16757">
        <ele>419</ele>
        <time>2024-07-31T07:58:45Z</time>
      </trkpt>
      <trkpt lat="47.24968" lon="6.16766">
        <ele>419.4</ele>
        <time>2024-07-31T07:58:46Z</time>
      </trkpt>
      <trkpt lat="47.24967" lon="6.16775">
        <ele>418.8</ele>
        <time>2024-07-31T07:58:47Z</time>
      </trkpt>
      <trkpt lat="47.24965" lon="6.16785">
        <ele>418.4</ele>
        <time>2024-07-31T07:58:48Z</time>
      </trkpt>
      <trkpt lat="47.24963" lon="6.16794">
        <ele>418.4</ele>
        <time>2024-07-31T07:58:49Z</time>
      </trkpt>
      <trkpt lat="47.24961" lon="6.16804">
        <ele>418</ele>
        <time>2024-07-31T07:58:50Z</time>
      </trkpt>
      <trkpt lat="47.24958" lon="6.16813">
        <ele>417.4</ele>
        <time>2024-07-31T07:58:51Z</time>
      </trkpt>
      <trkpt lat="47.24956" lon="6.16824">
        <ele>417.4</ele>
        <time>2024-07-31T07:58:52Z</time>
      </trkpt>
      <trkpt lat="47.24954" lon="6.16834">
        <ele>416.8</ele>
        <time>2024-07-31T07:58:53Z</time>
      </trkpt>
      <trkpt lat="47.24952" lon="6.16844">
        <ele>416.8</ele>
        <time>2024-07-31T07:58:54Z</time>
      </trkpt>
      <trkpt lat="47.2495" lon="6.16855">
        <ele>416.6</ele>
        <time>2024-07-31T07:58:55Z</time>
      </trkpt>
      <trkpt lat="47.24949" lon="6.16866">
        <ele>416.2</ele>
        <time>2024-07-31T07:58:56Z</time>
      </trkpt>
      <trkpt lat="47.24948" lon="6.16877">
        <ele>415.8</ele>
        <time>2024-07-31T07:58:57Z</time>
      </trkpt>
      <trkpt lat="47.24947" lon="6.16888">
        <ele>415.4</ele>
        <time>2024-07-31T07:58:58Z</time>
      </trkpt>
      <trkpt lat="47.24946" lon="6.16899">
        <ele>414</ele>
        <time>2024-07-31T07:58:59Z</time>
      </trkpt>
      <trkpt lat="47.24946" lon="6.16909">
        <ele>414.4</ele>
        <time>2024-07-31T07:59:00Z</time>
      </trkpt>
      <trkpt lat="47.24947" lon="6.16917">
        <ele>413.6</ele>
        <time>2024-07-31T07:59:01Z</time>
      </trkpt>
      <trkpt lat="47.24947" lon="6.16925">
        <ele>413.2</ele>
        <time>2024-07-31T07:59:02Z</time>
      </trkpt>
      <trkpt lat="47.24947" lon="6.16932">
        <ele>412.8</ele>
        <time>2024-07-31T07:59:03Z</time>
      </trkpt>
      <trkpt lat="47.24947" lon="6.16939">
        <ele>412.4</ele>
        <time>2024-07-31T07:59:04Z</time>
      </trkpt>
      <trkpt lat="47.24946" lon="6.16946">
        <ele>412</ele>
        <time>2024-07-31T07:59:05Z</time>
      </trkpt>
      <trkpt lat="47.24947" lon="6.16953">
        <ele>411.8</ele>
        <time>2024-07-31T07:59:06Z</time>
      </trkpt>
      <trkpt lat="47.24947" lon="6.1696">
        <ele>411.6</ele>
        <time>2024-07-31T07:59:07Z</time>
      </trkpt>
      <trkpt lat="47.24947" lon="6.16968">
        <ele>411.2</ele>
        <time>2024-07-31T07:59:08Z</time>
      </trkpt>
      <trkpt lat="47.24947" lon="6.16977">
        <ele>411</ele>
        <time>2024-07-31T07:59:09Z</time>
      </trkpt>
      <trkpt lat="47.24948" lon="6.16985">
        <ele>410.6</ele>
        <time>2024-07-31T07:59:10Z</time>
      </trkpt>
      <trkpt lat="47.2495" lon="6.16994">
        <ele>410</ele>
        <time>2024-07-31T07:59:11Z</time>
      </trkpt>
      <trkpt lat="47.24951" lon="6.17001">
        <ele>410</ele>
        <time>2024-07-31T07:59:12Z</time>
      </trkpt>
      <trkpt lat="47.24952" lon="6.17009">
        <ele>409.4</ele>
        <time>2024-07-31T07:59:13Z</time>
      </trkpt>
      <trkpt lat="47.24953" lon="6.17017">
        <ele>409.6</ele>
        <time>2024-07-31T07:59:14Z</time>
      </trkpt>
      <trkpt lat="47.24955" lon="6.17025">
        <ele>409.4</ele>
        <time>2024-07-31T07:59:15Z</time>
      </trkpt>
      <trkpt lat="47.24956" lon="6.17033">
        <ele>409.4</ele>
        <time>2024-07-31T07:59:16Z</time>
      </trkpt>
      <trkpt lat="47.24957" lon="6.17042">
        <ele>408.8</ele>
        <time>2024-07-31T07:59:17Z</time>
      </trkpt>
      <trkpt lat="47.24959" lon="6.1705">
        <ele>408.4</ele>
        <time>2024-07-31T07:59:18Z</time>
      </trkpt>
      <trkpt lat="47.2496" lon="6.17059">
        <ele>407.2</ele>
        <time>2024-07-31T07:59:19Z</time>
      </trkpt>
      <trkpt lat="47.2496" lon="6.17069">
        <ele>407</ele>
        <time>2024-07-31T07:59:20Z</time>
      </trkpt>
      <trkpt lat="47.24959" lon="6.17078">
        <ele>406</ele>
        <time>2024-07-31T07:59:21Z</time>
      </trkpt>
      <trkpt lat="47.24958" lon="6.17086">
        <ele>405.4</ele>
        <time>2024-07-31T07:59:22Z</time>
      </trkpt>
      <trkpt lat="47.24957" lon="6.17094">
        <ele>404.6</ele>
        <time>2024-07-31T07:59:23Z</time>
      </trkpt>
      <trkpt lat="47.24956" lon="6.17101">
        <ele>404</ele>
        <time>2024-07-31T07:59:24Z</time>
      </trkpt>
      <trkpt lat="47.24954" lon="6.17107">
        <ele>403.2</ele>
        <time>2024-07-31T07:59:25Z</time>
      </trkpt>
      <trkpt lat="47.24953" lon="6.17112">
        <ele>402.8</ele>
        <time>2024-07-31T07:59:26Z</time>
      </trkpt>
      <trkpt lat="47.24949" lon="6.17115">
        <ele>402.6</ele>
        <time>2024-07-31T07:59:27Z</time>
      </trkpt>
      <trkpt lat="47.24948" lon="6.17117">
        <ele>402.4</ele>
        <time>2024-07-31T07:59:28Z</time>
      </trkpt>
      <trkpt lat="47.24947" lon="6.17119">
        <ele>402</ele>
        <time>2024-07-31T07:59:29Z</time>
      </trkpt>
      <trkpt lat="47.24946" lon="6.17122">
        <ele>402</ele>
        <time>2024-07-31T07:59:30Z</time>
      </trkpt>
      <trkpt lat="47.24945" lon="6.17124">
        <ele>401.6</ele>
        <time>2024-07-31T07:59:31Z</time>
      </trkpt>
      <trkpt lat="47.24944" lon="6.17126">
        <ele>401.4</ele>
        <time>2024-07-31T07:59:32Z</time>
      </trkpt>
      <trkpt lat="47.24943" lon="6.17127">
        <ele>401.6</ele>
        <time>2024-07-31T07:59:33Z</time>
      </trkpt>
      <trkpt lat="47.24942" lon="6.17129">
        <ele>401.4</ele>
        <time>2024-07-31T07:59:34Z</time>
      </trkpt>
      <trkpt lat="47.2494" lon="6.17131">
        <ele>401.4</ele>
        <time>2024-07-31T07:59:35Z</time>
      </trkpt>
      <trkpt lat="47.24938" lon="6.17133">
        <ele>401.2</ele>
        <time>2024-07-31T07:59:36Z</time>
      </trkpt>
      <trkpt lat="47.24935" lon="6.17135">
        <ele>401.6</ele>
        <time>2024-07-31T07:59:37Z</time>
      </trkpt>
      <trkpt lat="47.24933" lon="6.17136">
        <ele>401.6</ele>
        <time>2024-07-31T07:59:38Z</time>
      </trkpt>
      <trkpt lat="47.2493" lon="6.17138">
        <ele>401.4</ele>
        <time>2024-07-31T07:59:39Z</time>
      </trkpt>
      <trkpt lat="47.24927" lon="6.17141">
        <ele>401.6</ele>
        <time>2024-07-31T07:59:40Z</time>
      </trkpt>
      <trkpt lat="47.24924" lon="6.17144">
        <ele>401.8</ele>
        <time>2024-07-31T07:59:41Z</time>
      </trkpt>
      <trkpt lat="47.24922" lon="6.17148">
        <ele>401.6</ele>
        <time>2024-07-31T07:59:42Z</time>
      </trkpt>
      <trkpt lat="47.24919" lon="6.17151">
        <ele>401.4</ele>
        <time>2024-07-31T07:59:43Z</time>
      </trkpt>
      <trkpt lat="47.24917" lon="6.17153">
        <ele>401.6</ele>
        <time>2024-07-31T07:59:44Z</time>
      </trkpt>
      <trkpt lat="47.24914" lon="6.17155">
        <ele>401.2</ele>
        <time>2024-07-31T07:59:45Z</time>
      </trkpt>
      <trkpt lat="47.24912" lon="6.17158">
        <ele>401.6</ele>
        <time>2024-07-31T07:59:46Z</time>
      </trkpt>
      <trkpt lat="47.2491" lon="6.1716">
        <ele>401.6</ele>
        <time>2024-07-31T07:59:47Z</time>
      </trkpt>
      <trkpt lat="47.24908" lon="6.17163">
        <ele>401.6</ele>
        <time>2024-07-31T07:59:48Z</time>
      </trkpt>
      <trkpt lat="47.24906" lon="6.17166">
        <ele>401.6</ele>
        <time>2024-07-31T07:59:49Z</time>
      </trkpt>
      <trkpt lat="47.24904" lon="6.1717">
        <ele>401.4</ele>
        <time>2024-07-31T07:59:50Z</time>
      </trkpt>
      <trkpt lat="47.24903" lon="6.17173">
        <ele>402</ele>
        <time>2024-07-31T07:59:51Z</time>
      </trkpt>
      <trkpt lat="47.24902" lon="6.17176">
        <ele>401.8</ele>
        <time>2024-07-31T07:59:52Z</time>
      </trkpt>
      <trkpt lat="47.249" lon="6.17179">
        <ele>401.8</ele>
        <time>2024-07-31T07:59:53Z</time>
      </trkpt>
      <trkpt lat="47.24899" lon="6.17181">
        <ele>402</ele>
        <time>2024-07-31T07:59:54Z</time>
      </trkpt>
      <trkpt lat="47.24897" lon="6.17184">
        <ele>402.2</ele>
        <time>2024-07-31T07:59:55Z</time>
      </trkpt>
      <trkpt lat="47.24897" lon="6.17186">
        <ele>402.2</ele>
        <time>2024-07-31T07:59:56Z</time>
      </trkpt>
      <trkpt lat="47.24896" lon="6.17189">
        <ele>402.4</ele>
        <time>2024-07-31T07:59:57Z</time>
      </trkpt>
      <trkpt lat="47.24895" lon="6.17192">
        <ele>402.4</ele>
        <time>2024-07-31T07:59:58Z</time>
      </trkpt>
      <trkpt lat="47.24895" lon="6.17194">
        <ele>402.6</ele>
        <time>2024-07-31T07:59:59Z</time>
      </trkpt>
      <trkpt lat="47.24895" lon="6.17196">
        <ele>402.6</ele>
        <time>2024-07-31T08:00:00Z</time>
      </trkpt>
      <trkpt lat="47.24894" lon="6.17199">
        <ele>402.6</ele>
        <time>2024-07-31T08:00:01Z</time>
      </trkpt>
      <trkpt lat="47.24894" lon="6.17202">
        <ele>402.8</ele>
        <time>2024-07-31T08:00:02Z</time>
      </trkpt>
      <trkpt lat="47.24893" lon="6.17205">
        <ele>402.8</ele>
        <time>2024-07-31T08:00:03Z</time>
      </trkpt>
      <trkpt lat="47.24893" lon="6.17208">
        <ele>402.8</ele>
        <time>2024-07-31T08:00:04Z</time>
      </trkpt>
      <trkpt lat="47.24892" lon="6.17211">
        <ele>403</ele>
        <time>2024-07-31T08:00:05Z</time>
      </trkpt>
      <trkpt lat="47.24892" lon="6.17214">
        <ele>403.2</ele>
        <time>2024-07-31T08:00:06Z</time>
      </trkpt>
      <trkpt lat="47.24892" lon="6.17218">
        <ele>403.4</ele>
        <time>2024-07-31T08:00:07Z</time>
      </trkpt>
      <trkpt lat="47.24892" lon="6.17221">
        <ele>403.6</ele>
        <time>2024-07-31T08:00:08Z</time>
      </trkpt>
      <trkpt lat="47.24892" lon="6.17225">
        <ele>403.8</ele>
        <time>2024-07-31T08:00:09Z</time>
      </trkpt>
      <trkpt lat="47.24891" lon="6.17229">
        <ele>404</ele>
        <time>2024-07-31T08:00:10Z</time>
      </trkpt>
      <trkpt lat="47.24891" lon="6.17234">
        <ele>404.2</ele>
        <time>2024-07-31T08:00:11Z</time>
      </trkpt>
      <trkpt lat="47.24891" lon="6.17238">
        <ele>404.4</ele>
        <time>2024-07-31T08:00:12Z</time>
      </trkpt>
      <trkpt lat="47.24892" lon="6.17243">
        <ele>404.8</ele>
        <time>2024-07-31T08:00:13Z</time>
      </trkpt>
      <trkpt lat="47.24892" lon="6.17247">
        <ele>404.8</ele>
        <time>2024-07-31T08:00:14Z</time>
      </trkpt>
      <trkpt lat="47.24892" lon="6.17251">
        <ele>404.8</ele>
        <time>2024-07-31T08:00:15Z</time>
      </trkpt>
      <trkpt lat="47.24893" lon="6.17255">
        <ele>405.4</ele>
        <time>2024-07-31T08:00:16Z</time>
      </trkpt>
      <trkpt lat="47.24893" lon="6.17259">
        <ele>405.4</ele>
        <time>2024-07-31T08:00:17Z</time>
      </trkpt>
      <trkpt lat="47.24893" lon="6.17263">
        <ele>405.8</ele>
        <time>2024-07-31T08:00:18Z</time>
      </trkpt>
      <trkpt lat="47.24893" lon="6.17267">
        <ele>406.4</ele>
        <time>2024-07-31T08:00:19Z</time>
      </trkpt>
      <trkpt lat="47.24893" lon="6.17271">
        <ele>406.4</ele>
        <time>2024-07-31T08:00:20Z</time>
      </trkpt>
      <trkpt lat="47.24893" lon="6.17275">
        <ele>406.4</ele>
        <time>2024-07-31T08:00:21Z</time>
      </trkpt>
      <trkpt lat="47.24893" lon="6.17279">
        <ele>406.4</ele>
        <time>2024-07-31T08:00:22Z</time>
      </trkpt>
      <trkpt lat="47.24893" lon="6.17283">
        <ele>406.6</ele>
        <time>2024-07-31T08:00:23Z</time>
      </trkpt>
      <trkpt lat="47.24893" lon="6.17287">
        <ele>406.8</ele>
        <time>2024-07-31T08:00:24Z</time>
      </trkpt>
      <trkpt lat="47.24892" lon="6.17292">
        <ele>406.8</ele>
        <time>2024-07-31T08:00:25Z</time>
      </trkpt>
      <trkpt lat="47.24891" lon="6.17296">
        <ele>407.2</ele>
        <time>2024-07-31T08:00:26Z</time>
      </trkpt>
      <trkpt lat="47.2489" lon="6.173">
        <ele>407.4</ele>
        <time>2024-07-31T08:00:27Z</time>
      </trkpt>
      <trkpt lat="47.24889" lon="6.17305">
        <ele>407.4</ele>
        <time>2024-07-31T08:00:28Z</time>
      </trkpt>
      <trkpt lat="47.24888" lon="6.17309">
        <ele>407.8</ele>
        <time>2024-07-31T08:00:29Z</time>
      </trkpt>
      <trkpt lat="47.24886" lon="6.17312">
        <ele>408</ele>
        <time>2024-07-31T08:00:30Z</time>
      </trkpt>
      <trkpt lat="47.24884" lon="6.17316">
        <ele>408.4</ele>
        <time>2024-07-31T08:00:31Z</time>
      </trkpt>
      <trkpt lat="47.24882" lon="6.17319">
        <ele>408.4</ele>
        <time>2024-07-31T08:00:32Z</time>
      </trkpt>
      <trkpt lat="47.2488" lon="6.17323">
        <ele>408.4</ele>
        <time>2024-07-31T08:00:33Z</time>
      </trkpt>
      <trkpt lat="47.24877" lon="6.17327">
        <ele>408.4</ele>
        <time>2024-07-31T08:00:34Z</time>
      </trkpt>
      <trkpt lat="47.24875" lon="6.1733">
        <ele>408.6</ele>
        <time>2024-07-31T08:00:35Z</time>
      </trkpt>
      <trkpt lat="47.24872" lon="6.17335">
        <ele>408.4</ele>
        <time>2024-07-31T08:00:36Z</time>
      </trkpt>
      <trkpt lat="47.2487" lon="6.17339">
        <ele>408.6</ele>
        <time>2024-07-31T08:00:37Z</time>
      </trkpt>
      <trkpt lat="47.24867" lon="6.17343">
        <ele>408.6</ele>
        <time>2024-07-31T08:00:38Z</time>
      </trkpt>
      <trkpt lat="47.24865" lon="6.17348">
        <ele>408.6</ele>
        <time>2024-07-31T08:00:39Z</time>
      </trkpt>
      <trkpt lat="47.24862" lon="6.17352">
        <ele>408.6</ele>
        <time>2024-07-31T08:00:40Z</time>
      </trkpt>
      <trkpt lat="47.24859" lon="6.17357">
        <ele>408.6</ele>
        <time>2024-07-31T08:00:41Z</time>
      </trkpt>
      <trkpt lat="47.24857" lon="6.17361">
        <ele>408.8</ele>
        <time>2024-07-31T08:00:42Z</time>
      </trkpt>
      <trkpt lat="47.24854" lon="6.17366">
        <ele>408.8</ele>
        <time>2024-07-31T08:00:43Z</time>
      </trkpt>
      <trkpt lat="47.24851" lon="6.1737">
        <ele>408.8</ele>
        <time>2024-07-31T08:00:44Z</time>
      </trkpt>
      <trkpt lat="47.24848" lon="6.17375">
        <ele>408.8</ele>
        <time>2024-07-31T08:00:45Z</time>
      </trkpt>
      <trkpt lat="47.24846" lon="6.17379">
        <ele>408.8</ele>
        <time>2024-07-31T08:00:46Z</time>
      </trkpt>
      <trkpt lat="47.24842" lon="6.17384">
        <ele>408.8</ele>
        <time>2024-07-31T08:00:47Z</time>
      </trkpt>
      <trkpt lat="47.24839" lon="6.17388">
        <ele>409</ele>
        <time>2024-07-31T08:00:48Z</time>
      </trkpt>
      <trkpt lat="47.24836" lon="6.17393">
        <ele>409</ele>
        <time>2024-07-31T08:00:49Z</time>
      </trkpt>
      <trkpt lat="47.24833" lon="6.17398">
        <ele>409</ele>
        <time>2024-07-31T08:00:50Z</time>
      </trkpt>
      <trkpt lat="47.2483" lon="6.17403">
        <ele>409</ele>
        <time>2024-07-31T08:00:51Z</time>
      </trkpt>
      <trkpt lat="47.24827" lon="6.17408">
        <ele>409</ele>
        <time>2024-07-31T08:00:52Z</time>
      </trkpt>
      <trkpt lat="47.24824" lon="6.17412">
        <ele>409</ele>
        <time>2024-07-31T08:00:53Z</time>
      </trkpt>
      <trkpt lat="47.24821" lon="6.17416">
        <ele>409</ele>
        <time>2024-07-31T08:00:54Z</time>
      </trkpt>
      <trkpt lat="47.24817" lon="6.17421">
        <ele>409</ele>
        <time>2024-07-31T08:00:55Z</time>
      </trkpt>
      <trkpt lat="47.24814" lon="6.17425">
        <ele>409</ele>
        <time>2024-07-31T08:00:56Z</time>
      </trkpt>
      <trkpt lat="47.2481" lon="6.17429">
        <ele>409</ele>
        <time>2024-07-31T08:00:57Z</time>
      </trkpt>
      <trkpt lat="47.24807" lon="6.17433">
        <ele>409.2</ele>
        <time>2024-07-31T08:00:58Z</time>
      </trkpt>
      <trkpt lat="47.24803" lon="6.17437">
        <ele>409</ele>
        <time>2024-07-31T08:00:59Z</time>
      </trkpt>
      <trkpt lat="47.248" lon="6.17442">
        <ele>409.2</ele>
        <time>2024-07-31T08:01:00Z</time>
      </trkpt>
      <trkpt lat="47.24798" lon="6.17446">
        <ele>409.2</ele>
        <time>2024-07-31T08:01:01Z</time>
      </trkpt>
      <trkpt lat="47.24795" lon="6.17451">
        <ele>409.2</ele>
        <time>2024-07-31T08:01:02Z</time>
      </trkpt>
      <trkpt lat="47.24793" lon="6.17457">
        <ele>409.2</ele>
        <time>2024-07-31T08:01:03Z</time>
      </trkpt>
      <trkpt lat="47.24792" lon="6.17463">
        <ele>409.2</ele>
        <time>2024-07-31T08:01:04Z</time>
      </trkpt>
      <trkpt lat="47.24792" lon="6.17468">
        <ele>409.4</ele>
        <time>2024-07-31T08:01:05Z</time>
      </trkpt>
      <trkpt lat="47.24794" lon="6.17474">
        <ele>409.4</ele>
        <time>2024-07-31T08:01:06Z</time>
      </trkpt>
      <trkpt lat="47.24795" lon="6.1748">
        <ele>409.4</ele>
        <time>2024-07-31T08:01:07Z</time>
      </trkpt>
      <trkpt lat="47.24797" lon="6.17486">
        <ele>409.4</ele>
        <time>2024-07-31T08:01:08Z</time>
      </trkpt>
      <trkpt lat="47.24799" lon="6.17493">
        <ele>409.6</ele>
        <time>2024-07-31T08:01:09Z</time>
      </trkpt>
      <trkpt lat="47.24801" lon="6.17499">
        <ele>409.8</ele>
        <time>2024-07-31T08:01:10Z</time>
      </trkpt>
      <trkpt lat="47.24803" lon="6.17505">
        <ele>410</ele>
        <time>2024-07-31T08:01:11Z</time>
      </trkpt>
      <trkpt lat="47.24805" lon="6.1751">
        <ele>410.2</ele>
        <time>2024-07-31T08:01:12Z</time>
      </trkpt>
      <trkpt lat="47.24807" lon="6.17516">
        <ele>410.2</ele>
        <time>2024-07-31T08:01:13Z</time>
      </trkpt>
      <trkpt lat="47.24809" lon="6.17522">
        <ele>410.8</ele>
        <time>2024-07-31T08:01:14Z</time>
      </trkpt>
      <trkpt lat="47.24811" lon="6.17527">
        <ele>410.8</ele>
        <time>2024-07-31T08:01:15Z</time>
      </trkpt>
      <trkpt lat="47.24813" lon="6.17532">
        <ele>411</ele>
        <time>2024-07-31T08:01:16Z</time>
      </trkpt>
      <trkpt lat="47.24815" lon="6.17538">
        <ele>411.2</ele>
        <time>2024-07-31T08:01:17Z</time>
      </trkpt>
      <trkpt lat="47.24816" lon="6.17543">
        <ele>411.4</ele>
        <time>2024-07-31T08:01:18Z</time>
      </trkpt>
      <trkpt lat="47.24819" lon="6.17549">
        <ele>411.4</ele>
        <time>2024-07-31T08:01:19Z</time>
      </trkpt>
      <trkpt lat="47.24821" lon="6.17554">
        <ele>411.4</ele>
        <time>2024-07-31T08:01:20Z</time>
      </trkpt>
      <trkpt lat="47.24823" lon="6.17559">
        <ele>411.4</ele>
        <time>2024-07-31T08:01:21Z</time>
      </trkpt>
      <trkpt lat="47.24825" lon="6.17565">
        <ele>411.4</ele>
        <time>2024-07-31T08:01:22Z</time>
      </trkpt>
      <trkpt lat="47.24827" lon="6.1757">
        <ele>411.4</ele>
        <time>2024-07-31T08:01:23Z</time>
      </trkpt>
      <trkpt lat="47.24829" lon="6.17576">
        <ele>411.4</ele>
        <time>2024-07-31T08:01:24Z</time>
      </trkpt>
      <trkpt lat="47.24831" lon="6.17582">
        <ele>411.6</ele>
        <time>2024-07-31T08:01:25Z</time>
      </trkpt>
      <trkpt lat="47.24833" lon="6.17588">
        <ele>411.6</ele>
        <time>2024-07-31T08:01:26Z</time>
      </trkpt>
      <trkpt lat="47.24835" lon="6.17594">
        <ele>411.6</ele>
        <time>2024-07-31T08:01:27Z</time>
      </trkpt>
      <trkpt lat="47.24837" lon="6.176">
        <ele>411.6</ele>
        <time>2024-07-31T08:01:28Z</time>
      </trkpt>
      <trkpt lat="47.24839" lon="6.17606">
        <ele>411.6</ele>
        <time>2024-07-31T08:01:29Z</time>
      </trkpt>
      <trkpt lat="47.24841" lon="6.17611">
        <ele>411.6</ele>
        <time>2024-07-31T08:01:30Z</time>
      </trkpt>
      <trkpt lat="47.24843" lon="6.17617">
        <ele>411.8</ele>
        <time>2024-07-31T08:01:31Z</time>
      </trkpt>
      <trkpt lat="47.24845" lon="6.17622">
        <ele>412</ele>
        <time>2024-07-31T08:01:32Z</time>
      </trkpt>
      <trkpt lat="47.24847" lon="6.17628">
        <ele>412</ele>
        <time>2024-07-31T08:01:33Z</time>
      </trkpt>
      <trkpt lat="47.24849" lon="6.17634">
        <ele>411.8</ele>
        <time>2024-07-31T08:01:34Z</time>
      </trkpt>
      <trkpt lat="47.24851" lon="6.17639">
        <ele>412</ele>
        <time>2024-07-31T08:01:35Z</time>
      </trkpt>
      <trkpt lat="47.24854" lon="6.17644">
        <ele>412.2</ele>
        <time>2024-07-31T08:01:36Z</time>
      </trkpt>
      <trkpt lat="47.24856" lon="6.1765">
        <ele>412.2</ele>
        <time>2024-07-31T08:01:37Z</time>
      </trkpt>
      <trkpt lat="47.24859" lon="6.17655">
        <ele>412.2</ele>
        <time>2024-07-31T08:01:38Z</time>
      </trkpt>
      <trkpt lat="47.24861" lon="6.1766">
        <ele>412.2</ele>
        <time>2024-07-31T08:01:39Z</time>
      </trkpt>
      <trkpt lat="47.24865" lon="6.17665">
        <ele>412.4</ele>
        <time>2024-07-31T08:01:40Z</time>
      </trkpt>
      <trkpt lat="47.24868" lon="6.1767">
        <ele>412</ele>
        <time>2024-07-31T08:01:41Z</time>
      </trkpt>
      <trkpt lat="47.24871" lon="6.17675">
        <ele>412</ele>
        <time>2024-07-31T08:01:42Z</time>
      </trkpt>
      <trkpt lat="47.24875" lon="6.1768">
        <ele>411.8</ele>
        <time>2024-07-31T08:01:43Z</time>
      </trkpt>
      <trkpt lat="47.24878" lon="6.17685">
        <ele>411.6</ele>
        <time>2024-07-31T08:01:44Z</time>
      </trkpt>
      <trkpt lat="47.24882" lon="6.1769">
        <ele>411.6</ele>
        <time>2024-07-31T08:01:45Z</time>
      </trkpt>
      <trkpt lat="47.24885" lon="6.17696">
        <ele>411.4</ele>
        <time>2024-07-31T08:01:46Z</time>
      </trkpt>
      <trkpt lat="47.24889" lon="6.17701">
        <ele>411.2</ele>
        <time>2024-07-31T08:01:47Z</time>
      </trkpt>
      <trkpt lat="47.24893" lon="6.17707">
        <ele>411.2</ele>
        <time>2024-07-31T08:01:48Z</time>
      </trkpt>
      <trkpt lat="47.24896" lon="6.17713">
        <ele>411</ele>
        <time>2024-07-31T08:01:49Z</time>
      </trkpt>
      <trkpt lat="47.249" lon="6.17719">
        <ele>411</ele>
        <time>2024-07-31T08:01:50Z</time>
      </trkpt>
      <trkpt lat="47.24904" lon="6.17725">
        <ele>411</ele>
        <time>2024-07-31T08:01:51Z</time>
      </trkpt>
      <trkpt lat="47.24907" lon="6.17732">
        <ele>410.6</ele>
        <time>2024-07-31T08:01:52Z</time>
      </trkpt>
      <trkpt lat="47.2491" lon="6.17737">
        <ele>410.2</ele>
        <time>2024-07-31T08:01:53Z</time>
      </trkpt>
      <trkpt lat="47.24912" lon="6.17743">
        <ele>409.8</ele>
        <time>2024-07-31T08:01:54Z</time>
      </trkpt>
      <trkpt lat="47.24914" lon="6.17749">
        <ele>409.6</ele>
        <time>2024-07-31T08:01:55Z</time>
      </trkpt>
      <trkpt lat="47.24917" lon="6.17755">
        <ele>409.2</ele>
        <time>2024-07-31T08:01:56Z</time>
      </trkpt>
      <trkpt lat="47.24918" lon="6.1776">
        <ele>408.8</ele>
        <time>2024-07-31T08:01:57Z</time>
      </trkpt>
      <trkpt lat="47.2492" lon="6.17765">
        <ele>408.2</ele>
        <time>2024-07-31T08:01:58Z</time>
      </trkpt>
      <trkpt lat="47.24921" lon="6.17769">
        <ele>408</ele>
        <time>2024-07-31T08:01:59Z</time>
      </trkpt>
      <trkpt lat="47.24922" lon="6.17774">
        <ele>408</ele>
        <time>2024-07-31T08:02:00Z</time>
      </trkpt>
      <trkpt lat="47.24922" lon="6.17779">
        <ele>407.8</ele>
        <time>2024-07-31T08:02:01Z</time>
      </trkpt>
      <trkpt lat="47.24923" lon="6.17784">
        <ele>407.8</ele>
        <time>2024-07-31T08:02:02Z</time>
      </trkpt>
      <trkpt lat="47.24923" lon="6.17789">
        <ele>407.8</ele>
        <time>2024-07-31T08:02:03Z</time>
      </trkpt>
      <trkpt lat="47.24923" lon="6.17795">
        <ele>407.8</ele>
        <time>2024-07-31T08:02:04Z</time>
      </trkpt>
      <trkpt lat="47.24922" lon="6.17801">
        <ele>407.8</ele>
        <time>2024-07-31T08:02:05Z</time>
      </trkpt>
      <trkpt lat="47.24922" lon="6.17808">
        <ele>407.6</ele>
        <time>2024-07-31T08:02:06Z</time>
      </trkpt>
      <trkpt lat="47.24921" lon="6.17815">
        <ele>407.2</ele>
        <time>2024-07-31T08:02:07Z</time>
      </trkpt>
      <trkpt lat="47.2492" lon="6.17822">
        <ele>406.8</ele>
        <time>2024-07-31T08:02:08Z</time>
      </trkpt>
      <trkpt lat="47.24919" lon="6.1783">
        <ele>406.6</ele>
        <time>2024-07-31T08:02:09Z</time>
      </trkpt>
      <trkpt lat="47.24918" lon="6.17838">
        <ele>406</ele>
        <time>2024-07-31T08:02:10Z</time>
      </trkpt>
      <trkpt lat="47.24917" lon="6.17846">
        <ele>405.2</ele>
        <time>2024-07-31T08:02:11Z</time>
      </trkpt>
      <trkpt lat="47.24917" lon="6.17855">
        <ele>405.2</ele>
        <time>2024-07-31T08:02:12Z</time>
      </trkpt>
      <trkpt lat="47.24916" lon="6.17863">
        <ele>404.6</ele>
        <time>2024-07-31T08:02:13Z</time>
      </trkpt>
      <trkpt lat="47.24915" lon="6.17871">
        <ele>404</ele>
        <time>2024-07-31T08:02:14Z</time>
      </trkpt>
      <trkpt lat="47.24914" lon="6.17878">
        <ele>403.4</ele>
        <time>2024-07-31T08:02:15Z</time>
      </trkpt>
      <trkpt lat="47.24913" lon="6.17885">
        <ele>402.6</ele>
        <time>2024-07-31T08:02:16Z</time>
      </trkpt>
      <trkpt lat="47.24911" lon="6.1789">
        <ele>402.2</ele>
        <time>2024-07-31T08:02:17Z</time>
      </trkpt>
      <trkpt lat="47.24909" lon="6.17896">
        <ele>402</ele>
        <time>2024-07-31T08:02:18Z</time>
      </trkpt>
      <trkpt lat="47.24906" lon="6.17901">
        <ele>401.8</ele>
        <time>2024-07-31T08:02:19Z</time>
      </trkpt>
      <trkpt lat="47.24904" lon="6.17907">
        <ele>401.8</ele>
        <time>2024-07-31T08:02:20Z</time>
      </trkpt>
      <trkpt lat="47.24901" lon="6.17912">
        <ele>401.8</ele>
        <time>2024-07-31T08:02:21Z</time>
      </trkpt>
      <trkpt lat="47.24898" lon="6.17917">
        <ele>401.4</ele>
        <time>2024-07-31T08:02:22Z</time>
      </trkpt>
      <trkpt lat="47.24896" lon="6.17923">
        <ele>401.4</ele>
        <time>2024-07-31T08:02:23Z</time>
      </trkpt>
      <trkpt lat="47.24894" lon="6.17928">
        <ele>401.2</ele>
        <time>2024-07-31T08:02:24Z</time>
      </trkpt>
      <trkpt lat="47.24893" lon="6.17934">
        <ele>401.2</ele>
        <time>2024-07-31T08:02:25Z</time>
      </trkpt>
      <trkpt lat="47.24893" lon="6.1794">
        <ele>401.2</ele>
        <time>2024-07-31T08:02:26Z</time>
      </trkpt>
      <trkpt lat="47.24895" lon="6.17946">
        <ele>401.2</ele>
        <time>2024-07-31T08:02:27Z</time>
      </trkpt>
      <trkpt lat="47.24897" lon="6.17953">
        <ele>401</ele>
        <time>2024-07-31T08:02:28Z</time>
      </trkpt>
      <trkpt lat="47.24899" lon="6.17959">
        <ele>401</ele>
        <time>2024-07-31T08:02:29Z</time>
      </trkpt>
      <trkpt lat="47.24901" lon="6.17966">
        <ele>401</ele>
        <time>2024-07-31T08:02:30Z</time>
      </trkpt>
      <trkpt lat="47.24904" lon="6.17973">
        <ele>401.2</ele>
        <time>2024-07-31T08:02:31Z</time>
      </trkpt>
      <trkpt lat="47.24906" lon="6.1798">
        <ele>401.2</ele>
        <time>2024-07-31T08:02:32Z</time>
      </trkpt>
      <trkpt lat="47.24909" lon="6.17987">
        <ele>401.6</ele>
        <time>2024-07-31T08:02:33Z</time>
      </trkpt>
      <trkpt lat="47.24911" lon="6.17994">
        <ele>401.6</ele>
        <time>2024-07-31T08:02:34Z</time>
      </trkpt>
      <trkpt lat="47.24913" lon="6.18">
        <ele>401.6</ele>
        <time>2024-07-31T08:02:35Z</time>
      </trkpt>
      <trkpt lat="47.24915" lon="6.18006">
        <ele>401.6</ele>
        <time>2024-07-31T08:02:36Z</time>
      </trkpt>
      <trkpt lat="47.24918" lon="6.18012">
        <ele>401.8</ele>
        <time>2024-07-31T08:02:37Z</time>
      </trkpt>
      <trkpt lat="47.24919" lon="6.18017">
        <ele>401.8</ele>
        <time>2024-07-31T08:02:38Z</time>
      </trkpt>
      <trkpt lat="47.24918" lon="6.18023">
        <ele>401.8</ele>
        <time>2024-07-31T08:02:39Z</time>
      </trkpt>
      <trkpt lat="47.24917" lon="6.18028">
        <ele>401.8</ele>
        <time>2024-07-31T08:02:40Z</time>
      </trkpt>
      <trkpt lat="47.24914" lon="6.18033">
        <ele>401.8</ele>
        <time>2024-07-31T08:02:41Z</time>
      </trkpt>
      <trkpt lat="47.24911" lon="6.18037">
        <ele>401.6</ele>
        <time>2024-07-31T08:02:42Z</time>
      </trkpt>
      <trkpt lat="47.24907" lon="6.18042">
        <ele>401.4</ele>
        <time>2024-07-31T08:02:43Z</time>
      </trkpt>
      <trkpt lat="47.24903" lon="6.18047">
        <ele>401.6</ele>
        <time>2024-07-31T08:02:44Z</time>
      </trkpt>
      <trkpt lat="47.24899" lon="6.18052">
        <ele>401.6</ele>
        <time>2024-07-31T08:02:45Z</time>
      </trkpt>
      <trkpt lat="47.24895" lon="6.18058">
        <ele>401.4</ele>
        <time>2024-07-31T08:02:46Z</time>
      </trkpt>
      <trkpt lat="47.24891" lon="6.18063">
        <ele>401.6</ele>
        <time>2024-07-31T08:02:47Z</time>
      </trkpt>
      <trkpt lat="47.24887" lon="6.18069">
        <ele>401.4</ele>
        <time>2024-07-31T08:02:48Z</time>
      </trkpt>
      <trkpt lat="47.24883" lon="6.18075">
        <ele>401.2</ele>
        <time>2024-07-31T08:02:49Z</time>
      </trkpt>
      <trkpt lat="47.24878" lon="6.18081">
        <ele>401.2</ele>
        <time>2024-07-31T08:02:50Z</time>
      </trkpt>
      <trkpt lat="47.24874" lon="6.18087">
        <ele>401.2</ele>
        <time>2024-07-31T08:02:51Z</time>
      </trkpt>
      <trkpt lat="47.2487" lon="6.18093">
        <ele>401.2</ele>
        <time>2024-07-31T08:02:52Z</time>
      </trkpt>
      <trkpt lat="47.24866" lon="6.18099">
        <ele>401</ele>
        <time>2024-07-31T08:02:53Z</time>
      </trkpt>
      <trkpt lat="47.24862" lon="6.18105">
        <ele>401</ele>
        <time>2024-07-31T08:02:54Z</time>
      </trkpt>
      <trkpt lat="47.24858" lon="6.1811">
        <ele>400.8</ele>
        <time>2024-07-31T08:02:55Z</time>
      </trkpt>
      <trkpt lat="47.24854" lon="6.18116">
        <ele>400.8</ele>
        <time>2024-07-31T08:02:56Z</time>
      </trkpt>
      <trkpt lat="47.24851" lon="6.18122">
        <ele>400.8</ele>
        <time>2024-07-31T08:02:57Z</time>
      </trkpt>
      <trkpt lat="47.24847" lon="6.18127">
        <ele>400.8</ele>
        <time>2024-07-31T08:02:58Z</time>
      </trkpt>
      <trkpt lat="47.24844" lon="6.18132">
        <ele>400.8</ele>
        <time>2024-07-31T08:02:59Z</time>
      </trkpt>
      <trkpt lat="47.24841" lon="6.18137">
        <ele>401</ele>
        <time>2024-07-31T08:03:00Z</time>
      </trkpt>
      <trkpt lat="47.24839" lon="6.18142">
        <ele>401</ele>
        <time>2024-07-31T08:03:01Z</time>
      </trkpt>
      <trkpt lat="47.24836" lon="6.18148">
        <ele>401.4</ele>
        <time>2024-07-31T08:03:02Z</time>
      </trkpt>
      <trkpt lat="47.24834" lon="6.18153">
        <ele>401.4</ele>
        <time>2024-07-31T08:03:03Z</time>
      </trkpt>
      <trkpt lat="47.24832" lon="6.18159">
        <ele>401.6</ele>
        <time>2024-07-31T08:03:04Z</time>
      </trkpt>
      <trkpt lat="47.2483" lon="6.18165">
        <ele>402</ele>
        <time>2024-07-31T08:03:05Z</time>
      </trkpt>
      <trkpt lat="47.24829" lon="6.1817">
        <ele>402</ele>
        <time>2024-07-31T08:03:06Z</time>
      </trkpt>
      <trkpt lat="47.24828" lon="6.18176">
        <ele>402.4</ele>
        <time>2024-07-31T08:03:07Z</time>
      </trkpt>
      <trkpt lat="47.24825" lon="6.18181">
        <ele>402.6</ele>
        <time>2024-07-31T08:03:08Z</time>
      </trkpt>
      <trkpt lat="47.24822" lon="6.18185">
        <ele>402.8</ele>
        <time>2024-07-31T08:03:09Z</time>
      </trkpt>
      <trkpt lat="47.2482" lon="6.1819">
        <ele>403</ele>
        <time>2024-07-31T08:03:10Z</time>
      </trkpt>
      <trkpt lat="47.24817" lon="6.18194">
        <ele>403.4</ele>
        <time>2024-07-31T08:03:11Z</time>
      </trkpt>
      <trkpt lat="47.24814" lon="6.18197">
        <ele>403.8</ele>
        <time>2024-07-31T08:03:12Z</time>
      </trkpt>
      <trkpt lat="47.24811" lon="6.182">
        <ele>404</ele>
        <time>2024-07-31T08:03:13Z</time>
      </trkpt>
      <trkpt lat="47.24808" lon="6.18203">
        <ele>404</ele>
        <time>2024-07-31T08:03:14Z</time>
      </trkpt>
      <trkpt lat="47.24805" lon="6.18205">
        <ele>404.2</ele>
        <time>2024-07-31T08:03:15Z</time>
      </trkpt>
      <trkpt lat="47.24801" lon="6.18207">
        <ele>404.4</ele>
        <time>2024-07-31T08:03:16Z</time>
      </trkpt>
      <trkpt lat="47.24798" lon="6.1821">
        <ele>404.4</ele>
        <time>2024-07-31T08:03:17Z</time>
      </trkpt>
      <trkpt lat="47.24796" lon="6.18213">
        <ele>404.4</ele>
        <time>2024-07-31T08:03:18Z</time>
      </trkpt>
      <trkpt lat="47.24793" lon="6.18216">
        <ele>404.6</ele>
        <time>2024-07-31T08:03:19Z</time>
      </trkpt>
      <trkpt lat="47.24791" lon="6.18219">
        <ele>404.6</ele>
        <time>2024-07-31T08:03:20Z</time>
      </trkpt>
      <trkpt lat="47.24789" lon="6.18222">
        <ele>404.8</ele>
        <time>2024-07-31T08:03:21Z</time>
      </trkpt>
      <trkpt lat="47.24787" lon="6.18226">
        <ele>405.2</ele>
        <time>2024-07-31T08:03:22Z</time>
      </trkpt>
      <trkpt lat="47.24785" lon="6.1823">
        <ele>405.2</ele>
        <time>2024-07-31T08:03:23Z</time>
      </trkpt>
      <trkpt lat="47.24784" lon="6.18233">
        <ele>405.6</ele>
        <time>2024-07-31T08:03:24Z</time>
      </trkpt>
      <trkpt lat="47.24783" lon="6.18237">
        <ele>405.8</ele>
        <time>2024-07-31T08:03:25Z</time>
      </trkpt>
      <trkpt lat="47.24782" lon="6.18241">
        <ele>405.8</ele>
        <time>2024-07-31T08:03:26Z</time>
      </trkpt>
      <trkpt lat="47.24781" lon="6.18246">
        <ele>406</ele>
        <time>2024-07-31T08:03:27Z</time>
      </trkpt>
      <trkpt lat="47.2478" lon="6.1825">
        <ele>406.4</ele>
        <time>2024-07-31T08:03:28Z</time>
      </trkpt>
      <trkpt lat="47.24779" lon="6.18254">
        <ele>406.8</ele>
        <time>2024-07-31T08:03:29Z</time>
      </trkpt>
      <trkpt lat="47.24778" lon="6.18258">
        <ele>406.8</ele>
        <time>2024-07-31T08:03:30Z</time>
      </trkpt>
      <trkpt lat="47.24777" lon="6.18262">
        <ele>407</ele>
        <time>2024-07-31T08:03:31Z</time>
      </trkpt>
      <trkpt lat="47.24777" lon="6.18267">
        <ele>407.4</ele>
        <time>2024-07-31T08:03:32Z</time>
      </trkpt>
      <trkpt lat="47.24776" lon="6.18271">
        <ele>407.6</ele>
        <time>2024-07-31T08:03:33Z</time>
      </trkpt>
      <trkpt lat="47.24775" lon="6.18275">
        <ele>407.8</ele>
        <time>2024-07-31T08:03:34Z</time>
      </trkpt>
      <trkpt lat="47.24774" lon="6.1828">
        <ele>408</ele>
        <time>2024-07-31T08:03:35Z</time>
      </trkpt>
      <trkpt lat="47.24773" lon="6.18284">
        <ele>408.2</ele>
        <time>2024-07-31T08:03:36Z</time>
      </trkpt>
      <trkpt lat="47.24771" lon="6.18288">
        <ele>408.2</ele>
        <time>2024-07-31T08:03:37Z</time>
      </trkpt>
      <trkpt lat="47.2477" lon="6.18292">
        <ele>408.4</ele>
        <time>2024-07-31T08:03:38Z</time>
      </trkpt>
      <trkpt lat="47.24769" lon="6.18296">
        <ele>408.6</ele>
        <time>2024-07-31T08:03:39Z</time>
      </trkpt>
      <trkpt lat="47.24768" lon="6.18301">
        <ele>408.6</ele>
        <time>2024-07-31T08:03:40Z</time>
      </trkpt>
      <trkpt lat="47.24767" lon="6.18305">
        <ele>408.8</ele>
        <time>2024-07-31T08:03:41Z</time>
      </trkpt>
      <trkpt lat="47.24767" lon="6.1831">
        <ele>408.8</ele>
        <time>2024-07-31T08:03:42Z</time>
      </trkpt>
      <trkpt lat="47.24766" lon="6.18315">
        <ele>409</ele>
        <time>2024-07-31T08:03:43Z</time>
      </trkpt>
      <trkpt lat="47.24765" lon="6.1832">
        <ele>409</ele>
        <time>2024-07-31T08:03:44Z</time>
      </trkpt>
      <trkpt lat="47.24764" lon="6.18325">
        <ele>408.8</ele>
        <time>2024-07-31T08:03:45Z</time>
      </trkpt>
      <trkpt lat="47.24763" lon="6.18329">
        <ele>409</ele>
        <time>2024-07-31T08:03:46Z</time>
      </trkpt>
      <trkpt lat="47.24762" lon="6.18334">
        <ele>409.2</ele>
        <time>2024-07-31T08:03:47Z</time>
      </trkpt>
      <trkpt lat="47.2476" lon="6.18338">
        <ele>409.2</ele>
        <time>2024-07-31T08:03:48Z</time>
      </trkpt>
      <trkpt lat="47.24757" lon="6.18341">
        <ele>409.2</ele>
        <time>2024-07-31T08:03:49Z</time>
      </trkpt>
      <trkpt lat="47.24754" lon="6.18343">
        <ele>409.2</ele>
        <time>2024-07-31T08:03:50Z</time>
      </trkpt>
      <trkpt lat="47.2475" lon="6.18345">
        <ele>409.2</ele>
        <time>2024-07-31T08:03:51Z</time>
      </trkpt>
      <trkpt lat="47.24746" lon="6.18346">
        <ele>409</ele>
        <time>2024-07-31T08:03:52Z</time>
      </trkpt>
      <trkpt lat="47.24741" lon="6.18348">
        <ele>408.8</ele>
        <time>2024-07-31T08:03:53Z</time>
      </trkpt>
      <trkpt lat="47.24736" lon="6.18349">
        <ele>408.6</ele>
        <time>2024-07-31T08:03:54Z</time>
      </trkpt>
      <trkpt lat="47.24732" lon="6.18349">
        <ele>408.6</ele>
        <time>2024-07-31T08:03:55Z</time>
      </trkpt>
      <trkpt lat="47.24727" lon="6.1835">
        <ele>408.6</ele>
        <time>2024-07-31T08:03:56Z</time>
      </trkpt>
      <trkpt lat="47.24723" lon="6.18351">
        <ele>408.6</ele>
        <time>2024-07-31T08:03:57Z</time>
      </trkpt>
      <trkpt lat="47.24718" lon="6.18352">
        <ele>408.8</ele>
        <time>2024-07-31T08:03:58Z</time>
      </trkpt>
      <trkpt lat="47.24714" lon="6.18353">
        <ele>408.8</ele>
        <time>2024-07-31T08:03:59Z</time>
      </trkpt>
      <trkpt lat="47.2471" lon="6.18354">
        <ele>409</ele>
        <time>2024-07-31T08:04:00Z</time>
      </trkpt>
      <trkpt lat="47.24706" lon="6.18355">
        <ele>409.4</ele>
        <time>2024-07-31T08:04:01Z</time>
      </trkpt>
      <trkpt lat="47.24703" lon="6.18356">
        <ele>409.4</ele>
        <time>2024-07-31T08:04:02Z</time>
      </trkpt>
      <trkpt lat="47.24699" lon="6.18358">
        <ele>409.4</ele>
        <time>2024-07-31T08:04:03Z</time>
      </trkpt>
      <trkpt lat="47.24696" lon="6.18359">
        <ele>409.8</ele>
        <time>2024-07-31T08:04:04Z</time>
      </trkpt>
      <trkpt lat="47.24692" lon="6.18361">
        <ele>410</ele>
        <time>2024-07-31T08:04:05Z</time>
      </trkpt>
      <trkpt lat="47.24688" lon="6.18361">
        <ele>410.2</ele>
        <time>2024-07-31T08:04:06Z</time>
      </trkpt>
      <trkpt lat="47.24685" lon="6.18362">
        <ele>410.6</ele>
        <time>2024-07-31T08:04:07Z</time>
      </trkpt>
      <trkpt lat="47.24681" lon="6.18362">
        <ele>410.8</ele>
        <time>2024-07-31T08:04:08Z</time>
      </trkpt>
      <trkpt lat="47.24678" lon="6.18363">
        <ele>411.4</ele>
        <time>2024-07-31T08:04:09Z</time>
      </trkpt>
      <trkpt lat="47.24674" lon="6.18364">
        <ele>411.6</ele>
        <time>2024-07-31T08:04:10Z</time>
      </trkpt>
      <trkpt lat="47.2467" lon="6.18365">
        <ele>412</ele>
        <time>2024-07-31T08:04:11Z</time>
      </trkpt>
      <trkpt lat="47.24667" lon="6.18366">
        <ele>412.4</ele>
        <time>2024-07-31T08:04:12Z</time>
      </trkpt>
      <trkpt lat="47.24664" lon="6.18367">
        <ele>412.8</ele>
        <time>2024-07-31T08:04:13Z</time>
      </trkpt>
      <trkpt lat="47.24661" lon="6.18368">
        <ele>413.2</ele>
        <time>2024-07-31T08:04:14Z</time>
      </trkpt>
      <trkpt lat="47.24657" lon="6.18369">
        <ele>413.6</ele>
        <time>2024-07-31T08:04:15Z</time>
      </trkpt>
      <trkpt lat="47.24654" lon="6.18371">
        <ele>414</ele>
        <time>2024-07-31T08:04:16Z</time>
      </trkpt>
      <trkpt lat="47.24651" lon="6.18373">
        <ele>414.2</ele>
        <time>2024-07-31T08:04:17Z</time>
      </trkpt>
      <trkpt lat="47.24648" lon="6.18376">
        <ele>414.6</ele>
        <time>2024-07-31T08:04:18Z</time>
      </trkpt>
      <trkpt lat="47.24645" lon="6.18379">
        <ele>414.8</ele>
        <time>2024-07-31T08:04:19Z</time>
      </trkpt>
      <trkpt lat="47.24642" lon="6.18382">
        <ele>414.8</ele>
        <time>2024-07-31T08:04:20Z</time>
      </trkpt>
      <trkpt lat="47.2464" lon="6.18385">
        <ele>415</ele>
        <time>2024-07-31T08:04:21Z</time>
      </trkpt>
      <trkpt lat="47.24637" lon="6.18388">
        <ele>415.2</ele>
        <time>2024-07-31T08:04:22Z</time>
      </trkpt>
      <trkpt lat="47.24635" lon="6.18392">
        <ele>415.2</ele>
        <time>2024-07-31T08:04:23Z</time>
      </trkpt>
      <trkpt lat="47.24633" lon="6.18395">
        <ele>415.2</ele>
        <time>2024-07-31T08:04:24Z</time>
      </trkpt>
      <trkpt lat="47.24629" lon="6.18398">
        <ele>415.4</ele>
        <time>2024-07-31T08:04:25Z</time>
      </trkpt>
      <trkpt lat="47.24627" lon="6.18402">
        <ele>415.4</ele>
        <time>2024-07-31T08:04:26Z</time>
      </trkpt>
      <trkpt lat="47.24624" lon="6.18405">
        <ele>415.6</ele>
        <time>2024-07-31T08:04:27Z</time>
      </trkpt>
      <trkpt lat="47.24621" lon="6.18409">
        <ele>415.8</ele>
        <time>2024-07-31T08:04:28Z</time>
      </trkpt>
      <trkpt lat="47.24618" lon="6.18412">
        <ele>415.8</ele>
        <time>2024-07-31T08:04:29Z</time>
      </trkpt>
      <trkpt lat="47.24616" lon="6.18416">
        <ele>416</ele>
        <time>2024-07-31T08:04:30Z</time>
      </trkpt>
      <trkpt lat="47.24613" lon="6.18419">
        <ele>416</ele>
        <time>2024-07-31T08:04:31Z</time>
      </trkpt>
      <trkpt lat="47.2461" lon="6.18423">
        <ele>416</ele>
        <time>2024-07-31T08:04:32Z</time>
      </trkpt>
      <trkpt lat="47.24607" lon="6.18427">
        <ele>416.2</ele>
        <time>2024-07-31T08:04:33Z</time>
      </trkpt>
      <trkpt lat="47.24605" lon="6.1843">
        <ele>416.4</ele>
        <time>2024-07-31T08:04:34Z</time>
      </trkpt>
      <trkpt lat="47.24602" lon="6.18434">
        <ele>416.6</ele>
        <time>2024-07-31T08:04:35Z</time>
      </trkpt>
      <trkpt lat="47.24599" lon="6.18437">
        <ele>416.6</ele>
        <time>2024-07-31T08:04:36Z</time>
      </trkpt>
      <trkpt lat="47.24597" lon="6.18441">
        <ele>416.6</ele>
        <time>2024-07-31T08:04:37Z</time>
      </trkpt>
      <trkpt lat="47.24594" lon="6.18444">
        <ele>416.6</ele>
        <time>2024-07-31T08:04:38Z</time>
      </trkpt>
      <trkpt lat="47.24591" lon="6.18447">
        <ele>416.8</ele>
        <time>2024-07-31T08:04:39Z</time>
      </trkpt>
      <trkpt lat="47.24588" lon="6.1845">
        <ele>416.6</ele>
        <time>2024-07-31T08:04:40Z</time>
      </trkpt>
      <trkpt lat="47.24585" lon="6.18451">
        <ele>416.8</ele>
        <time>2024-07-31T08:04:41Z</time>
      </trkpt>
      <trkpt lat="47.24582" lon="6.18452">
        <ele>417</ele>
        <time>2024-07-31T08:04:42Z</time>
      </trkpt>
      <trkpt lat="47.24579" lon="6.18449">
        <ele>417</ele>
        <time>2024-07-31T08:04:43Z</time>
      </trkpt>
      <trkpt lat="47.24577" lon="6.18446">
        <ele>417</ele>
        <time>2024-07-31T08:04:44Z</time>
      </trkpt>
      <trkpt lat="47.24575" lon="6.18442">
        <ele>417.4</ele>
        <time>2024-07-31T08:04:45Z</time>
      </trkpt>
      <trkpt lat="47.24573" lon="6.18438">
        <ele>417.4</ele>
        <time>2024-07-31T08:04:46Z</time>
      </trkpt>
      <trkpt lat="47.24572" lon="6.18433">
        <ele>417.2</ele>
        <time>2024-07-31T08:04:47Z</time>
      </trkpt>
      <trkpt lat="47.24571" lon="6.18428">
        <ele>417</ele>
        <time>2024-07-31T08:04:48Z</time>
      </trkpt>
      <trkpt lat="47.24569" lon="6.18423">
        <ele>417</ele>
        <time>2024-07-31T08:04:49Z</time>
      </trkpt>
      <trkpt lat="47.24568" lon="6.18417">
        <ele>417</ele>
        <time>2024-07-31T08:04:50Z</time>
      </trkpt>
      <trkpt lat="47.24566" lon="6.18411">
        <ele>417</ele>
        <time>2024-07-31T08:04:51Z</time>
      </trkpt>
      <trkpt lat="47.24565" lon="6.18405">
        <ele>417</ele>
        <time>2024-07-31T08:04:52Z</time>
      </trkpt>
      <trkpt lat="47.24563" lon="6.184">
        <ele>416.6</ele>
        <time>2024-07-31T08:04:53Z</time>
      </trkpt>
      <trkpt lat="47.24562" lon="6.18394">
        <ele>416</ele>
        <time>2024-07-31T08:04:54Z</time>
      </trkpt>
      <trkpt lat="47.2456" lon="6.18388">
        <ele>416.2</ele>
        <time>2024-07-31T08:04:55Z</time>
      </trkpt>
      <trkpt lat="47.24558" lon="6.18382">
        <ele>416.2</ele>
        <time>2024-07-31T08:04:56Z</time>
      </trkpt>
      <trkpt lat="47.24555" lon="6.18377">
        <ele>416.2</ele>
        <time>2024-07-31T08:04:57Z</time>
      </trkpt>
      <trkpt lat="47.24552" lon="6.18372">
        <ele>416.2</ele>
        <time>2024-07-31T08:04:58Z</time>
      </trkpt>
      <trkpt lat="47.24549" lon="6.18368">
        <ele>416</ele>
        <time>2024-07-31T08:04:59Z</time>
      </trkpt>
      <trkpt lat="47.24546" lon="6.18365">
        <ele>416</ele>
        <time>2024-07-31T08:05:00Z</time>
      </trkpt>
      <trkpt lat="47.24543" lon="6.18361">
        <ele>416</ele>
        <time>2024-07-31T08:05:01Z</time>
      </trkpt>
      <trkpt lat="47.24539" lon="6.18357">
        <ele>416</ele>
        <time>2024-07-31T08:05:02Z</time>
      </trkpt>
      <trkpt lat="47.24537" lon="6.18354">
        <ele>415.4</ele>
        <time>2024-07-31T08:05:03Z</time>
      </trkpt>
      <trkpt lat="47.24534" lon="6.18351">
        <ele>415.2</ele>
        <time>2024-07-31T08:05:04Z</time>
      </trkpt>
      <trkpt lat="47.2453" lon="6.18347">
        <ele>415</ele>
        <time>2024-07-31T08:05:05Z</time>
      </trkpt>
      <trkpt lat="47.24526" lon="6.18344">
        <ele>414.4</ele>
        <time>2024-07-31T08:05:06Z</time>
      </trkpt>
      <trkpt lat="47.24522" lon="6.18341">
        <ele>414</ele>
        <time>2024-07-31T08:05:07Z</time>
      </trkpt>
      <trkpt lat="47.24518" lon="6.18337">
        <ele>414</ele>
        <time>2024-07-31T08:05:08Z</time>
      </trkpt>
      <trkpt lat="47.24515" lon="6.18334">
        <ele>414</ele>
        <time>2024-07-31T08:05:09Z</time>
      </trkpt>
      <trkpt lat="47.24511" lon="6.18332">
        <ele>413.8</ele>
        <time>2024-07-31T08:05:10Z</time>
      </trkpt>
      <trkpt lat="47.24508" lon="6.1833">
        <ele>413.4</ele>
        <time>2024-07-31T08:05:11Z</time>
      </trkpt>
      <trkpt lat="47.24505" lon="6.18327">
        <ele>413.2</ele>
        <time>2024-07-31T08:05:12Z</time>
      </trkpt>
      <trkpt lat="47.24502" lon="6.18325">
        <ele>413</ele>
        <time>2024-07-31T08:05:13Z</time>
      </trkpt>
      <trkpt lat="47.24499" lon="6.18321">
        <ele>412.8</ele>
        <time>2024-07-31T08:05:14Z</time>
      </trkpt>
      <trkpt lat="47.24496" lon="6.18317">
        <ele>412.6</ele>
        <time>2024-07-31T08:05:15Z</time>
      </trkpt>
      <trkpt lat="47.24493" lon="6.18313">
        <ele>412.2</ele>
        <time>2024-07-31T08:05:16Z</time>
      </trkpt>
      <trkpt lat="47.2449" lon="6.1831">
        <ele>412.2</ele>
        <time>2024-07-31T08:05:17Z</time>
      </trkpt>
      <trkpt lat="47.24487" lon="6.18306">
        <ele>412</ele>
        <time>2024-07-31T08:05:18Z</time>
      </trkpt>
      <trkpt lat="47.24484" lon="6.18304">
        <ele>411.8</ele>
        <time>2024-07-31T08:05:19Z</time>
      </trkpt>
      <trkpt lat="47.2448" lon="6.18303">
        <ele>411.6</ele>
        <time>2024-07-31T08:05:20Z</time>
      </trkpt>
      <trkpt lat="47.24476" lon="6.18304">
        <ele>411.4</ele>
        <time>2024-07-31T08:05:21Z</time>
      </trkpt>
      <trkpt lat="47.24473" lon="6.18305">
        <ele>411.4</ele>
        <time>2024-07-31T08:05:22Z</time>
      </trkpt>
      <trkpt lat="47.24469" lon="6.18305">
        <ele>411</ele>
        <time>2024-07-31T08:05:23Z</time>
      </trkpt>
      <trkpt lat="47.24464" lon="6.18306">
        <ele>411</ele>
        <time>2024-07-31T08:05:24Z</time>
      </trkpt>
      <trkpt lat="47.2446" lon="6.18306">
        <ele>411</ele>
        <time>2024-07-31T08:05:25Z</time>
      </trkpt>
      <trkpt lat="47.24455" lon="6.18308">
        <ele>410.8</ele>
        <time>2024-07-31T08:05:26Z</time>
      </trkpt>
      <trkpt lat="47.24451" lon="6.18309">
        <ele>410.8</ele>
        <time>2024-07-31T08:05:27Z</time>
      </trkpt>
      <trkpt lat="47.24447" lon="6.18311">
        <ele>410.6</ele>
        <time>2024-07-31T08:05:28Z</time>
      </trkpt>
      <trkpt lat="47.24443" lon="6.18313">
        <ele>410.6</ele>
        <time>2024-07-31T08:05:29Z</time>
      </trkpt>
      <trkpt lat="47.24439" lon="6.18316">
        <ele>410.6</ele>
        <time>2024-07-31T08:05:30Z</time>
      </trkpt>
      <trkpt lat="47.24435" lon="6.18319">
        <ele>410.6</ele>
        <time>2024-07-31T08:05:31Z</time>
      </trkpt>
      <trkpt lat="47.2443" lon="6.18323">
        <ele>410.6</ele>
        <time>2024-07-31T08:05:32Z</time>
      </trkpt>
      <trkpt lat="47.24426" lon="6.18326">
        <ele>410.6</ele>
        <time>2024-07-31T08:05:33Z</time>
      </trkpt>
      <trkpt lat="47.24422" lon="6.1833">
        <ele>410.6</ele>
        <time>2024-07-31T08:05:34Z</time>
      </trkpt>
      <trkpt lat="47.24418" lon="6.18334">
        <ele>410.8</ele>
        <time>2024-07-31T08:05:35Z</time>
      </trkpt>
      <trkpt lat="47.24413" lon="6.18338">
        <ele>410.8</ele>
        <time>2024-07-31T08:05:36Z</time>
      </trkpt>
      <trkpt lat="47.24409" lon="6.18342">
        <ele>411</ele>
        <time>2024-07-31T08:05:37Z</time>
      </trkpt>
      <trkpt lat="47.24405" lon="6.18346">
        <ele>411.2</ele>
        <time>2024-07-31T08:05:38Z</time>
      </trkpt>
      <trkpt lat="47.24402" lon="6.1835">
        <ele>411.4</ele>
        <time>2024-07-31T08:05:39Z</time>
      </trkpt>
      <trkpt lat="47.24398" lon="6.18354">
        <ele>411.4</ele>
        <time>2024-07-31T08:05:40Z</time>
      </trkpt>
      <trkpt lat="47.24395" lon="6.18357">
        <ele>411.6</ele>
        <time>2024-07-31T08:05:41Z</time>
      </trkpt>
      <trkpt lat="47.24391" lon="6.1836">
        <ele>411.8</ele>
        <time>2024-07-31T08:05:42Z</time>
      </trkpt>
      <trkpt lat="47.24387" lon="6.18363">
        <ele>412.2</ele>
        <time>2024-07-31T08:05:43Z</time>
      </trkpt>
      <trkpt lat="47.24384" lon="6.18366">
        <ele>412.4</ele>
        <time>2024-07-31T08:05:44Z</time>
      </trkpt>
      <trkpt lat="47.2438" lon="6.18368">
        <ele>412.4</ele>
        <time>2024-07-31T08:05:45Z</time>
      </trkpt>
      <trkpt lat="47.24377" lon="6.18371">
        <ele>412.4</ele>
        <time>2024-07-31T08:05:46Z</time>
      </trkpt>
      <trkpt lat="47.24373" lon="6.18374">
        <ele>412.6</ele>
        <time>2024-07-31T08:05:47Z</time>
      </trkpt>
      <trkpt lat="47.24369" lon="6.18377">
        <ele>412.4</ele>
        <time>2024-07-31T08:05:48Z</time>
      </trkpt>
      <trkpt lat="47.24366" lon="6.1838">
        <ele>412.6</ele>
        <time>2024-07-31T08:05:49Z</time>
      </trkpt>
      <trkpt lat="47.24362" lon="6.18383">
        <ele>412.4</ele>
        <time>2024-07-31T08:05:50Z</time>
      </trkpt>
      <trkpt lat="47.24357" lon="6.18386">
        <ele>412.4</ele>
        <time>2024-07-31T08:05:51Z</time>
      </trkpt>
      <trkpt lat="47.24353" lon="6.18389">
        <ele>412.6</ele>
        <time>2024-07-31T08:05:52Z</time>
      </trkpt>
      <trkpt lat="47.24349" lon="6.18392">
        <ele>412.6</ele>
        <time>2024-07-31T08:05:53Z</time>
      </trkpt>
      <trkpt lat="47.24344" lon="6.18394">
        <ele>412.4</ele>
        <time>2024-07-31T08:05:54Z</time>
      </trkpt>
      <trkpt lat="47.2434" lon="6.18397">
        <ele>412.4</ele>
        <time>2024-07-31T08:05:55Z</time>
      </trkpt>
      <trkpt lat="47.24336" lon="6.184">
        <ele>412.4</ele>
        <time>2024-07-31T08:05:56Z</time>
      </trkpt>
      <trkpt lat="47.24332" lon="6.18403">
        <ele>412.2</ele>
        <time>2024-07-31T08:05:57Z</time>
      </trkpt>
      <trkpt lat="47.24328" lon="6.18406">
        <ele>412</ele>
        <time>2024-07-31T08:05:58Z</time>
      </trkpt>
      <trkpt lat="47.24324" lon="6.18408">
        <ele>412</ele>
        <time>2024-07-31T08:05:59Z</time>
      </trkpt>
      <trkpt lat="47.24321" lon="6.18411">
        <ele>411.8</ele>
        <time>2024-07-31T08:06:00Z</time>
      </trkpt>
      <trkpt lat="47.24317" lon="6.18414">
        <ele>411.8</ele>
        <time>2024-07-31T08:06:01Z</time>
      </trkpt>
      <trkpt lat="47.24313" lon="6.18416">
        <ele>412</ele>
        <time>2024-07-31T08:06:02Z</time>
      </trkpt>
      <trkpt lat="47.2431" lon="6.18419">
        <ele>412</ele>
        <time>2024-07-31T08:06:03Z</time>
      </trkpt>
      <trkpt lat="47.24306" lon="6.1842">
        <ele>412.4</ele>
        <time>2024-07-31T08:06:04Z</time>
      </trkpt>
      <trkpt lat="47.24302" lon="6.18422">
        <ele>412.6</ele>
        <time>2024-07-31T08:06:05Z</time>
      </trkpt>
      <trkpt lat="47.24298" lon="6.18424">
        <ele>412.4</ele>
        <time>2024-07-31T08:06:06Z</time>
      </trkpt>
      <trkpt lat="47.24294" lon="6.18425">
        <ele>412.6</ele>
        <time>2024-07-31T08:06:07Z</time>
      </trkpt>
      <trkpt lat="47.2429" lon="6.18426">
        <ele>412.6</ele>
        <time>2024-07-31T08:06:08Z</time>
      </trkpt>
      <trkpt lat="47.24286" lon="6.18426">
        <ele>412.8</ele>
        <time>2024-07-31T08:06:09Z</time>
      </trkpt>
      <trkpt lat="47.24282" lon="6.18426">
        <ele>412.8</ele>
        <time>2024-07-31T08:06:10Z</time>
      </trkpt>
      <trkpt lat="47.24278" lon="6.18427">
        <ele>412.8</ele>
        <time>2024-07-31T08:06:11Z</time>
      </trkpt>
      <trkpt lat="47.24274" lon="6.18427">
        <ele>413.2</ele>
        <time>2024-07-31T08:06:12Z</time>
      </trkpt>
      <trkpt lat="47.24271" lon="6.18427">
        <ele>413.2</ele>
        <time>2024-07-31T08:06:13Z</time>
      </trkpt>
      <trkpt lat="47.24267" lon="6.18427">
        <ele>413.4</ele>
        <time>2024-07-31T08:06:14Z</time>
      </trkpt>
      <trkpt lat="47.24264" lon="6.18427">
        <ele>413.6</ele>
        <time>2024-07-31T08:06:15Z</time>
      </trkpt>
      <trkpt lat="47.24261" lon="6.18426">
        <ele>413.8</ele>
        <time>2024-07-31T08:06:16Z</time>
      </trkpt>
      <trkpt lat="47.24257" lon="6.18426">
        <ele>414</ele>
        <time>2024-07-31T08:06:17Z</time>
      </trkpt>
      <trkpt lat="47.24254" lon="6.18425">
        <ele>414.2</ele>
        <time>2024-07-31T08:06:18Z</time>
      </trkpt>
      <trkpt lat="47.24251" lon="6.18424">
        <ele>414.4</ele>
        <time>2024-07-31T08:06:19Z</time>
      </trkpt>
      <trkpt lat="47.24247" lon="6.18422">
        <ele>414.4</ele>
        <time>2024-07-31T08:06:20Z</time>
      </trkpt>
      <trkpt lat="47.24244" lon="6.1842">
        <ele>414.8</ele>
        <time>2024-07-31T08:06:21Z</time>
      </trkpt>
      <trkpt lat="47.24241" lon="6.18418">
        <ele>414.8</ele>
        <time>2024-07-31T08:06:22Z</time>
      </trkpt>
      <trkpt lat="47.24239" lon="6.18416">
        <ele>415.2</ele>
        <time>2024-07-31T08:06:23Z</time>
      </trkpt>
      <trkpt lat="47.24236" lon="6.18413">
        <ele>415.4</ele>
        <time>2024-07-31T08:06:24Z</time>
      </trkpt>
      <trkpt lat="47.24234" lon="6.1841">
        <ele>415.6</ele>
        <time>2024-07-31T08:06:25Z</time>
      </trkpt>
      <trkpt lat="47.24231" lon="6.18407">
        <ele>416</ele>
        <time>2024-07-31T08:06:26Z</time>
      </trkpt>
      <trkpt lat="47.24229" lon="6.18404">
        <ele>416.4</ele>
        <time>2024-07-31T08:06:27Z</time>
      </trkpt>
      <trkpt lat="47.24227" lon="6.18402">
        <ele>416.6</ele>
        <time>2024-07-31T08:06:28Z</time>
      </trkpt>
      <trkpt lat="47.24226" lon="6.18399">
        <ele>417</ele>
        <time>2024-07-31T08:06:29Z</time>
      </trkpt>
      <trkpt lat="47.24224" lon="6.18396">
        <ele>417.4</ele>
        <time>2024-07-31T08:06:30Z</time>
      </trkpt>
      <trkpt lat="47.24222" lon="6.18394">
        <ele>417.8</ele>
        <time>2024-07-31T08:06:31Z</time>
      </trkpt>
      <trkpt lat="47.2422" lon="6.18393">
        <ele>418.2</ele>
        <time>2024-07-31T08:06:32Z</time>
      </trkpt>
      <trkpt lat="47.24219" lon="6.18392">
        <ele>418.4</ele>
        <time>2024-07-31T08:06:33Z</time>
      </trkpt>
      <trkpt lat="47.24217" lon="6.18391">
        <ele>418.6</ele>
        <time>2024-07-31T08:06:34Z</time>
      </trkpt>
      <trkpt lat="47.24215" lon="6.1839">
        <ele>418.6</ele>
        <time>2024-07-31T08:06:35Z</time>
      </trkpt>
      <trkpt lat="47.24213" lon="6.1839">
        <ele>419</ele>
        <time>2024-07-31T08:06:36Z</time>
      </trkpt>
      <trkpt lat="47.24212" lon="6.1839">
        <ele>419.2</ele>
        <time>2024-07-31T08:06:37Z</time>
      </trkpt>
      <trkpt lat="47.2421" lon="6.1839">
        <ele>419.4</ele>
        <time>2024-07-31T08:06:38Z</time>
      </trkpt>
      <trkpt lat="47.24208" lon="6.1839">
        <ele>419.8</ele>
        <time>2024-07-31T08:06:39Z</time>
      </trkpt>
      <trkpt lat="47.24206" lon="6.18391">
        <ele>420</ele>
        <time>2024-07-31T08:06:40Z</time>
      </trkpt>
      <trkpt lat="47.24204" lon="6.18392">
        <ele>420.4</ele>
        <time>2024-07-31T08:06:41Z</time>
      </trkpt>
      <trkpt lat="47.24203" lon="6.18393">
        <ele>420.4</ele>
        <time>2024-07-31T08:06:42Z</time>
      </trkpt>
      <trkpt lat="47.24201" lon="6.18394">
        <ele>420.8</ele>
        <time>2024-07-31T08:06:43Z</time>
      </trkpt>
      <trkpt lat="47.24199" lon="6.18395">
        <ele>420.8</ele>
        <time>2024-07-31T08:06:44Z</time>
      </trkpt>
      <trkpt lat="47.24197" lon="6.18396">
        <ele>421</ele>
        <time>2024-07-31T08:06:45Z</time>
      </trkpt>
      <trkpt lat="47.24195" lon="6.18396">
        <ele>421.4</ele>
        <time>2024-07-31T08:06:46Z</time>
      </trkpt>
      <trkpt lat="47.24194" lon="6.18397">
        <ele>421.6</ele>
        <time>2024-07-31T08:06:47Z</time>
      </trkpt>
      <trkpt lat="47.24192" lon="6.18399">
        <ele>421.8</ele>
        <time>2024-07-31T08:06:48Z</time>
      </trkpt>
      <trkpt lat="47.2419" lon="6.18399">
        <ele>422</ele>
        <time>2024-07-31T08:06:49Z</time>
      </trkpt>
      <trkpt lat="47.24188" lon="6.184">
        <ele>422.2</ele>
        <time>2024-07-31T08:06:50Z</time>
      </trkpt>
      <trkpt lat="47.24187" lon="6.18401">
        <ele>422.4</ele>
        <time>2024-07-31T08:06:51Z</time>
      </trkpt>
      <trkpt lat="47.24185" lon="6.18402">
        <ele>422.8</ele>
        <time>2024-07-31T08:06:52Z</time>
      </trkpt>
      <trkpt lat="47.24183" lon="6.18403">
        <ele>423</ele>
        <time>2024-07-31T08:06:53Z</time>
      </trkpt>
      <trkpt lat="47.24182" lon="6.18404">
        <ele>423.6</ele>
        <time>2024-07-31T08:06:54Z</time>
      </trkpt>
      <trkpt lat="47.2418" lon="6.18405">
        <ele>423.6</ele>
        <time>2024-07-31T08:06:55Z</time>
      </trkpt>
      <trkpt lat="47.24178" lon="6.18405">
        <ele>424</ele>
        <time>2024-07-31T08:06:56Z</time>
      </trkpt>
      <trkpt lat="47.24176" lon="6.18406">
        <ele>424.4</ele>
        <time>2024-07-31T08:06:57Z</time>
      </trkpt>
      <trkpt lat="47.24174" lon="6.18406">
        <ele>424.4</ele>
        <time>2024-07-31T08:06:58Z</time>
      </trkpt>
      <trkpt lat="47.24172" lon="6.18408">
        <ele>424.4</ele>
        <time>2024-07-31T08:06:59Z</time>
      </trkpt>
      <trkpt lat="47.24171" lon="6.18409">
        <ele>424.6</ele>
        <time>2024-07-31T08:07:00Z</time>
      </trkpt>
      <trkpt lat="47.24169" lon="6.1841">
        <ele>424.8</ele>
        <time>2024-07-31T08:07:01Z</time>
      </trkpt>
      <trkpt lat="47.24168" lon="6.18412">
        <ele>425</ele>
        <time>2024-07-31T08:07:02Z</time>
      </trkpt>
      <trkpt lat="47.24166" lon="6.18413">
        <ele>425.4</ele>
        <time>2024-07-31T08:07:03Z</time>
      </trkpt>
      <trkpt lat="47.24164" lon="6.18414">
        <ele>425.4</ele>
        <time>2024-07-31T08:07:04Z</time>
      </trkpt>
      <trkpt lat="47.24163" lon="6.18416">
        <ele>425.6</ele>
        <time>2024-07-31T08:07:05Z</time>
      </trkpt>
      <trkpt lat="47.24162" lon="6.18417">
        <ele>425.8</ele>
        <time>2024-07-31T08:07:06Z</time>
      </trkpt>
      <trkpt lat="47.24161" lon="6.18419">
        <ele>426.2</ele>
        <time>2024-07-31T08:07:07Z</time>
      </trkpt>
      <trkpt lat="47.2416" lon="6.1842">
        <ele>426.4</ele>
        <time>2024-07-31T08:07:08Z</time>
      </trkpt>
      <trkpt lat="47.24159" lon="6.18422">
        <ele>426.6</ele>
        <time>2024-07-31T08:07:09Z</time>
      </trkpt>
      <trkpt lat="47.24158" lon="6.18424">
        <ele>426.6</ele>
        <time>2024-07-31T08:07:10Z</time>
      </trkpt>
      <trkpt lat="47.24156" lon="6.18426">
        <ele>427.2</ele>
        <time>2024-07-31T08:07:11Z</time>
      </trkpt>
      <trkpt lat="47.24155" lon="6.18428">
        <ele>427.6</ele>
        <time>2024-07-31T08:07:12Z</time>
      </trkpt>
      <trkpt lat="47.24154" lon="6.1843">
        <ele>427.8</ele>
        <time>2024-07-31T08:07:13Z</time>
      </trkpt>
      <trkpt lat="47.24153" lon="6.18432">
        <ele>428</ele>
        <time>2024-07-31T08:07:14Z</time>
      </trkpt>
      <trkpt lat="47.24151" lon="6.18433">
        <ele>428.4</ele>
        <time>2024-07-31T08:07:15Z</time>
      </trkpt>
      <trkpt lat="47.2415" lon="6.18434">
        <ele>428.8</ele>
        <time>2024-07-31T08:07:16Z</time>
      </trkpt>
      <trkpt lat="47.24149" lon="6.18435">
        <ele>429</ele>
        <time>2024-07-31T08:07:17Z</time>
      </trkpt>
      <trkpt lat="47.24148" lon="6.18436">
        <ele>429.2</ele>
        <time>2024-07-31T08:07:18Z</time>
      </trkpt>
      <trkpt lat="47.24147" lon="6.18438">
        <ele>429.4</ele>
        <time>2024-07-31T08:07:19Z</time>
      </trkpt>
      <trkpt lat="47.24145" lon="6.18439">
        <ele>429.4</ele>
        <time>2024-07-31T08:07:20Z</time>
      </trkpt>
      <trkpt lat="47.24143" lon="6.18439">
        <ele>429.4</ele>
        <time>2024-07-31T08:07:21Z</time>
      </trkpt>
      <trkpt lat="47.24141" lon="6.1844">
        <ele>429.6</ele>
        <time>2024-07-31T08:07:22Z</time>
      </trkpt>
      <trkpt lat="47.24139" lon="6.18441">
        <ele>429.6</ele>
        <time>2024-07-31T08:07:23Z</time>
      </trkpt>
      <trkpt lat="47.24137" lon="6.18442">
        <ele>430</ele>
        <time>2024-07-31T08:07:24Z</time>
      </trkpt>
      <trkpt lat="47.24135" lon="6.18443">
        <ele>430</ele>
        <time>2024-07-31T08:07:25Z</time>
      </trkpt>
      <trkpt lat="47.24133" lon="6.18444">
        <ele>430.2</ele>
        <time>2024-07-31T08:07:26Z</time>
      </trkpt>
      <trkpt lat="47.24132" lon="6.18446">
        <ele>430.2</ele>
        <time>2024-07-31T08:07:27Z</time>
      </trkpt>
      <trkpt lat="47.2413" lon="6.18447">
        <ele>430.6</ele>
        <time>2024-07-31T08:07:28Z</time>
      </trkpt>
      <trkpt lat="47.24128" lon="6.18448">
        <ele>430.8</ele>
        <time>2024-07-31T08:07:29Z</time>
      </trkpt>
      <trkpt lat="47.24126" lon="6.1845">
        <ele>430.8</ele>
        <time>2024-07-31T08:07:30Z</time>
      </trkpt>
      <trkpt lat="47.24125" lon="6.18451">
        <ele>431</ele>
        <time>2024-07-31T08:07:31Z</time>
      </trkpt>
      <trkpt lat="47.24123" lon="6.18452">
        <ele>431.2</ele>
        <time>2024-07-31T08:07:32Z</time>
      </trkpt>
      <trkpt lat="47.24122" lon="6.18454">
        <ele>431.6</ele>
        <time>2024-07-31T08:07:33Z</time>
      </trkpt>
      <trkpt lat="47.2412" lon="6.18456">
        <ele>431.6</ele>
        <time>2024-07-31T08:07:34Z</time>
      </trkpt>
      <trkpt lat="47.24119" lon="6.18458">
        <ele>432</ele>
        <time>2024-07-31T08:07:35Z</time>
      </trkpt>
      <trkpt lat="47.24117" lon="6.1846">
        <ele>432.2</ele>
        <time>2024-07-31T08:07:36Z</time>
      </trkpt>
      <trkpt lat="47.24115" lon="6.18461">
        <ele>432.4</ele>
        <time>2024-07-31T08:07:37Z</time>
      </trkpt>
      <trkpt lat="47.24114" lon="6.18463">
        <ele>432.6</ele>
        <time>2024-07-31T08:07:38Z</time>
      </trkpt>
      <trkpt lat="47.24112" lon="6.18464">
        <ele>433</ele>
        <time>2024-07-31T08:07:39Z</time>
      </trkpt>
      <trkpt lat="47.2411" lon="6.18466">
        <ele>432.8</ele>
        <time>2024-07-31T08:07:40Z</time>
      </trkpt>
      <trkpt lat="47.24108" lon="6.18467">
        <ele>433</ele>
        <time>2024-07-31T08:07:41Z</time>
      </trkpt>
      <trkpt lat="47.24106" lon="6.18469">
        <ele>433</ele>
        <time>2024-07-31T08:07:42Z</time>
      </trkpt>
      <trkpt lat="47.24104" lon="6.18471">
        <ele>433.2</ele>
        <time>2024-07-31T08:07:43Z</time>
      </trkpt>
      <trkpt lat="47.24102" lon="6.18472">
        <ele>433.2</ele>
        <time>2024-07-31T08:07:44Z</time>
      </trkpt>
      <trkpt lat="47.241" lon="6.18473">
        <ele>433.2</ele>
        <time>2024-07-31T08:07:45Z</time>
      </trkpt>
      <trkpt lat="47.24098" lon="6.18474">
        <ele>433.6</ele>
        <time>2024-07-31T08:07:46Z</time>
      </trkpt>
      <trkpt lat="47.24096" lon="6.18475">
        <ele>433.6</ele>
        <time>2024-07-31T08:07:47Z</time>
      </trkpt>
      <trkpt lat="47.24095" lon="6.18477">
        <ele>433.8</ele>
        <time>2024-07-31T08:07:48Z</time>
      </trkpt>
      <trkpt lat="47.24092" lon="6.18478">
        <ele>434</ele>
        <time>2024-07-31T08:07:49Z</time>
      </trkpt>
      <trkpt lat="47.24091" lon="6.18479">
        <ele>434.2</ele>
        <time>2024-07-31T08:07:50Z</time>
      </trkpt>
      <trkpt lat="47.24089" lon="6.1848">
        <ele>434.2</ele>
        <time>2024-07-31T08:07:51Z</time>
      </trkpt>
      <trkpt lat="47.24088" lon="6.18482">
        <ele>434.6</ele>
        <time>2024-07-31T08:07:52Z</time>
      </trkpt>
      <trkpt lat="47.24087" lon="6.18483">
        <ele>434.8</ele>
        <time>2024-07-31T08:07:53Z</time>
      </trkpt>
      <trkpt lat="47.24085" lon="6.18485">
        <ele>435</ele>
        <time>2024-07-31T08:07:54Z</time>
      </trkpt>
      <trkpt lat="47.24084" lon="6.18487">
        <ele>435</ele>
        <time>2024-07-31T08:07:55Z</time>
      </trkpt>
      <trkpt lat="47.24082" lon="6.18489">
        <ele>435</ele>
        <time>2024-07-31T08:07:56Z</time>
      </trkpt>
      <trkpt lat="47.2408" lon="6.18491">
        <ele>435.2</ele>
        <time>2024-07-31T08:07:57Z</time>
      </trkpt>
      <trkpt lat="47.24079" lon="6.18493">
        <ele>435.4</ele>
        <time>2024-07-31T08:07:58Z</time>
      </trkpt>
      <trkpt lat="47.24077" lon="6.18495">
        <ele>435.6</ele>
        <time>2024-07-31T08:07:59Z</time>
      </trkpt>
      <trkpt lat="47.24076" lon="6.18496">
        <ele>435.8</ele>
        <time>2024-07-31T08:08:00Z</time>
      </trkpt>
      <trkpt lat="47.24075" lon="6.18498">
        <ele>436</ele>
        <time>2024-07-31T08:08:01Z</time>
      </trkpt>
      <trkpt lat="47.24073" lon="6.18499">
        <ele>436</ele>
        <time>2024-07-31T08:08:02Z</time>
      </trkpt>
      <trkpt lat="47.24072" lon="6.18501">
        <ele>436.4</ele>
        <time>2024-07-31T08:08:03Z</time>
      </trkpt>
      <trkpt lat="47.24071" lon="6.18502">
        <ele>436.4</ele>
        <time>2024-07-31T08:08:04Z</time>
      </trkpt>
      <trkpt lat="47.2407" lon="6.18503">
        <ele>436.2</ele>
        <time>2024-07-31T08:08:05Z</time>
      </trkpt>
      <trkpt lat="47.2407" lon="6.18502">
        <ele>436</ele>
        <time>2024-07-31T08:08:06Z</time>
      </trkpt>
      <trkpt lat="47.24071" lon="6.18502">
        <ele>436.2</ele>
        <time>2024-07-31T08:08:07Z</time>
      </trkpt>
      <trkpt lat="47.24072" lon="6.18502">
        <ele>436</ele>
        <time>2024-07-31T08:08:08Z</time>
      </trkpt>
      <trkpt lat="47.24072" lon="6.18502">
        <ele>436</ele>
        <time>2024-07-31T08:08:09Z</time>
      </trkpt>
      <trkpt lat="47.24073" lon="6.18502">
        <ele>436</ele>
        <time>2024-07-31T08:08:10Z</time>
      </trkpt>
      <trkpt lat="47.24073" lon="6.18502">
        <ele>436</ele>
        <time>2024-07-31T08:08:11Z</time>
      </trkpt>
      <trkpt lat="47.24073" lon="6.18502">
        <ele>436</ele>
        <time>2024-07-31T08:08:12Z</time>
      </trkpt>
      <trkpt lat="47.24073" lon="6.18503">
        <ele>436</ele>
        <time>2024-07-31T08:08:13Z</time>
      </trkpt>
      <trkpt lat="47.24072" lon="6.18503">
        <ele>436.2</ele>
        <time>2024-07-31T08:08:14Z</time>
      </trkpt>
      <trkpt lat="47.24073" lon="6.18503">
        <ele>436</ele>
        <time>2024-07-31T08:08:15Z</time>
      </trkpt>
      <trkpt lat="47.24073" lon="6.18504">
        <ele>435.6</ele>
        <time>2024-07-31T08:08:16Z</time>
      </trkpt>
      <trkpt lat="47.24073" lon="6.18505">
        <ele>435.4</ele>
        <time>2024-07-31T08:08:17Z</time>
      </trkpt>
      <trkpt lat="47.24073" lon="6.18505">
        <ele>435.6</ele>
        <time>2024-07-31T08:08:18Z</time>
      </trkpt>
      <trkpt lat="47.24073" lon="6.18505">
        <ele>435.6</ele>
        <time>2024-07-31T08:08:19Z</time>
      </trkpt>
      <trkpt lat="47.24073" lon="6.18505">
        <ele>435.6</ele>
        <time>2024-07-31T08:08:20Z</time>
      </trkpt>
      <trkpt lat="47.24073" lon="6.18505">
        <ele>435.4</ele>
        <time>2024-07-31T08:08:21Z</time>
      </trkpt>
      <trkpt lat="47.24073" lon="6.18505">
        <ele>435.6</ele>
        <time>2024-07-31T08:08:22Z</time>
      </trkpt>
      <trkpt lat="47.24073" lon="6.18505">
        <ele>435.4</ele>
        <time>2024-07-31T08:08:23Z</time>
      </trkpt>
      <trkpt lat="47.24073" lon="6.18505">
        <ele>435.8</ele>
        <time>2024-07-31T08:08:24Z</time>
      </trkpt>
      <trkpt lat="47.24073" lon="6.18505">
        <ele>435.6</ele>
        <time>2024-07-31T08:08:25Z</time>
      </trkpt>
      <trkpt lat="47.24073" lon="6.18505">
        <ele>435.6</ele>
        <time>2024-07-31T08:08:26Z</time>
      </trkpt>
      <trkpt lat="47.24073" lon="6.18505">
        <ele>435.6</ele>
        <time>2024-07-31T08:08:27Z</time>
      </trkpt>
      <trkpt lat="47.24073" lon="6.18505">
        <ele>435.6</ele>
        <time>2024-07-31T08:08:28Z</time>
      </trkpt>
      <trkpt lat="47.24073" lon="6.18505">
        <ele>435.6</ele>
        <time>2024-07-31T08:08:29Z</time>
      </trkpt>
      <trkpt lat="47.24073" lon="6.18505">
        <ele>435.6</ele>
        <time>2024-07-31T08:08:30Z</time>
      </trkpt>
      <trkpt lat="47.24073" lon="6.18505">
        <ele>435.6</ele>
        <time>2024-07-31T08:08:31Z</time>
      </trkpt>
      <trkpt lat="47.24073" lon="6.18505">
        <ele>435.6</ele>
        <time>2024-07-31T08:08:32Z</time>
      </trkpt>
      <trkpt lat="47.24073" lon="6.18505">
        <ele>435.6</ele>
        <time>2024-07-31T08:08:33Z</time>
      </trkpt>
      <trkpt lat="47.24073" lon="6.18505">
        <ele>435.4</ele>
        <time>2024-07-31T08:08:34Z</time>
      </trkpt>
      <trkpt lat="47.24073" lon="6.18505">
        <ele>435.6</ele>
        <time>2024-07-31T08:08:35Z</time>
      </trkpt>
      <trkpt lat="47.24073" lon="6.18505">
        <ele>435.4</ele>
        <time>2024-07-31T08:08:36Z</time>
      </trkpt>
      <trkpt lat="47.24073" lon="6.18505">
        <ele>435.4</ele>
        <time>2024-07-31T08:08:37Z</time>
      </trkpt>
      <trkpt lat="47.24073" lon="6.18505">
        <ele>435.4</ele>
        <time>2024-07-31T08:08:38Z</time>
      </trkpt>
      <trkpt lat="47.24073" lon="6.18505">
        <ele>435.4</ele>
        <time>2024-07-31T08:08:39Z</time>
      </trkpt>
      <trkpt lat="47.24073" lon="6.18505">
        <ele>435.6</ele>
        <time>2024-07-31T08:08:40Z</time>
      </trkpt>
      <trkpt lat="47.24073" lon="6.18505">
        <ele>435.6</ele>
        <time>2024-07-31T08:08:41Z</time>
      </trkpt>
      <trkpt lat="47.24073" lon="6.18505">
        <ele>435.6</ele>
        <time>2024-07-31T08:08:42Z</time>
      </trkpt>
      <trkpt lat="47.24073" lon="6.18505">
        <ele>435.6</ele>
        <time>2024-07-31T08:08:43Z</time>
      </trkpt>
      <trkpt lat="47.24073" lon="6.18505">
        <ele>435.4</ele>
        <time>2024-07-31T08:08:44Z</time>
      </trkpt>
      <trkpt lat="47.24073" lon="6.18505">
        <ele>435.4</ele>
        <time>2024-07-31T08:08:45Z</time>
      </trkpt>
      <trkpt lat="47.24073" lon="6.18505">
        <ele>435.6</ele>
        <time>2024-07-31T08:08:46Z</time>
      </trkpt>
      <trkpt lat="47.24073" lon="6.18505">
        <ele>435.6</ele>
        <time>2024-07-31T08:08:47Z</time>
      </trkpt>
      <trkpt lat="47.24073" lon="6.18505">
        <ele>435.6</ele>
        <time>2024-07-31T08:08:48Z</time>
      </trkpt>
      <trkpt lat="47.24073" lon="6.18505">
        <ele>435.4</ele>
        <time>2024-07-31T08:08:49Z</time>
      </trkpt>
      <trkpt lat="47.24073" lon="6.18505">
        <ele>435.4</ele>
        <time>2024-07-31T08:08:50Z</time>
      </trkpt>
      <trkpt lat="47.24073" lon="6.18505">
        <ele>435.4</ele>
        <time>2024-07-31T08:08:51Z</time>
      </trkpt>
      <trkpt lat="47.24073" lon="6.18505">
        <ele>435.2</ele>
        <time>2024-07-31T08:08:52Z</time>
      </trkpt>
      <trkpt lat="47.24073" lon="6.18505">
        <ele>435.4</ele>
        <time>2024-07-31T08:08:53Z</time>
      </trkpt>
      <trkpt lat="47.24073" lon="6.18505">
        <ele>435.4</ele>
        <time>2024-07-31T08:08:54Z</time>
      </trkpt>
      <trkpt lat="47.24073" lon="6.18505">
        <ele>435.2</ele>
        <time>2024-07-31T08:08:55Z</time>
      </trkpt>
      <trkpt lat="47.24073" lon="6.18505">
        <ele>435.4</ele>
        <time>2024-07-31T08:08:56Z</time>
      </trkpt>
      <trkpt lat="47.24073" lon="6.18505">
        <ele>435.4</ele>
        <time>2024-07-31T08:08:57Z</time>
      </trkpt>
      <trkpt lat="47.24073" lon="6.18505">
        <ele>435.2</ele>
        <time>2024-07-31T08:08:58Z</time>
      </trkpt>
      <trkpt lat="47.24073" lon="6.18505">
        <ele>435.2</ele>
        <time>2024-07-31T08:08:59Z</time>
      </trkpt>
      <trkpt lat="47.24073" lon="6.18505">
        <ele>435.4</ele>
        <time>2024-07-31T08:09:00Z</time>
      </trkpt>
      <trkpt lat="47.24073" lon="6.18505">
        <ele>435.4</ele>
        <time>2024-07-31T08:09:01Z</time>
      </trkpt>
      <trkpt lat="47.24073" lon="6.18505">
        <ele>435.2</ele>
        <time>2024-07-31T08:09:02Z</time>
      </trkpt>
      <trkpt lat="47.24073" lon="6.18505">
        <ele>435.2</ele>
        <time>2024-07-31T08:09:03Z</time>
      </trkpt>
      <trkpt lat="47.24073" lon="6.18505">
        <ele>435.2</ele>
        <time>2024-07-31T08:09:04Z</time>
      </trkpt>
      <trkpt lat="47.24073" lon="6.18505">
        <ele>435.2</ele>
        <time>2024-07-31T08:09:05Z</time>
      </trkpt>
      <trkpt lat="47.24073" lon="6.18505">
        <ele>435.2</ele>
        <time>2024-07-31T08:09:06Z</time>
      </trkpt>
      <trkpt lat="47.24073" lon="6.18505">
        <ele>435.2</ele>
        <time>2024-07-31T08:09:07Z</time>
      </trkpt>
      <trkpt lat="47.24073" lon="6.18505">
        <ele>435.2</ele>
        <time>2024-07-31T08:09:08Z</time>
      </trkpt>
      <trkpt lat="47.24073" lon="6.18505">
        <ele>435.2</ele>
        <time>2024-07-31T08:09:09Z</time>
      </trkpt>
      <trkpt lat="47.24073" lon="6.18505">
        <ele>435.2</ele>
        <time>2024-07-31T08:09:10Z</time>
      </trkpt>
      <trkpt lat="47.24073" lon="6.18505">
        <ele>435.2</ele>
        <time>2024-07-31T08:09:11Z</time>
      </trkpt>
      <trkpt lat="47.24073" lon="6.18505">
        <ele>435.4</ele>
        <time>2024-07-31T08:09:12Z</time>
      </trkpt>
      <trkpt lat="47.24073" lon="6.18505">
        <ele>435.2</ele>
        <time>2024-07-31T08:09:13Z</time>
      </trkpt>
      <trkpt lat="47.24073" lon="6.18505">
        <ele>435.2</ele>
        <time>2024-07-31T08:09:14Z</time>
      </trkpt>
      <trkpt lat="47.24073" lon="6.18505">
        <ele>435.2</ele>
        <time>2024-07-31T08:09:15Z</time>
      </trkpt>
      <trkpt lat="47.24073" lon="6.18505">
        <ele>435.2</ele>
        <time>2024-07-31T08:09:16Z</time>
      </trkpt>
      <trkpt lat="47.24073" lon="6.18505">
        <ele>435.4</ele>
        <time>2024-07-31T08:09:17Z</time>
      </trkpt>
      <trkpt lat="47.24073" lon="6.18505">
        <ele>435.4</ele>
        <time>2024-07-31T08:09:18Z</time>
      </trkpt>
      <trkpt lat="47.24073" lon="6.18506">
        <ele>435.2</ele>
        <time>2024-07-31T08:09:19Z</time>
      </trkpt>
      <trkpt lat="47.24073" lon="6.18505">
        <ele>435.4</ele>
        <time>2024-07-31T08:09:20Z</time>
      </trkpt>
      <trkpt lat="47.24073" lon="6.18505">
        <ele>435.2</ele>
        <time>2024-07-31T08:09:21Z</time>
      </trkpt>
      <trkpt lat="47.24073" lon="6.18505">
        <ele>435.2</ele>
        <time>2024-07-31T08:09:22Z</time>
      </trkpt>
      <trkpt lat="47.24073" lon="6.18505">
        <ele>435.2</ele>
        <time>2024-07-31T08:09:23Z</time>
      </trkpt>
      <trkpt lat="47.24072" lon="6.18505">
        <ele>435.2</ele>
        <time>2024-07-31T08:09:24Z</time>
      </trkpt>
      <trkpt lat="47.24072" lon="6.18504">
        <ele>435.2</ele>
        <time>2024-07-31T08:09:25Z</time>
      </trkpt>
      <trkpt lat="47.24072" lon="6.18504">
        <ele>435.2</ele>
        <time>2024-07-31T08:09:26Z</time>
      </trkpt>
      <trkpt lat="47.24072" lon="6.18504">
        <ele>435.2</ele>
        <time>2024-07-31T08:09:27Z</time>
      </trkpt>
      <trkpt lat="47.24072" lon="6.18504">
        <ele>435.2</ele>
        <time>2024-07-31T08:09:28Z</time>
      </trkpt>
      <trkpt lat="47.24072" lon="6.18504">
        <ele>435.2</ele>
        <time>2024-07-31T08:09:29Z</time>
      </trkpt>
      <trkpt lat="47.24072" lon="6.18504">
        <ele>435.2</ele>
        <time>2024-07-31T08:09:30Z</time>
      </trkpt>
      <trkpt lat="47.24072" lon="6.18504">
        <ele>435.2</ele>
        <time>2024-07-31T08:09:31Z</time>
      </trkpt>
      <trkpt lat="47.24072" lon="6.18504">
        <ele>435.2</ele>
        <time>2024-07-31T08:09:32Z</time>
      </trkpt>
      <trkpt lat="47.24072" lon="6.18504">
        <ele>435.2</ele>
        <time>2024-07-31T08:09:33Z</time>
      </trkpt>
      <trkpt lat="47.24072" lon="6.18504">
        <ele>435.2</ele>
        <time>2024-07-31T08:09:34Z</time>
      </trkpt>
      <trkpt lat="47.24072" lon="6.18504">
        <ele>435.2</ele>
        <time>2024-07-31T08:09:35Z</time>
      </trkpt>
      <trkpt lat="47.24072" lon="6.18504">
        <ele>435.2</ele>
        <time>2024-07-31T08:09:36Z</time>
      </trkpt>
      <trkpt lat="47.24072" lon="6.18504">
        <ele>435</ele>
        <time>2024-07-31T08:09:37Z</time>
      </trkpt>
      <trkpt lat="47.24072" lon="6.18504">
        <ele>435.2</ele>
        <time>2024-07-31T08:09:38Z</time>
      </trkpt>
      <trkpt lat="47.24072" lon="6.18504">
        <ele>435</ele>
        <time>2024-07-31T08:09:39Z</time>
      </trkpt>
      <trkpt lat="47.24072" lon="6.18504">
        <ele>435.2</ele>
        <time>2024-07-31T08:09:40Z</time>
      </trkpt>
      <trkpt lat="47.24072" lon="6.18504">
        <ele>435.2</ele>
        <time>2024-07-31T08:09:41Z</time>
      </trkpt>
      <trkpt lat="47.24072" lon="6.18504">
        <ele>435.2</ele>
        <time>2024-07-31T08:09:42Z</time>
      </trkpt>
      <trkpt lat="47.24072" lon="6.18504">
        <ele>435.2</ele>
        <time>2024-07-31T08:09:43Z</time>
      </trkpt>
      <trkpt lat="47.24072" lon="6.18504">
        <ele>435.2</ele>
        <time>2024-07-31T08:09:44Z</time>
      </trkpt>
      <trkpt lat="47.24072" lon="6.18504">
        <ele>435.2</ele>
        <time>2024-07-31T08:09:45Z</time>
      </trkpt>
      <trkpt lat="47.24072" lon="6.18504">
        <ele>435.2</ele>
        <time>2024-07-31T08:09:46Z</time>
      </trkpt>
      <trkpt lat="47.24072" lon="6.18504">
        <ele>435.2</ele>
        <time>2024-07-31T08:09:47Z</time>
      </trkpt>
      <trkpt lat="47.24072" lon="6.18504">
        <ele>435.2</ele>
        <time>2024-07-31T08:09:48Z</time>
      </trkpt>
      <trkpt lat="47.24072" lon="6.18504">
        <ele>435.4</ele>
        <time>2024-07-31T08:09:49Z</time>
      </trkpt>
      <trkpt lat="47.24071" lon="6.18504">
        <ele>435.2</ele>
        <time>2024-07-31T08:09:50Z</time>
      </trkpt>
      <trkpt lat="47.24071" lon="6.18504">
        <ele>435.2</ele>
        <time>2024-07-31T08:09:51Z</time>
      </trkpt>
      <trkpt lat="47.24071" lon="6.18504">
        <ele>435.2</ele>
        <time>2024-07-31T08:09:52Z</time>
      </trkpt>
      <trkpt lat="47.24071" lon="6.18504">
        <ele>435.2</ele>
        <time>2024-07-31T08:09:53Z</time>
      </trkpt>
      <trkpt lat="47.24071" lon="6.18504">
        <ele>435.2</ele>
        <time>2024-07-31T08:09:54Z</time>
      </trkpt>
      <trkpt lat="47.24071" lon="6.18504">
        <ele>435.2</ele>
        <time>2024-07-31T08:09:55Z</time>
      </trkpt>
      <trkpt lat="47.24072" lon="6.18504">
        <ele>435.2</ele>
        <time>2024-07-31T08:09:56Z</time>
      </trkpt>
      <trkpt lat="47.24072" lon="6.18504">
        <ele>435.4</ele>
        <time>2024-07-31T08:09:57Z</time>
      </trkpt>
      <trkpt lat="47.24072" lon="6.18504">
        <ele>435.2</ele>
        <time>2024-07-31T08:09:58Z</time>
      </trkpt>
      <trkpt lat="47.24071" lon="6.18504">
        <ele>435.2</ele>
        <time>2024-07-31T08:09:59Z</time>
      </trkpt>
      <trkpt lat="47.24071" lon="6.18504">
        <ele>435.2</ele>
        <time>2024-07-31T08:10:00Z</time>
      </trkpt>
      <trkpt lat="47.24071" lon="6.18504">
        <ele>435</ele>
        <time>2024-07-31T08:10:01Z</time>
      </trkpt>
      <trkpt lat="47.24071" lon="6.18504">
        <ele>435.2</ele>
        <time>2024-07-31T08:10:02Z</time>
      </trkpt>
      <trkpt lat="47.24071" lon="6.18504">
        <ele>435.2</ele>
        <time>2024-07-31T08:10:03Z</time>
      </trkpt>
      <trkpt lat="47.24071" lon="6.18504">
        <ele>435</ele>
        <time>2024-07-31T08:10:04Z</time>
      </trkpt>
      <trkpt lat="47.24071" lon="6.18504">
        <ele>435</ele>
        <time>2024-07-31T08:10:05Z</time>
      </trkpt>
      <trkpt lat="47.24071" lon="6.18504">
        <ele>435</ele>
        <time>2024-07-31T08:10:06Z</time>
      </trkpt>
      <trkpt lat="47.24071" lon="6.18504">
        <ele>435</ele>
        <time>2024-07-31T08:10:07Z</time>
      </trkpt>
      <trkpt lat="47.24071" lon="6.18504">
        <ele>435</ele>
        <time>2024-07-31T08:10:08Z</time>
      </trkpt>
      <trkpt lat="47.24071" lon="6.18504">
        <ele>435.2</ele>
        <time>2024-07-31T08:10:09Z</time>
      </trkpt>
      <trkpt lat="47.24071" lon="6.18504">
        <ele>435.2</ele>
        <time>2024-07-31T08:10:10Z</time>
      </trkpt>
      <trkpt lat="47.24071" lon="6.18504">
        <ele>435.2</ele>
        <time>2024-07-31T08:10:11Z</time>
      </trkpt>
      <trkpt lat="47.24071" lon="6.18504">
        <ele>435.2</ele>
        <time>2024-07-31T08:10:12Z</time>
      </trkpt>
      <trkpt lat="47.24071" lon="6.18504">
        <ele>435.2</ele>
        <time>2024-07-31T08:10:13Z</time>
      </trkpt>
      <trkpt lat="47.24071" lon="6.18504">
        <ele>435.2</ele>
        <time>2024-07-31T08:10:14Z</time>
      </trkpt>
      <trkpt lat="47.24071" lon="6.18504">
        <ele>435.2</ele>
        <time>2024-07-31T08:10:15Z</time>
      </trkpt>
      <trkpt lat="47.24071" lon="6.18504">
        <ele>435.2</ele>
        <time>2024-07-31T08:10:16Z</time>
      </trkpt>
      <trkpt lat="47.24071" lon="6.18504">
        <ele>435.2</ele>
        <time>2024-07-31T08:10:17Z</time>
      </trkpt>
      <trkpt lat="47.24071" lon="6.18504">
        <ele>435.2</ele>
        <time>2024-07-31T08:10:18Z</time>
      </trkpt>
      <trkpt lat="47.24071" lon="6.18504">
        <ele>435.2</ele>
        <time>2024-07-31T08:10:19Z</time>
      </trkpt>
      <trkpt lat="47.24071" lon="6.18504">
        <ele>435.2</ele>
        <time>2024-07-31T08:10:20Z</time>
      </trkpt>
      <trkpt lat="47.24071" lon="6.18504">
        <ele>435</ele>
        <time>2024-07-31T08:10:21Z</time>
      </trkpt>
      <trkpt lat="47.24071" lon="6.18504">
        <ele>435</ele>
        <time>2024-07-31T08:10:22Z</time>
      </trkpt>
      <trkpt lat="47.24071" lon="6.18504">
        <ele>435</ele>
        <time>2024-07-31T08:10:23Z</time>
      </trkpt>
      <trkpt lat="47.24071" lon="6.18504">
        <ele>435.2</ele>
        <time>2024-07-31T08:10:24Z</time>
      </trkpt>
      <trkpt lat="47.24071" lon="6.18504">
        <ele>435</ele>
        <time>2024-07-31T08:10:25Z</time>
      </trkpt>
      <trkpt lat="47.24071" lon="6.18504">
        <ele>435.2</ele>
        <time>2024-07-31T08:10:26Z</time>
      </trkpt>
      <trkpt lat="47.24071" lon="6.18504">
        <ele>435</ele>
        <time>2024-07-31T08:10:27Z</time>
      </trkpt>
      <trkpt lat="47.24071" lon="6.18504">
        <ele>435</ele>
        <time>2024-07-31T08:10:28Z</time>
      </trkpt>
      <trkpt lat="47.24071" lon="6.18504">
        <ele>435.2</ele>
        <time>2024-07-31T08:10:29Z</time>
      </trkpt>
      <trkpt lat="47.24071" lon="6.18504">
        <ele>435</ele>
        <time>2024-07-31T08:10:30Z</time>
      </trkpt>
      <trkpt lat="47.24071" lon="6.18504">
        <ele>435</ele>
        <time>2024-07-31T08:10:31Z</time>
      </trkpt>
      <trkpt lat="47.24071" lon="6.18504">
        <ele>435</ele>
        <time>2024-07-31T08:10:32Z</time>
      </trkpt>
      <trkpt lat="47.24071" lon="6.18504">
        <ele>435</ele>
        <time>2024-07-31T08:10:33Z</time>
      </trkpt>
      <trkpt lat="47.24071" lon="6.18504">
        <ele>435</ele>
        <time>2024-07-31T08:10:34Z</time>
      </trkpt>
      <trkpt lat="47.24071" lon="6.18504">
        <ele>435</ele>
        <time>2024-07-31T08:10:35Z</time>
      </trkpt>
      <trkpt lat="47.24071" lon="6.18504">
        <ele>435</ele>
        <time>2024-07-31T08:10:36Z</time>
      </trkpt>
      <trkpt lat="47.24071" lon="6.18504">
        <ele>435</ele>
        <time>2024-07-31T08:10:37Z</time>
      </trkpt>
      <trkpt lat="47.24071" lon="6.18504">
        <ele>435</ele>
        <time>2024-07-31T08:10:38Z</time>
      </trkpt>
      <trkpt lat="47.24071" lon="6.18504">
        <ele>435</ele>
        <time>2024-07-31T08:10:39Z</time>
      </trkpt>
      <trkpt lat="47.24071" lon="6.18504">
        <ele>435.2</ele>
        <time>2024-07-31T08:10:40Z</time>
      </trkpt>
      <trkpt lat="47.24071" lon="6.18504">
        <ele>435</ele>
        <time>2024-07-31T08:10:41Z</time>
      </trkpt>
      <trkpt lat="47.24071" lon="6.18504">
        <ele>435</ele>
        <time>2024-07-31T08:10:42Z</time>
      </trkpt>
      <trkpt lat="47.24071" lon="6.18504">
        <ele>435</ele>
        <time>2024-07-31T08:10:43Z</time>
      </trkpt>
      <trkpt lat="47.24071" lon="6.18504">
        <ele>435.2</ele>
        <time>2024-07-31T08:10:44Z</time>
      </trkpt>
      <trkpt lat="47.24071" lon="6.18504">
        <ele>435</ele>
        <time>2024-07-31T08:10:45Z</time>
      </trkpt>
      <trkpt lat="47.24071" lon="6.18504">
        <ele>435</ele>
        <time>2024-07-31T08:10:46Z</time>
      </trkpt>
      <trkpt lat="47.24071" lon="6.18505">
        <ele>435</ele>
        <time>2024-07-31T08:10:47Z</time>
      </trkpt>
      <trkpt lat="47.24071" lon="6.18505">
        <ele>435</ele>
        <time>2024-07-31T08:10:48Z</time>
      </trkpt>
      <trkpt lat="47.24071" lon="6.18505">
        <ele>435</ele>
        <time>2024-07-31T08:10:49Z</time>
      </trkpt>
      <trkpt lat="47.24071" lon="6.18505">
        <ele>435</ele>
        <time>2024-07-31T08:10:50Z</time>
      </trkpt>
      <trkpt lat="47.24071" lon="6.18505">
        <ele>435</ele>
        <time>2024-07-31T08:10:51Z</time>
      </trkpt>
      <trkpt lat="47.24071" lon="6.18505">
        <ele>435</ele>
        <time>2024-07-31T08:10:52Z</time>
      </trkpt>
      <trkpt lat="47.24071" lon="6.18505">
        <ele>435</ele>
        <time>2024-07-31T08:10:53Z</time>
      </trkpt>
      <trkpt lat="47.24071" lon="6.18505">
        <ele>435</ele>
        <time>2024-07-31T08:10:54Z</time>
      </trkpt>
      <trkpt lat="47.24071" lon="6.18505">
        <ele>435</ele>
        <time>2024-07-31T08:10:55Z</time>
      </trkpt>
      <trkpt lat="47.24071" lon="6.18505">
        <ele>435.2</ele>
        <time>2024-07-31T08:10:56Z</time>
      </trkpt>
      <trkpt lat="47.24071" lon="6.18505">
        <ele>435</ele>
        <time>2024-07-31T08:10:57Z</time>
      </trkpt>
      <trkpt lat="47.24071" lon="6.18505">
        <ele>435</ele>
        <time>2024-07-31T08:10:58Z</time>
      </trkpt>
      <trkpt lat="47.24071" lon="6.18505">
        <ele>435</ele>
        <time>2024-07-31T08:10:59Z</time>
      </trkpt>
      <trkpt lat="47.24071" lon="6.18505">
        <ele>435</ele>
        <time>2024-07-31T08:11:00Z</time>
      </trkpt>
      <trkpt lat="47.24071" lon="6.18505">
        <ele>435</ele>
        <time>2024-07-31T08:11:01Z</time>
      </trkpt>
      <trkpt lat="47.24071" lon="6.18505">
        <ele>435</ele>
        <time>2024-07-31T08:11:02Z</time>
      </trkpt>
      <trkpt lat="47.24071" lon="6.18505">
        <ele>435</ele>
        <time>2024-07-31T08:11:03Z</time>
      </trkpt>
      <trkpt lat="47.24071" lon="6.18505">
        <ele>434.8</ele>
        <time>2024-07-31T08:11:04Z</time>
      </trkpt>
      <trkpt lat="47.24071" lon="6.18505">
        <ele>435</ele>
        <time>2024-07-31T08:11:05Z</time>
      </trkpt>
      <trkpt lat="47.24071" lon="6.18505">
        <ele>435</ele>
        <time>2024-07-31T08:11:06Z</time>
      </trkpt>
      <trkpt lat="47.24071" lon="6.18505">
        <ele>435</ele>
        <time>2024-07-31T08:11:07Z</time>
      </trkpt>
      <trkpt lat="47.24071" lon="6.18505">
        <ele>434.8</ele>
        <time>2024-07-31T08:11:08Z</time>
      </trkpt>
      <trkpt lat="47.24071" lon="6.18505">
        <ele>434.8</ele>
        <time>2024-07-31T08:11:09Z</time>
      </trkpt>
      <trkpt lat="47.24071" lon="6.18505">
        <ele>434.8</ele>
        <time>2024-07-31T08:11:10Z</time>
      </trkpt>
      <trkpt lat="47.24071" lon="6.18505">
        <ele>435</ele>
        <time>2024-07-31T08:11:11Z</time>
      </trkpt>
      <trkpt lat="47.24071" lon="6.18505">
        <ele>435</ele>
        <time>2024-07-31T08:11:12Z</time>
      </trkpt>
      <trkpt lat="47.24071" lon="6.18505">
        <ele>435</ele>
        <time>2024-07-31T08:11:13Z</time>
      </trkpt>
      <trkpt lat="47.24071" lon="6.18505">
        <ele>435</ele>
        <time>2024-07-31T08:11:14Z</time>
      </trkpt>
      <trkpt lat="47.24071" lon="6.18505">
        <ele>435</ele>
        <time>2024-07-31T08:11:15Z</time>
      </trkpt>
      <trkpt lat="47.24071" lon="6.18505">
        <ele>435</ele>
        <time>2024-07-31T08:11:16Z</time>
      </trkpt>
      <trkpt lat="47.24071" lon="6.18505">
        <ele>435</ele>
        <time>2024-07-31T08:11:17Z</time>
      </trkpt>
      <trkpt lat="47.24071" lon="6.18505">
        <ele>435</ele>
        <time>2024-07-31T08:11:18Z</time>
      </trkpt>
      <trkpt lat="47.24071" lon="6.18505">
        <ele>435</ele>
        <time>2024-07-31T08:11:19Z</time>
      </trkpt>
      <trkpt lat="47.24071" lon="6.18505">
        <ele>435</ele>
        <time>2024-07-31T08:11:20Z</time>
      </trkpt>
      <trkpt lat="47.24071" lon="6.18505">
        <ele>435</ele>
        <time>2024-07-31T08:11:21Z</time>
      </trkpt>
      <trkpt lat="47.24071" lon="6.18505">
        <ele>435</ele>
        <time>2024-07-31T08:11:22Z</time>
      </trkpt>
      <trkpt lat="47.24071" lon="6.18505">
        <ele>435</ele>
        <time>2024-07-31T08:11:23Z</time>
      </trkpt>
      <trkpt lat="47.2407" lon="6.18505">
        <ele>434.8</ele>
        <time>2024-07-31T08:11:24Z</time>
      </trkpt>
      <trkpt lat="47.2407" lon="6.18505">
        <ele>434.8</ele>
        <time>2024-07-31T08:11:25Z</time>
      </trkpt>
      <trkpt lat="47.24071" lon="6.18506">
        <ele>434.8</ele>
        <time>2024-07-31T08:11:26Z</time>
      </trkpt>
      <trkpt lat="47.24071" lon="6.18506">
        <ele>434.6</ele>
        <time>2024-07-31T08:11:27Z</time>
      </trkpt>
      <trkpt lat="47.24071" lon="6.18506">
        <ele>434.8</ele>
        <time>2024-07-31T08:11:28Z</time>
      </trkpt>
      <trkpt lat="47.24071" lon="6.18506">
        <ele>434.8</ele>
        <time>2024-07-31T08:11:29Z</time>
      </trkpt>
      <trkpt lat="47.24071" lon="6.18506">
        <ele>435</ele>
        <time>2024-07-31T08:11:30Z</time>
      </trkpt>
      <trkpt lat="47.24071" lon="6.18506">
        <ele>435</ele>
        <time>2024-07-31T08:11:31Z</time>
      </trkpt>
      <trkpt lat="47.24071" lon="6.18506">
        <ele>435</ele>
        <time>2024-07-31T08:11:32Z</time>
      </trkpt>
      <trkpt lat="47.24071" lon="6.18506">
        <ele>435</ele>
        <time>2024-07-31T08:11:33Z</time>
      </trkpt>
      <trkpt lat="47.24071" lon="6.18506">
        <ele>435</ele>
        <time>2024-07-31T08:11:34Z</time>
      </trkpt>
      <trkpt lat="47.24071" lon="6.18506">
        <ele>435</ele>
        <time>2024-07-31T08:11:35Z</time>
      </trkpt>
      <trkpt lat="47.24071" lon="6.18506">
        <ele>435</ele>
        <time>2024-07-31T08:11:36Z</time>
      </trkpt>
      <trkpt lat="47.24071" lon="6.18506">
        <ele>435</ele>
        <time>2024-07-31T08:11:37Z</time>
      </trkpt>
      <trkpt lat="47.24071" lon="6.18506">
        <ele>435</ele>
        <time>2024-07-31T08:11:38Z</time>
      </trkpt>
      <trkpt lat="47.24071" lon="6.18506">
        <ele>435</ele>
        <time>2024-07-31T08:11:39Z</time>
      </trkpt>
      <trkpt lat="47.24071" lon="6.18506">
        <ele>435</ele>
        <time>2024-07-31T08:11:40Z</time>
      </trkpt>
      <trkpt lat="47.24071" lon="6.18506">
        <ele>435</ele>
        <time>2024-07-31T08:11:41Z</time>
      </trkpt>
      <trkpt lat="47.24071" lon="6.18506">
        <ele>435</ele>
        <time>2024-07-31T08:11:42Z</time>
      </trkpt>
      <trkpt lat="47.24071" lon="6.18506">
        <ele>435</ele>
        <time>2024-07-31T08:11:43Z</time>
      </trkpt>
      <trkpt lat="47.24071" lon="6.18506">
        <ele>435</ele>
        <time>2024-07-31T08:11:44Z</time>
      </trkpt>
      <trkpt lat="47.24071" lon="6.18506">
        <ele>435</ele>
        <time>2024-07-31T08:11:45Z</time>
      </trkpt>
      <trkpt lat="47.24071" lon="6.18506">
        <ele>435</ele>
        <time>2024-07-31T08:11:46Z</time>
      </trkpt>
      <trkpt lat="47.24071" lon="6.18506">
        <ele>435</ele>
        <time>2024-07-31T08:11:47Z</time>
      </trkpt>
      <trkpt lat="47.24071" lon="6.18506">
        <ele>435</ele>
        <time>2024-07-31T08:11:48Z</time>
      </trkpt>
      <trkpt lat="47.24071" lon="6.18506">
        <ele>435</ele>
        <time>2024-07-31T08:11:49Z</time>
      </trkpt>
      <trkpt lat="47.24071" lon="6.18506">
        <ele>435</ele>
        <time>2024-07-31T08:11:50Z</time>
      </trkpt>
      <trkpt lat="47.24071" lon="6.18506">
        <ele>435</ele>
        <time>2024-07-31T08:11:51Z</time>
      </trkpt>
      <trkpt lat="47.24071" lon="6.18506">
        <ele>435</ele>
        <time>2024-07-31T08:11:52Z</time>
      </trkpt>
      <trkpt lat="47.24071" lon="6.18506">
        <ele>435</ele>
        <time>2024-07-31T08:11:53Z</time>
      </trkpt>
      <trkpt lat="47.24071" lon="6.18506">
        <ele>435</ele>
        <time>2024-07-31T08:11:54Z</time>
      </trkpt>
      <trkpt lat="47.24071" lon="6.18506">
        <ele>435</ele>
        <time>2024-07-31T08:11:55Z</time>
      </trkpt>
      <trkpt lat="47.24071" lon="6.18506">
        <ele>435</ele>
        <time>2024-07-31T08:11:56Z</time>
      </trkpt>
      <trkpt lat="47.24071" lon="6.18506">
        <ele>435</ele>
        <time>2024-07-31T08:11:57Z</time>
      </trkpt>
      <trkpt lat="47.24071" lon="6.18506">
        <ele>435</ele>
        <time>2024-07-31T08:11:58Z</time>
      </trkpt>
      <trkpt lat="47.24071" lon="6.18506">
        <ele>435</ele>
        <time>2024-07-31T08:11:59Z</time>
      </trkpt>
      <trkpt lat="47.24071" lon="6.18506">
        <ele>435</ele>
        <time>2024-07-31T08:12:00Z</time>
      </trkpt>
      <trkpt lat="47.24071" lon="6.18506">
        <ele>435</ele>
        <time>2024-07-31T08:12:01Z</time>
      </trkpt>
      <trkpt lat="47.24071" lon="6.18506">
        <ele>435</ele>
        <time>2024-07-31T08:12:02Z</time>
      </trkpt>
      <trkpt lat="47.24071" lon="6.18506">
        <ele>435</ele>
        <time>2024-07-31T08:12:03Z</time>
      </trkpt>
      <trkpt lat="47.24071" lon="6.18506">
        <ele>435</ele>
        <time>2024-07-31T08:12:04Z</time>
      </trkpt>
      <trkpt lat="47.24071" lon="6.18506">
        <ele>435</ele>
        <time>2024-07-31T08:12:05Z</time>
      </trkpt>
      <trkpt lat="47.24071" lon="6.18506">
        <ele>434.8</ele>
        <time>2024-07-31T08:12:06Z</time>
      </trkpt>
      <trkpt lat="47.24071" lon="6.18506">
        <ele>434.8</ele>
        <time>2024-07-31T08:12:07Z</time>
      </trkpt>
      <trkpt lat="47.24071" lon="6.18506">
        <ele>435</ele>
        <time>2024-07-31T08:12:08Z</time>
      </trkpt>
      <trkpt lat="47.24071" lon="6.18506">
        <ele>434.8</ele>
        <time>2024-07-31T08:12:09Z</time>
      </trkpt>
      <trkpt lat="47.24071" lon="6.18506">
        <ele>435</ele>
        <time>2024-07-31T08:12:10Z</time>
      </trkpt>
      <trkpt lat="47.24071" lon="6.18506">
        <ele>434.8</ele>
        <time>2024-07-31T08:12:11Z</time>
      </trkpt>
      <trkpt lat="47.24071" lon="6.18506">
        <ele>434.8</ele>
        <time>2024-07-31T08:12:12Z</time>
      </trkpt>
      <trkpt lat="47.24071" lon="6.18506">
        <ele>434.8</ele>
        <time>2024-07-31T08:12:13Z</time>
      </trkpt>
      <trkpt lat="47.24071" lon="6.18506">
        <ele>435</ele>
        <time>2024-07-31T08:12:14Z</time>
      </trkpt>
      <trkpt lat="47.24071" lon="6.18506">
        <ele>434.8</ele>
        <time>2024-07-31T08:12:15Z</time>
      </trkpt>
      <trkpt lat="47.24071" lon="6.18506">
        <ele>434.8</ele>
        <time>2024-07-31T08:12:16Z</time>
      </trkpt>
      <trkpt lat="47.24071" lon="6.18506">
        <ele>435</ele>
        <time>2024-07-31T08:12:17Z</time>
      </trkpt>
      <trkpt lat="47.24071" lon="6.18506">
        <ele>434.8</ele>
        <time>2024-07-31T08:12:18Z</time>
      </trkpt>
      <trkpt lat="47.24071" lon="6.18506">
        <ele>435</ele>
        <time>2024-07-31T08:12:19Z</time>
      </trkpt>
      <trkpt lat="47.24071" lon="6.18506">
        <ele>435</ele>
        <time>2024-07-31T08:12:20Z</time>
      </trkpt>
      <trkpt lat="47.24071" lon="6.18506">
        <ele>434.8</ele>
        <time>2024-07-31T08:12:21Z</time>
      </trkpt>
      <trkpt lat="47.24071" lon="6.18506">
        <ele>434.8</ele>
        <time>2024-07-31T08:12:22Z</time>
      </trkpt>
      <trkpt lat="47.24071" lon="6.18506">
        <ele>435</ele>
        <time>2024-07-31T08:12:23Z</time>
      </trkpt>
      <trkpt lat="47.24071" lon="6.18506">
        <ele>435</ele>
        <time>2024-07-31T08:12:24Z</time>
      </trkpt>
      <trkpt lat="47.24071" lon="6.18505">
        <ele>435</ele>
        <time>2024-07-31T08:12:25Z</time>
      </trkpt>
      <trkpt lat="47.24071" lon="6.18506">
        <ele>435</ele>
        <time>2024-07-31T08:12:26Z</time>
      </trkpt>
      <trkpt lat="47.24071" lon="6.18506">
        <ele>435</ele>
        <time>2024-07-31T08:12:27Z</time>
      </trkpt>
      <trkpt lat="47.24071" lon="6.18506">
        <ele>435</ele>
        <time>2024-07-31T08:12:28Z</time>
      </trkpt>
      <trkpt lat="47.24071" lon="6.18506">
        <ele>435</ele>
        <time>2024-07-31T08:12:29Z</time>
      </trkpt>
      <trkpt lat="47.24071" lon="6.18506">
        <ele>434.8</ele>
        <time>2024-07-31T08:12:30Z</time>
      </trkpt>
      <trkpt lat="47.24071" lon="6.18506">
        <ele>435</ele>
        <time>2024-07-31T08:12:31Z</time>
      </trkpt>
      <trkpt lat="47.24071" lon="6.18506">
        <ele>435</ele>
        <time>2024-07-31T08:12:32Z</time>
      </trkpt>
      <trkpt lat="47.24071" lon="6.18506">
        <ele>435</ele>
        <time>2024-07-31T08:12:33Z</time>
      </trkpt>
      <trkpt lat="47.24071" lon="6.18506">
        <ele>435</ele>
        <time>2024-07-31T08:12:34Z</time>
      </trkpt>
      <trkpt lat="47.24071" lon="6.18506">
        <ele>434.8</ele>
        <time>2024-07-31T08:12:35Z</time>
      </trkpt>
      <trkpt lat="47.24071" lon="6.18506">
        <ele>435</ele>
        <time>2024-07-31T08:12:36Z</time>
      </trkpt>
      <trkpt lat="47.24071" lon="6.18505">
        <ele>434.8</ele>
        <time>2024-07-31T08:12:37Z</time>
      </trkpt>
      <trkpt lat="47.24071" lon="6.18505">
        <ele>435</ele>
        <time>2024-07-31T08:12:38Z</time>
      </trkpt>
      <trkpt lat="47.24071" lon="6.18505">
        <ele>435</ele>
        <time>2024-07-31T08:12:39Z</time>
      </trkpt>
      <trkpt lat="47.24071" lon="6.18505">
        <ele>435</ele>
        <time>2024-07-31T08:12:40Z</time>
      </trkpt>
      <trkpt lat="47.24071" lon="6.18505">
        <ele>435</ele>
        <time>2024-07-31T08:12:41Z</time>
      </trkpt>
      <trkpt lat="47.24071" lon="6.18505">
        <ele>434.8</ele>
        <time>2024-07-31T08:12:42Z</time>
      </trkpt>
      <trkpt lat="47.24071" lon="6.18505">
        <ele>435</ele>
        <time>2024-07-31T08:12:43Z</time>
      </trkpt>
      <trkpt lat="47.24071" lon="6.18505">
        <ele>435</ele>
        <time>2024-07-31T08:12:44Z</time>
      </trkpt>
      <trkpt lat="47.24071" lon="6.18504">
        <ele>435</ele>
        <time>2024-07-31T08:12:45Z</time>
      </trkpt>
      <trkpt lat="47.24071" lon="6.18504">
        <ele>435</ele>
        <time>2024-07-31T08:12:46Z</time>
      </trkpt>
      <trkpt lat="47.24071" lon="6.18504">
        <ele>435</ele>
        <time>2024-07-31T08:12:47Z</time>
      </trkpt>
      <trkpt lat="47.24071" lon="6.18504">
        <ele>435</ele>
        <time>2024-07-31T08:12:48Z</time>
      </trkpt>
      <trkpt lat="47.24071" lon="6.18504">
        <ele>435</ele>
        <time>2024-07-31T08:12:49Z</time>
      </trkpt>
      <trkpt lat="47.24071" lon="6.18504">
        <ele>435</ele>
        <time>2024-07-31T08:12:50Z</time>
      </trkpt>
      <trkpt lat="47.24071" lon="6.18504">
        <ele>435</ele>
        <time>2024-07-31T08:12:51Z</time>
      </trkpt>
      <trkpt lat="47.24071" lon="6.18504">
        <ele>435</ele>
        <time>2024-07-31T08:12:52Z</time>
      </trkpt>
      <trkpt lat="47.24072" lon="6.18504">
        <ele>435</ele>
        <time>2024-07-31T08:12:53Z</time>
      </trkpt>
      <trkpt lat="47.24072" lon="6.18504">
        <ele>435</ele>
        <time>2024-07-31T08:12:54Z</time>
      </trkpt>
      <trkpt lat="47.24072" lon="6.18503">
        <ele>435</ele>
        <time>2024-07-31T08:12:55Z</time>
      </trkpt>
      <trkpt lat="47.24072" lon="6.18504">
        <ele>435</ele>
        <time>2024-07-31T08:12:56Z</time>
      </trkpt>
      <trkpt lat="47.24072" lon="6.18504">
        <ele>435.2</ele>
        <time>2024-07-31T08:12:57Z</time>
      </trkpt>
      <trkpt lat="47.24072" lon="6.18504">
        <ele>435.2</ele>
        <time>2024-07-31T08:12:58Z</time>
      </trkpt>
      <trkpt lat="47.24072" lon="6.18504">
        <ele>435.2</ele>
        <time>2024-07-31T08:12:59Z</time>
      </trkpt>
      <trkpt lat="47.24072" lon="6.18504">
        <ele>435.2</ele>
        <time>2024-07-31T08:13:00Z</time>
      </trkpt>
      <trkpt lat="47.24072" lon="6.18504">
        <ele>435.2</ele>
        <time>2024-07-31T08:13:01Z</time>
      </trkpt>
      <trkpt lat="47.24072" lon="6.18503">
        <ele>435.2</ele>
        <time>2024-07-31T08:13:02Z</time>
      </trkpt>
      <trkpt lat="47.24073" lon="6.18503">
        <ele>435</ele>
        <time>2024-07-31T08:13:03Z</time>
      </trkpt>
      <trkpt lat="47.24073" lon="6.18503">
        <ele>435</ele>
        <time>2024-07-31T08:13:04Z</time>
      </trkpt>
      <trkpt lat="47.24073" lon="6.18503">
        <ele>435.2</ele>
        <time>2024-07-31T08:13:05Z</time>
      </trkpt>
      <trkpt lat="47.24073" lon="6.18503">
        <ele>435.2</ele>
        <time>2024-07-31T08:13:06Z</time>
      </trkpt>
      <trkpt lat="47.24072" lon="6.18503">
        <ele>435.2</ele>
        <time>2024-07-31T08:13:07Z</time>
      </trkpt>
      <trkpt lat="47.24072" lon="6.18503">
        <ele>435</ele>
        <time>2024-07-31T08:13:08Z</time>
      </trkpt>
      <trkpt lat="47.24072" lon="6.18503">
        <ele>435.2</ele>
        <time>2024-07-31T08:13:09Z</time>
      </trkpt>
      <trkpt lat="47.24072" lon="6.18503">
        <ele>435.2</ele>
        <time>2024-07-31T08:13:10Z</time>
      </trkpt>
      <trkpt lat="47.24072" lon="6.18503">
        <ele>435.2</ele>
        <time>2024-07-31T08:13:11Z</time>
      </trkpt>
      <trkpt lat="47.24072" lon="6.18503">
        <ele>435.2</ele>
        <time>2024-07-31T08:13:12Z</time>
      </trkpt>
      <trkpt lat="47.24072" lon="6.18503">
        <ele>435.2</ele>
        <time>2024-07-31T08:13:13Z</time>
      </trkpt>
      <trkpt lat="47.24072" lon="6.18503">
        <ele>435.4</ele>
        <time>2024-07-31T08:13:14Z</time>
      </trkpt>
      <trkpt lat="47.24072" lon="6.18503">
        <ele>435.2</ele>
        <time>2024-07-31T08:13:15Z</time>
      </trkpt>
      <trkpt lat="47.24072" lon="6.18503">
        <ele>435.2</ele>
        <time>2024-07-31T08:13:16Z</time>
      </trkpt>
      <trkpt lat="47.24072" lon="6.18503">
        <ele>435.2</ele>
        <time>2024-07-31T08:13:17Z</time>
      </trkpt>
      <trkpt lat="47.24072" lon="6.18503">
        <ele>435.2</ele>
        <time>2024-07-31T08:13:18Z</time>
      </trkpt>
      <trkpt lat="47.24072" lon="6.18503">
        <ele>435.2</ele>
        <time>2024-07-31T08:13:19Z</time>
      </trkpt>
      <trkpt lat="47.24072" lon="6.18503">
        <ele>435.2</ele>
        <time>2024-07-31T08:13:20Z</time>
      </trkpt>
      <trkpt lat="47.24072" lon="6.18503">
        <ele>435</ele>
        <time>2024-07-31T08:13:21Z</time>
      </trkpt>
      <trkpt lat="47.24072" lon="6.18503">
        <ele>435.2</ele>
        <time>2024-07-31T08:13:22Z</time>
      </trkpt>
      <trkpt lat="47.24072" lon="6.18503">
        <ele>435.2</ele>
        <time>2024-07-31T08:13:23Z</time>
      </trkpt>
      <trkpt lat="47.24072" lon="6.18503">
        <ele>435.4</ele>
        <time>2024-07-31T08:13:24Z</time>
      </trkpt>
      <trkpt lat="47.24072" lon="6.18503">
        <ele>435.4</ele>
        <time>2024-07-31T08:13:25Z</time>
      </trkpt>
      <trkpt lat="47.24072" lon="6.18503">
        <ele>435.2</ele>
        <time>2024-07-31T08:13:26Z</time>
      </trkpt>
      <trkpt lat="47.24072" lon="6.18503">
        <ele>435.4</ele>
        <time>2024-07-31T08:13:27Z</time>
      </trkpt>
      <trkpt lat="47.24072" lon="6.18503">
        <ele>435.2</ele>
        <time>2024-07-31T08:13:28Z</time>
      </trkpt>
      <trkpt lat="47.24072" lon="6.18503">
        <ele>435.2</ele>
        <time>2024-07-31T08:13:29Z</time>
      </trkpt>
      <trkpt lat="47.24072" lon="6.18503">
        <ele>435.4</ele>
        <time>2024-07-31T08:13:30Z</time>
      </trkpt>
      <trkpt lat="47.24072" lon="6.18503">
        <ele>435.4</ele>
        <time>2024-07-31T08:13:31Z</time>
      </trkpt>
      <trkpt lat="47.24072" lon="6.18503">
        <ele>435.4</ele>
        <time>2024-07-31T08:13:32Z</time>
      </trkpt>
      <trkpt lat="47.24072" lon="6.18503">
        <ele>435.4</ele>
        <time>2024-07-31T08:13:33Z</time>
      </trkpt>
      <trkpt lat="47.24072" lon="6.18503">
        <ele>435.2</ele>
        <time>2024-07-31T08:13:34Z</time>
      </trkpt>
      <trkpt lat="47.24072" lon="6.18503">
        <ele>435.2</ele>
        <time>2024-07-31T08:13:35Z</time>
      </trkpt>
      <trkpt lat="47.24072" lon="6.18503">
        <ele>435.4</ele>
        <time>2024-07-31T08:13:36Z</time>
      </trkpt>
      <trkpt lat="47.24072" lon="6.18503">
        <ele>435.4</ele>
        <time>2024-07-31T08:13:37Z</time>
      </trkpt>
      <trkpt lat="47.24072" lon="6.18503">
        <ele>435.4</ele>
        <time>2024-07-31T08:13:38Z</time>
      </trkpt>
      <trkpt lat="47.24072" lon="6.18503">
        <ele>435.4</ele>
        <time>2024-07-31T08:13:39Z</time>
      </trkpt>
      <trkpt lat="47.24072" lon="6.18503">
        <ele>435.4</ele>
        <time>2024-07-31T08:13:40Z</time>
      </trkpt>
      <trkpt lat="47.24072" lon="6.18503">
        <ele>435.4</ele>
        <time>2024-07-31T08:13:41Z</time>
      </trkpt>
      <trkpt lat="47.24072" lon="6.18503">
        <ele>435.4</ele>
        <time>2024-07-31T08:13:42Z</time>
      </trkpt>
      <trkpt lat="47.24072" lon="6.18503">
        <ele>435.4</ele>
        <time>2024-07-31T08:13:43Z</time>
      </trkpt>
      <trkpt lat="47.24072" lon="6.18503">
        <ele>435.4</ele>
        <time>2024-07-31T08:13:44Z</time>
      </trkpt>
      <trkpt lat="47.24072" lon="6.18503">
        <ele>435.6</ele>
        <time>2024-07-31T08:13:45Z</time>
      </trkpt>
      <trkpt lat="47.24072" lon="6.18503">
        <ele>435.6</ele>
        <time>2024-07-31T08:13:46Z</time>
      </trkpt>
      <trkpt lat="47.24072" lon="6.18503">
        <ele>435.4</ele>
        <time>2024-07-31T08:13:47Z</time>
      </trkpt>
      <trkpt lat="47.24072" lon="6.18503">
        <ele>435.4</ele>
        <time>2024-07-31T08:13:48Z</time>
      </trkpt>
      <trkpt lat="47.24072" lon="6.18503">
        <ele>435.6</ele>
        <time>2024-07-31T08:13:49Z</time>
      </trkpt>
      <trkpt lat="47.24072" lon="6.18503">
        <ele>435.4</ele>
        <time>2024-07-31T08:13:50Z</time>
      </trkpt>
      <trkpt lat="47.24072" lon="6.18504">
        <ele>435.4</ele>
        <time>2024-07-31T08:13:51Z</time>
      </trkpt>
      <trkpt lat="47.24072" lon="6.18504">
        <ele>435.4</ele>
        <time>2024-07-31T08:13:52Z</time>
      </trkpt>
      <trkpt lat="47.24072" lon="6.18504">
        <ele>435.6</ele>
        <time>2024-07-31T08:13:53Z</time>
      </trkpt>
      <trkpt lat="47.24072" lon="6.18504">
        <ele>435.6</ele>
        <time>2024-07-31T08:13:54Z</time>
      </trkpt>
      <trkpt lat="47.24072" lon="6.18504">
        <ele>435.6</ele>
        <time>2024-07-31T08:13:55Z</time>
      </trkpt>
      <trkpt lat="47.24072" lon="6.18504">
        <ele>435.6</ele>
        <time>2024-07-31T08:13:56Z</time>
      </trkpt>
      <trkpt lat="47.24072" lon="6.18504">
        <ele>435.6</ele>
        <time>2024-07-31T08:13:57Z</time>
      </trkpt>
      <trkpt lat="47.24072" lon="6.18504">
        <ele>435.6</ele>
        <time>2024-07-31T08:13:58Z</time>
      </trkpt>
      <trkpt lat="47.24072" lon="6.18504">
        <ele>435.6</ele>
        <time>2024-07-31T08:13:59Z</time>
      </trkpt>
      <trkpt lat="47.24072" lon="6.18504">
        <ele>435.6</ele>
        <time>2024-07-31T08:14:00Z</time>
      </trkpt>
      <trkpt lat="47.24072" lon="6.18504">
        <ele>435.6</ele>
        <time>2024-07-31T08:14:01Z</time>
      </trkpt>
      <trkpt lat="47.24072" lon="6.18504">
        <ele>435.6</ele>
        <time>2024-07-31T08:14:02Z</time>
      </trkpt>
      <trkpt lat="47.24072" lon="6.18504">
        <ele>435.6</ele>
        <time>2024-07-31T08:14:03Z</time>
      </trkpt>
      <trkpt lat="47.24072" lon="6.18504">
        <ele>435.6</ele>
        <time>2024-07-31T08:14:04Z</time>
      </trkpt>
      <trkpt lat="47.24072" lon="6.18504">
        <ele>435.6</ele>
        <time>2024-07-31T08:14:05Z</time>
      </trkpt>
      <trkpt lat="47.24072" lon="6.18504">
        <ele>435.6</ele>
        <time>2024-07-31T08:14:06Z</time>
      </trkpt>
      <trkpt lat="47.24072" lon="6.18504">
        <ele>435.8</ele>
        <time>2024-07-31T08:14:07Z</time>
      </trkpt>
      <trkpt lat="47.24072" lon="6.18504">
        <ele>435.6</ele>
        <time>2024-07-31T08:14:08Z</time>
      </trkpt>
      <trkpt lat="47.24072" lon="6.18504">
        <ele>435.6</ele>
        <time>2024-07-31T08:14:09Z</time>
      </trkpt>
      <trkpt lat="47.24072" lon="6.18504">
        <ele>435.8</ele>
        <time>2024-07-31T08:14:10Z</time>
      </trkpt>
      <trkpt lat="47.24072" lon="6.18504">
        <ele>436.2</ele>
        <time>2024-07-31T08:14:11Z</time>
      </trkpt>
      <trkpt lat="47.24072" lon="6.18504">
        <ele>436.4</ele>
        <time>2024-07-31T08:14:12Z</time>
      </trkpt>
      <trkpt lat="47.24072" lon="6.18504">
        <ele>436.4</ele>
        <time>2024-07-31T08:14:13Z</time>
      </trkpt>
      <trkpt lat="47.24072" lon="6.18504">
        <ele>436.4</ele>
        <time>2024-07-31T08:14:14Z</time>
      </trkpt>
      <trkpt lat="47.24072" lon="6.18504">
        <ele>436.4</ele>
        <time>2024-07-31T08:14:15Z</time>
      </trkpt>
      <trkpt lat="47.24071" lon="6.18504">
        <ele>436.4</ele>
        <time>2024-07-31T08:14:16Z</time>
      </trkpt>
      <trkpt lat="47.24071" lon="6.18504">
        <ele>436.4</ele>
        <time>2024-07-31T08:14:17Z</time>
      </trkpt>
      <trkpt lat="47.24071" lon="6.18504">
        <ele>436.4</ele>
        <time>2024-07-31T08:14:18Z</time>
      </trkpt>
      <trkpt lat="47.2407" lon="6.18505">
        <ele>436.4</ele>
        <time>2024-07-31T08:14:19Z</time>
      </trkpt>
      <trkpt lat="47.2407" lon="6.18506">
        <ele>436.6</ele>
        <time>2024-07-31T08:14:20Z</time>
      </trkpt>
      <trkpt lat="47.24069" lon="6.18506">
        <ele>436.6</ele>
        <time>2024-07-31T08:14:21Z</time>
      </trkpt>
      <trkpt lat="47.24068" lon="6.18507">
        <ele>436.8</ele>
        <time>2024-07-31T08:14:22Z</time>
      </trkpt>
      <trkpt lat="47.24067" lon="6.18508">
        <ele>437.2</ele>
        <time>2024-07-31T08:14:23Z</time>
      </trkpt>
      <trkpt lat="47.24065" lon="6.18508">
        <ele>437.2</ele>
        <time>2024-07-31T08:14:24Z</time>
      </trkpt>
      <trkpt lat="47.24064" lon="6.18509">
        <ele>437.4</ele>
        <time>2024-07-31T08:14:25Z</time>
      </trkpt>
      <trkpt lat="47.24062" lon="6.1851">
        <ele>437.4</ele>
        <time>2024-07-31T08:14:26Z</time>
      </trkpt>
      <trkpt lat="47.24061" lon="6.18511">
        <ele>437.2</ele>
        <time>2024-07-31T08:14:27Z</time>
      </trkpt>
      <trkpt lat="47.2406" lon="6.18512">
        <ele>437.2</ele>
        <time>2024-07-31T08:14:28Z</time>
      </trkpt>
      <trkpt lat="47.24058" lon="6.18514">
        <ele>437.4</ele>
        <time>2024-07-31T08:14:29Z</time>
      </trkpt>
      <trkpt lat="47.24057" lon="6.18515">
        <ele>437.6</ele>
        <time>2024-07-31T08:14:30Z</time>
      </trkpt>
      <trkpt lat="47.24056" lon="6.18517">
        <ele>437.4</ele>
        <time>2024-07-31T08:14:31Z</time>
      </trkpt>
      <trkpt lat="47.24054" lon="6.18518">
        <ele>437.6</ele>
        <time>2024-07-31T08:14:32Z</time>
      </trkpt>
      <trkpt lat="47.24052" lon="6.1852">
        <ele>437.8</ele>
        <time>2024-07-31T08:14:33Z</time>
      </trkpt>
      <trkpt lat="47.24051" lon="6.18521">
        <ele>438</ele>
        <time>2024-07-31T08:14:34Z</time>
      </trkpt>
      <trkpt lat="47.24049" lon="6.18523">
        <ele>438</ele>
        <time>2024-07-31T08:14:35Z</time>
      </trkpt>
      <trkpt lat="47.24047" lon="6.18524">
        <ele>438.2</ele>
        <time>2024-07-31T08:14:36Z</time>
      </trkpt>
      <trkpt lat="47.24045" lon="6.18525">
        <ele>438.4</ele>
        <time>2024-07-31T08:14:37Z</time>
      </trkpt>
      <trkpt lat="47.24043" lon="6.18526">
        <ele>438.4</ele>
        <time>2024-07-31T08:14:38Z</time>
      </trkpt>
      <trkpt lat="47.24041" lon="6.18528">
        <ele>438.4</ele>
        <time>2024-07-31T08:14:39Z</time>
      </trkpt>
      <trkpt lat="47.24039" lon="6.18529">
        <ele>438.4</ele>
        <time>2024-07-31T08:14:40Z</time>
      </trkpt>
      <trkpt lat="47.24037" lon="6.1853">
        <ele>438.4</ele>
        <time>2024-07-31T08:14:41Z</time>
      </trkpt>
      <trkpt lat="47.24035" lon="6.18532">
        <ele>438.4</ele>
        <time>2024-07-31T08:14:42Z</time>
      </trkpt>
      <trkpt lat="47.24033" lon="6.18533">
        <ele>438.6</ele>
        <time>2024-07-31T08:14:43Z</time>
      </trkpt>
      <trkpt lat="47.24032" lon="6.18535">
        <ele>438.8</ele>
        <time>2024-07-31T08:14:44Z</time>
      </trkpt>
      <trkpt lat="47.2403" lon="6.18536">
        <ele>439.2</ele>
        <time>2024-07-31T08:14:45Z</time>
      </trkpt>
      <trkpt lat="47.24028" lon="6.18538">
        <ele>439.4</ele>
        <time>2024-07-31T08:14:46Z</time>
      </trkpt>
      <trkpt lat="47.24026" lon="6.18539">
        <ele>439.6</ele>
        <time>2024-07-31T08:14:47Z</time>
      </trkpt>
      <trkpt lat="47.24024" lon="6.18541">
        <ele>439.6</ele>
        <time>2024-07-31T08:14:48Z</time>
      </trkpt>
      <trkpt lat="47.24022" lon="6.18542">
        <ele>440</ele>
        <time>2024-07-31T08:14:49Z</time>
      </trkpt>
      <trkpt lat="47.2402" lon="6.18543">
        <ele>439.8</ele>
        <time>2024-07-31T08:14:50Z</time>
      </trkpt>
      <trkpt lat="47.24019" lon="6.18544">
        <ele>440.2</ele>
        <time>2024-07-31T08:14:51Z</time>
      </trkpt>
      <trkpt lat="47.24017" lon="6.18545">
        <ele>440.2</ele>
        <time>2024-07-31T08:14:52Z</time>
      </trkpt>
      <trkpt lat="47.24016" lon="6.18546">
        <ele>440.4</ele>
        <time>2024-07-31T08:14:53Z</time>
      </trkpt>
      <trkpt lat="47.24014" lon="6.18548">
        <ele>440.6</ele>
        <time>2024-07-31T08:14:54Z</time>
      </trkpt>
      <trkpt lat="47.24013" lon="6.18549">
        <ele>440.8</ele>
        <time>2024-07-31T08:14:55Z</time>
      </trkpt>
      <trkpt lat="47.24012" lon="6.18551">
        <ele>441</ele>
        <time>2024-07-31T08:14:56Z</time>
      </trkpt>
      <trkpt lat="47.2401" lon="6.18552">
        <ele>441</ele>
        <time>2024-07-31T08:14:57Z</time>
      </trkpt>
      <trkpt lat="47.24009" lon="6.18553">
        <ele>441.2</ele>
        <time>2024-07-31T08:14:58Z</time>
      </trkpt>
      <trkpt lat="47.24007" lon="6.18554">
        <ele>441.4</ele>
        <time>2024-07-31T08:14:59Z</time>
      </trkpt>
      <trkpt lat="47.24006" lon="6.18555">
        <ele>441.4</ele>
        <time>2024-07-31T08:15:00Z</time>
      </trkpt>
      <trkpt lat="47.24005" lon="6.18555">
        <ele>441.6</ele>
        <time>2024-07-31T08:15:01Z</time>
      </trkpt>
      <trkpt lat="47.24004" lon="6.18556">
        <ele>441.6</ele>
        <time>2024-07-31T08:15:02Z</time>
      </trkpt>
      <trkpt lat="47.24003" lon="6.18556">
        <ele>441.6</ele>
        <time>2024-07-31T08:15:03Z</time>
      </trkpt>
      <trkpt lat="47.24002" lon="6.18556">
        <ele>441.8</ele>
        <time>2024-07-31T08:15:04Z</time>
      </trkpt>
      <trkpt lat="47.24001" lon="6.18556">
        <ele>441.6</ele>
        <time>2024-07-31T08:15:05Z</time>
      </trkpt>
      <trkpt lat="47.24001" lon="6.18556">
        <ele>441.8</ele>
        <time>2024-07-31T08:15:06Z</time>
      </trkpt>
      <trkpt lat="47.24" lon="6.18557">
        <ele>441.6</ele>
        <time>2024-07-31T08:15:07Z</time>
      </trkpt>
      <trkpt lat="47.24" lon="6.18559">
        <ele>441.8</ele>
        <time>2024-07-31T08:15:08Z</time>
      </trkpt>
      <trkpt lat="47.24" lon="6.1856">
        <ele>441.8</ele>
        <time>2024-07-31T08:15:09Z</time>
      </trkpt>
      <trkpt lat="47.24" lon="6.18562">
        <ele>441.8</ele>
        <time>2024-07-31T08:15:10Z</time>
      </trkpt>
      <trkpt lat="47.24" lon="6.18563">
        <ele>442</ele>
        <time>2024-07-31T08:15:11Z</time>
      </trkpt>
      <trkpt lat="47.24" lon="6.18565">
        <ele>441.8</ele>
        <time>2024-07-31T08:15:12Z</time>
      </trkpt>
      <trkpt lat="47.23999" lon="6.18566">
        <ele>442</ele>
        <time>2024-07-31T08:15:13Z</time>
      </trkpt>
      <trkpt lat="47.23999" lon="6.18568">
        <ele>442.4</ele>
        <time>2024-07-31T08:15:14Z</time>
      </trkpt>
      <trkpt lat="47.23999" lon="6.18569">
        <ele>442.6</ele>
        <time>2024-07-31T08:15:15Z</time>
      </trkpt>
      <trkpt lat="47.23998" lon="6.1857">
        <ele>443</ele>
        <time>2024-07-31T08:15:16Z</time>
      </trkpt>
      <trkpt lat="47.23998" lon="6.1857">
        <ele>442.8</ele>
        <time>2024-07-31T08:15:17Z</time>
      </trkpt>
      <trkpt lat="47.23998" lon="6.18571">
        <ele>442.8</ele>
        <time>2024-07-31T08:15:18Z</time>
      </trkpt>
      <trkpt lat="47.23998" lon="6.18571">
        <ele>443</ele>
        <time>2024-07-31T08:15:19Z</time>
      </trkpt>
      <trkpt lat="47.23998" lon="6.18571">
        <ele>442.8</ele>
        <time>2024-07-31T08:15:20Z</time>
      </trkpt>
      <trkpt lat="47.23998" lon="6.18571">
        <ele>442.8</ele>
        <time>2024-07-31T08:15:21Z</time>
      </trkpt>
      <trkpt lat="47.23998" lon="6.18571">
        <ele>443</ele>
        <time>2024-07-31T08:15:22Z</time>
      </trkpt>
      <trkpt lat="47.23998" lon="6.1857">
        <ele>443</ele>
        <time>2024-07-31T08:15:23Z</time>
      </trkpt>
      <trkpt lat="47.23997" lon="6.1857">
        <ele>443</ele>
        <time>2024-07-31T08:15:24Z</time>
      </trkpt>
      <trkpt lat="47.23997" lon="6.1857">
        <ele>443</ele>
        <time>2024-07-31T08:15:25Z</time>
      </trkpt>
      <trkpt lat="47.23997" lon="6.1857">
        <ele>443</ele>
        <time>2024-07-31T08:15:26Z</time>
      </trkpt>
      <trkpt lat="47.23997" lon="6.1857">
        <ele>443</ele>
        <time>2024-07-31T08:15:27Z</time>
      </trkpt>
      <trkpt lat="47.23997" lon="6.1857">
        <ele>442.8</ele>
        <time>2024-07-31T08:15:28Z</time>
      </trkpt>
      <trkpt lat="47.23997" lon="6.1857">
        <ele>442.8</ele>
        <time>2024-07-31T08:15:29Z</time>
      </trkpt>
      <trkpt lat="47.23997" lon="6.1857">
        <ele>442.8</ele>
        <time>2024-07-31T08:15:30Z</time>
      </trkpt>
      <trkpt lat="47.23997" lon="6.1857">
        <ele>442.8</ele>
        <time>2024-07-31T08:15:31Z</time>
      </trkpt>
      <trkpt lat="47.23997" lon="6.1857">
        <ele>442.8</ele>
        <time>2024-07-31T08:15:32Z</time>
      </trkpt>
      <trkpt lat="47.23997" lon="6.18569">
        <ele>442.8</ele>
        <time>2024-07-31T08:15:33Z</time>
      </trkpt>
      <trkpt lat="47.23997" lon="6.18569">
        <ele>442.8</ele>
        <time>2024-07-31T08:15:34Z</time>
      </trkpt>
      <trkpt lat="47.23997" lon="6.18569">
        <ele>442.8</ele>
        <time>2024-07-31T08:15:35Z</time>
      </trkpt>
      <trkpt lat="47.23997" lon="6.18569">
        <ele>442.8</ele>
        <time>2024-07-31T08:15:36Z</time>
      </trkpt>
      <trkpt lat="47.23997" lon="6.18569">
        <ele>443</ele>
        <time>2024-07-31T08:15:37Z</time>
      </trkpt>
      <trkpt lat="47.23997" lon="6.18569">
        <ele>443</ele>
        <time>2024-07-31T08:15:38Z</time>
      </trkpt>
      <trkpt lat="47.23997" lon="6.18569">
        <ele>443</ele>
        <time>2024-07-31T08:15:39Z</time>
      </trkpt>
      <trkpt lat="47.23997" lon="6.18569">
        <ele>443</ele>
        <time>2024-07-31T08:15:40Z</time>
      </trkpt>
      <trkpt lat="47.23997" lon="6.18569">
        <ele>443</ele>
        <time>2024-07-31T08:15:41Z</time>
      </trkpt>
      <trkpt lat="47.23997" lon="6.18569">
        <ele>443</ele>
        <time>2024-07-31T08:15:42Z</time>
      </trkpt>
      <trkpt lat="47.23997" lon="6.18569">
        <ele>442.8</ele>
        <time>2024-07-31T08:15:43Z</time>
      </trkpt>
      <trkpt lat="47.23997" lon="6.18569">
        <ele>443</ele>
        <time>2024-07-31T08:15:44Z</time>
      </trkpt>
      <trkpt lat="47.23998" lon="6.18569">
        <ele>443</ele>
        <time>2024-07-31T08:15:45Z</time>
      </trkpt>
      <trkpt lat="47.23998" lon="6.1857">
        <ele>443</ele>
        <time>2024-07-31T08:15:46Z</time>
      </trkpt>
      <trkpt lat="47.23999" lon="6.18571">
        <ele>443</ele>
        <time>2024-07-31T08:15:47Z</time>
      </trkpt>
      <trkpt lat="47.23999" lon="6.18572">
        <ele>442.8</ele>
        <time>2024-07-31T08:15:48Z</time>
      </trkpt>
      <trkpt lat="47.23999" lon="6.18573">
        <ele>443</ele>
        <time>2024-07-31T08:15:49Z</time>
      </trkpt>
      <trkpt lat="47.23998" lon="6.18574">
        <ele>443.2</ele>
        <time>2024-07-31T08:15:50Z</time>
      </trkpt>
      <trkpt lat="47.23998" lon="6.18575">
        <ele>443.4</ele>
        <time>2024-07-31T08:15:51Z</time>
      </trkpt>
      <trkpt lat="47.23998" lon="6.18576">
        <ele>443.6</ele>
        <time>2024-07-31T08:15:52Z</time>
      </trkpt>
      <trkpt lat="47.23998" lon="6.18577">
        <ele>443.6</ele>
        <time>2024-07-31T08:15:53Z</time>
      </trkpt>
      <trkpt lat="47.23997" lon="6.18577">
        <ele>443.6</ele>
        <time>2024-07-31T08:15:54Z</time>
      </trkpt>
      <trkpt lat="47.23997" lon="6.18577">
        <ele>443.6</ele>
        <time>2024-07-31T08:15:55Z</time>
      </trkpt>
      <trkpt lat="47.23998" lon="6.18577">
        <ele>443.8</ele>
        <time>2024-07-31T08:15:56Z</time>
      </trkpt>
      <trkpt lat="47.23998" lon="6.18577">
        <ele>443.6</ele>
        <time>2024-07-31T08:15:57Z</time>
      </trkpt>
      <trkpt lat="47.23998" lon="6.18576">
        <ele>443.6</ele>
        <time>2024-07-31T08:15:58Z</time>
      </trkpt>
      <trkpt lat="47.23998" lon="6.18576">
        <ele>443.6</ele>
        <time>2024-07-31T08:15:59Z</time>
      </trkpt>
      <trkpt lat="47.23998" lon="6.18575">
        <ele>443.4</ele>
        <time>2024-07-31T08:16:00Z</time>
      </trkpt>
      <trkpt lat="47.23998" lon="6.18575">
        <ele>443.4</ele>
        <time>2024-07-31T08:16:01Z</time>
      </trkpt>
      <trkpt lat="47.23998" lon="6.18575">
        <ele>443.4</ele>
        <time>2024-07-31T08:16:02Z</time>
      </trkpt>
      <trkpt lat="47.23999" lon="6.18575">
        <ele>443.2</ele>
        <time>2024-07-31T08:16:03Z</time>
      </trkpt>
      <trkpt lat="47.23999" lon="6.18575">
        <ele>443.2</ele>
        <time>2024-07-31T08:16:04Z</time>
      </trkpt>
      <trkpt lat="47.23999" lon="6.18576">
        <ele>443.4</ele>
        <time>2024-07-31T08:16:05Z</time>
      </trkpt>
      <trkpt lat="47.23999" lon="6.18576">
        <ele>443.4</ele>
        <time>2024-07-31T08:16:06Z</time>
      </trkpt>
      <trkpt lat="47.23999" lon="6.18576">
        <ele>443.4</ele>
        <time>2024-07-31T08:16:07Z</time>
      </trkpt>
      <trkpt lat="47.23999" lon="6.18575">
        <ele>443.2</ele>
        <time>2024-07-31T08:16:08Z</time>
      </trkpt>
      <trkpt lat="47.23998" lon="6.18575">
        <ele>443.2</ele>
        <time>2024-07-31T08:16:09Z</time>
      </trkpt>
      <trkpt lat="47.23998" lon="6.18575">
        <ele>443.2</ele>
        <time>2024-07-31T08:16:10Z</time>
      </trkpt>
      <trkpt lat="47.23998" lon="6.18575">
        <ele>443.2</ele>
        <time>2024-07-31T08:16:11Z</time>
      </trkpt>
      <trkpt lat="47.23998" lon="6.18576">
        <ele>443.2</ele>
        <time>2024-07-31T08:16:12Z</time>
      </trkpt>
      <trkpt lat="47.23998" lon="6.18576">
        <ele>443.2</ele>
        <time>2024-07-31T08:16:13Z</time>
      </trkpt>
      <trkpt lat="47.23998" lon="6.18576">
        <ele>443.2</ele>
        <time>2024-07-31T08:16:14Z</time>
      </trkpt>
      <trkpt lat="47.23998" lon="6.18576">
        <ele>443.2</ele>
        <time>2024-07-31T08:16:15Z</time>
      </trkpt>
      <trkpt lat="47.23998" lon="6.18576">
        <ele>443.2</ele>
        <time>2024-07-31T08:16:16Z</time>
      </trkpt>
      <trkpt lat="47.23998" lon="6.18576">
        <ele>443.2</ele>
        <time>2024-07-31T08:16:17Z</time>
      </trkpt>
      <trkpt lat="47.23998" lon="6.18576">
        <ele>443.2</ele>
        <time>2024-07-31T08:16:18Z</time>
      </trkpt>
      <trkpt lat="47.23998" lon="6.18576">
        <ele>443.2</ele>
        <time>2024-07-31T08:16:19Z</time>
      </trkpt>
      <trkpt lat="47.23998" lon="6.18576">
        <ele>443.2</ele>
        <time>2024-07-31T08:16:20Z</time>
      </trkpt>
      <trkpt lat="47.23998" lon="6.18576">
        <ele>443.2</ele>
        <time>2024-07-31T08:16:21Z</time>
      </trkpt>
      <trkpt lat="47.23998" lon="6.18576">
        <ele>443.2</ele>
        <time>2024-07-31T08:16:22Z</time>
      </trkpt>
      <trkpt lat="47.23998" lon="6.18576">
        <ele>443.2</ele>
        <time>2024-07-31T08:16:23Z</time>
      </trkpt>
      <trkpt lat="47.23998" lon="6.18576">
        <ele>443.2</ele>
        <time>2024-07-31T08:16:24Z</time>
      </trkpt>
      <trkpt lat="47.23998" lon="6.18576">
        <ele>443.2</ele>
        <time>2024-07-31T08:16:25Z</time>
      </trkpt>
      <trkpt lat="47.23998" lon="6.18576">
        <ele>443.2</ele>
        <time>2024-07-31T08:16:26Z</time>
      </trkpt>
      <trkpt lat="47.23998" lon="6.18576">
        <ele>443.2</ele>
        <time>2024-07-31T08:16:27Z</time>
      </trkpt>
      <trkpt lat="47.23998" lon="6.18576">
        <ele>443.2</ele>
        <time>2024-07-31T08:16:28Z</time>
      </trkpt>
      <trkpt lat="47.23998" lon="6.18576">
        <ele>443</ele>
        <time>2024-07-31T08:16:29Z</time>
      </trkpt>
      <trkpt lat="47.23998" lon="6.18576">
        <ele>443.2</ele>
        <time>2024-07-31T08:16:30Z</time>
      </trkpt>
      <trkpt lat="47.23998" lon="6.18576">
        <ele>443.2</ele>
        <time>2024-07-31T08:16:31Z</time>
      </trkpt>
      <trkpt lat="47.23998" lon="6.18576">
        <ele>443</ele>
        <time>2024-07-31T08:16:32Z</time>
      </trkpt>
      <trkpt lat="47.23998" lon="6.18576">
        <ele>443</ele>
        <time>2024-07-31T08:16:33Z</time>
      </trkpt>
      <trkpt lat="47.23998" lon="6.18576">
        <ele>443</ele>
        <time>2024-07-31T08:16:34Z</time>
      </trkpt>
      <trkpt lat="47.23998" lon="6.18576">
        <ele>443.2</ele>
        <time>2024-07-31T08:16:35Z</time>
      </trkpt>
      <trkpt lat="47.23997" lon="6.18576">
        <ele>443.2</ele>
        <time>2024-07-31T08:16:36Z</time>
      </trkpt>
      <trkpt lat="47.23997" lon="6.18577">
        <ele>443.4</ele>
        <time>2024-07-31T08:16:37Z</time>
      </trkpt>
      <trkpt lat="47.23996" lon="6.18578">
        <ele>443.2</ele>
        <time>2024-07-31T08:16:38Z</time>
      </trkpt>
      <trkpt lat="47.23997" lon="6.18579">
        <ele>443.6</ele>
        <time>2024-07-31T08:16:39Z</time>
      </trkpt>
      <trkpt lat="47.23996" lon="6.1858">
        <ele>443.4</ele>
        <time>2024-07-31T08:16:40Z</time>
      </trkpt>
      <trkpt lat="47.23997" lon="6.18582">
        <ele>443.4</ele>
        <time>2024-07-31T08:16:41Z</time>
      </trkpt>
      <trkpt lat="47.23998" lon="6.18583">
        <ele>443.6</ele>
        <time>2024-07-31T08:16:42Z</time>
      </trkpt>
      <trkpt lat="47.24" lon="6.18583">
        <ele>443.6</ele>
        <time>2024-07-31T08:16:43Z</time>
      </trkpt>
      <trkpt lat="47.24001" lon="6.18584">
        <ele>443.4</ele>
        <time>2024-07-31T08:16:44Z</time>
      </trkpt>
      <trkpt lat="47.24002" lon="6.18585">
        <ele>443.8</ele>
        <time>2024-07-31T08:16:45Z</time>
      </trkpt>
      <trkpt lat="47.24003" lon="6.18587">
        <ele>443.8</ele>
        <time>2024-07-31T08:16:46Z</time>
      </trkpt>
      <trkpt lat="47.24004" lon="6.18589">
        <ele>443.8</ele>
        <time>2024-07-31T08:16:47Z</time>
      </trkpt>
      <trkpt lat="47.24006" lon="6.18592">
        <ele>443.8</ele>
        <time>2024-07-31T08:16:48Z</time>
      </trkpt>
      <trkpt lat="47.24007" lon="6.18595">
        <ele>444</ele>
        <time>2024-07-31T08:16:49Z</time>
      </trkpt>
      <trkpt lat="47.24009" lon="6.18597">
        <ele>444.2</ele>
        <time>2024-07-31T08:16:50Z</time>
      </trkpt>
      <trkpt lat="47.24012" lon="6.186">
        <ele>444.4</ele>
        <time>2024-07-31T08:16:51Z</time>
      </trkpt>
      <trkpt lat="47.24014" lon="6.18603">
        <ele>444.2</ele>
        <time>2024-07-31T08:16:52Z</time>
      </trkpt>
      <trkpt lat="47.24016" lon="6.18606">
        <ele>444.6</ele>
        <time>2024-07-31T08:16:53Z</time>
      </trkpt>
      <trkpt lat="47.24019" lon="6.18609">
        <ele>445</ele>
        <time>2024-07-31T08:16:54Z</time>
      </trkpt>
      <trkpt lat="47.24021" lon="6.18613">
        <ele>445</ele>
        <time>2024-07-31T08:16:55Z</time>
      </trkpt>
      <trkpt lat="47.24024" lon="6.18616">
        <ele>445.4</ele>
        <time>2024-07-31T08:16:56Z</time>
      </trkpt>
      <trkpt lat="47.24026" lon="6.18619">
        <ele>445.4</ele>
        <time>2024-07-31T08:16:57Z</time>
      </trkpt>
      <trkpt lat="47.24029" lon="6.18622">
        <ele>445.4</ele>
        <time>2024-07-31T08:16:58Z</time>
      </trkpt>
      <trkpt lat="47.24031" lon="6.18625">
        <ele>445.6</ele>
        <time>2024-07-31T08:16:59Z</time>
      </trkpt>
      <trkpt lat="47.24034" lon="6.18628">
        <ele>445.8</ele>
        <time>2024-07-31T08:17:00Z</time>
      </trkpt>
      <trkpt lat="47.24036" lon="6.18631">
        <ele>446.2</ele>
        <time>2024-07-31T08:17:01Z</time>
      </trkpt>
      <trkpt lat="47.24039" lon="6.18634">
        <ele>446.2</ele>
        <time>2024-07-31T08:17:02Z</time>
      </trkpt>
      <trkpt lat="47.24042" lon="6.18637">
        <ele>446.4</ele>
        <time>2024-07-31T08:17:03Z</time>
      </trkpt>
      <trkpt lat="47.24044" lon="6.1864">
        <ele>446.4</ele>
        <time>2024-07-31T08:17:04Z</time>
      </trkpt>
      <trkpt lat="47.24047" lon="6.18643">
        <ele>446.6</ele>
        <time>2024-07-31T08:17:05Z</time>
      </trkpt>
      <trkpt lat="47.24049" lon="6.18646">
        <ele>447</ele>
        <time>2024-07-31T08:17:06Z</time>
      </trkpt>
      <trkpt lat="47.24052" lon="6.18649">
        <ele>447</ele>
        <time>2024-07-31T08:17:07Z</time>
      </trkpt>
      <trkpt lat="47.24054" lon="6.18653">
        <ele>447.2</ele>
        <time>2024-07-31T08:17:08Z</time>
      </trkpt>
      <trkpt lat="47.24057" lon="6.18656">
        <ele>447.4</ele>
        <time>2024-07-31T08:17:09Z</time>
      </trkpt>
      <trkpt lat="47.2406" lon="6.1866">
        <ele>447.4</ele>
        <time>2024-07-31T08:17:10Z</time>
      </trkpt>
      <trkpt lat="47.24062" lon="6.18663">
        <ele>447.4</ele>
        <time>2024-07-31T08:17:11Z</time>
      </trkpt>
      <trkpt lat="47.24065" lon="6.18667">
        <ele>447.6</ele>
        <time>2024-07-31T08:17:12Z</time>
      </trkpt>
      <trkpt lat="47.24068" lon="6.1867">
        <ele>448</ele>
        <time>2024-07-31T08:17:13Z</time>
      </trkpt>
      <trkpt lat="47.2407" lon="6.18673">
        <ele>448.2</ele>
        <time>2024-07-31T08:17:14Z</time>
      </trkpt>
      <trkpt lat="47.24073" lon="6.18677">
        <ele>448.2</ele>
        <time>2024-07-31T08:17:15Z</time>
      </trkpt>
      <trkpt lat="47.24075" lon="6.1868">
        <ele>448.4</ele>
        <time>2024-07-31T08:17:16Z</time>
      </trkpt>
      <trkpt lat="47.24077" lon="6.18683">
        <ele>448.4</ele>
        <time>2024-07-31T08:17:17Z</time>
      </trkpt>
      <trkpt lat="47.2408" lon="6.18687">
        <ele>448.4</ele>
        <time>2024-07-31T08:17:18Z</time>
      </trkpt>
      <trkpt lat="47.24082" lon="6.18691">
        <ele>448.6</ele>
        <time>2024-07-31T08:17:19Z</time>
      </trkpt>
      <trkpt lat="47.24085" lon="6.18694">
        <ele>448.8</ele>
        <time>2024-07-31T08:17:20Z</time>
      </trkpt>
      <trkpt lat="47.24087" lon="6.18698">
        <ele>449</ele>
        <time>2024-07-31T08:17:21Z</time>
      </trkpt>
      <trkpt lat="47.2409" lon="6.18702">
        <ele>449</ele>
        <time>2024-07-31T08:17:22Z</time>
      </trkpt>
      <trkpt lat="47.24093" lon="6.18706">
        <ele>449.2</ele>
        <time>2024-07-31T08:17:23Z</time>
      </trkpt>
      <trkpt lat="47.24096" lon="6.1871">
        <ele>449.2</ele>
        <time>2024-07-31T08:17:24Z</time>
      </trkpt>
      <trkpt lat="47.24099" lon="6.18713">
        <ele>449</ele>
        <time>2024-07-31T08:17:25Z</time>
      </trkpt>
      <trkpt lat="47.24102" lon="6.18717">
        <ele>449</ele>
        <time>2024-07-31T08:17:26Z</time>
      </trkpt>
      <trkpt lat="47.24104" lon="6.18721">
        <ele>449.4</ele>
        <time>2024-07-31T08:17:27Z</time>
      </trkpt>
      <trkpt lat="47.24107" lon="6.18725">
        <ele>449.4</ele>
        <time>2024-07-31T08:17:28Z</time>
      </trkpt>
      <trkpt lat="47.2411" lon="6.18729">
        <ele>449.2</ele>
        <time>2024-07-31T08:17:29Z</time>
      </trkpt>
      <trkpt lat="47.24113" lon="6.18733">
        <ele>449.6</ele>
        <time>2024-07-31T08:17:30Z</time>
      </trkpt>
      <trkpt lat="47.24115" lon="6.18737">
        <ele>449.6</ele>
        <time>2024-07-31T08:17:31Z</time>
      </trkpt>
      <trkpt lat="47.24118" lon="6.18741">
        <ele>449.8</ele>
        <time>2024-07-31T08:17:32Z</time>
      </trkpt>
      <trkpt lat="47.2412" lon="6.18745">
        <ele>449.8</ele>
        <time>2024-07-31T08:17:33Z</time>
      </trkpt>
      <trkpt lat="47.24123" lon="6.18749">
        <ele>450</ele>
        <time>2024-07-31T08:17:34Z</time>
      </trkpt>
      <trkpt lat="47.24126" lon="6.18753">
        <ele>450</ele>
        <time>2024-07-31T08:17:35Z</time>
      </trkpt>
      <trkpt lat="47.24128" lon="6.18756">
        <ele>450.2</ele>
        <time>2024-07-31T08:17:36Z</time>
      </trkpt>
      <trkpt lat="47.24131" lon="6.1876">
        <ele>450.2</ele>
        <time>2024-07-31T08:17:37Z</time>
      </trkpt>
      <trkpt lat="47.24134" lon="6.18764">
        <ele>450.4</ele>
        <time>2024-07-31T08:17:38Z</time>
      </trkpt>
      <trkpt lat="47.24137" lon="6.18768">
        <ele>450.4</ele>
        <time>2024-07-31T08:17:39Z</time>
      </trkpt>
      <trkpt lat="47.2414" lon="6.18772">
        <ele>450.4</ele>
        <time>2024-07-31T08:17:40Z</time>
      </trkpt>
      <trkpt lat="47.24143" lon="6.18775">
        <ele>450.4</ele>
        <time>2024-07-31T08:17:41Z</time>
      </trkpt>
      <trkpt lat="47.24146" lon="6.18779">
        <ele>450.4</ele>
        <time>2024-07-31T08:17:42Z</time>
      </trkpt>
      <trkpt lat="47.24149" lon="6.18783">
        <ele>450.6</ele>
        <time>2024-07-31T08:17:43Z</time>
      </trkpt>
      <trkpt lat="47.24153" lon="6.18786">
        <ele>450.4</ele>
        <time>2024-07-31T08:17:44Z</time>
      </trkpt>
      <trkpt lat="47.24156" lon="6.1879">
        <ele>450.4</ele>
        <time>2024-07-31T08:17:45Z</time>
      </trkpt>
      <trkpt lat="47.2416" lon="6.18794">
        <ele>450.4</ele>
        <time>2024-07-31T08:17:46Z</time>
      </trkpt>
      <trkpt lat="47.24163" lon="6.18797">
        <ele>450.6</ele>
        <time>2024-07-31T08:17:47Z</time>
      </trkpt>
      <trkpt lat="47.24167" lon="6.188">
        <ele>450.6</ele>
        <time>2024-07-31T08:17:48Z</time>
      </trkpt>
      <trkpt lat="47.2417" lon="6.18804">
        <ele>450.6</ele>
        <time>2024-07-31T08:17:49Z</time>
      </trkpt>
      <trkpt lat="47.24174" lon="6.18807">
        <ele>450.6</ele>
        <time>2024-07-31T08:17:50Z</time>
      </trkpt>
      <trkpt lat="47.24178" lon="6.18811">
        <ele>450.6</ele>
        <time>2024-07-31T08:17:51Z</time>
      </trkpt>
      <trkpt lat="47.24182" lon="6.18814">
        <ele>450.6</ele>
        <time>2024-07-31T08:17:52Z</time>
      </trkpt>
      <trkpt lat="47.24186" lon="6.18818">
        <ele>450.4</ele>
        <time>2024-07-31T08:17:53Z</time>
      </trkpt>
      <trkpt lat="47.2419" lon="6.18822">
        <ele>450.2</ele>
        <time>2024-07-31T08:17:54Z</time>
      </trkpt>
      <trkpt lat="47.24195" lon="6.18826">
        <ele>450.2</ele>
        <time>2024-07-31T08:17:55Z</time>
      </trkpt>
      <trkpt lat="47.242" lon="6.18831">
        <ele>450</ele>
        <time>2024-07-31T08:17:56Z</time>
      </trkpt>
      <trkpt lat="47.24205" lon="6.18836">
        <ele>449.4</ele>
        <time>2024-07-31T08:17:57Z</time>
      </trkpt>
      <trkpt lat="47.2421" lon="6.18842">
        <ele>449.2</ele>
        <time>2024-07-31T08:17:58Z</time>
      </trkpt>
      <trkpt lat="47.24216" lon="6.18847">
        <ele>449</ele>
        <time>2024-07-31T08:17:59Z</time>
      </trkpt>
      <trkpt lat="47.24222" lon="6.18853">
        <ele>448.6</ele>
        <time>2024-07-31T08:18:00Z</time>
      </trkpt>
      <trkpt lat="47.24228" lon="6.18859">
        <ele>448.6</ele>
        <time>2024-07-31T08:18:01Z</time>
      </trkpt>
      <trkpt lat="47.24233" lon="6.18866">
        <ele>448.4</ele>
        <time>2024-07-31T08:18:02Z</time>
      </trkpt>
      <trkpt lat="47.24239" lon="6.18873">
        <ele>448.2</ele>
        <time>2024-07-31T08:18:03Z</time>
      </trkpt>
      <trkpt lat="47.24244" lon="6.18881">
        <ele>447.8</ele>
        <time>2024-07-31T08:18:04Z</time>
      </trkpt>
      <trkpt lat="47.24249" lon="6.1889">
        <ele>447.8</ele>
        <time>2024-07-31T08:18:05Z</time>
      </trkpt>
      <trkpt lat="47.24253" lon="6.18899">
        <ele>447.6</ele>
        <time>2024-07-31T08:18:06Z</time>
      </trkpt>
      <trkpt lat="47.24258" lon="6.18907">
        <ele>447.2</ele>
        <time>2024-07-31T08:18:07Z</time>
      </trkpt>
      <trkpt lat="47.24262" lon="6.18915">
        <ele>446.4</ele>
        <time>2024-07-31T08:18:08Z</time>
      </trkpt>
      <trkpt lat="47.24265" lon="6.18922">
        <ele>445.4</ele>
        <time>2024-07-31T08:18:09Z</time>
      </trkpt>
      <trkpt lat="47.24269" lon="6.18928">
        <ele>444.6</ele>
        <time>2024-07-31T08:18:10Z</time>
      </trkpt>
      <trkpt lat="47.24272" lon="6.18933">
        <ele>444</ele>
        <time>2024-07-31T08:18:11Z</time>
      </trkpt>
      <trkpt lat="47.24274" lon="6.18937">
        <ele>443.4</ele>
        <time>2024-07-31T08:18:12Z</time>
      </trkpt>
      <trkpt lat="47.24276" lon="6.1894">
        <ele>442.8</ele>
        <time>2024-07-31T08:18:13Z</time>
      </trkpt>
      <trkpt lat="47.24278" lon="6.18941">
        <ele>442.6</ele>
        <time>2024-07-31T08:18:14Z</time>
      </trkpt>
      <trkpt lat="47.24279" lon="6.18942">
        <ele>442.2</ele>
        <time>2024-07-31T08:18:15Z</time>
      </trkpt>
      <trkpt lat="47.24281" lon="6.18944">
        <ele>442</ele>
        <time>2024-07-31T08:18:16Z</time>
      </trkpt>
      <trkpt lat="47.24282" lon="6.18946">
        <ele>441.8</ele>
        <time>2024-07-31T08:18:17Z</time>
      </trkpt>
      <trkpt lat="47.24284" lon="6.18947">
        <ele>441.6</ele>
        <time>2024-07-31T08:18:18Z</time>
      </trkpt>
      <trkpt lat="47.24286" lon="6.18949">
        <ele>441.4</ele>
        <time>2024-07-31T08:18:19Z</time>
      </trkpt>
      <trkpt lat="47.24289" lon="6.18951">
        <ele>441</ele>
        <time>2024-07-31T08:18:20Z</time>
      </trkpt>
      <trkpt lat="47.24292" lon="6.18953">
        <ele>441</ele>
        <time>2024-07-31T08:18:21Z</time>
      </trkpt>
      <trkpt lat="47.24296" lon="6.18956">
        <ele>440.6</ele>
        <time>2024-07-31T08:18:22Z</time>
      </trkpt>
      <trkpt lat="47.24301" lon="6.18958">
        <ele>440.6</ele>
        <time>2024-07-31T08:18:23Z</time>
      </trkpt>
      <trkpt lat="47.24305" lon="6.1896">
        <ele>440</ele>
        <time>2024-07-31T08:18:24Z</time>
      </trkpt>
      <trkpt lat="47.2431" lon="6.18962">
        <ele>439.8</ele>
        <time>2024-07-31T08:18:25Z</time>
      </trkpt>
      <trkpt lat="47.24315" lon="6.18964">
        <ele>439.4</ele>
        <time>2024-07-31T08:18:26Z</time>
      </trkpt>
      <trkpt lat="47.2432" lon="6.18967">
        <ele>439</ele>
        <time>2024-07-31T08:18:27Z</time>
      </trkpt>
      <trkpt lat="47.24325" lon="6.18969">
        <ele>438.6</ele>
        <time>2024-07-31T08:18:28Z</time>
      </trkpt>
      <trkpt lat="47.2433" lon="6.1897">
        <ele>438.2</ele>
        <time>2024-07-31T08:18:29Z</time>
      </trkpt>
      <trkpt lat="47.24334" lon="6.18972">
        <ele>438.2</ele>
        <time>2024-07-31T08:18:30Z</time>
      </trkpt>
      <trkpt lat="47.24339" lon="6.18974">
        <ele>438.2</ele>
        <time>2024-07-31T08:18:31Z</time>
      </trkpt>
      <trkpt lat="47.24344" lon="6.18975">
        <ele>437.8</ele>
        <time>2024-07-31T08:18:32Z</time>
      </trkpt>
      <trkpt lat="47.2435" lon="6.18978">
        <ele>437.6</ele>
        <time>2024-07-31T08:18:33Z</time>
      </trkpt>
      <trkpt lat="47.24355" lon="6.1898">
        <ele>437</ele>
        <time>2024-07-31T08:18:34Z</time>
      </trkpt>
      <trkpt lat="47.24361" lon="6.18983">
        <ele>437</ele>
        <time>2024-07-31T08:18:35Z</time>
      </trkpt>
      <trkpt lat="47.24367" lon="6.18986">
        <ele>436.6</ele>
        <time>2024-07-31T08:18:36Z</time>
      </trkpt>
      <trkpt lat="47.24373" lon="6.18989">
        <ele>436.6</ele>
        <time>2024-07-31T08:18:37Z</time>
      </trkpt>
      <trkpt lat="47.24379" lon="6.18992">
        <ele>435.8</ele>
        <time>2024-07-31T08:18:38Z</time>
      </trkpt>
      <trkpt lat="47.24386" lon="6.18995">
        <ele>435.6</ele>
        <time>2024-07-31T08:18:39Z</time>
      </trkpt>
      <trkpt lat="47.24392" lon="6.18998">
        <ele>435.8</ele>
        <time>2024-07-31T08:18:40Z</time>
      </trkpt>
      <trkpt lat="47.24399" lon="6.19002">
        <ele>435.2</ele>
        <time>2024-07-31T08:18:41Z</time>
      </trkpt>
      <trkpt lat="47.24406" lon="6.19005">
        <ele>434.6</ele>
        <time>2024-07-31T08:18:42Z</time>
      </trkpt>
      <trkpt lat="47.24414" lon="6.19008">
        <ele>434</ele>
        <time>2024-07-31T08:18:43Z</time>
      </trkpt>
      <trkpt lat="47.24422" lon="6.19012">
        <ele>433.6</ele>
        <time>2024-07-31T08:18:44Z</time>
      </trkpt>
      <trkpt lat="47.2443" lon="6.19015">
        <ele>433.6</ele>
        <time>2024-07-31T08:18:45Z</time>
      </trkpt>
      <trkpt lat="47.24437" lon="6.19019">
        <ele>433.2</ele>
        <time>2024-07-31T08:18:46Z</time>
      </trkpt>
      <trkpt lat="47.24445" lon="6.19022">
        <ele>432.8</ele>
        <time>2024-07-31T08:18:47Z</time>
      </trkpt>
      <trkpt lat="47.24452" lon="6.19025">
        <ele>432.2</ele>
        <time>2024-07-31T08:18:48Z</time>
      </trkpt>
      <trkpt lat="47.24459" lon="6.19028">
        <ele>431.6</ele>
        <time>2024-07-31T08:18:49Z</time>
      </trkpt>
      <trkpt lat="47.24466" lon="6.19029">
        <ele>431.2</ele>
        <time>2024-07-31T08:18:50Z</time>
      </trkpt>
      <trkpt lat="47.24472" lon="6.1903">
        <ele>430.4</ele>
        <time>2024-07-31T08:18:51Z</time>
      </trkpt>
      <trkpt lat="47.24477" lon="6.1903">
        <ele>430</ele>
        <time>2024-07-31T08:18:52Z</time>
      </trkpt>
      <trkpt lat="47.24483" lon="6.19028">
        <ele>429.8</ele>
        <time>2024-07-31T08:18:53Z</time>
      </trkpt>
      <trkpt lat="47.24488" lon="6.19027">
        <ele>429.2</ele>
        <time>2024-07-31T08:18:54Z</time>
      </trkpt>
      <trkpt lat="47.24493" lon="6.19028">
        <ele>428.4</ele>
        <time>2024-07-31T08:18:55Z</time>
      </trkpt>
      <trkpt lat="47.24496" lon="6.19031">
        <ele>427.8</ele>
        <time>2024-07-31T08:18:56Z</time>
      </trkpt>
      <trkpt lat="47.24499" lon="6.19036">
        <ele>428</ele>
        <time>2024-07-31T08:18:57Z</time>
      </trkpt>
      <trkpt lat="47.245" lon="6.19042">
        <ele>428.4</ele>
        <time>2024-07-31T08:18:58Z</time>
      </trkpt>
      <trkpt lat="47.245" lon="6.19047">
        <ele>429</ele>
        <time>2024-07-31T08:18:59Z</time>
      </trkpt>
      <trkpt lat="47.245" lon="6.19053">
        <ele>429.2</ele>
        <time>2024-07-31T08:19:00Z</time>
      </trkpt>
      <trkpt lat="47.24499" lon="6.19059">
        <ele>429.8</ele>
        <time>2024-07-31T08:19:01Z</time>
      </trkpt>
      <trkpt lat="47.24499" lon="6.19064">
        <ele>430</ele>
        <time>2024-07-31T08:19:02Z</time>
      </trkpt>
      <trkpt lat="47.24499" lon="6.1907">
        <ele>430.4</ele>
        <time>2024-07-31T08:19:03Z</time>
      </trkpt>
      <trkpt lat="47.24499" lon="6.19075">
        <ele>430.8</ele>
        <time>2024-07-31T08:19:04Z</time>
      </trkpt>
      <trkpt lat="47.24499" lon="6.19081">
        <ele>431.2</ele>
        <time>2024-07-31T08:19:05Z</time>
      </trkpt>
      <trkpt lat="47.245" lon="6.19087">
        <ele>431.4</ele>
        <time>2024-07-31T08:19:06Z</time>
      </trkpt>
      <trkpt lat="47.245" lon="6.19093">
        <ele>432</ele>
        <time>2024-07-31T08:19:07Z</time>
      </trkpt>
      <trkpt lat="47.245" lon="6.19098">
        <ele>432</ele>
        <time>2024-07-31T08:19:08Z</time>
      </trkpt>
      <trkpt lat="47.24501" lon="6.19104">
        <ele>432.2</ele>
        <time>2024-07-31T08:19:09Z</time>
      </trkpt>
      <trkpt lat="47.24501" lon="6.1911">
        <ele>432.6</ele>
        <time>2024-07-31T08:19:10Z</time>
      </trkpt>
      <trkpt lat="47.24502" lon="6.19116">
        <ele>432.8</ele>
        <time>2024-07-31T08:19:11Z</time>
      </trkpt>
      <trkpt lat="47.24502" lon="6.19121">
        <ele>433.2</ele>
        <time>2024-07-31T08:19:12Z</time>
      </trkpt>
      <trkpt lat="47.24503" lon="6.19127">
        <ele>433.2</ele>
        <time>2024-07-31T08:19:13Z</time>
      </trkpt>
      <trkpt lat="47.24504" lon="6.19133">
        <ele>433.6</ele>
        <time>2024-07-31T08:19:14Z</time>
      </trkpt>
      <trkpt lat="47.24505" lon="6.19139">
        <ele>434</ele>
        <time>2024-07-31T08:19:15Z</time>
      </trkpt>
      <trkpt lat="47.24506" lon="6.19144">
        <ele>434.2</ele>
        <time>2024-07-31T08:19:16Z</time>
      </trkpt>
      <trkpt lat="47.24507" lon="6.1915">
        <ele>434.6</ele>
        <time>2024-07-31T08:19:17Z</time>
      </trkpt>
      <trkpt lat="47.24508" lon="6.19156">
        <ele>435</ele>
        <time>2024-07-31T08:19:18Z</time>
      </trkpt>
      <trkpt lat="47.24509" lon="6.19161">
        <ele>435.2</ele>
        <time>2024-07-31T08:19:19Z</time>
      </trkpt>
      <trkpt lat="47.24511" lon="6.19167">
        <ele>435.6</ele>
        <time>2024-07-31T08:19:20Z</time>
      </trkpt>
      <trkpt lat="47.24512" lon="6.19173">
        <ele>435.8</ele>
        <time>2024-07-31T08:19:21Z</time>
      </trkpt>
      <trkpt lat="47.24513" lon="6.19179">
        <ele>436.2</ele>
        <time>2024-07-31T08:19:22Z</time>
      </trkpt>
      <trkpt lat="47.24514" lon="6.19184">
        <ele>436.2</ele>
        <time>2024-07-31T08:19:23Z</time>
      </trkpt>
      <trkpt lat="47.24515" lon="6.1919">
        <ele>436.4</ele>
        <time>2024-07-31T08:19:24Z</time>
      </trkpt>
      <trkpt lat="47.24517" lon="6.19196">
        <ele>436.4</ele>
        <time>2024-07-31T08:19:25Z</time>
      </trkpt>
      <trkpt lat="47.24518" lon="6.19202">
        <ele>436.8</ele>
        <time>2024-07-31T08:19:26Z</time>
      </trkpt>
      <trkpt lat="47.24519" lon="6.19207">
        <ele>437.2</ele>
        <time>2024-07-31T08:19:27Z</time>
      </trkpt>
      <trkpt lat="47.24521" lon="6.19213">
        <ele>437.2</ele>
        <time>2024-07-31T08:19:28Z</time>
      </trkpt>
      <trkpt lat="47.24522" lon="6.19219">
        <ele>437.2</ele>
        <time>2024-07-31T08:19:29Z</time>
      </trkpt>
      <trkpt lat="47.24523" lon="6.19225">
        <ele>437.4</ele>
        <time>2024-07-31T08:19:30Z</time>
      </trkpt>
      <trkpt lat="47.24525" lon="6.19231">
        <ele>437.8</ele>
        <time>2024-07-31T08:19:31Z</time>
      </trkpt>
      <trkpt lat="47.24526" lon="6.19237">
        <ele>438</ele>
        <time>2024-07-31T08:19:32Z</time>
      </trkpt>
      <trkpt lat="47.24527" lon="6.19242">
        <ele>438</ele>
        <time>2024-07-31T08:19:33Z</time>
      </trkpt>
      <trkpt lat="47.24529" lon="6.19248">
        <ele>438.4</ele>
        <time>2024-07-31T08:19:34Z</time>
      </trkpt>
      <trkpt lat="47.2453" lon="6.19254">
        <ele>438.6</ele>
        <time>2024-07-31T08:19:35Z</time>
      </trkpt>
      <trkpt lat="47.24531" lon="6.1926">
        <ele>439</ele>
        <time>2024-07-31T08:19:36Z</time>
      </trkpt>
      <trkpt lat="47.24533" lon="6.19266">
        <ele>439</ele>
        <time>2024-07-31T08:19:37Z</time>
      </trkpt>
      <trkpt lat="47.24534" lon="6.19271">
        <ele>439.2</ele>
        <time>2024-07-31T08:19:38Z</time>
      </trkpt>
      <trkpt lat="47.24535" lon="6.19277">
        <ele>439.4</ele>
        <time>2024-07-31T08:19:39Z</time>
      </trkpt>
      <trkpt lat="47.24536" lon="6.19283">
        <ele>439.6</ele>
        <time>2024-07-31T08:19:40Z</time>
      </trkpt>
      <trkpt lat="47.24538" lon="6.19288">
        <ele>439.8</ele>
        <time>2024-07-31T08:19:41Z</time>
      </trkpt>
      <trkpt lat="47.24539" lon="6.19294">
        <ele>440</ele>
        <time>2024-07-31T08:19:42Z</time>
      </trkpt>
      <trkpt lat="47.2454" lon="6.193">
        <ele>440.4</ele>
        <time>2024-07-31T08:19:43Z</time>
      </trkpt>
      <trkpt lat="47.24541" lon="6.19306">
        <ele>440.8</ele>
        <time>2024-07-31T08:19:44Z</time>
      </trkpt>
      <trkpt lat="47.24543" lon="6.19312">
        <ele>440.8</ele>
        <time>2024-07-31T08:19:45Z</time>
      </trkpt>
      <trkpt lat="47.24544" lon="6.19319">
        <ele>441</ele>
        <time>2024-07-31T08:19:46Z</time>
      </trkpt>
      <trkpt lat="47.24545" lon="6.19325">
        <ele>441.2</ele>
        <time>2024-07-31T08:19:47Z</time>
      </trkpt>
      <trkpt lat="47.24546" lon="6.19331">
        <ele>441.2</ele>
        <time>2024-07-31T08:19:48Z</time>
      </trkpt>
      <trkpt lat="47.24547" lon="6.19337">
        <ele>441.4</ele>
        <time>2024-07-31T08:19:49Z</time>
      </trkpt>
      <trkpt lat="47.24549" lon="6.19343">
        <ele>441.6</ele>
        <time>2024-07-31T08:19:50Z</time>
      </trkpt>
      <trkpt lat="47.2455" lon="6.19349">
        <ele>442</ele>
        <time>2024-07-31T08:19:51Z</time>
      </trkpt>
      <trkpt lat="47.24552" lon="6.19355">
        <ele>442</ele>
        <time>2024-07-31T08:19:52Z</time>
      </trkpt>
      <trkpt lat="47.24553" lon="6.19362">
        <ele>442.2</ele>
        <time>2024-07-31T08:19:53Z</time>
      </trkpt>
      <trkpt lat="47.24554" lon="6.19368">
        <ele>442.4</ele>
        <time>2024-07-31T08:19:54Z</time>
      </trkpt>
      <trkpt lat="47.24556" lon="6.19374">
        <ele>442.6</ele>
        <time>2024-07-31T08:19:55Z</time>
      </trkpt>
      <trkpt lat="47.24557" lon="6.1938">
        <ele>442.6</ele>
        <time>2024-07-31T08:19:56Z</time>
      </trkpt>
      <trkpt lat="47.24558" lon="6.19387">
        <ele>442.8</ele>
        <time>2024-07-31T08:19:57Z</time>
      </trkpt>
      <trkpt lat="47.24559" lon="6.19393">
        <ele>443</ele>
        <time>2024-07-31T08:19:58Z</time>
      </trkpt>
      <trkpt lat="47.24561" lon="6.19399">
        <ele>443.2</ele>
        <time>2024-07-31T08:19:59Z</time>
      </trkpt>
      <trkpt lat="47.24562" lon="6.19406">
        <ele>443.2</ele>
        <time>2024-07-31T08:20:00Z</time>
      </trkpt>
      <trkpt lat="47.24563" lon="6.19412">
        <ele>443.6</ele>
        <time>2024-07-31T08:20:01Z</time>
      </trkpt>
      <trkpt lat="47.24565" lon="6.19418">
        <ele>443.6</ele>
        <time>2024-07-31T08:20:02Z</time>
      </trkpt>
      <trkpt lat="47.24566" lon="6.19425">
        <ele>444</ele>
        <time>2024-07-31T08:20:03Z</time>
      </trkpt>
      <trkpt lat="47.24568" lon="6.19431">
        <ele>444</ele>
        <time>2024-07-31T08:20:04Z</time>
      </trkpt>
      <trkpt lat="47.24569" lon="6.19438">
        <ele>444</ele>
        <time>2024-07-31T08:20:05Z</time>
      </trkpt>
      <trkpt lat="47.2457" lon="6.19444">
        <ele>444</ele>
        <time>2024-07-31T08:20:06Z</time>
      </trkpt>
      <trkpt lat="47.24572" lon="6.19451">
        <ele>444</ele>
        <time>2024-07-31T08:20:07Z</time>
      </trkpt>
      <trkpt lat="47.24573" lon="6.19458">
        <ele>444.2</ele>
        <time>2024-07-31T08:20:08Z</time>
      </trkpt>
      <trkpt lat="47.24574" lon="6.19464">
        <ele>444.2</ele>
        <time>2024-07-31T08:20:09Z</time>
      </trkpt>
      <trkpt lat="47.24575" lon="6.19471">
        <ele>444.2</ele>
        <time>2024-07-31T08:20:10Z</time>
      </trkpt>
      <trkpt lat="47.24577" lon="6.19478">
        <ele>444.6</ele>
        <time>2024-07-31T08:20:11Z</time>
      </trkpt>
      <trkpt lat="47.24578" lon="6.19485">
        <ele>444.6</ele>
        <time>2024-07-31T08:20:12Z</time>
      </trkpt>
      <trkpt lat="47.2458" lon="6.19491">
        <ele>444.6</ele>
        <time>2024-07-31T08:20:13Z</time>
      </trkpt>
      <trkpt lat="47.24581" lon="6.19498">
        <ele>444.6</ele>
        <time>2024-07-31T08:20:14Z</time>
      </trkpt>
      <trkpt lat="47.24582" lon="6.19505">
        <ele>444.8</ele>
        <time>2024-07-31T08:20:15Z</time>
      </trkpt>
      <trkpt lat="47.24584" lon="6.19512">
        <ele>444.6</ele>
        <time>2024-07-31T08:20:16Z</time>
      </trkpt>
      <trkpt lat="47.24585" lon="6.19519">
        <ele>444.8</ele>
        <time>2024-07-31T08:20:17Z</time>
      </trkpt>
      <trkpt lat="47.24586" lon="6.19526">
        <ele>444.8</ele>
        <time>2024-07-31T08:20:18Z</time>
      </trkpt>
      <trkpt lat="47.24588" lon="6.19532">
        <ele>444.8</ele>
        <time>2024-07-31T08:20:19Z</time>
      </trkpt>
      <trkpt lat="47.24589" lon="6.19539">
        <ele>445</ele>
        <time>2024-07-31T08:20:20Z</time>
      </trkpt>
      <trkpt lat="47.24591" lon="6.19546">
        <ele>445.2</ele>
        <time>2024-07-31T08:20:21Z</time>
      </trkpt>
      <trkpt lat="47.24592" lon="6.19553">
        <ele>445.2</ele>
        <time>2024-07-31T08:20:22Z</time>
      </trkpt>
      <trkpt lat="47.24593" lon="6.19559">
        <ele>445.4</ele>
        <time>2024-07-31T08:20:23Z</time>
      </trkpt>
      <trkpt lat="47.24595" lon="6.19566">
        <ele>445.4</ele>
        <time>2024-07-31T08:20:24Z</time>
      </trkpt>
      <trkpt lat="47.24596" lon="6.19573">
        <ele>445.4</ele>
        <time>2024-07-31T08:20:25Z</time>
      </trkpt>
      <trkpt lat="47.24598" lon="6.1958">
        <ele>445.6</ele>
        <time>2024-07-31T08:20:26Z</time>
      </trkpt>
      <trkpt lat="47.24599" lon="6.19587">
        <ele>445.6</ele>
        <time>2024-07-31T08:20:27Z</time>
      </trkpt>
      <trkpt lat="47.24601" lon="6.19594">
        <ele>445.6</ele>
        <time>2024-07-31T08:20:28Z</time>
      </trkpt>
      <trkpt lat="47.24602" lon="6.19601">
        <ele>445.4</ele>
        <time>2024-07-31T08:20:29Z</time>
      </trkpt>
      <trkpt lat="47.24604" lon="6.19608">
        <ele>445.4</ele>
        <time>2024-07-31T08:20:30Z</time>
      </trkpt>
      <trkpt lat="47.24605" lon="6.19615">
        <ele>445.2</ele>
        <time>2024-07-31T08:20:31Z</time>
      </trkpt>
      <trkpt lat="47.24607" lon="6.19622">
        <ele>445.4</ele>
        <time>2024-07-31T08:20:32Z</time>
      </trkpt>
      <trkpt lat="47.24608" lon="6.1963">
        <ele>445</ele>
        <time>2024-07-31T08:20:33Z</time>
      </trkpt>
      <trkpt lat="47.2461" lon="6.19637">
        <ele>444.6</ele>
        <time>2024-07-31T08:20:34Z</time>
      </trkpt>
      <trkpt lat="47.24611" lon="6.19645">
        <ele>444.6</ele>
        <time>2024-07-31T08:20:35Z</time>
      </trkpt>
      <trkpt lat="47.24613" lon="6.19653">
        <ele>444.6</ele>
        <time>2024-07-31T08:20:36Z</time>
      </trkpt>
      <trkpt lat="47.24614" lon="6.1966">
        <ele>444.6</ele>
        <time>2024-07-31T08:20:37Z</time>
      </trkpt>
      <trkpt lat="47.24616" lon="6.19668">
        <ele>444.2</ele>
        <time>2024-07-31T08:20:38Z</time>
      </trkpt>
      <trkpt lat="47.24617" lon="6.19675">
        <ele>444</ele>
        <time>2024-07-31T08:20:39Z</time>
      </trkpt>
      <trkpt lat="47.24617" lon="6.1968">
        <ele>443.6</ele>
        <time>2024-07-31T08:20:40Z</time>
      </trkpt>
      <trkpt lat="47.24616" lon="6.19684">
        <ele>443.6</ele>
        <time>2024-07-31T08:20:41Z</time>
      </trkpt>
      <trkpt lat="47.24615" lon="6.19687">
        <ele>443.4</ele>
        <time>2024-07-31T08:20:42Z</time>
      </trkpt>
      <trkpt lat="47.24614" lon="6.1969">
        <ele>443</ele>
        <time>2024-07-31T08:20:43Z</time>
      </trkpt>
      <trkpt lat="47.24613" lon="6.19692">
        <ele>443</ele>
        <time>2024-07-31T08:20:44Z</time>
      </trkpt>
      <trkpt lat="47.2461" lon="6.19693">
        <ele>443</ele>
        <time>2024-07-31T08:20:45Z</time>
      </trkpt>
      <trkpt lat="47.24607" lon="6.19693">
        <ele>442.8</ele>
        <time>2024-07-31T08:20:46Z</time>
      </trkpt>
      <trkpt lat="47.24604" lon="6.19693">
        <ele>443</ele>
        <time>2024-07-31T08:20:47Z</time>
      </trkpt>
      <trkpt lat="47.24599" lon="6.19693">
        <ele>442.8</ele>
        <time>2024-07-31T08:20:48Z</time>
      </trkpt>
      <trkpt lat="47.24595" lon="6.19693">
        <ele>442.8</ele>
        <time>2024-07-31T08:20:49Z</time>
      </trkpt>
      <trkpt lat="47.2459" lon="6.19694">
        <ele>442.4</ele>
        <time>2024-07-31T08:20:50Z</time>
      </trkpt>
      <trkpt lat="47.24585" lon="6.19697">
        <ele>442</ele>
        <time>2024-07-31T08:20:51Z</time>
      </trkpt>
      <trkpt lat="47.24579" lon="6.19699">
        <ele>441.4</ele>
        <time>2024-07-31T08:20:52Z</time>
      </trkpt>
      <trkpt lat="47.24573" lon="6.19702">
        <ele>440.8</ele>
        <time>2024-07-31T08:20:53Z</time>
      </trkpt>
      <trkpt lat="47.24567" lon="6.19704">
        <ele>440.2</ele>
        <time>2024-07-31T08:20:54Z</time>
      </trkpt>
      <trkpt lat="47.2456" lon="6.19707">
        <ele>440.2</ele>
        <time>2024-07-31T08:20:55Z</time>
      </trkpt>
      <trkpt lat="47.24553" lon="6.19709">
        <ele>438.8</ele>
        <time>2024-07-31T08:20:56Z</time>
      </trkpt>
      <trkpt lat="47.24545" lon="6.19713">
        <ele>438</ele>
        <time>2024-07-31T08:20:57Z</time>
      </trkpt>
      <trkpt lat="47.24537" lon="6.19717">
        <ele>438</ele>
        <time>2024-07-31T08:20:58Z</time>
      </trkpt>
      <trkpt lat="47.24529" lon="6.19721">
        <ele>437.6</ele>
        <time>2024-07-31T08:20:59Z</time>
      </trkpt>
      <trkpt lat="47.24521" lon="6.19726">
        <ele>436.8</ele>
        <time>2024-07-31T08:21:00Z</time>
      </trkpt>
      <trkpt lat="47.24512" lon="6.19731">
        <ele>436.6</ele>
        <time>2024-07-31T08:21:01Z</time>
      </trkpt>
      <trkpt lat="47.24505" lon="6.19736">
        <ele>436</ele>
        <time>2024-07-31T08:21:02Z</time>
      </trkpt>
      <trkpt lat="47.24497" lon="6.1974">
        <ele>436</ele>
        <time>2024-07-31T08:21:03Z</time>
      </trkpt>
      <trkpt lat="47.24491" lon="6.19745">
        <ele>436.2</ele>
        <time>2024-07-31T08:21:04Z</time>
      </trkpt>
      <trkpt lat="47.24484" lon="6.19749">
        <ele>436.2</ele>
        <time>2024-07-31T08:21:05Z</time>
      </trkpt>
      <trkpt lat="47.24478" lon="6.19754">
        <ele>434.6</ele>
        <time>2024-07-31T08:21:06Z</time>
      </trkpt>
      <trkpt lat="47.24472" lon="6.19758">
        <ele>434.6</ele>
        <time>2024-07-31T08:21:07Z</time>
      </trkpt>
      <trkpt lat="47.24466" lon="6.19763">
        <ele>434.6</ele>
        <time>2024-07-31T08:21:08Z</time>
      </trkpt>
      <trkpt lat="47.2446" lon="6.19767">
        <ele>434.2</ele>
        <time>2024-07-31T08:21:09Z</time>
      </trkpt>
      <trkpt lat="47.24455" lon="6.19771">
        <ele>434.2</ele>
        <time>2024-07-31T08:21:10Z</time>
      </trkpt>
      <trkpt lat="47.2445" lon="6.19774">
        <ele>434.4</ele>
        <time>2024-07-31T08:21:11Z</time>
      </trkpt>
      <trkpt lat="47.24445" lon="6.19777">
        <ele>434.2</ele>
        <time>2024-07-31T08:21:12Z</time>
      </trkpt>
      <trkpt lat="47.2444" lon="6.1978">
        <ele>434.6</ele>
        <time>2024-07-31T08:21:13Z</time>
      </trkpt>
      <trkpt lat="47.24436" lon="6.19783">
        <ele>434.2</ele>
        <time>2024-07-31T08:21:14Z</time>
      </trkpt>
      <trkpt lat="47.24432" lon="6.19786">
        <ele>434.2</ele>
        <time>2024-07-31T08:21:15Z</time>
      </trkpt>
      <trkpt lat="47.24428" lon="6.19788">
        <ele>434.4</ele>
        <time>2024-07-31T08:21:16Z</time>
      </trkpt>
      <trkpt lat="47.24425" lon="6.1979">
        <ele>434</ele>
        <time>2024-07-31T08:21:17Z</time>
      </trkpt>
      <trkpt lat="47.24422" lon="6.19793">
        <ele>434.2</ele>
        <time>2024-07-31T08:21:18Z</time>
      </trkpt>
      <trkpt lat="47.24419" lon="6.19795">
        <ele>434.2</ele>
        <time>2024-07-31T08:21:19Z</time>
      </trkpt>
      <trkpt lat="47.24416" lon="6.19797">
        <ele>434.4</ele>
        <time>2024-07-31T08:21:20Z</time>
      </trkpt>
      <trkpt lat="47.24412" lon="6.19799">
        <ele>434.6</ele>
        <time>2024-07-31T08:21:21Z</time>
      </trkpt>
      <trkpt lat="47.24409" lon="6.19801">
        <ele>434.8</ele>
        <time>2024-07-31T08:21:22Z</time>
      </trkpt>
      <trkpt lat="47.24406" lon="6.19803">
        <ele>434.8</ele>
        <time>2024-07-31T08:21:23Z</time>
      </trkpt>
      <trkpt lat="47.24404" lon="6.19806">
        <ele>435</ele>
        <time>2024-07-31T08:21:24Z</time>
      </trkpt>
      <trkpt lat="47.24401" lon="6.19809">
        <ele>434.8</ele>
        <time>2024-07-31T08:21:25Z</time>
      </trkpt>
      <trkpt lat="47.24399" lon="6.19812">
        <ele>435.4</ele>
        <time>2024-07-31T08:21:26Z</time>
      </trkpt>
      <trkpt lat="47.24396" lon="6.19815">
        <ele>435.4</ele>
        <time>2024-07-31T08:21:27Z</time>
      </trkpt>
      <trkpt lat="47.24394" lon="6.19818">
        <ele>435.4</ele>
        <time>2024-07-31T08:21:28Z</time>
      </trkpt>
      <trkpt lat="47.24391" lon="6.19821">
        <ele>435.6</ele>
        <time>2024-07-31T08:21:29Z</time>
      </trkpt>
      <trkpt lat="47.24388" lon="6.19824">
        <ele>435.4</ele>
        <time>2024-07-31T08:21:30Z</time>
      </trkpt>
      <trkpt lat="47.24386" lon="6.19827">
        <ele>435.8</ele>
        <time>2024-07-31T08:21:31Z</time>
      </trkpt>
      <trkpt lat="47.24383" lon="6.19831">
        <ele>436</ele>
        <time>2024-07-31T08:21:32Z</time>
      </trkpt>
      <trkpt lat="47.2438" lon="6.19834">
        <ele>435.8</ele>
        <time>2024-07-31T08:21:33Z</time>
      </trkpt>
      <trkpt lat="47.24377" lon="6.19837">
        <ele>436</ele>
        <time>2024-07-31T08:21:34Z</time>
      </trkpt>
      <trkpt lat="47.24374" lon="6.1984">
        <ele>436</ele>
        <time>2024-07-31T08:21:35Z</time>
      </trkpt>
      <trkpt lat="47.24371" lon="6.19844">
        <ele>435.6</ele>
        <time>2024-07-31T08:21:36Z</time>
      </trkpt>
      <trkpt lat="47.24367" lon="6.19848">
        <ele>436</ele>
        <time>2024-07-31T08:21:37Z</time>
      </trkpt>
      <trkpt lat="47.24364" lon="6.19852">
        <ele>435.6</ele>
        <time>2024-07-31T08:21:38Z</time>
      </trkpt>
      <trkpt lat="47.24361" lon="6.19856">
        <ele>435.6</ele>
        <time>2024-07-31T08:21:39Z</time>
      </trkpt>
      <trkpt lat="47.24358" lon="6.19861">
        <ele>435</ele>
        <time>2024-07-31T08:21:40Z</time>
      </trkpt>
      <trkpt lat="47.24356" lon="6.19866">
        <ele>435</ele>
        <time>2024-07-31T08:21:41Z</time>
      </trkpt>
      <trkpt lat="47.24353" lon="6.19871">
        <ele>435</ele>
        <time>2024-07-31T08:21:42Z</time>
      </trkpt>
      <trkpt lat="47.2435" lon="6.19876">
        <ele>434.8</ele>
        <time>2024-07-31T08:21:43Z</time>
      </trkpt>
      <trkpt lat="47.24347" lon="6.19881">
        <ele>435</ele>
        <time>2024-07-31T08:21:44Z</time>
      </trkpt>
      <trkpt lat="47.24343" lon="6.19886">
        <ele>434.8</ele>
        <time>2024-07-31T08:21:45Z</time>
      </trkpt>
      <trkpt lat="47.24339" lon="6.19892">
        <ele>434.2</ele>
        <time>2024-07-31T08:21:46Z</time>
      </trkpt>
      <trkpt lat="47.24335" lon="6.19897">
        <ele>433.6</ele>
        <time>2024-07-31T08:21:47Z</time>
      </trkpt>
      <trkpt lat="47.2433" lon="6.19902">
        <ele>434.2</ele>
        <time>2024-07-31T08:21:48Z</time>
      </trkpt>
      <trkpt lat="47.24325" lon="6.19907">
        <ele>433.6</ele>
        <time>2024-07-31T08:21:49Z</time>
      </trkpt>
      <trkpt lat="47.24321" lon="6.19913">
        <ele>433.8</ele>
        <time>2024-07-31T08:21:50Z</time>
      </trkpt>
      <trkpt lat="47.24315" lon="6.19919">
        <ele>433</ele>
        <time>2024-07-31T08:21:51Z</time>
      </trkpt>
      <trkpt lat="47.2431" lon="6.19923">
        <ele>432.8</ele>
        <time>2024-07-31T08:21:52Z</time>
      </trkpt>
      <trkpt lat="47.24305" lon="6.19928">
        <ele>432.2</ele>
        <time>2024-07-31T08:21:53Z</time>
      </trkpt>
      <trkpt lat="47.243" lon="6.19932">
        <ele>432.2</ele>
        <time>2024-07-31T08:21:54Z</time>
      </trkpt>
      <trkpt lat="47.24295" lon="6.19936">
        <ele>432.2</ele>
        <time>2024-07-31T08:21:55Z</time>
      </trkpt>
      <trkpt lat="47.2429" lon="6.19941">
        <ele>431.8</ele>
        <time>2024-07-31T08:21:56Z</time>
      </trkpt>
      <trkpt lat="47.24285" lon="6.19945">
        <ele>431.8</ele>
        <time>2024-07-31T08:21:57Z</time>
      </trkpt>
      <trkpt lat="47.24281" lon="6.1995">
        <ele>431.4</ele>
        <time>2024-07-31T08:21:58Z</time>
      </trkpt>
      <trkpt lat="47.24277" lon="6.19954">
        <ele>431.4</ele>
        <time>2024-07-31T08:21:59Z</time>
      </trkpt>
      <trkpt lat="47.24273" lon="6.19958">
        <ele>431.6</ele>
        <time>2024-07-31T08:22:00Z</time>
      </trkpt>
      <trkpt lat="47.24269" lon="6.19961">
        <ele>431.8</ele>
        <time>2024-07-31T08:22:01Z</time>
      </trkpt>
      <trkpt lat="47.24266" lon="6.19964">
        <ele>431.8</ele>
        <time>2024-07-31T08:22:02Z</time>
      </trkpt>
      <trkpt lat="47.24263" lon="6.19967">
        <ele>431.8</ele>
        <time>2024-07-31T08:22:03Z</time>
      </trkpt>
      <trkpt lat="47.2426" lon="6.19971">
        <ele>432.2</ele>
        <time>2024-07-31T08:22:04Z</time>
      </trkpt>
      <trkpt lat="47.24258" lon="6.19975">
        <ele>432.4</ele>
        <time>2024-07-31T08:22:05Z</time>
      </trkpt>
      <trkpt lat="47.24256" lon="6.19979">
        <ele>432.4</ele>
        <time>2024-07-31T08:22:06Z</time>
      </trkpt>
      <trkpt lat="47.24254" lon="6.19983">
        <ele>432.4</ele>
        <time>2024-07-31T08:22:07Z</time>
      </trkpt>
      <trkpt lat="47.24252" lon="6.19987">
        <ele>432.6</ele>
        <time>2024-07-31T08:22:08Z</time>
      </trkpt>
      <trkpt lat="47.2425" lon="6.1999">
        <ele>432.8</ele>
        <time>2024-07-31T08:22:09Z</time>
      </trkpt>
      <trkpt lat="47.24248" lon="6.19994">
        <ele>433.2</ele>
        <time>2024-07-31T08:22:10Z</time>
      </trkpt>
      <trkpt lat="47.24246" lon="6.19998">
        <ele>433.2</ele>
        <time>2024-07-31T08:22:11Z</time>
      </trkpt>
      <trkpt lat="47.24243" lon="6.20001">
        <ele>433.6</ele>
        <time>2024-07-31T08:22:12Z</time>
      </trkpt>
      <trkpt lat="47.24241" lon="6.20004">
        <ele>433.4</ele>
        <time>2024-07-31T08:22:13Z</time>
      </trkpt>
      <trkpt lat="47.24239" lon="6.20008">
        <ele>433.6</ele>
        <time>2024-07-31T08:22:14Z</time>
      </trkpt>
      <trkpt lat="47.24238" lon="6.20011">
        <ele>433.8</ele>
        <time>2024-07-31T08:22:15Z</time>
      </trkpt>
      <trkpt lat="47.24237" lon="6.20014">
        <ele>433.8</ele>
        <time>2024-07-31T08:22:16Z</time>
      </trkpt>
      <trkpt lat="47.24235" lon="6.20016">
        <ele>433.8</ele>
        <time>2024-07-31T08:22:17Z</time>
      </trkpt>
      <trkpt lat="47.24234" lon="6.20018">
        <ele>434</ele>
        <time>2024-07-31T08:22:18Z</time>
      </trkpt>
      <trkpt lat="47.24233" lon="6.20019">
        <ele>434.2</ele>
        <time>2024-07-31T08:22:19Z</time>
      </trkpt>
      <trkpt lat="47.24232" lon="6.20021">
        <ele>434.2</ele>
        <time>2024-07-31T08:22:20Z</time>
      </trkpt>
      <trkpt lat="47.2423" lon="6.20023">
        <ele>434.2</ele>
        <time>2024-07-31T08:22:21Z</time>
      </trkpt>
      <trkpt lat="47.24229" lon="6.20024">
        <ele>434.2</ele>
        <time>2024-07-31T08:22:22Z</time>
      </trkpt>
      <trkpt lat="47.24227" lon="6.20027">
        <ele>434.4</ele>
        <time>2024-07-31T08:22:23Z</time>
      </trkpt>
      <trkpt lat="47.24226" lon="6.20029">
        <ele>434.6</ele>
        <time>2024-07-31T08:22:24Z</time>
      </trkpt>
      <trkpt lat="47.24224" lon="6.20032">
        <ele>434.6</ele>
        <time>2024-07-31T08:22:25Z</time>
      </trkpt>
      <trkpt lat="47.24223" lon="6.20034">
        <ele>434.6</ele>
        <time>2024-07-31T08:22:26Z</time>
      </trkpt>
      <trkpt lat="47.24221" lon="6.20036">
        <ele>434.8</ele>
        <time>2024-07-31T08:22:27Z</time>
      </trkpt>
      <trkpt lat="47.24219" lon="6.20038">
        <ele>434.8</ele>
        <time>2024-07-31T08:22:28Z</time>
      </trkpt>
      <trkpt lat="47.24217" lon="6.20041">
        <ele>434.8</ele>
        <time>2024-07-31T08:22:29Z</time>
      </trkpt>
      <trkpt lat="47.24215" lon="6.20044">
        <ele>434.8</ele>
        <time>2024-07-31T08:22:30Z</time>
      </trkpt>
      <trkpt lat="47.24213" lon="6.20047">
        <ele>435</ele>
        <time>2024-07-31T08:22:31Z</time>
      </trkpt>
      <trkpt lat="47.24211" lon="6.2005">
        <ele>435.2</ele>
        <time>2024-07-31T08:22:32Z</time>
      </trkpt>
      <trkpt lat="47.24209" lon="6.20053">
        <ele>435</ele>
        <time>2024-07-31T08:22:33Z</time>
      </trkpt>
      <trkpt lat="47.24206" lon="6.20057">
        <ele>435.2</ele>
        <time>2024-07-31T08:22:34Z</time>
      </trkpt>
      <trkpt lat="47.24204" lon="6.2006">
        <ele>435.2</ele>
        <time>2024-07-31T08:22:35Z</time>
      </trkpt>
      <trkpt lat="47.24202" lon="6.20063">
        <ele>435.2</ele>
        <time>2024-07-31T08:22:36Z</time>
      </trkpt>
      <trkpt lat="47.242" lon="6.20066">
        <ele>435</ele>
        <time>2024-07-31T08:22:37Z</time>
      </trkpt>
      <trkpt lat="47.24198" lon="6.20069">
        <ele>435.4</ele>
        <time>2024-07-31T08:22:38Z</time>
      </trkpt>
      <trkpt lat="47.24196" lon="6.20072">
        <ele>435.2</ele>
        <time>2024-07-31T08:22:39Z</time>
      </trkpt>
      <trkpt lat="47.24195" lon="6.20076">
        <ele>434.8</ele>
        <time>2024-07-31T08:22:40Z</time>
      </trkpt>
      <trkpt lat="47.24193" lon="6.20079">
        <ele>434.8</ele>
        <time>2024-07-31T08:22:41Z</time>
      </trkpt>
      <trkpt lat="47.24192" lon="6.20082">
        <ele>434.8</ele>
        <time>2024-07-31T08:22:42Z</time>
      </trkpt>
      <trkpt lat="47.24191" lon="6.20086">
        <ele>434.8</ele>
        <time>2024-07-31T08:22:43Z</time>
      </trkpt>
      <trkpt lat="47.2419" lon="6.20089">
        <ele>434.8</ele>
        <time>2024-07-31T08:22:44Z</time>
      </trkpt>
      <trkpt lat="47.24189" lon="6.20093">
        <ele>435</ele>
        <time>2024-07-31T08:22:45Z</time>
      </trkpt>
      <trkpt lat="47.24187" lon="6.20097">
        <ele>435.2</ele>
        <time>2024-07-31T08:22:46Z</time>
      </trkpt>
      <trkpt lat="47.24185" lon="6.20099">
        <ele>435.2</ele>
        <time>2024-07-31T08:22:47Z</time>
      </trkpt>
      <trkpt lat="47.24183" lon="6.20103">
        <ele>435</ele>
        <time>2024-07-31T08:22:48Z</time>
      </trkpt>
      <trkpt lat="47.24182" lon="6.20106">
        <ele>435</ele>
        <time>2024-07-31T08:22:49Z</time>
      </trkpt>
      <trkpt lat="47.2418" lon="6.20109">
        <ele>435.2</ele>
        <time>2024-07-31T08:22:50Z</time>
      </trkpt>
      <trkpt lat="47.24179" lon="6.20111">
        <ele>435</ele>
        <time>2024-07-31T08:22:51Z</time>
      </trkpt>
      <trkpt lat="47.24177" lon="6.20113">
        <ele>435.2</ele>
        <time>2024-07-31T08:22:52Z</time>
      </trkpt>
      <trkpt lat="47.24176" lon="6.20115">
        <ele>435</ele>
        <time>2024-07-31T08:22:53Z</time>
      </trkpt>
      <trkpt lat="47.24175" lon="6.20117">
        <ele>435</ele>
        <time>2024-07-31T08:22:54Z</time>
      </trkpt>
      <trkpt lat="47.24173" lon="6.2012">
        <ele>435.2</ele>
        <time>2024-07-31T08:22:55Z</time>
      </trkpt>
      <trkpt lat="47.24172" lon="6.20122">
        <ele>435.2</ele>
        <time>2024-07-31T08:22:56Z</time>
      </trkpt>
      <trkpt lat="47.24171" lon="6.20124">
        <ele>435</ele>
        <time>2024-07-31T08:22:57Z</time>
      </trkpt>
      <trkpt lat="47.2417" lon="6.20125">
        <ele>435.2</ele>
        <time>2024-07-31T08:22:58Z</time>
      </trkpt>
      <trkpt lat="47.24168" lon="6.20126">
        <ele>435.2</ele>
        <time>2024-07-31T08:22:59Z</time>
      </trkpt>
      <trkpt lat="47.24167" lon="6.20128">
        <ele>435</ele>
        <time>2024-07-31T08:23:00Z</time>
      </trkpt>
      <trkpt lat="47.24166" lon="6.2013">
        <ele>435.2</ele>
        <time>2024-07-31T08:23:01Z</time>
      </trkpt>
      <trkpt lat="47.24164" lon="6.20132">
        <ele>435.4</ele>
        <time>2024-07-31T08:23:02Z</time>
      </trkpt>
      <trkpt lat="47.24163" lon="6.20134">
        <ele>435.6</ele>
        <time>2024-07-31T08:23:03Z</time>
      </trkpt>
      <trkpt lat="47.24163" lon="6.20136">
        <ele>435.6</ele>
        <time>2024-07-31T08:23:04Z</time>
      </trkpt>
      <trkpt lat="47.24162" lon="6.20138">
        <ele>435.8</ele>
        <time>2024-07-31T08:23:05Z</time>
      </trkpt>
      <trkpt lat="47.24162" lon="6.2014">
        <ele>435.8</ele>
        <time>2024-07-31T08:23:06Z</time>
      </trkpt>
      <trkpt lat="47.24161" lon="6.20141">
        <ele>435.8</ele>
        <time>2024-07-31T08:23:07Z</time>
      </trkpt>
      <trkpt lat="47.24159" lon="6.20143">
        <ele>436</ele>
        <time>2024-07-31T08:23:08Z</time>
      </trkpt>
      <trkpt lat="47.24158" lon="6.20144">
        <ele>436</ele>
        <time>2024-07-31T08:23:09Z</time>
      </trkpt>
      <trkpt lat="47.24157" lon="6.20146">
        <ele>435.8</ele>
        <time>2024-07-31T08:23:10Z</time>
      </trkpt>
      <trkpt lat="47.24156" lon="6.20148">
        <ele>436</ele>
        <time>2024-07-31T08:23:11Z</time>
      </trkpt>
      <trkpt lat="47.24154" lon="6.20149">
        <ele>436</ele>
        <time>2024-07-31T08:23:12Z</time>
      </trkpt>
      <trkpt lat="47.24153" lon="6.20151">
        <ele>435.8</ele>
        <time>2024-07-31T08:23:13Z</time>
      </trkpt>
      <trkpt lat="47.24152" lon="6.20154">
        <ele>435.6</ele>
        <time>2024-07-31T08:23:14Z</time>
      </trkpt>
      <trkpt lat="47.2415" lon="6.20157">
        <ele>435.8</ele>
        <time>2024-07-31T08:23:15Z</time>
      </trkpt>
      <trkpt lat="47.24148" lon="6.2016">
        <ele>435.8</ele>
        <time>2024-07-31T08:23:16Z</time>
      </trkpt>
      <trkpt lat="47.24146" lon="6.20163">
        <ele>435.8</ele>
        <time>2024-07-31T08:23:17Z</time>
      </trkpt>
      <trkpt lat="47.24144" lon="6.20167">
        <ele>436</ele>
        <time>2024-07-31T08:23:18Z</time>
      </trkpt>
      <trkpt lat="47.24142" lon="6.2017">
        <ele>436</ele>
        <time>2024-07-31T08:23:19Z</time>
      </trkpt>
      <trkpt lat="47.2414" lon="6.20172">
        <ele>435.8</ele>
        <time>2024-07-31T08:23:20Z</time>
      </trkpt>
      <trkpt lat="47.24139" lon="6.20175">
        <ele>435.8</ele>
        <time>2024-07-31T08:23:21Z</time>
      </trkpt>
      <trkpt lat="47.24137" lon="6.20178">
        <ele>435.8</ele>
        <time>2024-07-31T08:23:22Z</time>
      </trkpt>
      <trkpt lat="47.24135" lon="6.20182">
        <ele>436</ele>
        <time>2024-07-31T08:23:23Z</time>
      </trkpt>
      <trkpt lat="47.24133" lon="6.20185">
        <ele>435.6</ele>
        <time>2024-07-31T08:23:24Z</time>
      </trkpt>
      <trkpt lat="47.2413" lon="6.20188">
        <ele>435.4</ele>
        <time>2024-07-31T08:23:25Z</time>
      </trkpt>
      <trkpt lat="47.24129" lon="6.20193">
        <ele>435.6</ele>
        <time>2024-07-31T08:23:26Z</time>
      </trkpt>
      <trkpt lat="47.24127" lon="6.20196">
        <ele>435.2</ele>
        <time>2024-07-31T08:23:27Z</time>
      </trkpt>
      <trkpt lat="47.24124" lon="6.202">
        <ele>435</ele>
        <time>2024-07-31T08:23:28Z</time>
      </trkpt>
      <trkpt lat="47.24122" lon="6.20205">
        <ele>434.6</ele>
        <time>2024-07-31T08:23:29Z</time>
      </trkpt>
      <trkpt lat="47.2412" lon="6.20209">
        <ele>434.2</ele>
        <time>2024-07-31T08:23:30Z</time>
      </trkpt>
      <trkpt lat="47.24118" lon="6.20212">
        <ele>434.2</ele>
        <time>2024-07-31T08:23:31Z</time>
      </trkpt>
      <trkpt lat="47.24116" lon="6.20216">
        <ele>434</ele>
        <time>2024-07-31T08:23:32Z</time>
      </trkpt>
      <trkpt lat="47.24114" lon="6.20219">
        <ele>433.8</ele>
        <time>2024-07-31T08:23:33Z</time>
      </trkpt>
      <trkpt lat="47.24111" lon="6.20222">
        <ele>433.8</ele>
        <time>2024-07-31T08:23:34Z</time>
      </trkpt>
      <trkpt lat="47.24108" lon="6.20226">
        <ele>433.2</ele>
        <time>2024-07-31T08:23:35Z</time>
      </trkpt>
      <trkpt lat="47.24104" lon="6.20231">
        <ele>433.2</ele>
        <time>2024-07-31T08:23:36Z</time>
      </trkpt>
      <trkpt lat="47.24101" lon="6.20236">
        <ele>433.2</ele>
        <time>2024-07-31T08:23:37Z</time>
      </trkpt>
      <trkpt lat="47.24097" lon="6.2024">
        <ele>433.2</ele>
        <time>2024-07-31T08:23:38Z</time>
      </trkpt>
      <trkpt lat="47.24093" lon="6.20245">
        <ele>432.6</ele>
        <time>2024-07-31T08:23:39Z</time>
      </trkpt>
      <trkpt lat="47.24088" lon="6.20249">
        <ele>431.8</ele>
        <time>2024-07-31T08:23:40Z</time>
      </trkpt>
      <trkpt lat="47.24084" lon="6.20253">
        <ele>431.4</ele>
        <time>2024-07-31T08:23:41Z</time>
      </trkpt>
      <trkpt lat="47.2408" lon="6.20258">
        <ele>431.8</ele>
        <time>2024-07-31T08:23:42Z</time>
      </trkpt>
      <trkpt lat="47.24075" lon="6.20262">
        <ele>431</ele>
        <time>2024-07-31T08:23:43Z</time>
      </trkpt>
      <trkpt lat="47.24069" lon="6.20267">
        <ele>431</ele>
        <time>2024-07-31T08:23:44Z</time>
      </trkpt>
      <trkpt lat="47.24063" lon="6.20271">
        <ele>430.6</ele>
        <time>2024-07-31T08:23:45Z</time>
      </trkpt>
      <trkpt lat="47.24058" lon="6.20275">
        <ele>429.6</ele>
        <time>2024-07-31T08:23:46Z</time>
      </trkpt>
      <trkpt lat="47.24053" lon="6.20277">
        <ele>429.2</ele>
        <time>2024-07-31T08:23:47Z</time>
      </trkpt>
      <trkpt lat="47.24048" lon="6.20279">
        <ele>428.8</ele>
        <time>2024-07-31T08:23:48Z</time>
      </trkpt>
      <trkpt lat="47.24043" lon="6.20279">
        <ele>428.6</ele>
        <time>2024-07-31T08:23:49Z</time>
      </trkpt>
      <trkpt lat="47.24037" lon="6.20281">
        <ele>428.4</ele>
        <time>2024-07-31T08:23:50Z</time>
      </trkpt>
      <trkpt lat="47.24031" lon="6.20283">
        <ele>428.4</ele>
        <time>2024-07-31T08:23:51Z</time>
      </trkpt>
      <trkpt lat="47.24027" lon="6.20286">
        <ele>427.8</ele>
        <time>2024-07-31T08:23:52Z</time>
      </trkpt>
      <trkpt lat="47.24021" lon="6.20291">
        <ele>427.8</ele>
        <time>2024-07-31T08:23:53Z</time>
      </trkpt>
      <trkpt lat="47.24014" lon="6.20296">
        <ele>427.4</ele>
        <time>2024-07-31T08:23:54Z</time>
      </trkpt>
      <trkpt lat="47.24008" lon="6.20302">
        <ele>426.4</ele>
        <time>2024-07-31T08:23:55Z</time>
      </trkpt>
      <trkpt lat="47.23999" lon="6.2031">
        <ele>426.6</ele>
        <time>2024-07-31T08:23:56Z</time>
      </trkpt>
      <trkpt lat="47.23993" lon="6.20316">
        <ele>426</ele>
        <time>2024-07-31T08:23:57Z</time>
      </trkpt>
      <trkpt lat="47.23985" lon="6.20322">
        <ele>425.4</ele>
        <time>2024-07-31T08:23:58Z</time>
      </trkpt>
      <trkpt lat="47.23978" lon="6.20328">
        <ele>424.8</ele>
        <time>2024-07-31T08:23:59Z</time>
      </trkpt>
      <trkpt lat="47.23972" lon="6.20336">
        <ele>424</ele>
        <time>2024-07-31T08:24:00Z</time>
      </trkpt>
      <trkpt lat="47.23966" lon="6.20342">
        <ele>423.8</ele>
        <time>2024-07-31T08:24:01Z</time>
      </trkpt>
      <trkpt lat="47.23959" lon="6.20348">
        <ele>423.6</ele>
        <time>2024-07-31T08:24:02Z</time>
      </trkpt>
      <trkpt lat="47.23953" lon="6.20353">
        <ele>423</ele>
        <time>2024-07-31T08:24:03Z</time>
      </trkpt>
      <trkpt lat="47.23947" lon="6.20358">
        <ele>422.8</ele>
        <time>2024-07-31T08:24:04Z</time>
      </trkpt>
      <trkpt lat="47.23943" lon="6.20362">
        <ele>421.8</ele>
        <time>2024-07-31T08:24:05Z</time>
      </trkpt>
      <trkpt lat="47.23937" lon="6.20367">
        <ele>422</ele>
        <time>2024-07-31T08:24:06Z</time>
      </trkpt>
      <trkpt lat="47.23931" lon="6.20372">
        <ele>421.2</ele>
        <time>2024-07-31T08:24:07Z</time>
      </trkpt>
      <trkpt lat="47.23927" lon="6.20376">
        <ele>420.8</ele>
        <time>2024-07-31T08:24:08Z</time>
      </trkpt>
      <trkpt lat="47.23923" lon="6.20381">
        <ele>420.6</ele>
        <time>2024-07-31T08:24:09Z</time>
      </trkpt>
      <trkpt lat="47.23921" lon="6.20383">
        <ele>420.2</ele>
        <time>2024-07-31T08:24:10Z</time>
      </trkpt>
      <trkpt lat="47.23918" lon="6.20384">
        <ele>420.2</ele>
        <time>2024-07-31T08:24:11Z</time>
      </trkpt>
      <trkpt lat="47.23916" lon="6.20382">
        <ele>420.4</ele>
        <time>2024-07-31T08:24:12Z</time>
      </trkpt>
      <trkpt lat="47.23913" lon="6.20379">
        <ele>420</ele>
        <time>2024-07-31T08:24:13Z</time>
      </trkpt>
      <trkpt lat="47.23909" lon="6.20376">
        <ele>419.8</ele>
        <time>2024-07-31T08:24:14Z</time>
      </trkpt>
      <trkpt lat="47.23906" lon="6.20372">
        <ele>419.8</ele>
        <time>2024-07-31T08:24:15Z</time>
      </trkpt>
      <trkpt lat="47.23903" lon="6.20367">
        <ele>419.8</ele>
        <time>2024-07-31T08:24:16Z</time>
      </trkpt>
      <trkpt lat="47.23899" lon="6.20363">
        <ele>419.6</ele>
        <time>2024-07-31T08:24:17Z</time>
      </trkpt>
      <trkpt lat="47.23895" lon="6.20359">
        <ele>419.4</ele>
        <time>2024-07-31T08:24:18Z</time>
      </trkpt>
      <trkpt lat="47.23891" lon="6.20354">
        <ele>419.6</ele>
        <time>2024-07-31T08:24:19Z</time>
      </trkpt>
      <trkpt lat="47.23887" lon="6.2035">
        <ele>419.4</ele>
        <time>2024-07-31T08:24:20Z</time>
      </trkpt>
      <trkpt lat="47.23884" lon="6.20346">
        <ele>419</ele>
        <time>2024-07-31T08:24:21Z</time>
      </trkpt>
      <trkpt lat="47.23879" lon="6.20343">
        <ele>418.8</ele>
        <time>2024-07-31T08:24:22Z</time>
      </trkpt>
      <trkpt lat="47.23876" lon="6.20339">
        <ele>419</ele>
        <time>2024-07-31T08:24:23Z</time>
      </trkpt>
      <trkpt lat="47.23873" lon="6.20336">
        <ele>419</ele>
        <time>2024-07-31T08:24:24Z</time>
      </trkpt>
      <trkpt lat="47.23869" lon="6.20332">
        <ele>418.8</ele>
        <time>2024-07-31T08:24:25Z</time>
      </trkpt>
      <trkpt lat="47.23865" lon="6.20328">
        <ele>419.2</ele>
        <time>2024-07-31T08:24:26Z</time>
      </trkpt>
      <trkpt lat="47.23862" lon="6.20323">
        <ele>420.4</ele>
        <time>2024-07-31T08:24:27Z</time>
      </trkpt>
      <trkpt lat="47.23859" lon="6.2032">
        <ele>420.4</ele>
        <time>2024-07-31T08:24:28Z</time>
      </trkpt>
      <trkpt lat="47.23857" lon="6.20318">
        <ele>421</ele>
        <time>2024-07-31T08:24:29Z</time>
      </trkpt>
      <trkpt lat="47.23855" lon="6.20316">
        <ele>421.4</ele>
        <time>2024-07-31T08:24:30Z</time>
      </trkpt>
      <trkpt lat="47.23853" lon="6.20315">
        <ele>421.8</ele>
        <time>2024-07-31T08:24:31Z</time>
      </trkpt>
      <trkpt lat="47.23852" lon="6.20313">
        <ele>422.2</ele>
        <time>2024-07-31T08:24:32Z</time>
      </trkpt>
      <trkpt lat="47.2385" lon="6.20311">
        <ele>422.4</ele>
        <time>2024-07-31T08:24:33Z</time>
      </trkpt>
      <trkpt lat="47.23848" lon="6.20308">
        <ele>422.6</ele>
        <time>2024-07-31T08:24:34Z</time>
      </trkpt>
      <trkpt lat="47.23846" lon="6.20306">
        <ele>422.8</ele>
        <time>2024-07-31T08:24:35Z</time>
      </trkpt>
      <trkpt lat="47.23844" lon="6.20303">
        <ele>423</ele>
        <time>2024-07-31T08:24:36Z</time>
      </trkpt>
      <trkpt lat="47.23842" lon="6.20301">
        <ele>423</ele>
        <time>2024-07-31T08:24:37Z</time>
      </trkpt>
      <trkpt lat="47.2384" lon="6.20298">
        <ele>423</ele>
        <time>2024-07-31T08:24:38Z</time>
      </trkpt>
      <trkpt lat="47.23838" lon="6.20296">
        <ele>423.2</ele>
        <time>2024-07-31T08:24:39Z</time>
      </trkpt>
      <trkpt lat="47.23835" lon="6.20294">
        <ele>423.2</ele>
        <time>2024-07-31T08:24:40Z</time>
      </trkpt>
      <trkpt lat="47.23833" lon="6.20291">
        <ele>423.4</ele>
        <time>2024-07-31T08:24:41Z</time>
      </trkpt>
      <trkpt lat="47.23831" lon="6.20289">
        <ele>423.4</ele>
        <time>2024-07-31T08:24:42Z</time>
      </trkpt>
      <trkpt lat="47.23829" lon="6.20287">
        <ele>423.4</ele>
        <time>2024-07-31T08:24:43Z</time>
      </trkpt>
      <trkpt lat="47.23826" lon="6.20284">
        <ele>423.6</ele>
        <time>2024-07-31T08:24:44Z</time>
      </trkpt>
      <trkpt lat="47.23824" lon="6.20281">
        <ele>423.4</ele>
        <time>2024-07-31T08:24:45Z</time>
      </trkpt>
      <trkpt lat="47.23822" lon="6.20279">
        <ele>423.4</ele>
        <time>2024-07-31T08:24:46Z</time>
      </trkpt>
      <trkpt lat="47.2382" lon="6.20276">
        <ele>423.8</ele>
        <time>2024-07-31T08:24:47Z</time>
      </trkpt>
      <trkpt lat="47.23818" lon="6.20275">
        <ele>424</ele>
        <time>2024-07-31T08:24:48Z</time>
      </trkpt>
      <trkpt lat="47.23817" lon="6.20272">
        <ele>423.8</ele>
        <time>2024-07-31T08:24:49Z</time>
      </trkpt>
      <trkpt lat="47.23817" lon="6.2027">
        <ele>423.8</ele>
        <time>2024-07-31T08:24:50Z</time>
      </trkpt>
      <trkpt lat="47.23816" lon="6.20267">
        <ele>424.2</ele>
        <time>2024-07-31T08:24:51Z</time>
      </trkpt>
      <trkpt lat="47.23815" lon="6.20265">
        <ele>424.4</ele>
        <time>2024-07-31T08:24:52Z</time>
      </trkpt>
      <trkpt lat="47.23813" lon="6.20262">
        <ele>424.4</ele>
        <time>2024-07-31T08:24:53Z</time>
      </trkpt>
      <trkpt lat="47.23812" lon="6.2026">
        <ele>424.4</ele>
        <time>2024-07-31T08:24:54Z</time>
      </trkpt>
      <trkpt lat="47.2381" lon="6.20258">
        <ele>424.6</ele>
        <time>2024-07-31T08:24:55Z</time>
      </trkpt>
      <trkpt lat="47.23807" lon="6.20255">
        <ele>424.4</ele>
        <time>2024-07-31T08:24:56Z</time>
      </trkpt>
      <trkpt lat="47.23806" lon="6.20252">
        <ele>424.4</ele>
        <time>2024-07-31T08:24:57Z</time>
      </trkpt>
      <trkpt lat="47.23804" lon="6.20249">
        <ele>424.6</ele>
        <time>2024-07-31T08:24:58Z</time>
      </trkpt>
      <trkpt lat="47.23801" lon="6.20247">
        <ele>424.4</ele>
        <time>2024-07-31T08:24:59Z</time>
      </trkpt>
      <trkpt lat="47.23799" lon="6.20244">
        <ele>424.4</ele>
        <time>2024-07-31T08:25:00Z</time>
      </trkpt>
      <trkpt lat="47.23796" lon="6.20241">
        <ele>424.4</ele>
        <time>2024-07-31T08:25:01Z</time>
      </trkpt>
      <trkpt lat="47.23794" lon="6.20238">
        <ele>424.4</ele>
        <time>2024-07-31T08:25:02Z</time>
      </trkpt>
      <trkpt lat="47.23791" lon="6.20235">
        <ele>424.2</ele>
        <time>2024-07-31T08:25:03Z</time>
      </trkpt>
      <trkpt lat="47.23789" lon="6.20231">
        <ele>424.2</ele>
        <time>2024-07-31T08:25:04Z</time>
      </trkpt>
      <trkpt lat="47.23787" lon="6.20229">
        <ele>424.2</ele>
        <time>2024-07-31T08:25:05Z</time>
      </trkpt>
      <trkpt lat="47.23784" lon="6.20225">
        <ele>424.2</ele>
        <time>2024-07-31T08:25:06Z</time>
      </trkpt>
      <trkpt lat="47.23781" lon="6.20222">
        <ele>424.2</ele>
        <time>2024-07-31T08:25:07Z</time>
      </trkpt>
      <trkpt lat="47.23779" lon="6.20219">
        <ele>424.2</ele>
        <time>2024-07-31T08:25:08Z</time>
      </trkpt>
      <trkpt lat="47.23776" lon="6.20216">
        <ele>424</ele>
        <time>2024-07-31T08:25:09Z</time>
      </trkpt>
      <trkpt lat="47.23773" lon="6.20214">
        <ele>424.2</ele>
        <time>2024-07-31T08:25:10Z</time>
      </trkpt>
      <trkpt lat="47.23771" lon="6.20211">
        <ele>424.2</ele>
        <time>2024-07-31T08:25:11Z</time>
      </trkpt>
      <trkpt lat="47.23768" lon="6.20208">
        <ele>424</ele>
        <time>2024-07-31T08:25:12Z</time>
      </trkpt>
      <trkpt lat="47.23765" lon="6.20205">
        <ele>424.2</ele>
        <time>2024-07-31T08:25:13Z</time>
      </trkpt>
      <trkpt lat="47.23762" lon="6.20202">
        <ele>424.2</ele>
        <time>2024-07-31T08:25:14Z</time>
      </trkpt>
      <trkpt lat="47.2376" lon="6.20199">
        <ele>424.2</ele>
        <time>2024-07-31T08:25:15Z</time>
      </trkpt>
      <trkpt lat="47.23757" lon="6.20197">
        <ele>424.4</ele>
        <time>2024-07-31T08:25:16Z</time>
      </trkpt>
      <trkpt lat="47.23754" lon="6.20193">
        <ele>424.4</ele>
        <time>2024-07-31T08:25:17Z</time>
      </trkpt>
      <trkpt lat="47.23751" lon="6.20191">
        <ele>424.4</ele>
        <time>2024-07-31T08:25:18Z</time>
      </trkpt>
      <trkpt lat="47.23748" lon="6.20188">
        <ele>424.4</ele>
        <time>2024-07-31T08:25:19Z</time>
      </trkpt>
      <trkpt lat="47.23746" lon="6.20185">
        <ele>424.4</ele>
        <time>2024-07-31T08:25:20Z</time>
      </trkpt>
      <trkpt lat="47.23742" lon="6.20182">
        <ele>424.6</ele>
        <time>2024-07-31T08:25:21Z</time>
      </trkpt>
      <trkpt lat="47.23738" lon="6.20179">
        <ele>424.6</ele>
        <time>2024-07-31T08:25:22Z</time>
      </trkpt>
      <trkpt lat="47.23736" lon="6.20176">
        <ele>424.8</ele>
        <time>2024-07-31T08:25:23Z</time>
      </trkpt>
      <trkpt lat="47.23734" lon="6.20174">
        <ele>424.6</ele>
        <time>2024-07-31T08:25:24Z</time>
      </trkpt>
      <trkpt lat="47.23731" lon="6.20171">
        <ele>424.8</ele>
        <time>2024-07-31T08:25:25Z</time>
      </trkpt>
      <trkpt lat="47.23729" lon="6.20167">
        <ele>424.6</ele>
        <time>2024-07-31T08:25:26Z</time>
      </trkpt>
      <trkpt lat="47.23726" lon="6.20164">
        <ele>424.4</ele>
        <time>2024-07-31T08:25:27Z</time>
      </trkpt>
      <trkpt lat="47.23721" lon="6.20159">
        <ele>424.6</ele>
        <time>2024-07-31T08:25:28Z</time>
      </trkpt>
      <trkpt lat="47.23717" lon="6.20154">
        <ele>425.2</ele>
        <time>2024-07-31T08:25:29Z</time>
      </trkpt>
      <trkpt lat="47.23713" lon="6.20151">
        <ele>425</ele>
        <time>2024-07-31T08:25:30Z</time>
      </trkpt>
      <trkpt lat="47.23709" lon="6.20148">
        <ele>425.4</ele>
        <time>2024-07-31T08:25:31Z</time>
      </trkpt>
      <trkpt lat="47.23705" lon="6.20145">
        <ele>425.4</ele>
        <time>2024-07-31T08:25:32Z</time>
      </trkpt>
      <trkpt lat="47.23701" lon="6.2014">
        <ele>425.6</ele>
        <time>2024-07-31T08:25:33Z</time>
      </trkpt>
      <trkpt lat="47.23697" lon="6.20136">
        <ele>425.6</ele>
        <time>2024-07-31T08:25:34Z</time>
      </trkpt>
      <trkpt lat="47.23694" lon="6.20133">
        <ele>425.8</ele>
        <time>2024-07-31T08:25:35Z</time>
      </trkpt>
      <trkpt lat="47.2369" lon="6.20129">
        <ele>425.6</ele>
        <time>2024-07-31T08:25:36Z</time>
      </trkpt>
      <trkpt lat="47.23688" lon="6.20127">
        <ele>425.6</ele>
        <time>2024-07-31T08:25:37Z</time>
      </trkpt>
      <trkpt lat="47.23686" lon="6.20125">
        <ele>425.8</ele>
        <time>2024-07-31T08:25:38Z</time>
      </trkpt>
      <trkpt lat="47.23683" lon="6.20123">
        <ele>426</ele>
        <time>2024-07-31T08:25:39Z</time>
      </trkpt>
      <trkpt lat="47.2368" lon="6.20123">
        <ele>426</ele>
        <time>2024-07-31T08:25:40Z</time>
      </trkpt>
      <trkpt lat="47.23678" lon="6.20124">
        <ele>426</ele>
        <time>2024-07-31T08:25:41Z</time>
      </trkpt>
      <trkpt lat="47.23676" lon="6.20124">
        <ele>426.2</ele>
        <time>2024-07-31T08:25:42Z</time>
      </trkpt>
      <trkpt lat="47.23674" lon="6.20125">
        <ele>426.4</ele>
        <time>2024-07-31T08:25:43Z</time>
      </trkpt>
      <trkpt lat="47.23671" lon="6.20125">
        <ele>426.4</ele>
        <time>2024-07-31T08:25:44Z</time>
      </trkpt>
      <trkpt lat="47.23669" lon="6.20126">
        <ele>426.2</ele>
        <time>2024-07-31T08:25:45Z</time>
      </trkpt>
      <trkpt lat="47.23667" lon="6.20127">
        <ele>426.6</ele>
        <time>2024-07-31T08:25:46Z</time>
      </trkpt>
      <trkpt lat="47.23666" lon="6.20129">
        <ele>426.8</ele>
        <time>2024-07-31T08:25:47Z</time>
      </trkpt>
      <trkpt lat="47.23666" lon="6.20131">
        <ele>426.6</ele>
        <time>2024-07-31T08:25:48Z</time>
      </trkpt>
      <trkpt lat="47.23665" lon="6.20133">
        <ele>427</ele>
        <time>2024-07-31T08:25:49Z</time>
      </trkpt>
      <trkpt lat="47.23665" lon="6.20135">
        <ele>427.2</ele>
        <time>2024-07-31T08:25:50Z</time>
      </trkpt>
      <trkpt lat="47.23665" lon="6.20137">
        <ele>427</ele>
        <time>2024-07-31T08:25:51Z</time>
      </trkpt>
      <trkpt lat="47.23664" lon="6.2014">
        <ele>427.6</ele>
        <time>2024-07-31T08:25:52Z</time>
      </trkpt>
      <trkpt lat="47.23664" lon="6.20142">
        <ele>427.4</ele>
        <time>2024-07-31T08:25:53Z</time>
      </trkpt>
      <trkpt lat="47.23663" lon="6.20145">
        <ele>427.6</ele>
        <time>2024-07-31T08:25:54Z</time>
      </trkpt>
      <trkpt lat="47.23662" lon="6.20147">
        <ele>427.6</ele>
        <time>2024-07-31T08:25:55Z</time>
      </trkpt>
      <trkpt lat="47.23662" lon="6.2015">
        <ele>427.6</ele>
        <time>2024-07-31T08:25:56Z</time>
      </trkpt>
      <trkpt lat="47.23662" lon="6.20154">
        <ele>427.8</ele>
        <time>2024-07-31T08:25:57Z</time>
      </trkpt>
      <trkpt lat="47.23661" lon="6.20158">
        <ele>428</ele>
        <time>2024-07-31T08:25:58Z</time>
      </trkpt>
      <trkpt lat="47.23661" lon="6.20161">
        <ele>428</ele>
        <time>2024-07-31T08:25:59Z</time>
      </trkpt>
      <trkpt lat="47.2366" lon="6.20165">
        <ele>428.2</ele>
        <time>2024-07-31T08:26:00Z</time>
      </trkpt>
      <trkpt lat="47.2366" lon="6.20168">
        <ele>428.2</ele>
        <time>2024-07-31T08:26:01Z</time>
      </trkpt>
      <trkpt lat="47.23659" lon="6.20171">
        <ele>428.2</ele>
        <time>2024-07-31T08:26:02Z</time>
      </trkpt>
      <trkpt lat="47.23657" lon="6.20174">
        <ele>428.2</ele>
        <time>2024-07-31T08:26:03Z</time>
      </trkpt>
      <trkpt lat="47.23656" lon="6.20176">
        <ele>428.4</ele>
        <time>2024-07-31T08:26:04Z</time>
      </trkpt>
      <trkpt lat="47.23655" lon="6.20179">
        <ele>428.6</ele>
        <time>2024-07-31T08:26:05Z</time>
      </trkpt>
      <trkpt lat="47.23653" lon="6.20182">
        <ele>428.6</ele>
        <time>2024-07-31T08:26:06Z</time>
      </trkpt>
      <trkpt lat="47.23652" lon="6.20184">
        <ele>428.6</ele>
        <time>2024-07-31T08:26:07Z</time>
      </trkpt>
      <trkpt lat="47.23651" lon="6.20188">
        <ele>428.4</ele>
        <time>2024-07-31T08:26:08Z</time>
      </trkpt>
      <trkpt lat="47.23649" lon="6.20192">
        <ele>428.6</ele>
        <time>2024-07-31T08:26:09Z</time>
      </trkpt>
      <trkpt lat="47.23649" lon="6.20197">
        <ele>429</ele>
        <time>2024-07-31T08:26:10Z</time>
      </trkpt>
      <trkpt lat="47.23648" lon="6.20201">
        <ele>429</ele>
        <time>2024-07-31T08:26:11Z</time>
      </trkpt>
      <trkpt lat="47.23647" lon="6.20206">
        <ele>429</ele>
        <time>2024-07-31T08:26:12Z</time>
      </trkpt>
      <trkpt lat="47.23646" lon="6.2021">
        <ele>429.2</ele>
        <time>2024-07-31T08:26:13Z</time>
      </trkpt>
      <trkpt lat="47.23644" lon="6.20215">
        <ele>429.2</ele>
        <time>2024-07-31T08:26:14Z</time>
      </trkpt>
      <trkpt lat="47.23643" lon="6.2022">
        <ele>429.2</ele>
        <time>2024-07-31T08:26:15Z</time>
      </trkpt>
      <trkpt lat="47.23641" lon="6.20224">
        <ele>429.2</ele>
        <time>2024-07-31T08:26:16Z</time>
      </trkpt>
      <trkpt lat="47.2364" lon="6.20229">
        <ele>429.4</ele>
        <time>2024-07-31T08:26:17Z</time>
      </trkpt>
      <trkpt lat="47.23638" lon="6.20234">
        <ele>429.6</ele>
        <time>2024-07-31T08:26:18Z</time>
      </trkpt>
      <trkpt lat="47.23636" lon="6.20238">
        <ele>429.4</ele>
        <time>2024-07-31T08:26:19Z</time>
      </trkpt>
      <trkpt lat="47.23635" lon="6.20243">
        <ele>429.6</ele>
        <time>2024-07-31T08:26:20Z</time>
      </trkpt>
      <trkpt lat="47.23633" lon="6.20248">
        <ele>429.8</ele>
        <time>2024-07-31T08:26:21Z</time>
      </trkpt>
      <trkpt lat="47.23632" lon="6.20253">
        <ele>430</ele>
        <time>2024-07-31T08:26:22Z</time>
      </trkpt>
      <trkpt lat="47.23631" lon="6.20258">
        <ele>430</ele>
        <time>2024-07-31T08:26:23Z</time>
      </trkpt>
      <trkpt lat="47.23629" lon="6.20263">
        <ele>430.2</ele>
        <time>2024-07-31T08:26:24Z</time>
      </trkpt>
      <trkpt lat="47.23628" lon="6.20268">
        <ele>430.2</ele>
        <time>2024-07-31T08:26:25Z</time>
      </trkpt>
      <trkpt lat="47.23627" lon="6.20273">
        <ele>430.4</ele>
        <time>2024-07-31T08:26:26Z</time>
      </trkpt>
      <trkpt lat="47.23626" lon="6.20278">
        <ele>430.4</ele>
        <time>2024-07-31T08:26:27Z</time>
      </trkpt>
      <trkpt lat="47.23625" lon="6.20283">
        <ele>430.6</ele>
        <time>2024-07-31T08:26:28Z</time>
      </trkpt>
      <trkpt lat="47.23624" lon="6.20288">
        <ele>430.8</ele>
        <time>2024-07-31T08:26:29Z</time>
      </trkpt>
      <trkpt lat="47.23623" lon="6.20293">
        <ele>430.8</ele>
        <time>2024-07-31T08:26:30Z</time>
      </trkpt>
      <trkpt lat="47.23622" lon="6.20299">
        <ele>431</ele>
        <time>2024-07-31T08:26:31Z</time>
      </trkpt>
      <trkpt lat="47.2362" lon="6.20304">
        <ele>431</ele>
        <time>2024-07-31T08:26:32Z</time>
      </trkpt>
      <trkpt lat="47.23619" lon="6.2031">
        <ele>431</ele>
        <time>2024-07-31T08:26:33Z</time>
      </trkpt>
      <trkpt lat="47.23618" lon="6.20315">
        <ele>431</ele>
        <time>2024-07-31T08:26:34Z</time>
      </trkpt>
      <trkpt lat="47.23617" lon="6.20321">
        <ele>431</ele>
        <time>2024-07-31T08:26:35Z</time>
      </trkpt>
      <trkpt lat="47.23615" lon="6.20327">
        <ele>431.2</ele>
        <time>2024-07-31T08:26:36Z</time>
      </trkpt>
      <trkpt lat="47.23614" lon="6.20333">
        <ele>431.2</ele>
        <time>2024-07-31T08:26:37Z</time>
      </trkpt>
      <trkpt lat="47.23612" lon="6.20339">
        <ele>431</ele>
        <time>2024-07-31T08:26:38Z</time>
      </trkpt>
      <trkpt lat="47.2361" lon="6.20345">
        <ele>430.4</ele>
        <time>2024-07-31T08:26:39Z</time>
      </trkpt>
      <trkpt lat="47.23608" lon="6.20351">
        <ele>430.6</ele>
        <time>2024-07-31T08:26:40Z</time>
      </trkpt>
      <trkpt lat="47.23606" lon="6.20357">
        <ele>430.6</ele>
        <time>2024-07-31T08:26:41Z</time>
      </trkpt>
      <trkpt lat="47.23604" lon="6.20363">
        <ele>430.4</ele>
        <time>2024-07-31T08:26:42Z</time>
      </trkpt>
      <trkpt lat="47.23602" lon="6.20369">
        <ele>430.4</ele>
        <time>2024-07-31T08:26:43Z</time>
      </trkpt>
      <trkpt lat="47.236" lon="6.20375">
        <ele>430.4</ele>
        <time>2024-07-31T08:26:44Z</time>
      </trkpt>
      <trkpt lat="47.23597" lon="6.2038">
        <ele>430.2</ele>
        <time>2024-07-31T08:26:45Z</time>
      </trkpt>
      <trkpt lat="47.23594" lon="6.20386">
        <ele>430</ele>
        <time>2024-07-31T08:26:46Z</time>
      </trkpt>
      <trkpt lat="47.2359" lon="6.20391">
        <ele>429.8</ele>
        <time>2024-07-31T08:26:47Z</time>
      </trkpt>
      <trkpt lat="47.23587" lon="6.20396">
        <ele>429.6</ele>
        <time>2024-07-31T08:26:48Z</time>
      </trkpt>
      <trkpt lat="47.23583" lon="6.20402">
        <ele>429.6</ele>
        <time>2024-07-31T08:26:49Z</time>
      </trkpt>
      <trkpt lat="47.23579" lon="6.20408">
        <ele>429.4</ele>
        <time>2024-07-31T08:26:50Z</time>
      </trkpt>
      <trkpt lat="47.23575" lon="6.20414">
        <ele>429.4</ele>
        <time>2024-07-31T08:26:51Z</time>
      </trkpt>
      <trkpt lat="47.23571" lon="6.2042">
        <ele>429.4</ele>
        <time>2024-07-31T08:26:52Z</time>
      </trkpt>
      <trkpt lat="47.23568" lon="6.20426">
        <ele>429.4</ele>
        <time>2024-07-31T08:26:53Z</time>
      </trkpt>
      <trkpt lat="47.23564" lon="6.20431">
        <ele>429</ele>
        <time>2024-07-31T08:26:54Z</time>
      </trkpt>
      <trkpt lat="47.2356" lon="6.20437">
        <ele>429</ele>
        <time>2024-07-31T08:26:55Z</time>
      </trkpt>
      <trkpt lat="47.23556" lon="6.20444">
        <ele>429.2</ele>
        <time>2024-07-31T08:26:56Z</time>
      </trkpt>
      <trkpt lat="47.23553" lon="6.2045">
        <ele>429.4</ele>
        <time>2024-07-31T08:26:57Z</time>
      </trkpt>
      <trkpt lat="47.23549" lon="6.20455">
        <ele>429.2</ele>
        <time>2024-07-31T08:26:58Z</time>
      </trkpt>
      <trkpt lat="47.23545" lon="6.20461">
        <ele>429.2</ele>
        <time>2024-07-31T08:26:59Z</time>
      </trkpt>
      <trkpt lat="47.23541" lon="6.20467">
        <ele>429.6</ele>
        <time>2024-07-31T08:27:00Z</time>
      </trkpt>
      <trkpt lat="47.23537" lon="6.20472">
        <ele>429.6</ele>
        <time>2024-07-31T08:27:01Z</time>
      </trkpt>
      <trkpt lat="47.23533" lon="6.20478">
        <ele>429.8</ele>
        <time>2024-07-31T08:27:02Z</time>
      </trkpt>
      <trkpt lat="47.2353" lon="6.20483">
        <ele>429.6</ele>
        <time>2024-07-31T08:27:03Z</time>
      </trkpt>
      <trkpt lat="47.23526" lon="6.20488">
        <ele>429.8</ele>
        <time>2024-07-31T08:27:04Z</time>
      </trkpt>
      <trkpt lat="47.23522" lon="6.20492">
        <ele>430</ele>
        <time>2024-07-31T08:27:05Z</time>
      </trkpt>
      <trkpt lat="47.23519" lon="6.20497">
        <ele>430</ele>
        <time>2024-07-31T08:27:06Z</time>
      </trkpt>
      <trkpt lat="47.23516" lon="6.20501">
        <ele>430.2</ele>
        <time>2024-07-31T08:27:07Z</time>
      </trkpt>
      <trkpt lat="47.23513" lon="6.20506">
        <ele>430.4</ele>
        <time>2024-07-31T08:27:08Z</time>
      </trkpt>
      <trkpt lat="47.2351" lon="6.2051">
        <ele>430.4</ele>
        <time>2024-07-31T08:27:09Z</time>
      </trkpt>
      <trkpt lat="47.23506" lon="6.20515">
        <ele>430.2</ele>
        <time>2024-07-31T08:27:10Z</time>
      </trkpt>
      <trkpt lat="47.23503" lon="6.20519">
        <ele>430</ele>
        <time>2024-07-31T08:27:11Z</time>
      </trkpt>
      <trkpt lat="47.23499" lon="6.20524">
        <ele>430.2</ele>
        <time>2024-07-31T08:27:12Z</time>
      </trkpt>
      <trkpt lat="47.23494" lon="6.20529">
        <ele>430</ele>
        <time>2024-07-31T08:27:13Z</time>
      </trkpt>
      <trkpt lat="47.23491" lon="6.20534">
        <ele>430</ele>
        <time>2024-07-31T08:27:14Z</time>
      </trkpt>
      <trkpt lat="47.23487" lon="6.2054">
        <ele>430</ele>
        <time>2024-07-31T08:27:15Z</time>
      </trkpt>
      <trkpt lat="47.23484" lon="6.20546">
        <ele>429.6</ele>
        <time>2024-07-31T08:27:16Z</time>
      </trkpt>
      <trkpt lat="47.2348" lon="6.20552">
        <ele>429.4</ele>
        <time>2024-07-31T08:27:17Z</time>
      </trkpt>
      <trkpt lat="47.23476" lon="6.20557">
        <ele>429.2</ele>
        <time>2024-07-31T08:27:18Z</time>
      </trkpt>
      <trkpt lat="47.23473" lon="6.20562">
        <ele>429</ele>
        <time>2024-07-31T08:27:19Z</time>
      </trkpt>
      <trkpt lat="47.23469" lon="6.20568">
        <ele>428.8</ele>
        <time>2024-07-31T08:27:20Z</time>
      </trkpt>
      <trkpt lat="47.23466" lon="6.20574">
        <ele>429</ele>
        <time>2024-07-31T08:27:21Z</time>
      </trkpt>
      <trkpt lat="47.23463" lon="6.2058">
        <ele>428.6</ele>
        <time>2024-07-31T08:27:22Z</time>
      </trkpt>
      <trkpt lat="47.2346" lon="6.20587">
        <ele>428.6</ele>
        <time>2024-07-31T08:27:23Z</time>
      </trkpt>
      <trkpt lat="47.23457" lon="6.20594">
        <ele>428.6</ele>
        <time>2024-07-31T08:27:24Z</time>
      </trkpt>
      <trkpt lat="47.23454" lon="6.206">
        <ele>428.6</ele>
        <time>2024-07-31T08:27:25Z</time>
      </trkpt>
      <trkpt lat="47.23451" lon="6.20605">
        <ele>428.6</ele>
        <time>2024-07-31T08:27:26Z</time>
      </trkpt>
      <trkpt lat="47.23447" lon="6.2061">
        <ele>428.6</ele>
        <time>2024-07-31T08:27:27Z</time>
      </trkpt>
      <trkpt lat="47.23443" lon="6.20616">
        <ele>428.4</ele>
        <time>2024-07-31T08:27:28Z</time>
      </trkpt>
      <trkpt lat="47.2344" lon="6.20622">
        <ele>428.6</ele>
        <time>2024-07-31T08:27:29Z</time>
      </trkpt>
      <trkpt lat="47.23438" lon="6.20628">
        <ele>428.6</ele>
        <time>2024-07-31T08:27:30Z</time>
      </trkpt>
      <trkpt lat="47.23434" lon="6.20634">
        <ele>428.6</ele>
        <time>2024-07-31T08:27:31Z</time>
      </trkpt>
      <trkpt lat="47.23431" lon="6.2064">
        <ele>428.4</ele>
        <time>2024-07-31T08:27:32Z</time>
      </trkpt>
      <trkpt lat="47.23428" lon="6.20647">
        <ele>428.2</ele>
        <time>2024-07-31T08:27:33Z</time>
      </trkpt>
      <trkpt lat="47.23425" lon="6.20654">
        <ele>428.4</ele>
        <time>2024-07-31T08:27:34Z</time>
      </trkpt>
      <trkpt lat="47.23421" lon="6.20659">
        <ele>428</ele>
        <time>2024-07-31T08:27:35Z</time>
      </trkpt>
      <trkpt lat="47.23417" lon="6.20665">
        <ele>428</ele>
        <time>2024-07-31T08:27:36Z</time>
      </trkpt>
      <trkpt lat="47.23413" lon="6.2067">
        <ele>428.2</ele>
        <time>2024-07-31T08:27:37Z</time>
      </trkpt>
      <trkpt lat="47.23408" lon="6.20675">
        <ele>428.2</ele>
        <time>2024-07-31T08:27:38Z</time>
      </trkpt>
      <trkpt lat="47.23404" lon="6.2068">
        <ele>428</ele>
        <time>2024-07-31T08:27:39Z</time>
      </trkpt>
      <trkpt lat="47.23401" lon="6.20684">
        <ele>427.8</ele>
        <time>2024-07-31T08:27:40Z</time>
      </trkpt>
      <trkpt lat="47.23398" lon="6.20688">
        <ele>428</ele>
        <time>2024-07-31T08:27:41Z</time>
      </trkpt>
      <trkpt lat="47.23395" lon="6.20692">
        <ele>428</ele>
        <time>2024-07-31T08:27:42Z</time>
      </trkpt>
      <trkpt lat="47.23392" lon="6.20696">
        <ele>427.8</ele>
        <time>2024-07-31T08:27:43Z</time>
      </trkpt>
      <trkpt lat="47.23389" lon="6.207">
        <ele>427.6</ele>
        <time>2024-07-31T08:27:44Z</time>
      </trkpt>
      <trkpt lat="47.23385" lon="6.20705">
        <ele>427.2</ele>
        <time>2024-07-31T08:27:45Z</time>
      </trkpt>
      <trkpt lat="47.23382" lon="6.2071">
        <ele>427</ele>
        <time>2024-07-31T08:27:46Z</time>
      </trkpt>
      <trkpt lat="47.23381" lon="6.20715">
        <ele>426.8</ele>
        <time>2024-07-31T08:27:47Z</time>
      </trkpt>
      <trkpt lat="47.23382" lon="6.20721">
        <ele>426.6</ele>
        <time>2024-07-31T08:27:48Z</time>
      </trkpt>
      <trkpt lat="47.23385" lon="6.20726">
        <ele>426.4</ele>
        <time>2024-07-31T08:27:49Z</time>
      </trkpt>
      <trkpt lat="47.23389" lon="6.20731">
        <ele>426</ele>
        <time>2024-07-31T08:27:50Z</time>
      </trkpt>
      <trkpt lat="47.23393" lon="6.20736">
        <ele>425.8</ele>
        <time>2024-07-31T08:27:51Z</time>
      </trkpt>
      <trkpt lat="47.23398" lon="6.20742">
        <ele>425.2</ele>
        <time>2024-07-31T08:27:52Z</time>
      </trkpt>
      <trkpt lat="47.23403" lon="6.20749">
        <ele>424</ele>
        <time>2024-07-31T08:27:53Z</time>
      </trkpt>
      <trkpt lat="47.23409" lon="6.20756">
        <ele>423.6</ele>
        <time>2024-07-31T08:27:54Z</time>
      </trkpt>
      <trkpt lat="47.23415" lon="6.20764">
        <ele>423.6</ele>
        <time>2024-07-31T08:27:55Z</time>
      </trkpt>
      <trkpt lat="47.23422" lon="6.20772">
        <ele>422.4</ele>
        <time>2024-07-31T08:27:56Z</time>
      </trkpt>
      <trkpt lat="47.23428" lon="6.20779">
        <ele>422</ele>
        <time>2024-07-31T08:27:57Z</time>
      </trkpt>
      <trkpt lat="47.23435" lon="6.20786">
        <ele>422</ele>
        <time>2024-07-31T08:27:58Z</time>
      </trkpt>
      <trkpt lat="47.23442" lon="6.20794">
        <ele>421.6</ele>
        <time>2024-07-31T08:27:59Z</time>
      </trkpt>
      <trkpt lat="47.23449" lon="6.20803">
        <ele>420.8</ele>
        <time>2024-07-31T08:28:00Z</time>
      </trkpt>
      <trkpt lat="47.23455" lon="6.20812">
        <ele>420.8</ele>
        <time>2024-07-31T08:28:01Z</time>
      </trkpt>
      <trkpt lat="47.23461" lon="6.20821">
        <ele>420.4</ele>
        <time>2024-07-31T08:28:02Z</time>
      </trkpt>
      <trkpt lat="47.23467" lon="6.2083">
        <ele>419.8</ele>
        <time>2024-07-31T08:28:03Z</time>
      </trkpt>
      <trkpt lat="47.23473" lon="6.20839">
        <ele>419.4</ele>
        <time>2024-07-31T08:28:04Z</time>
      </trkpt>
      <trkpt lat="47.23479" lon="6.20848">
        <ele>419</ele>
        <time>2024-07-31T08:28:05Z</time>
      </trkpt>
      <trkpt lat="47.23484" lon="6.20857">
        <ele>419.2</ele>
        <time>2024-07-31T08:28:06Z</time>
      </trkpt>
      <trkpt lat="47.23489" lon="6.20865">
        <ele>419</ele>
        <time>2024-07-31T08:28:07Z</time>
      </trkpt>
      <trkpt lat="47.23494" lon="6.20872">
        <ele>419.2</ele>
        <time>2024-07-31T08:28:08Z</time>
      </trkpt>
      <trkpt lat="47.23499" lon="6.20878">
        <ele>419.2</ele>
        <time>2024-07-31T08:28:09Z</time>
      </trkpt>
      <trkpt lat="47.23504" lon="6.20883">
        <ele>419</ele>
        <time>2024-07-31T08:28:10Z</time>
      </trkpt>
      <trkpt lat="47.23508" lon="6.20888">
        <ele>419.2</ele>
        <time>2024-07-31T08:28:11Z</time>
      </trkpt>
      <trkpt lat="47.23513" lon="6.20893">
        <ele>419.2</ele>
        <time>2024-07-31T08:28:12Z</time>
      </trkpt>
      <trkpt lat="47.23518" lon="6.20899">
        <ele>419</ele>
        <time>2024-07-31T08:28:13Z</time>
      </trkpt>
      <trkpt lat="47.23523" lon="6.20904">
        <ele>419.2</ele>
        <time>2024-07-31T08:28:14Z</time>
      </trkpt>
      <trkpt lat="47.23528" lon="6.2091">
        <ele>418.8</ele>
        <time>2024-07-31T08:28:15Z</time>
      </trkpt>
      <trkpt lat="47.23533" lon="6.20917">
        <ele>418.8</ele>
        <time>2024-07-31T08:28:16Z</time>
      </trkpt>
      <trkpt lat="47.23538" lon="6.20924">
        <ele>418.8</ele>
        <time>2024-07-31T08:28:17Z</time>
      </trkpt>
      <trkpt lat="47.23542" lon="6.20932">
        <ele>419</ele>
        <time>2024-07-31T08:28:18Z</time>
      </trkpt>
      <trkpt lat="47.23547" lon="6.20939">
        <ele>419</ele>
        <time>2024-07-31T08:28:19Z</time>
      </trkpt>
      <trkpt lat="47.23551" lon="6.20947">
        <ele>419</ele>
        <time>2024-07-31T08:28:20Z</time>
      </trkpt>
      <trkpt lat="47.23555" lon="6.20954">
        <ele>418.8</ele>
        <time>2024-07-31T08:28:21Z</time>
      </trkpt>
      <trkpt lat="47.2356" lon="6.20962">
        <ele>418.8</ele>
        <time>2024-07-31T08:28:22Z</time>
      </trkpt>
      <trkpt lat="47.23564" lon="6.2097">
        <ele>418.8</ele>
        <time>2024-07-31T08:28:23Z</time>
      </trkpt>
      <trkpt lat="47.23568" lon="6.20978">
        <ele>419</ele>
        <time>2024-07-31T08:28:24Z</time>
      </trkpt>
      <trkpt lat="47.23572" lon="6.20986">
        <ele>419</ele>
        <time>2024-07-31T08:28:25Z</time>
      </trkpt>
      <trkpt lat="47.23576" lon="6.20994">
        <ele>419</ele>
        <time>2024-07-31T08:28:26Z</time>
      </trkpt>
      <trkpt lat="47.2358" lon="6.21002">
        <ele>418.8</ele>
        <time>2024-07-31T08:28:27Z</time>
      </trkpt>
      <trkpt lat="47.23585" lon="6.2101">
        <ele>418.6</ele>
        <time>2024-07-31T08:28:28Z</time>
      </trkpt>
      <trkpt lat="47.23589" lon="6.21019">
        <ele>418.8</ele>
        <time>2024-07-31T08:28:29Z</time>
      </trkpt>
      <trkpt lat="47.23594" lon="6.21026">
        <ele>419</ele>
        <time>2024-07-31T08:28:30Z</time>
      </trkpt>
      <trkpt lat="47.23599" lon="6.21034">
        <ele>418.8</ele>
        <time>2024-07-31T08:28:31Z</time>
      </trkpt>
      <trkpt lat="47.23603" lon="6.21042">
        <ele>418.8</ele>
        <time>2024-07-31T08:28:32Z</time>
      </trkpt>
      <trkpt lat="47.23607" lon="6.2105">
        <ele>418.6</ele>
        <time>2024-07-31T08:28:33Z</time>
      </trkpt>
      <trkpt lat="47.23611" lon="6.21058">
        <ele>418.4</ele>
        <time>2024-07-31T08:28:34Z</time>
      </trkpt>
      <trkpt lat="47.23615" lon="6.21066">
        <ele>418.4</ele>
        <time>2024-07-31T08:28:35Z</time>
      </trkpt>
      <trkpt lat="47.23619" lon="6.21074">
        <ele>418.2</ele>
        <time>2024-07-31T08:28:36Z</time>
      </trkpt>
      <trkpt lat="47.23622" lon="6.21083">
        <ele>418</ele>
        <time>2024-07-31T08:28:37Z</time>
      </trkpt>
      <trkpt lat="47.23625" lon="6.21091">
        <ele>418.2</ele>
        <time>2024-07-31T08:28:38Z</time>
      </trkpt>
      <trkpt lat="47.23628" lon="6.211">
        <ele>418</ele>
        <time>2024-07-31T08:28:39Z</time>
      </trkpt>
      <trkpt lat="47.23632" lon="6.21109">
        <ele>418</ele>
        <time>2024-07-31T08:28:40Z</time>
      </trkpt>
      <trkpt lat="47.23636" lon="6.21118">
        <ele>418</ele>
        <time>2024-07-31T08:28:41Z</time>
      </trkpt>
      <trkpt lat="47.23639" lon="6.21126">
        <ele>418</ele>
        <time>2024-07-31T08:28:42Z</time>
      </trkpt>
      <trkpt lat="47.23642" lon="6.21135">
        <ele>418.2</ele>
        <time>2024-07-31T08:28:43Z</time>
      </trkpt>
      <trkpt lat="47.23644" lon="6.21145">
        <ele>418.4</ele>
        <time>2024-07-31T08:28:44Z</time>
      </trkpt>
      <trkpt lat="47.23647" lon="6.21154">
        <ele>418.4</ele>
        <time>2024-07-31T08:28:45Z</time>
      </trkpt>
      <trkpt lat="47.2365" lon="6.21163">
        <ele>418.2</ele>
        <time>2024-07-31T08:28:46Z</time>
      </trkpt>
      <trkpt lat="47.23653" lon="6.21172">
        <ele>418.4</ele>
        <time>2024-07-31T08:28:47Z</time>
      </trkpt>
      <trkpt lat="47.23656" lon="6.2118">
        <ele>418.8</ele>
        <time>2024-07-31T08:28:48Z</time>
      </trkpt>
      <trkpt lat="47.23658" lon="6.21188">
        <ele>419</ele>
        <time>2024-07-31T08:28:49Z</time>
      </trkpt>
      <trkpt lat="47.23661" lon="6.21196">
        <ele>419.2</ele>
        <time>2024-07-31T08:28:50Z</time>
      </trkpt>
      <trkpt lat="47.23663" lon="6.21202">
        <ele>419.6</ele>
        <time>2024-07-31T08:28:51Z</time>
      </trkpt>
      <trkpt lat="47.23665" lon="6.21209">
        <ele>419.8</ele>
        <time>2024-07-31T08:28:52Z</time>
      </trkpt>
      <trkpt lat="47.23667" lon="6.21217">
        <ele>420</ele>
        <time>2024-07-31T08:28:53Z</time>
      </trkpt>
      <trkpt lat="47.23669" lon="6.21225">
        <ele>420</ele>
        <time>2024-07-31T08:28:54Z</time>
      </trkpt>
      <trkpt lat="47.23671" lon="6.21232">
        <ele>420</ele>
        <time>2024-07-31T08:28:55Z</time>
      </trkpt>
      <trkpt lat="47.23672" lon="6.21239">
        <ele>420.8</ele>
        <time>2024-07-31T08:28:56Z</time>
      </trkpt>
      <trkpt lat="47.23674" lon="6.21245">
        <ele>420.6</ele>
        <time>2024-07-31T08:28:57Z</time>
      </trkpt>
      <trkpt lat="47.23675" lon="6.21252">
        <ele>421.2</ele>
        <time>2024-07-31T08:28:58Z</time>
      </trkpt>
      <trkpt lat="47.23677" lon="6.21258">
        <ele>421.6</ele>
        <time>2024-07-31T08:28:59Z</time>
      </trkpt>
      <trkpt lat="47.23678" lon="6.21264">
        <ele>421.8</ele>
        <time>2024-07-31T08:29:00Z</time>
      </trkpt>
      <trkpt lat="47.2368" lon="6.2127">
        <ele>422</ele>
        <time>2024-07-31T08:29:01Z</time>
      </trkpt>
      <trkpt lat="47.23681" lon="6.21276">
        <ele>421.6</ele>
        <time>2024-07-31T08:29:02Z</time>
      </trkpt>
      <trkpt lat="47.23683" lon="6.21282">
        <ele>421.8</ele>
        <time>2024-07-31T08:29:03Z</time>
      </trkpt>
      <trkpt lat="47.23684" lon="6.21288">
        <ele>421.8</ele>
        <time>2024-07-31T08:29:04Z</time>
      </trkpt>
      <trkpt lat="47.23685" lon="6.21294">
        <ele>422.2</ele>
        <time>2024-07-31T08:29:05Z</time>
      </trkpt>
      <trkpt lat="47.23686" lon="6.213">
        <ele>422</ele>
        <time>2024-07-31T08:29:06Z</time>
      </trkpt>
      <trkpt lat="47.23687" lon="6.21307">
        <ele>422.2</ele>
        <time>2024-07-31T08:29:07Z</time>
      </trkpt>
      <trkpt lat="47.23689" lon="6.21314">
        <ele>422.2</ele>
        <time>2024-07-31T08:29:08Z</time>
      </trkpt>
      <trkpt lat="47.2369" lon="6.21322">
        <ele>422.6</ele>
        <time>2024-07-31T08:29:09Z</time>
      </trkpt>
      <trkpt lat="47.23692" lon="6.21328">
        <ele>422.6</ele>
        <time>2024-07-31T08:29:10Z</time>
      </trkpt>
      <trkpt lat="47.23694" lon="6.21335">
        <ele>422.4</ele>
        <time>2024-07-31T08:29:11Z</time>
      </trkpt>
      <trkpt lat="47.23697" lon="6.21343">
        <ele>421.8</ele>
        <time>2024-07-31T08:29:12Z</time>
      </trkpt>
      <trkpt lat="47.23699" lon="6.2135">
        <ele>421.6</ele>
        <time>2024-07-31T08:29:13Z</time>
      </trkpt>
      <trkpt lat="47.23702" lon="6.21357">
        <ele>421.6</ele>
        <time>2024-07-31T08:29:14Z</time>
      </trkpt>
      <trkpt lat="47.23706" lon="6.21364">
        <ele>421.8</ele>
        <time>2024-07-31T08:29:15Z</time>
      </trkpt>
      <trkpt lat="47.23709" lon="6.2137">
        <ele>421.2</ele>
        <time>2024-07-31T08:29:16Z</time>
      </trkpt>
      <trkpt lat="47.23712" lon="6.21376">
        <ele>421</ele>
        <time>2024-07-31T08:29:17Z</time>
      </trkpt>
      <trkpt lat="47.23715" lon="6.21381">
        <ele>421.2</ele>
        <time>2024-07-31T08:29:18Z</time>
      </trkpt>
      <trkpt lat="47.23718" lon="6.21385">
        <ele>421.2</ele>
        <time>2024-07-31T08:29:19Z</time>
      </trkpt>
      <trkpt lat="47.2372" lon="6.21389">
        <ele>420.8</ele>
        <time>2024-07-31T08:29:20Z</time>
      </trkpt>
      <trkpt lat="47.23722" lon="6.21393">
        <ele>420.8</ele>
        <time>2024-07-31T08:29:21Z</time>
      </trkpt>
      <trkpt lat="47.23724" lon="6.21397">
        <ele>421.2</ele>
        <time>2024-07-31T08:29:22Z</time>
      </trkpt>
      <trkpt lat="47.23726" lon="6.21401">
        <ele>421.2</ele>
        <time>2024-07-31T08:29:23Z</time>
      </trkpt>
      <trkpt lat="47.23727" lon="6.21404">
        <ele>420.8</ele>
        <time>2024-07-31T08:29:24Z</time>
      </trkpt>
      <trkpt lat="47.23729" lon="6.21408">
        <ele>421</ele>
        <time>2024-07-31T08:29:25Z</time>
      </trkpt>
      <trkpt lat="47.23731" lon="6.21412">
        <ele>421</ele>
        <time>2024-07-31T08:29:26Z</time>
      </trkpt>
      <trkpt lat="47.23732" lon="6.21416">
        <ele>421</ele>
        <time>2024-07-31T08:29:27Z</time>
      </trkpt>
      <trkpt lat="47.23734" lon="6.2142">
        <ele>421.2</ele>
        <time>2024-07-31T08:29:28Z</time>
      </trkpt>
      <trkpt lat="47.23736" lon="6.21425">
        <ele>421</ele>
        <time>2024-07-31T08:29:29Z</time>
      </trkpt>
      <trkpt lat="47.23738" lon="6.21429">
        <ele>420.8</ele>
        <time>2024-07-31T08:29:30Z</time>
      </trkpt>
      <trkpt lat="47.23741" lon="6.21435">
        <ele>420.6</ele>
        <time>2024-07-31T08:29:31Z</time>
      </trkpt>
      <trkpt lat="47.23743" lon="6.2144">
        <ele>420.8</ele>
        <time>2024-07-31T08:29:32Z</time>
      </trkpt>
      <trkpt lat="47.23747" lon="6.21447">
        <ele>420.8</ele>
        <time>2024-07-31T08:29:33Z</time>
      </trkpt>
      <trkpt lat="47.2375" lon="6.21454">
        <ele>420.6</ele>
        <time>2024-07-31T08:29:34Z</time>
      </trkpt>
      <trkpt lat="47.23752" lon="6.21461">
        <ele>421</ele>
        <time>2024-07-31T08:29:35Z</time>
      </trkpt>
      <trkpt lat="47.23754" lon="6.21467">
        <ele>421.2</ele>
        <time>2024-07-31T08:29:36Z</time>
      </trkpt>
      <trkpt lat="47.23756" lon="6.21473">
        <ele>421.2</ele>
        <time>2024-07-31T08:29:37Z</time>
      </trkpt>
      <trkpt lat="47.23758" lon="6.21478">
        <ele>421.2</ele>
        <time>2024-07-31T08:29:38Z</time>
      </trkpt>
      <trkpt lat="47.2376" lon="6.21484">
        <ele>421.4</ele>
        <time>2024-07-31T08:29:39Z</time>
      </trkpt>
      <trkpt lat="47.23762" lon="6.21489">
        <ele>421.8</ele>
        <time>2024-07-31T08:29:40Z</time>
      </trkpt>
      <trkpt lat="47.23763" lon="6.21494">
        <ele>421.8</ele>
        <time>2024-07-31T08:29:41Z</time>
      </trkpt>
      <trkpt lat="47.23764" lon="6.215">
        <ele>421.8</ele>
        <time>2024-07-31T08:29:42Z</time>
      </trkpt>
      <trkpt lat="47.23764" lon="6.21505">
        <ele>422.2</ele>
        <time>2024-07-31T08:29:43Z</time>
      </trkpt>
      <trkpt lat="47.23765" lon="6.2151">
        <ele>422</ele>
        <time>2024-07-31T08:29:44Z</time>
      </trkpt>
      <trkpt lat="47.23766" lon="6.21516">
        <ele>422</ele>
        <time>2024-07-31T08:29:45Z</time>
      </trkpt>
      <trkpt lat="47.23768" lon="6.21521">
        <ele>422</ele>
        <time>2024-07-31T08:29:46Z</time>
      </trkpt>
      <trkpt lat="47.2377" lon="6.21526">
        <ele>422</ele>
        <time>2024-07-31T08:29:47Z</time>
      </trkpt>
      <trkpt lat="47.23773" lon="6.21531">
        <ele>422</ele>
        <time>2024-07-31T08:29:48Z</time>
      </trkpt>
      <trkpt lat="47.23777" lon="6.21536">
        <ele>421.8</ele>
        <time>2024-07-31T08:29:49Z</time>
      </trkpt>
      <trkpt lat="47.23779" lon="6.21541">
        <ele>421.8</ele>
        <time>2024-07-31T08:29:50Z</time>
      </trkpt>
      <trkpt lat="47.23781" lon="6.21545">
        <ele>421.6</ele>
        <time>2024-07-31T08:29:51Z</time>
      </trkpt>
      <trkpt lat="47.23784" lon="6.21548">
        <ele>421.6</ele>
        <time>2024-07-31T08:29:52Z</time>
      </trkpt>
      <trkpt lat="47.23787" lon="6.21551">
        <ele>421.2</ele>
        <time>2024-07-31T08:29:53Z</time>
      </trkpt>
      <trkpt lat="47.23789" lon="6.21553">
        <ele>421.2</ele>
        <time>2024-07-31T08:29:54Z</time>
      </trkpt>
      <trkpt lat="47.23792" lon="6.21556">
        <ele>421.2</ele>
        <time>2024-07-31T08:29:55Z</time>
      </trkpt>
      <trkpt lat="47.23795" lon="6.21559">
        <ele>421</ele>
        <time>2024-07-31T08:29:56Z</time>
      </trkpt>
      <trkpt lat="47.23797" lon="6.21561">
        <ele>420.8</ele>
        <time>2024-07-31T08:29:57Z</time>
      </trkpt>
      <trkpt lat="47.23799" lon="6.21564">
        <ele>420.4</ele>
        <time>2024-07-31T08:29:58Z</time>
      </trkpt>
      <trkpt lat="47.23801" lon="6.21568">
        <ele>420.6</ele>
        <time>2024-07-31T08:29:59Z</time>
      </trkpt>
      <trkpt lat="47.23802" lon="6.21572">
        <ele>420.2</ele>
        <time>2024-07-31T08:30:00Z</time>
      </trkpt>
      <trkpt lat="47.23805" lon="6.21577">
        <ele>420.2</ele>
        <time>2024-07-31T08:30:01Z</time>
      </trkpt>
      <trkpt lat="47.23808" lon="6.21582">
        <ele>420</ele>
        <time>2024-07-31T08:30:02Z</time>
      </trkpt>
      <trkpt lat="47.23811" lon="6.21588">
        <ele>419.8</ele>
        <time>2024-07-31T08:30:03Z</time>
      </trkpt>
      <trkpt lat="47.23813" lon="6.21594">
        <ele>419.6</ele>
        <time>2024-07-31T08:30:04Z</time>
      </trkpt>
      <trkpt lat="47.23815" lon="6.21599">
        <ele>419.4</ele>
        <time>2024-07-31T08:30:05Z</time>
      </trkpt>
      <trkpt lat="47.23818" lon="6.21605">
        <ele>419.2</ele>
        <time>2024-07-31T08:30:06Z</time>
      </trkpt>
      <trkpt lat="47.23819" lon="6.21611">
        <ele>419.6</ele>
        <time>2024-07-31T08:30:07Z</time>
      </trkpt>
      <trkpt lat="47.23821" lon="6.21618">
        <ele>419</ele>
        <time>2024-07-31T08:30:08Z</time>
      </trkpt>
      <trkpt lat="47.23823" lon="6.21624">
        <ele>419</ele>
        <time>2024-07-31T08:30:09Z</time>
      </trkpt>
      <trkpt lat="47.23825" lon="6.2163">
        <ele>419</ele>
        <time>2024-07-31T08:30:10Z</time>
      </trkpt>
      <trkpt lat="47.23825" lon="6.21636">
        <ele>419</ele>
        <time>2024-07-31T08:30:11Z</time>
      </trkpt>
      <trkpt lat="47.23827" lon="6.21642">
        <ele>418.8</ele>
        <time>2024-07-31T08:30:12Z</time>
      </trkpt>
      <trkpt lat="47.23827" lon="6.21646">
        <ele>418.8</ele>
        <time>2024-07-31T08:30:13Z</time>
      </trkpt>
      <trkpt lat="47.23827" lon="6.21651">
        <ele>418.8</ele>
        <time>2024-07-31T08:30:14Z</time>
      </trkpt>
      <trkpt lat="47.23828" lon="6.21656">
        <ele>418.8</ele>
        <time>2024-07-31T08:30:15Z</time>
      </trkpt>
      <trkpt lat="47.2383" lon="6.21662">
        <ele>418.8</ele>
        <time>2024-07-31T08:30:16Z</time>
      </trkpt>
      <trkpt lat="47.23832" lon="6.21666">
        <ele>419</ele>
        <time>2024-07-31T08:30:17Z</time>
      </trkpt>
      <trkpt lat="47.23833" lon="6.2167">
        <ele>418.8</ele>
        <time>2024-07-31T08:30:18Z</time>
      </trkpt>
      <trkpt lat="47.23834" lon="6.21675">
        <ele>418.8</ele>
        <time>2024-07-31T08:30:19Z</time>
      </trkpt>
      <trkpt lat="47.23835" lon="6.2168">
        <ele>419</ele>
        <time>2024-07-31T08:30:20Z</time>
      </trkpt>
      <trkpt lat="47.23837" lon="6.21686">
        <ele>418.8</ele>
        <time>2024-07-31T08:30:21Z</time>
      </trkpt>
      <trkpt lat="47.2384" lon="6.21693">
        <ele>418.4</ele>
        <time>2024-07-31T08:30:22Z</time>
      </trkpt>
      <trkpt lat="47.23843" lon="6.21699">
        <ele>418</ele>
        <time>2024-07-31T08:30:23Z</time>
      </trkpt>
      <trkpt lat="47.23845" lon="6.21706">
        <ele>416.4</ele>
        <time>2024-07-31T08:30:24Z</time>
      </trkpt>
      <trkpt lat="47.23848" lon="6.21712">
        <ele>416.6</ele>
        <time>2024-07-31T08:30:25Z</time>
      </trkpt>
      <trkpt lat="47.23851" lon="6.21719">
        <ele>415.2</ele>
        <time>2024-07-31T08:30:26Z</time>
      </trkpt>
      <trkpt lat="47.23854" lon="6.21724">
        <ele>414.6</ele>
        <time>2024-07-31T08:30:27Z</time>
      </trkpt>
      <trkpt lat="47.23857" lon="6.2173">
        <ele>414.6</ele>
        <time>2024-07-31T08:30:28Z</time>
      </trkpt>
      <trkpt lat="47.2386" lon="6.21735">
        <ele>414.6</ele>
        <time>2024-07-31T08:30:29Z</time>
      </trkpt>
      <trkpt lat="47.23863" lon="6.21739">
        <ele>414.4</ele>
        <time>2024-07-31T08:30:30Z</time>
      </trkpt>
      <trkpt lat="47.23867" lon="6.21743">
        <ele>414.4</ele>
        <time>2024-07-31T08:30:31Z</time>
      </trkpt>
      <trkpt lat="47.23869" lon="6.21747">
        <ele>414.4</ele>
        <time>2024-07-31T08:30:32Z</time>
      </trkpt>
      <trkpt lat="47.23872" lon="6.21751">
        <ele>414.6</ele>
        <time>2024-07-31T08:30:33Z</time>
      </trkpt>
      <trkpt lat="47.23874" lon="6.21755">
        <ele>414.6</ele>
        <time>2024-07-31T08:30:34Z</time>
      </trkpt>
      <trkpt lat="47.23876" lon="6.21758">
        <ele>414.4</ele>
        <time>2024-07-31T08:30:35Z</time>
      </trkpt>
      <trkpt lat="47.23878" lon="6.21763">
        <ele>415</ele>
        <time>2024-07-31T08:30:36Z</time>
      </trkpt>
      <trkpt lat="47.2388" lon="6.21766">
        <ele>415.6</ele>
        <time>2024-07-31T08:30:37Z</time>
      </trkpt>
      <trkpt lat="47.23884" lon="6.21772">
        <ele>415.6</ele>
        <time>2024-07-31T08:30:38Z</time>
      </trkpt>
      <trkpt lat="47.23887" lon="6.21777">
        <ele>415.6</ele>
        <time>2024-07-31T08:30:39Z</time>
      </trkpt>
      <trkpt lat="47.2389" lon="6.21782">
        <ele>416</ele>
        <time>2024-07-31T08:30:40Z</time>
      </trkpt>
      <trkpt lat="47.23892" lon="6.21787">
        <ele>416</ele>
        <time>2024-07-31T08:30:41Z</time>
      </trkpt>
      <trkpt lat="47.23896" lon="6.21794">
        <ele>416.2</ele>
        <time>2024-07-31T08:30:42Z</time>
      </trkpt>
      <trkpt lat="47.23898" lon="6.218">
        <ele>416.4</ele>
        <time>2024-07-31T08:30:43Z</time>
      </trkpt>
      <trkpt lat="47.23901" lon="6.21805">
        <ele>416.6</ele>
        <time>2024-07-31T08:30:44Z</time>
      </trkpt>
      <trkpt lat="47.23904" lon="6.21811">
        <ele>416.4</ele>
        <time>2024-07-31T08:30:45Z</time>
      </trkpt>
      <trkpt lat="47.23906" lon="6.21816">
        <ele>416.6</ele>
        <time>2024-07-31T08:30:46Z</time>
      </trkpt>
      <trkpt lat="47.23909" lon="6.21821">
        <ele>416.6</ele>
        <time>2024-07-31T08:30:47Z</time>
      </trkpt>
      <trkpt lat="47.23912" lon="6.21826">
        <ele>417</ele>
        <time>2024-07-31T08:30:48Z</time>
      </trkpt>
      <trkpt lat="47.23915" lon="6.21831">
        <ele>416.8</ele>
        <time>2024-07-31T08:30:49Z</time>
      </trkpt>
      <trkpt lat="47.23918" lon="6.21836">
        <ele>416.6</ele>
        <time>2024-07-31T08:30:50Z</time>
      </trkpt>
      <trkpt lat="47.23921" lon="6.21841">
        <ele>416.8</ele>
        <time>2024-07-31T08:30:51Z</time>
      </trkpt>
      <trkpt lat="47.23924" lon="6.21846">
        <ele>417</ele>
        <time>2024-07-31T08:30:52Z</time>
      </trkpt>
      <trkpt lat="47.23926" lon="6.2185">
        <ele>416.8</ele>
        <time>2024-07-31T08:30:53Z</time>
      </trkpt>
      <trkpt lat="47.23929" lon="6.21856">
        <ele>416.8</ele>
        <time>2024-07-31T08:30:54Z</time>
      </trkpt>
      <trkpt lat="47.23933" lon="6.21862">
        <ele>416.8</ele>
        <time>2024-07-31T08:30:55Z</time>
      </trkpt>
      <trkpt lat="47.23936" lon="6.21867">
        <ele>416.6</ele>
        <time>2024-07-31T08:30:56Z</time>
      </trkpt>
      <trkpt lat="47.23939" lon="6.21872">
        <ele>416.6</ele>
        <time>2024-07-31T08:30:57Z</time>
      </trkpt>
      <trkpt lat="47.23943" lon="6.21878">
        <ele>416.6</ele>
        <time>2024-07-31T08:30:58Z</time>
      </trkpt>
      <trkpt lat="47.23946" lon="6.21884">
        <ele>416.4</ele>
        <time>2024-07-31T08:30:59Z</time>
      </trkpt>
      <trkpt lat="47.23948" lon="6.21889">
        <ele>416</ele>
        <time>2024-07-31T08:31:00Z</time>
      </trkpt>
      <trkpt lat="47.23951" lon="6.21894">
        <ele>415.8</ele>
        <time>2024-07-31T08:31:01Z</time>
      </trkpt>
      <trkpt lat="47.23953" lon="6.21899">
        <ele>416</ele>
        <time>2024-07-31T08:31:02Z</time>
      </trkpt>
      <trkpt lat="47.23955" lon="6.21902">
        <ele>416</ele>
        <time>2024-07-31T08:31:03Z</time>
      </trkpt>
      <trkpt lat="47.23956" lon="6.21905">
        <ele>415.8</ele>
        <time>2024-07-31T08:31:04Z</time>
      </trkpt>
      <trkpt lat="47.23957" lon="6.21907">
        <ele>415.6</ele>
        <time>2024-07-31T08:31:05Z</time>
      </trkpt>
      <trkpt lat="47.23958" lon="6.2191">
        <ele>415.6</ele>
        <time>2024-07-31T08:31:06Z</time>
      </trkpt>
      <trkpt lat="47.23959" lon="6.21912">
        <ele>415.6</ele>
        <time>2024-07-31T08:31:07Z</time>
      </trkpt>
      <trkpt lat="47.23961" lon="6.21915">
        <ele>415.6</ele>
        <time>2024-07-31T08:31:08Z</time>
      </trkpt>
      <trkpt lat="47.23962" lon="6.21918">
        <ele>415.4</ele>
        <time>2024-07-31T08:31:09Z</time>
      </trkpt>
      <trkpt lat="47.23963" lon="6.21921">
        <ele>415.6</ele>
        <time>2024-07-31T08:31:10Z</time>
      </trkpt>
      <trkpt lat="47.23964" lon="6.21924">
        <ele>415.6</ele>
        <time>2024-07-31T08:31:11Z</time>
      </trkpt>
      <trkpt lat="47.23967" lon="6.21928">
        <ele>415.8</ele>
        <time>2024-07-31T08:31:12Z</time>
      </trkpt>
      <trkpt lat="47.2397" lon="6.21933">
        <ele>416</ele>
        <time>2024-07-31T08:31:13Z</time>
      </trkpt>
      <trkpt lat="47.23971" lon="6.21937">
        <ele>415.8</ele>
        <time>2024-07-31T08:31:14Z</time>
      </trkpt>
      <trkpt lat="47.23974" lon="6.21942">
        <ele>416</ele>
        <time>2024-07-31T08:31:15Z</time>
      </trkpt>
      <trkpt lat="47.23976" lon="6.21946">
        <ele>416</ele>
        <time>2024-07-31T08:31:16Z</time>
      </trkpt>
      <trkpt lat="47.23978" lon="6.21951">
        <ele>416</ele>
        <time>2024-07-31T08:31:17Z</time>
      </trkpt>
      <trkpt lat="47.23981" lon="6.21956">
        <ele>416</ele>
        <time>2024-07-31T08:31:18Z</time>
      </trkpt>
      <trkpt lat="47.23985" lon="6.2196">
        <ele>416</ele>
        <time>2024-07-31T08:31:19Z</time>
      </trkpt>
      <trkpt lat="47.23988" lon="6.21962">
        <ele>416</ele>
        <time>2024-07-31T08:31:20Z</time>
      </trkpt>
      <trkpt lat="47.23991" lon="6.21965">
        <ele>415.6</ele>
        <time>2024-07-31T08:31:21Z</time>
      </trkpt>
      <trkpt lat="47.23993" lon="6.21967">
        <ele>415.6</ele>
        <time>2024-07-31T08:31:22Z</time>
      </trkpt>
      <trkpt lat="47.23995" lon="6.21971">
        <ele>415.6</ele>
        <time>2024-07-31T08:31:23Z</time>
      </trkpt>
      <trkpt lat="47.23998" lon="6.21974">
        <ele>415.6</ele>
        <time>2024-07-31T08:31:24Z</time>
      </trkpt>
      <trkpt lat="47.24" lon="6.21978">
        <ele>415.8</ele>
        <time>2024-07-31T08:31:25Z</time>
      </trkpt>
      <trkpt lat="47.24002" lon="6.21982">
        <ele>416</ele>
        <time>2024-07-31T08:31:26Z</time>
      </trkpt>
      <trkpt lat="47.24004" lon="6.21986">
        <ele>416.2</ele>
        <time>2024-07-31T08:31:27Z</time>
      </trkpt>
      <trkpt lat="47.24006" lon="6.2199">
        <ele>416</ele>
        <time>2024-07-31T08:31:28Z</time>
      </trkpt>
      <trkpt lat="47.24008" lon="6.21995">
        <ele>416.2</ele>
        <time>2024-07-31T08:31:29Z</time>
      </trkpt>
      <trkpt lat="47.2401" lon="6.22">
        <ele>416.2</ele>
        <time>2024-07-31T08:31:30Z</time>
      </trkpt>
      <trkpt lat="47.24012" lon="6.22005">
        <ele>416.6</ele>
        <time>2024-07-31T08:31:31Z</time>
      </trkpt>
      <trkpt lat="47.24015" lon="6.2201">
        <ele>416.4</ele>
        <time>2024-07-31T08:31:32Z</time>
      </trkpt>
      <trkpt lat="47.24018" lon="6.22016">
        <ele>416.2</ele>
        <time>2024-07-31T08:31:33Z</time>
      </trkpt>
      <trkpt lat="47.2402" lon="6.22021">
        <ele>416.4</ele>
        <time>2024-07-31T08:31:34Z</time>
      </trkpt>
      <trkpt lat="47.24023" lon="6.22026">
        <ele>416.8</ele>
        <time>2024-07-31T08:31:35Z</time>
      </trkpt>
      <trkpt lat="47.24026" lon="6.22031">
        <ele>416.6</ele>
        <time>2024-07-31T08:31:36Z</time>
      </trkpt>
      <trkpt lat="47.24029" lon="6.22036">
        <ele>416.8</ele>
        <time>2024-07-31T08:31:37Z</time>
      </trkpt>
      <trkpt lat="47.24032" lon="6.22041">
        <ele>416.8</ele>
        <time>2024-07-31T08:31:38Z</time>
      </trkpt>
      <trkpt lat="47.24035" lon="6.22046">
        <ele>416.8</ele>
        <time>2024-07-31T08:31:39Z</time>
      </trkpt>
      <trkpt lat="47.24038" lon="6.22051">
        <ele>417</ele>
        <time>2024-07-31T08:31:40Z</time>
      </trkpt>
      <trkpt lat="47.24041" lon="6.22056">
        <ele>417</ele>
        <time>2024-07-31T08:31:41Z</time>
      </trkpt>
      <trkpt lat="47.24044" lon="6.22061">
        <ele>417</ele>
        <time>2024-07-31T08:31:42Z</time>
      </trkpt>
      <trkpt lat="47.24047" lon="6.22066">
        <ele>417.2</ele>
        <time>2024-07-31T08:31:43Z</time>
      </trkpt>
      <trkpt lat="47.2405" lon="6.22071">
        <ele>417</ele>
        <time>2024-07-31T08:31:44Z</time>
      </trkpt>
      <trkpt lat="47.24053" lon="6.22076">
        <ele>417.2</ele>
        <time>2024-07-31T08:31:45Z</time>
      </trkpt>
      <trkpt lat="47.24056" lon="6.2208">
        <ele>417.2</ele>
        <time>2024-07-31T08:31:46Z</time>
      </trkpt>
      <trkpt lat="47.24059" lon="6.22084">
        <ele>417.2</ele>
        <time>2024-07-31T08:31:47Z</time>
      </trkpt>
      <trkpt lat="47.24062" lon="6.22089">
        <ele>417.2</ele>
        <time>2024-07-31T08:31:48Z</time>
      </trkpt>
      <trkpt lat="47.24065" lon="6.22094">
        <ele>417.2</ele>
        <time>2024-07-31T08:31:49Z</time>
      </trkpt>
      <trkpt lat="47.24068" lon="6.22099">
        <ele>417.2</ele>
        <time>2024-07-31T08:31:50Z</time>
      </trkpt>
      <trkpt lat="47.24071" lon="6.22103">
        <ele>417.2</ele>
        <time>2024-07-31T08:31:51Z</time>
      </trkpt>
      <trkpt lat="47.24074" lon="6.22107">
        <ele>417.2</ele>
        <time>2024-07-31T08:31:52Z</time>
      </trkpt>
      <trkpt lat="47.24077" lon="6.22112">
        <ele>417</ele>
        <time>2024-07-31T08:31:53Z</time>
      </trkpt>
      <trkpt lat="47.24079" lon="6.22116">
        <ele>417.2</ele>
        <time>2024-07-31T08:31:54Z</time>
      </trkpt>
      <trkpt lat="47.24081" lon="6.22121">
        <ele>417.2</ele>
        <time>2024-07-31T08:31:55Z</time>
      </trkpt>
      <trkpt lat="47.24083" lon="6.22126">
        <ele>417.2</ele>
        <time>2024-07-31T08:31:56Z</time>
      </trkpt>
      <trkpt lat="47.24086" lon="6.22132">
        <ele>417.2</ele>
        <time>2024-07-31T08:31:57Z</time>
      </trkpt>
      <trkpt lat="47.24088" lon="6.22137">
        <ele>417.2</ele>
        <time>2024-07-31T08:31:58Z</time>
      </trkpt>
      <trkpt lat="47.2409" lon="6.22141">
        <ele>417.2</ele>
        <time>2024-07-31T08:31:59Z</time>
      </trkpt>
      <trkpt lat="47.24092" lon="6.22145">
        <ele>417.2</ele>
        <time>2024-07-31T08:32:00Z</time>
      </trkpt>
      <trkpt lat="47.24093" lon="6.2215">
        <ele>417.2</ele>
        <time>2024-07-31T08:32:01Z</time>
      </trkpt>
      <trkpt lat="47.24094" lon="6.22154">
        <ele>417.2</ele>
        <time>2024-07-31T08:32:02Z</time>
      </trkpt>
      <trkpt lat="47.24096" lon="6.22157">
        <ele>417.2</ele>
        <time>2024-07-31T08:32:03Z</time>
      </trkpt>
      <trkpt lat="47.24098" lon="6.2216">
        <ele>417.2</ele>
        <time>2024-07-31T08:32:04Z</time>
      </trkpt>
      <trkpt lat="47.241" lon="6.22163">
        <ele>417.2</ele>
        <time>2024-07-31T08:32:05Z</time>
      </trkpt>
      <trkpt lat="47.24101" lon="6.22166">
        <ele>417.2</ele>
        <time>2024-07-31T08:32:06Z</time>
      </trkpt>
      <trkpt lat="47.24102" lon="6.22169">
        <ele>417</ele>
        <time>2024-07-31T08:32:07Z</time>
      </trkpt>
      <trkpt lat="47.24103" lon="6.22173">
        <ele>417.4</ele>
        <time>2024-07-31T08:32:08Z</time>
      </trkpt>
      <trkpt lat="47.24104" lon="6.22176">
        <ele>417.4</ele>
        <time>2024-07-31T08:32:09Z</time>
      </trkpt>
      <trkpt lat="47.24105" lon="6.22181">
        <ele>417.2</ele>
        <time>2024-07-31T08:32:10Z</time>
      </trkpt>
      <trkpt lat="47.24107" lon="6.22186">
        <ele>417.4</ele>
        <time>2024-07-31T08:32:11Z</time>
      </trkpt>
      <trkpt lat="47.24108" lon="6.2219">
        <ele>417.4</ele>
        <time>2024-07-31T08:32:12Z</time>
      </trkpt>
      <trkpt lat="47.24109" lon="6.22194">
        <ele>417.2</ele>
        <time>2024-07-31T08:32:13Z</time>
      </trkpt>
      <trkpt lat="47.24111" lon="6.22199">
        <ele>417.2</ele>
        <time>2024-07-31T08:32:14Z</time>
      </trkpt>
      <trkpt lat="47.24112" lon="6.22203">
        <ele>417.4</ele>
        <time>2024-07-31T08:32:15Z</time>
      </trkpt>
      <trkpt lat="47.24114" lon="6.22207">
        <ele>417.4</ele>
        <time>2024-07-31T08:32:16Z</time>
      </trkpt>
      <trkpt lat="47.24117" lon="6.22213">
        <ele>417.8</ele>
        <time>2024-07-31T08:32:17Z</time>
      </trkpt>
      <trkpt lat="47.24118" lon="6.22219">
        <ele>417.6</ele>
        <time>2024-07-31T08:32:18Z</time>
      </trkpt>
      <trkpt lat="47.24121" lon="6.22226">
        <ele>418</ele>
        <time>2024-07-31T08:32:19Z</time>
      </trkpt>
      <trkpt lat="47.24123" lon="6.22232">
        <ele>417.6</ele>
        <time>2024-07-31T08:32:20Z</time>
      </trkpt>
      <trkpt lat="47.24125" lon="6.22237">
        <ele>417.6</ele>
        <time>2024-07-31T08:32:21Z</time>
      </trkpt>
      <trkpt lat="47.24127" lon="6.22242">
        <ele>417.6</ele>
        <time>2024-07-31T08:32:22Z</time>
      </trkpt>
      <trkpt lat="47.2413" lon="6.22247">
        <ele>417.4</ele>
        <time>2024-07-31T08:32:23Z</time>
      </trkpt>
      <trkpt lat="47.24132" lon="6.22251">
        <ele>417.4</ele>
        <time>2024-07-31T08:32:24Z</time>
      </trkpt>
      <trkpt lat="47.24135" lon="6.22256">
        <ele>417.6</ele>
        <time>2024-07-31T08:32:25Z</time>
      </trkpt>
      <trkpt lat="47.24138" lon="6.22261">
        <ele>417.6</ele>
        <time>2024-07-31T08:32:26Z</time>
      </trkpt>
      <trkpt lat="47.2414" lon="6.22266">
        <ele>417.8</ele>
        <time>2024-07-31T08:32:27Z</time>
      </trkpt>
      <trkpt lat="47.24143" lon="6.22271">
        <ele>417.8</ele>
        <time>2024-07-31T08:32:28Z</time>
      </trkpt>
      <trkpt lat="47.24146" lon="6.22275">
        <ele>417.6</ele>
        <time>2024-07-31T08:32:29Z</time>
      </trkpt>
      <trkpt lat="47.24149" lon="6.2228">
        <ele>417.8</ele>
        <time>2024-07-31T08:32:30Z</time>
      </trkpt>
      <trkpt lat="47.24152" lon="6.22285">
        <ele>417.8</ele>
        <time>2024-07-31T08:32:31Z</time>
      </trkpt>
      <trkpt lat="47.24154" lon="6.22289">
        <ele>417.6</ele>
        <time>2024-07-31T08:32:32Z</time>
      </trkpt>
      <trkpt lat="47.24157" lon="6.22295">
        <ele>417.6</ele>
        <time>2024-07-31T08:32:33Z</time>
      </trkpt>
      <trkpt lat="47.2416" lon="6.223">
        <ele>417.8</ele>
        <time>2024-07-31T08:32:34Z</time>
      </trkpt>
      <trkpt lat="47.24163" lon="6.22306">
        <ele>418</ele>
        <time>2024-07-31T08:32:35Z</time>
      </trkpt>
      <trkpt lat="47.24166" lon="6.22312">
        <ele>417.8</ele>
        <time>2024-07-31T08:32:36Z</time>
      </trkpt>
      <trkpt lat="47.24169" lon="6.22316">
        <ele>417.8</ele>
        <time>2024-07-31T08:32:37Z</time>
      </trkpt>
      <trkpt lat="47.24171" lon="6.2232">
        <ele>417.4</ele>
        <time>2024-07-31T08:32:38Z</time>
      </trkpt>
      <trkpt lat="47.24173" lon="6.22324">
        <ele>417.6</ele>
        <time>2024-07-31T08:32:39Z</time>
      </trkpt>
      <trkpt lat="47.24174" lon="6.22327">
        <ele>417.4</ele>
        <time>2024-07-31T08:32:40Z</time>
      </trkpt>
      <trkpt lat="47.24176" lon="6.22331">
        <ele>417.4</ele>
        <time>2024-07-31T08:32:41Z</time>
      </trkpt>
      <trkpt lat="47.24178" lon="6.22335">
        <ele>417.2</ele>
        <time>2024-07-31T08:32:42Z</time>
      </trkpt>
      <trkpt lat="47.2418" lon="6.2234">
        <ele>417.4</ele>
        <time>2024-07-31T08:32:43Z</time>
      </trkpt>
      <trkpt lat="47.24182" lon="6.22344">
        <ele>417.4</ele>
        <time>2024-07-31T08:32:44Z</time>
      </trkpt>
      <trkpt lat="47.24185" lon="6.2235">
        <ele>417.4</ele>
        <time>2024-07-31T08:32:45Z</time>
      </trkpt>
      <trkpt lat="47.24187" lon="6.22355">
        <ele>417.2</ele>
        <time>2024-07-31T08:32:46Z</time>
      </trkpt>
      <trkpt lat="47.2419" lon="6.2236">
        <ele>417</ele>
        <time>2024-07-31T08:32:47Z</time>
      </trkpt>
      <trkpt lat="47.24194" lon="6.22364">
        <ele>417</ele>
        <time>2024-07-31T08:32:48Z</time>
      </trkpt>
      <trkpt lat="47.24198" lon="6.22369">
        <ele>417.2</ele>
        <time>2024-07-31T08:32:49Z</time>
      </trkpt>
      <trkpt lat="47.24201" lon="6.22374">
        <ele>417.2</ele>
        <time>2024-07-31T08:32:50Z</time>
      </trkpt>
      <trkpt lat="47.24205" lon="6.22379">
        <ele>417.2</ele>
        <time>2024-07-31T08:32:51Z</time>
      </trkpt>
      <trkpt lat="47.24209" lon="6.22384">
        <ele>417</ele>
        <time>2024-07-31T08:32:52Z</time>
      </trkpt>
      <trkpt lat="47.24213" lon="6.22389">
        <ele>417.4</ele>
        <time>2024-07-31T08:32:53Z</time>
      </trkpt>
      <trkpt lat="47.24217" lon="6.22393">
        <ele>417</ele>
        <time>2024-07-31T08:32:54Z</time>
      </trkpt>
      <trkpt lat="47.24221" lon="6.22397">
        <ele>417</ele>
        <time>2024-07-31T08:32:55Z</time>
      </trkpt>
      <trkpt lat="47.24225" lon="6.22402">
        <ele>417.2</ele>
        <time>2024-07-31T08:32:56Z</time>
      </trkpt>
      <trkpt lat="47.24229" lon="6.22407">
        <ele>417.4</ele>
        <time>2024-07-31T08:32:57Z</time>
      </trkpt>
      <trkpt lat="47.24233" lon="6.22412">
        <ele>417.4</ele>
        <time>2024-07-31T08:32:58Z</time>
      </trkpt>
      <trkpt lat="47.24237" lon="6.22417">
        <ele>417.4</ele>
        <time>2024-07-31T08:32:59Z</time>
      </trkpt>
      <trkpt lat="47.24241" lon="6.22422">
        <ele>417.4</ele>
        <time>2024-07-31T08:33:00Z</time>
      </trkpt>
      <trkpt lat="47.24246" lon="6.22427">
        <ele>417.6</ele>
        <time>2024-07-31T08:33:01Z</time>
      </trkpt>
      <trkpt lat="47.2425" lon="6.22432">
        <ele>417.6</ele>
        <time>2024-07-31T08:33:02Z</time>
      </trkpt>
      <trkpt lat="47.24254" lon="6.22437">
        <ele>417.8</ele>
        <time>2024-07-31T08:33:03Z</time>
      </trkpt>
      <trkpt lat="47.24258" lon="6.22442">
        <ele>418</ele>
        <time>2024-07-31T08:33:04Z</time>
      </trkpt>
      <trkpt lat="47.24262" lon="6.22446">
        <ele>417.8</ele>
        <time>2024-07-31T08:33:05Z</time>
      </trkpt>
      <trkpt lat="47.24267" lon="6.22452">
        <ele>417.8</ele>
        <time>2024-07-31T08:33:06Z</time>
      </trkpt>
      <trkpt lat="47.24271" lon="6.22457">
        <ele>418</ele>
        <time>2024-07-31T08:33:07Z</time>
      </trkpt>
      <trkpt lat="47.24275" lon="6.22462">
        <ele>418</ele>
        <time>2024-07-31T08:33:08Z</time>
      </trkpt>
      <trkpt lat="47.24279" lon="6.22467">
        <ele>418</ele>
        <time>2024-07-31T08:33:09Z</time>
      </trkpt>
      <trkpt lat="47.24283" lon="6.22472">
        <ele>418</ele>
        <time>2024-07-31T08:33:10Z</time>
      </trkpt>
      <trkpt lat="47.24288" lon="6.22477">
        <ele>418.2</ele>
        <time>2024-07-31T08:33:11Z</time>
      </trkpt>
      <trkpt lat="47.24292" lon="6.22482">
        <ele>418</ele>
        <time>2024-07-31T08:33:12Z</time>
      </trkpt>
      <trkpt lat="47.24297" lon="6.22486">
        <ele>418</ele>
        <time>2024-07-31T08:33:13Z</time>
      </trkpt>
      <trkpt lat="47.24301" lon="6.2249">
        <ele>418.4</ele>
        <time>2024-07-31T08:33:14Z</time>
      </trkpt>
      <trkpt lat="47.24306" lon="6.22494">
        <ele>418.6</ele>
        <time>2024-07-31T08:33:15Z</time>
      </trkpt>
      <trkpt lat="47.24311" lon="6.22498">
        <ele>418.2</ele>
        <time>2024-07-31T08:33:16Z</time>
      </trkpt>
      <trkpt lat="47.24316" lon="6.22502">
        <ele>418.2</ele>
        <time>2024-07-31T08:33:17Z</time>
      </trkpt>
      <trkpt lat="47.24321" lon="6.22507">
        <ele>418.2</ele>
        <time>2024-07-31T08:33:18Z</time>
      </trkpt>
      <trkpt lat="47.24325" lon="6.22512">
        <ele>418.2</ele>
        <time>2024-07-31T08:33:19Z</time>
      </trkpt>
      <trkpt lat="47.24329" lon="6.22517">
        <ele>418.4</ele>
        <time>2024-07-31T08:33:20Z</time>
      </trkpt>
      <trkpt lat="47.24334" lon="6.22523">
        <ele>418.4</ele>
        <time>2024-07-31T08:33:21Z</time>
      </trkpt>
      <trkpt lat="47.24338" lon="6.22529">
        <ele>418.6</ele>
        <time>2024-07-31T08:33:22Z</time>
      </trkpt>
      <trkpt lat="47.24342" lon="6.22534">
        <ele>418.8</ele>
        <time>2024-07-31T08:33:23Z</time>
      </trkpt>
      <trkpt lat="47.24346" lon="6.2254">
        <ele>418.8</ele>
        <time>2024-07-31T08:33:24Z</time>
      </trkpt>
      <trkpt lat="47.2435" lon="6.22545">
        <ele>419</ele>
        <time>2024-07-31T08:33:25Z</time>
      </trkpt>
      <trkpt lat="47.24354" lon="6.22551">
        <ele>419</ele>
        <time>2024-07-31T08:33:26Z</time>
      </trkpt>
      <trkpt lat="47.24358" lon="6.22556">
        <ele>419</ele>
        <time>2024-07-31T08:33:27Z</time>
      </trkpt>
      <trkpt lat="47.24363" lon="6.22562">
        <ele>419</ele>
        <time>2024-07-31T08:33:28Z</time>
      </trkpt>
      <trkpt lat="47.24367" lon="6.22567">
        <ele>419</ele>
        <time>2024-07-31T08:33:29Z</time>
      </trkpt>
      <trkpt lat="47.24372" lon="6.22572">
        <ele>419</ele>
        <time>2024-07-31T08:33:30Z</time>
      </trkpt>
      <trkpt lat="47.24377" lon="6.22578">
        <ele>418.6</ele>
        <time>2024-07-31T08:33:31Z</time>
      </trkpt>
      <trkpt lat="47.24382" lon="6.22583">
        <ele>418.8</ele>
        <time>2024-07-31T08:33:32Z</time>
      </trkpt>
      <trkpt lat="47.24388" lon="6.22588">
        <ele>418.4</ele>
        <time>2024-07-31T08:33:33Z</time>
      </trkpt>
      <trkpt lat="47.24394" lon="6.22592">
        <ele>418</ele>
        <time>2024-07-31T08:33:34Z</time>
      </trkpt>
      <trkpt lat="47.24399" lon="6.22598">
        <ele>418</ele>
        <time>2024-07-31T08:33:35Z</time>
      </trkpt>
      <trkpt lat="47.24404" lon="6.22603">
        <ele>418</ele>
        <time>2024-07-31T08:33:36Z</time>
      </trkpt>
      <trkpt lat="47.24408" lon="6.22609">
        <ele>417.2</ele>
        <time>2024-07-31T08:33:37Z</time>
      </trkpt>
      <trkpt lat="47.24413" lon="6.22615">
        <ele>417.4</ele>
        <time>2024-07-31T08:33:38Z</time>
      </trkpt>
      <trkpt lat="47.24418" lon="6.22621">
        <ele>417.2</ele>
        <time>2024-07-31T08:33:39Z</time>
      </trkpt>
      <trkpt lat="47.24423" lon="6.22628">
        <ele>416.8</ele>
        <time>2024-07-31T08:33:40Z</time>
      </trkpt>
      <trkpt lat="47.24427" lon="6.22635">
        <ele>416.8</ele>
        <time>2024-07-31T08:33:41Z</time>
      </trkpt>
      <trkpt lat="47.24431" lon="6.22643">
        <ele>416.6</ele>
        <time>2024-07-31T08:33:42Z</time>
      </trkpt>
      <trkpt lat="47.24434" lon="6.22652">
        <ele>416.6</ele>
        <time>2024-07-31T08:33:43Z</time>
      </trkpt>
      <trkpt lat="47.24438" lon="6.22661">
        <ele>416.6</ele>
        <time>2024-07-31T08:33:44Z</time>
      </trkpt>
      <trkpt lat="47.24442" lon="6.2267">
        <ele>416</ele>
        <time>2024-07-31T08:33:45Z</time>
      </trkpt>
      <trkpt lat="47.24445" lon="6.22679">
        <ele>416</ele>
        <time>2024-07-31T08:33:46Z</time>
      </trkpt>
      <trkpt lat="47.24449" lon="6.22689">
        <ele>415.8</ele>
        <time>2024-07-31T08:33:47Z</time>
      </trkpt>
      <trkpt lat="47.24452" lon="6.22698">
        <ele>415.6</ele>
        <time>2024-07-31T08:33:48Z</time>
      </trkpt>
      <trkpt lat="47.24456" lon="6.22707">
        <ele>415.6</ele>
        <time>2024-07-31T08:33:49Z</time>
      </trkpt>
      <trkpt lat="47.2446" lon="6.22716">
        <ele>415.6</ele>
        <time>2024-07-31T08:33:50Z</time>
      </trkpt>
      <trkpt lat="47.24465" lon="6.22724">
        <ele>415.2</ele>
        <time>2024-07-31T08:33:51Z</time>
      </trkpt>
      <trkpt lat="47.2447" lon="6.22733">
        <ele>415</ele>
        <time>2024-07-31T08:33:52Z</time>
      </trkpt>
      <trkpt lat="47.24476" lon="6.2274">
        <ele>414.8</ele>
        <time>2024-07-31T08:33:53Z</time>
      </trkpt>
      <trkpt lat="47.24482" lon="6.22748">
        <ele>414.6</ele>
        <time>2024-07-31T08:33:54Z</time>
      </trkpt>
      <trkpt lat="47.24487" lon="6.22755">
        <ele>414.4</ele>
        <time>2024-07-31T08:33:55Z</time>
      </trkpt>
      <trkpt lat="47.24493" lon="6.22763">
        <ele>414.2</ele>
        <time>2024-07-31T08:33:56Z</time>
      </trkpt>
      <trkpt lat="47.245" lon="6.2277">
        <ele>414</ele>
        <time>2024-07-31T08:33:57Z</time>
      </trkpt>
      <trkpt lat="47.24506" lon="6.22777">
        <ele>414</ele>
        <time>2024-07-31T08:33:58Z</time>
      </trkpt>
      <trkpt lat="47.24512" lon="6.22784">
        <ele>413.6</ele>
        <time>2024-07-31T08:33:59Z</time>
      </trkpt>
      <trkpt lat="47.24519" lon="6.22791">
        <ele>413.6</ele>
        <time>2024-07-31T08:34:00Z</time>
      </trkpt>
      <trkpt lat="47.24525" lon="6.22799">
        <ele>413</ele>
        <time>2024-07-31T08:34:01Z</time>
      </trkpt>
      <trkpt lat="47.24532" lon="6.22806">
        <ele>412.8</ele>
        <time>2024-07-31T08:34:02Z</time>
      </trkpt>
      <trkpt lat="47.24537" lon="6.22813">
        <ele>412.6</ele>
        <time>2024-07-31T08:34:03Z</time>
      </trkpt>
      <trkpt lat="47.24544" lon="6.22821">
        <ele>412.6</ele>
        <time>2024-07-31T08:34:04Z</time>
      </trkpt>
      <trkpt lat="47.2455" lon="6.22828">
        <ele>412.2</ele>
        <time>2024-07-31T08:34:05Z</time>
      </trkpt>
      <trkpt lat="47.24557" lon="6.22836">
        <ele>411.8</ele>
        <time>2024-07-31T08:34:06Z</time>
      </trkpt>
      <trkpt lat="47.24563" lon="6.22844">
        <ele>411.2</ele>
        <time>2024-07-31T08:34:07Z</time>
      </trkpt>
      <trkpt lat="47.2457" lon="6.22852">
        <ele>410.8</ele>
        <time>2024-07-31T08:34:08Z</time>
      </trkpt>
      <trkpt lat="47.24576" lon="6.22861">
        <ele>410.4</ele>
        <time>2024-07-31T08:34:09Z</time>
      </trkpt>
      <trkpt lat="47.24582" lon="6.2287">
        <ele>409.6</ele>
        <time>2024-07-31T08:34:10Z</time>
      </trkpt>
      <trkpt lat="47.24589" lon="6.22878">
        <ele>409.2</ele>
        <time>2024-07-31T08:34:11Z</time>
      </trkpt>
      <trkpt lat="47.24595" lon="6.22886">
        <ele>409.2</ele>
        <time>2024-07-31T08:34:12Z</time>
      </trkpt>
      <trkpt lat="47.24601" lon="6.22894">
        <ele>409.4</ele>
        <time>2024-07-31T08:34:13Z</time>
      </trkpt>
      <trkpt lat="47.24608" lon="6.22902">
        <ele>409.6</ele>
        <time>2024-07-31T08:34:14Z</time>
      </trkpt>
      <trkpt lat="47.24614" lon="6.2291">
        <ele>409.4</ele>
        <time>2024-07-31T08:34:15Z</time>
      </trkpt>
      <trkpt lat="47.24621" lon="6.22917">
        <ele>409.2</ele>
        <time>2024-07-31T08:34:16Z</time>
      </trkpt>
      <trkpt lat="47.24628" lon="6.22922">
        <ele>408.8</ele>
        <time>2024-07-31T08:34:17Z</time>
      </trkpt>
      <trkpt lat="47.24636" lon="6.22927">
        <ele>408.8</ele>
        <time>2024-07-31T08:34:18Z</time>
      </trkpt>
      <trkpt lat="47.24643" lon="6.2293">
        <ele>408.6</ele>
        <time>2024-07-31T08:34:19Z</time>
      </trkpt>
      <trkpt lat="47.2465" lon="6.22932">
        <ele>408.2</ele>
        <time>2024-07-31T08:34:20Z</time>
      </trkpt>
      <trkpt lat="47.24657" lon="6.22934">
        <ele>407.8</ele>
        <time>2024-07-31T08:34:21Z</time>
      </trkpt>
      <trkpt lat="47.24664" lon="6.22937">
        <ele>407.6</ele>
        <time>2024-07-31T08:34:22Z</time>
      </trkpt>
      <trkpt lat="47.24671" lon="6.2294">
        <ele>407.6</ele>
        <time>2024-07-31T08:34:23Z</time>
      </trkpt>
      <trkpt lat="47.24677" lon="6.22943">
        <ele>407.8</ele>
        <time>2024-07-31T08:34:24Z</time>
      </trkpt>
      <trkpt lat="47.24682" lon="6.22947">
        <ele>408.2</ele>
        <time>2024-07-31T08:34:25Z</time>
      </trkpt>
      <trkpt lat="47.24688" lon="6.2295">
        <ele>408.6</ele>
        <time>2024-07-31T08:34:26Z</time>
      </trkpt>
      <trkpt lat="47.24692" lon="6.22954">
        <ele>408.8</ele>
        <time>2024-07-31T08:34:27Z</time>
      </trkpt>
      <trkpt lat="47.24697" lon="6.22958">
        <ele>408.8</ele>
        <time>2024-07-31T08:34:28Z</time>
      </trkpt>
      <trkpt lat="47.247" lon="6.22962">
        <ele>409.2</ele>
        <time>2024-07-31T08:34:29Z</time>
      </trkpt>
      <trkpt lat="47.24704" lon="6.22966">
        <ele>409.4</ele>
        <time>2024-07-31T08:34:30Z</time>
      </trkpt>
      <trkpt lat="47.24707" lon="6.2297">
        <ele>409.6</ele>
        <time>2024-07-31T08:34:31Z</time>
      </trkpt>
      <trkpt lat="47.2471" lon="6.22974">
        <ele>409.6</ele>
        <time>2024-07-31T08:34:32Z</time>
      </trkpt>
      <trkpt lat="47.24713" lon="6.22978">
        <ele>409.8</ele>
        <time>2024-07-31T08:34:33Z</time>
      </trkpt>
      <trkpt lat="47.24715" lon="6.22981">
        <ele>409.8</ele>
        <time>2024-07-31T08:34:34Z</time>
      </trkpt>
      <trkpt lat="47.24717" lon="6.22984">
        <ele>410</ele>
        <time>2024-07-31T08:34:35Z</time>
      </trkpt>
      <trkpt lat="47.24719" lon="6.22987">
        <ele>410.2</ele>
        <time>2024-07-31T08:34:36Z</time>
      </trkpt>
      <trkpt lat="47.24722" lon="6.2299">
        <ele>410.2</ele>
        <time>2024-07-31T08:34:37Z</time>
      </trkpt>
      <trkpt lat="47.24725" lon="6.22993">
        <ele>410</ele>
        <time>2024-07-31T08:34:38Z</time>
      </trkpt>
      <trkpt lat="47.24728" lon="6.22998">
        <ele>409.8</ele>
        <time>2024-07-31T08:34:39Z</time>
      </trkpt>
      <trkpt lat="47.2473" lon="6.23004">
        <ele>409.8</ele>
        <time>2024-07-31T08:34:40Z</time>
      </trkpt>
      <trkpt lat="47.24733" lon="6.2301">
        <ele>409.6</ele>
        <time>2024-07-31T08:34:41Z</time>
      </trkpt>
      <trkpt lat="47.24735" lon="6.23017">
        <ele>409.8</ele>
        <time>2024-07-31T08:34:42Z</time>
      </trkpt>
      <trkpt lat="47.24738" lon="6.23024">
        <ele>409.8</ele>
        <time>2024-07-31T08:34:43Z</time>
      </trkpt>
      <trkpt lat="47.24741" lon="6.23031">
        <ele>409.8</ele>
        <time>2024-07-31T08:34:44Z</time>
      </trkpt>
      <trkpt lat="47.24743" lon="6.23039">
        <ele>409.8</ele>
        <time>2024-07-31T08:34:45Z</time>
      </trkpt>
      <trkpt lat="47.24746" lon="6.23047">
        <ele>410</ele>
        <time>2024-07-31T08:34:46Z</time>
      </trkpt>
      <trkpt lat="47.24749" lon="6.23054">
        <ele>410</ele>
        <time>2024-07-31T08:34:47Z</time>
      </trkpt>
      <trkpt lat="47.24752" lon="6.23062">
        <ele>409.8</ele>
        <time>2024-07-31T08:34:48Z</time>
      </trkpt>
      <trkpt lat="47.24754" lon="6.2307">
        <ele>409.8</ele>
        <time>2024-07-31T08:34:49Z</time>
      </trkpt>
      <trkpt lat="47.24757" lon="6.23079">
        <ele>409.8</ele>
        <time>2024-07-31T08:34:50Z</time>
      </trkpt>
      <trkpt lat="47.2476" lon="6.23087">
        <ele>410</ele>
        <time>2024-07-31T08:34:51Z</time>
      </trkpt>
      <trkpt lat="47.24763" lon="6.23094">
        <ele>409.8</ele>
        <time>2024-07-31T08:34:52Z</time>
      </trkpt>
      <trkpt lat="47.24767" lon="6.23102">
        <ele>409.8</ele>
        <time>2024-07-31T08:34:53Z</time>
      </trkpt>
      <trkpt lat="47.2477" lon="6.23109">
        <ele>409.8</ele>
        <time>2024-07-31T08:34:54Z</time>
      </trkpt>
      <trkpt lat="47.24774" lon="6.23116">
        <ele>410</ele>
        <time>2024-07-31T08:34:55Z</time>
      </trkpt>
      <trkpt lat="47.24778" lon="6.23123">
        <ele>410</ele>
        <time>2024-07-31T08:34:56Z</time>
      </trkpt>
      <trkpt lat="47.24782" lon="6.2313">
        <ele>410</ele>
        <time>2024-07-31T08:34:57Z</time>
      </trkpt>
      <trkpt lat="47.24786" lon="6.23136">
        <ele>410.2</ele>
        <time>2024-07-31T08:34:58Z</time>
      </trkpt>
      <trkpt lat="47.2479" lon="6.23142">
        <ele>410.2</ele>
        <time>2024-07-31T08:34:59Z</time>
      </trkpt>
      <trkpt lat="47.24794" lon="6.23148">
        <ele>410.4</ele>
        <time>2024-07-31T08:35:00Z</time>
      </trkpt>
      <trkpt lat="47.24797" lon="6.23155">
        <ele>410.4</ele>
        <time>2024-07-31T08:35:01Z</time>
      </trkpt>
      <trkpt lat="47.24801" lon="6.23162">
        <ele>410.2</ele>
        <time>2024-07-31T08:35:02Z</time>
      </trkpt>
      <trkpt lat="47.24805" lon="6.23168">
        <ele>410.4</ele>
        <time>2024-07-31T08:35:03Z</time>
      </trkpt>
      <trkpt lat="47.2481" lon="6.23174">
        <ele>410.4</ele>
        <time>2024-07-31T08:35:04Z</time>
      </trkpt>
      <trkpt lat="47.24814" lon="6.23181">
        <ele>410.6</ele>
        <time>2024-07-31T08:35:05Z</time>
      </trkpt>
      <trkpt lat="47.24819" lon="6.23187">
        <ele>410.4</ele>
        <time>2024-07-31T08:35:06Z</time>
      </trkpt>
      <trkpt lat="47.24823" lon="6.23194">
        <ele>410.4</ele>
        <time>2024-07-31T08:35:07Z</time>
      </trkpt>
      <trkpt lat="47.24828" lon="6.232">
        <ele>410.6</ele>
        <time>2024-07-31T08:35:08Z</time>
      </trkpt>
      <trkpt lat="47.24832" lon="6.23207">
        <ele>410.4</ele>
        <time>2024-07-31T08:35:09Z</time>
      </trkpt>
      <trkpt lat="47.24837" lon="6.23213">
        <ele>410.6</ele>
        <time>2024-07-31T08:35:10Z</time>
      </trkpt>
      <trkpt lat="47.24842" lon="6.2322">
        <ele>410.4</ele>
        <time>2024-07-31T08:35:11Z</time>
      </trkpt>
      <trkpt lat="47.24846" lon="6.23227">
        <ele>410.2</ele>
        <time>2024-07-31T08:35:12Z</time>
      </trkpt>
      <trkpt lat="47.24851" lon="6.23234">
        <ele>410.4</ele>
        <time>2024-07-31T08:35:13Z</time>
      </trkpt>
      <trkpt lat="47.24856" lon="6.23241">
        <ele>410.4</ele>
        <time>2024-07-31T08:35:14Z</time>
      </trkpt>
      <trkpt lat="47.24861" lon="6.23248">
        <ele>410</ele>
        <time>2024-07-31T08:35:15Z</time>
      </trkpt>
      <trkpt lat="47.24865" lon="6.23255">
        <ele>410</ele>
        <time>2024-07-31T08:35:16Z</time>
      </trkpt>
      <trkpt lat="47.2487" lon="6.23262">
        <ele>410</ele>
        <time>2024-07-31T08:35:17Z</time>
      </trkpt>
      <trkpt lat="47.24876" lon="6.2327">
        <ele>410</ele>
        <time>2024-07-31T08:35:18Z</time>
      </trkpt>
      <trkpt lat="47.24881" lon="6.23277">
        <ele>409.8</ele>
        <time>2024-07-31T08:35:19Z</time>
      </trkpt>
      <trkpt lat="47.24886" lon="6.23285">
        <ele>409.2</ele>
        <time>2024-07-31T08:35:20Z</time>
      </trkpt>
      <trkpt lat="47.24891" lon="6.23292">
        <ele>409.2</ele>
        <time>2024-07-31T08:35:21Z</time>
      </trkpt>
      <trkpt lat="47.24897" lon="6.23301">
        <ele>409</ele>
        <time>2024-07-31T08:35:22Z</time>
      </trkpt>
      <trkpt lat="47.24903" lon="6.23308">
        <ele>408.6</ele>
        <time>2024-07-31T08:35:23Z</time>
      </trkpt>
      <trkpt lat="47.24908" lon="6.23316">
        <ele>408.4</ele>
        <time>2024-07-31T08:35:24Z</time>
      </trkpt>
      <trkpt lat="47.24914" lon="6.23324">
        <ele>408</ele>
        <time>2024-07-31T08:35:25Z</time>
      </trkpt>
      <trkpt lat="47.24921" lon="6.23332">
        <ele>407.6</ele>
        <time>2024-07-31T08:35:26Z</time>
      </trkpt>
      <trkpt lat="47.24927" lon="6.2334">
        <ele>407.2</ele>
        <time>2024-07-31T08:35:27Z</time>
      </trkpt>
      <trkpt lat="47.24933" lon="6.23348">
        <ele>407</ele>
        <time>2024-07-31T08:35:28Z</time>
      </trkpt>
      <trkpt lat="47.2494" lon="6.23356">
        <ele>406.8</ele>
        <time>2024-07-31T08:35:29Z</time>
      </trkpt>
      <trkpt lat="47.24947" lon="6.23363">
        <ele>406.4</ele>
        <time>2024-07-31T08:35:30Z</time>
      </trkpt>
      <trkpt lat="47.24953" lon="6.2337">
        <ele>406.4</ele>
        <time>2024-07-31T08:35:31Z</time>
      </trkpt>
      <trkpt lat="47.2496" lon="6.23378">
        <ele>406.2</ele>
        <time>2024-07-31T08:35:32Z</time>
      </trkpt>
      <trkpt lat="47.24966" lon="6.23385">
        <ele>406</ele>
        <time>2024-07-31T08:35:33Z</time>
      </trkpt>
      <trkpt lat="47.24973" lon="6.23393">
        <ele>405.8</ele>
        <time>2024-07-31T08:35:34Z</time>
      </trkpt>
      <trkpt lat="47.2498" lon="6.234">
        <ele>405.8</ele>
        <time>2024-07-31T08:35:35Z</time>
      </trkpt>
      <trkpt lat="47.24986" lon="6.23407">
        <ele>405.4</ele>
        <time>2024-07-31T08:35:36Z</time>
      </trkpt>
      <trkpt lat="47.24993" lon="6.23414">
        <ele>405.2</ele>
        <time>2024-07-31T08:35:37Z</time>
      </trkpt>
      <trkpt lat="47.25" lon="6.23421">
        <ele>405.2</ele>
        <time>2024-07-31T08:35:38Z</time>
      </trkpt>
      <trkpt lat="47.25006" lon="6.23428">
        <ele>405</ele>
        <time>2024-07-31T08:35:39Z</time>
      </trkpt>
      <trkpt lat="47.25013" lon="6.23435">
        <ele>405</ele>
        <time>2024-07-31T08:35:40Z</time>
      </trkpt>
      <trkpt lat="47.25019" lon="6.23441">
        <ele>405</ele>
        <time>2024-07-31T08:35:41Z</time>
      </trkpt>
      <trkpt lat="47.25026" lon="6.23448">
        <ele>405</ele>
        <time>2024-07-31T08:35:42Z</time>
      </trkpt>
      <trkpt lat="47.25032" lon="6.23454">
        <ele>404.6</ele>
        <time>2024-07-31T08:35:43Z</time>
      </trkpt>
      <trkpt lat="47.25038" lon="6.2346">
        <ele>404.8</ele>
        <time>2024-07-31T08:35:44Z</time>
      </trkpt>
      <trkpt lat="47.25044" lon="6.23467">
        <ele>404.6</ele>
        <time>2024-07-31T08:35:45Z</time>
      </trkpt>
      <trkpt lat="47.2505" lon="6.23473">
        <ele>404.6</ele>
        <time>2024-07-31T08:35:46Z</time>
      </trkpt>
      <trkpt lat="47.25055" lon="6.23479">
        <ele>404.2</ele>
        <time>2024-07-31T08:35:47Z</time>
      </trkpt>
      <trkpt lat="47.2506" lon="6.23484">
        <ele>404</ele>
        <time>2024-07-31T08:35:48Z</time>
      </trkpt>
      <trkpt lat="47.25064" lon="6.23489">
        <ele>404</ele>
        <time>2024-07-31T08:35:49Z</time>
      </trkpt>
      <trkpt lat="47.25067" lon="6.23494">
        <ele>403.8</ele>
        <time>2024-07-31T08:35:50Z</time>
      </trkpt>
      <trkpt lat="47.25069" lon="6.23498">
        <ele>404</ele>
        <time>2024-07-31T08:35:51Z</time>
      </trkpt>
      <trkpt lat="47.25071" lon="6.23501">
        <ele>404</ele>
        <time>2024-07-31T08:35:52Z</time>
      </trkpt>
      <trkpt lat="47.25073" lon="6.23503">
        <ele>404</ele>
        <time>2024-07-31T08:35:53Z</time>
      </trkpt>
      <trkpt lat="47.25075" lon="6.23504">
        <ele>404</ele>
        <time>2024-07-31T08:35:54Z</time>
      </trkpt>
      <trkpt lat="47.25078" lon="6.23505">
        <ele>404.2</ele>
        <time>2024-07-31T08:35:55Z</time>
      </trkpt>
      <trkpt lat="47.25081" lon="6.23506">
        <ele>404.4</ele>
        <time>2024-07-31T08:35:56Z</time>
      </trkpt>
      <trkpt lat="47.25084" lon="6.23506">
        <ele>404.4</ele>
        <time>2024-07-31T08:35:57Z</time>
      </trkpt>
      <trkpt lat="47.25087" lon="6.23505">
        <ele>404.4</ele>
        <time>2024-07-31T08:35:58Z</time>
      </trkpt>
      <trkpt lat="47.2509" lon="6.23503">
        <ele>404.6</ele>
        <time>2024-07-31T08:35:59Z</time>
      </trkpt>
      <trkpt lat="47.25093" lon="6.23501">
        <ele>404.6</ele>
        <time>2024-07-31T08:36:00Z</time>
      </trkpt>
      <trkpt lat="47.25096" lon="6.23498">
        <ele>404.6</ele>
        <time>2024-07-31T08:36:01Z</time>
      </trkpt>
      <trkpt lat="47.25099" lon="6.23496">
        <ele>404.6</ele>
        <time>2024-07-31T08:36:02Z</time>
      </trkpt>
      <trkpt lat="47.25102" lon="6.23494">
        <ele>404.8</ele>
        <time>2024-07-31T08:36:03Z</time>
      </trkpt>
      <trkpt lat="47.25104" lon="6.23492">
        <ele>405</ele>
        <time>2024-07-31T08:36:04Z</time>
      </trkpt>
      <trkpt lat="47.25107" lon="6.2349">
        <ele>405.4</ele>
        <time>2024-07-31T08:36:05Z</time>
      </trkpt>
      <trkpt lat="47.2511" lon="6.23488">
        <ele>405.4</ele>
        <time>2024-07-31T08:36:06Z</time>
      </trkpt>
      <trkpt lat="47.25113" lon="6.23486">
        <ele>405.4</ele>
        <time>2024-07-31T08:36:07Z</time>
      </trkpt>
      <trkpt lat="47.25116" lon="6.23484">
        <ele>405.6</ele>
        <time>2024-07-31T08:36:08Z</time>
      </trkpt>
      <trkpt lat="47.25118" lon="6.23482">
        <ele>406</ele>
        <time>2024-07-31T08:36:09Z</time>
      </trkpt>
      <trkpt lat="47.25121" lon="6.2348">
        <ele>405.8</ele>
        <time>2024-07-31T08:36:10Z</time>
      </trkpt>
      <trkpt lat="47.25124" lon="6.23478">
        <ele>406.2</ele>
        <time>2024-07-31T08:36:11Z</time>
      </trkpt>
      <trkpt lat="47.25126" lon="6.23476">
        <ele>406</ele>
        <time>2024-07-31T08:36:12Z</time>
      </trkpt>
      <trkpt lat="47.25128" lon="6.23474">
        <ele>406.6</ele>
        <time>2024-07-31T08:36:13Z</time>
      </trkpt>
      <trkpt lat="47.25131" lon="6.23472">
        <ele>407</ele>
        <time>2024-07-31T08:36:14Z</time>
      </trkpt>
      <trkpt lat="47.25133" lon="6.2347">
        <ele>407</ele>
        <time>2024-07-31T08:36:15Z</time>
      </trkpt>
      <trkpt lat="47.25136" lon="6.23467">
        <ele>407.6</ele>
        <time>2024-07-31T08:36:16Z</time>
      </trkpt>
      <trkpt lat="47.25138" lon="6.23465">
        <ele>407.6</ele>
        <time>2024-07-31T08:36:17Z</time>
      </trkpt>
      <trkpt lat="47.25141" lon="6.23462">
        <ele>408</ele>
        <time>2024-07-31T08:36:18Z</time>
      </trkpt>
      <trkpt lat="47.25143" lon="6.2346">
        <ele>408</ele>
        <time>2024-07-31T08:36:19Z</time>
      </trkpt>
      <trkpt lat="47.25146" lon="6.23457">
        <ele>407.8</ele>
        <time>2024-07-31T08:36:20Z</time>
      </trkpt>
      <trkpt lat="47.25148" lon="6.23455">
        <ele>407.8</ele>
        <time>2024-07-31T08:36:21Z</time>
      </trkpt>
      <trkpt lat="47.25152" lon="6.23453">
        <ele>407.6</ele>
        <time>2024-07-31T08:36:22Z</time>
      </trkpt>
      <trkpt lat="47.25154" lon="6.2345">
        <ele>407.8</ele>
        <time>2024-07-31T08:36:23Z</time>
      </trkpt>
      <trkpt lat="47.25157" lon="6.23448">
        <ele>407.8</ele>
        <time>2024-07-31T08:36:24Z</time>
      </trkpt>
      <trkpt lat="47.2516" lon="6.23446">
        <ele>408.2</ele>
        <time>2024-07-31T08:36:25Z</time>
      </trkpt>
      <trkpt lat="47.25162" lon="6.23444">
        <ele>408.2</ele>
        <time>2024-07-31T08:36:26Z</time>
      </trkpt>
      <trkpt lat="47.25165" lon="6.23442">
        <ele>408.2</ele>
        <time>2024-07-31T08:36:27Z</time>
      </trkpt>
      <trkpt lat="47.25168" lon="6.2344">
        <ele>408.2</ele>
        <time>2024-07-31T08:36:28Z</time>
      </trkpt>
      <trkpt lat="47.25171" lon="6.23439">
        <ele>408.4</ele>
        <time>2024-07-31T08:36:29Z</time>
      </trkpt>
      <trkpt lat="47.25173" lon="6.23437">
        <ele>408.4</ele>
        <time>2024-07-31T08:36:30Z</time>
      </trkpt>
      <trkpt lat="47.25176" lon="6.23435">
        <ele>408.6</ele>
        <time>2024-07-31T08:36:31Z</time>
      </trkpt>
      <trkpt lat="47.25179" lon="6.23433">
        <ele>408.8</ele>
        <time>2024-07-31T08:36:32Z</time>
      </trkpt>
      <trkpt lat="47.25182" lon="6.23432">
        <ele>409</ele>
        <time>2024-07-31T08:36:33Z</time>
      </trkpt>
      <trkpt lat="47.25185" lon="6.2343">
        <ele>409</ele>
        <time>2024-07-31T08:36:34Z</time>
      </trkpt>
      <trkpt lat="47.25188" lon="6.23428">
        <ele>408.8</ele>
        <time>2024-07-31T08:36:35Z</time>
      </trkpt>
      <trkpt lat="47.25192" lon="6.23426">
        <ele>408.8</ele>
        <time>2024-07-31T08:36:36Z</time>
      </trkpt>
      <trkpt lat="47.25195" lon="6.23424">
        <ele>408.4</ele>
        <time>2024-07-31T08:36:37Z</time>
      </trkpt>
      <trkpt lat="47.252" lon="6.23423">
        <ele>408.2</ele>
        <time>2024-07-31T08:36:38Z</time>
      </trkpt>
      <trkpt lat="47.25204" lon="6.23422">
        <ele>408</ele>
        <time>2024-07-31T08:36:39Z</time>
      </trkpt>
      <trkpt lat="47.25209" lon="6.23421">
        <ele>407.8</ele>
        <time>2024-07-31T08:36:40Z</time>
      </trkpt>
      <trkpt lat="47.25214" lon="6.2342">
        <ele>407.8</ele>
        <time>2024-07-31T08:36:41Z</time>
      </trkpt>
      <trkpt lat="47.25219" lon="6.23419">
        <ele>407.6</ele>
        <time>2024-07-31T08:36:42Z</time>
      </trkpt>
      <trkpt lat="47.25224" lon="6.23416">
        <ele>407</ele>
        <time>2024-07-31T08:36:43Z</time>
      </trkpt>
      <trkpt lat="47.25229" lon="6.23414">
        <ele>406.8</ele>
        <time>2024-07-31T08:36:44Z</time>
      </trkpt>
      <trkpt lat="47.25234" lon="6.23412">
        <ele>407</ele>
        <time>2024-07-31T08:36:45Z</time>
      </trkpt>
      <trkpt lat="47.25239" lon="6.23409">
        <ele>407</ele>
        <time>2024-07-31T08:36:46Z</time>
      </trkpt>
      <trkpt lat="47.25243" lon="6.23405">
        <ele>406.8</ele>
        <time>2024-07-31T08:36:47Z</time>
      </trkpt>
      <trkpt lat="47.25248" lon="6.23402">
        <ele>406.8</ele>
        <time>2024-07-31T08:36:48Z</time>
      </trkpt>
      <trkpt lat="47.25252" lon="6.23399">
        <ele>407</ele>
        <time>2024-07-31T08:36:49Z</time>
      </trkpt>
      <trkpt lat="47.25256" lon="6.23396">
        <ele>407</ele>
        <time>2024-07-31T08:36:50Z</time>
      </trkpt>
      <trkpt lat="47.2526" lon="6.23393">
        <ele>406.8</ele>
        <time>2024-07-31T08:36:51Z</time>
      </trkpt>
      <trkpt lat="47.25264" lon="6.2339">
        <ele>407</ele>
        <time>2024-07-31T08:36:52Z</time>
      </trkpt>
      <trkpt lat="47.25268" lon="6.23387">
        <ele>406.6</ele>
        <time>2024-07-31T08:36:53Z</time>
      </trkpt>
      <trkpt lat="47.25272" lon="6.23383">
        <ele>406.6</ele>
        <time>2024-07-31T08:36:54Z</time>
      </trkpt>
      <trkpt lat="47.25275" lon="6.2338">
        <ele>406.6</ele>
        <time>2024-07-31T08:36:55Z</time>
      </trkpt>
      <trkpt lat="47.25279" lon="6.23377">
        <ele>406.8</ele>
        <time>2024-07-31T08:36:56Z</time>
      </trkpt>
      <trkpt lat="47.25282" lon="6.23373">
        <ele>407</ele>
        <time>2024-07-31T08:36:57Z</time>
      </trkpt>
      <trkpt lat="47.25285" lon="6.2337">
        <ele>407</ele>
        <time>2024-07-31T08:36:58Z</time>
      </trkpt>
      <trkpt lat="47.25289" lon="6.23366">
        <ele>406.8</ele>
        <time>2024-07-31T08:36:59Z</time>
      </trkpt>
      <trkpt lat="47.25292" lon="6.23363">
        <ele>407.4</ele>
        <time>2024-07-31T08:37:00Z</time>
      </trkpt>
      <trkpt lat="47.25295" lon="6.23359">
        <ele>407.4</ele>
        <time>2024-07-31T08:37:01Z</time>
      </trkpt>
      <trkpt lat="47.25298" lon="6.23357">
        <ele>407.6</ele>
        <time>2024-07-31T08:37:02Z</time>
      </trkpt>
      <trkpt lat="47.25301" lon="6.23354">
        <ele>407.8</ele>
        <time>2024-07-31T08:37:03Z</time>
      </trkpt>
      <trkpt lat="47.25304" lon="6.23351">
        <ele>408</ele>
        <time>2024-07-31T08:37:04Z</time>
      </trkpt>
      <trkpt lat="47.25306" lon="6.23348">
        <ele>408</ele>
        <time>2024-07-31T08:37:05Z</time>
      </trkpt>
      <trkpt lat="47.25309" lon="6.23345">
        <ele>408.2</ele>
        <time>2024-07-31T08:37:06Z</time>
      </trkpt>
      <trkpt lat="47.25312" lon="6.23342">
        <ele>408.8</ele>
        <time>2024-07-31T08:37:07Z</time>
      </trkpt>
      <trkpt lat="47.25315" lon="6.23339">
        <ele>408.8</ele>
        <time>2024-07-31T08:37:08Z</time>
      </trkpt>
      <trkpt lat="47.25318" lon="6.23336">
        <ele>408.8</ele>
        <time>2024-07-31T08:37:09Z</time>
      </trkpt>
      <trkpt lat="47.25321" lon="6.23333">
        <ele>409.4</ele>
        <time>2024-07-31T08:37:10Z</time>
      </trkpt>
      <trkpt lat="47.25324" lon="6.2333">
        <ele>409.6</ele>
        <time>2024-07-31T08:37:11Z</time>
      </trkpt>
      <trkpt lat="47.25327" lon="6.23327">
        <ele>409.6</ele>
        <time>2024-07-31T08:37:12Z</time>
      </trkpt>
      <trkpt lat="47.2533" lon="6.23325">
        <ele>409.4</ele>
        <time>2024-07-31T08:37:13Z</time>
      </trkpt>
      <trkpt lat="47.25334" lon="6.23323">
        <ele>410</ele>
        <time>2024-07-31T08:37:14Z</time>
      </trkpt>
      <trkpt lat="47.25337" lon="6.2332">
        <ele>410</ele>
        <time>2024-07-31T08:37:15Z</time>
      </trkpt>
      <trkpt lat="47.2534" lon="6.23317">
        <ele>410.2</ele>
        <time>2024-07-31T08:37:16Z</time>
      </trkpt>
      <trkpt lat="47.25344" lon="6.23315">
        <ele>410.4</ele>
        <time>2024-07-31T08:37:17Z</time>
      </trkpt>
      <trkpt lat="47.25347" lon="6.23313">
        <ele>410.8</ele>
        <time>2024-07-31T08:37:18Z</time>
      </trkpt>
      <trkpt lat="47.2535" lon="6.23311">
        <ele>410.6</ele>
        <time>2024-07-31T08:37:19Z</time>
      </trkpt>
      <trkpt lat="47.25354" lon="6.23308">
        <ele>410.4</ele>
        <time>2024-07-31T08:37:20Z</time>
      </trkpt>
      <trkpt lat="47.25357" lon="6.23306">
        <ele>410.6</ele>
        <time>2024-07-31T08:37:21Z</time>
      </trkpt>
      <trkpt lat="47.25361" lon="6.23304">
        <ele>410.8</ele>
        <time>2024-07-31T08:37:22Z</time>
      </trkpt>
      <trkpt lat="47.25365" lon="6.23303">
        <ele>410.8</ele>
        <time>2024-07-31T08:37:23Z</time>
      </trkpt>
      <trkpt lat="47.25368" lon="6.23301">
        <ele>410.6</ele>
        <time>2024-07-31T08:37:24Z</time>
      </trkpt>
      <trkpt lat="47.25372" lon="6.233">
        <ele>411.4</ele>
        <time>2024-07-31T08:37:25Z</time>
      </trkpt>
      <trkpt lat="47.25375" lon="6.23299">
        <ele>411.2</ele>
        <time>2024-07-31T08:37:26Z</time>
      </trkpt>
      <trkpt lat="47.25378" lon="6.23297">
        <ele>411.2</ele>
        <time>2024-07-31T08:37:27Z</time>
      </trkpt>
      <trkpt lat="47.25382" lon="6.23296">
        <ele>411.2</ele>
        <time>2024-07-31T08:37:28Z</time>
      </trkpt>
      <trkpt lat="47.25386" lon="6.23295">
        <ele>411.6</ele>
        <time>2024-07-31T08:37:29Z</time>
      </trkpt>
      <trkpt lat="47.2539" lon="6.23294">
        <ele>411.6</ele>
        <time>2024-07-31T08:37:30Z</time>
      </trkpt>
      <trkpt lat="47.25393" lon="6.23292">
        <ele>411.6</ele>
        <time>2024-07-31T08:37:31Z</time>
      </trkpt>
      <trkpt lat="47.25397" lon="6.23291">
        <ele>411.6</ele>
        <time>2024-07-31T08:37:32Z</time>
      </trkpt>
      <trkpt lat="47.254" lon="6.23289">
        <ele>411.8</ele>
        <time>2024-07-31T08:37:33Z</time>
      </trkpt>
      <trkpt lat="47.25404" lon="6.23288">
        <ele>412</ele>
        <time>2024-07-31T08:37:34Z</time>
      </trkpt>
      <trkpt lat="47.25407" lon="6.23286">
        <ele>412.2</ele>
        <time>2024-07-31T08:37:35Z</time>
      </trkpt>
      <trkpt lat="47.25411" lon="6.23285">
        <ele>412.2</ele>
        <time>2024-07-31T08:37:36Z</time>
      </trkpt>
      <trkpt lat="47.25414" lon="6.23284">
        <ele>412.4</ele>
        <time>2024-07-31T08:37:37Z</time>
      </trkpt>
      <trkpt lat="47.25418" lon="6.23283">
        <ele>412.2</ele>
        <time>2024-07-31T08:37:38Z</time>
      </trkpt>
      <trkpt lat="47.25421" lon="6.23282">
        <ele>412.4</ele>
        <time>2024-07-31T08:37:39Z</time>
      </trkpt>
      <trkpt lat="47.25425" lon="6.2328">
        <ele>412.2</ele>
        <time>2024-07-31T08:37:40Z</time>
      </trkpt>
      <trkpt lat="47.25429" lon="6.23279">
        <ele>412.4</ele>
        <time>2024-07-31T08:37:41Z</time>
      </trkpt>
      <trkpt lat="47.25433" lon="6.23278">
        <ele>412.4</ele>
        <time>2024-07-31T08:37:42Z</time>
      </trkpt>
      <trkpt lat="47.25436" lon="6.23277">
        <ele>412.6</ele>
        <time>2024-07-31T08:37:43Z</time>
      </trkpt>
      <trkpt lat="47.2544" lon="6.23276">
        <ele>412.4</ele>
        <time>2024-07-31T08:37:44Z</time>
      </trkpt>
      <trkpt lat="47.25444" lon="6.23275">
        <ele>412.4</ele>
        <time>2024-07-31T08:37:45Z</time>
      </trkpt>
      <trkpt lat="47.25447" lon="6.23273">
        <ele>412.6</ele>
        <time>2024-07-31T08:37:46Z</time>
      </trkpt>
      <trkpt lat="47.25451" lon="6.23272">
        <ele>412.6</ele>
        <time>2024-07-31T08:37:47Z</time>
      </trkpt>
      <trkpt lat="47.25454" lon="6.23271">
        <ele>412.8</ele>
        <time>2024-07-31T08:37:48Z</time>
      </trkpt>
      <trkpt lat="47.25457" lon="6.23269">
        <ele>412.4</ele>
        <time>2024-07-31T08:37:49Z</time>
      </trkpt>
      <trkpt lat="47.2546" lon="6.23268">
        <ele>412.8</ele>
        <time>2024-07-31T08:37:50Z</time>
      </trkpt>
      <trkpt lat="47.25463" lon="6.23267">
        <ele>412.6</ele>
        <time>2024-07-31T08:37:51Z</time>
      </trkpt>
      <trkpt lat="47.25466" lon="6.23265">
        <ele>412.6</ele>
        <time>2024-07-31T08:37:52Z</time>
      </trkpt>
      <trkpt lat="47.25469" lon="6.23264">
        <ele>412.8</ele>
        <time>2024-07-31T08:37:53Z</time>
      </trkpt>
      <trkpt lat="47.25473" lon="6.23263">
        <ele>412.6</ele>
        <time>2024-07-31T08:37:54Z</time>
      </trkpt>
      <trkpt lat="47.25476" lon="6.23262">
        <ele>412.4</ele>
        <time>2024-07-31T08:37:55Z</time>
      </trkpt>
      <trkpt lat="47.25479" lon="6.23262">
        <ele>412.2</ele>
        <time>2024-07-31T08:37:56Z</time>
      </trkpt>
      <trkpt lat="47.25482" lon="6.23262">
        <ele>411.8</ele>
        <time>2024-07-31T08:37:57Z</time>
      </trkpt>
      <trkpt lat="47.25485" lon="6.23262">
        <ele>411.6</ele>
        <time>2024-07-31T08:37:58Z</time>
      </trkpt>
      <trkpt lat="47.25487" lon="6.23261">
        <ele>411.4</ele>
        <time>2024-07-31T08:37:59Z</time>
      </trkpt>
      <trkpt lat="47.25489" lon="6.2326">
        <ele>411.6</ele>
        <time>2024-07-31T08:38:00Z</time>
      </trkpt>
      <trkpt lat="47.2549" lon="6.23258">
        <ele>412</ele>
        <time>2024-07-31T08:38:01Z</time>
      </trkpt>
      <trkpt lat="47.2549" lon="6.23255">
        <ele>412</ele>
        <time>2024-07-31T08:38:02Z</time>
      </trkpt>
      <trkpt lat="47.2549" lon="6.23252">
        <ele>412</ele>
        <time>2024-07-31T08:38:03Z</time>
      </trkpt>
      <trkpt lat="47.25489" lon="6.23249">
        <ele>412.2</ele>
        <time>2024-07-31T08:38:04Z</time>
      </trkpt>
      <trkpt lat="47.25488" lon="6.23245">
        <ele>412.2</ele>
        <time>2024-07-31T08:38:05Z</time>
      </trkpt>
      <trkpt lat="47.25487" lon="6.23242">
        <ele>412.4</ele>
        <time>2024-07-31T08:38:06Z</time>
      </trkpt>
      <trkpt lat="47.25487" lon="6.23239">
        <ele>412.6</ele>
        <time>2024-07-31T08:38:07Z</time>
      </trkpt>
      <trkpt lat="47.25486" lon="6.23235">
        <ele>413</ele>
        <time>2024-07-31T08:38:08Z</time>
      </trkpt>
      <trkpt lat="47.25485" lon="6.23231">
        <ele>413.2</ele>
        <time>2024-07-31T08:38:09Z</time>
      </trkpt>
      <trkpt lat="47.25484" lon="6.23227">
        <ele>413.4</ele>
        <time>2024-07-31T08:38:10Z</time>
      </trkpt>
      <trkpt lat="47.25484" lon="6.23223">
        <ele>413.4</ele>
        <time>2024-07-31T08:38:11Z</time>
      </trkpt>
      <trkpt lat="47.25483" lon="6.23219">
        <ele>413.8</ele>
        <time>2024-07-31T08:38:12Z</time>
      </trkpt>
      <trkpt lat="47.25483" lon="6.23214">
        <ele>414</ele>
        <time>2024-07-31T08:38:13Z</time>
      </trkpt>
      <trkpt lat="47.25482" lon="6.23209">
        <ele>414</ele>
        <time>2024-07-31T08:38:14Z</time>
      </trkpt>
      <trkpt lat="47.25481" lon="6.23204">
        <ele>413.8</ele>
        <time>2024-07-31T08:38:15Z</time>
      </trkpt>
      <trkpt lat="47.25481" lon="6.23199">
        <ele>414</ele>
        <time>2024-07-31T08:38:16Z</time>
      </trkpt>
      <trkpt lat="47.2548" lon="6.23194">
        <ele>414.2</ele>
        <time>2024-07-31T08:38:17Z</time>
      </trkpt>
      <trkpt lat="47.25479" lon="6.23188">
        <ele>414.4</ele>
        <time>2024-07-31T08:38:18Z</time>
      </trkpt>
      <trkpt lat="47.25478" lon="6.23183">
        <ele>414.8</ele>
        <time>2024-07-31T08:38:19Z</time>
      </trkpt>
      <trkpt lat="47.25477" lon="6.23178">
        <ele>414.6</ele>
        <time>2024-07-31T08:38:20Z</time>
      </trkpt>
      <trkpt lat="47.25476" lon="6.23173">
        <ele>415</ele>
        <time>2024-07-31T08:38:21Z</time>
      </trkpt>
      <trkpt lat="47.25475" lon="6.23167">
        <ele>415</ele>
        <time>2024-07-31T08:38:22Z</time>
      </trkpt>
      <trkpt lat="47.25474" lon="6.23162">
        <ele>415</ele>
        <time>2024-07-31T08:38:23Z</time>
      </trkpt>
      <trkpt lat="47.25473" lon="6.23157">
        <ele>415.2</ele>
        <time>2024-07-31T08:38:24Z</time>
      </trkpt>
      <trkpt lat="47.25472" lon="6.23152">
        <ele>415</ele>
        <time>2024-07-31T08:38:25Z</time>
      </trkpt>
      <trkpt lat="47.25471" lon="6.23147">
        <ele>415.2</ele>
        <time>2024-07-31T08:38:26Z</time>
      </trkpt>
      <trkpt lat="47.25471" lon="6.23142">
        <ele>415.4</ele>
        <time>2024-07-31T08:38:27Z</time>
      </trkpt>
      <trkpt lat="47.2547" lon="6.23137">
        <ele>415.6</ele>
        <time>2024-07-31T08:38:28Z</time>
      </trkpt>
      <trkpt lat="47.25469" lon="6.23132">
        <ele>415.8</ele>
        <time>2024-07-31T08:38:29Z</time>
      </trkpt>
      <trkpt lat="47.25468" lon="6.23127">
        <ele>415.8</ele>
        <time>2024-07-31T08:38:30Z</time>
      </trkpt>
      <trkpt lat="47.25467" lon="6.23122">
        <ele>416</ele>
        <time>2024-07-31T08:38:31Z</time>
      </trkpt>
      <trkpt lat="47.25466" lon="6.23117">
        <ele>416.2</ele>
        <time>2024-07-31T08:38:32Z</time>
      </trkpt>
      <trkpt lat="47.25466" lon="6.23112">
        <ele>416.2</ele>
        <time>2024-07-31T08:38:33Z</time>
      </trkpt>
      <trkpt lat="47.25465" lon="6.23107">
        <ele>416.4</ele>
        <time>2024-07-31T08:38:34Z</time>
      </trkpt>
      <trkpt lat="47.25464" lon="6.23102">
        <ele>416.4</ele>
        <time>2024-07-31T08:38:35Z</time>
      </trkpt>
      <trkpt lat="47.25464" lon="6.23097">
        <ele>416.4</ele>
        <time>2024-07-31T08:38:36Z</time>
      </trkpt>
      <trkpt lat="47.25463" lon="6.23092">
        <ele>416.8</ele>
        <time>2024-07-31T08:38:37Z</time>
      </trkpt>
      <trkpt lat="47.25463" lon="6.23086">
        <ele>416.8</ele>
        <time>2024-07-31T08:38:38Z</time>
      </trkpt>
      <trkpt lat="47.25463" lon="6.23081">
        <ele>416.8</ele>
        <time>2024-07-31T08:38:39Z</time>
      </trkpt>
      <trkpt lat="47.25464" lon="6.23076">
        <ele>417</ele>
        <time>2024-07-31T08:38:40Z</time>
      </trkpt>
      <trkpt lat="47.25464" lon="6.23071">
        <ele>417</ele>
        <time>2024-07-31T08:38:41Z</time>
      </trkpt>
      <trkpt lat="47.25466" lon="6.23067">
        <ele>417.2</ele>
        <time>2024-07-31T08:38:42Z</time>
      </trkpt>
      <trkpt lat="47.25467" lon="6.23063">
        <ele>417.2</ele>
        <time>2024-07-31T08:38:43Z</time>
      </trkpt>
      <trkpt lat="47.25469" lon="6.23059">
        <ele>417.2</ele>
        <time>2024-07-31T08:38:44Z</time>
      </trkpt>
      <trkpt lat="47.25471" lon="6.23056">
        <ele>418</ele>
        <time>2024-07-31T08:38:45Z</time>
      </trkpt>
      <trkpt lat="47.25473" lon="6.23053">
        <ele>418.2</ele>
        <time>2024-07-31T08:38:46Z</time>
      </trkpt>
      <trkpt lat="47.25475" lon="6.23049">
        <ele>418.4</ele>
        <time>2024-07-31T08:38:47Z</time>
      </trkpt>
      <trkpt lat="47.25477" lon="6.23046">
        <ele>418.6</ele>
        <time>2024-07-31T08:38:48Z</time>
      </trkpt>
      <trkpt lat="47.25479" lon="6.23042">
        <ele>418.6</ele>
        <time>2024-07-31T08:38:49Z</time>
      </trkpt>
      <trkpt lat="47.25481" lon="6.23038">
        <ele>418.6</ele>
        <time>2024-07-31T08:38:50Z</time>
      </trkpt>
      <trkpt lat="47.25482" lon="6.23034">
        <ele>418.8</ele>
        <time>2024-07-31T08:38:51Z</time>
      </trkpt>
      <trkpt lat="47.25484" lon="6.2303">
        <ele>418.8</ele>
        <time>2024-07-31T08:38:52Z</time>
      </trkpt>
      <trkpt lat="47.25486" lon="6.23026">
        <ele>418.8</ele>
        <time>2024-07-31T08:38:53Z</time>
      </trkpt>
      <trkpt lat="47.25489" lon="6.23021">
        <ele>418.6</ele>
        <time>2024-07-31T08:38:54Z</time>
      </trkpt>
      <trkpt lat="47.25491" lon="6.23017">
        <ele>418.8</ele>
        <time>2024-07-31T08:38:55Z</time>
      </trkpt>
      <trkpt lat="47.25494" lon="6.23014">
        <ele>418.8</ele>
        <time>2024-07-31T08:38:56Z</time>
      </trkpt>
      <trkpt lat="47.25497" lon="6.2301">
        <ele>418.4</ele>
        <time>2024-07-31T08:38:57Z</time>
      </trkpt>
      <trkpt lat="47.25499" lon="6.23007">
        <ele>418.4</ele>
        <time>2024-07-31T08:38:58Z</time>
      </trkpt>
      <trkpt lat="47.25502" lon="6.23004">
        <ele>418</ele>
        <time>2024-07-31T08:38:59Z</time>
      </trkpt>
      <trkpt lat="47.25506" lon="6.23001">
        <ele>418.2</ele>
        <time>2024-07-31T08:39:00Z</time>
      </trkpt>
      <trkpt lat="47.25509" lon="6.22997">
        <ele>418</ele>
        <time>2024-07-31T08:39:01Z</time>
      </trkpt>
      <trkpt lat="47.25513" lon="6.22994">
        <ele>417.6</ele>
        <time>2024-07-31T08:39:02Z</time>
      </trkpt>
      <trkpt lat="47.25516" lon="6.22991">
        <ele>417.8</ele>
        <time>2024-07-31T08:39:03Z</time>
      </trkpt>
      <trkpt lat="47.2552" lon="6.22987">
        <ele>417.2</ele>
        <time>2024-07-31T08:39:04Z</time>
      </trkpt>
      <trkpt lat="47.25524" lon="6.22984">
        <ele>416.4</ele>
        <time>2024-07-31T08:39:05Z</time>
      </trkpt>
      <trkpt lat="47.25528" lon="6.2298">
        <ele>416.4</ele>
        <time>2024-07-31T08:39:06Z</time>
      </trkpt>
      <trkpt lat="47.25532" lon="6.22976">
        <ele>415.2</ele>
        <time>2024-07-31T08:39:07Z</time>
      </trkpt>
      <trkpt lat="47.25537" lon="6.22973">
        <ele>415</ele>
        <time>2024-07-31T08:39:08Z</time>
      </trkpt>
      <trkpt lat="47.25541" lon="6.22968">
        <ele>414.4</ele>
        <time>2024-07-31T08:39:09Z</time>
      </trkpt>
      <trkpt lat="47.25545" lon="6.22964">
        <ele>414</ele>
        <time>2024-07-31T08:39:10Z</time>
      </trkpt>
      <trkpt lat="47.2555" lon="6.2296">
        <ele>413.8</ele>
        <time>2024-07-31T08:39:11Z</time>
      </trkpt>
      <trkpt lat="47.25555" lon="6.22956">
        <ele>413.2</ele>
        <time>2024-07-31T08:39:12Z</time>
      </trkpt>
      <trkpt lat="47.25559" lon="6.22952">
        <ele>412.6</ele>
        <time>2024-07-31T08:39:13Z</time>
      </trkpt>
      <trkpt lat="47.25564" lon="6.22947">
        <ele>412</ele>
        <time>2024-07-31T08:39:14Z</time>
      </trkpt>
      <trkpt lat="47.25568" lon="6.22944">
        <ele>412</ele>
        <time>2024-07-31T08:39:15Z</time>
      </trkpt>
      <trkpt lat="47.25572" lon="6.22941">
        <ele>411.8</ele>
        <time>2024-07-31T08:39:16Z</time>
      </trkpt>
      <trkpt lat="47.25575" lon="6.22941">
        <ele>411.6</ele>
        <time>2024-07-31T08:39:17Z</time>
      </trkpt>
      <trkpt lat="47.25578" lon="6.22944">
        <ele>411.6</ele>
        <time>2024-07-31T08:39:18Z</time>
      </trkpt>
      <trkpt lat="47.2558" lon="6.22948">
        <ele>411.6</ele>
        <time>2024-07-31T08:39:19Z</time>
      </trkpt>
      <trkpt lat="47.25582" lon="6.22953">
        <ele>411.6</ele>
        <time>2024-07-31T08:39:20Z</time>
      </trkpt>
      <trkpt lat="47.25583" lon="6.22959">
        <ele>411.6</ele>
        <time>2024-07-31T08:39:21Z</time>
      </trkpt>
      <trkpt lat="47.25585" lon="6.22965">
        <ele>411.6</ele>
        <time>2024-07-31T08:39:22Z</time>
      </trkpt>
      <trkpt lat="47.25586" lon="6.2297">
        <ele>411.4</ele>
        <time>2024-07-31T08:39:23Z</time>
      </trkpt>
      <trkpt lat="47.25588" lon="6.22976">
        <ele>411.4</ele>
        <time>2024-07-31T08:39:24Z</time>
      </trkpt>
      <trkpt lat="47.2559" lon="6.22983">
        <ele>411.6</ele>
        <time>2024-07-31T08:39:25Z</time>
      </trkpt>
      <trkpt lat="47.25592" lon="6.22989">
        <ele>411.6</ele>
        <time>2024-07-31T08:39:26Z</time>
      </trkpt>
      <trkpt lat="47.25594" lon="6.22995">
        <ele>411.6</ele>
        <time>2024-07-31T08:39:27Z</time>
      </trkpt>
      <trkpt lat="47.25597" lon="6.23001">
        <ele>411.6</ele>
        <time>2024-07-31T08:39:28Z</time>
      </trkpt>
      <trkpt lat="47.25599" lon="6.23006">
        <ele>411.6</ele>
        <time>2024-07-31T08:39:29Z</time>
      </trkpt>
      <trkpt lat="47.25602" lon="6.23012">
        <ele>411.6</ele>
        <time>2024-07-31T08:39:30Z</time>
      </trkpt>
      <trkpt lat="47.25605" lon="6.23018">
        <ele>411.2</ele>
        <time>2024-07-31T08:39:31Z</time>
      </trkpt>
      <trkpt lat="47.25609" lon="6.23024">
        <ele>411.4</ele>
        <time>2024-07-31T08:39:32Z</time>
      </trkpt>
      <trkpt lat="47.25612" lon="6.23029">
        <ele>411</ele>
        <time>2024-07-31T08:39:33Z</time>
      </trkpt>
      <trkpt lat="47.25615" lon="6.23035">
        <ele>411.2</ele>
        <time>2024-07-31T08:39:34Z</time>
      </trkpt>
      <trkpt lat="47.25618" lon="6.23041">
        <ele>411.2</ele>
        <time>2024-07-31T08:39:35Z</time>
      </trkpt>
      <trkpt lat="47.25622" lon="6.23047">
        <ele>410.8</ele>
        <time>2024-07-31T08:39:36Z</time>
      </trkpt>
      <trkpt lat="47.25626" lon="6.23053">
        <ele>410.8</ele>
        <time>2024-07-31T08:39:37Z</time>
      </trkpt>
      <trkpt lat="47.25629" lon="6.23059">
        <ele>410.8</ele>
        <time>2024-07-31T08:39:38Z</time>
      </trkpt>
      <trkpt lat="47.25632" lon="6.23065">
        <ele>410.6</ele>
        <time>2024-07-31T08:39:39Z</time>
      </trkpt>
      <trkpt lat="47.25636" lon="6.23071">
        <ele>410.6</ele>
        <time>2024-07-31T08:39:40Z</time>
      </trkpt>
      <trkpt lat="47.25639" lon="6.23077">
        <ele>410.2</ele>
        <time>2024-07-31T08:39:41Z</time>
      </trkpt>
      <trkpt lat="47.25643" lon="6.23084">
        <ele>410.2</ele>
        <time>2024-07-31T08:39:42Z</time>
      </trkpt>
      <trkpt lat="47.25647" lon="6.2309">
        <ele>410</ele>
        <time>2024-07-31T08:39:43Z</time>
      </trkpt>
      <trkpt lat="47.2565" lon="6.23096">
        <ele>410</ele>
        <time>2024-07-31T08:39:44Z</time>
      </trkpt>
      <trkpt lat="47.25654" lon="6.23103">
        <ele>409.8</ele>
        <time>2024-07-31T08:39:45Z</time>
      </trkpt>
      <trkpt lat="47.25657" lon="6.23109">
        <ele>409.6</ele>
        <time>2024-07-31T08:39:46Z</time>
      </trkpt>
      <trkpt lat="47.25661" lon="6.23116">
        <ele>409.4</ele>
        <time>2024-07-31T08:39:47Z</time>
      </trkpt>
      <trkpt lat="47.25665" lon="6.23123">
        <ele>409.4</ele>
        <time>2024-07-31T08:39:48Z</time>
      </trkpt>
      <trkpt lat="47.2567" lon="6.23129">
        <ele>409.2</ele>
        <time>2024-07-31T08:39:49Z</time>
      </trkpt>
      <trkpt lat="47.25674" lon="6.23135">
        <ele>409.2</ele>
        <time>2024-07-31T08:39:50Z</time>
      </trkpt>
      <trkpt lat="47.25678" lon="6.23141">
        <ele>409</ele>
        <time>2024-07-31T08:39:51Z</time>
      </trkpt>
      <trkpt lat="47.25683" lon="6.23147">
        <ele>408.8</ele>
        <time>2024-07-31T08:39:52Z</time>
      </trkpt>
      <trkpt lat="47.25688" lon="6.23152">
        <ele>408.8</ele>
        <time>2024-07-31T08:39:53Z</time>
      </trkpt>
      <trkpt lat="47.25693" lon="6.23157">
        <ele>408.8</ele>
        <time>2024-07-31T08:39:54Z</time>
      </trkpt>
      <trkpt lat="47.25698" lon="6.23162">
        <ele>408.4</ele>
        <time>2024-07-31T08:39:55Z</time>
      </trkpt>
      <trkpt lat="47.25704" lon="6.23167">
        <ele>408.4</ele>
        <time>2024-07-31T08:39:56Z</time>
      </trkpt>
      <trkpt lat="47.25709" lon="6.23172">
        <ele>408.4</ele>
        <time>2024-07-31T08:39:57Z</time>
      </trkpt>
      <trkpt lat="47.25714" lon="6.23176">
        <ele>408</ele>
        <time>2024-07-31T08:39:58Z</time>
      </trkpt>
      <trkpt lat="47.25719" lon="6.23181">
        <ele>408.4</ele>
        <time>2024-07-31T08:39:59Z</time>
      </trkpt>
      <trkpt lat="47.25723" lon="6.23186">
        <ele>408.2</ele>
        <time>2024-07-31T08:40:00Z</time>
      </trkpt>
      <trkpt lat="47.25728" lon="6.2319">
        <ele>408</ele>
        <time>2024-07-31T08:40:01Z</time>
      </trkpt>
      <trkpt lat="47.25732" lon="6.23195">
        <ele>408</ele>
        <time>2024-07-31T08:40:02Z</time>
      </trkpt>
      <trkpt lat="47.25736" lon="6.23199">
        <ele>408</ele>
        <time>2024-07-31T08:40:03Z</time>
      </trkpt>
      <trkpt lat="47.2574" lon="6.23203">
        <ele>408</ele>
        <time>2024-07-31T08:40:04Z</time>
      </trkpt>
      <trkpt lat="47.25744" lon="6.23208">
        <ele>407.8</ele>
        <time>2024-07-31T08:40:05Z</time>
      </trkpt>
      <trkpt lat="47.25748" lon="6.23213">
        <ele>407.6</ele>
        <time>2024-07-31T08:40:06Z</time>
      </trkpt>
      <trkpt lat="47.25751" lon="6.23218">
        <ele>408</ele>
        <time>2024-07-31T08:40:07Z</time>
      </trkpt>
      <trkpt lat="47.25755" lon="6.23223">
        <ele>407.6</ele>
        <time>2024-07-31T08:40:08Z</time>
      </trkpt>
      <trkpt lat="47.25758" lon="6.23229">
        <ele>407.6</ele>
        <time>2024-07-31T08:40:09Z</time>
      </trkpt>
      <trkpt lat="47.25761" lon="6.23235">
        <ele>407.8</ele>
        <time>2024-07-31T08:40:10Z</time>
      </trkpt>
      <trkpt lat="47.25764" lon="6.2324">
        <ele>407.4</ele>
        <time>2024-07-31T08:40:11Z</time>
      </trkpt>
      <trkpt lat="47.25766" lon="6.23245">
        <ele>407</ele>
        <time>2024-07-31T08:40:12Z</time>
      </trkpt>
      <trkpt lat="47.25769" lon="6.23249">
        <ele>406.8</ele>
        <time>2024-07-31T08:40:13Z</time>
      </trkpt>
      <trkpt lat="47.25771" lon="6.23251">
        <ele>406.4</ele>
        <time>2024-07-31T08:40:14Z</time>
      </trkpt>
      <trkpt lat="47.25774" lon="6.23251">
        <ele>406</ele>
        <time>2024-07-31T08:40:15Z</time>
      </trkpt>
      <trkpt lat="47.25777" lon="6.23249">
        <ele>405.8</ele>
        <time>2024-07-31T08:40:16Z</time>
      </trkpt>
      <trkpt lat="47.25781" lon="6.23245">
        <ele>405.6</ele>
        <time>2024-07-31T08:40:17Z</time>
      </trkpt>
      <trkpt lat="47.25783" lon="6.2324">
        <ele>405.4</ele>
        <time>2024-07-31T08:40:18Z</time>
      </trkpt>
      <trkpt lat="47.25786" lon="6.23233">
        <ele>405.4</ele>
        <time>2024-07-31T08:40:19Z</time>
      </trkpt>
      <trkpt lat="47.2579" lon="6.23226">
        <ele>405</ele>
        <time>2024-07-31T08:40:20Z</time>
      </trkpt>
      <trkpt lat="47.25793" lon="6.23219">
        <ele>405</ele>
        <time>2024-07-31T08:40:21Z</time>
      </trkpt>
      <trkpt lat="47.25796" lon="6.23211">
        <ele>404.4</ele>
        <time>2024-07-31T08:40:22Z</time>
      </trkpt>
      <trkpt lat="47.258" lon="6.23203">
        <ele>404.2</ele>
        <time>2024-07-31T08:40:23Z</time>
      </trkpt>
      <trkpt lat="47.25804" lon="6.23194">
        <ele>403.6</ele>
        <time>2024-07-31T08:40:24Z</time>
      </trkpt>
      <trkpt lat="47.25808" lon="6.23186">
        <ele>403.2</ele>
        <time>2024-07-31T08:40:25Z</time>
      </trkpt>
      <trkpt lat="47.25812" lon="6.23176">
        <ele>403.2</ele>
        <time>2024-07-31T08:40:26Z</time>
      </trkpt>
      <trkpt lat="47.25817" lon="6.23167">
        <ele>402.8</ele>
        <time>2024-07-31T08:40:27Z</time>
      </trkpt>
      <trkpt lat="47.25821" lon="6.23157">
        <ele>402.4</ele>
        <time>2024-07-31T08:40:28Z</time>
      </trkpt>
      <trkpt lat="47.25825" lon="6.23148">
        <ele>402.2</ele>
        <time>2024-07-31T08:40:29Z</time>
      </trkpt>
      <trkpt lat="47.2583" lon="6.23139">
        <ele>402</ele>
        <time>2024-07-31T08:40:30Z</time>
      </trkpt>
      <trkpt lat="47.25834" lon="6.23129">
        <ele>402</ele>
        <time>2024-07-31T08:40:31Z</time>
      </trkpt>
      <trkpt lat="47.25839" lon="6.2312">
        <ele>401.6</ele>
        <time>2024-07-31T08:40:32Z</time>
      </trkpt>
      <trkpt lat="47.25843" lon="6.23112">
        <ele>401.4</ele>
        <time>2024-07-31T08:40:33Z</time>
      </trkpt>
      <trkpt lat="47.25848" lon="6.23103">
        <ele>401.2</ele>
        <time>2024-07-31T08:40:34Z</time>
      </trkpt>
      <trkpt lat="47.25853" lon="6.23096">
        <ele>401</ele>
        <time>2024-07-31T08:40:35Z</time>
      </trkpt>
      <trkpt lat="47.25858" lon="6.23089">
        <ele>401.2</ele>
        <time>2024-07-31T08:40:36Z</time>
      </trkpt>
      <trkpt lat="47.25863" lon="6.23082">
        <ele>401</ele>
        <time>2024-07-31T08:40:37Z</time>
      </trkpt>
      <trkpt lat="47.25868" lon="6.23077">
        <ele>400.8</ele>
        <time>2024-07-31T08:40:38Z</time>
      </trkpt>
      <trkpt lat="47.25874" lon="6.23072">
        <ele>400.8</ele>
        <time>2024-07-31T08:40:39Z</time>
      </trkpt>
      <trkpt lat="47.25879" lon="6.23068">
        <ele>400.8</ele>
        <time>2024-07-31T08:40:40Z</time>
      </trkpt>
      <trkpt lat="47.25885" lon="6.23066">
        <ele>400.8</ele>
        <time>2024-07-31T08:40:41Z</time>
      </trkpt>
      <trkpt lat="47.25891" lon="6.23065">
        <ele>400.6</ele>
        <time>2024-07-31T08:40:42Z</time>
      </trkpt>
      <trkpt lat="47.25897" lon="6.23064">
        <ele>400.6</ele>
        <time>2024-07-31T08:40:43Z</time>
      </trkpt>
      <trkpt lat="47.25904" lon="6.23064">
        <ele>400.8</ele>
        <time>2024-07-31T08:40:44Z</time>
      </trkpt>
      <trkpt lat="47.2591" lon="6.23064">
        <ele>400.8</ele>
        <time>2024-07-31T08:40:45Z</time>
      </trkpt>
      <trkpt lat="47.25916" lon="6.23065">
        <ele>400.6</ele>
        <time>2024-07-31T08:40:46Z</time>
      </trkpt>
      <trkpt lat="47.25922" lon="6.23065">
        <ele>400.8</ele>
        <time>2024-07-31T08:40:47Z</time>
      </trkpt>
      <trkpt lat="47.25928" lon="6.23064">
        <ele>400.8</ele>
        <time>2024-07-31T08:40:48Z</time>
      </trkpt>
      <trkpt lat="47.25934" lon="6.23063">
        <ele>400.8</ele>
        <time>2024-07-31T08:40:49Z</time>
      </trkpt>
      <trkpt lat="47.25939" lon="6.2306">
        <ele>400.8</ele>
        <time>2024-07-31T08:40:50Z</time>
      </trkpt>
      <trkpt lat="47.25944" lon="6.23055">
        <ele>401</ele>
        <time>2024-07-31T08:40:51Z</time>
      </trkpt>
      <trkpt lat="47.25949" lon="6.23049">
        <ele>401.2</ele>
        <time>2024-07-31T08:40:52Z</time>
      </trkpt>
      <trkpt lat="47.25953" lon="6.23042">
        <ele>401.4</ele>
        <time>2024-07-31T08:40:53Z</time>
      </trkpt>
      <trkpt lat="47.25957" lon="6.23035">
        <ele>401.2</ele>
        <time>2024-07-31T08:40:54Z</time>
      </trkpt>
      <trkpt lat="47.2596" lon="6.23028">
        <ele>401.4</ele>
        <time>2024-07-31T08:40:55Z</time>
      </trkpt>
      <trkpt lat="47.25963" lon="6.2302">
        <ele>401.6</ele>
        <time>2024-07-31T08:40:56Z</time>
      </trkpt>
      <trkpt lat="47.25967" lon="6.23013">
        <ele>401.8</ele>
        <time>2024-07-31T08:40:57Z</time>
      </trkpt>
      <trkpt lat="47.2597" lon="6.23005">
        <ele>402.2</ele>
        <time>2024-07-31T08:40:58Z</time>
      </trkpt>
      <trkpt lat="47.25973" lon="6.22998">
        <ele>402.4</ele>
        <time>2024-07-31T08:40:59Z</time>
      </trkpt>
      <trkpt lat="47.25976" lon="6.22991">
        <ele>402.4</ele>
        <time>2024-07-31T08:41:00Z</time>
      </trkpt>
      <trkpt lat="47.25978" lon="6.22985">
        <ele>402.2</ele>
        <time>2024-07-31T08:41:01Z</time>
      </trkpt>
      <trkpt lat="47.25981" lon="6.22978">
        <ele>402.4</ele>
        <time>2024-07-31T08:41:02Z</time>
      </trkpt>
      <trkpt lat="47.25983" lon="6.22971">
        <ele>402.6</ele>
        <time>2024-07-31T08:41:03Z</time>
      </trkpt>
      <trkpt lat="47.25986" lon="6.22965">
        <ele>402.8</ele>
        <time>2024-07-31T08:41:04Z</time>
      </trkpt>
      <trkpt lat="47.25989" lon="6.22959">
        <ele>402.8</ele>
        <time>2024-07-31T08:41:05Z</time>
      </trkpt>
      <trkpt lat="47.25991" lon="6.22953">
        <ele>403</ele>
        <time>2024-07-31T08:41:06Z</time>
      </trkpt>
      <trkpt lat="47.25994" lon="6.22947">
        <ele>403.2</ele>
        <time>2024-07-31T08:41:07Z</time>
      </trkpt>
      <trkpt lat="47.25996" lon="6.22941">
        <ele>403.2</ele>
        <time>2024-07-31T08:41:08Z</time>
      </trkpt>
      <trkpt lat="47.25999" lon="6.22934">
        <ele>403.2</ele>
        <time>2024-07-31T08:41:09Z</time>
      </trkpt>
      <trkpt lat="47.26002" lon="6.22928">
        <ele>403.4</ele>
        <time>2024-07-31T08:41:10Z</time>
      </trkpt>
      <trkpt lat="47.26005" lon="6.22922">
        <ele>403.4</ele>
        <time>2024-07-31T08:41:11Z</time>
      </trkpt>
      <trkpt lat="47.26008" lon="6.22916">
        <ele>403.6</ele>
        <time>2024-07-31T08:41:12Z</time>
      </trkpt>
      <trkpt lat="47.26011" lon="6.2291">
        <ele>403.6</ele>
        <time>2024-07-31T08:41:13Z</time>
      </trkpt>
      <trkpt lat="47.26014" lon="6.22904">
        <ele>403.6</ele>
        <time>2024-07-31T08:41:14Z</time>
      </trkpt>
      <trkpt lat="47.26017" lon="6.22898">
        <ele>404</ele>
        <time>2024-07-31T08:41:15Z</time>
      </trkpt>
      <trkpt lat="47.2602" lon="6.22892">
        <ele>404</ele>
        <time>2024-07-31T08:41:16Z</time>
      </trkpt>
      <trkpt lat="47.26023" lon="6.22886">
        <ele>404</ele>
        <time>2024-07-31T08:41:17Z</time>
      </trkpt>
      <trkpt lat="47.26026" lon="6.2288">
        <ele>404.2</ele>
        <time>2024-07-31T08:41:18Z</time>
      </trkpt>
      <trkpt lat="47.26029" lon="6.22874">
        <ele>404.2</ele>
        <time>2024-07-31T08:41:19Z</time>
      </trkpt>
      <trkpt lat="47.26031" lon="6.22868">
        <ele>404.4</ele>
        <time>2024-07-31T08:41:20Z</time>
      </trkpt>
      <trkpt lat="47.26034" lon="6.22862">
        <ele>404.6</ele>
        <time>2024-07-31T08:41:21Z</time>
      </trkpt>
      <trkpt lat="47.26037" lon="6.22856">
        <ele>404.8</ele>
        <time>2024-07-31T08:41:22Z</time>
      </trkpt>
      <trkpt lat="47.26039" lon="6.22849">
        <ele>404.8</ele>
        <time>2024-07-31T08:41:23Z</time>
      </trkpt>
      <trkpt lat="47.26041" lon="6.22843">
        <ele>405</ele>
        <time>2024-07-31T08:41:24Z</time>
      </trkpt>
      <trkpt lat="47.26044" lon="6.22837">
        <ele>405.2</ele>
        <time>2024-07-31T08:41:25Z</time>
      </trkpt>
      <trkpt lat="47.26046" lon="6.2283">
        <ele>405.2</ele>
        <time>2024-07-31T08:41:26Z</time>
      </trkpt>
      <trkpt lat="47.26047" lon="6.22824">
        <ele>405.2</ele>
        <time>2024-07-31T08:41:27Z</time>
      </trkpt>
      <trkpt lat="47.26049" lon="6.22817">
        <ele>405.4</ele>
        <time>2024-07-31T08:41:28Z</time>
      </trkpt>
      <trkpt lat="47.2605" lon="6.22811">
        <ele>405.6</ele>
        <time>2024-07-31T08:41:29Z</time>
      </trkpt>
      <trkpt lat="47.26051" lon="6.22804">
        <ele>405.6</ele>
        <time>2024-07-31T08:41:30Z</time>
      </trkpt>
      <trkpt lat="47.26053" lon="6.22798">
        <ele>406</ele>
        <time>2024-07-31T08:41:31Z</time>
      </trkpt>
      <trkpt lat="47.26054" lon="6.22793">
        <ele>405.8</ele>
        <time>2024-07-31T08:41:32Z</time>
      </trkpt>
      <trkpt lat="47.26056" lon="6.22788">
        <ele>405.8</ele>
        <time>2024-07-31T08:41:33Z</time>
      </trkpt>
      <trkpt lat="47.26059" lon="6.22785">
        <ele>405.8</ele>
        <time>2024-07-31T08:41:34Z</time>
      </trkpt>
      <trkpt lat="47.26062" lon="6.22783">
        <ele>405.8</ele>
        <time>2024-07-31T08:41:35Z</time>
      </trkpt>
      <trkpt lat="47.26065" lon="6.22783">
        <ele>406.4</ele>
        <time>2024-07-31T08:41:36Z</time>
      </trkpt>
      <trkpt lat="47.26068" lon="6.22785">
        <ele>406.6</ele>
        <time>2024-07-31T08:41:37Z</time>
      </trkpt>
      <trkpt lat="47.2607" lon="6.22787">
        <ele>406.8</ele>
        <time>2024-07-31T08:41:38Z</time>
      </trkpt>
      <trkpt lat="47.26073" lon="6.2279">
        <ele>407.4</ele>
        <time>2024-07-31T08:41:39Z</time>
      </trkpt>
      <trkpt lat="47.26075" lon="6.22793">
        <ele>407.8</ele>
        <time>2024-07-31T08:41:40Z</time>
      </trkpt>
      <trkpt lat="47.26077" lon="6.22795">
        <ele>408.2</ele>
        <time>2024-07-31T08:41:41Z</time>
      </trkpt>
      <trkpt lat="47.26078" lon="6.22798">
        <ele>409</ele>
        <time>2024-07-31T08:41:42Z</time>
      </trkpt>
      <trkpt lat="47.2608" lon="6.22801">
        <ele>409</ele>
        <time>2024-07-31T08:41:43Z</time>
      </trkpt>
      <trkpt lat="47.26082" lon="6.22805">
        <ele>409.4</ele>
        <time>2024-07-31T08:41:44Z</time>
      </trkpt>
      <trkpt lat="47.26084" lon="6.22808">
        <ele>409.8</ele>
        <time>2024-07-31T08:41:45Z</time>
      </trkpt>
      <trkpt lat="47.26085" lon="6.22811">
        <ele>410.4</ele>
        <time>2024-07-31T08:41:46Z</time>
      </trkpt>
      <trkpt lat="47.26087" lon="6.22814">
        <ele>410.6</ele>
        <time>2024-07-31T08:41:47Z</time>
      </trkpt>
      <trkpt lat="47.26089" lon="6.22817">
        <ele>410.8</ele>
        <time>2024-07-31T08:41:48Z</time>
      </trkpt>
      <trkpt lat="47.26091" lon="6.22821">
        <ele>411</ele>
        <time>2024-07-31T08:41:49Z</time>
      </trkpt>
      <trkpt lat="47.26093" lon="6.22824">
        <ele>411.2</ele>
        <time>2024-07-31T08:41:50Z</time>
      </trkpt>
      <trkpt lat="47.26096" lon="6.22827">
        <ele>411.4</ele>
        <time>2024-07-31T08:41:51Z</time>
      </trkpt>
      <trkpt lat="47.26098" lon="6.2283">
        <ele>411.6</ele>
        <time>2024-07-31T08:41:52Z</time>
      </trkpt>
      <trkpt lat="47.261" lon="6.22833">
        <ele>411.8</ele>
        <time>2024-07-31T08:41:53Z</time>
      </trkpt>
      <trkpt lat="47.26102" lon="6.22836">
        <ele>411.8</ele>
        <time>2024-07-31T08:41:54Z</time>
      </trkpt>
      <trkpt lat="47.26105" lon="6.2284">
        <ele>411.8</ele>
        <time>2024-07-31T08:41:55Z</time>
      </trkpt>
      <trkpt lat="47.26107" lon="6.22843">
        <ele>412.2</ele>
        <time>2024-07-31T08:41:56Z</time>
      </trkpt>
      <trkpt lat="47.26109" lon="6.22847">
        <ele>412.4</ele>
        <time>2024-07-31T08:41:57Z</time>
      </trkpt>
      <trkpt lat="47.26112" lon="6.2285">
        <ele>412.6</ele>
        <time>2024-07-31T08:41:58Z</time>
      </trkpt>
      <trkpt lat="47.26115" lon="6.22853">
        <ele>413</ele>
        <time>2024-07-31T08:41:59Z</time>
      </trkpt>
      <trkpt lat="47.26117" lon="6.22857">
        <ele>413.2</ele>
        <time>2024-07-31T08:42:00Z</time>
      </trkpt>
      <trkpt lat="47.2612" lon="6.2286">
        <ele>413</ele>
        <time>2024-07-31T08:42:01Z</time>
      </trkpt>
      <trkpt lat="47.26123" lon="6.22864">
        <ele>413</ele>
        <time>2024-07-31T08:42:02Z</time>
      </trkpt>
      <trkpt lat="47.26126" lon="6.22867">
        <ele>413.2</ele>
        <time>2024-07-31T08:42:03Z</time>
      </trkpt>
      <trkpt lat="47.26129" lon="6.22871">
        <ele>413.4</ele>
        <time>2024-07-31T08:42:04Z</time>
      </trkpt>
      <trkpt lat="47.26131" lon="6.22875">
        <ele>413</ele>
        <time>2024-07-31T08:42:05Z</time>
      </trkpt>
      <trkpt lat="47.26134" lon="6.22879">
        <ele>413.4</ele>
        <time>2024-07-31T08:42:06Z</time>
      </trkpt>
      <trkpt lat="47.26137" lon="6.22883">
        <ele>413.8</ele>
        <time>2024-07-31T08:42:07Z</time>
      </trkpt>
      <trkpt lat="47.26141" lon="6.22887">
        <ele>413.8</ele>
        <time>2024-07-31T08:42:08Z</time>
      </trkpt>
      <trkpt lat="47.26144" lon="6.22891">
        <ele>413.6</ele>
        <time>2024-07-31T08:42:09Z</time>
      </trkpt>
      <trkpt lat="47.26147" lon="6.22895">
        <ele>413.6</ele>
        <time>2024-07-31T08:42:10Z</time>
      </trkpt>
      <trkpt lat="47.2615" lon="6.229">
        <ele>413.6</ele>
        <time>2024-07-31T08:42:11Z</time>
      </trkpt>
      <trkpt lat="47.26154" lon="6.22904">
        <ele>413.8</ele>
        <time>2024-07-31T08:42:12Z</time>
      </trkpt>
      <trkpt lat="47.26157" lon="6.22908">
        <ele>413.6</ele>
        <time>2024-07-31T08:42:13Z</time>
      </trkpt>
      <trkpt lat="47.26161" lon="6.22913">
        <ele>413.2</ele>
        <time>2024-07-31T08:42:14Z</time>
      </trkpt>
      <trkpt lat="47.26165" lon="6.22918">
        <ele>413.2</ele>
        <time>2024-07-31T08:42:15Z</time>
      </trkpt>
      <trkpt lat="47.26169" lon="6.22923">
        <ele>413</ele>
        <time>2024-07-31T08:42:16Z</time>
      </trkpt>
      <trkpt lat="47.26173" lon="6.22928">
        <ele>413</ele>
        <time>2024-07-31T08:42:17Z</time>
      </trkpt>
      <trkpt lat="47.26177" lon="6.22934">
        <ele>412.6</ele>
        <time>2024-07-31T08:42:18Z</time>
      </trkpt>
      <trkpt lat="47.26182" lon="6.2294">
        <ele>412.8</ele>
        <time>2024-07-31T08:42:19Z</time>
      </trkpt>
      <trkpt lat="47.26186" lon="6.22946">
        <ele>412.6</ele>
        <time>2024-07-31T08:42:20Z</time>
      </trkpt>
      <trkpt lat="47.26191" lon="6.22951">
        <ele>412.2</ele>
        <time>2024-07-31T08:42:21Z</time>
      </trkpt>
      <trkpt lat="47.26195" lon="6.22957">
        <ele>412.4</ele>
        <time>2024-07-31T08:42:22Z</time>
      </trkpt>
      <trkpt lat="47.262" lon="6.22964">
        <ele>412.4</ele>
        <time>2024-07-31T08:42:23Z</time>
      </trkpt>
      <trkpt lat="47.26205" lon="6.2297">
        <ele>412.2</ele>
        <time>2024-07-31T08:42:24Z</time>
      </trkpt>
      <trkpt lat="47.26209" lon="6.22976">
        <ele>412.2</ele>
        <time>2024-07-31T08:42:25Z</time>
      </trkpt>
      <trkpt lat="47.26214" lon="6.22982">
        <ele>412</ele>
        <time>2024-07-31T08:42:26Z</time>
      </trkpt>
      <trkpt lat="47.26219" lon="6.22988">
        <ele>411.8</ele>
        <time>2024-07-31T08:42:27Z</time>
      </trkpt>
      <trkpt lat="47.26224" lon="6.22994">
        <ele>411.8</ele>
        <time>2024-07-31T08:42:28Z</time>
      </trkpt>
      <trkpt lat="47.26229" lon="6.23001">
        <ele>411.8</ele>
        <time>2024-07-31T08:42:29Z</time>
      </trkpt>
      <trkpt lat="47.26234" lon="6.23008">
        <ele>411.2</ele>
        <time>2024-07-31T08:42:30Z</time>
      </trkpt>
      <trkpt lat="47.26239" lon="6.23014">
        <ele>411.4</ele>
        <time>2024-07-31T08:42:31Z</time>
      </trkpt>
      <trkpt lat="47.26244" lon="6.2302">
        <ele>411.2</ele>
        <time>2024-07-31T08:42:32Z</time>
      </trkpt>
      <trkpt lat="47.26249" lon="6.23027">
        <ele>411</ele>
        <time>2024-07-31T08:42:33Z</time>
      </trkpt>
      <trkpt lat="47.26254" lon="6.23033">
        <ele>411.2</ele>
        <time>2024-07-31T08:42:34Z</time>
      </trkpt>
      <trkpt lat="47.26259" lon="6.23039">
        <ele>411.2</ele>
        <time>2024-07-31T08:42:35Z</time>
      </trkpt>
      <trkpt lat="47.26263" lon="6.23045">
        <ele>411</ele>
        <time>2024-07-31T08:42:36Z</time>
      </trkpt>
      <trkpt lat="47.26267" lon="6.23052">
        <ele>411</ele>
        <time>2024-07-31T08:42:37Z</time>
      </trkpt>
      <trkpt lat="47.26271" lon="6.23059">
        <ele>411.2</ele>
        <time>2024-07-31T08:42:38Z</time>
      </trkpt>
      <trkpt lat="47.26275" lon="6.23067">
        <ele>411.2</ele>
        <time>2024-07-31T08:42:39Z</time>
      </trkpt>
      <trkpt lat="47.26278" lon="6.23074">
        <ele>411.2</ele>
        <time>2024-07-31T08:42:40Z</time>
      </trkpt>
      <trkpt lat="47.26281" lon="6.23082">
        <ele>411</ele>
        <time>2024-07-31T08:42:41Z</time>
      </trkpt>
      <trkpt lat="47.26284" lon="6.23089">
        <ele>411.2</ele>
        <time>2024-07-31T08:42:42Z</time>
      </trkpt>
      <trkpt lat="47.26287" lon="6.23097">
        <ele>411</ele>
        <time>2024-07-31T08:42:43Z</time>
      </trkpt>
      <trkpt lat="47.2629" lon="6.23105">
        <ele>411.2</ele>
        <time>2024-07-31T08:42:44Z</time>
      </trkpt>
      <trkpt lat="47.26292" lon="6.23112">
        <ele>411.2</ele>
        <time>2024-07-31T08:42:45Z</time>
      </trkpt>
      <trkpt lat="47.26295" lon="6.2312">
        <ele>411.4</ele>
        <time>2024-07-31T08:42:46Z</time>
      </trkpt>
      <trkpt lat="47.26298" lon="6.23127">
        <ele>411.4</ele>
        <time>2024-07-31T08:42:47Z</time>
      </trkpt>
      <trkpt lat="47.26301" lon="6.23135">
        <ele>411.4</ele>
        <time>2024-07-31T08:42:48Z</time>
      </trkpt>
      <trkpt lat="47.26305" lon="6.23143">
        <ele>411.2</ele>
        <time>2024-07-31T08:42:49Z</time>
      </trkpt>
      <trkpt lat="47.26308" lon="6.23151">
        <ele>411</ele>
        <time>2024-07-31T08:42:50Z</time>
      </trkpt>
      <trkpt lat="47.26311" lon="6.23159">
        <ele>410.8</ele>
        <time>2024-07-31T08:42:51Z</time>
      </trkpt>
      <trkpt lat="47.26314" lon="6.23168">
        <ele>411</ele>
        <time>2024-07-31T08:42:52Z</time>
      </trkpt>
      <trkpt lat="47.26318" lon="6.23177">
        <ele>410.6</ele>
        <time>2024-07-31T08:42:53Z</time>
      </trkpt>
      <trkpt lat="47.26321" lon="6.23185">
        <ele>410.2</ele>
        <time>2024-07-31T08:42:54Z</time>
      </trkpt>
      <trkpt lat="47.26324" lon="6.23194">
        <ele>410.2</ele>
        <time>2024-07-31T08:42:55Z</time>
      </trkpt>
      <trkpt lat="47.26328" lon="6.23203">
        <ele>409.6</ele>
        <time>2024-07-31T08:42:56Z</time>
      </trkpt>
      <trkpt lat="47.26331" lon="6.23213">
        <ele>409.4</ele>
        <time>2024-07-31T08:42:57Z</time>
      </trkpt>
      <trkpt lat="47.26335" lon="6.23222">
        <ele>409</ele>
        <time>2024-07-31T08:42:58Z</time>
      </trkpt>
      <trkpt lat="47.26338" lon="6.23232">
        <ele>408.8</ele>
        <time>2024-07-31T08:42:59Z</time>
      </trkpt>
      <trkpt lat="47.26342" lon="6.23242">
        <ele>408.4</ele>
        <time>2024-07-31T08:43:00Z</time>
      </trkpt>
      <trkpt lat="47.26346" lon="6.23253">
        <ele>408.4</ele>
        <time>2024-07-31T08:43:01Z</time>
      </trkpt>
      <trkpt lat="47.2635" lon="6.23263">
        <ele>407.8</ele>
        <time>2024-07-31T08:43:02Z</time>
      </trkpt>
      <trkpt lat="47.26354" lon="6.23273">
        <ele>407.6</ele>
        <time>2024-07-31T08:43:03Z</time>
      </trkpt>
      <trkpt lat="47.26358" lon="6.23284">
        <ele>407.4</ele>
        <time>2024-07-31T08:43:04Z</time>
      </trkpt>
      <trkpt lat="47.26362" lon="6.23295">
        <ele>407</ele>
        <time>2024-07-31T08:43:05Z</time>
      </trkpt>
      <trkpt lat="47.26366" lon="6.23305">
        <ele>406.8</ele>
        <time>2024-07-31T08:43:06Z</time>
      </trkpt>
      <trkpt lat="47.2637" lon="6.23316">
        <ele>406.2</ele>
        <time>2024-07-31T08:43:07Z</time>
      </trkpt>
      <trkpt lat="47.26375" lon="6.23327">
        <ele>405.8</ele>
        <time>2024-07-31T08:43:08Z</time>
      </trkpt>
      <trkpt lat="47.26378" lon="6.23338">
        <ele>405.6</ele>
        <time>2024-07-31T08:43:09Z</time>
      </trkpt>
      <trkpt lat="47.26382" lon="6.23349">
        <ele>405.4</ele>
        <time>2024-07-31T08:43:10Z</time>
      </trkpt>
      <trkpt lat="47.26386" lon="6.23359">
        <ele>405.4</ele>
        <time>2024-07-31T08:43:11Z</time>
      </trkpt>
      <trkpt lat="47.2639" lon="6.23369">
        <ele>405</ele>
        <time>2024-07-31T08:43:12Z</time>
      </trkpt>
      <trkpt lat="47.26394" lon="6.23379">
        <ele>405</ele>
        <time>2024-07-31T08:43:13Z</time>
      </trkpt>
      <trkpt lat="47.26398" lon="6.23389">
        <ele>404.8</ele>
        <time>2024-07-31T08:43:14Z</time>
      </trkpt>
      <trkpt lat="47.26401" lon="6.23399">
        <ele>405</ele>
        <time>2024-07-31T08:43:15Z</time>
      </trkpt>
      <trkpt lat="47.26405" lon="6.23408">
        <ele>404.4</ele>
        <time>2024-07-31T08:43:16Z</time>
      </trkpt>
      <trkpt lat="47.26408" lon="6.23417">
        <ele>404.4</ele>
        <time>2024-07-31T08:43:17Z</time>
      </trkpt>
      <trkpt lat="47.26412" lon="6.23426">
        <ele>404.2</ele>
        <time>2024-07-31T08:43:18Z</time>
      </trkpt>
      <trkpt lat="47.26415" lon="6.23435">
        <ele>404.2</ele>
        <time>2024-07-31T08:43:19Z</time>
      </trkpt>
      <trkpt lat="47.26417" lon="6.23444">
        <ele>403.8</ele>
        <time>2024-07-31T08:43:20Z</time>
      </trkpt>
      <trkpt lat="47.26418" lon="6.23454">
        <ele>403.8</ele>
        <time>2024-07-31T08:43:21Z</time>
      </trkpt>
      <trkpt lat="47.26419" lon="6.23464">
        <ele>403.6</ele>
        <time>2024-07-31T08:43:22Z</time>
      </trkpt>
      <trkpt lat="47.2642" lon="6.23473">
        <ele>403.6</ele>
        <time>2024-07-31T08:43:23Z</time>
      </trkpt>
      <trkpt lat="47.26422" lon="6.23481">
        <ele>403.6</ele>
        <time>2024-07-31T08:43:24Z</time>
      </trkpt>
      <trkpt lat="47.26426" lon="6.23488">
        <ele>403.4</ele>
        <time>2024-07-31T08:43:25Z</time>
      </trkpt>
      <trkpt lat="47.26431" lon="6.23494">
        <ele>402.6</ele>
        <time>2024-07-31T08:43:26Z</time>
      </trkpt>
      <trkpt lat="47.26437" lon="6.23498">
        <ele>402.6</ele>
        <time>2024-07-31T08:43:27Z</time>
      </trkpt>
      <trkpt lat="47.26443" lon="6.235">
        <ele>402</ele>
        <time>2024-07-31T08:43:28Z</time>
      </trkpt>
      <trkpt lat="47.26449" lon="6.23503">
        <ele>402.4</ele>
        <time>2024-07-31T08:43:29Z</time>
      </trkpt>
      <trkpt lat="47.26454" lon="6.23505">
        <ele>402.4</ele>
        <time>2024-07-31T08:43:30Z</time>
      </trkpt>
      <trkpt lat="47.2646" lon="6.23507">
        <ele>402.4</ele>
        <time>2024-07-31T08:43:31Z</time>
      </trkpt>
      <trkpt lat="47.26466" lon="6.23509">
        <ele>401.8</ele>
        <time>2024-07-31T08:43:32Z</time>
      </trkpt>
      <trkpt lat="47.26472" lon="6.2351">
        <ele>401.8</ele>
        <time>2024-07-31T08:43:33Z</time>
      </trkpt>
      <trkpt lat="47.26479" lon="6.23512">
        <ele>402</ele>
        <time>2024-07-31T08:43:34Z</time>
      </trkpt>
      <trkpt lat="47.26485" lon="6.23513">
        <ele>402.4</ele>
        <time>2024-07-31T08:43:35Z</time>
      </trkpt>
      <trkpt lat="47.26491" lon="6.23515">
        <ele>402.4</ele>
        <time>2024-07-31T08:43:36Z</time>
      </trkpt>
      <trkpt lat="47.26497" lon="6.23517">
        <ele>402.2</ele>
        <time>2024-07-31T08:43:37Z</time>
      </trkpt>
      <trkpt lat="47.26503" lon="6.23519">
        <ele>402.2</ele>
        <time>2024-07-31T08:43:38Z</time>
      </trkpt>
      <trkpt lat="47.26509" lon="6.23521">
        <ele>402.2</ele>
        <time>2024-07-31T08:43:39Z</time>
      </trkpt>
      <trkpt lat="47.26515" lon="6.23523">
        <ele>402.2</ele>
        <time>2024-07-31T08:43:40Z</time>
      </trkpt>
      <trkpt lat="47.26521" lon="6.23524">
        <ele>402</ele>
        <time>2024-07-31T08:43:41Z</time>
      </trkpt>
      <trkpt lat="47.26527" lon="6.23526">
        <ele>402</ele>
        <time>2024-07-31T08:43:42Z</time>
      </trkpt>
      <trkpt lat="47.26534" lon="6.23528">
        <ele>401.8</ele>
        <time>2024-07-31T08:43:43Z</time>
      </trkpt>
      <trkpt lat="47.2654" lon="6.2353">
        <ele>402</ele>
        <time>2024-07-31T08:43:44Z</time>
      </trkpt>
      <trkpt lat="47.26546" lon="6.23532">
        <ele>402</ele>
        <time>2024-07-31T08:43:45Z</time>
      </trkpt>
      <trkpt lat="47.26552" lon="6.23534">
        <ele>402</ele>
        <time>2024-07-31T08:43:46Z</time>
      </trkpt>
      <trkpt lat="47.26558" lon="6.23536">
        <ele>402</ele>
        <time>2024-07-31T08:43:47Z</time>
      </trkpt>
      <trkpt lat="47.26564" lon="6.23538">
        <ele>402</ele>
        <time>2024-07-31T08:43:48Z</time>
      </trkpt>
      <trkpt lat="47.2657" lon="6.23539">
        <ele>401.8</ele>
        <time>2024-07-31T08:43:49Z</time>
      </trkpt>
      <trkpt lat="47.26575" lon="6.23538">
        <ele>402</ele>
        <time>2024-07-31T08:43:50Z</time>
      </trkpt>
      <trkpt lat="47.26579" lon="6.23534">
        <ele>402.2</ele>
        <time>2024-07-31T08:43:51Z</time>
      </trkpt>
      <trkpt lat="47.26581" lon="6.2353">
        <ele>402.6</ele>
        <time>2024-07-31T08:43:52Z</time>
      </trkpt>
      <trkpt lat="47.26584" lon="6.23524">
        <ele>402</ele>
        <time>2024-07-31T08:43:53Z</time>
      </trkpt>
      <trkpt lat="47.26588" lon="6.2352">
        <ele>401.4</ele>
        <time>2024-07-31T08:43:54Z</time>
      </trkpt>
      <trkpt lat="47.26593" lon="6.23517">
        <ele>401.4</ele>
        <time>2024-07-31T08:43:55Z</time>
      </trkpt>
      <trkpt lat="47.26597" lon="6.23516">
        <ele>401.4</ele>
        <time>2024-07-31T08:43:56Z</time>
      </trkpt>
      <trkpt lat="47.26602" lon="6.23517">
        <ele>401.6</ele>
        <time>2024-07-31T08:43:57Z</time>
      </trkpt>
      <trkpt lat="47.26607" lon="6.23519">
        <ele>401.4</ele>
        <time>2024-07-31T08:43:58Z</time>
      </trkpt>
      <trkpt lat="47.26612" lon="6.23521">
        <ele>401.2</ele>
        <time>2024-07-31T08:43:59Z</time>
      </trkpt>
      <trkpt lat="47.26617" lon="6.23524">
        <ele>401.2</ele>
        <time>2024-07-31T08:44:00Z</time>
      </trkpt>
      <trkpt lat="47.26622" lon="6.23527">
        <ele>401.2</ele>
        <time>2024-07-31T08:44:01Z</time>
      </trkpt>
      <trkpt lat="47.26628" lon="6.23529">
        <ele>401.2</ele>
        <time>2024-07-31T08:44:02Z</time>
      </trkpt>
      <trkpt lat="47.26634" lon="6.2353">
        <ele>401</ele>
        <time>2024-07-31T08:44:03Z</time>
      </trkpt>
      <trkpt lat="47.26639" lon="6.23532">
        <ele>401</ele>
        <time>2024-07-31T08:44:04Z</time>
      </trkpt>
      <trkpt lat="47.26644" lon="6.23533">
        <ele>401</ele>
        <time>2024-07-31T08:44:05Z</time>
      </trkpt>
      <trkpt lat="47.2665" lon="6.23534">
        <ele>401.2</ele>
        <time>2024-07-31T08:44:06Z</time>
      </trkpt>
      <trkpt lat="47.26656" lon="6.23535">
        <ele>401.6</ele>
        <time>2024-07-31T08:44:07Z</time>
      </trkpt>
      <trkpt lat="47.26661" lon="6.23537">
        <ele>401.6</ele>
        <time>2024-07-31T08:44:08Z</time>
      </trkpt>
      <trkpt lat="47.26666" lon="6.23538">
        <ele>401.8</ele>
        <time>2024-07-31T08:44:09Z</time>
      </trkpt>
      <trkpt lat="47.26671" lon="6.2354">
        <ele>402</ele>
        <time>2024-07-31T08:44:10Z</time>
      </trkpt>
      <trkpt lat="47.26676" lon="6.23542">
        <ele>402</ele>
        <time>2024-07-31T08:44:11Z</time>
      </trkpt>
      <trkpt lat="47.2668" lon="6.23544">
        <ele>402</ele>
        <time>2024-07-31T08:44:12Z</time>
      </trkpt>
      <trkpt lat="47.26685" lon="6.23545">
        <ele>402.6</ele>
        <time>2024-07-31T08:44:13Z</time>
      </trkpt>
      <trkpt lat="47.26689" lon="6.23547">
        <ele>402.4</ele>
        <time>2024-07-31T08:44:14Z</time>
      </trkpt>
      <trkpt lat="47.26694" lon="6.23548">
        <ele>402.8</ele>
        <time>2024-07-31T08:44:15Z</time>
      </trkpt>
      <trkpt lat="47.26699" lon="6.23549">
        <ele>402.6</ele>
        <time>2024-07-31T08:44:16Z</time>
      </trkpt>
      <trkpt lat="47.26704" lon="6.2355">
        <ele>402.6</ele>
        <time>2024-07-31T08:44:17Z</time>
      </trkpt>
      <trkpt lat="47.26709" lon="6.23552">
        <ele>403.2</ele>
        <time>2024-07-31T08:44:18Z</time>
      </trkpt>
      <trkpt lat="47.26715" lon="6.23553">
        <ele>402.8</ele>
        <time>2024-07-31T08:44:19Z</time>
      </trkpt>
      <trkpt lat="47.2672" lon="6.23554">
        <ele>403</ele>
        <time>2024-07-31T08:44:20Z</time>
      </trkpt>
      <trkpt lat="47.26725" lon="6.23555">
        <ele>403.2</ele>
        <time>2024-07-31T08:44:21Z</time>
      </trkpt>
      <trkpt lat="47.2673" lon="6.23557">
        <ele>403.2</ele>
        <time>2024-07-31T08:44:22Z</time>
      </trkpt>
      <trkpt lat="47.26735" lon="6.23559">
        <ele>402.8</ele>
        <time>2024-07-31T08:44:23Z</time>
      </trkpt>
      <trkpt lat="47.26739" lon="6.23561">
        <ele>403</ele>
        <time>2024-07-31T08:44:24Z</time>
      </trkpt>
      <trkpt lat="47.26744" lon="6.23563">
        <ele>403.4</ele>
        <time>2024-07-31T08:44:25Z</time>
      </trkpt>
      <trkpt lat="47.26749" lon="6.23565">
        <ele>403.4</ele>
        <time>2024-07-31T08:44:26Z</time>
      </trkpt>
      <trkpt lat="47.26754" lon="6.23567">
        <ele>403.8</ele>
        <time>2024-07-31T08:44:27Z</time>
      </trkpt>
      <trkpt lat="47.26759" lon="6.23568">
        <ele>403.8</ele>
        <time>2024-07-31T08:44:28Z</time>
      </trkpt>
      <trkpt lat="47.26764" lon="6.23569">
        <ele>403.8</ele>
        <time>2024-07-31T08:44:29Z</time>
      </trkpt>
      <trkpt lat="47.2677" lon="6.23568">
        <ele>404</ele>
        <time>2024-07-31T08:44:30Z</time>
      </trkpt>
      <trkpt lat="47.26776" lon="6.23568">
        <ele>403.6</ele>
        <time>2024-07-31T08:44:31Z</time>
      </trkpt>
      <trkpt lat="47.26782" lon="6.23567">
        <ele>403.4</ele>
        <time>2024-07-31T08:44:32Z</time>
      </trkpt>
      <trkpt lat="47.26788" lon="6.23566">
        <ele>403.4</ele>
        <time>2024-07-31T08:44:33Z</time>
      </trkpt>
      <trkpt lat="47.26793" lon="6.23566">
        <ele>403.6</ele>
        <time>2024-07-31T08:44:34Z</time>
      </trkpt>
      <trkpt lat="47.26799" lon="6.23567">
        <ele>403.6</ele>
        <time>2024-07-31T08:44:35Z</time>
      </trkpt>
      <trkpt lat="47.26805" lon="6.23568">
        <ele>403.8</ele>
        <time>2024-07-31T08:44:36Z</time>
      </trkpt>
      <trkpt lat="47.2681" lon="6.2357">
        <ele>403.6</ele>
        <time>2024-07-31T08:44:37Z</time>
      </trkpt>
      <trkpt lat="47.26815" lon="6.23572">
        <ele>403.2</ele>
        <time>2024-07-31T08:44:38Z</time>
      </trkpt>
      <trkpt lat="47.26821" lon="6.23576">
        <ele>403.6</ele>
        <time>2024-07-31T08:44:39Z</time>
      </trkpt>
      <trkpt lat="47.26826" lon="6.23579">
        <ele>403.8</ele>
        <time>2024-07-31T08:44:40Z</time>
      </trkpt>
      <trkpt lat="47.26832" lon="6.23583">
        <ele>403.6</ele>
        <time>2024-07-31T08:44:41Z</time>
      </trkpt>
      <trkpt lat="47.26837" lon="6.23586">
        <ele>404</ele>
        <time>2024-07-31T08:44:42Z</time>
      </trkpt>
      <trkpt lat="47.26843" lon="6.2359">
        <ele>403.2</ele>
        <time>2024-07-31T08:44:43Z</time>
      </trkpt>
      <trkpt lat="47.26848" lon="6.23594">
        <ele>403</ele>
        <time>2024-07-31T08:44:44Z</time>
      </trkpt>
      <trkpt lat="47.26854" lon="6.23598">
        <ele>403.2</ele>
        <time>2024-07-31T08:44:45Z</time>
      </trkpt>
      <trkpt lat="47.26859" lon="6.23602">
        <ele>403</ele>
        <time>2024-07-31T08:44:46Z</time>
      </trkpt>
      <trkpt lat="47.26864" lon="6.23606">
        <ele>403</ele>
        <time>2024-07-31T08:44:47Z</time>
      </trkpt>
      <trkpt lat="47.2687" lon="6.23611">
        <ele>403</ele>
        <time>2024-07-31T08:44:48Z</time>
      </trkpt>
      <trkpt lat="47.26875" lon="6.23615">
        <ele>403</ele>
        <time>2024-07-31T08:44:49Z</time>
      </trkpt>
      <trkpt lat="47.26881" lon="6.23619">
        <ele>402</ele>
        <time>2024-07-31T08:44:50Z</time>
      </trkpt>
      <trkpt lat="47.26887" lon="6.23624">
        <ele>401.6</ele>
        <time>2024-07-31T08:44:51Z</time>
      </trkpt>
      <trkpt lat="47.26894" lon="6.23629">
        <ele>401.6</ele>
        <time>2024-07-31T08:44:52Z</time>
      </trkpt>
      <trkpt lat="47.269" lon="6.23633">
        <ele>402</ele>
        <time>2024-07-31T08:44:53Z</time>
      </trkpt>
      <trkpt lat="47.26907" lon="6.23636">
        <ele>400.8</ele>
        <time>2024-07-31T08:44:54Z</time>
      </trkpt>
      <trkpt lat="47.26914" lon="6.23639">
        <ele>400.4</ele>
        <time>2024-07-31T08:44:55Z</time>
      </trkpt>
      <trkpt lat="47.26922" lon="6.2364">
        <ele>400.2</ele>
        <time>2024-07-31T08:44:56Z</time>
      </trkpt>
      <trkpt lat="47.26929" lon="6.23641">
        <ele>400</ele>
        <time>2024-07-31T08:44:57Z</time>
      </trkpt>
      <trkpt lat="47.26936" lon="6.23642">
        <ele>399.6</ele>
        <time>2024-07-31T08:44:58Z</time>
      </trkpt>
      <trkpt lat="47.26944" lon="6.23642">
        <ele>399.6</ele>
        <time>2024-07-31T08:44:59Z</time>
      </trkpt>
      <trkpt lat="47.26951" lon="6.23643">
        <ele>399.4</ele>
        <time>2024-07-31T08:45:00Z</time>
      </trkpt>
      <trkpt lat="47.26958" lon="6.23644">
        <ele>399</ele>
        <time>2024-07-31T08:45:01Z</time>
      </trkpt>
      <trkpt lat="47.26965" lon="6.23645">
        <ele>399.4</ele>
        <time>2024-07-31T08:45:02Z</time>
      </trkpt>
      <trkpt lat="47.26972" lon="6.23645">
        <ele>399</ele>
        <time>2024-07-31T08:45:03Z</time>
      </trkpt>
      <trkpt lat="47.26979" lon="6.23646">
        <ele>399</ele>
        <time>2024-07-31T08:45:04Z</time>
      </trkpt>
      <trkpt lat="47.26985" lon="6.23648">
        <ele>398.6</ele>
        <time>2024-07-31T08:45:05Z</time>
      </trkpt>
      <trkpt lat="47.26991" lon="6.23651">
        <ele>398.8</ele>
        <time>2024-07-31T08:45:06Z</time>
      </trkpt>
      <trkpt lat="47.26996" lon="6.23657">
        <ele>398.8</ele>
        <time>2024-07-31T08:45:07Z</time>
      </trkpt>
      <trkpt lat="47.27" lon="6.23663">
        <ele>398.8</ele>
        <time>2024-07-31T08:45:08Z</time>
      </trkpt>
      <trkpt lat="47.27005" lon="6.2367">
        <ele>398.8</ele>
        <time>2024-07-31T08:45:09Z</time>
      </trkpt>
      <trkpt lat="47.2701" lon="6.23677">
        <ele>398.8</ele>
        <time>2024-07-31T08:45:10Z</time>
      </trkpt>
      <trkpt lat="47.27015" lon="6.23684">
        <ele>398.8</ele>
        <time>2024-07-31T08:45:11Z</time>
      </trkpt>
      <trkpt lat="47.27021" lon="6.2369">
        <ele>398.8</ele>
        <time>2024-07-31T08:45:12Z</time>
      </trkpt>
      <trkpt lat="47.27027" lon="6.23697">
        <ele>398.6</ele>
        <time>2024-07-31T08:45:13Z</time>
      </trkpt>
      <trkpt lat="47.27033" lon="6.23703">
        <ele>398.6</ele>
        <time>2024-07-31T08:45:14Z</time>
      </trkpt>
      <trkpt lat="47.27038" lon="6.23708">
        <ele>398.8</ele>
        <time>2024-07-31T08:45:15Z</time>
      </trkpt>
      <trkpt lat="47.27045" lon="6.23713">
        <ele>398.8</ele>
        <time>2024-07-31T08:45:16Z</time>
      </trkpt>
      <trkpt lat="47.27051" lon="6.23718">
        <ele>398.8</ele>
        <time>2024-07-31T08:45:17Z</time>
      </trkpt>
      <trkpt lat="47.27057" lon="6.23722">
        <ele>398.8</ele>
        <time>2024-07-31T08:45:18Z</time>
      </trkpt>
      <trkpt lat="47.27063" lon="6.23725">
        <ele>398.8</ele>
        <time>2024-07-31T08:45:19Z</time>
      </trkpt>
      <trkpt lat="47.2707" lon="6.23729">
        <ele>398.8</ele>
        <time>2024-07-31T08:45:20Z</time>
      </trkpt>
      <trkpt lat="47.27076" lon="6.23731">
        <ele>398.8</ele>
        <time>2024-07-31T08:45:21Z</time>
      </trkpt>
      <trkpt lat="47.27083" lon="6.23734">
        <ele>399</ele>
        <time>2024-07-31T08:45:22Z</time>
      </trkpt>
      <trkpt lat="47.27089" lon="6.23736">
        <ele>398.8</ele>
        <time>2024-07-31T08:45:23Z</time>
      </trkpt>
      <trkpt lat="47.27096" lon="6.23737">
        <ele>398.8</ele>
        <time>2024-07-31T08:45:24Z</time>
      </trkpt>
      <trkpt lat="47.27102" lon="6.23739">
        <ele>398.8</ele>
        <time>2024-07-31T08:45:25Z</time>
      </trkpt>
      <trkpt lat="47.27109" lon="6.23741">
        <ele>398.6</ele>
        <time>2024-07-31T08:45:26Z</time>
      </trkpt>
      <trkpt lat="47.27116" lon="6.23742">
        <ele>398.6</ele>
        <time>2024-07-31T08:45:27Z</time>
      </trkpt>
      <trkpt lat="47.27123" lon="6.23744">
        <ele>398.6</ele>
        <time>2024-07-31T08:45:28Z</time>
      </trkpt>
      <trkpt lat="47.2713" lon="6.23744">
        <ele>398.4</ele>
        <time>2024-07-31T08:45:29Z</time>
      </trkpt>
      <trkpt lat="47.27137" lon="6.23745">
        <ele>398.6</ele>
        <time>2024-07-31T08:45:30Z</time>
      </trkpt>
      <trkpt lat="47.27144" lon="6.23745">
        <ele>398.6</ele>
        <time>2024-07-31T08:45:31Z</time>
      </trkpt>
      <trkpt lat="47.27151" lon="6.23745">
        <ele>398.6</ele>
        <time>2024-07-31T08:45:32Z</time>
      </trkpt>
      <trkpt lat="47.27158" lon="6.23744">
        <ele>398.6</ele>
        <time>2024-07-31T08:45:33Z</time>
      </trkpt>
      <trkpt lat="47.27164" lon="6.23743">
        <ele>398.4</ele>
        <time>2024-07-31T08:45:34Z</time>
      </trkpt>
      <trkpt lat="47.27171" lon="6.23742">
        <ele>398.4</ele>
        <time>2024-07-31T08:45:35Z</time>
      </trkpt>
      <trkpt lat="47.27177" lon="6.2374">
        <ele>398.4</ele>
        <time>2024-07-31T08:45:36Z</time>
      </trkpt>
      <trkpt lat="47.27183" lon="6.23739">
        <ele>398.4</ele>
        <time>2024-07-31T08:45:37Z</time>
      </trkpt>
      <trkpt lat="47.27189" lon="6.23737">
        <ele>398.2</ele>
        <time>2024-07-31T08:45:38Z</time>
      </trkpt>
      <trkpt lat="47.27196" lon="6.23736">
        <ele>398.2</ele>
        <time>2024-07-31T08:45:39Z</time>
      </trkpt>
      <trkpt lat="47.27202" lon="6.23733">
        <ele>398.4</ele>
        <time>2024-07-31T08:45:40Z</time>
      </trkpt>
      <trkpt lat="47.27207" lon="6.23732">
        <ele>398.4</ele>
        <time>2024-07-31T08:45:41Z</time>
      </trkpt>
      <trkpt lat="47.27212" lon="6.23733">
        <ele>398.2</ele>
        <time>2024-07-31T08:45:42Z</time>
      </trkpt>
      <trkpt lat="47.27217" lon="6.23736">
        <ele>398.2</ele>
        <time>2024-07-31T08:45:43Z</time>
      </trkpt>
      <trkpt lat="47.2722" lon="6.23741">
        <ele>398.2</ele>
        <time>2024-07-31T08:45:44Z</time>
      </trkpt>
      <trkpt lat="47.27221" lon="6.23747">
        <ele>398.4</ele>
        <time>2024-07-31T08:45:45Z</time>
      </trkpt>
      <trkpt lat="47.27222" lon="6.23753">
        <ele>398.6</ele>
        <time>2024-07-31T08:45:46Z</time>
      </trkpt>
      <trkpt lat="47.27222" lon="6.23759">
        <ele>398.8</ele>
        <time>2024-07-31T08:45:47Z</time>
      </trkpt>
      <trkpt lat="47.27223" lon="6.23765">
        <ele>399</ele>
        <time>2024-07-31T08:45:48Z</time>
      </trkpt>
      <trkpt lat="47.27224" lon="6.2377">
        <ele>399.4</ele>
        <time>2024-07-31T08:45:49Z</time>
      </trkpt>
      <trkpt lat="47.27224" lon="6.23775">
        <ele>399.6</ele>
        <time>2024-07-31T08:45:50Z</time>
      </trkpt>
      <trkpt lat="47.27225" lon="6.2378">
        <ele>399.8</ele>
        <time>2024-07-31T08:45:51Z</time>
      </trkpt>
      <trkpt lat="47.27226" lon="6.23785">
        <ele>400.2</ele>
        <time>2024-07-31T08:45:52Z</time>
      </trkpt>
      <trkpt lat="47.27227" lon="6.23789">
        <ele>400.4</ele>
        <time>2024-07-31T08:45:53Z</time>
      </trkpt>
      <trkpt lat="47.27228" lon="6.23793">
        <ele>400.6</ele>
        <time>2024-07-31T08:45:54Z</time>
      </trkpt>
      <trkpt lat="47.27229" lon="6.23796">
        <ele>400.8</ele>
        <time>2024-07-31T08:45:55Z</time>
      </trkpt>
      <trkpt lat="47.2723" lon="6.238">
        <ele>401</ele>
        <time>2024-07-31T08:45:56Z</time>
      </trkpt>
      <trkpt lat="47.27232" lon="6.23802">
        <ele>401</ele>
        <time>2024-07-31T08:45:57Z</time>
      </trkpt>
      <trkpt lat="47.27234" lon="6.23803">
        <ele>401</ele>
        <time>2024-07-31T08:45:58Z</time>
      </trkpt>
      <trkpt lat="47.27237" lon="6.23802">
        <ele>401.4</ele>
        <time>2024-07-31T08:45:59Z</time>
      </trkpt>
      <trkpt lat="47.27239" lon="6.23801">
        <ele>401.8</ele>
        <time>2024-07-31T08:46:00Z</time>
      </trkpt>
      <trkpt lat="47.2724" lon="6.23798">
        <ele>401.8</ele>
        <time>2024-07-31T08:46:01Z</time>
      </trkpt>
      <trkpt lat="47.27242" lon="6.23795">
        <ele>402</ele>
        <time>2024-07-31T08:46:02Z</time>
      </trkpt>
      <trkpt lat="47.27244" lon="6.23792">
        <ele>402.2</ele>
        <time>2024-07-31T08:46:03Z</time>
      </trkpt>
      <trkpt lat="47.27246" lon="6.23789">
        <ele>402.4</ele>
        <time>2024-07-31T08:46:04Z</time>
      </trkpt>
      <trkpt lat="47.27248" lon="6.23784">
        <ele>402.4</ele>
        <time>2024-07-31T08:46:05Z</time>
      </trkpt>
      <trkpt lat="47.27249" lon="6.2378">
        <ele>402.4</ele>
        <time>2024-07-31T08:46:06Z</time>
      </trkpt>
      <trkpt lat="47.27251" lon="6.23776">
        <ele>402.4</ele>
        <time>2024-07-31T08:46:07Z</time>
      </trkpt>
      <trkpt lat="47.27253" lon="6.23771">
        <ele>402.4</ele>
        <time>2024-07-31T08:46:08Z</time>
      </trkpt>
      <trkpt lat="47.27255" lon="6.23766">
        <ele>402.6</ele>
        <time>2024-07-31T08:46:09Z</time>
      </trkpt>
      <trkpt lat="47.27257" lon="6.23761">
        <ele>402.6</ele>
        <time>2024-07-31T08:46:10Z</time>
      </trkpt>
      <trkpt lat="47.2726" lon="6.23756">
        <ele>402.4</ele>
        <time>2024-07-31T08:46:11Z</time>
      </trkpt>
      <trkpt lat="47.27263" lon="6.23751">
        <ele>402.6</ele>
        <time>2024-07-31T08:46:12Z</time>
      </trkpt>
      <trkpt lat="47.27266" lon="6.23746">
        <ele>402.6</ele>
        <time>2024-07-31T08:46:13Z</time>
      </trkpt>
      <trkpt lat="47.27269" lon="6.23742">
        <ele>402.8</ele>
        <time>2024-07-31T08:46:14Z</time>
      </trkpt>
      <trkpt lat="47.27273" lon="6.23738">
        <ele>403</ele>
        <time>2024-07-31T08:46:15Z</time>
      </trkpt>
      <trkpt lat="47.27276" lon="6.23735">
        <ele>403</ele>
        <time>2024-07-31T08:46:16Z</time>
      </trkpt>
      <trkpt lat="47.2728" lon="6.23734">
        <ele>403</ele>
        <time>2024-07-31T08:46:17Z</time>
      </trkpt>
      <trkpt lat="47.27285" lon="6.23733">
        <ele>403.2</ele>
        <time>2024-07-31T08:46:18Z</time>
      </trkpt>
      <trkpt lat="47.27289" lon="6.23733">
        <ele>403.4</ele>
        <time>2024-07-31T08:46:19Z</time>
      </trkpt>
      <trkpt lat="47.27292" lon="6.23733">
        <ele>403.4</ele>
        <time>2024-07-31T08:46:20Z</time>
      </trkpt>
      <trkpt lat="47.27297" lon="6.23735">
        <ele>403.4</ele>
        <time>2024-07-31T08:46:21Z</time>
      </trkpt>
      <trkpt lat="47.27301" lon="6.23737">
        <ele>403.8</ele>
        <time>2024-07-31T08:46:22Z</time>
      </trkpt>
      <trkpt lat="47.27305" lon="6.2374">
        <ele>403.8</ele>
        <time>2024-07-31T08:46:23Z</time>
      </trkpt>
      <trkpt lat="47.27309" lon="6.23742">
        <ele>403.8</ele>
        <time>2024-07-31T08:46:24Z</time>
      </trkpt>
      <trkpt lat="47.27313" lon="6.23745">
        <ele>404.2</ele>
        <time>2024-07-31T08:46:25Z</time>
      </trkpt>
      <trkpt lat="47.27318" lon="6.23747">
        <ele>404.2</ele>
        <time>2024-07-31T08:46:26Z</time>
      </trkpt>
      <trkpt lat="47.27322" lon="6.2375">
        <ele>404.6</ele>
        <time>2024-07-31T08:46:27Z</time>
      </trkpt>
      <trkpt lat="47.27326" lon="6.23752">
        <ele>404.8</ele>
        <time>2024-07-31T08:46:28Z</time>
      </trkpt>
      <trkpt lat="47.2733" lon="6.23755">
        <ele>404.8</ele>
        <time>2024-07-31T08:46:29Z</time>
      </trkpt>
      <trkpt lat="47.27333" lon="6.23757">
        <ele>405</ele>
        <time>2024-07-31T08:46:30Z</time>
      </trkpt>
      <trkpt lat="47.27337" lon="6.2376">
        <ele>405.2</ele>
        <time>2024-07-31T08:46:31Z</time>
      </trkpt>
      <trkpt lat="47.27341" lon="6.23762">
        <ele>405.2</ele>
        <time>2024-07-31T08:46:32Z</time>
      </trkpt>
      <trkpt lat="47.27345" lon="6.23765">
        <ele>405.2</ele>
        <time>2024-07-31T08:46:33Z</time>
      </trkpt>
      <trkpt lat="47.27349" lon="6.23767">
        <ele>405.2</ele>
        <time>2024-07-31T08:46:34Z</time>
      </trkpt>
      <trkpt lat="47.27353" lon="6.2377">
        <ele>405.4</ele>
        <time>2024-07-31T08:46:35Z</time>
      </trkpt>
      <trkpt lat="47.27358" lon="6.23773">
        <ele>405.6</ele>
        <time>2024-07-31T08:46:36Z</time>
      </trkpt>
      <trkpt lat="47.27362" lon="6.23775">
        <ele>405.8</ele>
        <time>2024-07-31T08:46:37Z</time>
      </trkpt>
      <trkpt lat="47.27366" lon="6.23778">
        <ele>405.8</ele>
        <time>2024-07-31T08:46:38Z</time>
      </trkpt>
      <trkpt lat="47.2737" lon="6.2378">
        <ele>405.8</ele>
        <time>2024-07-31T08:46:39Z</time>
      </trkpt>
      <trkpt lat="47.27375" lon="6.23782">
        <ele>405.8</ele>
        <time>2024-07-31T08:46:40Z</time>
      </trkpt>
      <trkpt lat="47.27379" lon="6.23784">
        <ele>405.6</ele>
        <time>2024-07-31T08:46:41Z</time>
      </trkpt>
      <trkpt lat="47.27384" lon="6.23787">
        <ele>405.6</ele>
        <time>2024-07-31T08:46:42Z</time>
      </trkpt>
      <trkpt lat="47.27389" lon="6.23789">
        <ele>405.4</ele>
        <time>2024-07-31T08:46:43Z</time>
      </trkpt>
      <trkpt lat="47.27394" lon="6.23791">
        <ele>405.4</ele>
        <time>2024-07-31T08:46:44Z</time>
      </trkpt>
      <trkpt lat="47.274" lon="6.23794">
        <ele>405</ele>
        <time>2024-07-31T08:46:45Z</time>
      </trkpt>
      <trkpt lat="47.27405" lon="6.23797">
        <ele>404.8</ele>
        <time>2024-07-31T08:46:46Z</time>
      </trkpt>
      <trkpt lat="47.27411" lon="6.238">
        <ele>404</ele>
        <time>2024-07-31T08:46:47Z</time>
      </trkpt>
      <trkpt lat="47.27418" lon="6.23802">
        <ele>404</ele>
        <time>2024-07-31T08:46:48Z</time>
      </trkpt>
      <trkpt lat="47.27424" lon="6.23805">
        <ele>404</ele>
        <time>2024-07-31T08:46:49Z</time>
      </trkpt>
      <trkpt lat="47.27431" lon="6.23808">
        <ele>403.6</ele>
        <time>2024-07-31T08:46:50Z</time>
      </trkpt>
      <trkpt lat="47.27437" lon="6.23811">
        <ele>403.8</ele>
        <time>2024-07-31T08:46:51Z</time>
      </trkpt>
      <trkpt lat="47.27443" lon="6.23814">
        <ele>403.8</ele>
        <time>2024-07-31T08:46:52Z</time>
      </trkpt>
      <trkpt lat="47.27448" lon="6.23817">
        <ele>404</ele>
        <time>2024-07-31T08:46:53Z</time>
      </trkpt>
      <trkpt lat="47.27454" lon="6.2382">
        <ele>403.2</ele>
        <time>2024-07-31T08:46:54Z</time>
      </trkpt>
      <trkpt lat="47.2746" lon="6.23822">
        <ele>403.4</ele>
        <time>2024-07-31T08:46:55Z</time>
      </trkpt>
      <trkpt lat="47.27465" lon="6.23825">
        <ele>403.6</ele>
        <time>2024-07-31T08:46:56Z</time>
      </trkpt>
      <trkpt lat="47.2747" lon="6.23827">
        <ele>403.6</ele>
        <time>2024-07-31T08:46:57Z</time>
      </trkpt>
      <trkpt lat="47.27475" lon="6.23829">
        <ele>404</ele>
        <time>2024-07-31T08:46:58Z</time>
      </trkpt>
      <trkpt lat="47.2748" lon="6.23832">
        <ele>404</ele>
        <time>2024-07-31T08:46:59Z</time>
      </trkpt>
      <trkpt lat="47.27485" lon="6.23834">
        <ele>404</ele>
        <time>2024-07-31T08:47:00Z</time>
      </trkpt>
      <trkpt lat="47.27489" lon="6.23836">
        <ele>403.6</ele>
        <time>2024-07-31T08:47:01Z</time>
      </trkpt>
      <trkpt lat="47.27494" lon="6.23838">
        <ele>403.8</ele>
        <time>2024-07-31T08:47:02Z</time>
      </trkpt>
      <trkpt lat="47.27499" lon="6.2384">
        <ele>404.2</ele>
        <time>2024-07-31T08:47:03Z</time>
      </trkpt>
      <trkpt lat="47.27503" lon="6.23842">
        <ele>404.2</ele>
        <time>2024-07-31T08:47:04Z</time>
      </trkpt>
      <trkpt lat="47.27507" lon="6.23844">
        <ele>404</ele>
        <time>2024-07-31T08:47:05Z</time>
      </trkpt>
      <trkpt lat="47.27511" lon="6.23845">
        <ele>404.4</ele>
        <time>2024-07-31T08:47:06Z</time>
      </trkpt>
      <trkpt lat="47.27516" lon="6.23847">
        <ele>404.4</ele>
        <time>2024-07-31T08:47:07Z</time>
      </trkpt>
      <trkpt lat="47.2752" lon="6.23849">
        <ele>404.4</ele>
        <time>2024-07-31T08:47:08Z</time>
      </trkpt>
      <trkpt lat="47.27524" lon="6.2385">
        <ele>404.6</ele>
        <time>2024-07-31T08:47:09Z</time>
      </trkpt>
      <trkpt lat="47.27528" lon="6.23852">
        <ele>404.8</ele>
        <time>2024-07-31T08:47:10Z</time>
      </trkpt>
      <trkpt lat="47.27532" lon="6.23854">
        <ele>405</ele>
        <time>2024-07-31T08:47:11Z</time>
      </trkpt>
      <trkpt lat="47.27536" lon="6.23856">
        <ele>405</ele>
        <time>2024-07-31T08:47:12Z</time>
      </trkpt>
      <trkpt lat="47.2754" lon="6.23857">
        <ele>404.8</ele>
        <time>2024-07-31T08:47:13Z</time>
      </trkpt>
      <trkpt lat="47.27544" lon="6.23859">
        <ele>405.2</ele>
        <time>2024-07-31T08:47:14Z</time>
      </trkpt>
      <trkpt lat="47.27548" lon="6.23861">
        <ele>405.6</ele>
        <time>2024-07-31T08:47:15Z</time>
      </trkpt>
      <trkpt lat="47.27552" lon="6.23862">
        <ele>405.4</ele>
        <time>2024-07-31T08:47:16Z</time>
      </trkpt>
      <trkpt lat="47.27556" lon="6.23864">
        <ele>405.8</ele>
        <time>2024-07-31T08:47:17Z</time>
      </trkpt>
      <trkpt lat="47.2756" lon="6.23866">
        <ele>405.6</ele>
        <time>2024-07-31T08:47:18Z</time>
      </trkpt>
      <trkpt lat="47.27565" lon="6.23868">
        <ele>405.6</ele>
        <time>2024-07-31T08:47:19Z</time>
      </trkpt>
      <trkpt lat="47.27569" lon="6.2387">
        <ele>405.8</ele>
        <time>2024-07-31T08:47:20Z</time>
      </trkpt>
      <trkpt lat="47.27573" lon="6.23872">
        <ele>405.6</ele>
        <time>2024-07-31T08:47:21Z</time>
      </trkpt>
      <trkpt lat="47.27577" lon="6.23874">
        <ele>405.8</ele>
        <time>2024-07-31T08:47:22Z</time>
      </trkpt>
      <trkpt lat="47.27582" lon="6.23875">
        <ele>405.8</ele>
        <time>2024-07-31T08:47:23Z</time>
      </trkpt>
      <trkpt lat="47.27586" lon="6.23877">
        <ele>406</ele>
        <time>2024-07-31T08:47:24Z</time>
      </trkpt>
      <trkpt lat="47.27591" lon="6.23879">
        <ele>405.8</ele>
        <time>2024-07-31T08:47:25Z</time>
      </trkpt>
      <trkpt lat="47.27595" lon="6.23881">
        <ele>405.8</ele>
        <time>2024-07-31T08:47:26Z</time>
      </trkpt>
      <trkpt lat="47.276" lon="6.23884">
        <ele>405.8</ele>
        <time>2024-07-31T08:47:27Z</time>
      </trkpt>
      <trkpt lat="47.27605" lon="6.23886">
        <ele>405.2</ele>
        <time>2024-07-31T08:47:28Z</time>
      </trkpt>
      <trkpt lat="47.27611" lon="6.23889">
        <ele>405</ele>
        <time>2024-07-31T08:47:29Z</time>
      </trkpt>
      <trkpt lat="47.27616" lon="6.23892">
        <ele>405.4</ele>
        <time>2024-07-31T08:47:30Z</time>
      </trkpt>
      <trkpt lat="47.27622" lon="6.23895">
        <ele>405.4</ele>
        <time>2024-07-31T08:47:31Z</time>
      </trkpt>
      <trkpt lat="47.27629" lon="6.23899">
        <ele>405.2</ele>
        <time>2024-07-31T08:47:32Z</time>
      </trkpt>
      <trkpt lat="47.27635" lon="6.23903">
        <ele>404.2</ele>
        <time>2024-07-31T08:47:33Z</time>
      </trkpt>
      <trkpt lat="47.27641" lon="6.23907">
        <ele>404.2</ele>
        <time>2024-07-31T08:47:34Z</time>
      </trkpt>
      <trkpt lat="47.27648" lon="6.23911">
        <ele>404</ele>
        <time>2024-07-31T08:47:35Z</time>
      </trkpt>
      <trkpt lat="47.27654" lon="6.23915">
        <ele>403.2</ele>
        <time>2024-07-31T08:47:36Z</time>
      </trkpt>
      <trkpt lat="47.27661" lon="6.23919">
        <ele>403.8</ele>
        <time>2024-07-31T08:47:37Z</time>
      </trkpt>
      <trkpt lat="47.27668" lon="6.23924">
        <ele>402.4</ele>
        <time>2024-07-31T08:47:38Z</time>
      </trkpt>
      <trkpt lat="47.27675" lon="6.23928">
        <ele>402.6</ele>
        <time>2024-07-31T08:47:39Z</time>
      </trkpt>
      <trkpt lat="47.27682" lon="6.23933">
        <ele>402.4</ele>
        <time>2024-07-31T08:47:40Z</time>
      </trkpt>
      <trkpt lat="47.27689" lon="6.23937">
        <ele>402</ele>
        <time>2024-07-31T08:47:41Z</time>
      </trkpt>
      <trkpt lat="47.27696" lon="6.23942">
        <ele>401.6</ele>
        <time>2024-07-31T08:47:42Z</time>
      </trkpt>
      <trkpt lat="47.27703" lon="6.23946">
        <ele>401.4</ele>
        <time>2024-07-31T08:47:43Z</time>
      </trkpt>
      <trkpt lat="47.2771" lon="6.23951">
        <ele>401</ele>
        <time>2024-07-31T08:47:44Z</time>
      </trkpt>
      <trkpt lat="47.27717" lon="6.23955">
        <ele>400.2</ele>
        <time>2024-07-31T08:47:45Z</time>
      </trkpt>
      <trkpt lat="47.27724" lon="6.2396">
        <ele>400.2</ele>
        <time>2024-07-31T08:47:46Z</time>
      </trkpt>
      <trkpt lat="47.27731" lon="6.23964">
        <ele>400</ele>
        <time>2024-07-31T08:47:47Z</time>
      </trkpt>
      <trkpt lat="47.27737" lon="6.23969">
        <ele>400</ele>
        <time>2024-07-31T08:47:48Z</time>
      </trkpt>
      <trkpt lat="47.27744" lon="6.23974">
        <ele>399.8</ele>
        <time>2024-07-31T08:47:49Z</time>
      </trkpt>
      <trkpt lat="47.27751" lon="6.23978">
        <ele>399.2</ele>
        <time>2024-07-31T08:47:50Z</time>
      </trkpt>
      <trkpt lat="47.27758" lon="6.23983">
        <ele>398.8</ele>
        <time>2024-07-31T08:47:51Z</time>
      </trkpt>
      <trkpt lat="47.27764" lon="6.23987">
        <ele>398.8</ele>
        <time>2024-07-31T08:47:52Z</time>
      </trkpt>
      <trkpt lat="47.27771" lon="6.23992">
        <ele>398.6</ele>
        <time>2024-07-31T08:47:53Z</time>
      </trkpt>
      <trkpt lat="47.27777" lon="6.23996">
        <ele>398.6</ele>
        <time>2024-07-31T08:47:54Z</time>
      </trkpt>
      <trkpt lat="47.27782" lon="6.24">
        <ele>398.4</ele>
        <time>2024-07-31T08:47:55Z</time>
      </trkpt>
      <trkpt lat="47.27788" lon="6.24003">
        <ele>398.8</ele>
        <time>2024-07-31T08:47:56Z</time>
      </trkpt>
      <trkpt lat="47.27792" lon="6.24007">
        <ele>398.4</ele>
        <time>2024-07-31T08:47:57Z</time>
      </trkpt>
      <trkpt lat="47.27796" lon="6.24011">
        <ele>398.8</ele>
        <time>2024-07-31T08:47:58Z</time>
      </trkpt>
      <trkpt lat="47.278" lon="6.24016">
        <ele>399.4</ele>
        <time>2024-07-31T08:47:59Z</time>
      </trkpt>
      <trkpt lat="47.27803" lon="6.2402">
        <ele>399.8</ele>
        <time>2024-07-31T08:48:00Z</time>
      </trkpt>
      <trkpt lat="47.27806" lon="6.24025">
        <ele>399.8</ele>
        <time>2024-07-31T08:48:01Z</time>
      </trkpt>
      <trkpt lat="47.27809" lon="6.24029">
        <ele>400.2</ele>
        <time>2024-07-31T08:48:02Z</time>
      </trkpt>
      <trkpt lat="47.27812" lon="6.24033">
        <ele>400.6</ele>
        <time>2024-07-31T08:48:03Z</time>
      </trkpt>
      <trkpt lat="47.27815" lon="6.24037">
        <ele>400.8</ele>
        <time>2024-07-31T08:48:04Z</time>
      </trkpt>
      <trkpt lat="47.27818" lon="6.24041">
        <ele>401</ele>
        <time>2024-07-31T08:48:05Z</time>
      </trkpt>
      <trkpt lat="47.2782" lon="6.24045">
        <ele>401.4</ele>
        <time>2024-07-31T08:48:06Z</time>
      </trkpt>
      <trkpt lat="47.27823" lon="6.24049">
        <ele>401.6</ele>
        <time>2024-07-31T08:48:07Z</time>
      </trkpt>
      <trkpt lat="47.27826" lon="6.24053">
        <ele>402</ele>
        <time>2024-07-31T08:48:08Z</time>
      </trkpt>
      <trkpt lat="47.27828" lon="6.24058">
        <ele>402</ele>
        <time>2024-07-31T08:48:09Z</time>
      </trkpt>
      <trkpt lat="47.27831" lon="6.24062">
        <ele>402</ele>
        <time>2024-07-31T08:48:10Z</time>
      </trkpt>
      <trkpt lat="47.27834" lon="6.24066">
        <ele>401.8</ele>
        <time>2024-07-31T08:48:11Z</time>
      </trkpt>
      <trkpt lat="47.27838" lon="6.2407">
        <ele>402</ele>
        <time>2024-07-31T08:48:12Z</time>
      </trkpt>
      <trkpt lat="47.27842" lon="6.24074">
        <ele>402</ele>
        <time>2024-07-31T08:48:13Z</time>
      </trkpt>
      <trkpt lat="47.27845" lon="6.24079">
        <ele>402</ele>
        <time>2024-07-31T08:48:14Z</time>
      </trkpt>
      <trkpt lat="47.27849" lon="6.24083">
        <ele>402</ele>
        <time>2024-07-31T08:48:15Z</time>
      </trkpt>
      <trkpt lat="47.27853" lon="6.24087">
        <ele>402.4</ele>
        <time>2024-07-31T08:48:16Z</time>
      </trkpt>
      <trkpt lat="47.27857" lon="6.24091">
        <ele>402.4</ele>
        <time>2024-07-31T08:48:17Z</time>
      </trkpt>
      <trkpt lat="47.27861" lon="6.24095">
        <ele>402.4</ele>
        <time>2024-07-31T08:48:18Z</time>
      </trkpt>
      <trkpt lat="47.27865" lon="6.24099">
        <ele>402.6</ele>
        <time>2024-07-31T08:48:19Z</time>
      </trkpt>
      <trkpt lat="47.27869" lon="6.24102">
        <ele>402.4</ele>
        <time>2024-07-31T08:48:20Z</time>
      </trkpt>
      <trkpt lat="47.27873" lon="6.24107">
        <ele>402.4</ele>
        <time>2024-07-31T08:48:21Z</time>
      </trkpt>
      <trkpt lat="47.27877" lon="6.24111">
        <ele>402.4</ele>
        <time>2024-07-31T08:48:22Z</time>
      </trkpt>
      <trkpt lat="47.2788" lon="6.24115">
        <ele>402.4</ele>
        <time>2024-07-31T08:48:23Z</time>
      </trkpt>
      <trkpt lat="47.27884" lon="6.24119">
        <ele>402.2</ele>
        <time>2024-07-31T08:48:24Z</time>
      </trkpt>
      <trkpt lat="47.27887" lon="6.24124">
        <ele>401.6</ele>
        <time>2024-07-31T08:48:25Z</time>
      </trkpt>
      <trkpt lat="47.2789" lon="6.24128">
        <ele>402</ele>
        <time>2024-07-31T08:48:26Z</time>
      </trkpt>
      <trkpt lat="47.27894" lon="6.24133">
        <ele>402.2</ele>
        <time>2024-07-31T08:48:27Z</time>
      </trkpt>
      <trkpt lat="47.27897" lon="6.24137">
        <ele>402.6</ele>
        <time>2024-07-31T08:48:28Z</time>
      </trkpt>
      <trkpt lat="47.27901" lon="6.24142">
        <ele>402.2</ele>
        <time>2024-07-31T08:48:29Z</time>
      </trkpt>
      <trkpt lat="47.27905" lon="6.24146">
        <ele>402.2</ele>
        <time>2024-07-31T08:48:30Z</time>
      </trkpt>
      <trkpt lat="47.27908" lon="6.24151">
        <ele>402.2</ele>
        <time>2024-07-31T08:48:31Z</time>
      </trkpt>
      <trkpt lat="47.27911" lon="6.24157">
        <ele>402.2</ele>
        <time>2024-07-31T08:48:32Z</time>
      </trkpt>
      <trkpt lat="47.27915" lon="6.24162">
        <ele>402.2</ele>
        <time>2024-07-31T08:48:33Z</time>
      </trkpt>
      <trkpt lat="47.27918" lon="6.24167">
        <ele>402.2</ele>
        <time>2024-07-31T08:48:34Z</time>
      </trkpt>
      <trkpt lat="47.27921" lon="6.24172">
        <ele>402</ele>
        <time>2024-07-31T08:48:35Z</time>
      </trkpt>
      <trkpt lat="47.27924" lon="6.24178">
        <ele>401.8</ele>
        <time>2024-07-31T08:48:36Z</time>
      </trkpt>
      <trkpt lat="47.27927" lon="6.24183">
        <ele>401</ele>
        <time>2024-07-31T08:48:37Z</time>
      </trkpt>
      <trkpt lat="47.2793" lon="6.24189">
        <ele>401.4</ele>
        <time>2024-07-31T08:48:38Z</time>
      </trkpt>
      <trkpt lat="47.27934" lon="6.24195">
        <ele>401.6</ele>
        <time>2024-07-31T08:48:39Z</time>
      </trkpt>
      <trkpt lat="47.27937" lon="6.24202">
        <ele>401.6</ele>
        <time>2024-07-31T08:48:40Z</time>
      </trkpt>
      <trkpt lat="47.27939" lon="6.2421">
        <ele>401.2</ele>
        <time>2024-07-31T08:48:41Z</time>
      </trkpt>
      <trkpt lat="47.27941" lon="6.24217">
        <ele>401.2</ele>
        <time>2024-07-31T08:48:42Z</time>
      </trkpt>
      <trkpt lat="47.27943" lon="6.24225">
        <ele>401</ele>
        <time>2024-07-31T08:48:43Z</time>
      </trkpt>
      <trkpt lat="47.27944" lon="6.24233">
        <ele>401.4</ele>
        <time>2024-07-31T08:48:44Z</time>
      </trkpt>
      <trkpt lat="47.27945" lon="6.24241">
        <ele>401.2</ele>
        <time>2024-07-31T08:48:45Z</time>
      </trkpt>
      <trkpt lat="47.27945" lon="6.24249">
        <ele>401.2</ele>
        <time>2024-07-31T08:48:46Z</time>
      </trkpt>
      <trkpt lat="47.27946" lon="6.24257">
        <ele>401</ele>
        <time>2024-07-31T08:48:47Z</time>
      </trkpt>
      <trkpt lat="47.27946" lon="6.24265">
        <ele>401</ele>
        <time>2024-07-31T08:48:48Z</time>
      </trkpt>
      <trkpt lat="47.27946" lon="6.24272">
        <ele>401</ele>
        <time>2024-07-31T08:48:49Z</time>
      </trkpt>
      <trkpt lat="47.27946" lon="6.2428">
        <ele>401</ele>
        <time>2024-07-31T08:48:50Z</time>
      </trkpt>
      <trkpt lat="47.27946" lon="6.24288">
        <ele>401.2</ele>
        <time>2024-07-31T08:48:51Z</time>
      </trkpt>
      <trkpt lat="47.27946" lon="6.24295">
        <ele>401</ele>
        <time>2024-07-31T08:48:52Z</time>
      </trkpt>
      <trkpt lat="47.27946" lon="6.24302">
        <ele>401.2</ele>
        <time>2024-07-31T08:48:53Z</time>
      </trkpt>
      <trkpt lat="47.27945" lon="6.24309">
        <ele>401.2</ele>
        <time>2024-07-31T08:48:54Z</time>
      </trkpt>
      <trkpt lat="47.27945" lon="6.24316">
        <ele>401.4</ele>
        <time>2024-07-31T08:48:55Z</time>
      </trkpt>
      <trkpt lat="47.27945" lon="6.24323">
        <ele>401.6</ele>
        <time>2024-07-31T08:48:56Z</time>
      </trkpt>
      <trkpt lat="47.27944" lon="6.2433">
        <ele>401.8</ele>
        <time>2024-07-31T08:48:57Z</time>
      </trkpt>
      <trkpt lat="47.27944" lon="6.24337">
        <ele>402</ele>
        <time>2024-07-31T08:48:58Z</time>
      </trkpt>
      <trkpt lat="47.27944" lon="6.24344">
        <ele>402.6</ele>
        <time>2024-07-31T08:48:59Z</time>
      </trkpt>
      <trkpt lat="47.27944" lon="6.2435">
        <ele>402.4</ele>
        <time>2024-07-31T08:49:00Z</time>
      </trkpt>
      <trkpt lat="47.27943" lon="6.24357">
        <ele>402.8</ele>
        <time>2024-07-31T08:49:01Z</time>
      </trkpt>
      <trkpt lat="47.27943" lon="6.24363">
        <ele>402.8</ele>
        <time>2024-07-31T08:49:02Z</time>
      </trkpt>
      <trkpt lat="47.27942" lon="6.2437">
        <ele>402.6</ele>
        <time>2024-07-31T08:49:03Z</time>
      </trkpt>
      <trkpt lat="47.27942" lon="6.24376">
        <ele>402.8</ele>
        <time>2024-07-31T08:49:04Z</time>
      </trkpt>
      <trkpt lat="47.27942" lon="6.24382">
        <ele>403.6</ele>
        <time>2024-07-31T08:49:05Z</time>
      </trkpt>
      <trkpt lat="47.27942" lon="6.24387">
        <ele>404</ele>
        <time>2024-07-31T08:49:06Z</time>
      </trkpt>
      <trkpt lat="47.27943" lon="6.24392">
        <ele>404.4</ele>
        <time>2024-07-31T08:49:07Z</time>
      </trkpt>
      <trkpt lat="47.27944" lon="6.24397">
        <ele>404.8</ele>
        <time>2024-07-31T08:49:08Z</time>
      </trkpt>
      <trkpt lat="47.27947" lon="6.244">
        <ele>404.8</ele>
        <time>2024-07-31T08:49:09Z</time>
      </trkpt>
      <trkpt lat="47.2795" lon="6.24403">
        <ele>404.8</ele>
        <time>2024-07-31T08:49:10Z</time>
      </trkpt>
      <trkpt lat="47.27954" lon="6.24404">
        <ele>404.8</ele>
        <time>2024-07-31T08:49:11Z</time>
      </trkpt>
      <trkpt lat="47.27958" lon="6.24405">
        <ele>404.8</ele>
        <time>2024-07-31T08:49:12Z</time>
      </trkpt>
      <trkpt lat="47.27962" lon="6.24407">
        <ele>404.6</ele>
        <time>2024-07-31T08:49:13Z</time>
      </trkpt>
      <trkpt lat="47.27967" lon="6.24408">
        <ele>404.8</ele>
        <time>2024-07-31T08:49:14Z</time>
      </trkpt>
      <trkpt lat="47.27971" lon="6.2441">
        <ele>404.8</ele>
        <time>2024-07-31T08:49:15Z</time>
      </trkpt>
      <trkpt lat="47.27976" lon="6.24411">
        <ele>404.8</ele>
        <time>2024-07-31T08:49:16Z</time>
      </trkpt>
      <trkpt lat="47.27981" lon="6.24412">
        <ele>404.8</ele>
        <time>2024-07-31T08:49:17Z</time>
      </trkpt>
      <trkpt lat="47.27986" lon="6.24413">
        <ele>404.8</ele>
        <time>2024-07-31T08:49:18Z</time>
      </trkpt>
      <trkpt lat="47.27991" lon="6.24414">
        <ele>405</ele>
        <time>2024-07-31T08:49:19Z</time>
      </trkpt>
      <trkpt lat="47.27996" lon="6.24414">
        <ele>404.8</ele>
        <time>2024-07-31T08:49:20Z</time>
      </trkpt>
      <trkpt lat="47.28001" lon="6.24415">
        <ele>405.2</ele>
        <time>2024-07-31T08:49:21Z</time>
      </trkpt>
      <trkpt lat="47.28006" lon="6.24416">
        <ele>405.2</ele>
        <time>2024-07-31T08:49:22Z</time>
      </trkpt>
      <trkpt lat="47.28011" lon="6.24416">
        <ele>405.4</ele>
        <time>2024-07-31T08:49:23Z</time>
      </trkpt>
      <trkpt lat="47.28017" lon="6.24417">
        <ele>405.4</ele>
        <time>2024-07-31T08:49:24Z</time>
      </trkpt>
      <trkpt lat="47.28022" lon="6.24418">
        <ele>405.6</ele>
        <time>2024-07-31T08:49:25Z</time>
      </trkpt>
      <trkpt lat="47.28027" lon="6.24418">
        <ele>405.6</ele>
        <time>2024-07-31T08:49:26Z</time>
      </trkpt>
      <trkpt lat="47.28032" lon="6.24419">
        <ele>405.6</ele>
        <time>2024-07-31T08:49:27Z</time>
      </trkpt>
      <trkpt lat="47.28037" lon="6.2442">
        <ele>405.8</ele>
        <time>2024-07-31T08:49:28Z</time>
      </trkpt>
      <trkpt lat="47.28043" lon="6.2442">
        <ele>405.8</ele>
        <time>2024-07-31T08:49:29Z</time>
      </trkpt>
      <trkpt lat="47.28048" lon="6.24421">
        <ele>406</ele>
        <time>2024-07-31T08:49:30Z</time>
      </trkpt>
      <trkpt lat="47.28053" lon="6.24422">
        <ele>406</ele>
        <time>2024-07-31T08:49:31Z</time>
      </trkpt>
      <trkpt lat="47.28058" lon="6.24423">
        <ele>406</ele>
        <time>2024-07-31T08:49:32Z</time>
      </trkpt>
      <trkpt lat="47.28064" lon="6.24424">
        <ele>406</ele>
        <time>2024-07-31T08:49:33Z</time>
      </trkpt>
      <trkpt lat="47.28069" lon="6.24425">
        <ele>406</ele>
        <time>2024-07-31T08:49:34Z</time>
      </trkpt>
      <trkpt lat="47.28075" lon="6.24426">
        <ele>405.8</ele>
        <time>2024-07-31T08:49:35Z</time>
      </trkpt>
      <trkpt lat="47.2808" lon="6.24427">
        <ele>405.8</ele>
        <time>2024-07-31T08:49:36Z</time>
      </trkpt>
      <trkpt lat="47.28086" lon="6.24428">
        <ele>405.4</ele>
        <time>2024-07-31T08:49:37Z</time>
      </trkpt>
      <trkpt lat="47.28093" lon="6.24429">
        <ele>405.4</ele>
        <time>2024-07-31T08:49:38Z</time>
      </trkpt>
      <trkpt lat="47.28099" lon="6.24431">
        <ele>405</ele>
        <time>2024-07-31T08:49:39Z</time>
      </trkpt>
      <trkpt lat="47.28106" lon="6.24434">
        <ele>404.6</ele>
        <time>2024-07-31T08:49:40Z</time>
      </trkpt>
      <trkpt lat="47.28113" lon="6.24438">
        <ele>404.4</ele>
        <time>2024-07-31T08:49:41Z</time>
      </trkpt>
      <trkpt lat="47.28119" lon="6.24443">
        <ele>404</ele>
        <time>2024-07-31T08:49:42Z</time>
      </trkpt>
      <trkpt lat="47.28126" lon="6.2445">
        <ele>403.4</ele>
        <time>2024-07-31T08:49:43Z</time>
      </trkpt>
      <trkpt lat="47.28132" lon="6.24458">
        <ele>403.4</ele>
        <time>2024-07-31T08:49:44Z</time>
      </trkpt>
      <trkpt lat="47.28138" lon="6.24466">
        <ele>403.2</ele>
        <time>2024-07-31T08:49:45Z</time>
      </trkpt>
      <trkpt lat="47.28145" lon="6.24475">
        <ele>402.6</ele>
        <time>2024-07-31T08:49:46Z</time>
      </trkpt>
      <trkpt lat="47.28151" lon="6.24484">
        <ele>402.2</ele>
        <time>2024-07-31T08:49:47Z</time>
      </trkpt>
      <trkpt lat="47.28158" lon="6.24494">
        <ele>402</ele>
        <time>2024-07-31T08:49:48Z</time>
      </trkpt>
      <trkpt lat="47.28164" lon="6.24503">
        <ele>401.2</ele>
        <time>2024-07-31T08:49:49Z</time>
      </trkpt>
      <trkpt lat="47.28171" lon="6.24513">
        <ele>401</ele>
        <time>2024-07-31T08:49:50Z</time>
      </trkpt>
      <trkpt lat="47.28177" lon="6.24522">
        <ele>400.6</ele>
        <time>2024-07-31T08:49:51Z</time>
      </trkpt>
      <trkpt lat="47.28183" lon="6.24532">
        <ele>399.8</ele>
        <time>2024-07-31T08:49:52Z</time>
      </trkpt>
      <trkpt lat="47.2819" lon="6.24541">
        <ele>399.4</ele>
        <time>2024-07-31T08:49:53Z</time>
      </trkpt>
      <trkpt lat="47.28198" lon="6.2455">
        <ele>398.8</ele>
        <time>2024-07-31T08:49:54Z</time>
      </trkpt>
      <trkpt lat="47.28206" lon="6.24558">
        <ele>398.4</ele>
        <time>2024-07-31T08:49:55Z</time>
      </trkpt>
      <trkpt lat="47.28214" lon="6.24566">
        <ele>398.2</ele>
        <time>2024-07-31T08:49:56Z</time>
      </trkpt>
      <trkpt lat="47.28223" lon="6.24572">
        <ele>397.6</ele>
        <time>2024-07-31T08:49:57Z</time>
      </trkpt>
      <trkpt lat="47.28231" lon="6.24579">
        <ele>397.6</ele>
        <time>2024-07-31T08:49:58Z</time>
      </trkpt>
      <trkpt lat="47.2824" lon="6.24585">
        <ele>396.6</ele>
        <time>2024-07-31T08:49:59Z</time>
      </trkpt>
      <trkpt lat="47.28248" lon="6.24592">
        <ele>396.6</ele>
        <time>2024-07-31T08:50:00Z</time>
      </trkpt>
      <trkpt lat="47.28257" lon="6.24598">
        <ele>397</ele>
        <time>2024-07-31T08:50:01Z</time>
      </trkpt>
      <trkpt lat="47.28265" lon="6.24604">
        <ele>396.6</ele>
        <time>2024-07-31T08:50:02Z</time>
      </trkpt>
      <trkpt lat="47.28273" lon="6.2461">
        <ele>396.4</ele>
        <time>2024-07-31T08:50:03Z</time>
      </trkpt>
      <trkpt lat="47.28281" lon="6.24616">
        <ele>396.4</ele>
        <time>2024-07-31T08:50:04Z</time>
      </trkpt>
      <trkpt lat="47.28288" lon="6.24621">
        <ele>396.2</ele>
        <time>2024-07-31T08:50:05Z</time>
      </trkpt>
      <trkpt lat="47.28296" lon="6.24627">
        <ele>396</ele>
        <time>2024-07-31T08:50:06Z</time>
      </trkpt>
      <trkpt lat="47.28304" lon="6.24632">
        <ele>395.6</ele>
        <time>2024-07-31T08:50:07Z</time>
      </trkpt>
      <trkpt lat="47.28311" lon="6.24637">
        <ele>395.6</ele>
        <time>2024-07-31T08:50:08Z</time>
      </trkpt>
      <trkpt lat="47.28319" lon="6.24642">
        <ele>395.6</ele>
        <time>2024-07-31T08:50:09Z</time>
      </trkpt>
      <trkpt lat="47.28326" lon="6.24647">
        <ele>395.6</ele>
        <time>2024-07-31T08:50:10Z</time>
      </trkpt>
      <trkpt lat="47.28334" lon="6.24653">
        <ele>395.2</ele>
        <time>2024-07-31T08:50:11Z</time>
      </trkpt>
      <trkpt lat="47.28341" lon="6.24657">
        <ele>395</ele>
        <time>2024-07-31T08:50:12Z</time>
      </trkpt>
      <trkpt lat="47.28349" lon="6.24662">
        <ele>394.8</ele>
        <time>2024-07-31T08:50:13Z</time>
      </trkpt>
      <trkpt lat="47.28356" lon="6.24667">
        <ele>394.8</ele>
        <time>2024-07-31T08:50:14Z</time>
      </trkpt>
      <trkpt lat="47.28363" lon="6.24671">
        <ele>395</ele>
        <time>2024-07-31T08:50:15Z</time>
      </trkpt>
      <trkpt lat="47.28371" lon="6.24675">
        <ele>395</ele>
        <time>2024-07-31T08:50:16Z</time>
      </trkpt>
      <trkpt lat="47.28378" lon="6.24679">
        <ele>394.8</ele>
        <time>2024-07-31T08:50:17Z</time>
      </trkpt>
      <trkpt lat="47.28385" lon="6.24682">
        <ele>394.8</ele>
        <time>2024-07-31T08:50:18Z</time>
      </trkpt>
      <trkpt lat="47.28393" lon="6.24686">
        <ele>394.6</ele>
        <time>2024-07-31T08:50:19Z</time>
      </trkpt>
      <trkpt lat="47.284" lon="6.24688">
        <ele>394.6</ele>
        <time>2024-07-31T08:50:20Z</time>
      </trkpt>
      <trkpt lat="47.28408" lon="6.24691">
        <ele>394.4</ele>
        <time>2024-07-31T08:50:21Z</time>
      </trkpt>
      <trkpt lat="47.28415" lon="6.24693">
        <ele>394.4</ele>
        <time>2024-07-31T08:50:22Z</time>
      </trkpt>
      <trkpt lat="47.28423" lon="6.24696">
        <ele>394.6</ele>
        <time>2024-07-31T08:50:23Z</time>
      </trkpt>
      <trkpt lat="47.2843" lon="6.24698">
        <ele>394.8</ele>
        <time>2024-07-31T08:50:24Z</time>
      </trkpt>
      <trkpt lat="47.28437" lon="6.24701">
        <ele>394.6</ele>
        <time>2024-07-31T08:50:25Z</time>
      </trkpt>
      <trkpt lat="47.28444" lon="6.24705">
        <ele>394.4</ele>
        <time>2024-07-31T08:50:26Z</time>
      </trkpt>
      <trkpt lat="47.28451" lon="6.24709">
        <ele>394.4</ele>
        <time>2024-07-31T08:50:27Z</time>
      </trkpt>
      <trkpt lat="47.28458" lon="6.24713">
        <ele>394.4</ele>
        <time>2024-07-31T08:50:28Z</time>
      </trkpt>
      <trkpt lat="47.28465" lon="6.24717">
        <ele>394.4</ele>
        <time>2024-07-31T08:50:29Z</time>
      </trkpt>
      <trkpt lat="47.28471" lon="6.24722">
        <ele>394.2</ele>
        <time>2024-07-31T08:50:30Z</time>
      </trkpt>
      <trkpt lat="47.28477" lon="6.24728">
        <ele>394.4</ele>
        <time>2024-07-31T08:50:31Z</time>
      </trkpt>
      <trkpt lat="47.28483" lon="6.24733">
        <ele>394.4</ele>
        <time>2024-07-31T08:50:32Z</time>
      </trkpt>
      <trkpt lat="47.2849" lon="6.24739">
        <ele>394.4</ele>
        <time>2024-07-31T08:50:33Z</time>
      </trkpt>
      <trkpt lat="47.28495" lon="6.24745">
        <ele>394.6</ele>
        <time>2024-07-31T08:50:34Z</time>
      </trkpt>
      <trkpt lat="47.28501" lon="6.24751">
        <ele>394.6</ele>
        <time>2024-07-31T08:50:35Z</time>
      </trkpt>
      <trkpt lat="47.28507" lon="6.24757">
        <ele>394.4</ele>
        <time>2024-07-31T08:50:36Z</time>
      </trkpt>
      <trkpt lat="47.28512" lon="6.24762">
        <ele>394.4</ele>
        <time>2024-07-31T08:50:37Z</time>
      </trkpt>
      <trkpt lat="47.28518" lon="6.24767">
        <ele>394.6</ele>
        <time>2024-07-31T08:50:38Z</time>
      </trkpt>
      <trkpt lat="47.28524" lon="6.24772">
        <ele>394.6</ele>
        <time>2024-07-31T08:50:39Z</time>
      </trkpt>
      <trkpt lat="47.28529" lon="6.24777">
        <ele>394.6</ele>
        <time>2024-07-31T08:50:40Z</time>
      </trkpt>
      <trkpt lat="47.28535" lon="6.24781">
        <ele>394.6</ele>
        <time>2024-07-31T08:50:41Z</time>
      </trkpt>
      <trkpt lat="47.28541" lon="6.24785">
        <ele>394.6</ele>
        <time>2024-07-31T08:50:42Z</time>
      </trkpt>
      <trkpt lat="47.28547" lon="6.24788">
        <ele>394.6</ele>
        <time>2024-07-31T08:50:43Z</time>
      </trkpt>
      <trkpt lat="47.28553" lon="6.24791">
        <ele>394.6</ele>
        <time>2024-07-31T08:50:44Z</time>
      </trkpt>
      <trkpt lat="47.2856" lon="6.24793">
        <ele>394.4</ele>
        <time>2024-07-31T08:50:45Z</time>
      </trkpt>
      <trkpt lat="47.28566" lon="6.24794">
        <ele>394.4</ele>
        <time>2024-07-31T08:50:46Z</time>
      </trkpt>
      <trkpt lat="47.28573" lon="6.24794">
        <ele>394.4</ele>
        <time>2024-07-31T08:50:47Z</time>
      </trkpt>
      <trkpt lat="47.28579" lon="6.24794">
        <ele>394.2</ele>
        <time>2024-07-31T08:50:48Z</time>
      </trkpt>
      <trkpt lat="47.28586" lon="6.24792">
        <ele>394.4</ele>
        <time>2024-07-31T08:50:49Z</time>
      </trkpt>
      <trkpt lat="47.28592" lon="6.2479">
        <ele>394.4</ele>
        <time>2024-07-31T08:50:50Z</time>
      </trkpt>
      <trkpt lat="47.28599" lon="6.24788">
        <ele>394.4</ele>
        <time>2024-07-31T08:50:51Z</time>
      </trkpt>
      <trkpt lat="47.28605" lon="6.24786">
        <ele>394.2</ele>
        <time>2024-07-31T08:50:52Z</time>
      </trkpt>
      <trkpt lat="47.2861" lon="6.24783">
        <ele>394</ele>
        <time>2024-07-31T08:50:53Z</time>
      </trkpt>
      <trkpt lat="47.28616" lon="6.24781">
        <ele>394</ele>
        <time>2024-07-31T08:50:54Z</time>
      </trkpt>
      <trkpt lat="47.28621" lon="6.24779">
        <ele>393.8</ele>
        <time>2024-07-31T08:50:55Z</time>
      </trkpt>
      <trkpt lat="47.28626" lon="6.24778">
        <ele>394</ele>
        <time>2024-07-31T08:50:56Z</time>
      </trkpt>
      <trkpt lat="47.28631" lon="6.24776">
        <ele>393.8</ele>
        <time>2024-07-31T08:50:57Z</time>
      </trkpt>
      <trkpt lat="47.28636" lon="6.24775">
        <ele>394.2</ele>
        <time>2024-07-31T08:50:58Z</time>
      </trkpt>
      <trkpt lat="47.28641" lon="6.24773">
        <ele>393.8</ele>
        <time>2024-07-31T08:50:59Z</time>
      </trkpt>
      <trkpt lat="47.28646" lon="6.24772">
        <ele>393.8</ele>
        <time>2024-07-31T08:51:00Z</time>
      </trkpt>
      <trkpt lat="47.28651" lon="6.24771">
        <ele>393.8</ele>
        <time>2024-07-31T08:51:01Z</time>
      </trkpt>
      <trkpt lat="47.28655" lon="6.2477">
        <ele>393.8</ele>
        <time>2024-07-31T08:51:02Z</time>
      </trkpt>
      <trkpt lat="47.28659" lon="6.24769">
        <ele>393.6</ele>
        <time>2024-07-31T08:51:03Z</time>
      </trkpt>
      <trkpt lat="47.28662" lon="6.24768">
        <ele>393.4</ele>
        <time>2024-07-31T08:51:04Z</time>
      </trkpt>
      <trkpt lat="47.28665" lon="6.24768">
        <ele>393.4</ele>
        <time>2024-07-31T08:51:05Z</time>
      </trkpt>
      <trkpt lat="47.28667" lon="6.24768">
        <ele>393.4</ele>
        <time>2024-07-31T08:51:06Z</time>
      </trkpt>
      <trkpt lat="47.28668" lon="6.24766">
        <ele>393.2</ele>
        <time>2024-07-31T08:51:07Z</time>
      </trkpt>
      <trkpt lat="47.28667" lon="6.24765">
        <ele>393.2</ele>
        <time>2024-07-31T08:51:08Z</time>
      </trkpt>
      <trkpt lat="47.28665" lon="6.24765">
        <ele>393.2</ele>
        <time>2024-07-31T08:51:09Z</time>
      </trkpt>
      <trkpt lat="47.28663" lon="6.24765">
        <ele>393.2</ele>
        <time>2024-07-31T08:51:10Z</time>
      </trkpt>
      <trkpt lat="47.2866" lon="6.24766">
        <ele>393.2</ele>
        <time>2024-07-31T08:51:11Z</time>
      </trkpt>
      <trkpt lat="47.28658" lon="6.24766">
        <ele>393.4</ele>
        <time>2024-07-31T08:51:12Z</time>
      </trkpt>
      <trkpt lat="47.28655" lon="6.24766">
        <ele>393.4</ele>
        <time>2024-07-31T08:51:13Z</time>
      </trkpt>
      <trkpt lat="47.28653" lon="6.24767">
        <ele>393.4</ele>
        <time>2024-07-31T08:51:14Z</time>
      </trkpt>
      <trkpt lat="47.28653" lon="6.24768">
        <ele>393.4</ele>
        <time>2024-07-31T08:51:15Z</time>
      </trkpt>
      <trkpt lat="47.28654" lon="6.2477">
        <ele>393.4</ele>
        <time>2024-07-31T08:51:16Z</time>
      </trkpt>
      <trkpt lat="47.28656" lon="6.2477">
        <ele>393.4</ele>
        <time>2024-07-31T08:51:17Z</time>
      </trkpt>
      <trkpt lat="47.28658" lon="6.2477">
        <ele>393.6</ele>
        <time>2024-07-31T08:51:18Z</time>
      </trkpt>
      <trkpt lat="47.28661" lon="6.24769">
        <ele>393.6</ele>
        <time>2024-07-31T08:51:19Z</time>
      </trkpt>
      <trkpt lat="47.28664" lon="6.24768">
        <ele>393.6</ele>
        <time>2024-07-31T08:51:20Z</time>
      </trkpt>
      <trkpt lat="47.28667" lon="6.24768">
        <ele>393.6</ele>
        <time>2024-07-31T08:51:21Z</time>
      </trkpt>
      <trkpt lat="47.2867" lon="6.24767">
        <ele>393.6</ele>
        <time>2024-07-31T08:51:22Z</time>
      </trkpt>
      <trkpt lat="47.28674" lon="6.24766">
        <ele>393.6</ele>
        <time>2024-07-31T08:51:23Z</time>
      </trkpt>
      <trkpt lat="47.28678" lon="6.24766">
        <ele>393.8</ele>
        <time>2024-07-31T08:51:24Z</time>
      </trkpt>
      <trkpt lat="47.28681" lon="6.24765">
        <ele>393.8</ele>
        <time>2024-07-31T08:51:25Z</time>
      </trkpt>
      <trkpt lat="47.28685" lon="6.24763">
        <ele>393.8</ele>
        <time>2024-07-31T08:51:26Z</time>
      </trkpt>
      <trkpt lat="47.28689" lon="6.24762">
        <ele>393.8</ele>
        <time>2024-07-31T08:51:27Z</time>
      </trkpt>
      <trkpt lat="47.28694" lon="6.24761">
        <ele>393.6</ele>
        <time>2024-07-31T08:51:28Z</time>
      </trkpt>
      <trkpt lat="47.28698" lon="6.24759">
        <ele>393.6</ele>
        <time>2024-07-31T08:51:29Z</time>
      </trkpt>
      <trkpt lat="47.28702" lon="6.24757">
        <ele>393.6</ele>
        <time>2024-07-31T08:51:30Z</time>
      </trkpt>
      <trkpt lat="47.28706" lon="6.24755">
        <ele>393.6</ele>
        <time>2024-07-31T08:51:31Z</time>
      </trkpt>
      <trkpt lat="47.28711" lon="6.24753">
        <ele>393.4</ele>
        <time>2024-07-31T08:51:32Z</time>
      </trkpt>
      <trkpt lat="47.28715" lon="6.24751">
        <ele>393.2</ele>
        <time>2024-07-31T08:51:33Z</time>
      </trkpt>
      <trkpt lat="47.28719" lon="6.24749">
        <ele>393.2</ele>
        <time>2024-07-31T08:51:34Z</time>
      </trkpt>
      <trkpt lat="47.28724" lon="6.24747">
        <ele>393.4</ele>
        <time>2024-07-31T08:51:35Z</time>
      </trkpt>
      <trkpt lat="47.28728" lon="6.24746">
        <ele>393.2</ele>
        <time>2024-07-31T08:51:36Z</time>
      </trkpt>
      <trkpt lat="47.28733" lon="6.24745">
        <ele>393.2</ele>
        <time>2024-07-31T08:51:37Z</time>
      </trkpt>
      <trkpt lat="47.28738" lon="6.24745">
        <ele>393.2</ele>
        <time>2024-07-31T08:51:38Z</time>
      </trkpt>
      <trkpt lat="47.28743" lon="6.24745">
        <ele>393.2</ele>
        <time>2024-07-31T08:51:39Z</time>
      </trkpt>
      <trkpt lat="47.28747" lon="6.24745">
        <ele>393</ele>
        <time>2024-07-31T08:51:40Z</time>
      </trkpt>
      <trkpt lat="47.28751" lon="6.24746">
        <ele>393</ele>
        <time>2024-07-31T08:51:41Z</time>
      </trkpt>
      <trkpt lat="47.28756" lon="6.24746">
        <ele>393.2</ele>
        <time>2024-07-31T08:51:42Z</time>
      </trkpt>
      <trkpt lat="47.2876" lon="6.24746">
        <ele>393</ele>
        <time>2024-07-31T08:51:43Z</time>
      </trkpt>
      <trkpt lat="47.28764" lon="6.24746">
        <ele>393</ele>
        <time>2024-07-31T08:51:44Z</time>
      </trkpt>
      <trkpt lat="47.28768" lon="6.24747">
        <ele>392.8</ele>
        <time>2024-07-31T08:51:45Z</time>
      </trkpt>
      <trkpt lat="47.28772" lon="6.24747">
        <ele>392.8</ele>
        <time>2024-07-31T08:51:46Z</time>
      </trkpt>
      <trkpt lat="47.28776" lon="6.24748">
        <ele>393</ele>
        <time>2024-07-31T08:51:47Z</time>
      </trkpt>
      <trkpt lat="47.28779" lon="6.24748">
        <ele>393</ele>
        <time>2024-07-31T08:51:48Z</time>
      </trkpt>
      <trkpt lat="47.28782" lon="6.24749">
        <ele>392.8</ele>
        <time>2024-07-31T08:51:49Z</time>
      </trkpt>
      <trkpt lat="47.28785" lon="6.24749">
        <ele>392.8</ele>
        <time>2024-07-31T08:51:50Z</time>
      </trkpt>
      <trkpt lat="47.28788" lon="6.24749">
        <ele>392.8</ele>
        <time>2024-07-31T08:51:51Z</time>
      </trkpt>
      <trkpt lat="47.28791" lon="6.2475">
        <ele>392.6</ele>
        <time>2024-07-31T08:51:52Z</time>
      </trkpt>
      <trkpt lat="47.28793" lon="6.2475">
        <ele>392.8</ele>
        <time>2024-07-31T08:51:53Z</time>
      </trkpt>
      <trkpt lat="47.28796" lon="6.24751">
        <ele>392.8</ele>
        <time>2024-07-31T08:51:54Z</time>
      </trkpt>
      <trkpt lat="47.28798" lon="6.24751">
        <ele>392.6</ele>
        <time>2024-07-31T08:51:55Z</time>
      </trkpt>
      <trkpt lat="47.288" lon="6.24752">
        <ele>392.8</ele>
        <time>2024-07-31T08:51:56Z</time>
      </trkpt>
      <trkpt lat="47.28803" lon="6.24753">
        <ele>392.6</ele>
        <time>2024-07-31T08:51:57Z</time>
      </trkpt>
      <trkpt lat="47.28804" lon="6.24753">
        <ele>392.6</ele>
        <time>2024-07-31T08:51:58Z</time>
      </trkpt>
      <trkpt lat="47.28806" lon="6.24754">
        <ele>392.6</ele>
        <time>2024-07-31T08:51:59Z</time>
      </trkpt>
      <trkpt lat="47.28808" lon="6.24754">
        <ele>392.6</ele>
        <time>2024-07-31T08:52:00Z</time>
      </trkpt>
      <trkpt lat="47.28809" lon="6.24754">
        <ele>392.6</ele>
        <time>2024-07-31T08:52:01Z</time>
      </trkpt>
      <trkpt lat="47.2881" lon="6.24753">
        <ele>392.6</ele>
        <time>2024-07-31T08:52:02Z</time>
      </trkpt>
      <trkpt lat="47.28812" lon="6.24752">
        <ele>392.6</ele>
        <time>2024-07-31T08:52:03Z</time>
      </trkpt>
      <trkpt lat="47.28814" lon="6.2475">
        <ele>392.6</ele>
        <time>2024-07-31T08:52:04Z</time>
      </trkpt>
      <trkpt lat="47.28816" lon="6.24748">
        <ele>392.8</ele>
        <time>2024-07-31T08:52:05Z</time>
      </trkpt>
      <trkpt lat="47.28818" lon="6.24746">
        <ele>392.8</ele>
        <time>2024-07-31T08:52:06Z</time>
      </trkpt>
      <trkpt lat="47.28821" lon="6.24744">
        <ele>392.8</ele>
        <time>2024-07-31T08:52:07Z</time>
      </trkpt>
      <trkpt lat="47.28824" lon="6.24742">
        <ele>392.6</ele>
        <time>2024-07-31T08:52:08Z</time>
      </trkpt>
      <trkpt lat="47.28827" lon="6.24741">
        <ele>392.6</ele>
        <time>2024-07-31T08:52:09Z</time>
      </trkpt>
      <trkpt lat="47.2883" lon="6.2474">
        <ele>392.4</ele>
        <time>2024-07-31T08:52:10Z</time>
      </trkpt>
      <trkpt lat="47.28834" lon="6.24739">
        <ele>392.4</ele>
        <time>2024-07-31T08:52:11Z</time>
      </trkpt>
      <trkpt lat="47.28837" lon="6.24737">
        <ele>392.4</ele>
        <time>2024-07-31T08:52:12Z</time>
      </trkpt>
      <trkpt lat="47.2884" lon="6.24734">
        <ele>392.4</ele>
        <time>2024-07-31T08:52:13Z</time>
      </trkpt>
      <trkpt lat="47.28842" lon="6.24731">
        <ele>392.6</ele>
        <time>2024-07-31T08:52:14Z</time>
      </trkpt>
      <trkpt lat="47.28844" lon="6.24727">
        <ele>392.4</ele>
        <time>2024-07-31T08:52:15Z</time>
      </trkpt>
      <trkpt lat="47.28846" lon="6.24722">
        <ele>392.4</ele>
        <time>2024-07-31T08:52:16Z</time>
      </trkpt>
      <trkpt lat="47.28848" lon="6.24717">
        <ele>392.6</ele>
        <time>2024-07-31T08:52:17Z</time>
      </trkpt>
      <trkpt lat="47.28849" lon="6.24712">
        <ele>392.6</ele>
        <time>2024-07-31T08:52:18Z</time>
      </trkpt>
      <trkpt lat="47.2885" lon="6.24708">
        <ele>392.4</ele>
        <time>2024-07-31T08:52:19Z</time>
      </trkpt>
      <trkpt lat="47.28851" lon="6.24703">
        <ele>392.4</ele>
        <time>2024-07-31T08:52:20Z</time>
      </trkpt>
      <trkpt lat="47.28851" lon="6.24698">
        <ele>392.2</ele>
        <time>2024-07-31T08:52:21Z</time>
      </trkpt>
      <trkpt lat="47.28852" lon="6.24693">
        <ele>392.2</ele>
        <time>2024-07-31T08:52:22Z</time>
      </trkpt>
      <trkpt lat="47.28853" lon="6.24688">
        <ele>392.2</ele>
        <time>2024-07-31T08:52:23Z</time>
      </trkpt>
      <trkpt lat="47.28854" lon="6.24684">
        <ele>392.4</ele>
        <time>2024-07-31T08:52:24Z</time>
      </trkpt>
      <trkpt lat="47.28855" lon="6.24679">
        <ele>392.4</ele>
        <time>2024-07-31T08:52:25Z</time>
      </trkpt>
      <trkpt lat="47.28856" lon="6.24674">
        <ele>392.4</ele>
        <time>2024-07-31T08:52:26Z</time>
      </trkpt>
      <trkpt lat="47.28856" lon="6.24669">
        <ele>392.4</ele>
        <time>2024-07-31T08:52:27Z</time>
      </trkpt>
      <trkpt lat="47.28857" lon="6.24665">
        <ele>392.4</ele>
        <time>2024-07-31T08:52:28Z</time>
      </trkpt>
      <trkpt lat="47.28858" lon="6.2466">
        <ele>392.6</ele>
        <time>2024-07-31T08:52:29Z</time>
      </trkpt>
      <trkpt lat="47.28859" lon="6.24655">
        <ele>392.6</ele>
        <time>2024-07-31T08:52:30Z</time>
      </trkpt>
      <trkpt lat="47.28859" lon="6.2465">
        <ele>392.6</ele>
        <time>2024-07-31T08:52:31Z</time>
      </trkpt>
      <trkpt lat="47.2886" lon="6.24646">
        <ele>392.8</ele>
        <time>2024-07-31T08:52:32Z</time>
      </trkpt>
      <trkpt lat="47.28861" lon="6.24641">
        <ele>392.6</ele>
        <time>2024-07-31T08:52:33Z</time>
      </trkpt>
      <trkpt lat="47.28862" lon="6.24636">
        <ele>392.6</ele>
        <time>2024-07-31T08:52:34Z</time>
      </trkpt>
      <trkpt lat="47.28863" lon="6.24631">
        <ele>392.6</ele>
        <time>2024-07-31T08:52:35Z</time>
      </trkpt>
      <trkpt lat="47.28865" lon="6.24627">
        <ele>392.8</ele>
        <time>2024-07-31T08:52:36Z</time>
      </trkpt>
      <trkpt lat="47.28867" lon="6.24623">
        <ele>392.8</ele>
        <time>2024-07-31T08:52:37Z</time>
      </trkpt>
      <trkpt lat="47.28869" lon="6.2462">
        <ele>393</ele>
        <time>2024-07-31T08:52:38Z</time>
      </trkpt>
      <trkpt lat="47.28871" lon="6.24617">
        <ele>393.2</ele>
        <time>2024-07-31T08:52:39Z</time>
      </trkpt>
      <trkpt lat="47.28873" lon="6.24615">
        <ele>393.2</ele>
        <time>2024-07-31T08:52:40Z</time>
      </trkpt>
      <trkpt lat="47.28875" lon="6.24614">
        <ele>393.2</ele>
        <time>2024-07-31T08:52:41Z</time>
      </trkpt>
      <trkpt lat="47.28876" lon="6.24613">
        <ele>393.2</ele>
        <time>2024-07-31T08:52:42Z</time>
      </trkpt>
      <trkpt lat="47.28878" lon="6.24611">
        <ele>393.2</ele>
        <time>2024-07-31T08:52:43Z</time>
      </trkpt>
      <trkpt lat="47.28879" lon="6.2461">
        <ele>393.2</ele>
        <time>2024-07-31T08:52:44Z</time>
      </trkpt>
      <trkpt lat="47.28881" lon="6.24609">
        <ele>393.4</ele>
        <time>2024-07-31T08:52:45Z</time>
      </trkpt>
      <trkpt lat="47.28883" lon="6.24608">
        <ele>393.4</ele>
        <time>2024-07-31T08:52:46Z</time>
      </trkpt>
      <trkpt lat="47.28886" lon="6.24607">
        <ele>393.2</ele>
        <time>2024-07-31T08:52:47Z</time>
      </trkpt>
      <trkpt lat="47.28888" lon="6.24605">
        <ele>393.4</ele>
        <time>2024-07-31T08:52:48Z</time>
      </trkpt>
      <trkpt lat="47.28891" lon="6.24603">
        <ele>393.4</ele>
        <time>2024-07-31T08:52:49Z</time>
      </trkpt>
      <trkpt lat="47.28893" lon="6.246">
        <ele>393.4</ele>
        <time>2024-07-31T08:52:50Z</time>
      </trkpt>
      <trkpt lat="47.28896" lon="6.24598">
        <ele>393.4</ele>
        <time>2024-07-31T08:52:51Z</time>
      </trkpt>
      <trkpt lat="47.28899" lon="6.24594">
        <ele>393.2</ele>
        <time>2024-07-31T08:52:52Z</time>
      </trkpt>
      <trkpt lat="47.28903" lon="6.24591">
        <ele>393.2</ele>
        <time>2024-07-31T08:52:53Z</time>
      </trkpt>
      <trkpt lat="47.28906" lon="6.24588">
        <ele>393.2</ele>
        <time>2024-07-31T08:52:54Z</time>
      </trkpt>
      <trkpt lat="47.28909" lon="6.24584">
        <ele>393</ele>
        <time>2024-07-31T08:52:55Z</time>
      </trkpt>
      <trkpt lat="47.28912" lon="6.2458">
        <ele>392.8</ele>
        <time>2024-07-31T08:52:56Z</time>
      </trkpt>
      <trkpt lat="47.28915" lon="6.24575">
        <ele>392.8</ele>
        <time>2024-07-31T08:52:57Z</time>
      </trkpt>
      <trkpt lat="47.28918" lon="6.24571">
        <ele>393</ele>
        <time>2024-07-31T08:52:58Z</time>
      </trkpt>
      <trkpt lat="47.2892" lon="6.24566">
        <ele>393</ele>
        <time>2024-07-31T08:52:59Z</time>
      </trkpt>
      <trkpt lat="47.28922" lon="6.24562">
        <ele>392.8</ele>
        <time>2024-07-31T08:53:00Z</time>
      </trkpt>
      <trkpt lat="47.28925" lon="6.24557">
        <ele>392.6</ele>
        <time>2024-07-31T08:53:01Z</time>
      </trkpt>
      <trkpt lat="47.28927" lon="6.24552">
        <ele>392.8</ele>
        <time>2024-07-31T08:53:02Z</time>
      </trkpt>
      <trkpt lat="47.2893" lon="6.24548">
        <ele>392.6</ele>
        <time>2024-07-31T08:53:03Z</time>
      </trkpt>
      <trkpt lat="47.28932" lon="6.24543">
        <ele>392.8</ele>
        <time>2024-07-31T08:53:04Z</time>
      </trkpt>
      <trkpt lat="47.28934" lon="6.24539">
        <ele>392.8</ele>
        <time>2024-07-31T08:53:05Z</time>
      </trkpt>
      <trkpt lat="47.28936" lon="6.24534">
        <ele>392.2</ele>
        <time>2024-07-31T08:53:06Z</time>
      </trkpt>
      <trkpt lat="47.28938" lon="6.24529">
        <ele>392.6</ele>
        <time>2024-07-31T08:53:07Z</time>
      </trkpt>
      <trkpt lat="47.28941" lon="6.24525">
        <ele>392.2</ele>
        <time>2024-07-31T08:53:08Z</time>
      </trkpt>
      <trkpt lat="47.28943" lon="6.24521">
        <ele>392.2</ele>
        <time>2024-07-31T08:53:09Z</time>
      </trkpt>
      <trkpt lat="47.28946" lon="6.24518">
        <ele>392.8</ele>
        <time>2024-07-31T08:53:10Z</time>
      </trkpt>
      <trkpt lat="47.28948" lon="6.24514">
        <ele>392.6</ele>
        <time>2024-07-31T08:53:11Z</time>
      </trkpt>
      <trkpt lat="47.28951" lon="6.24511">
        <ele>392.6</ele>
        <time>2024-07-31T08:53:12Z</time>
      </trkpt>
      <trkpt lat="47.28954" lon="6.24507">
        <ele>392.8</ele>
        <time>2024-07-31T08:53:13Z</time>
      </trkpt>
      <trkpt lat="47.28956" lon="6.24505">
        <ele>392.4</ele>
        <time>2024-07-31T08:53:14Z</time>
      </trkpt>
      <trkpt lat="47.28959" lon="6.24503">
        <ele>392.6</ele>
        <time>2024-07-31T08:53:15Z</time>
      </trkpt>
      <trkpt lat="47.28961" lon="6.24501">
        <ele>392.6</ele>
        <time>2024-07-31T08:53:16Z</time>
      </trkpt>
      <trkpt lat="47.28963" lon="6.24499">
        <ele>392.6</ele>
        <time>2024-07-31T08:53:17Z</time>
      </trkpt>
      <trkpt lat="47.28965" lon="6.24498">
        <ele>392.6</ele>
        <time>2024-07-31T08:53:18Z</time>
      </trkpt>
      <trkpt lat="47.28967" lon="6.24496">
        <ele>392.6</ele>
        <time>2024-07-31T08:53:19Z</time>
      </trkpt>
      <trkpt lat="47.28969" lon="6.24495">
        <ele>392.6</ele>
        <time>2024-07-31T08:53:20Z</time>
      </trkpt>
      <trkpt lat="47.2897" lon="6.24494">
        <ele>392.6</ele>
        <time>2024-07-31T08:53:21Z</time>
      </trkpt>
      <trkpt lat="47.28971" lon="6.24493">
        <ele>392.6</ele>
        <time>2024-07-31T08:53:22Z</time>
      </trkpt>
      <trkpt lat="47.28973" lon="6.24492">
        <ele>392.6</ele>
        <time>2024-07-31T08:53:23Z</time>
      </trkpt>
      <trkpt lat="47.28973" lon="6.24491">
        <ele>392.8</ele>
        <time>2024-07-31T08:53:24Z</time>
      </trkpt>
      <trkpt lat="47.28974" lon="6.24491">
        <ele>392.4</ele>
        <time>2024-07-31T08:53:25Z</time>
      </trkpt>
      <trkpt lat="47.28975" lon="6.2449">
        <ele>392.8</ele>
        <time>2024-07-31T08:53:26Z</time>
      </trkpt>
      <trkpt lat="47.28976" lon="6.24489">
        <ele>392.4</ele>
        <time>2024-07-31T08:53:27Z</time>
      </trkpt>
      <trkpt lat="47.28977" lon="6.24489">
        <ele>392.4</ele>
        <time>2024-07-31T08:53:28Z</time>
      </trkpt>
      <trkpt lat="47.28978" lon="6.24488">
        <ele>392.6</ele>
        <time>2024-07-31T08:53:29Z</time>
      </trkpt>
      <trkpt lat="47.28979" lon="6.24486">
        <ele>392.6</ele>
        <time>2024-07-31T08:53:30Z</time>
      </trkpt>
      <trkpt lat="47.2898" lon="6.24485">
        <ele>392.6</ele>
        <time>2024-07-31T08:53:31Z</time>
      </trkpt>
      <trkpt lat="47.28982" lon="6.24484">
        <ele>392.6</ele>
        <time>2024-07-31T08:53:32Z</time>
      </trkpt>
      <trkpt lat="47.28984" lon="6.24482">
        <ele>392.6</ele>
        <time>2024-07-31T08:53:33Z</time>
      </trkpt>
      <trkpt lat="47.28986" lon="6.24481">
        <ele>392.6</ele>
        <time>2024-07-31T08:53:34Z</time>
      </trkpt>
      <trkpt lat="47.28988" lon="6.2448">
        <ele>392.6</ele>
        <time>2024-07-31T08:53:35Z</time>
      </trkpt>
      <trkpt lat="47.2899" lon="6.24479">
        <ele>392.8</ele>
        <time>2024-07-31T08:53:36Z</time>
      </trkpt>
      <trkpt lat="47.28992" lon="6.24478">
        <ele>392.6</ele>
        <time>2024-07-31T08:53:37Z</time>
      </trkpt>
      <trkpt lat="47.28994" lon="6.24477">
        <ele>392.6</ele>
        <time>2024-07-31T08:53:38Z</time>
      </trkpt>
      <trkpt lat="47.28996" lon="6.24475">
        <ele>392.4</ele>
        <time>2024-07-31T08:53:39Z</time>
      </trkpt>
      <trkpt lat="47.28998" lon="6.24474">
        <ele>392.8</ele>
        <time>2024-07-31T08:53:40Z</time>
      </trkpt>
      <trkpt lat="47.29" lon="6.24472">
        <ele>392.8</ele>
        <time>2024-07-31T08:53:41Z</time>
      </trkpt>
      <trkpt lat="47.29003" lon="6.24471">
        <ele>392.8</ele>
        <time>2024-07-31T08:53:42Z</time>
      </trkpt>
      <trkpt lat="47.29005" lon="6.24469">
        <ele>392.6</ele>
        <time>2024-07-31T08:53:43Z</time>
      </trkpt>
      <trkpt lat="47.29008" lon="6.24467">
        <ele>392.8</ele>
        <time>2024-07-31T08:53:44Z</time>
      </trkpt>
      <trkpt lat="47.29011" lon="6.24465">
        <ele>392.6</ele>
        <time>2024-07-31T08:53:45Z</time>
      </trkpt>
      <trkpt lat="47.29014" lon="6.24463">
        <ele>392.4</ele>
        <time>2024-07-31T08:53:46Z</time>
      </trkpt>
      <trkpt lat="47.29017" lon="6.24461">
        <ele>392.4</ele>
        <time>2024-07-31T08:53:47Z</time>
      </trkpt>
      <trkpt lat="47.29019" lon="6.24458">
        <ele>392.4</ele>
        <time>2024-07-31T08:53:48Z</time>
      </trkpt>
      <trkpt lat="47.29021" lon="6.24455">
        <ele>392.6</ele>
        <time>2024-07-31T08:53:49Z</time>
      </trkpt>
      <trkpt lat="47.29023" lon="6.24452">
        <ele>392.6</ele>
        <time>2024-07-31T08:53:50Z</time>
      </trkpt>
      <trkpt lat="47.29024" lon="6.24449">
        <ele>392.4</ele>
        <time>2024-07-31T08:53:51Z</time>
      </trkpt>
      <trkpt lat="47.29026" lon="6.24446">
        <ele>392.6</ele>
        <time>2024-07-31T08:53:52Z</time>
      </trkpt>
      <trkpt lat="47.29028" lon="6.24444">
        <ele>392.6</ele>
        <time>2024-07-31T08:53:53Z</time>
      </trkpt>
      <trkpt lat="47.29029" lon="6.24441">
        <ele>392.6</ele>
        <time>2024-07-31T08:53:54Z</time>
      </trkpt>
      <trkpt lat="47.2903" lon="6.24438">
        <ele>392.6</ele>
        <time>2024-07-31T08:53:55Z</time>
      </trkpt>
      <trkpt lat="47.29031" lon="6.24435">
        <ele>392.6</ele>
        <time>2024-07-31T08:53:56Z</time>
      </trkpt>
      <trkpt lat="47.29032" lon="6.24432">
        <ele>392.8</ele>
        <time>2024-07-31T08:53:57Z</time>
      </trkpt>
      <trkpt lat="47.29033" lon="6.24428">
        <ele>393</ele>
        <time>2024-07-31T08:53:58Z</time>
      </trkpt>
      <trkpt lat="47.29034" lon="6.24424">
        <ele>393</ele>
        <time>2024-07-31T08:53:59Z</time>
      </trkpt>
      <trkpt lat="47.29035" lon="6.2442">
        <ele>393</ele>
        <time>2024-07-31T08:54:00Z</time>
      </trkpt>
      <trkpt lat="47.29036" lon="6.24416">
        <ele>393</ele>
        <time>2024-07-31T08:54:01Z</time>
      </trkpt>
      <trkpt lat="47.29036" lon="6.24411">
        <ele>393</ele>
        <time>2024-07-31T08:54:02Z</time>
      </trkpt>
      <trkpt lat="47.29036" lon="6.24407">
        <ele>393</ele>
        <time>2024-07-31T08:54:03Z</time>
      </trkpt>
      <trkpt lat="47.29035" lon="6.24403">
        <ele>393</ele>
        <time>2024-07-31T08:54:04Z</time>
      </trkpt>
      <trkpt lat="47.29034" lon="6.24401">
        <ele>393</ele>
        <time>2024-07-31T08:54:05Z</time>
      </trkpt>
      <trkpt lat="47.29034" lon="6.244">
        <ele>393</ele>
        <time>2024-07-31T08:54:06Z</time>
      </trkpt>
      <trkpt lat="47.29033" lon="6.244">
        <ele>393</ele>
        <time>2024-07-31T08:54:07Z</time>
      </trkpt>
      <trkpt lat="47.29032" lon="6.24401">
        <ele>392.8</ele>
        <time>2024-07-31T08:54:08Z</time>
      </trkpt>
      <trkpt lat="47.29031" lon="6.24402">
        <ele>392.6</ele>
        <time>2024-07-31T08:54:09Z</time>
      </trkpt>
      <trkpt lat="47.29032" lon="6.24402">
        <ele>392.4</ele>
        <time>2024-07-31T08:54:10Z</time>
      </trkpt>
      <trkpt lat="47.29032" lon="6.24402">
        <ele>392.6</ele>
        <time>2024-07-31T08:54:11Z</time>
      </trkpt>
      <trkpt lat="47.29032" lon="6.24401">
        <ele>392.4</ele>
        <time>2024-07-31T08:54:12Z</time>
      </trkpt>
      <trkpt lat="47.29032" lon="6.24401">
        <ele>392.4</ele>
        <time>2024-07-31T08:54:13Z</time>
      </trkpt>
      <trkpt lat="47.29032" lon="6.24401">
        <ele>392.6</ele>
        <time>2024-07-31T08:54:14Z</time>
      </trkpt>
      <trkpt lat="47.29032" lon="6.24401">
        <ele>392.6</ele>
        <time>2024-07-31T08:54:15Z</time>
      </trkpt>
      <trkpt lat="47.29032" lon="6.24402">
        <ele>392.6</ele>
        <time>2024-07-31T08:54:16Z</time>
      </trkpt>
      <trkpt lat="47.29032" lon="6.24401">
        <ele>392.6</ele>
        <time>2024-07-31T08:54:17Z</time>
      </trkpt>
      <trkpt lat="47.29032" lon="6.24401">
        <ele>392.4</ele>
        <time>2024-07-31T08:54:18Z</time>
      </trkpt>
      <trkpt lat="47.29032" lon="6.24401">
        <ele>392.4</ele>
        <time>2024-07-31T08:54:19Z</time>
      </trkpt>
      <trkpt lat="47.29032" lon="6.24402">
        <ele>392.4</ele>
        <time>2024-07-31T08:54:20Z</time>
      </trkpt>
      <trkpt lat="47.29032" lon="6.24402">
        <ele>392.4</ele>
        <time>2024-07-31T08:54:21Z</time>
      </trkpt>
      <trkpt lat="47.29032" lon="6.24402">
        <ele>392.4</ele>
        <time>2024-07-31T08:54:22Z</time>
      </trkpt>
      <trkpt lat="47.29032" lon="6.24402">
        <ele>392.6</ele>
        <time>2024-07-31T08:54:23Z</time>
      </trkpt>
      <trkpt lat="47.29032" lon="6.24403">
        <ele>392.6</ele>
        <time>2024-07-31T08:54:24Z</time>
      </trkpt>
      <trkpt lat="47.29033" lon="6.24404">
        <ele>392.6</ele>
        <time>2024-07-31T08:54:25Z</time>
      </trkpt>
      <trkpt lat="47.29035" lon="6.24405">
        <ele>392.6</ele>
        <time>2024-07-31T08:54:26Z</time>
      </trkpt>
      <trkpt lat="47.29036" lon="6.24404">
        <ele>392.6</ele>
        <time>2024-07-31T08:54:27Z</time>
      </trkpt>
      <trkpt lat="47.29036" lon="6.24402">
        <ele>392.8</ele>
        <time>2024-07-31T08:54:28Z</time>
      </trkpt>
      <trkpt lat="47.29036" lon="6.244">
        <ele>392.8</ele>
        <time>2024-07-31T08:54:29Z</time>
      </trkpt>
      <trkpt lat="47.29036" lon="6.24398">
        <ele>393</ele>
        <time>2024-07-31T08:54:30Z</time>
      </trkpt>
      <trkpt lat="47.29035" lon="6.24396">
        <ele>392.8</ele>
        <time>2024-07-31T08:54:31Z</time>
      </trkpt>
      <trkpt lat="47.29035" lon="6.24393">
        <ele>393</ele>
        <time>2024-07-31T08:54:32Z</time>
      </trkpt>
      <trkpt lat="47.29035" lon="6.24391">
        <ele>393</ele>
        <time>2024-07-31T08:54:33Z</time>
      </trkpt>
      <trkpt lat="47.29034" lon="6.24388">
        <ele>393</ele>
        <time>2024-07-31T08:54:34Z</time>
      </trkpt>
      <trkpt lat="47.29034" lon="6.24385">
        <ele>393.2</ele>
        <time>2024-07-31T08:54:35Z</time>
      </trkpt>
      <trkpt lat="47.29032" lon="6.24381">
        <ele>393.2</ele>
        <time>2024-07-31T08:54:36Z</time>
      </trkpt>
      <trkpt lat="47.29031" lon="6.24377">
        <ele>393.2</ele>
        <time>2024-07-31T08:54:37Z</time>
      </trkpt>
      <trkpt lat="47.2903" lon="6.24373">
        <ele>393.4</ele>
        <time>2024-07-31T08:54:38Z</time>
      </trkpt>
      <trkpt lat="47.29028" lon="6.24368">
        <ele>393.4</ele>
        <time>2024-07-31T08:54:39Z</time>
      </trkpt>
      <trkpt lat="47.29027" lon="6.24364">
        <ele>393.4</ele>
        <time>2024-07-31T08:54:40Z</time>
      </trkpt>
      <trkpt lat="47.29025" lon="6.24359">
        <ele>393.6</ele>
        <time>2024-07-31T08:54:41Z</time>
      </trkpt>
      <trkpt lat="47.29023" lon="6.24354">
        <ele>393.6</ele>
        <time>2024-07-31T08:54:42Z</time>
      </trkpt>
      <trkpt lat="47.29021" lon="6.2435">
        <ele>393.4</ele>
        <time>2024-07-31T08:54:43Z</time>
      </trkpt>
      <trkpt lat="47.29019" lon="6.24345">
        <ele>393.4</ele>
        <time>2024-07-31T08:54:44Z</time>
      </trkpt>
      <trkpt lat="47.29017" lon="6.2434">
        <ele>393.6</ele>
        <time>2024-07-31T08:54:45Z</time>
      </trkpt>
      <trkpt lat="47.29015" lon="6.24335">
        <ele>393.6</ele>
        <time>2024-07-31T08:54:46Z</time>
      </trkpt>
      <trkpt lat="47.29013" lon="6.24331">
        <ele>393.6</ele>
        <time>2024-07-31T08:54:47Z</time>
      </trkpt>
      <trkpt lat="47.29011" lon="6.24326">
        <ele>393.6</ele>
        <time>2024-07-31T08:54:48Z</time>
      </trkpt>
      <trkpt lat="47.2901" lon="6.24322">
        <ele>393.6</ele>
        <time>2024-07-31T08:54:49Z</time>
      </trkpt>
      <trkpt lat="47.2901" lon="6.24317">
        <ele>393.4</ele>
        <time>2024-07-31T08:54:50Z</time>
      </trkpt>
      <trkpt lat="47.29011" lon="6.24313">
        <ele>393.8</ele>
        <time>2024-07-31T08:54:51Z</time>
      </trkpt>
      <trkpt lat="47.29012" lon="6.24309">
        <ele>393.8</ele>
        <time>2024-07-31T08:54:52Z</time>
      </trkpt>
      <trkpt lat="47.29013" lon="6.24305">
        <ele>393.8</ele>
        <time>2024-07-31T08:54:53Z</time>
      </trkpt>
      <trkpt lat="47.29014" lon="6.24302">
        <ele>394</ele>
        <time>2024-07-31T08:54:54Z</time>
      </trkpt>
      <trkpt lat="47.29016" lon="6.24299">
        <ele>394</ele>
        <time>2024-07-31T08:54:55Z</time>
      </trkpt>
      <trkpt lat="47.29017" lon="6.24297">
        <ele>393.8</ele>
        <time>2024-07-31T08:54:56Z</time>
      </trkpt>
      <trkpt lat="47.29018" lon="6.24294">
        <ele>394</ele>
        <time>2024-07-31T08:54:57Z</time>
      </trkpt>
      <trkpt lat="47.2902" lon="6.24291">
        <ele>394.2</ele>
        <time>2024-07-31T08:54:58Z</time>
      </trkpt>
      <trkpt lat="47.29022" lon="6.24288">
        <ele>394.6</ele>
        <time>2024-07-31T08:54:59Z</time>
      </trkpt>
      <trkpt lat="47.29023" lon="6.24286">
        <ele>394.8</ele>
        <time>2024-07-31T08:55:00Z</time>
      </trkpt>
      <trkpt lat="47.29025" lon="6.24283">
        <ele>394.6</ele>
        <time>2024-07-31T08:55:01Z</time>
      </trkpt>
      <trkpt lat="47.29026" lon="6.2428">
        <ele>394.8</ele>
        <time>2024-07-31T08:55:02Z</time>
      </trkpt>
      <trkpt lat="47.29028" lon="6.24277">
        <ele>395.2</ele>
        <time>2024-07-31T08:55:03Z</time>
      </trkpt>
      <trkpt lat="47.2903" lon="6.24274">
        <ele>395.4</ele>
        <time>2024-07-31T08:55:04Z</time>
      </trkpt>
      <trkpt lat="47.29031" lon="6.24271">
        <ele>395.6</ele>
        <time>2024-07-31T08:55:05Z</time>
      </trkpt>
      <trkpt lat="47.29032" lon="6.24268">
        <ele>395.8</ele>
        <time>2024-07-31T08:55:06Z</time>
      </trkpt>
      <trkpt lat="47.29034" lon="6.24266">
        <ele>395.8</ele>
        <time>2024-07-31T08:55:07Z</time>
      </trkpt>
      <trkpt lat="47.29035" lon="6.24263">
        <ele>396</ele>
        <time>2024-07-31T08:55:08Z</time>
      </trkpt>
      <trkpt lat="47.29036" lon="6.24261">
        <ele>396</ele>
        <time>2024-07-31T08:55:09Z</time>
      </trkpt>
      <trkpt lat="47.29038" lon="6.24259">
        <ele>396</ele>
        <time>2024-07-31T08:55:10Z</time>
      </trkpt>
      <trkpt lat="47.29039" lon="6.24257">
        <ele>396.2</ele>
        <time>2024-07-31T08:55:11Z</time>
      </trkpt>
      <trkpt lat="47.2904" lon="6.24255">
        <ele>396.4</ele>
        <time>2024-07-31T08:55:12Z</time>
      </trkpt>
      <trkpt lat="47.29042" lon="6.24253">
        <ele>396.4</ele>
        <time>2024-07-31T08:55:13Z</time>
      </trkpt>
      <trkpt lat="47.29043" lon="6.24251">
        <ele>396.6</ele>
        <time>2024-07-31T08:55:14Z</time>
      </trkpt>
      <trkpt lat="47.29043" lon="6.24248">
        <ele>396.8</ele>
        <time>2024-07-31T08:55:15Z</time>
      </trkpt>
      <trkpt lat="47.29044" lon="6.24245">
        <ele>397</ele>
        <time>2024-07-31T08:55:16Z</time>
      </trkpt>
      <trkpt lat="47.29046" lon="6.24243">
        <ele>397.4</ele>
        <time>2024-07-31T08:55:17Z</time>
      </trkpt>
      <trkpt lat="47.29047" lon="6.2424">
        <ele>397.4</ele>
        <time>2024-07-31T08:55:18Z</time>
      </trkpt>
      <trkpt lat="47.29048" lon="6.24238">
        <ele>397.6</ele>
        <time>2024-07-31T08:55:19Z</time>
      </trkpt>
      <trkpt lat="47.2905" lon="6.24235">
        <ele>398</ele>
        <time>2024-07-31T08:55:20Z</time>
      </trkpt>
      <trkpt lat="47.29051" lon="6.24232">
        <ele>398.2</ele>
        <time>2024-07-31T08:55:21Z</time>
      </trkpt>
      <trkpt lat="47.29052" lon="6.2423">
        <ele>398.4</ele>
        <time>2024-07-31T08:55:22Z</time>
      </trkpt>
      <trkpt lat="47.29054" lon="6.24227">
        <ele>398.6</ele>
        <time>2024-07-31T08:55:23Z</time>
      </trkpt>
      <trkpt lat="47.29055" lon="6.24225">
        <ele>398.8</ele>
        <time>2024-07-31T08:55:24Z</time>
      </trkpt>
      <trkpt lat="47.29056" lon="6.24223">
        <ele>399</ele>
        <time>2024-07-31T08:55:25Z</time>
      </trkpt>
      <trkpt lat="47.29058" lon="6.24221">
        <ele>399.4</ele>
        <time>2024-07-31T08:55:26Z</time>
      </trkpt>
      <trkpt lat="47.29059" lon="6.24218">
        <ele>399.6</ele>
        <time>2024-07-31T08:55:27Z</time>
      </trkpt>
      <trkpt lat="47.2906" lon="6.24216">
        <ele>400</ele>
        <time>2024-07-31T08:55:28Z</time>
      </trkpt>
      <trkpt lat="47.29061" lon="6.24213">
        <ele>400.2</ele>
        <time>2024-07-31T08:55:29Z</time>
      </trkpt>
      <trkpt lat="47.29063" lon="6.24211">
        <ele>400.4</ele>
        <time>2024-07-31T08:55:30Z</time>
      </trkpt>
      <trkpt lat="47.29064" lon="6.24209">
        <ele>400.4</ele>
        <time>2024-07-31T08:55:31Z</time>
      </trkpt>
      <trkpt lat="47.29065" lon="6.24206">
        <ele>400.4</ele>
        <time>2024-07-31T08:55:32Z</time>
      </trkpt>
      <trkpt lat="47.29066" lon="6.24204">
        <ele>400.8</ele>
        <time>2024-07-31T08:55:33Z</time>
      </trkpt>
      <trkpt lat="47.29068" lon="6.24202">
        <ele>401.2</ele>
        <time>2024-07-31T08:55:34Z</time>
      </trkpt>
      <trkpt lat="47.29069" lon="6.24199">
        <ele>401.4</ele>
        <time>2024-07-31T08:55:35Z</time>
      </trkpt>
      <trkpt lat="47.2907" lon="6.24197">
        <ele>401.6</ele>
        <time>2024-07-31T08:55:36Z</time>
      </trkpt>
      <trkpt lat="47.29071" lon="6.24195">
        <ele>401.8</ele>
        <time>2024-07-31T08:55:37Z</time>
      </trkpt>
      <trkpt lat="47.29072" lon="6.24192">
        <ele>402.2</ele>
        <time>2024-07-31T08:55:38Z</time>
      </trkpt>
      <trkpt lat="47.29072" lon="6.24189">
        <ele>402.4</ele>
        <time>2024-07-31T08:55:39Z</time>
      </trkpt>
      <trkpt lat="47.29073" lon="6.24187">
        <ele>402.6</ele>
        <time>2024-07-31T08:55:40Z</time>
      </trkpt>
      <trkpt lat="47.29074" lon="6.24184">
        <ele>403</ele>
        <time>2024-07-31T08:55:41Z</time>
      </trkpt>
      <trkpt lat="47.29075" lon="6.24182">
        <ele>403.2</ele>
        <time>2024-07-31T08:55:42Z</time>
      </trkpt>
      <trkpt lat="47.29076" lon="6.2418">
        <ele>403.4</ele>
        <time>2024-07-31T08:55:43Z</time>
      </trkpt>
      <trkpt lat="47.29078" lon="6.24179">
        <ele>403.6</ele>
        <time>2024-07-31T08:55:44Z</time>
      </trkpt>
      <trkpt lat="47.29079" lon="6.24176">
        <ele>404.2</ele>
        <time>2024-07-31T08:55:45Z</time>
      </trkpt>
      <trkpt lat="47.2908" lon="6.24175">
        <ele>404.6</ele>
        <time>2024-07-31T08:55:46Z</time>
      </trkpt>
      <trkpt lat="47.29082" lon="6.24172">
        <ele>404.8</ele>
        <time>2024-07-31T08:55:47Z</time>
      </trkpt>
      <trkpt lat="47.29083" lon="6.2417">
        <ele>404.8</ele>
        <time>2024-07-31T08:55:48Z</time>
      </trkpt>
      <trkpt lat="47.29084" lon="6.24168">
        <ele>405.2</ele>
        <time>2024-07-31T08:55:49Z</time>
      </trkpt>
      <trkpt lat="47.29085" lon="6.24165">
        <ele>405.4</ele>
        <time>2024-07-31T08:55:50Z</time>
      </trkpt>
      <trkpt lat="47.29086" lon="6.24163">
        <ele>405.6</ele>
        <time>2024-07-31T08:55:51Z</time>
      </trkpt>
      <trkpt lat="47.29087" lon="6.24161">
        <ele>406</ele>
        <time>2024-07-31T08:55:52Z</time>
      </trkpt>
      <trkpt lat="47.29088" lon="6.24158">
        <ele>406</ele>
        <time>2024-07-31T08:55:53Z</time>
      </trkpt>
      <trkpt lat="47.29089" lon="6.24156">
        <ele>406</ele>
        <time>2024-07-31T08:55:54Z</time>
      </trkpt>
      <trkpt lat="47.2909" lon="6.24153">
        <ele>406.2</ele>
        <time>2024-07-31T08:55:55Z</time>
      </trkpt>
      <trkpt lat="47.29091" lon="6.24151">
        <ele>406.6</ele>
        <time>2024-07-31T08:55:56Z</time>
      </trkpt>
      <trkpt lat="47.29092" lon="6.24149">
        <ele>406.8</ele>
        <time>2024-07-31T08:55:57Z</time>
      </trkpt>
      <trkpt lat="47.29093" lon="6.24147">
        <ele>407</ele>
        <time>2024-07-31T08:55:58Z</time>
      </trkpt>
      <trkpt lat="47.29095" lon="6.24144">
        <ele>407.4</ele>
        <time>2024-07-31T08:55:59Z</time>
      </trkpt>
      <trkpt lat="47.29096" lon="6.24142">
        <ele>407.4</ele>
        <time>2024-07-31T08:56:00Z</time>
      </trkpt>
      <trkpt lat="47.29096" lon="6.24139">
        <ele>407.6</ele>
        <time>2024-07-31T08:56:01Z</time>
      </trkpt>
      <trkpt lat="47.29096" lon="6.24136">
        <ele>408</ele>
        <time>2024-07-31T08:56:02Z</time>
      </trkpt>
      <trkpt lat="47.29097" lon="6.24134">
        <ele>408.2</ele>
        <time>2024-07-31T08:56:03Z</time>
      </trkpt>
      <trkpt lat="47.29097" lon="6.24132">
        <ele>408.6</ele>
        <time>2024-07-31T08:56:04Z</time>
      </trkpt>
      <trkpt lat="47.29098" lon="6.24129">
        <ele>409</ele>
        <time>2024-07-31T08:56:05Z</time>
      </trkpt>
      <trkpt lat="47.29099" lon="6.24128">
        <ele>409.2</ele>
        <time>2024-07-31T08:56:06Z</time>
      </trkpt>
      <trkpt lat="47.29101" lon="6.24126">
        <ele>409.4</ele>
        <time>2024-07-31T08:56:07Z</time>
      </trkpt>
      <trkpt lat="47.29102" lon="6.24124">
        <ele>409.6</ele>
        <time>2024-07-31T08:56:08Z</time>
      </trkpt>
      <trkpt lat="47.29103" lon="6.24122">
        <ele>409.8</ele>
        <time>2024-07-31T08:56:09Z</time>
      </trkpt>
      <trkpt lat="47.29104" lon="6.2412">
        <ele>410.2</ele>
        <time>2024-07-31T08:56:10Z</time>
      </trkpt>
      <trkpt lat="47.29105" lon="6.24117">
        <ele>410.2</ele>
        <time>2024-07-31T08:56:11Z</time>
      </trkpt>
      <trkpt lat="47.29106" lon="6.24114">
        <ele>410.4</ele>
        <time>2024-07-31T08:56:12Z</time>
      </trkpt>
      <trkpt lat="47.29106" lon="6.24112">
        <ele>410.8</ele>
        <time>2024-07-31T08:56:13Z</time>
      </trkpt>
      <trkpt lat="47.29107" lon="6.24109">
        <ele>411.2</ele>
        <time>2024-07-31T08:56:14Z</time>
      </trkpt>
      <trkpt lat="47.29107" lon="6.24107">
        <ele>411.4</ele>
        <time>2024-07-31T08:56:15Z</time>
      </trkpt>
      <trkpt lat="47.29108" lon="6.24104">
        <ele>411.4</ele>
        <time>2024-07-31T08:56:16Z</time>
      </trkpt>
      <trkpt lat="47.29109" lon="6.24102">
        <ele>411.8</ele>
        <time>2024-07-31T08:56:17Z</time>
      </trkpt>
      <trkpt lat="47.2911" lon="6.24099">
        <ele>412.2</ele>
        <time>2024-07-31T08:56:18Z</time>
      </trkpt>
      <trkpt lat="47.29111" lon="6.24097">
        <ele>412.6</ele>
        <time>2024-07-31T08:56:19Z</time>
      </trkpt>
      <trkpt lat="47.29111" lon="6.24095">
        <ele>412.8</ele>
        <time>2024-07-31T08:56:20Z</time>
      </trkpt>
      <trkpt lat="47.29112" lon="6.24092">
        <ele>413</ele>
        <time>2024-07-31T08:56:21Z</time>
      </trkpt>
      <trkpt lat="47.29113" lon="6.2409">
        <ele>413</ele>
        <time>2024-07-31T08:56:22Z</time>
      </trkpt>
      <trkpt lat="47.29114" lon="6.24087">
        <ele>413.4</ele>
        <time>2024-07-31T08:56:23Z</time>
      </trkpt>
      <trkpt lat="47.29115" lon="6.24085">
        <ele>413.6</ele>
        <time>2024-07-31T08:56:24Z</time>
      </trkpt>
      <trkpt lat="47.29115" lon="6.24082">
        <ele>413.8</ele>
        <time>2024-07-31T08:56:25Z</time>
      </trkpt>
      <trkpt lat="47.29116" lon="6.2408">
        <ele>413.8</ele>
        <time>2024-07-31T08:56:26Z</time>
      </trkpt>
      <trkpt lat="47.29116" lon="6.24077">
        <ele>414.2</ele>
        <time>2024-07-31T08:56:27Z</time>
      </trkpt>
      <trkpt lat="47.29117" lon="6.24074">
        <ele>414.4</ele>
        <time>2024-07-31T08:56:28Z</time>
      </trkpt>
      <trkpt lat="47.29118" lon="6.24072">
        <ele>414.6</ele>
        <time>2024-07-31T08:56:29Z</time>
      </trkpt>
      <trkpt lat="47.29119" lon="6.24069">
        <ele>415</ele>
        <time>2024-07-31T08:56:30Z</time>
      </trkpt>
      <trkpt lat="47.2912" lon="6.24067">
        <ele>415.2</ele>
        <time>2024-07-31T08:56:31Z</time>
      </trkpt>
      <trkpt lat="47.29121" lon="6.24064">
        <ele>415.4</ele>
        <time>2024-07-31T08:56:32Z</time>
      </trkpt>
      <trkpt lat="47.29121" lon="6.24062">
        <ele>415.8</ele>
        <time>2024-07-31T08:56:33Z</time>
      </trkpt>
      <trkpt lat="47.29122" lon="6.24059">
        <ele>415.8</ele>
        <time>2024-07-31T08:56:34Z</time>
      </trkpt>
      <trkpt lat="47.29123" lon="6.24057">
        <ele>416.2</ele>
        <time>2024-07-31T08:56:35Z</time>
      </trkpt>
      <trkpt lat="47.29124" lon="6.24054">
        <ele>416.2</ele>
        <time>2024-07-31T08:56:36Z</time>
      </trkpt>
      <trkpt lat="47.29124" lon="6.24052">
        <ele>416.6</ele>
        <time>2024-07-31T08:56:37Z</time>
      </trkpt>
      <trkpt lat="47.29125" lon="6.24049">
        <ele>416.6</ele>
        <time>2024-07-31T08:56:38Z</time>
      </trkpt>
      <trkpt lat="47.29126" lon="6.24047">
        <ele>416.8</ele>
        <time>2024-07-31T08:56:39Z</time>
      </trkpt>
      <trkpt lat="47.29127" lon="6.24044">
        <ele>417</ele>
        <time>2024-07-31T08:56:40Z</time>
      </trkpt>
      <trkpt lat="47.29127" lon="6.24041">
        <ele>417.2</ele>
        <time>2024-07-31T08:56:41Z</time>
      </trkpt>
      <trkpt lat="47.29127" lon="6.24038">
        <ele>417.4</ele>
        <time>2024-07-31T08:56:42Z</time>
      </trkpt>
      <trkpt lat="47.29128" lon="6.24036">
        <ele>417.6</ele>
        <time>2024-07-31T08:56:43Z</time>
      </trkpt>
      <trkpt lat="47.29129" lon="6.24034">
        <ele>417.6</ele>
        <time>2024-07-31T08:56:44Z</time>
      </trkpt>
      <trkpt lat="47.29131" lon="6.24032">
        <ele>417.8</ele>
        <time>2024-07-31T08:56:45Z</time>
      </trkpt>
      <trkpt lat="47.29132" lon="6.2403">
        <ele>418</ele>
        <time>2024-07-31T08:56:46Z</time>
      </trkpt>
      <trkpt lat="47.29134" lon="6.24029">
        <ele>418.2</ele>
        <time>2024-07-31T08:56:47Z</time>
      </trkpt>
      <trkpt lat="47.29135" lon="6.24028">
        <ele>418.6</ele>
        <time>2024-07-31T08:56:48Z</time>
      </trkpt>
      <trkpt lat="47.29137" lon="6.24028">
        <ele>419</ele>
        <time>2024-07-31T08:56:49Z</time>
      </trkpt>
      <trkpt lat="47.29139" lon="6.24029">
        <ele>419.2</ele>
        <time>2024-07-31T08:56:50Z</time>
      </trkpt>
      <trkpt lat="47.29141" lon="6.2403">
        <ele>419.4</ele>
        <time>2024-07-31T08:56:51Z</time>
      </trkpt>
      <trkpt lat="47.29142" lon="6.24032">
        <ele>419.4</ele>
        <time>2024-07-31T08:56:52Z</time>
      </trkpt>
      <trkpt lat="47.29144" lon="6.24033">
        <ele>419.6</ele>
        <time>2024-07-31T08:56:53Z</time>
      </trkpt>
      <trkpt lat="47.29145" lon="6.24035">
        <ele>419.8</ele>
        <time>2024-07-31T08:56:54Z</time>
      </trkpt>
      <trkpt lat="47.29146" lon="6.24038">
        <ele>420.4</ele>
        <time>2024-07-31T08:56:55Z</time>
      </trkpt>
      <trkpt lat="47.29148" lon="6.2404">
        <ele>420.6</ele>
        <time>2024-07-31T08:56:56Z</time>
      </trkpt>
      <trkpt lat="47.29149" lon="6.24042">
        <ele>420.6</ele>
        <time>2024-07-31T08:56:57Z</time>
      </trkpt>
      <trkpt lat="47.2915" lon="6.24044">
        <ele>420.8</ele>
        <time>2024-07-31T08:56:58Z</time>
      </trkpt>
      <trkpt lat="47.29151" lon="6.24047">
        <ele>420.8</ele>
        <time>2024-07-31T08:56:59Z</time>
      </trkpt>
      <trkpt lat="47.29152" lon="6.24049">
        <ele>420.8</ele>
        <time>2024-07-31T08:57:00Z</time>
      </trkpt>
      <trkpt lat="47.29154" lon="6.24051">
        <ele>421.2</ele>
        <time>2024-07-31T08:57:01Z</time>
      </trkpt>
      <trkpt lat="47.29155" lon="6.24053">
        <ele>421.4</ele>
        <time>2024-07-31T08:57:02Z</time>
      </trkpt>
      <trkpt lat="47.29156" lon="6.24055">
        <ele>421.6</ele>
        <time>2024-07-31T08:57:03Z</time>
      </trkpt>
      <trkpt lat="47.29158" lon="6.24057">
        <ele>422</ele>
        <time>2024-07-31T08:57:04Z</time>
      </trkpt>
      <trkpt lat="47.29159" lon="6.24059">
        <ele>422.2</ele>
        <time>2024-07-31T08:57:05Z</time>
      </trkpt>
      <trkpt lat="47.2916" lon="6.24061">
        <ele>422.4</ele>
        <time>2024-07-31T08:57:06Z</time>
      </trkpt>
      <trkpt lat="47.29162" lon="6.24064">
        <ele>422.6</ele>
        <time>2024-07-31T08:57:07Z</time>
      </trkpt>
      <trkpt lat="47.29163" lon="6.24066">
        <ele>422.6</ele>
        <time>2024-07-31T08:57:08Z</time>
      </trkpt>
      <trkpt lat="47.29164" lon="6.24069">
        <ele>423</ele>
        <time>2024-07-31T08:57:09Z</time>
      </trkpt>
      <trkpt lat="47.29166" lon="6.24071">
        <ele>423</ele>
        <time>2024-07-31T08:57:10Z</time>
      </trkpt>
      <trkpt lat="47.29167" lon="6.24073">
        <ele>423.2</ele>
        <time>2024-07-31T08:57:11Z</time>
      </trkpt>
      <trkpt lat="47.29169" lon="6.24075">
        <ele>423.4</ele>
        <time>2024-07-31T08:57:12Z</time>
      </trkpt>
      <trkpt lat="47.29171" lon="6.24077">
        <ele>424</ele>
        <time>2024-07-31T08:57:13Z</time>
      </trkpt>
      <trkpt lat="47.29172" lon="6.24078">
        <ele>424.2</ele>
        <time>2024-07-31T08:57:14Z</time>
      </trkpt>
      <trkpt lat="47.29174" lon="6.24079">
        <ele>424.6</ele>
        <time>2024-07-31T08:57:15Z</time>
      </trkpt>
      <trkpt lat="47.29176" lon="6.24079">
        <ele>425</ele>
        <time>2024-07-31T08:57:16Z</time>
      </trkpt>
      <trkpt lat="47.29178" lon="6.2408">
        <ele>425.2</ele>
        <time>2024-07-31T08:57:17Z</time>
      </trkpt>
      <trkpt lat="47.29179" lon="6.24082">
        <ele>425.6</ele>
        <time>2024-07-31T08:57:18Z</time>
      </trkpt>
      <trkpt lat="47.29181" lon="6.24084">
        <ele>425.8</ele>
        <time>2024-07-31T08:57:19Z</time>
      </trkpt>
      <trkpt lat="47.29182" lon="6.24086">
        <ele>426.2</ele>
        <time>2024-07-31T08:57:20Z</time>
      </trkpt>
      <trkpt lat="47.29184" lon="6.24087">
        <ele>426.2</ele>
        <time>2024-07-31T08:57:21Z</time>
      </trkpt>
      <trkpt lat="47.29186" lon="6.24089">
        <ele>426.6</ele>
        <time>2024-07-31T08:57:22Z</time>
      </trkpt>
      <trkpt lat="47.29187" lon="6.2409">
        <ele>426.6</ele>
        <time>2024-07-31T08:57:23Z</time>
      </trkpt>
      <trkpt lat="47.29189" lon="6.24092">
        <ele>426.8</ele>
        <time>2024-07-31T08:57:24Z</time>
      </trkpt>
      <trkpt lat="47.29191" lon="6.24092">
        <ele>427.2</ele>
        <time>2024-07-31T08:57:25Z</time>
      </trkpt>
      <trkpt lat="47.29193" lon="6.24093">
        <ele>427.2</ele>
        <time>2024-07-31T08:57:26Z</time>
      </trkpt>
      <trkpt lat="47.29195" lon="6.24094">
        <ele>427.4</ele>
        <time>2024-07-31T08:57:27Z</time>
      </trkpt>
      <trkpt lat="47.29196" lon="6.24095">
        <ele>427.8</ele>
        <time>2024-07-31T08:57:28Z</time>
      </trkpt>
      <trkpt lat="47.29198" lon="6.24095">
        <ele>428</ele>
        <time>2024-07-31T08:57:29Z</time>
      </trkpt>
      <trkpt lat="47.292" lon="6.24096">
        <ele>428.2</ele>
        <time>2024-07-31T08:57:30Z</time>
      </trkpt>
      <trkpt lat="47.29201" lon="6.24097">
        <ele>428.4</ele>
        <time>2024-07-31T08:57:31Z</time>
      </trkpt>
      <trkpt lat="47.29202" lon="6.24099">
        <ele>428.6</ele>
        <time>2024-07-31T08:57:32Z</time>
      </trkpt>
      <trkpt lat="47.29204" lon="6.241">
        <ele>428.8</ele>
        <time>2024-07-31T08:57:33Z</time>
      </trkpt>
      <trkpt lat="47.29205" lon="6.24102">
        <ele>429.2</ele>
        <time>2024-07-31T08:57:34Z</time>
      </trkpt>
      <trkpt lat="47.29207" lon="6.24103">
        <ele>429.4</ele>
        <time>2024-07-31T08:57:35Z</time>
      </trkpt>
      <trkpt lat="47.29209" lon="6.24103">
        <ele>429.6</ele>
        <time>2024-07-31T08:57:36Z</time>
      </trkpt>
      <trkpt lat="47.2921" lon="6.24103">
        <ele>429.8</ele>
        <time>2024-07-31T08:57:37Z</time>
      </trkpt>
      <trkpt lat="47.29212" lon="6.24102">
        <ele>430</ele>
        <time>2024-07-31T08:57:38Z</time>
      </trkpt>
      <trkpt lat="47.29214" lon="6.24102">
        <ele>430.2</ele>
        <time>2024-07-31T08:57:39Z</time>
      </trkpt>
      <trkpt lat="47.29215" lon="6.24104">
        <ele>430.4</ele>
        <time>2024-07-31T08:57:40Z</time>
      </trkpt>
      <trkpt lat="47.29216" lon="6.24105">
        <ele>430.8</ele>
        <time>2024-07-31T08:57:41Z</time>
      </trkpt>
      <trkpt lat="47.29218" lon="6.24107">
        <ele>430.8</ele>
        <time>2024-07-31T08:57:42Z</time>
      </trkpt>
      <trkpt lat="47.29219" lon="6.24109">
        <ele>431</ele>
        <time>2024-07-31T08:57:43Z</time>
      </trkpt>
      <trkpt lat="47.29221" lon="6.24111">
        <ele>431.2</ele>
        <time>2024-07-31T08:57:44Z</time>
      </trkpt>
      <trkpt lat="47.29223" lon="6.24112">
        <ele>431.2</ele>
        <time>2024-07-31T08:57:45Z</time>
      </trkpt>
      <trkpt lat="47.29224" lon="6.24113">
        <ele>431.6</ele>
        <time>2024-07-31T08:57:46Z</time>
      </trkpt>
      <trkpt lat="47.29226" lon="6.24113">
        <ele>431.8</ele>
        <time>2024-07-31T08:57:47Z</time>
      </trkpt>
      <trkpt lat="47.29228" lon="6.24114">
        <ele>432</ele>
        <time>2024-07-31T08:57:48Z</time>
      </trkpt>
      <trkpt lat="47.2923" lon="6.24114">
        <ele>432.2</ele>
        <time>2024-07-31T08:57:49Z</time>
      </trkpt>
      <trkpt lat="47.29231" lon="6.24115">
        <ele>432.6</ele>
        <time>2024-07-31T08:57:50Z</time>
      </trkpt>
      <trkpt lat="47.29233" lon="6.24116">
        <ele>433</ele>
        <time>2024-07-31T08:57:51Z</time>
      </trkpt>
      <trkpt lat="47.29235" lon="6.24117">
        <ele>433</ele>
        <time>2024-07-31T08:57:52Z</time>
      </trkpt>
      <trkpt lat="47.29236" lon="6.24118">
        <ele>433.4</ele>
        <time>2024-07-31T08:57:53Z</time>
      </trkpt>
      <trkpt lat="47.29238" lon="6.24119">
        <ele>433.6</ele>
        <time>2024-07-31T08:57:54Z</time>
      </trkpt>
      <trkpt lat="47.2924" lon="6.2412">
        <ele>433.6</ele>
        <time>2024-07-31T08:57:55Z</time>
      </trkpt>
      <trkpt lat="47.29242" lon="6.24121">
        <ele>433.8</ele>
        <time>2024-07-31T08:57:56Z</time>
      </trkpt>
      <trkpt lat="47.29244" lon="6.24121">
        <ele>434</ele>
        <time>2024-07-31T08:57:57Z</time>
      </trkpt>
      <trkpt lat="47.29245" lon="6.24121">
        <ele>434.2</ele>
        <time>2024-07-31T08:57:58Z</time>
      </trkpt>
      <trkpt lat="47.29247" lon="6.24122">
        <ele>434.6</ele>
        <time>2024-07-31T08:57:59Z</time>
      </trkpt>
      <trkpt lat="47.29249" lon="6.24123">
        <ele>434.6</ele>
        <time>2024-07-31T08:58:00Z</time>
      </trkpt>
      <trkpt lat="47.29251" lon="6.24124">
        <ele>435</ele>
        <time>2024-07-31T08:58:01Z</time>
      </trkpt>
      <trkpt lat="47.29253" lon="6.24125">
        <ele>435.2</ele>
        <time>2024-07-31T08:58:02Z</time>
      </trkpt>
      <trkpt lat="47.29254" lon="6.24126">
        <ele>435.4</ele>
        <time>2024-07-31T08:58:03Z</time>
      </trkpt>
      <trkpt lat="47.29256" lon="6.24127">
        <ele>435.8</ele>
        <time>2024-07-31T08:58:04Z</time>
      </trkpt>
      <trkpt lat="47.29258" lon="6.24127">
        <ele>436</ele>
        <time>2024-07-31T08:58:05Z</time>
      </trkpt>
      <trkpt lat="47.2926" lon="6.24127">
        <ele>436.2</ele>
        <time>2024-07-31T08:58:06Z</time>
      </trkpt>
      <trkpt lat="47.29261" lon="6.24128">
        <ele>436.2</ele>
        <time>2024-07-31T08:58:07Z</time>
      </trkpt>
      <trkpt lat="47.29263" lon="6.24128">
        <ele>436.6</ele>
        <time>2024-07-31T08:58:08Z</time>
      </trkpt>
      <trkpt lat="47.29264" lon="6.24129">
        <ele>436.6</ele>
        <time>2024-07-31T08:58:09Z</time>
      </trkpt>
      <trkpt lat="47.29265" lon="6.24129">
        <ele>436.8</ele>
        <time>2024-07-31T08:58:10Z</time>
      </trkpt>
      <trkpt lat="47.29267" lon="6.24128">
        <ele>437</ele>
        <time>2024-07-31T08:58:11Z</time>
      </trkpt>
      <trkpt lat="47.29269" lon="6.24127">
        <ele>437.4</ele>
        <time>2024-07-31T08:58:12Z</time>
      </trkpt>
      <trkpt lat="47.2927" lon="6.24126">
        <ele>437.6</ele>
        <time>2024-07-31T08:58:13Z</time>
      </trkpt>
      <trkpt lat="47.29271" lon="6.24124">
        <ele>438</ele>
        <time>2024-07-31T08:58:14Z</time>
      </trkpt>
      <trkpt lat="47.29272" lon="6.24122">
        <ele>438.2</ele>
        <time>2024-07-31T08:58:15Z</time>
      </trkpt>
      <trkpt lat="47.29273" lon="6.2412">
        <ele>438.6</ele>
        <time>2024-07-31T08:58:16Z</time>
      </trkpt>
      <trkpt lat="47.29273" lon="6.24118">
        <ele>438.8</ele>
        <time>2024-07-31T08:58:17Z</time>
      </trkpt>
      <trkpt lat="47.29272" lon="6.24116">
        <ele>438.8</ele>
        <time>2024-07-31T08:58:18Z</time>
      </trkpt>
      <trkpt lat="47.29271" lon="6.24113">
        <ele>439</ele>
        <time>2024-07-31T08:58:19Z</time>
      </trkpt>
      <trkpt lat="47.29271" lon="6.24111">
        <ele>439</ele>
        <time>2024-07-31T08:58:20Z</time>
      </trkpt>
      <trkpt lat="47.2927" lon="6.24109">
        <ele>439.2</ele>
        <time>2024-07-31T08:58:21Z</time>
      </trkpt>
      <trkpt lat="47.2927" lon="6.24107">
        <ele>439.4</ele>
        <time>2024-07-31T08:58:22Z</time>
      </trkpt>
      <trkpt lat="47.29269" lon="6.24105">
        <ele>439.6</ele>
        <time>2024-07-31T08:58:23Z</time>
      </trkpt>
      <trkpt lat="47.29269" lon="6.24102">
        <ele>439.8</ele>
        <time>2024-07-31T08:58:24Z</time>
      </trkpt>
      <trkpt lat="47.29269" lon="6.24099">
        <ele>440</ele>
        <time>2024-07-31T08:58:25Z</time>
      </trkpt>
      <trkpt lat="47.29269" lon="6.24097">
        <ele>440.2</ele>
        <time>2024-07-31T08:58:26Z</time>
      </trkpt>
      <trkpt lat="47.29269" lon="6.24094">
        <ele>440.4</ele>
        <time>2024-07-31T08:58:27Z</time>
      </trkpt>
      <trkpt lat="47.29269" lon="6.24091">
        <ele>440.2</ele>
        <time>2024-07-31T08:58:28Z</time>
      </trkpt>
      <trkpt lat="47.29269" lon="6.24088">
        <ele>440.2</ele>
        <time>2024-07-31T08:58:29Z</time>
      </trkpt>
      <trkpt lat="47.29269" lon="6.24085">
        <ele>440.6</ele>
        <time>2024-07-31T08:58:30Z</time>
      </trkpt>
      <trkpt lat="47.29268" lon="6.24083">
        <ele>440.6</ele>
        <time>2024-07-31T08:58:31Z</time>
      </trkpt>
      <trkpt lat="47.29268" lon="6.2408">
        <ele>441</ele>
        <time>2024-07-31T08:58:32Z</time>
      </trkpt>
      <trkpt lat="47.29268" lon="6.24077">
        <ele>441.2</ele>
        <time>2024-07-31T08:58:33Z</time>
      </trkpt>
      <trkpt lat="47.29268" lon="6.24074">
        <ele>441.2</ele>
        <time>2024-07-31T08:58:34Z</time>
      </trkpt>
      <trkpt lat="47.29268" lon="6.24071">
        <ele>441.6</ele>
        <time>2024-07-31T08:58:35Z</time>
      </trkpt>
      <trkpt lat="47.29268" lon="6.24069">
        <ele>441.8</ele>
        <time>2024-07-31T08:58:36Z</time>
      </trkpt>
      <trkpt lat="47.29268" lon="6.24066">
        <ele>442</ele>
        <time>2024-07-31T08:58:37Z</time>
      </trkpt>
      <trkpt lat="47.29268" lon="6.24064">
        <ele>442</ele>
        <time>2024-07-31T08:58:38Z</time>
      </trkpt>
      <trkpt lat="47.29268" lon="6.24061">
        <ele>442</ele>
        <time>2024-07-31T08:58:39Z</time>
      </trkpt>
      <trkpt lat="47.29268" lon="6.24058">
        <ele>442.4</ele>
        <time>2024-07-31T08:58:40Z</time>
      </trkpt>
      <trkpt lat="47.29268" lon="6.24056">
        <ele>442.6</ele>
        <time>2024-07-31T08:58:41Z</time>
      </trkpt>
      <trkpt lat="47.29268" lon="6.24053">
        <ele>442.6</ele>
        <time>2024-07-31T08:58:42Z</time>
      </trkpt>
      <trkpt lat="47.29268" lon="6.2405">
        <ele>442.8</ele>
        <time>2024-07-31T08:58:43Z</time>
      </trkpt>
      <trkpt lat="47.29268" lon="6.24048">
        <ele>443</ele>
        <time>2024-07-31T08:58:44Z</time>
      </trkpt>
      <trkpt lat="47.29268" lon="6.24045">
        <ele>443.2</ele>
        <time>2024-07-31T08:58:45Z</time>
      </trkpt>
      <trkpt lat="47.29268" lon="6.24042">
        <ele>443.4</ele>
        <time>2024-07-31T08:58:46Z</time>
      </trkpt>
      <trkpt lat="47.29268" lon="6.2404">
        <ele>443.4</ele>
        <time>2024-07-31T08:58:47Z</time>
      </trkpt>
      <trkpt lat="47.29268" lon="6.24037">
        <ele>443.4</ele>
        <time>2024-07-31T08:58:48Z</time>
      </trkpt>
      <trkpt lat="47.29268" lon="6.24035">
        <ele>444</ele>
        <time>2024-07-31T08:58:49Z</time>
      </trkpt>
      <trkpt lat="47.29269" lon="6.24033">
        <ele>444.4</ele>
        <time>2024-07-31T08:58:50Z</time>
      </trkpt>
      <trkpt lat="47.29269" lon="6.24031">
        <ele>444.4</ele>
        <time>2024-07-31T08:58:51Z</time>
      </trkpt>
      <trkpt lat="47.29269" lon="6.24029">
        <ele>444.2</ele>
        <time>2024-07-31T08:58:52Z</time>
      </trkpt>
      <trkpt lat="47.2927" lon="6.24029">
        <ele>444.4</ele>
        <time>2024-07-31T08:58:53Z</time>
      </trkpt>
      <trkpt lat="47.2927" lon="6.24029">
        <ele>444.4</ele>
        <time>2024-07-31T08:58:54Z</time>
      </trkpt>
      <trkpt lat="47.2927" lon="6.24029">
        <ele>444.4</ele>
        <time>2024-07-31T08:58:55Z</time>
      </trkpt>
      <trkpt lat="47.2927" lon="6.24029">
        <ele>444.2</ele>
        <time>2024-07-31T08:58:56Z</time>
      </trkpt>
      <trkpt lat="47.2927" lon="6.24029">
        <ele>444</ele>
        <time>2024-07-31T08:58:57Z</time>
      </trkpt>
      <trkpt lat="47.2927" lon="6.24029">
        <ele>444</ele>
        <time>2024-07-31T08:58:58Z</time>
      </trkpt>
      <trkpt lat="47.2927" lon="6.24029">
        <ele>444</ele>
        <time>2024-07-31T08:58:59Z</time>
      </trkpt>
      <trkpt lat="47.2927" lon="6.24029">
        <ele>444.2</ele>
        <time>2024-07-31T08:59:00Z</time>
      </trkpt>
      <trkpt lat="47.2927" lon="6.24029">
        <ele>444.2</ele>
        <time>2024-07-31T08:59:01Z</time>
      </trkpt>
      <trkpt lat="47.2927" lon="6.24029">
        <ele>444.2</ele>
        <time>2024-07-31T08:59:02Z</time>
      </trkpt>
      <trkpt lat="47.2927" lon="6.24029">
        <ele>444.4</ele>
        <time>2024-07-31T08:59:03Z</time>
      </trkpt>
      <trkpt lat="47.2927" lon="6.24029">
        <ele>444.6</ele>
        <time>2024-07-31T08:59:04Z</time>
      </trkpt>
      <trkpt lat="47.2927" lon="6.24029">
        <ele>444.4</ele>
        <time>2024-07-31T08:59:05Z</time>
      </trkpt>
      <trkpt lat="47.2927" lon="6.24029">
        <ele>444.6</ele>
        <time>2024-07-31T08:59:06Z</time>
      </trkpt>
      <trkpt lat="47.2927" lon="6.24029">
        <ele>444.6</ele>
        <time>2024-07-31T08:59:07Z</time>
      </trkpt>
      <trkpt lat="47.2927" lon="6.24029">
        <ele>444.6</ele>
        <time>2024-07-31T08:59:08Z</time>
      </trkpt>
      <trkpt lat="47.2927" lon="6.24029">
        <ele>444.6</ele>
        <time>2024-07-31T08:59:09Z</time>
      </trkpt>
      <trkpt lat="47.2927" lon="6.24029">
        <ele>444.6</ele>
        <time>2024-07-31T08:59:10Z</time>
      </trkpt>
      <trkpt lat="47.2927" lon="6.2403">
        <ele>444.6</ele>
        <time>2024-07-31T08:59:11Z</time>
      </trkpt>
      <trkpt lat="47.2927" lon="6.24028">
        <ele>444.8</ele>
        <time>2024-07-31T08:59:12Z</time>
      </trkpt>
      <trkpt lat="47.2927" lon="6.24027">
        <ele>444.8</ele>
        <time>2024-07-31T08:59:13Z</time>
      </trkpt>
      <trkpt lat="47.2927" lon="6.24024">
        <ele>444.8</ele>
        <time>2024-07-31T08:59:14Z</time>
      </trkpt>
      <trkpt lat="47.2927" lon="6.24022">
        <ele>445</ele>
        <time>2024-07-31T08:59:15Z</time>
      </trkpt>
      <trkpt lat="47.2927" lon="6.2402">
        <ele>445.2</ele>
        <time>2024-07-31T08:59:16Z</time>
      </trkpt>
      <trkpt lat="47.2927" lon="6.24017">
        <ele>445.4</ele>
        <time>2024-07-31T08:59:17Z</time>
      </trkpt>
      <trkpt lat="47.2927" lon="6.24015">
        <ele>445.6</ele>
        <time>2024-07-31T08:59:18Z</time>
      </trkpt>
      <trkpt lat="47.2927" lon="6.24012">
        <ele>446</ele>
        <time>2024-07-31T08:59:19Z</time>
      </trkpt>
      <trkpt lat="47.2927" lon="6.24009">
        <ele>446.2</ele>
        <time>2024-07-31T08:59:20Z</time>
      </trkpt>
      <trkpt lat="47.2927" lon="6.24007">
        <ele>446.2</ele>
        <time>2024-07-31T08:59:21Z</time>
      </trkpt>
      <trkpt lat="47.2927" lon="6.24004">
        <ele>446.4</ele>
        <time>2024-07-31T08:59:22Z</time>
      </trkpt>
      <trkpt lat="47.29271" lon="6.24001">
        <ele>446.6</ele>
        <time>2024-07-31T08:59:23Z</time>
      </trkpt>
      <trkpt lat="47.29271" lon="6.23999">
        <ele>447</ele>
        <time>2024-07-31T08:59:24Z</time>
      </trkpt>
      <trkpt lat="47.29271" lon="6.23996">
        <ele>447</ele>
        <time>2024-07-31T08:59:25Z</time>
      </trkpt>
      <trkpt lat="47.29272" lon="6.23994">
        <ele>447.2</ele>
        <time>2024-07-31T08:59:26Z</time>
      </trkpt>
      <trkpt lat="47.29272" lon="6.23991">
        <ele>447.4</ele>
        <time>2024-07-31T08:59:27Z</time>
      </trkpt>
      <trkpt lat="47.29273" lon="6.23989">
        <ele>448</ele>
        <time>2024-07-31T08:59:28Z</time>
      </trkpt>
      <trkpt lat="47.29273" lon="6.23986">
        <ele>447.8</ele>
        <time>2024-07-31T08:59:29Z</time>
      </trkpt>
      <trkpt lat="47.29274" lon="6.23983">
        <ele>448.6</ele>
        <time>2024-07-31T08:59:30Z</time>
      </trkpt>
      <trkpt lat="47.29274" lon="6.2398">
        <ele>448.6</ele>
        <time>2024-07-31T08:59:31Z</time>
      </trkpt>
      <trkpt lat="47.29275" lon="6.23977">
        <ele>448.6</ele>
        <time>2024-07-31T08:59:32Z</time>
      </trkpt>
      <trkpt lat="47.29276" lon="6.23974">
        <ele>448.8</ele>
        <time>2024-07-31T08:59:33Z</time>
      </trkpt>
      <trkpt lat="47.29276" lon="6.23972">
        <ele>449</ele>
        <time>2024-07-31T08:59:34Z</time>
      </trkpt>
      <trkpt lat="47.29277" lon="6.23969">
        <ele>449</ele>
        <time>2024-07-31T08:59:35Z</time>
      </trkpt>
      <trkpt lat="47.29278" lon="6.23967">
        <ele>449.2</ele>
        <time>2024-07-31T08:59:36Z</time>
      </trkpt>
      <trkpt lat="47.29279" lon="6.23965">
        <ele>449.4</ele>
        <time>2024-07-31T08:59:37Z</time>
      </trkpt>
      <trkpt lat="47.2928" lon="6.23962">
        <ele>449.6</ele>
        <time>2024-07-31T08:59:38Z</time>
      </trkpt>
      <trkpt lat="47.29281" lon="6.2396">
        <ele>449.8</ele>
        <time>2024-07-31T08:59:39Z</time>
      </trkpt>
      <trkpt lat="47.29282" lon="6.23958">
        <ele>450.2</ele>
        <time>2024-07-31T08:59:40Z</time>
      </trkpt>
      <trkpt lat="47.29283" lon="6.23956">
        <ele>450.4</ele>
        <time>2024-07-31T08:59:41Z</time>
      </trkpt>
      <trkpt lat="47.29284" lon="6.23955">
        <ele>450.2</ele>
        <time>2024-07-31T08:59:42Z</time>
      </trkpt>
      <trkpt lat="47.29286" lon="6.23953">
        <ele>450.8</ele>
        <time>2024-07-31T08:59:43Z</time>
      </trkpt>
      <trkpt lat="47.29287" lon="6.23951">
        <ele>451</ele>
        <time>2024-07-31T08:59:44Z</time>
      </trkpt>
      <trkpt lat="47.29288" lon="6.23949">
        <ele>451</ele>
        <time>2024-07-31T08:59:45Z</time>
      </trkpt>
      <trkpt lat="47.29289" lon="6.23947">
        <ele>451.4</ele>
        <time>2024-07-31T08:59:46Z</time>
      </trkpt>
      <trkpt lat="47.2929" lon="6.23945">
        <ele>451.8</ele>
        <time>2024-07-31T08:59:47Z</time>
      </trkpt>
      <trkpt lat="47.29291" lon="6.23943">
        <ele>451.8</ele>
        <time>2024-07-31T08:59:48Z</time>
      </trkpt>
      <trkpt lat="47.29292" lon="6.23942">
        <ele>452</ele>
        <time>2024-07-31T08:59:49Z</time>
      </trkpt>
      <trkpt lat="47.29294" lon="6.23941">
        <ele>452.2</ele>
        <time>2024-07-31T08:59:50Z</time>
      </trkpt>
      <trkpt lat="47.29296" lon="6.2394">
        <ele>452.2</ele>
        <time>2024-07-31T08:59:51Z</time>
      </trkpt>
      <trkpt lat="47.29297" lon="6.23938">
        <ele>452.6</ele>
        <time>2024-07-31T08:59:52Z</time>
      </trkpt>
      <trkpt lat="47.29299" lon="6.23937">
        <ele>452.8</ele>
        <time>2024-07-31T08:59:53Z</time>
      </trkpt>
      <trkpt lat="47.293" lon="6.23936">
        <ele>452.8</ele>
        <time>2024-07-31T08:59:54Z</time>
      </trkpt>
      <trkpt lat="47.29301" lon="6.23935">
        <ele>453</ele>
        <time>2024-07-31T08:59:55Z</time>
      </trkpt>
      <trkpt lat="47.29303" lon="6.23934">
        <ele>453.2</ele>
        <time>2024-07-31T08:59:56Z</time>
      </trkpt>
      <trkpt lat="47.29304" lon="6.23933">
        <ele>453.2</ele>
        <time>2024-07-31T08:59:57Z</time>
      </trkpt>
      <trkpt lat="47.29305" lon="6.23932">
        <ele>453.6</ele>
        <time>2024-07-31T08:59:58Z</time>
      </trkpt>
      <trkpt lat="47.29306" lon="6.23932">
        <ele>453.8</ele>
        <time>2024-07-31T08:59:59Z</time>
      </trkpt>
      <trkpt lat="47.29307" lon="6.23931">
        <ele>454.2</ele>
        <time>2024-07-31T09:00:00Z</time>
      </trkpt>
      <trkpt lat="47.29309" lon="6.2393">
        <ele>454.2</ele>
        <time>2024-07-31T09:00:01Z</time>
      </trkpt>
      <trkpt lat="47.2931" lon="6.2393">
        <ele>454.6</ele>
        <time>2024-07-31T09:00:02Z</time>
      </trkpt>
      <trkpt lat="47.29311" lon="6.23928">
        <ele>454.6</ele>
        <time>2024-07-31T09:00:03Z</time>
      </trkpt>
      <trkpt lat="47.29312" lon="6.23927">
        <ele>455</ele>
        <time>2024-07-31T09:00:04Z</time>
      </trkpt>
      <trkpt lat="47.29313" lon="6.23925">
        <ele>455.4</ele>
        <time>2024-07-31T09:00:05Z</time>
      </trkpt>
      <trkpt lat="47.29314" lon="6.23924">
        <ele>455.6</ele>
        <time>2024-07-31T09:00:06Z</time>
      </trkpt>
      <trkpt lat="47.29316" lon="6.23922">
        <ele>455.8</ele>
        <time>2024-07-31T09:00:07Z</time>
      </trkpt>
      <trkpt lat="47.29317" lon="6.2392">
        <ele>456</ele>
        <time>2024-07-31T09:00:08Z</time>
      </trkpt>
      <trkpt lat="47.29318" lon="6.23919">
        <ele>456</ele>
        <time>2024-07-31T09:00:09Z</time>
      </trkpt>
      <trkpt lat="47.29318" lon="6.23917">
        <ele>456.6</ele>
        <time>2024-07-31T09:00:10Z</time>
      </trkpt>
      <trkpt lat="47.2932" lon="6.23916">
        <ele>456.6</ele>
        <time>2024-07-31T09:00:11Z</time>
      </trkpt>
      <trkpt lat="47.29321" lon="6.23915">
        <ele>457</ele>
        <time>2024-07-31T09:00:12Z</time>
      </trkpt>
      <trkpt lat="47.29322" lon="6.23913">
        <ele>457</ele>
        <time>2024-07-31T09:00:13Z</time>
      </trkpt>
      <trkpt lat="47.29323" lon="6.23912">
        <ele>457.4</ele>
        <time>2024-07-31T09:00:14Z</time>
      </trkpt>
      <trkpt lat="47.29324" lon="6.23911">
        <ele>457.6</ele>
        <time>2024-07-31T09:00:15Z</time>
      </trkpt>
      <trkpt lat="47.29326" lon="6.2391">
        <ele>457.6</ele>
        <time>2024-07-31T09:00:16Z</time>
      </trkpt>
      <trkpt lat="47.29327" lon="6.23908">
        <ele>457.8</ele>
        <time>2024-07-31T09:00:17Z</time>
      </trkpt>
      <trkpt lat="47.29328" lon="6.23907">
        <ele>458</ele>
        <time>2024-07-31T09:00:18Z</time>
      </trkpt>
      <trkpt lat="47.29329" lon="6.23906">
        <ele>458</ele>
        <time>2024-07-31T09:00:19Z</time>
      </trkpt>
      <trkpt lat="47.29331" lon="6.23904">
        <ele>458.2</ele>
        <time>2024-07-31T09:00:20Z</time>
      </trkpt>
      <trkpt lat="47.29332" lon="6.23902">
        <ele>458.4</ele>
        <time>2024-07-31T09:00:21Z</time>
      </trkpt>
      <trkpt lat="47.29333" lon="6.23901">
        <ele>458.6</ele>
        <time>2024-07-31T09:00:22Z</time>
      </trkpt>
      <trkpt lat="47.29335" lon="6.23899">
        <ele>458.6</ele>
        <time>2024-07-31T09:00:23Z</time>
      </trkpt>
      <trkpt lat="47.29336" lon="6.23897">
        <ele>459</ele>
        <time>2024-07-31T09:00:24Z</time>
      </trkpt>
      <trkpt lat="47.29338" lon="6.23896">
        <ele>459.2</ele>
        <time>2024-07-31T09:00:25Z</time>
      </trkpt>
      <trkpt lat="47.2934" lon="6.23894">
        <ele>459.4</ele>
        <time>2024-07-31T09:00:26Z</time>
      </trkpt>
      <trkpt lat="47.29341" lon="6.23893">
        <ele>459.6</ele>
        <time>2024-07-31T09:00:27Z</time>
      </trkpt>
      <trkpt lat="47.29343" lon="6.23891">
        <ele>459.8</ele>
        <time>2024-07-31T09:00:28Z</time>
      </trkpt>
      <trkpt lat="47.29345" lon="6.2389">
        <ele>459.8</ele>
        <time>2024-07-31T09:00:29Z</time>
      </trkpt>
      <trkpt lat="47.29346" lon="6.23888">
        <ele>460.4</ele>
        <time>2024-07-31T09:00:30Z</time>
      </trkpt>
      <trkpt lat="47.29348" lon="6.23887">
        <ele>460.4</ele>
        <time>2024-07-31T09:00:31Z</time>
      </trkpt>
      <trkpt lat="47.2935" lon="6.23885">
        <ele>460.8</ele>
        <time>2024-07-31T09:00:32Z</time>
      </trkpt>
      <trkpt lat="47.29352" lon="6.23884">
        <ele>460.6</ele>
        <time>2024-07-31T09:00:33Z</time>
      </trkpt>
      <trkpt lat="47.29353" lon="6.23883">
        <ele>460.8</ele>
        <time>2024-07-31T09:00:34Z</time>
      </trkpt>
      <trkpt lat="47.29355" lon="6.23881">
        <ele>461</ele>
        <time>2024-07-31T09:00:35Z</time>
      </trkpt>
      <trkpt lat="47.29357" lon="6.2388">
        <ele>461.4</ele>
        <time>2024-07-31T09:00:36Z</time>
      </trkpt>
      <trkpt lat="47.29358" lon="6.23878">
        <ele>461.6</ele>
        <time>2024-07-31T09:00:37Z</time>
      </trkpt>
      <trkpt lat="47.2936" lon="6.23877">
        <ele>461.6</ele>
        <time>2024-07-31T09:00:38Z</time>
      </trkpt>
      <trkpt lat="47.29362" lon="6.23875">
        <ele>462</ele>
        <time>2024-07-31T09:00:39Z</time>
      </trkpt>
      <trkpt lat="47.29364" lon="6.23874">
        <ele>462</ele>
        <time>2024-07-31T09:00:40Z</time>
      </trkpt>
      <trkpt lat="47.29365" lon="6.23873">
        <ele>462</ele>
        <time>2024-07-31T09:00:41Z</time>
      </trkpt>
      <trkpt lat="47.29367" lon="6.23871">
        <ele>462.2</ele>
        <time>2024-07-31T09:00:42Z</time>
      </trkpt>
      <trkpt lat="47.29368" lon="6.23869">
        <ele>462.4</ele>
        <time>2024-07-31T09:00:43Z</time>
      </trkpt>
      <trkpt lat="47.29369" lon="6.23868">
        <ele>462.4</ele>
        <time>2024-07-31T09:00:44Z</time>
      </trkpt>
      <trkpt lat="47.2937" lon="6.23866">
        <ele>463</ele>
        <time>2024-07-31T09:00:45Z</time>
      </trkpt>
      <trkpt lat="47.29371" lon="6.23864">
        <ele>463</ele>
        <time>2024-07-31T09:00:46Z</time>
      </trkpt>
      <trkpt lat="47.29372" lon="6.23862">
        <ele>463.2</ele>
        <time>2024-07-31T09:00:47Z</time>
      </trkpt>
      <trkpt lat="47.29372" lon="6.2386">
        <ele>463.6</ele>
        <time>2024-07-31T09:00:48Z</time>
      </trkpt>
      <trkpt lat="47.29372" lon="6.23857">
        <ele>463.8</ele>
        <time>2024-07-31T09:00:49Z</time>
      </trkpt>
      <trkpt lat="47.29372" lon="6.23855">
        <ele>463.6</ele>
        <time>2024-07-31T09:00:50Z</time>
      </trkpt>
      <trkpt lat="47.29372" lon="6.23853">
        <ele>464</ele>
        <time>2024-07-31T09:00:51Z</time>
      </trkpt>
      <trkpt lat="47.29371" lon="6.23851">
        <ele>464.2</ele>
        <time>2024-07-31T09:00:52Z</time>
      </trkpt>
      <trkpt lat="47.2937" lon="6.23849">
        <ele>464.4</ele>
        <time>2024-07-31T09:00:53Z</time>
      </trkpt>
      <trkpt lat="47.29369" lon="6.23847">
        <ele>464.8</ele>
        <time>2024-07-31T09:00:54Z</time>
      </trkpt>
      <trkpt lat="47.29369" lon="6.23846">
        <ele>465</ele>
        <time>2024-07-31T09:00:55Z</time>
      </trkpt>
      <trkpt lat="47.29368" lon="6.23844">
        <ele>465.2</ele>
        <time>2024-07-31T09:00:56Z</time>
      </trkpt>
      <trkpt lat="47.29367" lon="6.23843">
        <ele>465.4</ele>
        <time>2024-07-31T09:00:57Z</time>
      </trkpt>
      <trkpt lat="47.29367" lon="6.23842">
        <ele>465.6</ele>
        <time>2024-07-31T09:00:58Z</time>
      </trkpt>
      <trkpt lat="47.29366" lon="6.23841">
        <ele>466</ele>
        <time>2024-07-31T09:00:59Z</time>
      </trkpt>
      <trkpt lat="47.29365" lon="6.23839">
        <ele>466.4</ele>
        <time>2024-07-31T09:01:00Z</time>
      </trkpt>
      <trkpt lat="47.29364" lon="6.23839">
        <ele>466.6</ele>
        <time>2024-07-31T09:01:01Z</time>
      </trkpt>
      <trkpt lat="47.29363" lon="6.23838">
        <ele>466.6</ele>
        <time>2024-07-31T09:01:02Z</time>
      </trkpt>
      <trkpt lat="47.29362" lon="6.23837">
        <ele>466.6</ele>
        <time>2024-07-31T09:01:03Z</time>
      </trkpt>
      <trkpt lat="47.29361" lon="6.23836">
        <ele>467</ele>
        <time>2024-07-31T09:01:04Z</time>
      </trkpt>
      <trkpt lat="47.2936" lon="6.23835">
        <ele>467.2</ele>
        <time>2024-07-31T09:01:05Z</time>
      </trkpt>
      <trkpt lat="47.29358" lon="6.23833">
        <ele>467.4</ele>
        <time>2024-07-31T09:01:06Z</time>
      </trkpt>
      <trkpt lat="47.29357" lon="6.23832">
        <ele>467.8</ele>
        <time>2024-07-31T09:01:07Z</time>
      </trkpt>
      <trkpt lat="47.29356" lon="6.23831">
        <ele>468</ele>
        <time>2024-07-31T09:01:08Z</time>
      </trkpt>
      <trkpt lat="47.29355" lon="6.23829">
        <ele>468.2</ele>
        <time>2024-07-31T09:01:09Z</time>
      </trkpt>
      <trkpt lat="47.29354" lon="6.23828">
        <ele>468.6</ele>
        <time>2024-07-31T09:01:10Z</time>
      </trkpt>
      <trkpt lat="47.29353" lon="6.23826">
        <ele>468.8</ele>
        <time>2024-07-31T09:01:11Z</time>
      </trkpt>
      <trkpt lat="47.29352" lon="6.23824">
        <ele>469.4</ele>
        <time>2024-07-31T09:01:12Z</time>
      </trkpt>
      <trkpt lat="47.29351" lon="6.23822">
        <ele>469.6</ele>
        <time>2024-07-31T09:01:13Z</time>
      </trkpt>
      <trkpt lat="47.29349" lon="6.2382">
        <ele>470</ele>
        <time>2024-07-31T09:01:14Z</time>
      </trkpt>
      <trkpt lat="47.29348" lon="6.23818">
        <ele>470.2</ele>
        <time>2024-07-31T09:01:15Z</time>
      </trkpt>
      <trkpt lat="47.29347" lon="6.23816">
        <ele>470.4</ele>
        <time>2024-07-31T09:01:16Z</time>
      </trkpt>
      <trkpt lat="47.29346" lon="6.23814">
        <ele>470.8</ele>
        <time>2024-07-31T09:01:17Z</time>
      </trkpt>
      <trkpt lat="47.29345" lon="6.23812">
        <ele>471.2</ele>
        <time>2024-07-31T09:01:18Z</time>
      </trkpt>
      <trkpt lat="47.29344" lon="6.23811">
        <ele>471.6</ele>
        <time>2024-07-31T09:01:19Z</time>
      </trkpt>
      <trkpt lat="47.29343" lon="6.23809">
        <ele>471.8</ele>
        <time>2024-07-31T09:01:20Z</time>
      </trkpt>
      <trkpt lat="47.29342" lon="6.23806">
        <ele>471.8</ele>
        <time>2024-07-31T09:01:21Z</time>
      </trkpt>
      <trkpt lat="47.29342" lon="6.23805">
        <ele>472</ele>
        <time>2024-07-31T09:01:22Z</time>
      </trkpt>
      <trkpt lat="47.29341" lon="6.23802">
        <ele>472.2</ele>
        <time>2024-07-31T09:01:23Z</time>
      </trkpt>
      <trkpt lat="47.29341" lon="6.23801">
        <ele>472.6</ele>
        <time>2024-07-31T09:01:24Z</time>
      </trkpt>
      <trkpt lat="47.2934" lon="6.23799">
        <ele>472.6</ele>
        <time>2024-07-31T09:01:25Z</time>
      </trkpt>
      <trkpt lat="47.29339" lon="6.23796">
        <ele>472.8</ele>
        <time>2024-07-31T09:01:26Z</time>
      </trkpt>
      <trkpt lat="47.29339" lon="6.23794">
        <ele>473</ele>
        <time>2024-07-31T09:01:27Z</time>
      </trkpt>
      <trkpt lat="47.29338" lon="6.23793">
        <ele>473</ele>
        <time>2024-07-31T09:01:28Z</time>
      </trkpt>
      <trkpt lat="47.29337" lon="6.2379">
        <ele>473.2</ele>
        <time>2024-07-31T09:01:29Z</time>
      </trkpt>
      <trkpt lat="47.29336" lon="6.23787">
        <ele>473</ele>
        <time>2024-07-31T09:01:30Z</time>
      </trkpt>
      <trkpt lat="47.29335" lon="6.23784">
        <ele>473</ele>
        <time>2024-07-31T09:01:31Z</time>
      </trkpt>
      <trkpt lat="47.29334" lon="6.23781">
        <ele>473</ele>
        <time>2024-07-31T09:01:32Z</time>
      </trkpt>
      <trkpt lat="47.29333" lon="6.23778">
        <ele>473.2</ele>
        <time>2024-07-31T09:01:33Z</time>
      </trkpt>
      <trkpt lat="47.29333" lon="6.23776">
        <ele>473</ele>
        <time>2024-07-31T09:01:34Z</time>
      </trkpt>
      <trkpt lat="47.29332" lon="6.23773">
        <ele>473.2</ele>
        <time>2024-07-31T09:01:35Z</time>
      </trkpt>
      <trkpt lat="47.29332" lon="6.2377">
        <ele>473.2</ele>
        <time>2024-07-31T09:01:36Z</time>
      </trkpt>
      <trkpt lat="47.29331" lon="6.23768">
        <ele>473.2</ele>
        <time>2024-07-31T09:01:37Z</time>
      </trkpt>
      <trkpt lat="47.2933" lon="6.23765">
        <ele>473.2</ele>
        <time>2024-07-31T09:01:38Z</time>
      </trkpt>
      <trkpt lat="47.29329" lon="6.23761">
        <ele>473.2</ele>
        <time>2024-07-31T09:01:39Z</time>
      </trkpt>
      <trkpt lat="47.29327" lon="6.23757">
        <ele>473.4</ele>
        <time>2024-07-31T09:01:40Z</time>
      </trkpt>
      <trkpt lat="47.29327" lon="6.23754">
        <ele>473</ele>
        <time>2024-07-31T09:01:41Z</time>
      </trkpt>
      <trkpt lat="47.29326" lon="6.2375">
        <ele>473</ele>
        <time>2024-07-31T09:01:42Z</time>
      </trkpt>
      <trkpt lat="47.29324" lon="6.23746">
        <ele>472.8</ele>
        <time>2024-07-31T09:01:43Z</time>
      </trkpt>
      <trkpt lat="47.29323" lon="6.23742">
        <ele>472.8</ele>
        <time>2024-07-31T09:01:44Z</time>
      </trkpt>
      <trkpt lat="47.29322" lon="6.23738">
        <ele>473</ele>
        <time>2024-07-31T09:01:45Z</time>
      </trkpt>
      <trkpt lat="47.2932" lon="6.23734">
        <ele>473</ele>
        <time>2024-07-31T09:01:46Z</time>
      </trkpt>
      <trkpt lat="47.29318" lon="6.2373">
        <ele>473</ele>
        <time>2024-07-31T09:01:47Z</time>
      </trkpt>
      <trkpt lat="47.29317" lon="6.23727">
        <ele>472.8</ele>
        <time>2024-07-31T09:01:48Z</time>
      </trkpt>
      <trkpt lat="47.29316" lon="6.23723">
        <ele>472.6</ele>
        <time>2024-07-31T09:01:49Z</time>
      </trkpt>
      <trkpt lat="47.29314" lon="6.23719">
        <ele>472.8</ele>
        <time>2024-07-31T09:01:50Z</time>
      </trkpt>
      <trkpt lat="47.29313" lon="6.23714">
        <ele>472.6</ele>
        <time>2024-07-31T09:01:51Z</time>
      </trkpt>
      <trkpt lat="47.29311" lon="6.2371">
        <ele>472.6</ele>
        <time>2024-07-31T09:01:52Z</time>
      </trkpt>
      <trkpt lat="47.2931" lon="6.23705">
        <ele>472.8</ele>
        <time>2024-07-31T09:01:53Z</time>
      </trkpt>
      <trkpt lat="47.29309" lon="6.23701">
        <ele>472.8</ele>
        <time>2024-07-31T09:01:54Z</time>
      </trkpt>
      <trkpt lat="47.29308" lon="6.23697">
        <ele>472.8</ele>
        <time>2024-07-31T09:01:55Z</time>
      </trkpt>
      <trkpt lat="47.29308" lon="6.23693">
        <ele>472.8</ele>
        <time>2024-07-31T09:01:56Z</time>
      </trkpt>
      <trkpt lat="47.29307" lon="6.23689">
        <ele>473.2</ele>
        <time>2024-07-31T09:01:57Z</time>
      </trkpt>
      <trkpt lat="47.29306" lon="6.23686">
        <ele>473.2</ele>
        <time>2024-07-31T09:01:58Z</time>
      </trkpt>
      <trkpt lat="47.29306" lon="6.23682">
        <ele>473</ele>
        <time>2024-07-31T09:01:59Z</time>
      </trkpt>
      <trkpt lat="47.29305" lon="6.2368">
        <ele>473.2</ele>
        <time>2024-07-31T09:02:00Z</time>
      </trkpt>
      <trkpt lat="47.29305" lon="6.23677">
        <ele>473.4</ele>
        <time>2024-07-31T09:02:01Z</time>
      </trkpt>
      <trkpt lat="47.29305" lon="6.23674">
        <ele>473.6</ele>
        <time>2024-07-31T09:02:02Z</time>
      </trkpt>
      <trkpt lat="47.29304" lon="6.23671">
        <ele>473.8</ele>
        <time>2024-07-31T09:02:03Z</time>
      </trkpt>
      <trkpt lat="47.29305" lon="6.23668">
        <ele>474</ele>
        <time>2024-07-31T09:02:04Z</time>
      </trkpt>
      <trkpt lat="47.29305" lon="6.23665">
        <ele>474.2</ele>
        <time>2024-07-31T09:02:05Z</time>
      </trkpt>
      <trkpt lat="47.29305" lon="6.23662">
        <ele>474.2</ele>
        <time>2024-07-31T09:02:06Z</time>
      </trkpt>
      <trkpt lat="47.29305" lon="6.2366">
        <ele>474.6</ele>
        <time>2024-07-31T09:02:07Z</time>
      </trkpt>
      <trkpt lat="47.29306" lon="6.23657">
        <ele>474.6</ele>
        <time>2024-07-31T09:02:08Z</time>
      </trkpt>
      <trkpt lat="47.29306" lon="6.23654">
        <ele>474.6</ele>
        <time>2024-07-31T09:02:09Z</time>
      </trkpt>
      <trkpt lat="47.29307" lon="6.23651">
        <ele>475</ele>
        <time>2024-07-31T09:02:10Z</time>
      </trkpt>
      <trkpt lat="47.29307" lon="6.23647">
        <ele>475.2</ele>
        <time>2024-07-31T09:02:11Z</time>
      </trkpt>
      <trkpt lat="47.29308" lon="6.23644">
        <ele>475.4</ele>
        <time>2024-07-31T09:02:12Z</time>
      </trkpt>
      <trkpt lat="47.29308" lon="6.23641">
        <ele>475.6</ele>
        <time>2024-07-31T09:02:13Z</time>
      </trkpt>
      <trkpt lat="47.29309" lon="6.23639">
        <ele>475.8</ele>
        <time>2024-07-31T09:02:14Z</time>
      </trkpt>
      <trkpt lat="47.2931" lon="6.23637">
        <ele>476</ele>
        <time>2024-07-31T09:02:15Z</time>
      </trkpt>
      <trkpt lat="47.2931" lon="6.23634">
        <ele>476.2</ele>
        <time>2024-07-31T09:02:16Z</time>
      </trkpt>
      <trkpt lat="47.2931" lon="6.23629">
        <ele>476.4</ele>
        <time>2024-07-31T09:02:17Z</time>
      </trkpt>
      <trkpt lat="47.29311" lon="6.23625">
        <ele>476.4</ele>
        <time>2024-07-31T09:02:18Z</time>
      </trkpt>
      <trkpt lat="47.29312" lon="6.23622">
        <ele>476.4</ele>
        <time>2024-07-31T09:02:19Z</time>
      </trkpt>
      <trkpt lat="47.29313" lon="6.23618">
        <ele>476.6</ele>
        <time>2024-07-31T09:02:20Z</time>
      </trkpt>
      <trkpt lat="47.29314" lon="6.23615">
        <ele>476.6</ele>
        <time>2024-07-31T09:02:21Z</time>
      </trkpt>
      <trkpt lat="47.29315" lon="6.23611">
        <ele>476.8</ele>
        <time>2024-07-31T09:02:22Z</time>
      </trkpt>
      <trkpt lat="47.29316" lon="6.23608">
        <ele>477</ele>
        <time>2024-07-31T09:02:23Z</time>
      </trkpt>
      <trkpt lat="47.29317" lon="6.23604">
        <ele>477</ele>
        <time>2024-07-31T09:02:24Z</time>
      </trkpt>
      <trkpt lat="47.29318" lon="6.23601">
        <ele>477.2</ele>
        <time>2024-07-31T09:02:25Z</time>
      </trkpt>
      <trkpt lat="47.29319" lon="6.23599">
        <ele>477.4</ele>
        <time>2024-07-31T09:02:26Z</time>
      </trkpt>
      <trkpt lat="47.29321" lon="6.23597">
        <ele>477.4</ele>
        <time>2024-07-31T09:02:27Z</time>
      </trkpt>
      <trkpt lat="47.29323" lon="6.23595">
        <ele>477.2</ele>
        <time>2024-07-31T09:02:28Z</time>
      </trkpt>
      <trkpt lat="47.29324" lon="6.23595">
        <ele>477.2</ele>
        <time>2024-07-31T09:02:29Z</time>
      </trkpt>
      <trkpt lat="47.29326" lon="6.23595">
        <ele>477.2</ele>
        <time>2024-07-31T09:02:30Z</time>
      </trkpt>
      <trkpt lat="47.29328" lon="6.23594">
        <ele>477.2</ele>
        <time>2024-07-31T09:02:31Z</time>
      </trkpt>
      <trkpt lat="47.2933" lon="6.23594">
        <ele>477</ele>
        <time>2024-07-31T09:02:32Z</time>
      </trkpt>
      <trkpt lat="47.29332" lon="6.23593">
        <ele>477</ele>
        <time>2024-07-31T09:02:33Z</time>
      </trkpt>
      <trkpt lat="47.29333" lon="6.23593">
        <ele>477</ele>
        <time>2024-07-31T09:02:34Z</time>
      </trkpt>
      <trkpt lat="47.29334" lon="6.23593">
        <ele>477.2</ele>
        <time>2024-07-31T09:02:35Z</time>
      </trkpt>
      <trkpt lat="47.29335" lon="6.23593">
        <ele>477</ele>
        <time>2024-07-31T09:02:36Z</time>
      </trkpt>
      <trkpt lat="47.29335" lon="6.23593">
        <ele>477</ele>
        <time>2024-07-31T09:02:37Z</time>
      </trkpt>
      <trkpt lat="47.29335" lon="6.23593">
        <ele>477</ele>
        <time>2024-07-31T09:02:38Z</time>
      </trkpt>
      <trkpt lat="47.29334" lon="6.23593">
        <ele>477</ele>
        <time>2024-07-31T09:02:39Z</time>
      </trkpt>
      <trkpt lat="47.29334" lon="6.23593">
        <ele>476.8</ele>
        <time>2024-07-31T09:02:40Z</time>
      </trkpt>
      <trkpt lat="47.29334" lon="6.23593">
        <ele>476.8</ele>
        <time>2024-07-31T09:02:41Z</time>
      </trkpt>
      <trkpt lat="47.29334" lon="6.23593">
        <ele>476.8</ele>
        <time>2024-07-31T09:02:42Z</time>
      </trkpt>
      <trkpt lat="47.29334" lon="6.23593">
        <ele>476.8</ele>
        <time>2024-07-31T09:02:43Z</time>
      </trkpt>
      <trkpt lat="47.29334" lon="6.23593">
        <ele>476.8</ele>
        <time>2024-07-31T09:02:44Z</time>
      </trkpt>
      <trkpt lat="47.29334" lon="6.23593">
        <ele>476.8</ele>
        <time>2024-07-31T09:02:45Z</time>
      </trkpt>
      <trkpt lat="47.29334" lon="6.23593">
        <ele>476.8</ele>
        <time>2024-07-31T09:02:46Z</time>
      </trkpt>
      <trkpt lat="47.29334" lon="6.23593">
        <ele>476.6</ele>
        <time>2024-07-31T09:02:47Z</time>
      </trkpt>
      <trkpt lat="47.29334" lon="6.23593">
        <ele>476.8</ele>
        <time>2024-07-31T09:02:48Z</time>
      </trkpt>
      <trkpt lat="47.29334" lon="6.23593">
        <ele>476.8</ele>
        <time>2024-07-31T09:02:49Z</time>
      </trkpt>
      <trkpt lat="47.29334" lon="6.23593">
        <ele>476.8</ele>
        <time>2024-07-31T09:02:50Z</time>
      </trkpt>
      <trkpt lat="47.29333" lon="6.23593">
        <ele>476.8</ele>
        <time>2024-07-31T09:02:51Z</time>
      </trkpt>
      <trkpt lat="47.29333" lon="6.23592">
        <ele>477</ele>
        <time>2024-07-31T09:02:52Z</time>
      </trkpt>
      <trkpt lat="47.29333" lon="6.23592">
        <ele>477</ele>
        <time>2024-07-31T09:02:53Z</time>
      </trkpt>
      <trkpt lat="47.29333" lon="6.23592">
        <ele>477</ele>
        <time>2024-07-31T09:02:54Z</time>
      </trkpt>
      <trkpt lat="47.29333" lon="6.23592">
        <ele>477</ele>
        <time>2024-07-31T09:02:55Z</time>
      </trkpt>
      <trkpt lat="47.29333" lon="6.23592">
        <ele>477</ele>
        <time>2024-07-31T09:02:56Z</time>
      </trkpt>
      <trkpt lat="47.29333" lon="6.23591">
        <ele>477</ele>
        <time>2024-07-31T09:02:57Z</time>
      </trkpt>
      <trkpt lat="47.29332" lon="6.23591">
        <ele>477</ele>
        <time>2024-07-31T09:02:58Z</time>
      </trkpt>
      <trkpt lat="47.29332" lon="6.23591">
        <ele>476.8</ele>
        <time>2024-07-31T09:02:59Z</time>
      </trkpt>
      <trkpt lat="47.29332" lon="6.2359">
        <ele>476.8</ele>
        <time>2024-07-31T09:03:00Z</time>
      </trkpt>
      <trkpt lat="47.29332" lon="6.2359">
        <ele>477</ele>
        <time>2024-07-31T09:03:01Z</time>
      </trkpt>
      <trkpt lat="47.29332" lon="6.2359">
        <ele>476.8</ele>
        <time>2024-07-31T09:03:02Z</time>
      </trkpt>
      <trkpt lat="47.29332" lon="6.2359">
        <ele>476.8</ele>
        <time>2024-07-31T09:03:03Z</time>
      </trkpt>
      <trkpt lat="47.29332" lon="6.2359">
        <ele>476.8</ele>
        <time>2024-07-31T09:03:04Z</time>
      </trkpt>
      <trkpt lat="47.29332" lon="6.2359">
        <ele>477</ele>
        <time>2024-07-31T09:03:05Z</time>
      </trkpt>
      <trkpt lat="47.29333" lon="6.2359">
        <ele>476.8</ele>
        <time>2024-07-31T09:03:06Z</time>
      </trkpt>
      <trkpt lat="47.29333" lon="6.2359">
        <ele>476.8</ele>
        <time>2024-07-31T09:03:07Z</time>
      </trkpt>
      <trkpt lat="47.29333" lon="6.2359">
        <ele>476.8</ele>
        <time>2024-07-31T09:03:08Z</time>
      </trkpt>
      <trkpt lat="47.29333" lon="6.2359">
        <ele>476.8</ele>
        <time>2024-07-31T09:03:09Z</time>
      </trkpt>
      <trkpt lat="47.29333" lon="6.2359">
        <ele>476.8</ele>
        <time>2024-07-31T09:03:10Z</time>
      </trkpt>
      <trkpt lat="47.29333" lon="6.2359">
        <ele>476.8</ele>
        <time>2024-07-31T09:03:11Z</time>
      </trkpt>
      <trkpt lat="47.29333" lon="6.2359">
        <ele>476.8</ele>
        <time>2024-07-31T09:03:12Z</time>
      </trkpt>
      <trkpt lat="47.29333" lon="6.2359">
        <ele>476.8</ele>
        <time>2024-07-31T09:03:13Z</time>
      </trkpt>
      <trkpt lat="47.29333" lon="6.23589">
        <ele>476.8</ele>
        <time>2024-07-31T09:03:14Z</time>
      </trkpt>
      <trkpt lat="47.29333" lon="6.23589">
        <ele>476.8</ele>
        <time>2024-07-31T09:03:15Z</time>
      </trkpt>
      <trkpt lat="47.29333" lon="6.23589">
        <ele>476.8</ele>
        <time>2024-07-31T09:03:16Z</time>
      </trkpt>
      <trkpt lat="47.29333" lon="6.23589">
        <ele>476.8</ele>
        <time>2024-07-31T09:03:17Z</time>
      </trkpt>
      <trkpt lat="47.29333" lon="6.23589">
        <ele>477</ele>
        <time>2024-07-31T09:03:18Z</time>
      </trkpt>
      <trkpt lat="47.29333" lon="6.23589">
        <ele>476.8</ele>
        <time>2024-07-31T09:03:19Z</time>
      </trkpt>
      <trkpt lat="47.29333" lon="6.23589">
        <ele>476.8</ele>
        <time>2024-07-31T09:03:20Z</time>
      </trkpt>
      <trkpt lat="47.29333" lon="6.23589">
        <ele>476.8</ele>
        <time>2024-07-31T09:03:21Z</time>
      </trkpt>
      <trkpt lat="47.29333" lon="6.23589">
        <ele>477</ele>
        <time>2024-07-31T09:03:22Z</time>
      </trkpt>
      <trkpt lat="47.29333" lon="6.23589">
        <ele>477</ele>
        <time>2024-07-31T09:03:23Z</time>
      </trkpt>
      <trkpt lat="47.29333" lon="6.23589">
        <ele>477</ele>
        <time>2024-07-31T09:03:24Z</time>
      </trkpt>
      <trkpt lat="47.29333" lon="6.23589">
        <ele>477</ele>
        <time>2024-07-31T09:03:25Z</time>
      </trkpt>
      <trkpt lat="47.29333" lon="6.23589">
        <ele>477</ele>
        <time>2024-07-31T09:03:26Z</time>
      </trkpt>
      <trkpt lat="47.29333" lon="6.2359">
        <ele>476.8</ele>
        <time>2024-07-31T09:03:27Z</time>
      </trkpt>
      <trkpt lat="47.29333" lon="6.2359">
        <ele>477</ele>
        <time>2024-07-31T09:03:28Z</time>
      </trkpt>
      <trkpt lat="47.29333" lon="6.23589">
        <ele>477</ele>
        <time>2024-07-31T09:03:29Z</time>
      </trkpt>
      <trkpt lat="47.29333" lon="6.23589">
        <ele>477</ele>
        <time>2024-07-31T09:03:30Z</time>
      </trkpt>
      <trkpt lat="47.29333" lon="6.23589">
        <ele>477</ele>
        <time>2024-07-31T09:03:31Z</time>
      </trkpt>
      <trkpt lat="47.29333" lon="6.23589">
        <ele>477</ele>
        <time>2024-07-31T09:03:32Z</time>
      </trkpt>
      <trkpt lat="47.29333" lon="6.23589">
        <ele>477</ele>
        <time>2024-07-31T09:03:33Z</time>
      </trkpt>
      <trkpt lat="47.29333" lon="6.23589">
        <ele>477</ele>
        <time>2024-07-31T09:03:34Z</time>
      </trkpt>
      <trkpt lat="47.29333" lon="6.23589">
        <ele>477</ele>
        <time>2024-07-31T09:03:35Z</time>
      </trkpt>
      <trkpt lat="47.29333" lon="6.23589">
        <ele>476.8</ele>
        <time>2024-07-31T09:03:36Z</time>
      </trkpt>
      <trkpt lat="47.29333" lon="6.23589">
        <ele>476.8</ele>
        <time>2024-07-31T09:03:37Z</time>
      </trkpt>
      <trkpt lat="47.29333" lon="6.23589">
        <ele>476.8</ele>
        <time>2024-07-31T09:03:38Z</time>
      </trkpt>
      <trkpt lat="47.29333" lon="6.23589">
        <ele>476.6</ele>
        <time>2024-07-31T09:03:39Z</time>
      </trkpt>
      <trkpt lat="47.29333" lon="6.23589">
        <ele>476.6</ele>
        <time>2024-07-31T09:03:40Z</time>
      </trkpt>
      <trkpt lat="47.29333" lon="6.23589">
        <ele>476.6</ele>
        <time>2024-07-31T09:03:41Z</time>
      </trkpt>
      <trkpt lat="47.29333" lon="6.23589">
        <ele>476.6</ele>
        <time>2024-07-31T09:03:42Z</time>
      </trkpt>
      <trkpt lat="47.29333" lon="6.23589">
        <ele>476.6</ele>
        <time>2024-07-31T09:03:43Z</time>
      </trkpt>
      <trkpt lat="47.29333" lon="6.23589">
        <ele>476.6</ele>
        <time>2024-07-31T09:03:44Z</time>
      </trkpt>
      <trkpt lat="47.29333" lon="6.23589">
        <ele>476.8</ele>
        <time>2024-07-31T09:03:45Z</time>
      </trkpt>
      <trkpt lat="47.29333" lon="6.23589">
        <ele>476.8</ele>
        <time>2024-07-31T09:03:46Z</time>
      </trkpt>
      <trkpt lat="47.29333" lon="6.23589">
        <ele>476.8</ele>
        <time>2024-07-31T09:03:47Z</time>
      </trkpt>
      <trkpt lat="47.29333" lon="6.23589">
        <ele>476.8</ele>
        <time>2024-07-31T09:03:48Z</time>
      </trkpt>
      <trkpt lat="47.29333" lon="6.23589">
        <ele>476.8</ele>
        <time>2024-07-31T09:03:49Z</time>
      </trkpt>
      <trkpt lat="47.29333" lon="6.2359">
        <ele>476.6</ele>
        <time>2024-07-31T09:03:50Z</time>
      </trkpt>
      <trkpt lat="47.29333" lon="6.2359">
        <ele>476.6</ele>
        <time>2024-07-31T09:03:51Z</time>
      </trkpt>
      <trkpt lat="47.29333" lon="6.2359">
        <ele>476.8</ele>
        <time>2024-07-31T09:03:52Z</time>
      </trkpt>
      <trkpt lat="47.29333" lon="6.2359">
        <ele>476.6</ele>
        <time>2024-07-31T09:03:53Z</time>
      </trkpt>
      <trkpt lat="47.29333" lon="6.2359">
        <ele>476.8</ele>
        <time>2024-07-31T09:03:54Z</time>
      </trkpt>
      <trkpt lat="47.29333" lon="6.2359">
        <ele>476.8</ele>
        <time>2024-07-31T09:03:55Z</time>
      </trkpt>
      <trkpt lat="47.29333" lon="6.2359">
        <ele>477</ele>
        <time>2024-07-31T09:03:56Z</time>
      </trkpt>
      <trkpt lat="47.29333" lon="6.2359">
        <ele>477</ele>
        <time>2024-07-31T09:03:57Z</time>
      </trkpt>
      <trkpt lat="47.29333" lon="6.2359">
        <ele>477</ele>
        <time>2024-07-31T09:03:58Z</time>
      </trkpt>
      <trkpt lat="47.29333" lon="6.2359">
        <ele>477</ele>
        <time>2024-07-31T09:03:59Z</time>
      </trkpt>
      <trkpt lat="47.29333" lon="6.2359">
        <ele>477</ele>
        <time>2024-07-31T09:04:00Z</time>
      </trkpt>
      <trkpt lat="47.29333" lon="6.2359">
        <ele>477</ele>
        <time>2024-07-31T09:04:01Z</time>
      </trkpt>
      <trkpt lat="47.29334" lon="6.2359">
        <ele>477</ele>
        <time>2024-07-31T09:04:02Z</time>
      </trkpt>
      <trkpt lat="47.29334" lon="6.2359">
        <ele>477</ele>
        <time>2024-07-31T09:04:03Z</time>
      </trkpt>
      <trkpt lat="47.29334" lon="6.23591">
        <ele>477</ele>
        <time>2024-07-31T09:04:04Z</time>
      </trkpt>
      <trkpt lat="47.29334" lon="6.23591">
        <ele>477</ele>
        <time>2024-07-31T09:04:05Z</time>
      </trkpt>
      <trkpt lat="47.29334" lon="6.23591">
        <ele>476.8</ele>
        <time>2024-07-31T09:04:06Z</time>
      </trkpt>
      <trkpt lat="47.29334" lon="6.23591">
        <ele>476.8</ele>
        <time>2024-07-31T09:04:07Z</time>
      </trkpt>
      <trkpt lat="47.29334" lon="6.23591">
        <ele>477</ele>
        <time>2024-07-31T09:04:08Z</time>
      </trkpt>
      <trkpt lat="47.29334" lon="6.23591">
        <ele>477</ele>
        <time>2024-07-31T09:04:09Z</time>
      </trkpt>
      <trkpt lat="47.29334" lon="6.23591">
        <ele>477</ele>
        <time>2024-07-31T09:04:10Z</time>
      </trkpt>
      <trkpt lat="47.29334" lon="6.23591">
        <ele>477</ele>
        <time>2024-07-31T09:04:11Z</time>
      </trkpt>
      <trkpt lat="47.29334" lon="6.23591">
        <ele>477</ele>
        <time>2024-07-31T09:04:12Z</time>
      </trkpt>
      <trkpt lat="47.29334" lon="6.23591">
        <ele>477</ele>
        <time>2024-07-31T09:04:13Z</time>
      </trkpt>
      <trkpt lat="47.29334" lon="6.23591">
        <ele>477</ele>
        <time>2024-07-31T09:04:14Z</time>
      </trkpt>
      <trkpt lat="47.29334" lon="6.23591">
        <ele>477</ele>
        <time>2024-07-31T09:04:15Z</time>
      </trkpt>
      <trkpt lat="47.29334" lon="6.23591">
        <ele>477</ele>
        <time>2024-07-31T09:04:16Z</time>
      </trkpt>
      <trkpt lat="47.29334" lon="6.23591">
        <ele>477</ele>
        <time>2024-07-31T09:04:17Z</time>
      </trkpt>
      <trkpt lat="47.29334" lon="6.23591">
        <ele>477</ele>
        <time>2024-07-31T09:04:18Z</time>
      </trkpt>
      <trkpt lat="47.29334" lon="6.23591">
        <ele>477</ele>
        <time>2024-07-31T09:04:19Z</time>
      </trkpt>
      <trkpt lat="47.29334" lon="6.23591">
        <ele>477</ele>
        <time>2024-07-31T09:04:20Z</time>
      </trkpt>
      <trkpt lat="47.29334" lon="6.23591">
        <ele>477</ele>
        <time>2024-07-31T09:04:21Z</time>
      </trkpt>
      <trkpt lat="47.29334" lon="6.23591">
        <ele>477</ele>
        <time>2024-07-31T09:04:22Z</time>
      </trkpt>
      <trkpt lat="47.29334" lon="6.23591">
        <ele>477</ele>
        <time>2024-07-31T09:04:23Z</time>
      </trkpt>
      <trkpt lat="47.29334" lon="6.23591">
        <ele>477</ele>
        <time>2024-07-31T09:04:24Z</time>
      </trkpt>
      <trkpt lat="47.29334" lon="6.23591">
        <ele>477</ele>
        <time>2024-07-31T09:04:25Z</time>
      </trkpt>
      <trkpt lat="47.29334" lon="6.23591">
        <ele>477</ele>
        <time>2024-07-31T09:04:26Z</time>
      </trkpt>
      <trkpt lat="47.29334" lon="6.23591">
        <ele>477</ele>
        <time>2024-07-31T09:04:27Z</time>
      </trkpt>
      <trkpt lat="47.29334" lon="6.23591">
        <ele>477</ele>
        <time>2024-07-31T09:04:28Z</time>
      </trkpt>
      <trkpt lat="47.29334" lon="6.23591">
        <ele>477</ele>
        <time>2024-07-31T09:04:29Z</time>
      </trkpt>
      <trkpt lat="47.29334" lon="6.23591">
        <ele>477</ele>
        <time>2024-07-31T09:04:30Z</time>
      </trkpt>
      <trkpt lat="47.29334" lon="6.23591">
        <ele>477.2</ele>
        <time>2024-07-31T09:04:31Z</time>
      </trkpt>
      <trkpt lat="47.29334" lon="6.23591">
        <ele>477</ele>
        <time>2024-07-31T09:04:32Z</time>
      </trkpt>
      <trkpt lat="47.29334" lon="6.23591">
        <ele>477.2</ele>
        <time>2024-07-31T09:04:33Z</time>
      </trkpt>
      <trkpt lat="47.29334" lon="6.23591">
        <ele>477</ele>
        <time>2024-07-31T09:04:34Z</time>
      </trkpt>
      <trkpt lat="47.29334" lon="6.23591">
        <ele>477</ele>
        <time>2024-07-31T09:04:35Z</time>
      </trkpt>
      <trkpt lat="47.29334" lon="6.23591">
        <ele>477.2</ele>
        <time>2024-07-31T09:04:36Z</time>
      </trkpt>
      <trkpt lat="47.29334" lon="6.23591">
        <ele>477.2</ele>
        <time>2024-07-31T09:04:37Z</time>
      </trkpt>
      <trkpt lat="47.29334" lon="6.2359">
        <ele>477.2</ele>
        <time>2024-07-31T09:04:38Z</time>
      </trkpt>
      <trkpt lat="47.29334" lon="6.2359">
        <ele>477.2</ele>
        <time>2024-07-31T09:04:39Z</time>
      </trkpt>
      <trkpt lat="47.29334" lon="6.2359">
        <ele>477.2</ele>
        <time>2024-07-31T09:04:40Z</time>
      </trkpt>
      <trkpt lat="47.29334" lon="6.2359">
        <ele>477.2</ele>
        <time>2024-07-31T09:04:41Z</time>
      </trkpt>
      <trkpt lat="47.29334" lon="6.2359">
        <ele>477.2</ele>
        <time>2024-07-31T09:04:42Z</time>
      </trkpt>
      <trkpt lat="47.29334" lon="6.2359">
        <ele>477.2</ele>
        <time>2024-07-31T09:04:43Z</time>
      </trkpt>
      <trkpt lat="47.29334" lon="6.2359">
        <ele>477.4</ele>
        <time>2024-07-31T09:04:44Z</time>
      </trkpt>
      <trkpt lat="47.29334" lon="6.2359">
        <ele>477.4</ele>
        <time>2024-07-31T09:04:45Z</time>
      </trkpt>
      <trkpt lat="47.29334" lon="6.2359">
        <ele>477.4</ele>
        <time>2024-07-31T09:04:46Z</time>
      </trkpt>
      <trkpt lat="47.29334" lon="6.2359">
        <ele>477.2</ele>
        <time>2024-07-31T09:04:47Z</time>
      </trkpt>
      <trkpt lat="47.29334" lon="6.2359">
        <ele>477.2</ele>
        <time>2024-07-31T09:04:48Z</time>
      </trkpt>
      <trkpt lat="47.29334" lon="6.2359">
        <ele>477.2</ele>
        <time>2024-07-31T09:04:49Z</time>
      </trkpt>
      <trkpt lat="47.29334" lon="6.2359">
        <ele>477.2</ele>
        <time>2024-07-31T09:04:50Z</time>
      </trkpt>
      <trkpt lat="47.29334" lon="6.2359">
        <ele>477.2</ele>
        <time>2024-07-31T09:04:51Z</time>
      </trkpt>
      <trkpt lat="47.29334" lon="6.2359">
        <ele>477.4</ele>
        <time>2024-07-31T09:04:52Z</time>
      </trkpt>
      <trkpt lat="47.29334" lon="6.2359">
        <ele>477.2</ele>
        <time>2024-07-31T09:04:53Z</time>
      </trkpt>
      <trkpt lat="47.29334" lon="6.2359">
        <ele>477.2</ele>
        <time>2024-07-31T09:04:54Z</time>
      </trkpt>
      <trkpt lat="47.29334" lon="6.2359">
        <ele>477.2</ele>
        <time>2024-07-31T09:04:55Z</time>
      </trkpt>
      <trkpt lat="47.29334" lon="6.2359">
        <ele>477.2</ele>
        <time>2024-07-31T09:04:56Z</time>
      </trkpt>
      <trkpt lat="47.29334" lon="6.2359">
        <ele>477.2</ele>
        <time>2024-07-31T09:04:57Z</time>
      </trkpt>
      <trkpt lat="47.29334" lon="6.2359">
        <ele>477.2</ele>
        <time>2024-07-31T09:04:58Z</time>
      </trkpt>
      <trkpt lat="47.29334" lon="6.2359">
        <ele>477.4</ele>
        <time>2024-07-31T09:04:59Z</time>
      </trkpt>
      <trkpt lat="47.29334" lon="6.2359">
        <ele>477.2</ele>
        <time>2024-07-31T09:05:00Z</time>
      </trkpt>
      <trkpt lat="47.29334" lon="6.2359">
        <ele>477.2</ele>
        <time>2024-07-31T09:05:01Z</time>
      </trkpt>
      <trkpt lat="47.29334" lon="6.2359">
        <ele>477.2</ele>
        <time>2024-07-31T09:05:02Z</time>
      </trkpt>
      <trkpt lat="47.29334" lon="6.2359">
        <ele>477.4</ele>
        <time>2024-07-31T09:05:03Z</time>
      </trkpt>
      <trkpt lat="47.29334" lon="6.2359">
        <ele>477.4</ele>
        <time>2024-07-31T09:05:04Z</time>
      </trkpt>
      <trkpt lat="47.29334" lon="6.2359">
        <ele>477.4</ele>
        <time>2024-07-31T09:05:05Z</time>
      </trkpt>
      <trkpt lat="47.29334" lon="6.2359">
        <ele>477.2</ele>
        <time>2024-07-31T09:05:06Z</time>
      </trkpt>
      <trkpt lat="47.29334" lon="6.2359">
        <ele>477.4</ele>
        <time>2024-07-31T09:05:07Z</time>
      </trkpt>
      <trkpt lat="47.29334" lon="6.2359">
        <ele>477.4</ele>
        <time>2024-07-31T09:05:08Z</time>
      </trkpt>
      <trkpt lat="47.29334" lon="6.2359">
        <ele>477.4</ele>
        <time>2024-07-31T09:05:09Z</time>
      </trkpt>
      <trkpt lat="47.29334" lon="6.2359">
        <ele>477.4</ele>
        <time>2024-07-31T09:05:10Z</time>
      </trkpt>
      <trkpt lat="47.29334" lon="6.2359">
        <ele>477.4</ele>
        <time>2024-07-31T09:05:11Z</time>
      </trkpt>
      <trkpt lat="47.29334" lon="6.2359">
        <ele>477.4</ele>
        <time>2024-07-31T09:05:12Z</time>
      </trkpt>
      <trkpt lat="47.29334" lon="6.2359">
        <ele>477.4</ele>
        <time>2024-07-31T09:05:13Z</time>
      </trkpt>
      <trkpt lat="47.29334" lon="6.2359">
        <ele>477.4</ele>
        <time>2024-07-31T09:05:14Z</time>
      </trkpt>
      <trkpt lat="47.29334" lon="6.2359">
        <ele>477.4</ele>
        <time>2024-07-31T09:05:15Z</time>
      </trkpt>
      <trkpt lat="47.29334" lon="6.2359">
        <ele>477.4</ele>
        <time>2024-07-31T09:05:16Z</time>
      </trkpt>
      <trkpt lat="47.29334" lon="6.2359">
        <ele>477.4</ele>
        <time>2024-07-31T09:05:17Z</time>
      </trkpt>
      <trkpt lat="47.29334" lon="6.2359">
        <ele>477.4</ele>
        <time>2024-07-31T09:05:18Z</time>
      </trkpt>
      <trkpt lat="47.29334" lon="6.2359">
        <ele>477.4</ele>
        <time>2024-07-31T09:05:19Z</time>
      </trkpt>
      <trkpt lat="47.29334" lon="6.2359">
        <ele>477.4</ele>
        <time>2024-07-31T09:05:20Z</time>
      </trkpt>
      <trkpt lat="47.29334" lon="6.2359">
        <ele>477.4</ele>
        <time>2024-07-31T09:05:21Z</time>
      </trkpt>
      <trkpt lat="47.29334" lon="6.2359">
        <ele>477.4</ele>
        <time>2024-07-31T09:05:22Z</time>
      </trkpt>
      <trkpt lat="47.29334" lon="6.2359">
        <ele>477.4</ele>
        <time>2024-07-31T09:05:23Z</time>
      </trkpt>
      <trkpt lat="47.29334" lon="6.2359">
        <ele>477.4</ele>
        <time>2024-07-31T09:05:24Z</time>
      </trkpt>
      <trkpt lat="47.29334" lon="6.2359">
        <ele>477.4</ele>
        <time>2024-07-31T09:05:25Z</time>
      </trkpt>
      <trkpt lat="47.29334" lon="6.2359">
        <ele>477.4</ele>
        <time>2024-07-31T09:05:26Z</time>
      </trkpt>
      <trkpt lat="47.29334" lon="6.2359">
        <ele>477.4</ele>
        <time>2024-07-31T09:05:27Z</time>
      </trkpt>
      <trkpt lat="47.29334" lon="6.2359">
        <ele>477.4</ele>
        <time>2024-07-31T09:05:28Z</time>
      </trkpt>
      <trkpt lat="47.29334" lon="6.2359">
        <ele>477.4</ele>
        <time>2024-07-31T09:05:29Z</time>
      </trkpt>
      <trkpt lat="47.29334" lon="6.2359">
        <ele>477.4</ele>
        <time>2024-07-31T09:05:30Z</time>
      </trkpt>
      <trkpt lat="47.29334" lon="6.2359">
        <ele>477.6</ele>
        <time>2024-07-31T09:05:31Z</time>
      </trkpt>
      <trkpt lat="47.29334" lon="6.2359">
        <ele>477.6</ele>
        <time>2024-07-31T09:05:32Z</time>
      </trkpt>
      <trkpt lat="47.29334" lon="6.2359">
        <ele>477.6</ele>
        <time>2024-07-31T09:05:33Z</time>
      </trkpt>
      <trkpt lat="47.29334" lon="6.2359">
        <ele>477.4</ele>
        <time>2024-07-31T09:05:34Z</time>
      </trkpt>
      <trkpt lat="47.29334" lon="6.2359">
        <ele>477.4</ele>
        <time>2024-07-31T09:05:35Z</time>
      </trkpt>
      <trkpt lat="47.29334" lon="6.2359">
        <ele>477.4</ele>
        <time>2024-07-31T09:05:36Z</time>
      </trkpt>
      <trkpt lat="47.29334" lon="6.2359">
        <ele>477.4</ele>
        <time>2024-07-31T09:05:37Z</time>
      </trkpt>
      <trkpt lat="47.29334" lon="6.2359">
        <ele>477.4</ele>
        <time>2024-07-31T09:05:38Z</time>
      </trkpt>
      <trkpt lat="47.29334" lon="6.2359">
        <ele>477.4</ele>
        <time>2024-07-31T09:05:39Z</time>
      </trkpt>
      <trkpt lat="47.29334" lon="6.2359">
        <ele>477.4</ele>
        <time>2024-07-31T09:05:40Z</time>
      </trkpt>
      <trkpt lat="47.29334" lon="6.2359">
        <ele>477.6</ele>
        <time>2024-07-31T09:05:41Z</time>
      </trkpt>
      <trkpt lat="47.29334" lon="6.2359">
        <ele>477.6</ele>
        <time>2024-07-31T09:05:42Z</time>
      </trkpt>
      <trkpt lat="47.29334" lon="6.2359">
        <ele>477.4</ele>
        <time>2024-07-31T09:05:43Z</time>
      </trkpt>
      <trkpt lat="47.29334" lon="6.2359">
        <ele>477.4</ele>
        <time>2024-07-31T09:05:44Z</time>
      </trkpt>
      <trkpt lat="47.29334" lon="6.2359">
        <ele>477.4</ele>
        <time>2024-07-31T09:05:45Z</time>
      </trkpt>
      <trkpt lat="47.29334" lon="6.2359">
        <ele>477.4</ele>
        <time>2024-07-31T09:05:46Z</time>
      </trkpt>
      <trkpt lat="47.29334" lon="6.2359">
        <ele>477.4</ele>
        <time>2024-07-31T09:05:47Z</time>
      </trkpt>
      <trkpt lat="47.29334" lon="6.2359">
        <ele>477.6</ele>
        <time>2024-07-31T09:05:48Z</time>
      </trkpt>
      <trkpt lat="47.29334" lon="6.2359">
        <ele>477.6</ele>
        <time>2024-07-31T09:05:49Z</time>
      </trkpt>
      <trkpt lat="47.29334" lon="6.2359">
        <ele>477.6</ele>
        <time>2024-07-31T09:05:50Z</time>
      </trkpt>
      <trkpt lat="47.29334" lon="6.2359">
        <ele>477.6</ele>
        <time>2024-07-31T09:05:51Z</time>
      </trkpt>
      <trkpt lat="47.29334" lon="6.2359">
        <ele>477.6</ele>
        <time>2024-07-31T09:05:52Z</time>
      </trkpt>
      <trkpt lat="47.29334" lon="6.23589">
        <ele>477.4</ele>
        <time>2024-07-31T09:05:53Z</time>
      </trkpt>
      <trkpt lat="47.29334" lon="6.2359">
        <ele>477.4</ele>
        <time>2024-07-31T09:05:54Z</time>
      </trkpt>
      <trkpt lat="47.29334" lon="6.2359">
        <ele>477.4</ele>
        <time>2024-07-31T09:05:55Z</time>
      </trkpt>
      <trkpt lat="47.29334" lon="6.2359">
        <ele>477.4</ele>
        <time>2024-07-31T09:05:56Z</time>
      </trkpt>
      <trkpt lat="47.29334" lon="6.2359">
        <ele>477.4</ele>
        <time>2024-07-31T09:05:57Z</time>
      </trkpt>
      <trkpt lat="47.29334" lon="6.2359">
        <ele>477.4</ele>
        <time>2024-07-31T09:05:58Z</time>
      </trkpt>
      <trkpt lat="47.29334" lon="6.2359">
        <ele>477.6</ele>
        <time>2024-07-31T09:05:59Z</time>
      </trkpt>
      <trkpt lat="47.29334" lon="6.2359">
        <ele>477.6</ele>
        <time>2024-07-31T09:06:00Z</time>
      </trkpt>
      <trkpt lat="47.29334" lon="6.2359">
        <ele>477.6</ele>
        <time>2024-07-31T09:06:01Z</time>
      </trkpt>
      <trkpt lat="47.29334" lon="6.2359">
        <ele>477.6</ele>
        <time>2024-07-31T09:06:02Z</time>
      </trkpt>
      <trkpt lat="47.29334" lon="6.2359">
        <ele>477.4</ele>
        <time>2024-07-31T09:06:03Z</time>
      </trkpt>
      <trkpt lat="47.29334" lon="6.2359">
        <ele>477.4</ele>
        <time>2024-07-31T09:06:04Z</time>
      </trkpt>
      <trkpt lat="47.29334" lon="6.2359">
        <ele>477.4</ele>
        <time>2024-07-31T09:06:05Z</time>
      </trkpt>
      <trkpt lat="47.29334" lon="6.2359">
        <ele>477.4</ele>
        <time>2024-07-31T09:06:06Z</time>
      </trkpt>
      <trkpt lat="47.29334" lon="6.2359">
        <ele>477.4</ele>
        <time>2024-07-31T09:06:07Z</time>
      </trkpt>
      <trkpt lat="47.29334" lon="6.23589">
        <ele>477.4</ele>
        <time>2024-07-31T09:06:08Z</time>
      </trkpt>
      <trkpt lat="47.29334" lon="6.23589">
        <ele>477.4</ele>
        <time>2024-07-31T09:06:09Z</time>
      </trkpt>
      <trkpt lat="47.29334" lon="6.23589">
        <ele>477.4</ele>
        <time>2024-07-31T09:06:10Z</time>
      </trkpt>
      <trkpt lat="47.29335" lon="6.23589">
        <ele>477.4</ele>
        <time>2024-07-31T09:06:11Z</time>
      </trkpt>
      <trkpt lat="47.29335" lon="6.23589">
        <ele>477.4</ele>
        <time>2024-07-31T09:06:12Z</time>
      </trkpt>
      <trkpt lat="47.29335" lon="6.23589">
        <ele>477.6</ele>
        <time>2024-07-31T09:06:13Z</time>
      </trkpt>
      <trkpt lat="47.29335" lon="6.23589">
        <ele>477.6</ele>
        <time>2024-07-31T09:06:14Z</time>
      </trkpt>
      <trkpt lat="47.29335" lon="6.23588">
        <ele>477.6</ele>
        <time>2024-07-31T09:06:15Z</time>
      </trkpt>
      <trkpt lat="47.29335" lon="6.23588">
        <ele>477.6</ele>
        <time>2024-07-31T09:06:16Z</time>
      </trkpt>
      <trkpt lat="47.29335" lon="6.23587">
        <ele>477.6</ele>
        <time>2024-07-31T09:06:17Z</time>
      </trkpt>
      <trkpt lat="47.29335" lon="6.23587">
        <ele>477.6</ele>
        <time>2024-07-31T09:06:18Z</time>
      </trkpt>
      <trkpt lat="47.29335" lon="6.23587">
        <ele>477.6</ele>
        <time>2024-07-31T09:06:19Z</time>
      </trkpt>
      <trkpt lat="47.29335" lon="6.23587">
        <ele>477.6</ele>
        <time>2024-07-31T09:06:20Z</time>
      </trkpt>
      <trkpt lat="47.29335" lon="6.23586">
        <ele>477.6</ele>
        <time>2024-07-31T09:06:21Z</time>
      </trkpt>
      <trkpt lat="47.29335" lon="6.23586">
        <ele>477.6</ele>
        <time>2024-07-31T09:06:22Z</time>
      </trkpt>
      <trkpt lat="47.29335" lon="6.23586">
        <ele>477.6</ele>
        <time>2024-07-31T09:06:23Z</time>
      </trkpt>
      <trkpt lat="47.29335" lon="6.23586">
        <ele>477.6</ele>
        <time>2024-07-31T09:06:24Z</time>
      </trkpt>
      <trkpt lat="47.29335" lon="6.23586">
        <ele>477.6</ele>
        <time>2024-07-31T09:06:25Z</time>
      </trkpt>
      <trkpt lat="47.29335" lon="6.23586">
        <ele>477.6</ele>
        <time>2024-07-31T09:06:26Z</time>
      </trkpt>
      <trkpt lat="47.29335" lon="6.23586">
        <ele>477.6</ele>
        <time>2024-07-31T09:06:27Z</time>
      </trkpt>
      <trkpt lat="47.29335" lon="6.23586">
        <ele>477.6</ele>
        <time>2024-07-31T09:06:28Z</time>
      </trkpt>
      <trkpt lat="47.29335" lon="6.23586">
        <ele>477.8</ele>
        <time>2024-07-31T09:06:29Z</time>
      </trkpt>
      <trkpt lat="47.29335" lon="6.23586">
        <ele>477.8</ele>
        <time>2024-07-31T09:06:30Z</time>
      </trkpt>
      <trkpt lat="47.29335" lon="6.23586">
        <ele>477.8</ele>
        <time>2024-07-31T09:06:31Z</time>
      </trkpt>
      <trkpt lat="47.29336" lon="6.23586">
        <ele>477.8</ele>
        <time>2024-07-31T09:06:32Z</time>
      </trkpt>
      <trkpt lat="47.29336" lon="6.23586">
        <ele>477.6</ele>
        <time>2024-07-31T09:06:33Z</time>
      </trkpt>
      <trkpt lat="47.29337" lon="6.23587">
        <ele>477.6</ele>
        <time>2024-07-31T09:06:34Z</time>
      </trkpt>
      <trkpt lat="47.29337" lon="6.23587">
        <ele>477.8</ele>
        <time>2024-07-31T09:06:35Z</time>
      </trkpt>
      <trkpt lat="47.29337" lon="6.23587">
        <ele>477.8</ele>
        <time>2024-07-31T09:06:36Z</time>
      </trkpt>
      <trkpt lat="47.29337" lon="6.23587">
        <ele>477.8</ele>
        <time>2024-07-31T09:06:37Z</time>
      </trkpt>
      <trkpt lat="47.29337" lon="6.23587">
        <ele>477.8</ele>
        <time>2024-07-31T09:06:38Z</time>
      </trkpt>
      <trkpt lat="47.29337" lon="6.23587">
        <ele>477.6</ele>
        <time>2024-07-31T09:06:39Z</time>
      </trkpt>
      <trkpt lat="47.29338" lon="6.23587">
        <ele>477.6</ele>
        <time>2024-07-31T09:06:40Z</time>
      </trkpt>
      <trkpt lat="47.29338" lon="6.23587">
        <ele>477.6</ele>
        <time>2024-07-31T09:06:41Z</time>
      </trkpt>
      <trkpt lat="47.29338" lon="6.23587">
        <ele>477.6</ele>
        <time>2024-07-31T09:06:42Z</time>
      </trkpt>
      <trkpt lat="47.29338" lon="6.23587">
        <ele>477.6</ele>
        <time>2024-07-31T09:06:43Z</time>
      </trkpt>
      <trkpt lat="47.29338" lon="6.23587">
        <ele>477.6</ele>
        <time>2024-07-31T09:06:44Z</time>
      </trkpt>
      <trkpt lat="47.29338" lon="6.23587">
        <ele>477.6</ele>
        <time>2024-07-31T09:06:45Z</time>
      </trkpt>
      <trkpt lat="47.29338" lon="6.23587">
        <ele>477.6</ele>
        <time>2024-07-31T09:06:46Z</time>
      </trkpt>
      <trkpt lat="47.29338" lon="6.23587">
        <ele>477.6</ele>
        <time>2024-07-31T09:06:47Z</time>
      </trkpt>
      <trkpt lat="47.29338" lon="6.23587">
        <ele>477.6</ele>
        <time>2024-07-31T09:06:48Z</time>
      </trkpt>
      <trkpt lat="47.29338" lon="6.23587">
        <ele>477.6</ele>
        <time>2024-07-31T09:06:49Z</time>
      </trkpt>
      <trkpt lat="47.29338" lon="6.23587">
        <ele>477.6</ele>
        <time>2024-07-31T09:06:50Z</time>
      </trkpt>
      <trkpt lat="47.29338" lon="6.23587">
        <ele>477.4</ele>
        <time>2024-07-31T09:06:51Z</time>
      </trkpt>
      <trkpt lat="47.29338" lon="6.23587">
        <ele>477.4</ele>
        <time>2024-07-31T09:06:52Z</time>
      </trkpt>
      <trkpt lat="47.29338" lon="6.23587">
        <ele>477.4</ele>
        <time>2024-07-31T09:06:53Z</time>
      </trkpt>
      <trkpt lat="47.29337" lon="6.23587">
        <ele>477.6</ele>
        <time>2024-07-31T09:06:54Z</time>
      </trkpt>
      <trkpt lat="47.29337" lon="6.23587">
        <ele>477.6</ele>
        <time>2024-07-31T09:06:55Z</time>
      </trkpt>
      <trkpt lat="47.29337" lon="6.23587">
        <ele>477.6</ele>
        <time>2024-07-31T09:06:56Z</time>
      </trkpt>
      <trkpt lat="47.29337" lon="6.23587">
        <ele>477.6</ele>
        <time>2024-07-31T09:06:57Z</time>
      </trkpt>
      <trkpt lat="47.29337" lon="6.23587">
        <ele>477.8</ele>
        <time>2024-07-31T09:06:58Z</time>
      </trkpt>
      <trkpt lat="47.29337" lon="6.23588">
        <ele>477.6</ele>
        <time>2024-07-31T09:06:59Z</time>
      </trkpt>
      <trkpt lat="47.29337" lon="6.23588">
        <ele>477.6</ele>
        <time>2024-07-31T09:07:00Z</time>
      </trkpt>
      <trkpt lat="47.29337" lon="6.23588">
        <ele>477.6</ele>
        <time>2024-07-31T09:07:01Z</time>
      </trkpt>
      <trkpt lat="47.29337" lon="6.23588">
        <ele>477.6</ele>
        <time>2024-07-31T09:07:02Z</time>
      </trkpt>
      <trkpt lat="47.29337" lon="6.23588">
        <ele>477.8</ele>
        <time>2024-07-31T09:07:03Z</time>
      </trkpt>
      <trkpt lat="47.29337" lon="6.23588">
        <ele>477.8</ele>
        <time>2024-07-31T09:07:04Z</time>
      </trkpt>
      <trkpt lat="47.29337" lon="6.23588">
        <ele>477.8</ele>
        <time>2024-07-31T09:07:05Z</time>
      </trkpt>
      <trkpt lat="47.29337" lon="6.23588">
        <ele>477.8</ele>
        <time>2024-07-31T09:07:06Z</time>
      </trkpt>
      <trkpt lat="47.29337" lon="6.23588">
        <ele>477.8</ele>
        <time>2024-07-31T09:07:07Z</time>
      </trkpt>
      <trkpt lat="47.29337" lon="6.23588">
        <ele>477.8</ele>
        <time>2024-07-31T09:07:08Z</time>
      </trkpt>
      <trkpt lat="47.29337" lon="6.23588">
        <ele>477.6</ele>
        <time>2024-07-31T09:07:09Z</time>
      </trkpt>
      <trkpt lat="47.29337" lon="6.23588">
        <ele>477.6</ele>
        <time>2024-07-31T09:07:10Z</time>
      </trkpt>
      <trkpt lat="47.29337" lon="6.23588">
        <ele>477.8</ele>
        <time>2024-07-31T09:07:11Z</time>
      </trkpt>
      <trkpt lat="47.29337" lon="6.23588">
        <ele>477.6</ele>
        <time>2024-07-31T09:07:12Z</time>
      </trkpt>
      <trkpt lat="47.29337" lon="6.23588">
        <ele>477.6</ele>
        <time>2024-07-31T09:07:13Z</time>
      </trkpt>
      <trkpt lat="47.29337" lon="6.23588">
        <ele>477.6</ele>
        <time>2024-07-31T09:07:14Z</time>
      </trkpt>
      <trkpt lat="47.29337" lon="6.23588">
        <ele>477.6</ele>
        <time>2024-07-31T09:07:15Z</time>
      </trkpt>
      <trkpt lat="47.29337" lon="6.23588">
        <ele>477.6</ele>
        <time>2024-07-31T09:07:16Z</time>
      </trkpt>
      <trkpt lat="47.29337" lon="6.23588">
        <ele>477.6</ele>
        <time>2024-07-31T09:07:17Z</time>
      </trkpt>
      <trkpt lat="47.29337" lon="6.23588">
        <ele>477.6</ele>
        <time>2024-07-31T09:07:18Z</time>
      </trkpt>
      <trkpt lat="47.29337" lon="6.23588">
        <ele>477.8</ele>
        <time>2024-07-31T09:07:19Z</time>
      </trkpt>
      <trkpt lat="47.29337" lon="6.23588">
        <ele>477.8</ele>
        <time>2024-07-31T09:07:20Z</time>
      </trkpt>
      <trkpt lat="47.29337" lon="6.23588">
        <ele>477.6</ele>
        <time>2024-07-31T09:07:21Z</time>
      </trkpt>
      <trkpt lat="47.29337" lon="6.23588">
        <ele>477.6</ele>
        <time>2024-07-31T09:07:22Z</time>
      </trkpt>
      <trkpt lat="47.29337" lon="6.23588">
        <ele>477.6</ele>
        <time>2024-07-31T09:07:23Z</time>
      </trkpt>
      <trkpt lat="47.29337" lon="6.23588">
        <ele>477.6</ele>
        <time>2024-07-31T09:07:24Z</time>
      </trkpt>
      <trkpt lat="47.29337" lon="6.23588">
        <ele>477.6</ele>
        <time>2024-07-31T09:07:25Z</time>
      </trkpt>
      <trkpt lat="47.29337" lon="6.23588">
        <ele>477.6</ele>
        <time>2024-07-31T09:07:26Z</time>
      </trkpt>
      <trkpt lat="47.29337" lon="6.23588">
        <ele>477.6</ele>
        <time>2024-07-31T09:07:27Z</time>
      </trkpt>
      <trkpt lat="47.29337" lon="6.23588">
        <ele>477.6</ele>
        <time>2024-07-31T09:07:28Z</time>
      </trkpt>
      <trkpt lat="47.29337" lon="6.23588">
        <ele>477.6</ele>
        <time>2024-07-31T09:07:29Z</time>
      </trkpt>
      <trkpt lat="47.29337" lon="6.23588">
        <ele>477.6</ele>
        <time>2024-07-31T09:07:30Z</time>
      </trkpt>
      <trkpt lat="47.29337" lon="6.23588">
        <ele>477.8</ele>
        <time>2024-07-31T09:07:31Z</time>
      </trkpt>
      <trkpt lat="47.29337" lon="6.23588">
        <ele>477.6</ele>
        <time>2024-07-31T09:07:32Z</time>
      </trkpt>
      <trkpt lat="47.29337" lon="6.23588">
        <ele>477.8</ele>
        <time>2024-07-31T09:07:33Z</time>
      </trkpt>
      <trkpt lat="47.29337" lon="6.23588">
        <ele>477.6</ele>
        <time>2024-07-31T09:07:34Z</time>
      </trkpt>
      <trkpt lat="47.29337" lon="6.23588">
        <ele>477.6</ele>
        <time>2024-07-31T09:07:35Z</time>
      </trkpt>
      <trkpt lat="47.29337" lon="6.23588">
        <ele>477.6</ele>
        <time>2024-07-31T09:07:36Z</time>
      </trkpt>
      <trkpt lat="47.29337" lon="6.23588">
        <ele>477.6</ele>
        <time>2024-07-31T09:07:37Z</time>
      </trkpt>
      <trkpt lat="47.29337" lon="6.23588">
        <ele>477.6</ele>
        <time>2024-07-31T09:07:38Z</time>
      </trkpt>
      <trkpt lat="47.29337" lon="6.23588">
        <ele>477.8</ele>
        <time>2024-07-31T09:07:39Z</time>
      </trkpt>
      <trkpt lat="47.29337" lon="6.23588">
        <ele>477.8</ele>
        <time>2024-07-31T09:07:40Z</time>
      </trkpt>
      <trkpt lat="47.29337" lon="6.23588">
        <ele>477.4</ele>
        <time>2024-07-31T09:07:41Z</time>
      </trkpt>
      <trkpt lat="47.29337" lon="6.23588">
        <ele>477.6</ele>
        <time>2024-07-31T09:07:42Z</time>
      </trkpt>
      <trkpt lat="47.29337" lon="6.23588">
        <ele>477.6</ele>
        <time>2024-07-31T09:07:43Z</time>
      </trkpt>
      <trkpt lat="47.29338" lon="6.23588">
        <ele>477.6</ele>
        <time>2024-07-31T09:07:44Z</time>
      </trkpt>
      <trkpt lat="47.29338" lon="6.23588">
        <ele>477.6</ele>
        <time>2024-07-31T09:07:45Z</time>
      </trkpt>
      <trkpt lat="47.29338" lon="6.23588">
        <ele>477.6</ele>
        <time>2024-07-31T09:07:46Z</time>
      </trkpt>
      <trkpt lat="47.29338" lon="6.23588">
        <ele>477.6</ele>
        <time>2024-07-31T09:07:47Z</time>
      </trkpt>
      <trkpt lat="47.29338" lon="6.23588">
        <ele>477.6</ele>
        <time>2024-07-31T09:07:48Z</time>
      </trkpt>
      <trkpt lat="47.29338" lon="6.23588">
        <ele>477.6</ele>
        <time>2024-07-31T09:07:49Z</time>
      </trkpt>
      <trkpt lat="47.29338" lon="6.23588">
        <ele>477.6</ele>
        <time>2024-07-31T09:07:50Z</time>
      </trkpt>
      <trkpt lat="47.29338" lon="6.23588">
        <ele>477.6</ele>
        <time>2024-07-31T09:07:51Z</time>
      </trkpt>
      <trkpt lat="47.29337" lon="6.23588">
        <ele>477.6</ele>
        <time>2024-07-31T09:07:52Z</time>
      </trkpt>
      <trkpt lat="47.29337" lon="6.23588">
        <ele>477.6</ele>
        <time>2024-07-31T09:07:53Z</time>
      </trkpt>
      <trkpt lat="47.29337" lon="6.23588">
        <ele>477.6</ele>
        <time>2024-07-31T09:07:54Z</time>
      </trkpt>
      <trkpt lat="47.29337" lon="6.23588">
        <ele>477.6</ele>
        <time>2024-07-31T09:07:55Z</time>
      </trkpt>
      <trkpt lat="47.29337" lon="6.23588">
        <ele>477.6</ele>
        <time>2024-07-31T09:07:56Z</time>
      </trkpt>
      <trkpt lat="47.29337" lon="6.23588">
        <ele>477.8</ele>
        <time>2024-07-31T09:07:57Z</time>
      </trkpt>
      <trkpt lat="47.29337" lon="6.23588">
        <ele>477.6</ele>
        <time>2024-07-31T09:07:58Z</time>
      </trkpt>
      <trkpt lat="47.29337" lon="6.23588">
        <ele>477.6</ele>
        <time>2024-07-31T09:07:59Z</time>
      </trkpt>
      <trkpt lat="47.29337" lon="6.23588">
        <ele>477.8</ele>
        <time>2024-07-31T09:08:00Z</time>
      </trkpt>
      <trkpt lat="47.29337" lon="6.23588">
        <ele>477.8</ele>
        <time>2024-07-31T09:08:01Z</time>
      </trkpt>
      <trkpt lat="47.29337" lon="6.23588">
        <ele>477.8</ele>
        <time>2024-07-31T09:08:02Z</time>
      </trkpt>
      <trkpt lat="47.29337" lon="6.23588">
        <ele>477.6</ele>
        <time>2024-07-31T09:08:03Z</time>
      </trkpt>
      <trkpt lat="47.29337" lon="6.23588">
        <ele>477.6</ele>
        <time>2024-07-31T09:08:04Z</time>
      </trkpt>
      <trkpt lat="47.29337" lon="6.23588">
        <ele>477.6</ele>
        <time>2024-07-31T09:08:05Z</time>
      </trkpt>
      <trkpt lat="47.29337" lon="6.23588">
        <ele>477.8</ele>
        <time>2024-07-31T09:08:06Z</time>
      </trkpt>
      <trkpt lat="47.29337" lon="6.23587">
        <ele>477.8</ele>
        <time>2024-07-31T09:08:07Z</time>
      </trkpt>
      <trkpt lat="47.29337" lon="6.23588">
        <ele>477.6</ele>
        <time>2024-07-31T09:08:08Z</time>
      </trkpt>
      <trkpt lat="47.29337" lon="6.23588">
        <ele>477.6</ele>
        <time>2024-07-31T09:08:09Z</time>
      </trkpt>
      <trkpt lat="47.29337" lon="6.23588">
        <ele>477.6</ele>
        <time>2024-07-31T09:08:10Z</time>
      </trkpt>
      <trkpt lat="47.29337" lon="6.23588">
        <ele>477.6</ele>
        <time>2024-07-31T09:08:11Z</time>
      </trkpt>
      <trkpt lat="47.29337" lon="6.23587">
        <ele>477.8</ele>
        <time>2024-07-31T09:08:12Z</time>
      </trkpt>
      <trkpt lat="47.29337" lon="6.23587">
        <ele>477.6</ele>
        <time>2024-07-31T09:08:13Z</time>
      </trkpt>
      <trkpt lat="47.29337" lon="6.23587">
        <ele>477.8</ele>
        <time>2024-07-31T09:08:14Z</time>
      </trkpt>
      <trkpt lat="47.29337" lon="6.23588">
        <ele>477.6</ele>
        <time>2024-07-31T09:08:15Z</time>
      </trkpt>
      <trkpt lat="47.29337" lon="6.23588">
        <ele>477.6</ele>
        <time>2024-07-31T09:08:16Z</time>
      </trkpt>
      <trkpt lat="47.29337" lon="6.23588">
        <ele>477.8</ele>
        <time>2024-07-31T09:08:17Z</time>
      </trkpt>
      <trkpt lat="47.29336" lon="6.23588">
        <ele>477.8</ele>
        <time>2024-07-31T09:08:18Z</time>
      </trkpt>
      <trkpt lat="47.29336" lon="6.23587">
        <ele>477.8</ele>
        <time>2024-07-31T09:08:19Z</time>
      </trkpt>
      <trkpt lat="47.29336" lon="6.23587">
        <ele>477.8</ele>
        <time>2024-07-31T09:08:20Z</time>
      </trkpt>
      <trkpt lat="47.29336" lon="6.23587">
        <ele>477.6</ele>
        <time>2024-07-31T09:08:21Z</time>
      </trkpt>
      <trkpt lat="47.29336" lon="6.23587">
        <ele>477.6</ele>
        <time>2024-07-31T09:08:22Z</time>
      </trkpt>
      <trkpt lat="47.29336" lon="6.23588">
        <ele>477.8</ele>
        <time>2024-07-31T09:08:23Z</time>
      </trkpt>
      <trkpt lat="47.29336" lon="6.23588">
        <ele>477.8</ele>
        <time>2024-07-31T09:08:24Z</time>
      </trkpt>
      <trkpt lat="47.29336" lon="6.23588">
        <ele>477.8</ele>
        <time>2024-07-31T09:08:25Z</time>
      </trkpt>
      <trkpt lat="47.29336" lon="6.23588">
        <ele>477.6</ele>
        <time>2024-07-31T09:08:26Z</time>
      </trkpt>
      <trkpt lat="47.29336" lon="6.23588">
        <ele>477.8</ele>
        <time>2024-07-31T09:08:27Z</time>
      </trkpt>
      <trkpt lat="47.29336" lon="6.23588">
        <ele>477.8</ele>
        <time>2024-07-31T09:08:28Z</time>
      </trkpt>
      <trkpt lat="47.29336" lon="6.23588">
        <ele>477.8</ele>
        <time>2024-07-31T09:08:29Z</time>
      </trkpt>
      <trkpt lat="47.29336" lon="6.23588">
        <ele>477.8</ele>
        <time>2024-07-31T09:08:30Z</time>
      </trkpt>
      <trkpt lat="47.29336" lon="6.23588">
        <ele>477.6</ele>
        <time>2024-07-31T09:08:31Z</time>
      </trkpt>
      <trkpt lat="47.29336" lon="6.23588">
        <ele>477.6</ele>
        <time>2024-07-31T09:08:32Z</time>
      </trkpt>
      <trkpt lat="47.29336" lon="6.23588">
        <ele>477.6</ele>
        <time>2024-07-31T09:08:33Z</time>
      </trkpt>
      <trkpt lat="47.29336" lon="6.23587">
        <ele>477.8</ele>
        <time>2024-07-31T09:08:34Z</time>
      </trkpt>
      <trkpt lat="47.29336" lon="6.23587">
        <ele>477.8</ele>
        <time>2024-07-31T09:08:35Z</time>
      </trkpt>
      <trkpt lat="47.29336" lon="6.23588">
        <ele>478</ele>
        <time>2024-07-31T09:08:36Z</time>
      </trkpt>
      <trkpt lat="47.29336" lon="6.23588">
        <ele>478</ele>
        <time>2024-07-31T09:08:37Z</time>
      </trkpt>
      <trkpt lat="47.29336" lon="6.23588">
        <ele>478</ele>
        <time>2024-07-31T09:08:38Z</time>
      </trkpt>
      <trkpt lat="47.29336" lon="6.23588">
        <ele>478</ele>
        <time>2024-07-31T09:08:39Z</time>
      </trkpt>
      <trkpt lat="47.29336" lon="6.23588">
        <ele>478</ele>
        <time>2024-07-31T09:08:40Z</time>
      </trkpt>
      <trkpt lat="47.29336" lon="6.23588">
        <ele>478</ele>
        <time>2024-07-31T09:08:41Z</time>
      </trkpt>
      <trkpt lat="47.29336" lon="6.23587">
        <ele>478</ele>
        <time>2024-07-31T09:08:42Z</time>
      </trkpt>
      <trkpt lat="47.29336" lon="6.23587">
        <ele>478</ele>
        <time>2024-07-31T09:08:43Z</time>
      </trkpt>
      <trkpt lat="47.29336" lon="6.23587">
        <ele>478</ele>
        <time>2024-07-31T09:08:44Z</time>
      </trkpt>
      <trkpt lat="47.29336" lon="6.23586">
        <ele>478.2</ele>
        <time>2024-07-31T09:08:45Z</time>
      </trkpt>
      <trkpt lat="47.29336" lon="6.23585">
        <ele>478.2</ele>
        <time>2024-07-31T09:08:46Z</time>
      </trkpt>
      <trkpt lat="47.29335" lon="6.23585">
        <ele>478.4</ele>
        <time>2024-07-31T09:08:47Z</time>
      </trkpt>
      <trkpt lat="47.29334" lon="6.23585">
        <ele>478.2</ele>
        <time>2024-07-31T09:08:48Z</time>
      </trkpt>
      <trkpt lat="47.29334" lon="6.23584">
        <ele>478.4</ele>
        <time>2024-07-31T09:08:49Z</time>
      </trkpt>
      <trkpt lat="47.29333" lon="6.23584">
        <ele>478.4</ele>
        <time>2024-07-31T09:08:50Z</time>
      </trkpt>
      <trkpt lat="47.29332" lon="6.23584">
        <ele>478.4</ele>
        <time>2024-07-31T09:08:51Z</time>
      </trkpt>
      <trkpt lat="47.29331" lon="6.23584">
        <ele>478.2</ele>
        <time>2024-07-31T09:08:52Z</time>
      </trkpt>
      <trkpt lat="47.2933" lon="6.23585">
        <ele>478.2</ele>
        <time>2024-07-31T09:08:53Z</time>
      </trkpt>
      <trkpt lat="47.2933" lon="6.23585">
        <ele>478.4</ele>
        <time>2024-07-31T09:08:54Z</time>
      </trkpt>
      <trkpt lat="47.29329" lon="6.23586">
        <ele>478.4</ele>
        <time>2024-07-31T09:08:55Z</time>
      </trkpt>
      <trkpt lat="47.29327" lon="6.23586">
        <ele>478.4</ele>
        <time>2024-07-31T09:08:56Z</time>
      </trkpt>
      <trkpt lat="47.29326" lon="6.23587">
        <ele>478.4</ele>
        <time>2024-07-31T09:08:57Z</time>
      </trkpt>
      <trkpt lat="47.29325" lon="6.23587">
        <ele>478.4</ele>
        <time>2024-07-31T09:08:58Z</time>
      </trkpt>
      <trkpt lat="47.29323" lon="6.23587">
        <ele>478.6</ele>
        <time>2024-07-31T09:08:59Z</time>
      </trkpt>
      <trkpt lat="47.29322" lon="6.23588">
        <ele>478.6</ele>
        <time>2024-07-31T09:09:00Z</time>
      </trkpt>
      <trkpt lat="47.2932" lon="6.23589">
        <ele>478.6</ele>
        <time>2024-07-31T09:09:01Z</time>
      </trkpt>
      <trkpt lat="47.29319" lon="6.2359">
        <ele>478.4</ele>
        <time>2024-07-31T09:09:02Z</time>
      </trkpt>
      <trkpt lat="47.29318" lon="6.23592">
        <ele>478.4</ele>
        <time>2024-07-31T09:09:03Z</time>
      </trkpt>
      <trkpt lat="47.29317" lon="6.23595">
        <ele>478.4</ele>
        <time>2024-07-31T09:09:04Z</time>
      </trkpt>
      <trkpt lat="47.29316" lon="6.23597">
        <ele>478.4</ele>
        <time>2024-07-31T09:09:05Z</time>
      </trkpt>
      <trkpt lat="47.29314" lon="6.23599">
        <ele>478.2</ele>
        <time>2024-07-31T09:09:06Z</time>
      </trkpt>
      <trkpt lat="47.29312" lon="6.23601">
        <ele>478.2</ele>
        <time>2024-07-31T09:09:07Z</time>
      </trkpt>
      <trkpt lat="47.29311" lon="6.23602">
        <ele>478.2</ele>
        <time>2024-07-31T09:09:08Z</time>
      </trkpt>
      <trkpt lat="47.2931" lon="6.23604">
        <ele>478</ele>
        <time>2024-07-31T09:09:09Z</time>
      </trkpt>
      <trkpt lat="47.29309" lon="6.23606">
        <ele>477.8</ele>
        <time>2024-07-31T09:09:10Z</time>
      </trkpt>
      <trkpt lat="47.29309" lon="6.23608">
        <ele>478</ele>
        <time>2024-07-31T09:09:11Z</time>
      </trkpt>
      <trkpt lat="47.29308" lon="6.23611">
        <ele>478</ele>
        <time>2024-07-31T09:09:12Z</time>
      </trkpt>
      <trkpt lat="47.29308" lon="6.23613">
        <ele>477.8</ele>
        <time>2024-07-31T09:09:13Z</time>
      </trkpt>
      <trkpt lat="47.29308" lon="6.23615">
        <ele>477.8</ele>
        <time>2024-07-31T09:09:14Z</time>
      </trkpt>
      <trkpt lat="47.29307" lon="6.23618">
        <ele>477.8</ele>
        <time>2024-07-31T09:09:15Z</time>
      </trkpt>
      <trkpt lat="47.29306" lon="6.2362">
        <ele>477.6</ele>
        <time>2024-07-31T09:09:16Z</time>
      </trkpt>
      <trkpt lat="47.29306" lon="6.23623">
        <ele>477.4</ele>
        <time>2024-07-31T09:09:17Z</time>
      </trkpt>
      <trkpt lat="47.29305" lon="6.23625">
        <ele>477</ele>
        <time>2024-07-31T09:09:18Z</time>
      </trkpt>
      <trkpt lat="47.29305" lon="6.23628">
        <ele>476.8</ele>
        <time>2024-07-31T09:09:19Z</time>
      </trkpt>
      <trkpt lat="47.29305" lon="6.2363">
        <ele>476.4</ele>
        <time>2024-07-31T09:09:20Z</time>
      </trkpt>
      <trkpt lat="47.29304" lon="6.23632">
        <ele>476.2</ele>
        <time>2024-07-31T09:09:21Z</time>
      </trkpt>
      <trkpt lat="47.29302" lon="6.23634">
        <ele>476</ele>
        <time>2024-07-31T09:09:22Z</time>
      </trkpt>
      <trkpt lat="47.29301" lon="6.23634">
        <ele>475.8</ele>
        <time>2024-07-31T09:09:23Z</time>
      </trkpt>
      <trkpt lat="47.293" lon="6.23634">
        <ele>475.6</ele>
        <time>2024-07-31T09:09:24Z</time>
      </trkpt>
      <trkpt lat="47.29299" lon="6.23632">
        <ele>475.6</ele>
        <time>2024-07-31T09:09:25Z</time>
      </trkpt>
      <trkpt lat="47.29298" lon="6.2363">
        <ele>475.4</ele>
        <time>2024-07-31T09:09:26Z</time>
      </trkpt>
      <trkpt lat="47.29297" lon="6.23628">
        <ele>475.4</ele>
        <time>2024-07-31T09:09:27Z</time>
      </trkpt>
      <trkpt lat="47.29296" lon="6.23626">
        <ele>475.4</ele>
        <time>2024-07-31T09:09:28Z</time>
      </trkpt>
      <trkpt lat="47.29295" lon="6.23624">
        <ele>475.2</ele>
        <time>2024-07-31T09:09:29Z</time>
      </trkpt>
      <trkpt lat="47.29294" lon="6.23622">
        <ele>475.2</ele>
        <time>2024-07-31T09:09:30Z</time>
      </trkpt>
      <trkpt lat="47.29293" lon="6.23619">
        <ele>474.6</ele>
        <time>2024-07-31T09:09:31Z</time>
      </trkpt>
      <trkpt lat="47.29292" lon="6.23616">
        <ele>474.2</ele>
        <time>2024-07-31T09:09:32Z</time>
      </trkpt>
      <trkpt lat="47.29291" lon="6.23613">
        <ele>474.2</ele>
        <time>2024-07-31T09:09:33Z</time>
      </trkpt>
      <trkpt lat="47.2929" lon="6.2361">
        <ele>473.6</ele>
        <time>2024-07-31T09:09:34Z</time>
      </trkpt>
      <trkpt lat="47.29289" lon="6.23607">
        <ele>473</ele>
        <time>2024-07-31T09:09:35Z</time>
      </trkpt>
      <trkpt lat="47.29288" lon="6.23604">
        <ele>473</ele>
        <time>2024-07-31T09:09:36Z</time>
      </trkpt>
      <trkpt lat="47.29287" lon="6.23602">
        <ele>472.6</ele>
        <time>2024-07-31T09:09:37Z</time>
      </trkpt>
      <trkpt lat="47.29286" lon="6.23598">
        <ele>472.6</ele>
        <time>2024-07-31T09:09:38Z</time>
      </trkpt>
      <trkpt lat="47.29285" lon="6.23595">
        <ele>472.4</ele>
        <time>2024-07-31T09:09:39Z</time>
      </trkpt>
      <trkpt lat="47.29283" lon="6.23592">
        <ele>471.6</ele>
        <time>2024-07-31T09:09:40Z</time>
      </trkpt>
      <trkpt lat="47.29281" lon="6.23589">
        <ele>471.4</ele>
        <time>2024-07-31T09:09:41Z</time>
      </trkpt>
      <trkpt lat="47.29279" lon="6.23585">
        <ele>471.4</ele>
        <time>2024-07-31T09:09:42Z</time>
      </trkpt>
      <trkpt lat="47.29278" lon="6.23582">
        <ele>471.4</ele>
        <time>2024-07-31T09:09:43Z</time>
      </trkpt>
      <trkpt lat="47.29276" lon="6.23578">
        <ele>471.4</ele>
        <time>2024-07-31T09:09:44Z</time>
      </trkpt>
      <trkpt lat="47.29276" lon="6.23574">
        <ele>471.2</ele>
        <time>2024-07-31T09:09:45Z</time>
      </trkpt>
      <trkpt lat="47.29274" lon="6.23569">
        <ele>471.2</ele>
        <time>2024-07-31T09:09:46Z</time>
      </trkpt>
      <trkpt lat="47.29273" lon="6.23565">
        <ele>471</ele>
        <time>2024-07-31T09:09:47Z</time>
      </trkpt>
      <trkpt lat="47.29271" lon="6.23561">
        <ele>471</ele>
        <time>2024-07-31T09:09:48Z</time>
      </trkpt>
      <trkpt lat="47.29269" lon="6.23556">
        <ele>471</ele>
        <time>2024-07-31T09:09:49Z</time>
      </trkpt>
      <trkpt lat="47.29267" lon="6.23553">
        <ele>470.8</ele>
        <time>2024-07-31T09:09:50Z</time>
      </trkpt>
      <trkpt lat="47.29266" lon="6.2355">
        <ele>470.6</ele>
        <time>2024-07-31T09:09:51Z</time>
      </trkpt>
      <trkpt lat="47.29264" lon="6.23546">
        <ele>470.6</ele>
        <time>2024-07-31T09:09:52Z</time>
      </trkpt>
      <trkpt lat="47.29262" lon="6.23543">
        <ele>470.6</ele>
        <time>2024-07-31T09:09:53Z</time>
      </trkpt>
      <trkpt lat="47.2926" lon="6.2354">
        <ele>470.4</ele>
        <time>2024-07-31T09:09:54Z</time>
      </trkpt>
      <trkpt lat="47.29258" lon="6.23537">
        <ele>470.8</ele>
        <time>2024-07-31T09:09:55Z</time>
      </trkpt>
      <trkpt lat="47.29256" lon="6.23535">
        <ele>470.6</ele>
        <time>2024-07-31T09:09:56Z</time>
      </trkpt>
      <trkpt lat="47.29254" lon="6.23531">
        <ele>470.8</ele>
        <time>2024-07-31T09:09:57Z</time>
      </trkpt>
      <trkpt lat="47.29252" lon="6.23528">
        <ele>470.6</ele>
        <time>2024-07-31T09:09:58Z</time>
      </trkpt>
      <trkpt lat="47.29251" lon="6.23524">
        <ele>470.8</ele>
        <time>2024-07-31T09:09:59Z</time>
      </trkpt>
      <trkpt lat="47.29249" lon="6.2352">
        <ele>470.8</ele>
        <time>2024-07-31T09:10:00Z</time>
      </trkpt>
      <trkpt lat="47.29248" lon="6.23516">
        <ele>470.8</ele>
        <time>2024-07-31T09:10:01Z</time>
      </trkpt>
      <trkpt lat="47.29246" lon="6.23512">
        <ele>471</ele>
        <time>2024-07-31T09:10:02Z</time>
      </trkpt>
      <trkpt lat="47.29245" lon="6.23507">
        <ele>471.2</ele>
        <time>2024-07-31T09:10:03Z</time>
      </trkpt>
      <trkpt lat="47.29244" lon="6.23502">
        <ele>471.4</ele>
        <time>2024-07-31T09:10:04Z</time>
      </trkpt>
      <trkpt lat="47.29243" lon="6.23498">
        <ele>471.4</ele>
        <time>2024-07-31T09:10:05Z</time>
      </trkpt>
      <trkpt lat="47.29242" lon="6.23494">
        <ele>471.4</ele>
        <time>2024-07-31T09:10:06Z</time>
      </trkpt>
      <trkpt lat="47.29242" lon="6.2349">
        <ele>471.6</ele>
        <time>2024-07-31T09:10:07Z</time>
      </trkpt>
      <trkpt lat="47.29241" lon="6.23486">
        <ele>472</ele>
        <time>2024-07-31T09:10:08Z</time>
      </trkpt>
      <trkpt lat="47.29239" lon="6.23482">
        <ele>471.8</ele>
        <time>2024-07-31T09:10:09Z</time>
      </trkpt>
      <trkpt lat="47.29238" lon="6.23478">
        <ele>471.6</ele>
        <time>2024-07-31T09:10:10Z</time>
      </trkpt>
      <trkpt lat="47.29237" lon="6.23475">
        <ele>472</ele>
        <time>2024-07-31T09:10:11Z</time>
      </trkpt>
      <trkpt lat="47.29236" lon="6.23471">
        <ele>472.4</ele>
        <time>2024-07-31T09:10:12Z</time>
      </trkpt>
      <trkpt lat="47.29235" lon="6.23469">
        <ele>472.2</ele>
        <time>2024-07-31T09:10:13Z</time>
      </trkpt>
      <trkpt lat="47.29234" lon="6.23466">
        <ele>472.2</ele>
        <time>2024-07-31T09:10:14Z</time>
      </trkpt>
      <trkpt lat="47.29233" lon="6.23464">
        <ele>472.6</ele>
        <time>2024-07-31T09:10:15Z</time>
      </trkpt>
      <trkpt lat="47.29232" lon="6.23462">
        <ele>473</ele>
        <time>2024-07-31T09:10:16Z</time>
      </trkpt>
      <trkpt lat="47.2923" lon="6.23459">
        <ele>473.4</ele>
        <time>2024-07-31T09:10:17Z</time>
      </trkpt>
      <trkpt lat="47.29229" lon="6.23457">
        <ele>473.6</ele>
        <time>2024-07-31T09:10:18Z</time>
      </trkpt>
      <trkpt lat="47.29228" lon="6.23454">
        <ele>474</ele>
        <time>2024-07-31T09:10:19Z</time>
      </trkpt>
      <trkpt lat="47.29226" lon="6.23452">
        <ele>474.4</ele>
        <time>2024-07-31T09:10:20Z</time>
      </trkpt>
      <trkpt lat="47.29225" lon="6.2345">
        <ele>474.8</ele>
        <time>2024-07-31T09:10:21Z</time>
      </trkpt>
      <trkpt lat="47.29224" lon="6.23448">
        <ele>475</ele>
        <time>2024-07-31T09:10:22Z</time>
      </trkpt>
      <trkpt lat="47.29223" lon="6.23447">
        <ele>475</ele>
        <time>2024-07-31T09:10:23Z</time>
      </trkpt>
      <trkpt lat="47.29222" lon="6.23445">
        <ele>475.4</ele>
        <time>2024-07-31T09:10:24Z</time>
      </trkpt>
      <trkpt lat="47.29221" lon="6.23444">
        <ele>475.4</ele>
        <time>2024-07-31T09:10:25Z</time>
      </trkpt>
      <trkpt lat="47.2922" lon="6.23443">
        <ele>475.6</ele>
        <time>2024-07-31T09:10:26Z</time>
      </trkpt>
      <trkpt lat="47.29218" lon="6.23441">
        <ele>475.8</ele>
        <time>2024-07-31T09:10:27Z</time>
      </trkpt>
      <trkpt lat="47.29216" lon="6.2344">
        <ele>475.6</ele>
        <time>2024-07-31T09:10:28Z</time>
      </trkpt>
      <trkpt lat="47.29215" lon="6.23439">
        <ele>475.6</ele>
        <time>2024-07-31T09:10:29Z</time>
      </trkpt>
      <trkpt lat="47.29213" lon="6.23438">
        <ele>475.8</ele>
        <time>2024-07-31T09:10:30Z</time>
      </trkpt>
      <trkpt lat="47.29211" lon="6.23437">
        <ele>475.8</ele>
        <time>2024-07-31T09:10:31Z</time>
      </trkpt>
      <trkpt lat="47.29209" lon="6.23436">
        <ele>475.8</ele>
        <time>2024-07-31T09:10:32Z</time>
      </trkpt>
      <trkpt lat="47.29207" lon="6.23436">
        <ele>476</ele>
        <time>2024-07-31T09:10:33Z</time>
      </trkpt>
      <trkpt lat="47.29205" lon="6.23435">
        <ele>476</ele>
        <time>2024-07-31T09:10:34Z</time>
      </trkpt>
      <trkpt lat="47.29203" lon="6.23434">
        <ele>476.2</ele>
        <time>2024-07-31T09:10:35Z</time>
      </trkpt>
      <trkpt lat="47.29201" lon="6.23433">
        <ele>476.2</ele>
        <time>2024-07-31T09:10:36Z</time>
      </trkpt>
      <trkpt lat="47.292" lon="6.23432">
        <ele>476.2</ele>
        <time>2024-07-31T09:10:37Z</time>
      </trkpt>
      <trkpt lat="47.29198" lon="6.23431">
        <ele>476.6</ele>
        <time>2024-07-31T09:10:38Z</time>
      </trkpt>
      <trkpt lat="47.29196" lon="6.23431">
        <ele>476.8</ele>
        <time>2024-07-31T09:10:39Z</time>
      </trkpt>
      <trkpt lat="47.29194" lon="6.2343">
        <ele>476.8</ele>
        <time>2024-07-31T09:10:40Z</time>
      </trkpt>
      <trkpt lat="47.29193" lon="6.23429">
        <ele>477.2</ele>
        <time>2024-07-31T09:10:41Z</time>
      </trkpt>
      <trkpt lat="47.29191" lon="6.23428">
        <ele>477.4</ele>
        <time>2024-07-31T09:10:42Z</time>
      </trkpt>
      <trkpt lat="47.29189" lon="6.23427">
        <ele>477.8</ele>
        <time>2024-07-31T09:10:43Z</time>
      </trkpt>
      <trkpt lat="47.29188" lon="6.23426">
        <ele>478</ele>
        <time>2024-07-31T09:10:44Z</time>
      </trkpt>
      <trkpt lat="47.29187" lon="6.23425">
        <ele>478.2</ele>
        <time>2024-07-31T09:10:45Z</time>
      </trkpt>
      <trkpt lat="47.29185" lon="6.23424">
        <ele>478.6</ele>
        <time>2024-07-31T09:10:46Z</time>
      </trkpt>
      <trkpt lat="47.29184" lon="6.23423">
        <ele>478.8</ele>
        <time>2024-07-31T09:10:47Z</time>
      </trkpt>
      <trkpt lat="47.29183" lon="6.23422">
        <ele>479</ele>
        <time>2024-07-31T09:10:48Z</time>
      </trkpt>
      <trkpt lat="47.29181" lon="6.23421">
        <ele>479.4</ele>
        <time>2024-07-31T09:10:49Z</time>
      </trkpt>
      <trkpt lat="47.2918" lon="6.2342">
        <ele>479.6</ele>
        <time>2024-07-31T09:10:50Z</time>
      </trkpt>
      <trkpt lat="47.29178" lon="6.23419">
        <ele>480</ele>
        <time>2024-07-31T09:10:51Z</time>
      </trkpt>
      <trkpt lat="47.29177" lon="6.23418">
        <ele>480</ele>
        <time>2024-07-31T09:10:52Z</time>
      </trkpt>
      <trkpt lat="47.29176" lon="6.23416">
        <ele>480</ele>
        <time>2024-07-31T09:10:53Z</time>
      </trkpt>
      <trkpt lat="47.29174" lon="6.23415">
        <ele>480.2</ele>
        <time>2024-07-31T09:10:54Z</time>
      </trkpt>
      <trkpt lat="47.29173" lon="6.23414">
        <ele>480.6</ele>
        <time>2024-07-31T09:10:55Z</time>
      </trkpt>
      <trkpt lat="47.29172" lon="6.23413">
        <ele>480.6</ele>
        <time>2024-07-31T09:10:56Z</time>
      </trkpt>
      <trkpt lat="47.29171" lon="6.23411">
        <ele>480.8</ele>
        <time>2024-07-31T09:10:57Z</time>
      </trkpt>
      <trkpt lat="47.2917" lon="6.2341">
        <ele>480.8</ele>
        <time>2024-07-31T09:10:58Z</time>
      </trkpt>
      <trkpt lat="47.2917" lon="6.2341">
        <ele>480.8</ele>
        <time>2024-07-31T09:10:59Z</time>
      </trkpt>
      <trkpt lat="47.29169" lon="6.23408">
        <ele>481</ele>
        <time>2024-07-31T09:11:00Z</time>
      </trkpt>
      <trkpt lat="47.29169" lon="6.23407">
        <ele>481</ele>
        <time>2024-07-31T09:11:01Z</time>
      </trkpt>
      <trkpt lat="47.29168" lon="6.23406">
        <ele>481</ele>
        <time>2024-07-31T09:11:02Z</time>
      </trkpt>
      <trkpt lat="47.29168" lon="6.23405">
        <ele>481.2</ele>
        <time>2024-07-31T09:11:03Z</time>
      </trkpt>
      <trkpt lat="47.29167" lon="6.23404">
        <ele>481.2</ele>
        <time>2024-07-31T09:11:04Z</time>
      </trkpt>
      <trkpt lat="47.29167" lon="6.23403">
        <ele>481.2</ele>
        <time>2024-07-31T09:11:05Z</time>
      </trkpt>
      <trkpt lat="47.29166" lon="6.23402">
        <ele>481.2</ele>
        <time>2024-07-31T09:11:06Z</time>
      </trkpt>
      <trkpt lat="47.29166" lon="6.23401">
        <ele>481.4</ele>
        <time>2024-07-31T09:11:07Z</time>
      </trkpt>
      <trkpt lat="47.29165" lon="6.23399">
        <ele>481.4</ele>
        <time>2024-07-31T09:11:08Z</time>
      </trkpt>
      <trkpt lat="47.29164" lon="6.23398">
        <ele>481.6</ele>
        <time>2024-07-31T09:11:09Z</time>
      </trkpt>
      <trkpt lat="47.29163" lon="6.23396">
        <ele>481.6</ele>
        <time>2024-07-31T09:11:10Z</time>
      </trkpt>
      <trkpt lat="47.29161" lon="6.23394">
        <ele>481.6</ele>
        <time>2024-07-31T09:11:11Z</time>
      </trkpt>
      <trkpt lat="47.2916" lon="6.23392">
        <ele>482</ele>
        <time>2024-07-31T09:11:12Z</time>
      </trkpt>
      <trkpt lat="47.29159" lon="6.2339">
        <ele>481.8</ele>
        <time>2024-07-31T09:11:13Z</time>
      </trkpt>
      <trkpt lat="47.29158" lon="6.23388">
        <ele>482</ele>
        <time>2024-07-31T09:11:14Z</time>
      </trkpt>
      <trkpt lat="47.29157" lon="6.23386">
        <ele>482</ele>
        <time>2024-07-31T09:11:15Z</time>
      </trkpt>
      <trkpt lat="47.29156" lon="6.23383">
        <ele>482</ele>
        <time>2024-07-31T09:11:16Z</time>
      </trkpt>
      <trkpt lat="47.29155" lon="6.23381">
        <ele>482</ele>
        <time>2024-07-31T09:11:17Z</time>
      </trkpt>
      <trkpt lat="47.29154" lon="6.23379">
        <ele>482.4</ele>
        <time>2024-07-31T09:11:18Z</time>
      </trkpt>
      <trkpt lat="47.29153" lon="6.23377">
        <ele>482.6</ele>
        <time>2024-07-31T09:11:19Z</time>
      </trkpt>
      <trkpt lat="47.29153" lon="6.23375">
        <ele>482.6</ele>
        <time>2024-07-31T09:11:20Z</time>
      </trkpt>
      <trkpt lat="47.29152" lon="6.23373">
        <ele>482.8</ele>
        <time>2024-07-31T09:11:21Z</time>
      </trkpt>
      <trkpt lat="47.29152" lon="6.2337">
        <ele>482.8</ele>
        <time>2024-07-31T09:11:22Z</time>
      </trkpt>
      <trkpt lat="47.29151" lon="6.23368">
        <ele>483</ele>
        <time>2024-07-31T09:11:23Z</time>
      </trkpt>
      <trkpt lat="47.29151" lon="6.23366">
        <ele>483</ele>
        <time>2024-07-31T09:11:24Z</time>
      </trkpt>
      <trkpt lat="47.2915" lon="6.23363">
        <ele>483</ele>
        <time>2024-07-31T09:11:25Z</time>
      </trkpt>
      <trkpt lat="47.2915" lon="6.2336">
        <ele>483.8</ele>
        <time>2024-07-31T09:11:26Z</time>
      </trkpt>
      <trkpt lat="47.29149" lon="6.23358">
        <ele>483.8</ele>
        <time>2024-07-31T09:11:27Z</time>
      </trkpt>
      <trkpt lat="47.29148" lon="6.23355">
        <ele>483.8</ele>
        <time>2024-07-31T09:11:28Z</time>
      </trkpt>
      <trkpt lat="47.29147" lon="6.23353">
        <ele>483.8</ele>
        <time>2024-07-31T09:11:29Z</time>
      </trkpt>
      <trkpt lat="47.29146" lon="6.23351">
        <ele>483.8</ele>
        <time>2024-07-31T09:11:30Z</time>
      </trkpt>
      <trkpt lat="47.29145" lon="6.23349">
        <ele>484.2</ele>
        <time>2024-07-31T09:11:31Z</time>
      </trkpt>
      <trkpt lat="47.29144" lon="6.23347">
        <ele>484.4</ele>
        <time>2024-07-31T09:11:32Z</time>
      </trkpt>
      <trkpt lat="47.29143" lon="6.23345">
        <ele>484.6</ele>
        <time>2024-07-31T09:11:33Z</time>
      </trkpt>
      <trkpt lat="47.29142" lon="6.23343">
        <ele>484.6</ele>
        <time>2024-07-31T09:11:34Z</time>
      </trkpt>
      <trkpt lat="47.29141" lon="6.23341">
        <ele>485</ele>
        <time>2024-07-31T09:11:35Z</time>
      </trkpt>
      <trkpt lat="47.2914" lon="6.23339">
        <ele>485</ele>
        <time>2024-07-31T09:11:36Z</time>
      </trkpt>
      <trkpt lat="47.29139" lon="6.23336">
        <ele>485.2</ele>
        <time>2024-07-31T09:11:37Z</time>
      </trkpt>
      <trkpt lat="47.29137" lon="6.23334">
        <ele>485.2</ele>
        <time>2024-07-31T09:11:38Z</time>
      </trkpt>
      <trkpt lat="47.29136" lon="6.23331">
        <ele>485.4</ele>
        <time>2024-07-31T09:11:39Z</time>
      </trkpt>
      <trkpt lat="47.29135" lon="6.23328">
        <ele>485.6</ele>
        <time>2024-07-31T09:11:40Z</time>
      </trkpt>
      <trkpt lat="47.29134" lon="6.23325">
        <ele>485.8</ele>
        <time>2024-07-31T09:11:41Z</time>
      </trkpt>
      <trkpt lat="47.29133" lon="6.23323">
        <ele>485.8</ele>
        <time>2024-07-31T09:11:42Z</time>
      </trkpt>
      <trkpt lat="47.29132" lon="6.23321">
        <ele>485.8</ele>
        <time>2024-07-31T09:11:43Z</time>
      </trkpt>
      <trkpt lat="47.29131" lon="6.23319">
        <ele>485.8</ele>
        <time>2024-07-31T09:11:44Z</time>
      </trkpt>
      <trkpt lat="47.2913" lon="6.23316">
        <ele>486</ele>
        <time>2024-07-31T09:11:45Z</time>
      </trkpt>
      <trkpt lat="47.29129" lon="6.23312">
        <ele>486</ele>
        <time>2024-07-31T09:11:46Z</time>
      </trkpt>
      <trkpt lat="47.29128" lon="6.2331">
        <ele>486.4</ele>
        <time>2024-07-31T09:11:47Z</time>
      </trkpt>
      <trkpt lat="47.29126" lon="6.23307">
        <ele>486.4</ele>
        <time>2024-07-31T09:11:48Z</time>
      </trkpt>
      <trkpt lat="47.29125" lon="6.23304">
        <ele>486.6</ele>
        <time>2024-07-31T09:11:49Z</time>
      </trkpt>
      <trkpt lat="47.29124" lon="6.23302">
        <ele>486.6</ele>
        <time>2024-07-31T09:11:50Z</time>
      </trkpt>
      <trkpt lat="47.29123" lon="6.23299">
        <ele>486.8</ele>
        <time>2024-07-31T09:11:51Z</time>
      </trkpt>
      <trkpt lat="47.29122" lon="6.23296">
        <ele>486.6</ele>
        <time>2024-07-31T09:11:52Z</time>
      </trkpt>
      <trkpt lat="47.29121" lon="6.23294">
        <ele>486.8</ele>
        <time>2024-07-31T09:11:53Z</time>
      </trkpt>
      <trkpt lat="47.2912" lon="6.23291">
        <ele>486.8</ele>
        <time>2024-07-31T09:11:54Z</time>
      </trkpt>
      <trkpt lat="47.29119" lon="6.23289">
        <ele>486.8</ele>
        <time>2024-07-31T09:11:55Z</time>
      </trkpt>
      <trkpt lat="47.29119" lon="6.23286">
        <ele>487</ele>
        <time>2024-07-31T09:11:56Z</time>
      </trkpt>
      <trkpt lat="47.29118" lon="6.23283">
        <ele>487.2</ele>
        <time>2024-07-31T09:11:57Z</time>
      </trkpt>
      <trkpt lat="47.29117" lon="6.23281">
        <ele>487.4</ele>
        <time>2024-07-31T09:11:58Z</time>
      </trkpt>
      <trkpt lat="47.29116" lon="6.23278">
        <ele>488</ele>
        <time>2024-07-31T09:11:59Z</time>
      </trkpt>
      <trkpt lat="47.29116" lon="6.23276">
        <ele>488.2</ele>
        <time>2024-07-31T09:12:00Z</time>
      </trkpt>
      <trkpt lat="47.29115" lon="6.23274">
        <ele>488</ele>
        <time>2024-07-31T09:12:01Z</time>
      </trkpt>
      <trkpt lat="47.29115" lon="6.23273">
        <ele>488.4</ele>
        <time>2024-07-31T09:12:02Z</time>
      </trkpt>
      <trkpt lat="47.29114" lon="6.23271">
        <ele>488.6</ele>
        <time>2024-07-31T09:12:03Z</time>
      </trkpt>
      <trkpt lat="47.29114" lon="6.2327">
        <ele>488.6</ele>
        <time>2024-07-31T09:12:04Z</time>
      </trkpt>
      <trkpt lat="47.29113" lon="6.23269">
        <ele>488.8</ele>
        <time>2024-07-31T09:12:05Z</time>
      </trkpt>
      <trkpt lat="47.29113" lon="6.23268">
        <ele>488.8</ele>
        <time>2024-07-31T09:12:06Z</time>
      </trkpt>
      <trkpt lat="47.29112" lon="6.23267">
        <ele>488.8</ele>
        <time>2024-07-31T09:12:07Z</time>
      </trkpt>
      <trkpt lat="47.29112" lon="6.23267">
        <ele>488.8</ele>
        <time>2024-07-31T09:12:08Z</time>
      </trkpt>
      <trkpt lat="47.29111" lon="6.23267">
        <ele>488.8</ele>
        <time>2024-07-31T09:12:09Z</time>
      </trkpt>
      <trkpt lat="47.29111" lon="6.23268">
        <ele>488.8</ele>
        <time>2024-07-31T09:12:10Z</time>
      </trkpt>
      <trkpt lat="47.2911" lon="6.23267">
        <ele>488.6</ele>
        <time>2024-07-31T09:12:11Z</time>
      </trkpt>
      <trkpt lat="47.29109" lon="6.23268">
        <ele>488.4</ele>
        <time>2024-07-31T09:12:12Z</time>
      </trkpt>
      <trkpt lat="47.29109" lon="6.23268">
        <ele>488</ele>
        <time>2024-07-31T09:12:13Z</time>
      </trkpt>
      <trkpt lat="47.29108" lon="6.23267">
        <ele>488</ele>
        <time>2024-07-31T09:12:14Z</time>
      </trkpt>
      <trkpt lat="47.29107" lon="6.23267">
        <ele>487.8</ele>
        <time>2024-07-31T09:12:15Z</time>
      </trkpt>
      <trkpt lat="47.29106" lon="6.23267">
        <ele>487.6</ele>
        <time>2024-07-31T09:12:16Z</time>
      </trkpt>
      <trkpt lat="47.29105" lon="6.23266">
        <ele>487.2</ele>
        <time>2024-07-31T09:12:17Z</time>
      </trkpt>
      <trkpt lat="47.29104" lon="6.23265">
        <ele>487.4</ele>
        <time>2024-07-31T09:12:18Z</time>
      </trkpt>
      <trkpt lat="47.29103" lon="6.23264">
        <ele>487.4</ele>
        <time>2024-07-31T09:12:19Z</time>
      </trkpt>
      <trkpt lat="47.29102" lon="6.23264">
        <ele>487.4</ele>
        <time>2024-07-31T09:12:20Z</time>
      </trkpt>
      <trkpt lat="47.29101" lon="6.23263">
        <ele>487.2</ele>
        <time>2024-07-31T09:12:21Z</time>
      </trkpt>
      <trkpt lat="47.291" lon="6.23263">
        <ele>486.8</ele>
        <time>2024-07-31T09:12:22Z</time>
      </trkpt>
      <trkpt lat="47.29099" lon="6.23263">
        <ele>486.6</ele>
        <time>2024-07-31T09:12:23Z</time>
      </trkpt>
      <trkpt lat="47.29098" lon="6.23263">
        <ele>486.4</ele>
        <time>2024-07-31T09:12:24Z</time>
      </trkpt>
      <trkpt lat="47.29097" lon="6.23262">
        <ele>486.4</ele>
        <time>2024-07-31T09:12:25Z</time>
      </trkpt>
      <trkpt lat="47.29096" lon="6.23261">
        <ele>486.4</ele>
        <time>2024-07-31T09:12:26Z</time>
      </trkpt>
      <trkpt lat="47.29096" lon="6.2326">
        <ele>486.4</ele>
        <time>2024-07-31T09:12:27Z</time>
      </trkpt>
      <trkpt lat="47.29096" lon="6.23259">
        <ele>486.2</ele>
        <time>2024-07-31T09:12:28Z</time>
      </trkpt>
      <trkpt lat="47.29095" lon="6.23258">
        <ele>486</ele>
        <time>2024-07-31T09:12:29Z</time>
      </trkpt>
      <trkpt lat="47.29095" lon="6.23257">
        <ele>486.4</ele>
        <time>2024-07-31T09:12:30Z</time>
      </trkpt>
      <trkpt lat="47.29095" lon="6.23256">
        <ele>486.6</ele>
        <time>2024-07-31T09:12:31Z</time>
      </trkpt>
      <trkpt lat="47.29095" lon="6.23256">
        <ele>486.6</ele>
        <time>2024-07-31T09:12:32Z</time>
      </trkpt>
      <trkpt lat="47.29094" lon="6.23255">
        <ele>486.4</ele>
        <time>2024-07-31T09:12:33Z</time>
      </trkpt>
      <trkpt lat="47.29094" lon="6.23255">
        <ele>486.4</ele>
        <time>2024-07-31T09:12:34Z</time>
      </trkpt>
      <trkpt lat="47.29094" lon="6.23255">
        <ele>486.4</ele>
        <time>2024-07-31T09:12:35Z</time>
      </trkpt>
      <trkpt lat="47.29094" lon="6.23254">
        <ele>486.8</ele>
        <time>2024-07-31T09:12:36Z</time>
      </trkpt>
      <trkpt lat="47.29094" lon="6.23253">
        <ele>487</ele>
        <time>2024-07-31T09:12:37Z</time>
      </trkpt>
      <trkpt lat="47.29094" lon="6.23252">
        <ele>487.2</ele>
        <time>2024-07-31T09:12:38Z</time>
      </trkpt>
      <trkpt lat="47.29094" lon="6.23251">
        <ele>487.4</ele>
        <time>2024-07-31T09:12:39Z</time>
      </trkpt>
      <trkpt lat="47.29094" lon="6.23251">
        <ele>487.6</ele>
        <time>2024-07-31T09:12:40Z</time>
      </trkpt>
      <trkpt lat="47.29094" lon="6.2325">
        <ele>488</ele>
        <time>2024-07-31T09:12:41Z</time>
      </trkpt>
      <trkpt lat="47.29094" lon="6.23249">
        <ele>488</ele>
        <time>2024-07-31T09:12:42Z</time>
      </trkpt>
      <trkpt lat="47.29094" lon="6.23248">
        <ele>488</ele>
        <time>2024-07-31T09:12:43Z</time>
      </trkpt>
      <trkpt lat="47.29094" lon="6.23247">
        <ele>488</ele>
        <time>2024-07-31T09:12:44Z</time>
      </trkpt>
      <trkpt lat="47.29093" lon="6.23246">
        <ele>488</ele>
        <time>2024-07-31T09:12:45Z</time>
      </trkpt>
      <trkpt lat="47.29093" lon="6.23244">
        <ele>488.2</ele>
        <time>2024-07-31T09:12:46Z</time>
      </trkpt>
      <trkpt lat="47.29092" lon="6.23243">
        <ele>488.2</ele>
        <time>2024-07-31T09:12:47Z</time>
      </trkpt>
      <trkpt lat="47.29092" lon="6.23242">
        <ele>488.2</ele>
        <time>2024-07-31T09:12:48Z</time>
      </trkpt>
      <trkpt lat="47.29091" lon="6.23241">
        <ele>488.4</ele>
        <time>2024-07-31T09:12:49Z</time>
      </trkpt>
      <trkpt lat="47.29091" lon="6.2324">
        <ele>488.2</ele>
        <time>2024-07-31T09:12:50Z</time>
      </trkpt>
      <trkpt lat="47.2909" lon="6.23239">
        <ele>488.2</ele>
        <time>2024-07-31T09:12:51Z</time>
      </trkpt>
      <trkpt lat="47.2909" lon="6.23238">
        <ele>488.4</ele>
        <time>2024-07-31T09:12:52Z</time>
      </trkpt>
      <trkpt lat="47.2909" lon="6.23237">
        <ele>488.4</ele>
        <time>2024-07-31T09:12:53Z</time>
      </trkpt>
      <trkpt lat="47.2909" lon="6.23236">
        <ele>488.6</ele>
        <time>2024-07-31T09:12:54Z</time>
      </trkpt>
      <trkpt lat="47.2909" lon="6.23235">
        <ele>488.4</ele>
        <time>2024-07-31T09:12:55Z</time>
      </trkpt>
      <trkpt lat="47.29089" lon="6.23234">
        <ele>488.6</ele>
        <time>2024-07-31T09:12:56Z</time>
      </trkpt>
      <trkpt lat="47.29089" lon="6.23234">
        <ele>488.6</ele>
        <time>2024-07-31T09:12:57Z</time>
      </trkpt>
      <trkpt lat="47.29088" lon="6.23233">
        <ele>488.8</ele>
        <time>2024-07-31T09:12:58Z</time>
      </trkpt>
      <trkpt lat="47.29088" lon="6.23233">
        <ele>488.6</ele>
        <time>2024-07-31T09:12:59Z</time>
      </trkpt>
      <trkpt lat="47.29087" lon="6.23232">
        <ele>488.4</ele>
        <time>2024-07-31T09:13:00Z</time>
      </trkpt>
      <trkpt lat="47.29087" lon="6.23232">
        <ele>488.4</ele>
        <time>2024-07-31T09:13:01Z</time>
      </trkpt>
      <trkpt lat="47.29087" lon="6.23231">
        <ele>488.4</ele>
        <time>2024-07-31T09:13:02Z</time>
      </trkpt>
      <trkpt lat="47.29087" lon="6.2323">
        <ele>488.4</ele>
        <time>2024-07-31T09:13:03Z</time>
      </trkpt>
      <trkpt lat="47.29086" lon="6.23229">
        <ele>488.6</ele>
        <time>2024-07-31T09:13:04Z</time>
      </trkpt>
      <trkpt lat="47.29086" lon="6.23229">
        <ele>488.6</ele>
        <time>2024-07-31T09:13:05Z</time>
      </trkpt>
      <trkpt lat="47.29086" lon="6.23228">
        <ele>488.8</ele>
        <time>2024-07-31T09:13:06Z</time>
      </trkpt>
      <trkpt lat="47.29086" lon="6.23227">
        <ele>489</ele>
        <time>2024-07-31T09:13:07Z</time>
      </trkpt>
      <trkpt lat="47.29087" lon="6.23226">
        <ele>489.4</ele>
        <time>2024-07-31T09:13:08Z</time>
      </trkpt>
      <trkpt lat="47.29087" lon="6.23224">
        <ele>489.2</ele>
        <time>2024-07-31T09:13:09Z</time>
      </trkpt>
      <trkpt lat="47.29087" lon="6.23223">
        <ele>489.2</ele>
        <time>2024-07-31T09:13:10Z</time>
      </trkpt>
      <trkpt lat="47.29088" lon="6.23222">
        <ele>489.2</ele>
        <time>2024-07-31T09:13:11Z</time>
      </trkpt>
      <trkpt lat="47.29088" lon="6.23221">
        <ele>489.4</ele>
        <time>2024-07-31T09:13:12Z</time>
      </trkpt>
      <trkpt lat="47.29089" lon="6.23221">
        <ele>489.6</ele>
        <time>2024-07-31T09:13:13Z</time>
      </trkpt>
      <trkpt lat="47.2909" lon="6.23221">
        <ele>489.8</ele>
        <time>2024-07-31T09:13:14Z</time>
      </trkpt>
      <trkpt lat="47.2909" lon="6.23221">
        <ele>490</ele>
        <time>2024-07-31T09:13:15Z</time>
      </trkpt>
      <trkpt lat="47.29091" lon="6.23221">
        <ele>490</ele>
        <time>2024-07-31T09:13:16Z</time>
      </trkpt>
      <trkpt lat="47.29092" lon="6.23221">
        <ele>490.2</ele>
        <time>2024-07-31T09:13:17Z</time>
      </trkpt>
      <trkpt lat="47.29092" lon="6.23221">
        <ele>490.6</ele>
        <time>2024-07-31T09:13:18Z</time>
      </trkpt>
      <trkpt lat="47.29093" lon="6.23221">
        <ele>490.6</ele>
        <time>2024-07-31T09:13:19Z</time>
      </trkpt>
      <trkpt lat="47.29093" lon="6.23221">
        <ele>490.8</ele>
        <time>2024-07-31T09:13:20Z</time>
      </trkpt>
      <trkpt lat="47.29094" lon="6.2322">
        <ele>490.8</ele>
        <time>2024-07-31T09:13:21Z</time>
      </trkpt>
      <trkpt lat="47.29094" lon="6.23219">
        <ele>491</ele>
        <time>2024-07-31T09:13:22Z</time>
      </trkpt>
      <trkpt lat="47.29094" lon="6.23217">
        <ele>491</ele>
        <time>2024-07-31T09:13:23Z</time>
      </trkpt>
      <trkpt lat="47.29095" lon="6.23216">
        <ele>491.2</ele>
        <time>2024-07-31T09:13:24Z</time>
      </trkpt>
      <trkpt lat="47.29095" lon="6.23216">
        <ele>491.2</ele>
        <time>2024-07-31T09:13:25Z</time>
      </trkpt>
      <trkpt lat="47.29095" lon="6.23216">
        <ele>491.4</ele>
        <time>2024-07-31T09:13:26Z</time>
      </trkpt>
      <trkpt lat="47.29095" lon="6.23215">
        <ele>491.4</ele>
        <time>2024-07-31T09:13:27Z</time>
      </trkpt>
      <trkpt lat="47.29095" lon="6.23214">
        <ele>491.4</ele>
        <time>2024-07-31T09:13:28Z</time>
      </trkpt>
      <trkpt lat="47.29095" lon="6.23212">
        <ele>491.6</ele>
        <time>2024-07-31T09:13:29Z</time>
      </trkpt>
      <trkpt lat="47.29095" lon="6.2321">
        <ele>491.8</ele>
        <time>2024-07-31T09:13:30Z</time>
      </trkpt>
      <trkpt lat="47.29095" lon="6.23209">
        <ele>491.8</ele>
        <time>2024-07-31T09:13:31Z</time>
      </trkpt>
      <trkpt lat="47.29095" lon="6.23207">
        <ele>491.8</ele>
        <time>2024-07-31T09:13:32Z</time>
      </trkpt>
      <trkpt lat="47.29095" lon="6.23204">
        <ele>492.2</ele>
        <time>2024-07-31T09:13:33Z</time>
      </trkpt>
      <trkpt lat="47.29095" lon="6.23202">
        <ele>492.4</ele>
        <time>2024-07-31T09:13:34Z</time>
      </trkpt>
      <trkpt lat="47.29095" lon="6.23199">
        <ele>492.6</ele>
        <time>2024-07-31T09:13:35Z</time>
      </trkpt>
      <trkpt lat="47.29095" lon="6.23197">
        <ele>492.6</ele>
        <time>2024-07-31T09:13:36Z</time>
      </trkpt>
      <trkpt lat="47.29094" lon="6.23194">
        <ele>493</ele>
        <time>2024-07-31T09:13:37Z</time>
      </trkpt>
      <trkpt lat="47.29094" lon="6.23192">
        <ele>493.2</ele>
        <time>2024-07-31T09:13:38Z</time>
      </trkpt>
      <trkpt lat="47.29094" lon="6.23189">
        <ele>493</ele>
        <time>2024-07-31T09:13:39Z</time>
      </trkpt>
      <trkpt lat="47.29093" lon="6.23187">
        <ele>493.2</ele>
        <time>2024-07-31T09:13:40Z</time>
      </trkpt>
      <trkpt lat="47.29093" lon="6.23185">
        <ele>493.4</ele>
        <time>2024-07-31T09:13:41Z</time>
      </trkpt>
      <trkpt lat="47.29093" lon="6.23182">
        <ele>493.8</ele>
        <time>2024-07-31T09:13:42Z</time>
      </trkpt>
      <trkpt lat="47.29093" lon="6.23179">
        <ele>493.8</ele>
        <time>2024-07-31T09:13:43Z</time>
      </trkpt>
      <trkpt lat="47.29093" lon="6.23177">
        <ele>494</ele>
        <time>2024-07-31T09:13:44Z</time>
      </trkpt>
      <trkpt lat="47.29092" lon="6.23174">
        <ele>494.2</ele>
        <time>2024-07-31T09:13:45Z</time>
      </trkpt>
      <trkpt lat="47.29092" lon="6.23171">
        <ele>494.6</ele>
        <time>2024-07-31T09:13:46Z</time>
      </trkpt>
      <trkpt lat="47.29092" lon="6.23169">
        <ele>494.8</ele>
        <time>2024-07-31T09:13:47Z</time>
      </trkpt>
      <trkpt lat="47.29092" lon="6.23166">
        <ele>495</ele>
        <time>2024-07-31T09:13:48Z</time>
      </trkpt>
      <trkpt lat="47.29091" lon="6.23164">
        <ele>495.2</ele>
        <time>2024-07-31T09:13:49Z</time>
      </trkpt>
      <trkpt lat="47.29091" lon="6.23161">
        <ele>495.6</ele>
        <time>2024-07-31T09:13:50Z</time>
      </trkpt>
      <trkpt lat="47.2909" lon="6.23159">
        <ele>495.8</ele>
        <time>2024-07-31T09:13:51Z</time>
      </trkpt>
      <trkpt lat="47.2909" lon="6.23156">
        <ele>496</ele>
        <time>2024-07-31T09:13:52Z</time>
      </trkpt>
      <trkpt lat="47.29089" lon="6.23154">
        <ele>496.2</ele>
        <time>2024-07-31T09:13:53Z</time>
      </trkpt>
      <trkpt lat="47.29089" lon="6.23152">
        <ele>496.2</ele>
        <time>2024-07-31T09:13:54Z</time>
      </trkpt>
      <trkpt lat="47.29088" lon="6.2315">
        <ele>496.2</ele>
        <time>2024-07-31T09:13:55Z</time>
      </trkpt>
      <trkpt lat="47.29087" lon="6.23147">
        <ele>496.4</ele>
        <time>2024-07-31T09:13:56Z</time>
      </trkpt>
      <trkpt lat="47.29086" lon="6.23144">
        <ele>496.6</ele>
        <time>2024-07-31T09:13:57Z</time>
      </trkpt>
      <trkpt lat="47.29085" lon="6.23142">
        <ele>496.8</ele>
        <time>2024-07-31T09:13:58Z</time>
      </trkpt>
      <trkpt lat="47.29085" lon="6.2314">
        <ele>496.8</ele>
        <time>2024-07-31T09:13:59Z</time>
      </trkpt>
      <trkpt lat="47.29084" lon="6.23138">
        <ele>497</ele>
        <time>2024-07-31T09:14:00Z</time>
      </trkpt>
      <trkpt lat="47.29083" lon="6.23136">
        <ele>497.2</ele>
        <time>2024-07-31T09:14:01Z</time>
      </trkpt>
      <trkpt lat="47.29082" lon="6.23134">
        <ele>497.2</ele>
        <time>2024-07-31T09:14:02Z</time>
      </trkpt>
      <trkpt lat="47.29082" lon="6.23132">
        <ele>497.4</ele>
        <time>2024-07-31T09:14:03Z</time>
      </trkpt>
      <trkpt lat="47.29081" lon="6.2313">
        <ele>497.4</ele>
        <time>2024-07-31T09:14:04Z</time>
      </trkpt>
      <trkpt lat="47.2908" lon="6.23127">
        <ele>497.2</ele>
        <time>2024-07-31T09:14:05Z</time>
      </trkpt>
      <trkpt lat="47.29079" lon="6.23124">
        <ele>497.6</ele>
        <time>2024-07-31T09:14:06Z</time>
      </trkpt>
      <trkpt lat="47.29079" lon="6.2312">
        <ele>497.4</ele>
        <time>2024-07-31T09:14:07Z</time>
      </trkpt>
      <trkpt lat="47.29078" lon="6.23117">
        <ele>497.6</ele>
        <time>2024-07-31T09:14:08Z</time>
      </trkpt>
      <trkpt lat="47.29078" lon="6.23114">
        <ele>497.6</ele>
        <time>2024-07-31T09:14:09Z</time>
      </trkpt>
      <trkpt lat="47.29077" lon="6.23111">
        <ele>497.6</ele>
        <time>2024-07-31T09:14:10Z</time>
      </trkpt>
      <trkpt lat="47.29077" lon="6.23108">
        <ele>497.8</ele>
        <time>2024-07-31T09:14:11Z</time>
      </trkpt>
      <trkpt lat="47.29076" lon="6.23105">
        <ele>498</ele>
        <time>2024-07-31T09:14:12Z</time>
      </trkpt>
      <trkpt lat="47.29076" lon="6.23102">
        <ele>498</ele>
        <time>2024-07-31T09:14:13Z</time>
      </trkpt>
      <trkpt lat="47.29075" lon="6.231">
        <ele>498</ele>
        <time>2024-07-31T09:14:14Z</time>
      </trkpt>
      <trkpt lat="47.29075" lon="6.23098">
        <ele>498.2</ele>
        <time>2024-07-31T09:14:15Z</time>
      </trkpt>
      <trkpt lat="47.29075" lon="6.23095">
        <ele>498.2</ele>
        <time>2024-07-31T09:14:16Z</time>
      </trkpt>
      <trkpt lat="47.29074" lon="6.23093">
        <ele>498</ele>
        <time>2024-07-31T09:14:17Z</time>
      </trkpt>
      <trkpt lat="47.29074" lon="6.23091">
        <ele>498.4</ele>
        <time>2024-07-31T09:14:18Z</time>
      </trkpt>
      <trkpt lat="47.29074" lon="6.23088">
        <ele>498.2</ele>
        <time>2024-07-31T09:14:19Z</time>
      </trkpt>
      <trkpt lat="47.29073" lon="6.23086">
        <ele>498.4</ele>
        <time>2024-07-31T09:14:20Z</time>
      </trkpt>
      <trkpt lat="47.29072" lon="6.23084">
        <ele>498.6</ele>
        <time>2024-07-31T09:14:21Z</time>
      </trkpt>
      <trkpt lat="47.29071" lon="6.23082">
        <ele>498.6</ele>
        <time>2024-07-31T09:14:22Z</time>
      </trkpt>
      <trkpt lat="47.29071" lon="6.23079">
        <ele>498.6</ele>
        <time>2024-07-31T09:14:23Z</time>
      </trkpt>
      <trkpt lat="47.29071" lon="6.23077">
        <ele>498.6</ele>
        <time>2024-07-31T09:14:24Z</time>
      </trkpt>
      <trkpt lat="47.29071" lon="6.23075">
        <ele>498.8</ele>
        <time>2024-07-31T09:14:25Z</time>
      </trkpt>
      <trkpt lat="47.2907" lon="6.23071">
        <ele>498.6</ele>
        <time>2024-07-31T09:14:26Z</time>
      </trkpt>
      <trkpt lat="47.2907" lon="6.23069">
        <ele>498.8</ele>
        <time>2024-07-31T09:14:27Z</time>
      </trkpt>
      <trkpt lat="47.29069" lon="6.23066">
        <ele>499</ele>
        <time>2024-07-31T09:14:28Z</time>
      </trkpt>
      <trkpt lat="47.29069" lon="6.23064">
        <ele>499</ele>
        <time>2024-07-31T09:14:29Z</time>
      </trkpt>
      <trkpt lat="47.29069" lon="6.23061">
        <ele>499</ele>
        <time>2024-07-31T09:14:30Z</time>
      </trkpt>
      <trkpt lat="47.29069" lon="6.23058">
        <ele>499.2</ele>
        <time>2024-07-31T09:14:31Z</time>
      </trkpt>
      <trkpt lat="47.29069" lon="6.23055">
        <ele>499.6</ele>
        <time>2024-07-31T09:14:32Z</time>
      </trkpt>
      <trkpt lat="47.29068" lon="6.23052">
        <ele>499.6</ele>
        <time>2024-07-31T09:14:33Z</time>
      </trkpt>
      <trkpt lat="47.29068" lon="6.23049">
        <ele>499.6</ele>
        <time>2024-07-31T09:14:34Z</time>
      </trkpt>
      <trkpt lat="47.29067" lon="6.23047">
        <ele>499.4</ele>
        <time>2024-07-31T09:14:35Z</time>
      </trkpt>
      <trkpt lat="47.29067" lon="6.23044">
        <ele>499.6</ele>
        <time>2024-07-31T09:14:36Z</time>
      </trkpt>
      <trkpt lat="47.29067" lon="6.23042">
        <ele>499.8</ele>
        <time>2024-07-31T09:14:37Z</time>
      </trkpt>
      <trkpt lat="47.29067" lon="6.23039">
        <ele>499.8</ele>
        <time>2024-07-31T09:14:38Z</time>
      </trkpt>
      <trkpt lat="47.29066" lon="6.23036">
        <ele>499.8</ele>
        <time>2024-07-31T09:14:39Z</time>
      </trkpt>
      <trkpt lat="47.29065" lon="6.23033">
        <ele>500</ele>
        <time>2024-07-31T09:14:40Z</time>
      </trkpt>
      <trkpt lat="47.29065" lon="6.2303">
        <ele>500</ele>
        <time>2024-07-31T09:14:41Z</time>
      </trkpt>
      <trkpt lat="47.29064" lon="6.23027">
        <ele>500.2</ele>
        <time>2024-07-31T09:14:42Z</time>
      </trkpt>
      <trkpt lat="47.29064" lon="6.23024">
        <ele>500.2</ele>
        <time>2024-07-31T09:14:43Z</time>
      </trkpt>
      <trkpt lat="47.29063" lon="6.23021">
        <ele>500.4</ele>
        <time>2024-07-31T09:14:44Z</time>
      </trkpt>
      <trkpt lat="47.29062" lon="6.23018">
        <ele>500.6</ele>
        <time>2024-07-31T09:14:45Z</time>
      </trkpt>
      <trkpt lat="47.29061" lon="6.23014">
        <ele>500.6</ele>
        <time>2024-07-31T09:14:46Z</time>
      </trkpt>
      <trkpt lat="47.29061" lon="6.23011">
        <ele>501</ele>
        <time>2024-07-31T09:14:47Z</time>
      </trkpt>
      <trkpt lat="47.2906" lon="6.23008">
        <ele>501</ele>
        <time>2024-07-31T09:14:48Z</time>
      </trkpt>
      <trkpt lat="47.2906" lon="6.23005">
        <ele>501.2</ele>
        <time>2024-07-31T09:14:49Z</time>
      </trkpt>
      <trkpt lat="47.2906" lon="6.23002">
        <ele>501.4</ele>
        <time>2024-07-31T09:14:50Z</time>
      </trkpt>
      <trkpt lat="47.2906" lon="6.22999">
        <ele>501.4</ele>
        <time>2024-07-31T09:14:51Z</time>
      </trkpt>
      <trkpt lat="47.29059" lon="6.22997">
        <ele>501.6</ele>
        <time>2024-07-31T09:14:52Z</time>
      </trkpt>
      <trkpt lat="47.29059" lon="6.22994">
        <ele>501.6</ele>
        <time>2024-07-31T09:14:53Z</time>
      </trkpt>
      <trkpt lat="47.29059" lon="6.22992">
        <ele>502</ele>
        <time>2024-07-31T09:14:54Z</time>
      </trkpt>
      <trkpt lat="47.29059" lon="6.22989">
        <ele>502</ele>
        <time>2024-07-31T09:14:55Z</time>
      </trkpt>
      <trkpt lat="47.29059" lon="6.22986">
        <ele>502</ele>
        <time>2024-07-31T09:14:56Z</time>
      </trkpt>
      <trkpt lat="47.29058" lon="6.22984">
        <ele>502</ele>
        <time>2024-07-31T09:14:57Z</time>
      </trkpt>
      <trkpt lat="47.29058" lon="6.22981">
        <ele>502.4</ele>
        <time>2024-07-31T09:14:58Z</time>
      </trkpt>
      <trkpt lat="47.29058" lon="6.22978">
        <ele>502.6</ele>
        <time>2024-07-31T09:14:59Z</time>
      </trkpt>
      <trkpt lat="47.29058" lon="6.22976">
        <ele>502.6</ele>
        <time>2024-07-31T09:15:00Z</time>
      </trkpt>
      <trkpt lat="47.29058" lon="6.22974">
        <ele>502.6</ele>
        <time>2024-07-31T09:15:01Z</time>
      </trkpt>
      <trkpt lat="47.29058" lon="6.22971">
        <ele>502.6</ele>
        <time>2024-07-31T09:15:02Z</time>
      </trkpt>
      <trkpt lat="47.29057" lon="6.22969">
        <ele>502.8</ele>
        <time>2024-07-31T09:15:03Z</time>
      </trkpt>
      <trkpt lat="47.29056" lon="6.22966">
        <ele>502.8</ele>
        <time>2024-07-31T09:15:04Z</time>
      </trkpt>
      <trkpt lat="47.29055" lon="6.22963">
        <ele>503</ele>
        <time>2024-07-31T09:15:05Z</time>
      </trkpt>
      <trkpt lat="47.29055" lon="6.2296">
        <ele>502.8</ele>
        <time>2024-07-31T09:15:06Z</time>
      </trkpt>
      <trkpt lat="47.29053" lon="6.22957">
        <ele>503</ele>
        <time>2024-07-31T09:15:07Z</time>
      </trkpt>
      <trkpt lat="47.29052" lon="6.22953">
        <ele>503</ele>
        <time>2024-07-31T09:15:08Z</time>
      </trkpt>
      <trkpt lat="47.29051" lon="6.2295">
        <ele>503</ele>
        <time>2024-07-31T09:15:09Z</time>
      </trkpt>
      <trkpt lat="47.2905" lon="6.22946">
        <ele>503.2</ele>
        <time>2024-07-31T09:15:10Z</time>
      </trkpt>
      <trkpt lat="47.29049" lon="6.22943">
        <ele>503.2</ele>
        <time>2024-07-31T09:15:11Z</time>
      </trkpt>
      <trkpt lat="47.29048" lon="6.2294">
        <ele>503</ele>
        <time>2024-07-31T09:15:12Z</time>
      </trkpt>
      <trkpt lat="47.29047" lon="6.22937">
        <ele>503.4</ele>
        <time>2024-07-31T09:15:13Z</time>
      </trkpt>
      <trkpt lat="47.29047" lon="6.22934">
        <ele>503.4</ele>
        <time>2024-07-31T09:15:14Z</time>
      </trkpt>
      <trkpt lat="47.29046" lon="6.22931">
        <ele>503.2</ele>
        <time>2024-07-31T09:15:15Z</time>
      </trkpt>
      <trkpt lat="47.29046" lon="6.22927">
        <ele>503.6</ele>
        <time>2024-07-31T09:15:16Z</time>
      </trkpt>
      <trkpt lat="47.29046" lon="6.22924">
        <ele>503.6</ele>
        <time>2024-07-31T09:15:17Z</time>
      </trkpt>
      <trkpt lat="47.29045" lon="6.22921">
        <ele>503.4</ele>
        <time>2024-07-31T09:15:18Z</time>
      </trkpt>
      <trkpt lat="47.29045" lon="6.22919">
        <ele>504.2</ele>
        <time>2024-07-31T09:15:19Z</time>
      </trkpt>
      <trkpt lat="47.29045" lon="6.22916">
        <ele>504.4</ele>
        <time>2024-07-31T09:15:20Z</time>
      </trkpt>
      <trkpt lat="47.29045" lon="6.22914">
        <ele>504.6</ele>
        <time>2024-07-31T09:15:21Z</time>
      </trkpt>
      <trkpt lat="47.29045" lon="6.22912">
        <ele>504.6</ele>
        <time>2024-07-31T09:15:22Z</time>
      </trkpt>
      <trkpt lat="47.29045" lon="6.22909">
        <ele>504.8</ele>
        <time>2024-07-31T09:15:23Z</time>
      </trkpt>
      <trkpt lat="47.29045" lon="6.22906">
        <ele>504.8</ele>
        <time>2024-07-31T09:15:24Z</time>
      </trkpt>
      <trkpt lat="47.29045" lon="6.22903">
        <ele>504.8</ele>
        <time>2024-07-31T09:15:25Z</time>
      </trkpt>
      <trkpt lat="47.29045" lon="6.229">
        <ele>504.8</ele>
        <time>2024-07-31T09:15:26Z</time>
      </trkpt>
      <trkpt lat="47.29045" lon="6.22897">
        <ele>505</ele>
        <time>2024-07-31T09:15:27Z</time>
      </trkpt>
      <trkpt lat="47.29045" lon="6.22895">
        <ele>505</ele>
        <time>2024-07-31T09:15:28Z</time>
      </trkpt>
      <trkpt lat="47.29045" lon="6.22892">
        <ele>505.4</ele>
        <time>2024-07-31T09:15:29Z</time>
      </trkpt>
      <trkpt lat="47.29045" lon="6.2289">
        <ele>505.8</ele>
        <time>2024-07-31T09:15:30Z</time>
      </trkpt>
      <trkpt lat="47.29045" lon="6.22887">
        <ele>505.8</ele>
        <time>2024-07-31T09:15:31Z</time>
      </trkpt>
      <trkpt lat="47.29045" lon="6.22886">
        <ele>505.6</ele>
        <time>2024-07-31T09:15:32Z</time>
      </trkpt>
      <trkpt lat="47.29045" lon="6.22886">
        <ele>505.2</ele>
        <time>2024-07-31T09:15:33Z</time>
      </trkpt>
      <trkpt lat="47.29044" lon="6.22884">
        <ele>504.8</ele>
        <time>2024-07-31T09:15:34Z</time>
      </trkpt>
      <trkpt lat="47.29043" lon="6.22881">
        <ele>505</ele>
        <time>2024-07-31T09:15:35Z</time>
      </trkpt>
      <trkpt lat="47.29042" lon="6.22878">
        <ele>505</ele>
        <time>2024-07-31T09:15:36Z</time>
      </trkpt>
      <trkpt lat="47.29042" lon="6.22875">
        <ele>505</ele>
        <time>2024-07-31T09:15:37Z</time>
      </trkpt>
      <trkpt lat="47.29042" lon="6.22872">
        <ele>505</ele>
        <time>2024-07-31T09:15:38Z</time>
      </trkpt>
      <trkpt lat="47.29041" lon="6.22868">
        <ele>505.2</ele>
        <time>2024-07-31T09:15:39Z</time>
      </trkpt>
      <trkpt lat="47.29041" lon="6.22865">
        <ele>505.4</ele>
        <time>2024-07-31T09:15:40Z</time>
      </trkpt>
      <trkpt lat="47.2904" lon="6.2286">
        <ele>505.4</ele>
        <time>2024-07-31T09:15:41Z</time>
      </trkpt>
      <trkpt lat="47.29039" lon="6.22857">
        <ele>505.8</ele>
        <time>2024-07-31T09:15:42Z</time>
      </trkpt>
      <trkpt lat="47.29039" lon="6.22853">
        <ele>505.8</ele>
        <time>2024-07-31T09:15:43Z</time>
      </trkpt>
      <trkpt lat="47.29039" lon="6.22851">
        <ele>505.8</ele>
        <time>2024-07-31T09:15:44Z</time>
      </trkpt>
      <trkpt lat="47.29038" lon="6.22847">
        <ele>506.2</ele>
        <time>2024-07-31T09:15:45Z</time>
      </trkpt>
      <trkpt lat="47.29038" lon="6.22844">
        <ele>506.2</ele>
        <time>2024-07-31T09:15:46Z</time>
      </trkpt>
      <trkpt lat="47.29038" lon="6.2284">
        <ele>506</ele>
        <time>2024-07-31T09:15:47Z</time>
      </trkpt>
      <trkpt lat="47.29038" lon="6.22835">
        <ele>506.2</ele>
        <time>2024-07-31T09:15:48Z</time>
      </trkpt>
      <trkpt lat="47.29038" lon="6.22831">
        <ele>505.8</ele>
        <time>2024-07-31T09:15:49Z</time>
      </trkpt>
      <trkpt lat="47.29038" lon="6.22826">
        <ele>506.2</ele>
        <time>2024-07-31T09:15:50Z</time>
      </trkpt>
      <trkpt lat="47.29037" lon="6.22822">
        <ele>506.2</ele>
        <time>2024-07-31T09:15:51Z</time>
      </trkpt>
      <trkpt lat="47.29037" lon="6.22817">
        <ele>506.2</ele>
        <time>2024-07-31T09:15:52Z</time>
      </trkpt>
      <trkpt lat="47.29036" lon="6.22813">
        <ele>506.2</ele>
        <time>2024-07-31T09:15:53Z</time>
      </trkpt>
      <trkpt lat="47.29035" lon="6.22809">
        <ele>506</ele>
        <time>2024-07-31T09:15:54Z</time>
      </trkpt>
      <trkpt lat="47.29035" lon="6.22805">
        <ele>506.4</ele>
        <time>2024-07-31T09:15:55Z</time>
      </trkpt>
      <trkpt lat="47.29034" lon="6.22801">
        <ele>506.4</ele>
        <time>2024-07-31T09:15:56Z</time>
      </trkpt>
      <trkpt lat="47.29034" lon="6.22797">
        <ele>506.2</ele>
        <time>2024-07-31T09:15:57Z</time>
      </trkpt>
      <trkpt lat="47.29033" lon="6.22793">
        <ele>506.6</ele>
        <time>2024-07-31T09:15:58Z</time>
      </trkpt>
      <trkpt lat="47.29032" lon="6.22789">
        <ele>506.8</ele>
        <time>2024-07-31T09:15:59Z</time>
      </trkpt>
      <trkpt lat="47.29031" lon="6.22785">
        <ele>506.8</ele>
        <time>2024-07-31T09:16:00Z</time>
      </trkpt>
      <trkpt lat="47.29031" lon="6.22781">
        <ele>506.8</ele>
        <time>2024-07-31T09:16:01Z</time>
      </trkpt>
      <trkpt lat="47.2903" lon="6.22778">
        <ele>507.2</ele>
        <time>2024-07-31T09:16:02Z</time>
      </trkpt>
      <trkpt lat="47.29028" lon="6.22773">
        <ele>507.2</ele>
        <time>2024-07-31T09:16:03Z</time>
      </trkpt>
      <trkpt lat="47.29026" lon="6.22769">
        <ele>507.4</ele>
        <time>2024-07-31T09:16:04Z</time>
      </trkpt>
      <trkpt lat="47.29026" lon="6.22765">
        <ele>507.4</ele>
        <time>2024-07-31T09:16:05Z</time>
      </trkpt>
      <trkpt lat="47.29025" lon="6.2276">
        <ele>507.4</ele>
        <time>2024-07-31T09:16:06Z</time>
      </trkpt>
      <trkpt lat="47.29024" lon="6.22756">
        <ele>507.4</ele>
        <time>2024-07-31T09:16:07Z</time>
      </trkpt>
      <trkpt lat="47.29024" lon="6.22751">
        <ele>507.4</ele>
        <time>2024-07-31T09:16:08Z</time>
      </trkpt>
      <trkpt lat="47.29023" lon="6.22747">
        <ele>507.4</ele>
        <time>2024-07-31T09:16:09Z</time>
      </trkpt>
      <trkpt lat="47.29022" lon="6.22742">
        <ele>507.4</ele>
        <time>2024-07-31T09:16:10Z</time>
      </trkpt>
      <trkpt lat="47.29021" lon="6.22738">
        <ele>507.4</ele>
        <time>2024-07-31T09:16:11Z</time>
      </trkpt>
      <trkpt lat="47.2902" lon="6.22733">
        <ele>507.2</ele>
        <time>2024-07-31T09:16:12Z</time>
      </trkpt>
      <trkpt lat="47.29019" lon="6.22729">
        <ele>507.2</ele>
        <time>2024-07-31T09:16:13Z</time>
      </trkpt>
      <trkpt lat="47.29018" lon="6.22724">
        <ele>507.2</ele>
        <time>2024-07-31T09:16:14Z</time>
      </trkpt>
      <trkpt lat="47.29018" lon="6.2272">
        <ele>507.4</ele>
        <time>2024-07-31T09:16:15Z</time>
      </trkpt>
      <trkpt lat="47.29018" lon="6.22715">
        <ele>507.4</ele>
        <time>2024-07-31T09:16:16Z</time>
      </trkpt>
      <trkpt lat="47.29018" lon="6.2271">
        <ele>507.8</ele>
        <time>2024-07-31T09:16:17Z</time>
      </trkpt>
      <trkpt lat="47.29018" lon="6.22705">
        <ele>507.6</ele>
        <time>2024-07-31T09:16:18Z</time>
      </trkpt>
      <trkpt lat="47.29018" lon="6.22701">
        <ele>507.6</ele>
        <time>2024-07-31T09:16:19Z</time>
      </trkpt>
      <trkpt lat="47.29019" lon="6.22696">
        <ele>507.8</ele>
        <time>2024-07-31T09:16:20Z</time>
      </trkpt>
      <trkpt lat="47.29018" lon="6.22692">
        <ele>508.2</ele>
        <time>2024-07-31T09:16:21Z</time>
      </trkpt>
      <trkpt lat="47.29018" lon="6.22686">
        <ele>508.2</ele>
        <time>2024-07-31T09:16:22Z</time>
      </trkpt>
      <trkpt lat="47.29019" lon="6.22682">
        <ele>508.8</ele>
        <time>2024-07-31T09:16:23Z</time>
      </trkpt>
      <trkpt lat="47.29019" lon="6.22677">
        <ele>508.6</ele>
        <time>2024-07-31T09:16:24Z</time>
      </trkpt>
      <trkpt lat="47.2902" lon="6.22673">
        <ele>509</ele>
        <time>2024-07-31T09:16:25Z</time>
      </trkpt>
      <trkpt lat="47.2902" lon="6.22669">
        <ele>508.8</ele>
        <time>2024-07-31T09:16:26Z</time>
      </trkpt>
      <trkpt lat="47.2902" lon="6.22665">
        <ele>509</ele>
        <time>2024-07-31T09:16:27Z</time>
      </trkpt>
      <trkpt lat="47.29021" lon="6.2266">
        <ele>509</ele>
        <time>2024-07-31T09:16:28Z</time>
      </trkpt>
      <trkpt lat="47.29021" lon="6.22655">
        <ele>509.8</ele>
        <time>2024-07-31T09:16:29Z</time>
      </trkpt>
      <trkpt lat="47.29021" lon="6.2265">
        <ele>509.8</ele>
        <time>2024-07-31T09:16:30Z</time>
      </trkpt>
      <trkpt lat="47.29021" lon="6.22645">
        <ele>509.6</ele>
        <time>2024-07-31T09:16:31Z</time>
      </trkpt>
      <trkpt lat="47.29021" lon="6.22641">
        <ele>510</ele>
        <time>2024-07-31T09:16:32Z</time>
      </trkpt>
      <trkpt lat="47.29021" lon="6.22637">
        <ele>510.2</ele>
        <time>2024-07-31T09:16:33Z</time>
      </trkpt>
      <trkpt lat="47.29021" lon="6.22633">
        <ele>510.4</ele>
        <time>2024-07-31T09:16:34Z</time>
      </trkpt>
      <trkpt lat="47.29021" lon="6.22629">
        <ele>510.6</ele>
        <time>2024-07-31T09:16:35Z</time>
      </trkpt>
      <trkpt lat="47.29021" lon="6.22625">
        <ele>510.6</ele>
        <time>2024-07-31T09:16:36Z</time>
      </trkpt>
      <trkpt lat="47.29021" lon="6.22621">
        <ele>511.2</ele>
        <time>2024-07-31T09:16:37Z</time>
      </trkpt>
      <trkpt lat="47.29021" lon="6.22617">
        <ele>511.6</ele>
        <time>2024-07-31T09:16:38Z</time>
      </trkpt>
      <trkpt lat="47.29021" lon="6.22614">
        <ele>511.4</ele>
        <time>2024-07-31T09:16:39Z</time>
      </trkpt>
      <trkpt lat="47.29022" lon="6.2261">
        <ele>511.4</ele>
        <time>2024-07-31T09:16:40Z</time>
      </trkpt>
      <trkpt lat="47.29022" lon="6.22606">
        <ele>512</ele>
        <time>2024-07-31T09:16:41Z</time>
      </trkpt>
      <trkpt lat="47.29023" lon="6.22602">
        <ele>511.8</ele>
        <time>2024-07-31T09:16:42Z</time>
      </trkpt>
      <trkpt lat="47.29023" lon="6.22598">
        <ele>512.2</ele>
        <time>2024-07-31T09:16:43Z</time>
      </trkpt>
      <trkpt lat="47.29023" lon="6.22595">
        <ele>512.2</ele>
        <time>2024-07-31T09:16:44Z</time>
      </trkpt>
      <trkpt lat="47.29024" lon="6.2259">
        <ele>512.2</ele>
        <time>2024-07-31T09:16:45Z</time>
      </trkpt>
      <trkpt lat="47.29023" lon="6.22587">
        <ele>512.4</ele>
        <time>2024-07-31T09:16:46Z</time>
      </trkpt>
      <trkpt lat="47.29023" lon="6.22583">
        <ele>512.2</ele>
        <time>2024-07-31T09:16:47Z</time>
      </trkpt>
      <trkpt lat="47.29023" lon="6.2258">
        <ele>512.8</ele>
        <time>2024-07-31T09:16:48Z</time>
      </trkpt>
      <trkpt lat="47.29023" lon="6.22577">
        <ele>512.8</ele>
        <time>2024-07-31T09:16:49Z</time>
      </trkpt>
      <trkpt lat="47.29024" lon="6.22574">
        <ele>512.8</ele>
        <time>2024-07-31T09:16:50Z</time>
      </trkpt>
      <trkpt lat="47.29024" lon="6.2257">
        <ele>512.8</ele>
        <time>2024-07-31T09:16:51Z</time>
      </trkpt>
      <trkpt lat="47.29024" lon="6.22567">
        <ele>512.8</ele>
        <time>2024-07-31T09:16:52Z</time>
      </trkpt>
      <trkpt lat="47.29024" lon="6.22564">
        <ele>513.2</ele>
        <time>2024-07-31T09:16:53Z</time>
      </trkpt>
      <trkpt lat="47.29024" lon="6.22561">
        <ele>513.2</ele>
        <time>2024-07-31T09:16:54Z</time>
      </trkpt>
      <trkpt lat="47.29024" lon="6.22557">
        <ele>513.2</ele>
        <time>2024-07-31T09:16:55Z</time>
      </trkpt>
      <trkpt lat="47.29024" lon="6.22554">
        <ele>513.4</ele>
        <time>2024-07-31T09:16:56Z</time>
      </trkpt>
      <trkpt lat="47.29024" lon="6.2255">
        <ele>513.6</ele>
        <time>2024-07-31T09:16:57Z</time>
      </trkpt>
      <trkpt lat="47.29023" lon="6.22546">
        <ele>513.8</ele>
        <time>2024-07-31T09:16:58Z</time>
      </trkpt>
      <trkpt lat="47.29023" lon="6.22542">
        <ele>513.8</ele>
        <time>2024-07-31T09:16:59Z</time>
      </trkpt>
      <trkpt lat="47.29024" lon="6.22538">
        <ele>514</ele>
        <time>2024-07-31T09:17:00Z</time>
      </trkpt>
      <trkpt lat="47.29023" lon="6.22534">
        <ele>514.4</ele>
        <time>2024-07-31T09:17:01Z</time>
      </trkpt>
      <trkpt lat="47.29022" lon="6.22531">
        <ele>514.2</ele>
        <time>2024-07-31T09:17:02Z</time>
      </trkpt>
      <trkpt lat="47.29022" lon="6.22527">
        <ele>514.4</ele>
        <time>2024-07-31T09:17:03Z</time>
      </trkpt>
      <trkpt lat="47.29022" lon="6.22523">
        <ele>514.4</ele>
        <time>2024-07-31T09:17:04Z</time>
      </trkpt>
      <trkpt lat="47.29022" lon="6.2252">
        <ele>515</ele>
        <time>2024-07-31T09:17:05Z</time>
      </trkpt>
      <trkpt lat="47.29022" lon="6.22516">
        <ele>515.2</ele>
        <time>2024-07-31T09:17:06Z</time>
      </trkpt>
      <trkpt lat="47.29021" lon="6.22513">
        <ele>515.2</ele>
        <time>2024-07-31T09:17:07Z</time>
      </trkpt>
      <trkpt lat="47.29021" lon="6.22509">
        <ele>515.6</ele>
        <time>2024-07-31T09:17:08Z</time>
      </trkpt>
      <trkpt lat="47.29021" lon="6.22505">
        <ele>516</ele>
        <time>2024-07-31T09:17:09Z</time>
      </trkpt>
      <trkpt lat="47.29021" lon="6.22502">
        <ele>515.8</ele>
        <time>2024-07-31T09:17:10Z</time>
      </trkpt>
      <trkpt lat="47.29021" lon="6.22499">
        <ele>516</ele>
        <time>2024-07-31T09:17:11Z</time>
      </trkpt>
      <trkpt lat="47.29021" lon="6.22496">
        <ele>516</ele>
        <time>2024-07-31T09:17:12Z</time>
      </trkpt>
      <trkpt lat="47.29022" lon="6.22493">
        <ele>516.8</ele>
        <time>2024-07-31T09:17:13Z</time>
      </trkpt>
      <trkpt lat="47.29023" lon="6.22489">
        <ele>516.8</ele>
        <time>2024-07-31T09:17:14Z</time>
      </trkpt>
      <trkpt lat="47.29024" lon="6.22485">
        <ele>517</ele>
        <time>2024-07-31T09:17:15Z</time>
      </trkpt>
      <trkpt lat="47.29024" lon="6.22481">
        <ele>517</ele>
        <time>2024-07-31T09:17:16Z</time>
      </trkpt>
      <trkpt lat="47.29024" lon="6.22476">
        <ele>517</ele>
        <time>2024-07-31T09:17:17Z</time>
      </trkpt>
      <trkpt lat="47.29025" lon="6.2247">
        <ele>517</ele>
        <time>2024-07-31T09:17:18Z</time>
      </trkpt>
      <trkpt lat="47.29024" lon="6.22465">
        <ele>517.2</ele>
        <time>2024-07-31T09:17:19Z</time>
      </trkpt>
      <trkpt lat="47.29025" lon="6.2246">
        <ele>517.2</ele>
        <time>2024-07-31T09:17:20Z</time>
      </trkpt>
      <trkpt lat="47.29025" lon="6.22456">
        <ele>517.6</ele>
        <time>2024-07-31T09:17:21Z</time>
      </trkpt>
      <trkpt lat="47.29026" lon="6.22452">
        <ele>517.4</ele>
        <time>2024-07-31T09:17:22Z</time>
      </trkpt>
      <trkpt lat="47.29026" lon="6.22447">
        <ele>517.6</ele>
        <time>2024-07-31T09:17:23Z</time>
      </trkpt>
      <trkpt lat="47.29027" lon="6.22443">
        <ele>518</ele>
        <time>2024-07-31T09:17:24Z</time>
      </trkpt>
      <trkpt lat="47.29027" lon="6.22439">
        <ele>518.4</ele>
        <time>2024-07-31T09:17:25Z</time>
      </trkpt>
      <trkpt lat="47.29027" lon="6.22434">
        <ele>518.6</ele>
        <time>2024-07-31T09:17:26Z</time>
      </trkpt>
      <trkpt lat="47.29027" lon="6.22429">
        <ele>518.4</ele>
        <time>2024-07-31T09:17:27Z</time>
      </trkpt>
      <trkpt lat="47.29027" lon="6.22425">
        <ele>519</ele>
        <time>2024-07-31T09:17:28Z</time>
      </trkpt>
      <trkpt lat="47.29027" lon="6.22421">
        <ele>519.2</ele>
        <time>2024-07-31T09:17:29Z</time>
      </trkpt>
      <trkpt lat="47.29027" lon="6.22416">
        <ele>519.2</ele>
        <time>2024-07-31T09:17:30Z</time>
      </trkpt>
      <trkpt lat="47.29027" lon="6.22412">
        <ele>519.2</ele>
        <time>2024-07-31T09:17:31Z</time>
      </trkpt>
      <trkpt lat="47.29027" lon="6.22408">
        <ele>519.4</ele>
        <time>2024-07-31T09:17:32Z</time>
      </trkpt>
      <trkpt lat="47.29027" lon="6.22404">
        <ele>519.4</ele>
        <time>2024-07-31T09:17:33Z</time>
      </trkpt>
      <trkpt lat="47.29028" lon="6.22399">
        <ele>519.4</ele>
        <time>2024-07-31T09:17:34Z</time>
      </trkpt>
      <trkpt lat="47.2903" lon="6.22396">
        <ele>519.6</ele>
        <time>2024-07-31T09:17:35Z</time>
      </trkpt>
      <trkpt lat="47.2903" lon="6.2239">
        <ele>519.8</ele>
        <time>2024-07-31T09:17:36Z</time>
      </trkpt>
      <trkpt lat="47.2903" lon="6.22386">
        <ele>519.8</ele>
        <time>2024-07-31T09:17:37Z</time>
      </trkpt>
      <trkpt lat="47.29031" lon="6.2238">
        <ele>520.4</ele>
        <time>2024-07-31T09:17:38Z</time>
      </trkpt>
      <trkpt lat="47.29032" lon="6.22375">
        <ele>520.8</ele>
        <time>2024-07-31T09:17:39Z</time>
      </trkpt>
      <trkpt lat="47.29032" lon="6.22371">
        <ele>521.2</ele>
        <time>2024-07-31T09:17:40Z</time>
      </trkpt>
      <trkpt lat="47.29031" lon="6.22367">
        <ele>521.2</ele>
        <time>2024-07-31T09:17:41Z</time>
      </trkpt>
      <trkpt lat="47.2903" lon="6.22363">
        <ele>521.4</ele>
        <time>2024-07-31T09:17:42Z</time>
      </trkpt>
      <trkpt lat="47.29029" lon="6.22359">
        <ele>521.4</ele>
        <time>2024-07-31T09:17:43Z</time>
      </trkpt>
      <trkpt lat="47.29028" lon="6.22355">
        <ele>521.4</ele>
        <time>2024-07-31T09:17:44Z</time>
      </trkpt>
      <trkpt lat="47.29027" lon="6.22351">
        <ele>521.4</ele>
        <time>2024-07-31T09:17:45Z</time>
      </trkpt>
      <trkpt lat="47.29026" lon="6.22346">
        <ele>521.6</ele>
        <time>2024-07-31T09:17:46Z</time>
      </trkpt>
      <trkpt lat="47.29026" lon="6.22342">
        <ele>521.8</ele>
        <time>2024-07-31T09:17:47Z</time>
      </trkpt>
      <trkpt lat="47.29025" lon="6.22337">
        <ele>521.8</ele>
        <time>2024-07-31T09:17:48Z</time>
      </trkpt>
      <trkpt lat="47.29024" lon="6.22333">
        <ele>521.4</ele>
        <time>2024-07-31T09:17:49Z</time>
      </trkpt>
      <trkpt lat="47.29024" lon="6.22329">
        <ele>521.6</ele>
        <time>2024-07-31T09:17:50Z</time>
      </trkpt>
      <trkpt lat="47.29023" lon="6.22323">
        <ele>521.6</ele>
        <time>2024-07-31T09:17:51Z</time>
      </trkpt>
      <trkpt lat="47.29022" lon="6.22318">
        <ele>521.8</ele>
        <time>2024-07-31T09:17:52Z</time>
      </trkpt>
      <trkpt lat="47.2902" lon="6.22313">
        <ele>521.8</ele>
        <time>2024-07-31T09:17:53Z</time>
      </trkpt>
      <trkpt lat="47.29019" lon="6.22307">
        <ele>521.8</ele>
        <time>2024-07-31T09:17:54Z</time>
      </trkpt>
      <trkpt lat="47.29017" lon="6.22302">
        <ele>522</ele>
        <time>2024-07-31T09:17:55Z</time>
      </trkpt>
      <trkpt lat="47.29015" lon="6.22296">
        <ele>522</ele>
        <time>2024-07-31T09:17:56Z</time>
      </trkpt>
      <trkpt lat="47.29013" lon="6.22291">
        <ele>522</ele>
        <time>2024-07-31T09:17:57Z</time>
      </trkpt>
      <trkpt lat="47.29011" lon="6.22286">
        <ele>521.8</ele>
        <time>2024-07-31T09:17:58Z</time>
      </trkpt>
      <trkpt lat="47.29009" lon="6.22281">
        <ele>522</ele>
        <time>2024-07-31T09:17:59Z</time>
      </trkpt>
      <trkpt lat="47.29007" lon="6.22276">
        <ele>522.2</ele>
        <time>2024-07-31T09:18:00Z</time>
      </trkpt>
      <trkpt lat="47.29006" lon="6.2227">
        <ele>522.2</ele>
        <time>2024-07-31T09:18:01Z</time>
      </trkpt>
      <trkpt lat="47.29006" lon="6.22265">
        <ele>522.2</ele>
        <time>2024-07-31T09:18:02Z</time>
      </trkpt>
      <trkpt lat="47.29006" lon="6.2226">
        <ele>522.2</ele>
        <time>2024-07-31T09:18:03Z</time>
      </trkpt>
      <trkpt lat="47.29006" lon="6.22255">
        <ele>522.6</ele>
        <time>2024-07-31T09:18:04Z</time>
      </trkpt>
      <trkpt lat="47.29005" lon="6.22251">
        <ele>523</ele>
        <time>2024-07-31T09:18:05Z</time>
      </trkpt>
      <trkpt lat="47.29005" lon="6.22247">
        <ele>523</ele>
        <time>2024-07-31T09:18:06Z</time>
      </trkpt>
      <trkpt lat="47.29004" lon="6.22243">
        <ele>523.6</ele>
        <time>2024-07-31T09:18:07Z</time>
      </trkpt>
      <trkpt lat="47.29004" lon="6.22238">
        <ele>523.6</ele>
        <time>2024-07-31T09:18:08Z</time>
      </trkpt>
      <trkpt lat="47.29004" lon="6.22234">
        <ele>523.4</ele>
        <time>2024-07-31T09:18:09Z</time>
      </trkpt>
      <trkpt lat="47.29004" lon="6.2223">
        <ele>523.4</ele>
        <time>2024-07-31T09:18:10Z</time>
      </trkpt>
      <trkpt lat="47.29003" lon="6.22226">
        <ele>523.2</ele>
        <time>2024-07-31T09:18:11Z</time>
      </trkpt>
      <trkpt lat="47.29003" lon="6.22222">
        <ele>524</ele>
        <time>2024-07-31T09:18:12Z</time>
      </trkpt>
      <trkpt lat="47.29003" lon="6.22219">
        <ele>524.4</ele>
        <time>2024-07-31T09:18:13Z</time>
      </trkpt>
      <trkpt lat="47.29004" lon="6.22216">
        <ele>524.6</ele>
        <time>2024-07-31T09:18:14Z</time>
      </trkpt>
      <trkpt lat="47.29005" lon="6.22213">
        <ele>523.8</ele>
        <time>2024-07-31T09:18:15Z</time>
      </trkpt>
      <trkpt lat="47.29006" lon="6.2221">
        <ele>524.6</ele>
        <time>2024-07-31T09:18:16Z</time>
      </trkpt>
      <trkpt lat="47.29006" lon="6.22207">
        <ele>524.8</ele>
        <time>2024-07-31T09:18:17Z</time>
      </trkpt>
      <trkpt lat="47.29007" lon="6.22204">
        <ele>524.8</ele>
        <time>2024-07-31T09:18:18Z</time>
      </trkpt>
      <trkpt lat="47.29007" lon="6.222">
        <ele>525</ele>
        <time>2024-07-31T09:18:19Z</time>
      </trkpt>
      <trkpt lat="47.29006" lon="6.22196">
        <ele>525.2</ele>
        <time>2024-07-31T09:18:20Z</time>
      </trkpt>
      <trkpt lat="47.29006" lon="6.22192">
        <ele>525.8</ele>
        <time>2024-07-31T09:18:21Z</time>
      </trkpt>
      <trkpt lat="47.29006" lon="6.22188">
        <ele>525.4</ele>
        <time>2024-07-31T09:18:22Z</time>
      </trkpt>
      <trkpt lat="47.29006" lon="6.22183">
        <ele>525.4</ele>
        <time>2024-07-31T09:18:23Z</time>
      </trkpt>
      <trkpt lat="47.29006" lon="6.2218">
        <ele>525.6</ele>
        <time>2024-07-31T09:18:24Z</time>
      </trkpt>
      <trkpt lat="47.29006" lon="6.22176">
        <ele>526</ele>
        <time>2024-07-31T09:18:25Z</time>
      </trkpt>
      <trkpt lat="47.29005" lon="6.22172">
        <ele>526</ele>
        <time>2024-07-31T09:18:26Z</time>
      </trkpt>
      <trkpt lat="47.29005" lon="6.22168">
        <ele>526.4</ele>
        <time>2024-07-31T09:18:27Z</time>
      </trkpt>
      <trkpt lat="47.29005" lon="6.22163">
        <ele>526.6</ele>
        <time>2024-07-31T09:18:28Z</time>
      </trkpt>
      <trkpt lat="47.29005" lon="6.22159">
        <ele>527</ele>
        <time>2024-07-31T09:18:29Z</time>
      </trkpt>
      <trkpt lat="47.29005" lon="6.22155">
        <ele>527</ele>
        <time>2024-07-31T09:18:30Z</time>
      </trkpt>
      <trkpt lat="47.29006" lon="6.22151">
        <ele>527.2</ele>
        <time>2024-07-31T09:18:31Z</time>
      </trkpt>
      <trkpt lat="47.29006" lon="6.22146">
        <ele>527.6</ele>
        <time>2024-07-31T09:18:32Z</time>
      </trkpt>
      <trkpt lat="47.29006" lon="6.22142">
        <ele>527.8</ele>
        <time>2024-07-31T09:18:33Z</time>
      </trkpt>
      <trkpt lat="47.29006" lon="6.22137">
        <ele>527.8</ele>
        <time>2024-07-31T09:18:34Z</time>
      </trkpt>
      <trkpt lat="47.29006" lon="6.22133">
        <ele>528</ele>
        <time>2024-07-31T09:18:35Z</time>
      </trkpt>
      <trkpt lat="47.29006" lon="6.22129">
        <ele>527.8</ele>
        <time>2024-07-31T09:18:36Z</time>
      </trkpt>
      <trkpt lat="47.29006" lon="6.22125">
        <ele>528</ele>
        <time>2024-07-31T09:18:37Z</time>
      </trkpt>
      <trkpt lat="47.29006" lon="6.2212">
        <ele>528.2</ele>
        <time>2024-07-31T09:18:38Z</time>
      </trkpt>
      <trkpt lat="47.29005" lon="6.22116">
        <ele>528.4</ele>
        <time>2024-07-31T09:18:39Z</time>
      </trkpt>
      <trkpt lat="47.29005" lon="6.22112">
        <ele>528.4</ele>
        <time>2024-07-31T09:18:40Z</time>
      </trkpt>
      <trkpt lat="47.29004" lon="6.22108">
        <ele>528.4</ele>
        <time>2024-07-31T09:18:41Z</time>
      </trkpt>
      <trkpt lat="47.29004" lon="6.22104">
        <ele>528.8</ele>
        <time>2024-07-31T09:18:42Z</time>
      </trkpt>
      <trkpt lat="47.29003" lon="6.221">
        <ele>528.4</ele>
        <time>2024-07-31T09:18:43Z</time>
      </trkpt>
      <trkpt lat="47.29003" lon="6.22096">
        <ele>528.8</ele>
        <time>2024-07-31T09:18:44Z</time>
      </trkpt>
      <trkpt lat="47.29002" lon="6.22091">
        <ele>528.8</ele>
        <time>2024-07-31T09:18:45Z</time>
      </trkpt>
      <trkpt lat="47.29002" lon="6.22087">
        <ele>528.8</ele>
        <time>2024-07-31T09:18:46Z</time>
      </trkpt>
      <trkpt lat="47.29001" lon="6.22083">
        <ele>528.8</ele>
        <time>2024-07-31T09:18:47Z</time>
      </trkpt>
      <trkpt lat="47.29" lon="6.22079">
        <ele>528.8</ele>
        <time>2024-07-31T09:18:48Z</time>
      </trkpt>
      <trkpt lat="47.29" lon="6.22074">
        <ele>528.8</ele>
        <time>2024-07-31T09:18:49Z</time>
      </trkpt>
      <trkpt lat="47.29" lon="6.22069">
        <ele>528.6</ele>
        <time>2024-07-31T09:18:50Z</time>
      </trkpt>
      <trkpt lat="47.28999" lon="6.22064">
        <ele>528.6</ele>
        <time>2024-07-31T09:18:51Z</time>
      </trkpt>
      <trkpt lat="47.28999" lon="6.22059">
        <ele>528.8</ele>
        <time>2024-07-31T09:18:52Z</time>
      </trkpt>
      <trkpt lat="47.28998" lon="6.22054">
        <ele>529</ele>
        <time>2024-07-31T09:18:53Z</time>
      </trkpt>
      <trkpt lat="47.28997" lon="6.22049">
        <ele>529.4</ele>
        <time>2024-07-31T09:18:54Z</time>
      </trkpt>
      <trkpt lat="47.28997" lon="6.22044">
        <ele>529.4</ele>
        <time>2024-07-31T09:18:55Z</time>
      </trkpt>
      <trkpt lat="47.28997" lon="6.2204">
        <ele>529.2</ele>
        <time>2024-07-31T09:18:56Z</time>
      </trkpt>
      <trkpt lat="47.28997" lon="6.22035">
        <ele>529.2</ele>
        <time>2024-07-31T09:18:57Z</time>
      </trkpt>
      <trkpt lat="47.28997" lon="6.2203">
        <ele>529.2</ele>
        <time>2024-07-31T09:18:58Z</time>
      </trkpt>
      <trkpt lat="47.28998" lon="6.22026">
        <ele>529.6</ele>
        <time>2024-07-31T09:18:59Z</time>
      </trkpt>
      <trkpt lat="47.28999" lon="6.22023">
        <ele>529.8</ele>
        <time>2024-07-31T09:19:00Z</time>
      </trkpt>
      <trkpt lat="47.28998" lon="6.22021">
        <ele>529.8</ele>
        <time>2024-07-31T09:19:01Z</time>
      </trkpt>
      <trkpt lat="47.28998" lon="6.22019">
        <ele>529.8</ele>
        <time>2024-07-31T09:19:02Z</time>
      </trkpt>
      <trkpt lat="47.28998" lon="6.22016">
        <ele>529.8</ele>
        <time>2024-07-31T09:19:03Z</time>
      </trkpt>
      <trkpt lat="47.28998" lon="6.22013">
        <ele>529.8</ele>
        <time>2024-07-31T09:19:04Z</time>
      </trkpt>
      <trkpt lat="47.28998" lon="6.2201">
        <ele>529.8</ele>
        <time>2024-07-31T09:19:05Z</time>
      </trkpt>
      <trkpt lat="47.28998" lon="6.22006">
        <ele>530</ele>
        <time>2024-07-31T09:19:06Z</time>
      </trkpt>
      <trkpt lat="47.28998" lon="6.22002">
        <ele>530.2</ele>
        <time>2024-07-31T09:19:07Z</time>
      </trkpt>
      <trkpt lat="47.28999" lon="6.21998">
        <ele>530.6</ele>
        <time>2024-07-31T09:19:08Z</time>
      </trkpt>
      <trkpt lat="47.28999" lon="6.21995">
        <ele>530.8</ele>
        <time>2024-07-31T09:19:09Z</time>
      </trkpt>
      <trkpt lat="47.29" lon="6.21991">
        <ele>530.6</ele>
        <time>2024-07-31T09:19:10Z</time>
      </trkpt>
      <trkpt lat="47.29" lon="6.21989">
        <ele>531.2</ele>
        <time>2024-07-31T09:19:11Z</time>
      </trkpt>
      <trkpt lat="47.29" lon="6.21986">
        <ele>531.4</ele>
        <time>2024-07-31T09:19:12Z</time>
      </trkpt>
      <trkpt lat="47.29" lon="6.21983">
        <ele>531.4</ele>
        <time>2024-07-31T09:19:13Z</time>
      </trkpt>
      <trkpt lat="47.29" lon="6.2198">
        <ele>531.8</ele>
        <time>2024-07-31T09:19:14Z</time>
      </trkpt>
      <trkpt lat="47.29" lon="6.21977">
        <ele>532</ele>
        <time>2024-07-31T09:19:15Z</time>
      </trkpt>
      <trkpt lat="47.29001" lon="6.21973">
        <ele>532.2</ele>
        <time>2024-07-31T09:19:16Z</time>
      </trkpt>
      <trkpt lat="47.29001" lon="6.21971">
        <ele>532.6</ele>
        <time>2024-07-31T09:19:17Z</time>
      </trkpt>
      <trkpt lat="47.29001" lon="6.21968">
        <ele>532.8</ele>
        <time>2024-07-31T09:19:18Z</time>
      </trkpt>
      <trkpt lat="47.29002" lon="6.21965">
        <ele>533</ele>
        <time>2024-07-31T09:19:19Z</time>
      </trkpt>
      <trkpt lat="47.29002" lon="6.21961">
        <ele>533.2</ele>
        <time>2024-07-31T09:19:20Z</time>
      </trkpt>
      <trkpt lat="47.29002" lon="6.21958">
        <ele>533.6</ele>
        <time>2024-07-31T09:19:21Z</time>
      </trkpt>
      <trkpt lat="47.29002" lon="6.21955">
        <ele>533.8</ele>
        <time>2024-07-31T09:19:22Z</time>
      </trkpt>
      <trkpt lat="47.29003" lon="6.21953">
        <ele>534</ele>
        <time>2024-07-31T09:19:23Z</time>
      </trkpt>
      <trkpt lat="47.29004" lon="6.2195">
        <ele>534</ele>
        <time>2024-07-31T09:19:24Z</time>
      </trkpt>
      <trkpt lat="47.29004" lon="6.21947">
        <ele>534.2</ele>
        <time>2024-07-31T09:19:25Z</time>
      </trkpt>
      <trkpt lat="47.29004" lon="6.21945">
        <ele>534.4</ele>
        <time>2024-07-31T09:19:26Z</time>
      </trkpt>
      <trkpt lat="47.29005" lon="6.21941">
        <ele>534.2</ele>
        <time>2024-07-31T09:19:27Z</time>
      </trkpt>
      <trkpt lat="47.29005" lon="6.21938">
        <ele>534.4</ele>
        <time>2024-07-31T09:19:28Z</time>
      </trkpt>
      <trkpt lat="47.29004" lon="6.21934">
        <ele>534.8</ele>
        <time>2024-07-31T09:19:29Z</time>
      </trkpt>
      <trkpt lat="47.29004" lon="6.2193">
        <ele>534.8</ele>
        <time>2024-07-31T09:19:30Z</time>
      </trkpt>
      <trkpt lat="47.29004" lon="6.21927">
        <ele>534.8</ele>
        <time>2024-07-31T09:19:31Z</time>
      </trkpt>
      <trkpt lat="47.29004" lon="6.21925">
        <ele>534.8</ele>
        <time>2024-07-31T09:19:32Z</time>
      </trkpt>
      <trkpt lat="47.29004" lon="6.21921">
        <ele>534.8</ele>
        <time>2024-07-31T09:19:33Z</time>
      </trkpt>
      <trkpt lat="47.29003" lon="6.21917">
        <ele>535</ele>
        <time>2024-07-31T09:19:34Z</time>
      </trkpt>
      <trkpt lat="47.29003" lon="6.21912">
        <ele>534.8</ele>
        <time>2024-07-31T09:19:35Z</time>
      </trkpt>
      <trkpt lat="47.29002" lon="6.21908">
        <ele>534.6</ele>
        <time>2024-07-31T09:19:36Z</time>
      </trkpt>
      <trkpt lat="47.29001" lon="6.21903">
        <ele>535</ele>
        <time>2024-07-31T09:19:37Z</time>
      </trkpt>
      <trkpt lat="47.28999" lon="6.21898">
        <ele>535</ele>
        <time>2024-07-31T09:19:38Z</time>
      </trkpt>
      <trkpt lat="47.28998" lon="6.21894">
        <ele>535.2</ele>
        <time>2024-07-31T09:19:39Z</time>
      </trkpt>
      <trkpt lat="47.28997" lon="6.2189">
        <ele>535.4</ele>
        <time>2024-07-31T09:19:40Z</time>
      </trkpt>
      <trkpt lat="47.28996" lon="6.21886">
        <ele>535</ele>
        <time>2024-07-31T09:19:41Z</time>
      </trkpt>
      <trkpt lat="47.28994" lon="6.21882">
        <ele>535.4</ele>
        <time>2024-07-31T09:19:42Z</time>
      </trkpt>
      <trkpt lat="47.28994" lon="6.21879">
        <ele>535.6</ele>
        <time>2024-07-31T09:19:43Z</time>
      </trkpt>
      <trkpt lat="47.28992" lon="6.21874">
        <ele>535.6</ele>
        <time>2024-07-31T09:19:44Z</time>
      </trkpt>
      <trkpt lat="47.2899" lon="6.21869">
        <ele>535.8</ele>
        <time>2024-07-31T09:19:45Z</time>
      </trkpt>
      <trkpt lat="47.28988" lon="6.21864">
        <ele>535.8</ele>
        <time>2024-07-31T09:19:46Z</time>
      </trkpt>
      <trkpt lat="47.28987" lon="6.21859">
        <ele>535.8</ele>
        <time>2024-07-31T09:19:47Z</time>
      </trkpt>
      <trkpt lat="47.28987" lon="6.21855">
        <ele>536</ele>
        <time>2024-07-31T09:19:48Z</time>
      </trkpt>
      <trkpt lat="47.28986" lon="6.21851">
        <ele>536.4</ele>
        <time>2024-07-31T09:19:49Z</time>
      </trkpt>
      <trkpt lat="47.28986" lon="6.21848">
        <ele>536.6</ele>
        <time>2024-07-31T09:19:50Z</time>
      </trkpt>
      <trkpt lat="47.28986" lon="6.21845">
        <ele>536.6</ele>
        <time>2024-07-31T09:19:51Z</time>
      </trkpt>
      <trkpt lat="47.28985" lon="6.21841">
        <ele>536.8</ele>
        <time>2024-07-31T09:19:52Z</time>
      </trkpt>
      <trkpt lat="47.28985" lon="6.21837">
        <ele>536.6</ele>
        <time>2024-07-31T09:19:53Z</time>
      </trkpt>
      <trkpt lat="47.28985" lon="6.21832">
        <ele>536.6</ele>
        <time>2024-07-31T09:19:54Z</time>
      </trkpt>
      <trkpt lat="47.28984" lon="6.21827">
        <ele>537</ele>
        <time>2024-07-31T09:19:55Z</time>
      </trkpt>
      <trkpt lat="47.28984" lon="6.21823">
        <ele>537.4</ele>
        <time>2024-07-31T09:19:56Z</time>
      </trkpt>
      <trkpt lat="47.28983" lon="6.21819">
        <ele>537.4</ele>
        <time>2024-07-31T09:19:57Z</time>
      </trkpt>
      <trkpt lat="47.28982" lon="6.21814">
        <ele>537.6</ele>
        <time>2024-07-31T09:19:58Z</time>
      </trkpt>
      <trkpt lat="47.28981" lon="6.21811">
        <ele>537.8</ele>
        <time>2024-07-31T09:19:59Z</time>
      </trkpt>
      <trkpt lat="47.2898" lon="6.21807">
        <ele>538</ele>
        <time>2024-07-31T09:20:00Z</time>
      </trkpt>
      <trkpt lat="47.28979" lon="6.21804">
        <ele>537.8</ele>
        <time>2024-07-31T09:20:01Z</time>
      </trkpt>
      <trkpt lat="47.28979" lon="6.218">
        <ele>538</ele>
        <time>2024-07-31T09:20:02Z</time>
      </trkpt>
      <trkpt lat="47.28979" lon="6.21796">
        <ele>538</ele>
        <time>2024-07-31T09:20:03Z</time>
      </trkpt>
      <trkpt lat="47.28978" lon="6.21792">
        <ele>538.4</ele>
        <time>2024-07-31T09:20:04Z</time>
      </trkpt>
      <trkpt lat="47.28978" lon="6.21788">
        <ele>538.4</ele>
        <time>2024-07-31T09:20:05Z</time>
      </trkpt>
      <trkpt lat="47.28978" lon="6.21784">
        <ele>538.6</ele>
        <time>2024-07-31T09:20:06Z</time>
      </trkpt>
      <trkpt lat="47.28978" lon="6.2178">
        <ele>538.8</ele>
        <time>2024-07-31T09:20:07Z</time>
      </trkpt>
      <trkpt lat="47.28978" lon="6.21776">
        <ele>538.8</ele>
        <time>2024-07-31T09:20:08Z</time>
      </trkpt>
      <trkpt lat="47.28978" lon="6.21772">
        <ele>538.8</ele>
        <time>2024-07-31T09:20:09Z</time>
      </trkpt>
      <trkpt lat="47.28978" lon="6.21768">
        <ele>539.2</ele>
        <time>2024-07-31T09:20:10Z</time>
      </trkpt>
      <trkpt lat="47.28978" lon="6.21764">
        <ele>539.2</ele>
        <time>2024-07-31T09:20:11Z</time>
      </trkpt>
      <trkpt lat="47.28978" lon="6.2176">
        <ele>539.4</ele>
        <time>2024-07-31T09:20:12Z</time>
      </trkpt>
      <trkpt lat="47.28977" lon="6.21757">
        <ele>539.4</ele>
        <time>2024-07-31T09:20:13Z</time>
      </trkpt>
      <trkpt lat="47.28977" lon="6.21753">
        <ele>539.6</ele>
        <time>2024-07-31T09:20:14Z</time>
      </trkpt>
      <trkpt lat="47.28976" lon="6.21748">
        <ele>539.8</ele>
        <time>2024-07-31T09:20:15Z</time>
      </trkpt>
      <trkpt lat="47.28975" lon="6.21744">
        <ele>539.8</ele>
        <time>2024-07-31T09:20:16Z</time>
      </trkpt>
      <trkpt lat="47.28974" lon="6.2174">
        <ele>539.8</ele>
        <time>2024-07-31T09:20:17Z</time>
      </trkpt>
      <trkpt lat="47.28974" lon="6.21735">
        <ele>539.8</ele>
        <time>2024-07-31T09:20:18Z</time>
      </trkpt>
      <trkpt lat="47.28973" lon="6.21732">
        <ele>540.2</ele>
        <time>2024-07-31T09:20:19Z</time>
      </trkpt>
      <trkpt lat="47.28973" lon="6.21728">
        <ele>540.4</ele>
        <time>2024-07-31T09:20:20Z</time>
      </trkpt>
      <trkpt lat="47.28972" lon="6.21724">
        <ele>540.4</ele>
        <time>2024-07-31T09:20:21Z</time>
      </trkpt>
      <trkpt lat="47.28972" lon="6.21719">
        <ele>540.6</ele>
        <time>2024-07-31T09:20:22Z</time>
      </trkpt>
      <trkpt lat="47.28972" lon="6.21714">
        <ele>540.8</ele>
        <time>2024-07-31T09:20:23Z</time>
      </trkpt>
      <trkpt lat="47.28972" lon="6.2171">
        <ele>540.8</ele>
        <time>2024-07-31T09:20:24Z</time>
      </trkpt>
      <trkpt lat="47.28973" lon="6.21706">
        <ele>540.8</ele>
        <time>2024-07-31T09:20:25Z</time>
      </trkpt>
      <trkpt lat="47.28973" lon="6.21702">
        <ele>541.2</ele>
        <time>2024-07-31T09:20:26Z</time>
      </trkpt>
      <trkpt lat="47.28973" lon="6.21698">
        <ele>541.4</ele>
        <time>2024-07-31T09:20:27Z</time>
      </trkpt>
      <trkpt lat="47.28974" lon="6.21695">
        <ele>541.4</ele>
        <time>2024-07-31T09:20:28Z</time>
      </trkpt>
      <trkpt lat="47.28975" lon="6.21691">
        <ele>541.8</ele>
        <time>2024-07-31T09:20:29Z</time>
      </trkpt>
      <trkpt lat="47.28975" lon="6.21687">
        <ele>541.8</ele>
        <time>2024-07-31T09:20:30Z</time>
      </trkpt>
      <trkpt lat="47.28976" lon="6.21684">
        <ele>542.2</ele>
        <time>2024-07-31T09:20:31Z</time>
      </trkpt>
      <trkpt lat="47.28976" lon="6.2168">
        <ele>542.4</ele>
        <time>2024-07-31T09:20:32Z</time>
      </trkpt>
      <trkpt lat="47.28977" lon="6.21677">
        <ele>542.8</ele>
        <time>2024-07-31T09:20:33Z</time>
      </trkpt>
      <trkpt lat="47.28977" lon="6.21673">
        <ele>542.8</ele>
        <time>2024-07-31T09:20:34Z</time>
      </trkpt>
      <trkpt lat="47.28978" lon="6.21669">
        <ele>543.2</ele>
        <time>2024-07-31T09:20:35Z</time>
      </trkpt>
      <trkpt lat="47.28978" lon="6.21665">
        <ele>543.4</ele>
        <time>2024-07-31T09:20:36Z</time>
      </trkpt>
      <trkpt lat="47.28978" lon="6.21661">
        <ele>543.8</ele>
        <time>2024-07-31T09:20:37Z</time>
      </trkpt>
      <trkpt lat="47.28978" lon="6.21657">
        <ele>543.8</ele>
        <time>2024-07-31T09:20:38Z</time>
      </trkpt>
      <trkpt lat="47.28979" lon="6.21654">
        <ele>544</ele>
        <time>2024-07-31T09:20:39Z</time>
      </trkpt>
      <trkpt lat="47.28979" lon="6.2165">
        <ele>544.2</ele>
        <time>2024-07-31T09:20:40Z</time>
      </trkpt>
      <trkpt lat="47.28979" lon="6.21646">
        <ele>544.6</ele>
        <time>2024-07-31T09:20:41Z</time>
      </trkpt>
      <trkpt lat="47.2898" lon="6.21643">
        <ele>544.8</ele>
        <time>2024-07-31T09:20:42Z</time>
      </trkpt>
      <trkpt lat="47.28981" lon="6.2164">
        <ele>545</ele>
        <time>2024-07-31T09:20:43Z</time>
      </trkpt>
      <trkpt lat="47.28982" lon="6.21636">
        <ele>545.4</ele>
        <time>2024-07-31T09:20:44Z</time>
      </trkpt>
      <trkpt lat="47.28982" lon="6.21633">
        <ele>545.4</ele>
        <time>2024-07-31T09:20:45Z</time>
      </trkpt>
      <trkpt lat="47.28983" lon="6.2163">
        <ele>545.6</ele>
        <time>2024-07-31T09:20:46Z</time>
      </trkpt>
      <trkpt lat="47.28984" lon="6.21628">
        <ele>546</ele>
        <time>2024-07-31T09:20:47Z</time>
      </trkpt>
      <trkpt lat="47.28985" lon="6.21625">
        <ele>546</ele>
        <time>2024-07-31T09:20:48Z</time>
      </trkpt>
      <trkpt lat="47.28986" lon="6.21622">
        <ele>546.2</ele>
        <time>2024-07-31T09:20:49Z</time>
      </trkpt>
      <trkpt lat="47.28987" lon="6.2162">
        <ele>546.6</ele>
        <time>2024-07-31T09:20:50Z</time>
      </trkpt>
      <trkpt lat="47.28988" lon="6.21618">
        <ele>547</ele>
        <time>2024-07-31T09:20:51Z</time>
      </trkpt>
      <trkpt lat="47.28989" lon="6.21616">
        <ele>547</ele>
        <time>2024-07-31T09:20:52Z</time>
      </trkpt>
      <trkpt lat="47.28991" lon="6.21613">
        <ele>547</ele>
        <time>2024-07-31T09:20:53Z</time>
      </trkpt>
      <trkpt lat="47.28992" lon="6.21611">
        <ele>547</ele>
        <time>2024-07-31T09:20:54Z</time>
      </trkpt>
      <trkpt lat="47.28992" lon="6.21609">
        <ele>547.6</ele>
        <time>2024-07-31T09:20:55Z</time>
      </trkpt>
      <trkpt lat="47.28993" lon="6.21606">
        <ele>547.6</ele>
        <time>2024-07-31T09:20:56Z</time>
      </trkpt>
      <trkpt lat="47.28994" lon="6.21604">
        <ele>547.8</ele>
        <time>2024-07-31T09:20:57Z</time>
      </trkpt>
      <trkpt lat="47.28995" lon="6.21601">
        <ele>548.2</ele>
        <time>2024-07-31T09:20:58Z</time>
      </trkpt>
      <trkpt lat="47.28996" lon="6.21599">
        <ele>548.4</ele>
        <time>2024-07-31T09:20:59Z</time>
      </trkpt>
      <trkpt lat="47.28997" lon="6.21596">
        <ele>548.6</ele>
        <time>2024-07-31T09:21:00Z</time>
      </trkpt>
      <trkpt lat="47.28999" lon="6.21593">
        <ele>549</ele>
        <time>2024-07-31T09:21:01Z</time>
      </trkpt>
      <trkpt lat="47.28999" lon="6.2159">
        <ele>549.2</ele>
        <time>2024-07-31T09:21:02Z</time>
      </trkpt>
      <trkpt lat="47.29" lon="6.21587">
        <ele>549.2</ele>
        <time>2024-07-31T09:21:03Z</time>
      </trkpt>
      <trkpt lat="47.29" lon="6.21584">
        <ele>549.2</ele>
        <time>2024-07-31T09:21:04Z</time>
      </trkpt>
      <trkpt lat="47.29001" lon="6.21581">
        <ele>549.2</ele>
        <time>2024-07-31T09:21:05Z</time>
      </trkpt>
      <trkpt lat="47.29002" lon="6.21579">
        <ele>549.4</ele>
        <time>2024-07-31T09:21:06Z</time>
      </trkpt>
      <trkpt lat="47.29003" lon="6.21575">
        <ele>549.4</ele>
        <time>2024-07-31T09:21:07Z</time>
      </trkpt>
      <trkpt lat="47.29004" lon="6.21571">
        <ele>549.2</ele>
        <time>2024-07-31T09:21:08Z</time>
      </trkpt>
      <trkpt lat="47.29005" lon="6.21566">
        <ele>549.4</ele>
        <time>2024-07-31T09:21:09Z</time>
      </trkpt>
      <trkpt lat="47.29005" lon="6.21562">
        <ele>549.6</ele>
        <time>2024-07-31T09:21:10Z</time>
      </trkpt>
      <trkpt lat="47.29006" lon="6.21559">
        <ele>550</ele>
        <time>2024-07-31T09:21:11Z</time>
      </trkpt>
      <trkpt lat="47.29006" lon="6.21556">
        <ele>550</ele>
        <time>2024-07-31T09:21:12Z</time>
      </trkpt>
      <trkpt lat="47.29007" lon="6.21553">
        <ele>550.2</ele>
        <time>2024-07-31T09:21:13Z</time>
      </trkpt>
      <trkpt lat="47.29008" lon="6.21549">
        <ele>550.2</ele>
        <time>2024-07-31T09:21:14Z</time>
      </trkpt>
      <trkpt lat="47.29008" lon="6.21547">
        <ele>550.4</ele>
        <time>2024-07-31T09:21:15Z</time>
      </trkpt>
      <trkpt lat="47.29009" lon="6.21544">
        <ele>550.6</ele>
        <time>2024-07-31T09:21:16Z</time>
      </trkpt>
      <trkpt lat="47.2901" lon="6.21541">
        <ele>550.6</ele>
        <time>2024-07-31T09:21:17Z</time>
      </trkpt>
      <trkpt lat="47.29011" lon="6.21538">
        <ele>550.8</ele>
        <time>2024-07-31T09:21:18Z</time>
      </trkpt>
      <trkpt lat="47.29013" lon="6.21535">
        <ele>551.4</ele>
        <time>2024-07-31T09:21:19Z</time>
      </trkpt>
      <trkpt lat="47.29016" lon="6.21531">
        <ele>551.8</ele>
        <time>2024-07-31T09:21:20Z</time>
      </trkpt>
      <trkpt lat="47.29018" lon="6.21528">
        <ele>552</ele>
        <time>2024-07-31T09:21:21Z</time>
      </trkpt>
      <trkpt lat="47.2902" lon="6.21525">
        <ele>552.4</ele>
        <time>2024-07-31T09:21:22Z</time>
      </trkpt>
      <trkpt lat="47.29021" lon="6.21522">
        <ele>552.6</ele>
        <time>2024-07-31T09:21:23Z</time>
      </trkpt>
      <trkpt lat="47.29022" lon="6.2152">
        <ele>552.8</ele>
        <time>2024-07-31T09:21:24Z</time>
      </trkpt>
      <trkpt lat="47.29023" lon="6.21518">
        <ele>552.8</ele>
        <time>2024-07-31T09:21:25Z</time>
      </trkpt>
      <trkpt lat="47.29024" lon="6.21515">
        <ele>553</ele>
        <time>2024-07-31T09:21:26Z</time>
      </trkpt>
      <trkpt lat="47.29025" lon="6.21512">
        <ele>553.2</ele>
        <time>2024-07-31T09:21:27Z</time>
      </trkpt>
      <trkpt lat="47.29026" lon="6.2151">
        <ele>553.4</ele>
        <time>2024-07-31T09:21:28Z</time>
      </trkpt>
      <trkpt lat="47.29027" lon="6.21508">
        <ele>553.8</ele>
        <time>2024-07-31T09:21:29Z</time>
      </trkpt>
      <trkpt lat="47.29028" lon="6.21505">
        <ele>554</ele>
        <time>2024-07-31T09:21:30Z</time>
      </trkpt>
      <trkpt lat="47.29029" lon="6.21503">
        <ele>554.2</ele>
        <time>2024-07-31T09:21:31Z</time>
      </trkpt>
      <trkpt lat="47.2903" lon="6.215">
        <ele>554.4</ele>
        <time>2024-07-31T09:21:32Z</time>
      </trkpt>
      <trkpt lat="47.29032" lon="6.21496">
        <ele>554.6</ele>
        <time>2024-07-31T09:21:33Z</time>
      </trkpt>
      <trkpt lat="47.29034" lon="6.21493">
        <ele>554.8</ele>
        <time>2024-07-31T09:21:34Z</time>
      </trkpt>
      <trkpt lat="47.29035" lon="6.2149">
        <ele>555</ele>
        <time>2024-07-31T09:21:35Z</time>
      </trkpt>
      <trkpt lat="47.29036" lon="6.21487">
        <ele>555</ele>
        <time>2024-07-31T09:21:36Z</time>
      </trkpt>
      <trkpt lat="47.29037" lon="6.21485">
        <ele>555</ele>
        <time>2024-07-31T09:21:37Z</time>
      </trkpt>
      <trkpt lat="47.29039" lon="6.21483">
        <ele>555.4</ele>
        <time>2024-07-31T09:21:38Z</time>
      </trkpt>
      <trkpt lat="47.29041" lon="6.2148">
        <ele>555.4</ele>
        <time>2024-07-31T09:21:39Z</time>
      </trkpt>
      <trkpt lat="47.29042" lon="6.21477">
        <ele>555.6</ele>
        <time>2024-07-31T09:21:40Z</time>
      </trkpt>
      <trkpt lat="47.29044" lon="6.21475">
        <ele>555.8</ele>
        <time>2024-07-31T09:21:41Z</time>
      </trkpt>
      <trkpt lat="47.29046" lon="6.21473">
        <ele>555.8</ele>
        <time>2024-07-31T09:21:42Z</time>
      </trkpt>
      <trkpt lat="47.29047" lon="6.2147">
        <ele>556</ele>
        <time>2024-07-31T09:21:43Z</time>
      </trkpt>
      <trkpt lat="47.29048" lon="6.21468">
        <ele>556.2</ele>
        <time>2024-07-31T09:21:44Z</time>
      </trkpt>
      <trkpt lat="47.2905" lon="6.21466">
        <ele>556.4</ele>
        <time>2024-07-31T09:21:45Z</time>
      </trkpt>
      <trkpt lat="47.29052" lon="6.21464">
        <ele>556.6</ele>
        <time>2024-07-31T09:21:46Z</time>
      </trkpt>
      <trkpt lat="47.29054" lon="6.21462">
        <ele>556.8</ele>
        <time>2024-07-31T09:21:47Z</time>
      </trkpt>
      <trkpt lat="47.29055" lon="6.21462">
        <ele>557.2</ele>
        <time>2024-07-31T09:21:48Z</time>
      </trkpt>
      <trkpt lat="47.29056" lon="6.21462">
        <ele>557.4</ele>
        <time>2024-07-31T09:21:49Z</time>
      </trkpt>
      <trkpt lat="47.29058" lon="6.21462">
        <ele>557.6</ele>
        <time>2024-07-31T09:21:50Z</time>
      </trkpt>
      <trkpt lat="47.29059" lon="6.21462">
        <ele>558</ele>
        <time>2024-07-31T09:21:51Z</time>
      </trkpt>
      <trkpt lat="47.29061" lon="6.21461">
        <ele>558.4</ele>
        <time>2024-07-31T09:21:52Z</time>
      </trkpt>
      <trkpt lat="47.29062" lon="6.21461">
        <ele>558.6</ele>
        <time>2024-07-31T09:21:53Z</time>
      </trkpt>
      <trkpt lat="47.29064" lon="6.2146">
        <ele>558.8</ele>
        <time>2024-07-31T09:21:54Z</time>
      </trkpt>
      <trkpt lat="47.29065" lon="6.21459">
        <ele>558.8</ele>
        <time>2024-07-31T09:21:55Z</time>
      </trkpt>
      <trkpt lat="47.29067" lon="6.21459">
        <ele>559</ele>
        <time>2024-07-31T09:21:56Z</time>
      </trkpt>
      <trkpt lat="47.29069" lon="6.21458">
        <ele>559.2</ele>
        <time>2024-07-31T09:21:57Z</time>
      </trkpt>
      <trkpt lat="47.29071" lon="6.21458">
        <ele>559.4</ele>
        <time>2024-07-31T09:21:58Z</time>
      </trkpt>
      <trkpt lat="47.29072" lon="6.21458">
        <ele>559.4</ele>
        <time>2024-07-31T09:21:59Z</time>
      </trkpt>
      <trkpt lat="47.29074" lon="6.21458">
        <ele>559.6</ele>
        <time>2024-07-31T09:22:00Z</time>
      </trkpt>
      <trkpt lat="47.29075" lon="6.21458">
        <ele>559.6</ele>
        <time>2024-07-31T09:22:01Z</time>
      </trkpt>
      <trkpt lat="47.29077" lon="6.21458">
        <ele>560</ele>
        <time>2024-07-31T09:22:02Z</time>
      </trkpt>
      <trkpt lat="47.29079" lon="6.21458">
        <ele>560.4</ele>
        <time>2024-07-31T09:22:03Z</time>
      </trkpt>
      <trkpt lat="47.29081" lon="6.21459">
        <ele>560.6</ele>
        <time>2024-07-31T09:22:04Z</time>
      </trkpt>
      <trkpt lat="47.29083" lon="6.2146">
        <ele>560.8</ele>
        <time>2024-07-31T09:22:05Z</time>
      </trkpt>
      <trkpt lat="47.29085" lon="6.2146">
        <ele>560.8</ele>
        <time>2024-07-31T09:22:06Z</time>
      </trkpt>
      <trkpt lat="47.29086" lon="6.2146">
        <ele>561</ele>
        <time>2024-07-31T09:22:07Z</time>
      </trkpt>
      <trkpt lat="47.29087" lon="6.21461">
        <ele>561.4</ele>
        <time>2024-07-31T09:22:08Z</time>
      </trkpt>
      <trkpt lat="47.29088" lon="6.21462">
        <ele>561.6</ele>
        <time>2024-07-31T09:22:09Z</time>
      </trkpt>
      <trkpt lat="47.2909" lon="6.21462">
        <ele>561.8</ele>
        <time>2024-07-31T09:22:10Z</time>
      </trkpt>
      <trkpt lat="47.29091" lon="6.21463">
        <ele>562</ele>
        <time>2024-07-31T09:22:11Z</time>
      </trkpt>
      <trkpt lat="47.29093" lon="6.21464">
        <ele>562.2</ele>
        <time>2024-07-31T09:22:12Z</time>
      </trkpt>
      <trkpt lat="47.29095" lon="6.21464">
        <ele>562.6</ele>
        <time>2024-07-31T09:22:13Z</time>
      </trkpt>
      <trkpt lat="47.29096" lon="6.21465">
        <ele>562.6</ele>
        <time>2024-07-31T09:22:14Z</time>
      </trkpt>
      <trkpt lat="47.29098" lon="6.21466">
        <ele>563</ele>
        <time>2024-07-31T09:22:15Z</time>
      </trkpt>
      <trkpt lat="47.29099" lon="6.21467">
        <ele>563.2</ele>
        <time>2024-07-31T09:22:16Z</time>
      </trkpt>
      <trkpt lat="47.291" lon="6.21468">
        <ele>563.4</ele>
        <time>2024-07-31T09:22:17Z</time>
      </trkpt>
      <trkpt lat="47.29101" lon="6.21469">
        <ele>563.6</ele>
        <time>2024-07-31T09:22:18Z</time>
      </trkpt>
      <trkpt lat="47.29102" lon="6.21469">
        <ele>563.8</ele>
        <time>2024-07-31T09:22:19Z</time>
      </trkpt>
      <trkpt lat="47.29103" lon="6.21469">
        <ele>564</ele>
        <time>2024-07-31T09:22:20Z</time>
      </trkpt>
      <trkpt lat="47.29103" lon="6.2147">
        <ele>564</ele>
        <time>2024-07-31T09:22:21Z</time>
      </trkpt>
      <trkpt lat="47.29103" lon="6.2147">
        <ele>564</ele>
        <time>2024-07-31T09:22:22Z</time>
      </trkpt>
      <trkpt lat="47.29103" lon="6.2147">
        <ele>564</ele>
        <time>2024-07-31T09:22:23Z</time>
      </trkpt>
      <trkpt lat="47.29104" lon="6.2147">
        <ele>564</ele>
        <time>2024-07-31T09:22:24Z</time>
      </trkpt>
      <trkpt lat="47.29105" lon="6.2147">
        <ele>564.2</ele>
        <time>2024-07-31T09:22:25Z</time>
      </trkpt>
      <trkpt lat="47.29106" lon="6.21469">
        <ele>564.8</ele>
        <time>2024-07-31T09:22:26Z</time>
      </trkpt>
      <trkpt lat="47.29107" lon="6.2147">
        <ele>564.8</ele>
        <time>2024-07-31T09:22:27Z</time>
      </trkpt>
      <trkpt lat="47.29108" lon="6.2147">
        <ele>564.6</ele>
        <time>2024-07-31T09:22:28Z</time>
      </trkpt>
      <trkpt lat="47.29109" lon="6.2147">
        <ele>564.4</ele>
        <time>2024-07-31T09:22:29Z</time>
      </trkpt>
      <trkpt lat="47.29109" lon="6.2147">
        <ele>564.2</ele>
        <time>2024-07-31T09:22:30Z</time>
      </trkpt>
      <trkpt lat="47.2911" lon="6.2147">
        <ele>564</ele>
        <time>2024-07-31T09:22:31Z</time>
      </trkpt>
      <trkpt lat="47.2911" lon="6.2147">
        <ele>564.2</ele>
        <time>2024-07-31T09:22:32Z</time>
      </trkpt>
      <trkpt lat="47.2911" lon="6.2147">
        <ele>564.2</ele>
        <time>2024-07-31T09:22:33Z</time>
      </trkpt>
      <trkpt lat="47.2911" lon="6.2147">
        <ele>564.2</ele>
        <time>2024-07-31T09:22:34Z</time>
      </trkpt>
      <trkpt lat="47.29109" lon="6.2147">
        <ele>564.2</ele>
        <time>2024-07-31T09:22:35Z</time>
      </trkpt>
      <trkpt lat="47.2911" lon="6.2147">
        <ele>564.2</ele>
        <time>2024-07-31T09:22:36Z</time>
      </trkpt>
      <trkpt lat="47.29109" lon="6.2147">
        <ele>564.4</ele>
        <time>2024-07-31T09:22:37Z</time>
      </trkpt>
      <trkpt lat="47.2911" lon="6.2147">
        <ele>564.4</ele>
        <time>2024-07-31T09:22:38Z</time>
      </trkpt>
      <trkpt lat="47.2911" lon="6.21469">
        <ele>564.6</ele>
        <time>2024-07-31T09:22:39Z</time>
      </trkpt>
      <trkpt lat="47.2911" lon="6.21469">
        <ele>564.6</ele>
        <time>2024-07-31T09:22:40Z</time>
      </trkpt>
      <trkpt lat="47.2911" lon="6.21469">
        <ele>564.6</ele>
        <time>2024-07-31T09:22:41Z</time>
      </trkpt>
      <trkpt lat="47.2911" lon="6.21469">
        <ele>564.6</ele>
        <time>2024-07-31T09:22:42Z</time>
      </trkpt>
      <trkpt lat="47.2911" lon="6.21469">
        <ele>564.6</ele>
        <time>2024-07-31T09:22:43Z</time>
      </trkpt>
      <trkpt lat="47.29111" lon="6.2147">
        <ele>564.8</ele>
        <time>2024-07-31T09:22:44Z</time>
      </trkpt>
      <trkpt lat="47.29111" lon="6.21469">
        <ele>564.6</ele>
        <time>2024-07-31T09:22:45Z</time>
      </trkpt>
      <trkpt lat="47.29112" lon="6.2147">
        <ele>565</ele>
        <time>2024-07-31T09:22:46Z</time>
      </trkpt>
      <trkpt lat="47.29113" lon="6.2147">
        <ele>565</ele>
        <time>2024-07-31T09:22:47Z</time>
      </trkpt>
      <trkpt lat="47.29113" lon="6.21471">
        <ele>565</ele>
        <time>2024-07-31T09:22:48Z</time>
      </trkpt>
      <trkpt lat="47.29113" lon="6.21471">
        <ele>565</ele>
        <time>2024-07-31T09:22:49Z</time>
      </trkpt>
      <trkpt lat="47.29114" lon="6.21471">
        <ele>565</ele>
        <time>2024-07-31T09:22:50Z</time>
      </trkpt>
      <trkpt lat="47.29114" lon="6.21472">
        <ele>565.2</ele>
        <time>2024-07-31T09:22:51Z</time>
      </trkpt>
      <trkpt lat="47.29114" lon="6.21472">
        <ele>565.2</ele>
        <time>2024-07-31T09:22:52Z</time>
      </trkpt>
      <trkpt lat="47.29115" lon="6.21473">
        <ele>565.2</ele>
        <time>2024-07-31T09:22:53Z</time>
      </trkpt>
      <trkpt lat="47.29116" lon="6.21474">
        <ele>565.4</ele>
        <time>2024-07-31T09:22:54Z</time>
      </trkpt>
      <trkpt lat="47.29117" lon="6.21475">
        <ele>565.6</ele>
        <time>2024-07-31T09:22:55Z</time>
      </trkpt>
      <trkpt lat="47.29118" lon="6.21477">
        <ele>565.8</ele>
        <time>2024-07-31T09:22:56Z</time>
      </trkpt>
      <trkpt lat="47.2912" lon="6.21478">
        <ele>565.8</ele>
        <time>2024-07-31T09:22:57Z</time>
      </trkpt>
      <trkpt lat="47.29121" lon="6.2148">
        <ele>566.2</ele>
        <time>2024-07-31T09:22:58Z</time>
      </trkpt>
      <trkpt lat="47.29122" lon="6.21482">
        <ele>566.2</ele>
        <time>2024-07-31T09:22:59Z</time>
      </trkpt>
      <trkpt lat="47.29123" lon="6.21483">
        <ele>566.6</ele>
        <time>2024-07-31T09:23:00Z</time>
      </trkpt>
      <trkpt lat="47.29124" lon="6.21485">
        <ele>566.8</ele>
        <time>2024-07-31T09:23:01Z</time>
      </trkpt>
      <trkpt lat="47.29125" lon="6.21486">
        <ele>567</ele>
        <time>2024-07-31T09:23:02Z</time>
      </trkpt>
      <trkpt lat="47.29126" lon="6.21487">
        <ele>567</ele>
        <time>2024-07-31T09:23:03Z</time>
      </trkpt>
      <trkpt lat="47.29127" lon="6.21488">
        <ele>567.2</ele>
        <time>2024-07-31T09:23:04Z</time>
      </trkpt>
      <trkpt lat="47.29128" lon="6.2149">
        <ele>567.2</ele>
        <time>2024-07-31T09:23:05Z</time>
      </trkpt>
      <trkpt lat="47.29129" lon="6.21491">
        <ele>567.4</ele>
        <time>2024-07-31T09:23:06Z</time>
      </trkpt>
      <trkpt lat="47.2913" lon="6.21492">
        <ele>567.6</ele>
        <time>2024-07-31T09:23:07Z</time>
      </trkpt>
      <trkpt lat="47.29131" lon="6.21493">
        <ele>567.8</ele>
        <time>2024-07-31T09:23:08Z</time>
      </trkpt>
      <trkpt lat="47.29133" lon="6.21495">
        <ele>568</ele>
        <time>2024-07-31T09:23:09Z</time>
      </trkpt>
      <trkpt lat="47.29134" lon="6.21496">
        <ele>568.4</ele>
        <time>2024-07-31T09:23:10Z</time>
      </trkpt>
      <trkpt lat="47.29135" lon="6.21498">
        <ele>568.4</ele>
        <time>2024-07-31T09:23:11Z</time>
      </trkpt>
      <trkpt lat="47.29136" lon="6.21499">
        <ele>568.6</ele>
        <time>2024-07-31T09:23:12Z</time>
      </trkpt>
      <trkpt lat="47.29137" lon="6.215">
        <ele>568.8</ele>
        <time>2024-07-31T09:23:13Z</time>
      </trkpt>
      <trkpt lat="47.29138" lon="6.21501">
        <ele>569</ele>
        <time>2024-07-31T09:23:14Z</time>
      </trkpt>
      <trkpt lat="47.29139" lon="6.21502">
        <ele>569.2</ele>
        <time>2024-07-31T09:23:15Z</time>
      </trkpt>
      <trkpt lat="47.29141" lon="6.21503">
        <ele>569.4</ele>
        <time>2024-07-31T09:23:16Z</time>
      </trkpt>
      <trkpt lat="47.29143" lon="6.21505">
        <ele>569.8</ele>
        <time>2024-07-31T09:23:17Z</time>
      </trkpt>
      <trkpt lat="47.29144" lon="6.21507">
        <ele>569.6</ele>
        <time>2024-07-31T09:23:18Z</time>
      </trkpt>
      <trkpt lat="47.29145" lon="6.21508">
        <ele>569.6</ele>
        <time>2024-07-31T09:23:19Z</time>
      </trkpt>
      <trkpt lat="47.29146" lon="6.21509">
        <ele>570</ele>
        <time>2024-07-31T09:23:20Z</time>
      </trkpt>
      <trkpt lat="47.29148" lon="6.21511">
        <ele>570.2</ele>
        <time>2024-07-31T09:23:21Z</time>
      </trkpt>
      <trkpt lat="47.2915" lon="6.21512">
        <ele>570.4</ele>
        <time>2024-07-31T09:23:22Z</time>
      </trkpt>
      <trkpt lat="47.29151" lon="6.21513">
        <ele>570.6</ele>
        <time>2024-07-31T09:23:23Z</time>
      </trkpt>
      <trkpt lat="47.29153" lon="6.21514">
        <ele>570.8</ele>
        <time>2024-07-31T09:23:24Z</time>
      </trkpt>
      <trkpt lat="47.29154" lon="6.21516">
        <ele>570.8</ele>
        <time>2024-07-31T09:23:25Z</time>
      </trkpt>
      <trkpt lat="47.29156" lon="6.21517">
        <ele>571</ele>
        <time>2024-07-31T09:23:26Z</time>
      </trkpt>
      <trkpt lat="47.29158" lon="6.2152">
        <ele>571</ele>
        <time>2024-07-31T09:23:27Z</time>
      </trkpt>
      <trkpt lat="47.2916" lon="6.21522">
        <ele>571.2</ele>
        <time>2024-07-31T09:23:28Z</time>
      </trkpt>
      <trkpt lat="47.29161" lon="6.21524">
        <ele>571</ele>
        <time>2024-07-31T09:23:29Z</time>
      </trkpt>
      <trkpt lat="47.29163" lon="6.21526">
        <ele>571.4</ele>
        <time>2024-07-31T09:23:30Z</time>
      </trkpt>
      <trkpt lat="47.29165" lon="6.21528">
        <ele>571.6</ele>
        <time>2024-07-31T09:23:31Z</time>
      </trkpt>
      <trkpt lat="47.29167" lon="6.2153">
        <ele>571.4</ele>
        <time>2024-07-31T09:23:32Z</time>
      </trkpt>
      <trkpt lat="47.29169" lon="6.21532">
        <ele>571.6</ele>
        <time>2024-07-31T09:23:33Z</time>
      </trkpt>
      <trkpt lat="47.29171" lon="6.21533">
        <ele>572</ele>
        <time>2024-07-31T09:23:34Z</time>
      </trkpt>
      <trkpt lat="47.29172" lon="6.21534">
        <ele>572</ele>
        <time>2024-07-31T09:23:35Z</time>
      </trkpt>
      <trkpt lat="47.29174" lon="6.21535">
        <ele>572</ele>
        <time>2024-07-31T09:23:36Z</time>
      </trkpt>
      <trkpt lat="47.29176" lon="6.21537">
        <ele>572.2</ele>
        <time>2024-07-31T09:23:37Z</time>
      </trkpt>
      <trkpt lat="47.29178" lon="6.21538">
        <ele>572.4</ele>
        <time>2024-07-31T09:23:38Z</time>
      </trkpt>
      <trkpt lat="47.29179" lon="6.2154">
        <ele>572.6</ele>
        <time>2024-07-31T09:23:39Z</time>
      </trkpt>
      <trkpt lat="47.29181" lon="6.21542">
        <ele>572.6</ele>
        <time>2024-07-31T09:23:40Z</time>
      </trkpt>
      <trkpt lat="47.29183" lon="6.21544">
        <ele>572.8</ele>
        <time>2024-07-31T09:23:41Z</time>
      </trkpt>
      <trkpt lat="47.29184" lon="6.21546">
        <ele>572.8</ele>
        <time>2024-07-31T09:23:42Z</time>
      </trkpt>
      <trkpt lat="47.29185" lon="6.21548">
        <ele>573</ele>
        <time>2024-07-31T09:23:43Z</time>
      </trkpt>
      <trkpt lat="47.29187" lon="6.21549">
        <ele>573</ele>
        <time>2024-07-31T09:23:44Z</time>
      </trkpt>
      <trkpt lat="47.29189" lon="6.21551">
        <ele>573.2</ele>
        <time>2024-07-31T09:23:45Z</time>
      </trkpt>
      <trkpt lat="47.29191" lon="6.21552">
        <ele>573.2</ele>
        <time>2024-07-31T09:23:46Z</time>
      </trkpt>
      <trkpt lat="47.29192" lon="6.21554">
        <ele>573</ele>
        <time>2024-07-31T09:23:47Z</time>
      </trkpt>
      <trkpt lat="47.29193" lon="6.21556">
        <ele>573.4</ele>
        <time>2024-07-31T09:23:48Z</time>
      </trkpt>
      <trkpt lat="47.29195" lon="6.21557">
        <ele>573.4</ele>
        <time>2024-07-31T09:23:49Z</time>
      </trkpt>
      <trkpt lat="47.29196" lon="6.21559">
        <ele>573.6</ele>
        <time>2024-07-31T09:23:50Z</time>
      </trkpt>
      <trkpt lat="47.29198" lon="6.21561">
        <ele>573.6</ele>
        <time>2024-07-31T09:23:51Z</time>
      </trkpt>
      <trkpt lat="47.292" lon="6.21563">
        <ele>573.6</ele>
        <time>2024-07-31T09:23:52Z</time>
      </trkpt>
      <trkpt lat="47.29202" lon="6.21565">
        <ele>573.6</ele>
        <time>2024-07-31T09:23:53Z</time>
      </trkpt>
      <trkpt lat="47.29205" lon="6.21566">
        <ele>573.8</ele>
        <time>2024-07-31T09:23:54Z</time>
      </trkpt>
      <trkpt lat="47.29207" lon="6.21567">
        <ele>573.8</ele>
        <time>2024-07-31T09:23:55Z</time>
      </trkpt>
      <trkpt lat="47.2921" lon="6.21569">
        <ele>573.8</ele>
        <time>2024-07-31T09:23:56Z</time>
      </trkpt>
      <trkpt lat="47.29213" lon="6.2157">
        <ele>573.6</ele>
        <time>2024-07-31T09:23:57Z</time>
      </trkpt>
      <trkpt lat="47.29214" lon="6.21572">
        <ele>573.8</ele>
        <time>2024-07-31T09:23:58Z</time>
      </trkpt>
      <trkpt lat="47.29217" lon="6.21574">
        <ele>574</ele>
        <time>2024-07-31T09:23:59Z</time>
      </trkpt>
      <trkpt lat="47.29219" lon="6.21576">
        <ele>574</ele>
        <time>2024-07-31T09:24:00Z</time>
      </trkpt>
      <trkpt lat="47.29221" lon="6.21577">
        <ele>574.2</ele>
        <time>2024-07-31T09:24:01Z</time>
      </trkpt>
      <trkpt lat="47.29223" lon="6.21579">
        <ele>574.4</ele>
        <time>2024-07-31T09:24:02Z</time>
      </trkpt>
      <trkpt lat="47.29225" lon="6.2158">
        <ele>574.6</ele>
        <time>2024-07-31T09:24:03Z</time>
      </trkpt>
      <trkpt lat="47.29227" lon="6.21582">
        <ele>574.6</ele>
        <time>2024-07-31T09:24:04Z</time>
      </trkpt>
      <trkpt lat="47.29229" lon="6.21584">
        <ele>574.6</ele>
        <time>2024-07-31T09:24:05Z</time>
      </trkpt>
      <trkpt lat="47.2923" lon="6.21585">
        <ele>574.8</ele>
        <time>2024-07-31T09:24:06Z</time>
      </trkpt>
      <trkpt lat="47.29232" lon="6.21586">
        <ele>575</ele>
        <time>2024-07-31T09:24:07Z</time>
      </trkpt>
      <trkpt lat="47.29234" lon="6.21587">
        <ele>575.4</ele>
        <time>2024-07-31T09:24:08Z</time>
      </trkpt>
      <trkpt lat="47.29236" lon="6.21588">
        <ele>575.4</ele>
        <time>2024-07-31T09:24:09Z</time>
      </trkpt>
      <trkpt lat="47.29237" lon="6.21589">
        <ele>575.4</ele>
        <time>2024-07-31T09:24:10Z</time>
      </trkpt>
      <trkpt lat="47.29239" lon="6.2159">
        <ele>575.4</ele>
        <time>2024-07-31T09:24:11Z</time>
      </trkpt>
      <trkpt lat="47.2924" lon="6.21589">
        <ele>575.4</ele>
        <time>2024-07-31T09:24:12Z</time>
      </trkpt>
      <trkpt lat="47.29241" lon="6.21588">
        <ele>575.2</ele>
        <time>2024-07-31T09:24:13Z</time>
      </trkpt>
      <trkpt lat="47.29242" lon="6.21586">
        <ele>574.8</ele>
        <time>2024-07-31T09:24:14Z</time>
      </trkpt>
      <trkpt lat="47.29244" lon="6.21584">
        <ele>574.2</ele>
        <time>2024-07-31T09:24:15Z</time>
      </trkpt>
      <trkpt lat="47.29245" lon="6.21581">
        <ele>573.8</ele>
        <time>2024-07-31T09:24:16Z</time>
      </trkpt>
      <trkpt lat="47.29246" lon="6.21578">
        <ele>573.4</ele>
        <time>2024-07-31T09:24:17Z</time>
      </trkpt>
      <trkpt lat="47.29248" lon="6.21576">
        <ele>573</ele>
        <time>2024-07-31T09:24:18Z</time>
      </trkpt>
      <trkpt lat="47.29249" lon="6.21574">
        <ele>572.4</ele>
        <time>2024-07-31T09:24:19Z</time>
      </trkpt>
      <trkpt lat="47.2925" lon="6.21572">
        <ele>572.2</ele>
        <time>2024-07-31T09:24:20Z</time>
      </trkpt>
      <trkpt lat="47.29251" lon="6.21571">
        <ele>572</ele>
        <time>2024-07-31T09:24:21Z</time>
      </trkpt>
      <trkpt lat="47.29253" lon="6.2157">
        <ele>571.6</ele>
        <time>2024-07-31T09:24:22Z</time>
      </trkpt>
      <trkpt lat="47.29254" lon="6.21568">
        <ele>571.4</ele>
        <time>2024-07-31T09:24:23Z</time>
      </trkpt>
      <trkpt lat="47.29255" lon="6.21566">
        <ele>570.8</ele>
        <time>2024-07-31T09:24:24Z</time>
      </trkpt>
      <trkpt lat="47.29257" lon="6.21564">
        <ele>570.2</ele>
        <time>2024-07-31T09:24:25Z</time>
      </trkpt>
      <trkpt lat="47.29258" lon="6.21562">
        <ele>570.2</ele>
        <time>2024-07-31T09:24:26Z</time>
      </trkpt>
      <trkpt lat="47.29259" lon="6.2156">
        <ele>569.8</ele>
        <time>2024-07-31T09:24:27Z</time>
      </trkpt>
      <trkpt lat="47.29261" lon="6.21558">
        <ele>569.6</ele>
        <time>2024-07-31T09:24:28Z</time>
      </trkpt>
      <trkpt lat="47.29262" lon="6.21556">
        <ele>569</ele>
        <time>2024-07-31T09:24:29Z</time>
      </trkpt>
      <trkpt lat="47.29263" lon="6.21553">
        <ele>568.4</ele>
        <time>2024-07-31T09:24:30Z</time>
      </trkpt>
      <trkpt lat="47.29265" lon="6.21551">
        <ele>567.8</ele>
        <time>2024-07-31T09:24:31Z</time>
      </trkpt>
      <trkpt lat="47.29265" lon="6.21547">
        <ele>567.4</ele>
        <time>2024-07-31T09:24:32Z</time>
      </trkpt>
      <trkpt lat="47.29266" lon="6.21545">
        <ele>567.4</ele>
        <time>2024-07-31T09:24:33Z</time>
      </trkpt>
      <trkpt lat="47.29267" lon="6.21542">
        <ele>566.6</ele>
        <time>2024-07-31T09:24:34Z</time>
      </trkpt>
      <trkpt lat="47.29269" lon="6.21539">
        <ele>566.4</ele>
        <time>2024-07-31T09:24:35Z</time>
      </trkpt>
      <trkpt lat="47.2927" lon="6.21537">
        <ele>565.8</ele>
        <time>2024-07-31T09:24:36Z</time>
      </trkpt>
      <trkpt lat="47.29271" lon="6.21535">
        <ele>565.2</ele>
        <time>2024-07-31T09:24:37Z</time>
      </trkpt>
      <trkpt lat="47.29272" lon="6.21532">
        <ele>564.8</ele>
        <time>2024-07-31T09:24:38Z</time>
      </trkpt>
      <trkpt lat="47.29273" lon="6.2153">
        <ele>564.2</ele>
        <time>2024-07-31T09:24:39Z</time>
      </trkpt>
      <trkpt lat="47.29273" lon="6.21526">
        <ele>563.4</ele>
        <time>2024-07-31T09:24:40Z</time>
      </trkpt>
      <trkpt lat="47.29274" lon="6.21523">
        <ele>562.8</ele>
        <time>2024-07-31T09:24:41Z</time>
      </trkpt>
      <trkpt lat="47.29275" lon="6.21521">
        <ele>562.4</ele>
        <time>2024-07-31T09:24:42Z</time>
      </trkpt>
      <trkpt lat="47.29276" lon="6.21518">
        <ele>562</ele>
        <time>2024-07-31T09:24:43Z</time>
      </trkpt>
      <trkpt lat="47.29278" lon="6.21516">
        <ele>561.6</ele>
        <time>2024-07-31T09:24:44Z</time>
      </trkpt>
      <trkpt lat="47.29279" lon="6.21514">
        <ele>561</ele>
        <time>2024-07-31T09:24:45Z</time>
      </trkpt>
      <trkpt lat="47.2928" lon="6.21512">
        <ele>560.4</ele>
        <time>2024-07-31T09:24:46Z</time>
      </trkpt>
      <trkpt lat="47.29281" lon="6.2151">
        <ele>560</ele>
        <time>2024-07-31T09:24:47Z</time>
      </trkpt>
      <trkpt lat="47.29282" lon="6.21508">
        <ele>559.4</ele>
        <time>2024-07-31T09:24:48Z</time>
      </trkpt>
      <trkpt lat="47.29283" lon="6.21506">
        <ele>559</ele>
        <time>2024-07-31T09:24:49Z</time>
      </trkpt>
      <trkpt lat="47.29284" lon="6.21504">
        <ele>558.4</ele>
        <time>2024-07-31T09:24:50Z</time>
      </trkpt>
      <trkpt lat="47.29286" lon="6.21501">
        <ele>557.6</ele>
        <time>2024-07-31T09:24:51Z</time>
      </trkpt>
      <trkpt lat="47.29287" lon="6.21499">
        <ele>557.2</ele>
        <time>2024-07-31T09:24:52Z</time>
      </trkpt>
      <trkpt lat="47.29289" lon="6.21497">
        <ele>556.8</ele>
        <time>2024-07-31T09:24:53Z</time>
      </trkpt>
      <trkpt lat="47.2929" lon="6.21495">
        <ele>555.8</ele>
        <time>2024-07-31T09:24:54Z</time>
      </trkpt>
      <trkpt lat="47.29292" lon="6.21493">
        <ele>555</ele>
        <time>2024-07-31T09:24:55Z</time>
      </trkpt>
      <trkpt lat="47.29294" lon="6.21492">
        <ele>555</ele>
        <time>2024-07-31T09:24:56Z</time>
      </trkpt>
      <trkpt lat="47.29296" lon="6.21491">
        <ele>554</ele>
        <time>2024-07-31T09:24:57Z</time>
      </trkpt>
      <trkpt lat="47.29297" lon="6.21488">
        <ele>553.6</ele>
        <time>2024-07-31T09:24:58Z</time>
      </trkpt>
      <trkpt lat="47.29298" lon="6.21487">
        <ele>553</ele>
        <time>2024-07-31T09:24:59Z</time>
      </trkpt>
      <trkpt lat="47.29299" lon="6.21485">
        <ele>552.6</ele>
        <time>2024-07-31T09:25:00Z</time>
      </trkpt>
      <trkpt lat="47.29301" lon="6.21484">
        <ele>552</ele>
        <time>2024-07-31T09:25:01Z</time>
      </trkpt>
      <trkpt lat="47.29302" lon="6.21482">
        <ele>551.2</ele>
        <time>2024-07-31T09:25:02Z</time>
      </trkpt>
      <trkpt lat="47.29303" lon="6.2148">
        <ele>550.4</ele>
        <time>2024-07-31T09:25:03Z</time>
      </trkpt>
      <trkpt lat="47.29304" lon="6.21478">
        <ele>550.2</ele>
        <time>2024-07-31T09:25:04Z</time>
      </trkpt>
      <trkpt lat="47.29305" lon="6.21477">
        <ele>549.6</ele>
        <time>2024-07-31T09:25:05Z</time>
      </trkpt>
      <trkpt lat="47.29307" lon="6.21475">
        <ele>548.6</ele>
        <time>2024-07-31T09:25:06Z</time>
      </trkpt>
      <trkpt lat="47.29308" lon="6.21472">
        <ele>547.6</ele>
        <time>2024-07-31T09:25:07Z</time>
      </trkpt>
      <trkpt lat="47.2931" lon="6.2147">
        <ele>546.4</ele>
        <time>2024-07-31T09:25:08Z</time>
      </trkpt>
      <trkpt lat="47.29312" lon="6.21468">
        <ele>545.4</ele>
        <time>2024-07-31T09:25:09Z</time>
      </trkpt>
      <trkpt lat="47.29313" lon="6.21465">
        <ele>544.4</ele>
        <time>2024-07-31T09:25:10Z</time>
      </trkpt>
      <trkpt lat="47.29314" lon="6.21462">
        <ele>543.8</ele>
        <time>2024-07-31T09:25:11Z</time>
      </trkpt>
      <trkpt lat="47.29315" lon="6.21459">
        <ele>542.8</ele>
        <time>2024-07-31T09:25:12Z</time>
      </trkpt>
      <trkpt lat="47.29317" lon="6.21457">
        <ele>541.6</ele>
        <time>2024-07-31T09:25:13Z</time>
      </trkpt>
      <trkpt lat="47.29318" lon="6.21454">
        <ele>540.4</ele>
        <time>2024-07-31T09:25:14Z</time>
      </trkpt>
      <trkpt lat="47.2932" lon="6.21451">
        <ele>539.4</ele>
        <time>2024-07-31T09:25:15Z</time>
      </trkpt>
      <trkpt lat="47.29321" lon="6.21449">
        <ele>538</ele>
        <time>2024-07-31T09:25:16Z</time>
      </trkpt>
      <trkpt lat="47.29322" lon="6.21447">
        <ele>537.2</ele>
        <time>2024-07-31T09:25:17Z</time>
      </trkpt>
      <trkpt lat="47.29323" lon="6.21444">
        <ele>537.2</ele>
        <time>2024-07-31T09:25:18Z</time>
      </trkpt>
      <trkpt lat="47.29325" lon="6.21441">
        <ele>536.8</ele>
        <time>2024-07-31T09:25:19Z</time>
      </trkpt>
      <trkpt lat="47.29327" lon="6.21437">
        <ele>535.8</ele>
        <time>2024-07-31T09:25:20Z</time>
      </trkpt>
      <trkpt lat="47.29329" lon="6.21434">
        <ele>534.6</ele>
        <time>2024-07-31T09:25:21Z</time>
      </trkpt>
      <trkpt lat="47.2933" lon="6.2143">
        <ele>533.2</ele>
        <time>2024-07-31T09:25:22Z</time>
      </trkpt>
      <trkpt lat="47.29332" lon="6.21426">
        <ele>532</ele>
        <time>2024-07-31T09:25:23Z</time>
      </trkpt>
      <trkpt lat="47.29334" lon="6.21422">
        <ele>531.2</ele>
        <time>2024-07-31T09:25:24Z</time>
      </trkpt>
      <trkpt lat="47.29337" lon="6.21418">
        <ele>529.6</ele>
        <time>2024-07-31T09:25:25Z</time>
      </trkpt>
      <trkpt lat="47.2934" lon="6.21412">
        <ele>528</ele>
        <time>2024-07-31T09:25:26Z</time>
      </trkpt>
      <trkpt lat="47.29344" lon="6.21406">
        <ele>527.2</ele>
        <time>2024-07-31T09:25:27Z</time>
      </trkpt>
      <trkpt lat="47.29348" lon="6.214">
        <ele>525.6</ele>
        <time>2024-07-31T09:25:28Z</time>
      </trkpt>
      <trkpt lat="47.29351" lon="6.21395">
        <ele>524.8</ele>
        <time>2024-07-31T09:25:29Z</time>
      </trkpt>
      <trkpt lat="47.29353" lon="6.2139">
        <ele>524.2</ele>
        <time>2024-07-31T09:25:30Z</time>
      </trkpt>
      <trkpt lat="47.29355" lon="6.21386">
        <ele>523</ele>
        <time>2024-07-31T09:25:31Z</time>
      </trkpt>
      <trkpt lat="47.29358" lon="6.2138">
        <ele>522.6</ele>
        <time>2024-07-31T09:25:32Z</time>
      </trkpt>
      <trkpt lat="47.2936" lon="6.21375">
        <ele>522.8</ele>
        <time>2024-07-31T09:25:33Z</time>
      </trkpt>
      <trkpt lat="47.29363" lon="6.21371">
        <ele>522.2</ele>
        <time>2024-07-31T09:25:34Z</time>
      </trkpt>
      <trkpt lat="47.29365" lon="6.21367">
        <ele>520.8</ele>
        <time>2024-07-31T09:25:35Z</time>
      </trkpt>
      <trkpt lat="47.29367" lon="6.21362">
        <ele>520.2</ele>
        <time>2024-07-31T09:25:36Z</time>
      </trkpt>
      <trkpt lat="47.29369" lon="6.21359">
        <ele>519.8</ele>
        <time>2024-07-31T09:25:37Z</time>
      </trkpt>
      <trkpt lat="47.29371" lon="6.21357">
        <ele>519.4</ele>
        <time>2024-07-31T09:25:38Z</time>
      </trkpt>
      <trkpt lat="47.29373" lon="6.21356">
        <ele>519.4</ele>
        <time>2024-07-31T09:25:39Z</time>
      </trkpt>
      <trkpt lat="47.29375" lon="6.21356">
        <ele>519.4</ele>
        <time>2024-07-31T09:25:40Z</time>
      </trkpt>
      <trkpt lat="47.29376" lon="6.21357">
        <ele>519.2</ele>
        <time>2024-07-31T09:25:41Z</time>
      </trkpt>
      <trkpt lat="47.29377" lon="6.21358">
        <ele>518.8</ele>
        <time>2024-07-31T09:25:42Z</time>
      </trkpt>
      <trkpt lat="47.29379" lon="6.21359">
        <ele>519</ele>
        <time>2024-07-31T09:25:43Z</time>
      </trkpt>
      <trkpt lat="47.29381" lon="6.21361">
        <ele>518.8</ele>
        <time>2024-07-31T09:25:44Z</time>
      </trkpt>
      <trkpt lat="47.29383" lon="6.21362">
        <ele>518.8</ele>
        <time>2024-07-31T09:25:45Z</time>
      </trkpt>
      <trkpt lat="47.29384" lon="6.21363">
        <ele>518.6</ele>
        <time>2024-07-31T09:25:46Z</time>
      </trkpt>
      <trkpt lat="47.29386" lon="6.21365">
        <ele>518.4</ele>
        <time>2024-07-31T09:25:47Z</time>
      </trkpt>
      <trkpt lat="47.29388" lon="6.21365">
        <ele>518</ele>
        <time>2024-07-31T09:25:48Z</time>
      </trkpt>
      <trkpt lat="47.29391" lon="6.21366">
        <ele>517.8</ele>
        <time>2024-07-31T09:25:49Z</time>
      </trkpt>
      <trkpt lat="47.29393" lon="6.21368">
        <ele>517.4</ele>
        <time>2024-07-31T09:25:50Z</time>
      </trkpt>
      <trkpt lat="47.29397" lon="6.2137">
        <ele>516.6</ele>
        <time>2024-07-31T09:25:51Z</time>
      </trkpt>
      <trkpt lat="47.294" lon="6.21373">
        <ele>516.2</ele>
        <time>2024-07-31T09:25:52Z</time>
      </trkpt>
      <trkpt lat="47.29402" lon="6.21375">
        <ele>515.6</ele>
        <time>2024-07-31T09:25:53Z</time>
      </trkpt>
      <trkpt lat="47.29406" lon="6.21378">
        <ele>515.2</ele>
        <time>2024-07-31T09:25:54Z</time>
      </trkpt>
      <trkpt lat="47.2941" lon="6.21382">
        <ele>515</ele>
        <time>2024-07-31T09:25:55Z</time>
      </trkpt>
      <trkpt lat="47.29413" lon="6.21386">
        <ele>514.8</ele>
        <time>2024-07-31T09:25:56Z</time>
      </trkpt>
      <trkpt lat="47.29417" lon="6.2139">
        <ele>514</ele>
        <time>2024-07-31T09:25:57Z</time>
      </trkpt>
      <trkpt lat="47.2942" lon="6.21393">
        <ele>513.2</ele>
        <time>2024-07-31T09:25:58Z</time>
      </trkpt>
      <trkpt lat="47.29424" lon="6.21397">
        <ele>512.8</ele>
        <time>2024-07-31T09:25:59Z</time>
      </trkpt>
      <trkpt lat="47.29426" lon="6.214">
        <ele>512.2</ele>
        <time>2024-07-31T09:26:00Z</time>
      </trkpt>
      <trkpt lat="47.2943" lon="6.21404">
        <ele>511.8</ele>
        <time>2024-07-31T09:26:01Z</time>
      </trkpt>
      <trkpt lat="47.29432" lon="6.21408">
        <ele>511.8</ele>
        <time>2024-07-31T09:26:02Z</time>
      </trkpt>
      <trkpt lat="47.29434" lon="6.21412">
        <ele>510.8</ele>
        <time>2024-07-31T09:26:03Z</time>
      </trkpt>
      <trkpt lat="47.29436" lon="6.21415">
        <ele>510.6</ele>
        <time>2024-07-31T09:26:04Z</time>
      </trkpt>
      <trkpt lat="47.29439" lon="6.21418">
        <ele>510</ele>
        <time>2024-07-31T09:26:05Z</time>
      </trkpt>
      <trkpt lat="47.29441" lon="6.21422">
        <ele>509</ele>
        <time>2024-07-31T09:26:06Z</time>
      </trkpt>
      <trkpt lat="47.29446" lon="6.21425">
        <ele>508.4</ele>
        <time>2024-07-31T09:26:07Z</time>
      </trkpt>
      <trkpt lat="47.29448" lon="6.21429">
        <ele>507.6</ele>
        <time>2024-07-31T09:26:08Z</time>
      </trkpt>
      <trkpt lat="47.29451" lon="6.21432">
        <ele>506</ele>
        <time>2024-07-31T09:26:09Z</time>
      </trkpt>
      <trkpt lat="47.29454" lon="6.21436">
        <ele>505.2</ele>
        <time>2024-07-31T09:26:10Z</time>
      </trkpt>
      <trkpt lat="47.29457" lon="6.2144">
        <ele>504.8</ele>
        <time>2024-07-31T09:26:11Z</time>
      </trkpt>
      <trkpt lat="47.2946" lon="6.21444">
        <ele>504</ele>
        <time>2024-07-31T09:26:12Z</time>
      </trkpt>
      <trkpt lat="47.29466" lon="6.21447">
        <ele>503.2</ele>
        <time>2024-07-31T09:26:13Z</time>
      </trkpt>
      <trkpt lat="47.29469" lon="6.2145">
        <ele>502.6</ele>
        <time>2024-07-31T09:26:14Z</time>
      </trkpt>
      <trkpt lat="47.29474" lon="6.21452">
        <ele>502.2</ele>
        <time>2024-07-31T09:26:15Z</time>
      </trkpt>
      <trkpt lat="47.29477" lon="6.21453">
        <ele>501.2</ele>
        <time>2024-07-31T09:26:16Z</time>
      </trkpt>
      <trkpt lat="47.2948" lon="6.21453">
        <ele>500.8</ele>
        <time>2024-07-31T09:26:17Z</time>
      </trkpt>
      <trkpt lat="47.29483" lon="6.21453">
        <ele>500.4</ele>
        <time>2024-07-31T09:26:18Z</time>
      </trkpt>
      <trkpt lat="47.29487" lon="6.21453">
        <ele>500.2</ele>
        <time>2024-07-31T09:26:19Z</time>
      </trkpt>
      <trkpt lat="47.2949" lon="6.21452">
        <ele>499.6</ele>
        <time>2024-07-31T09:26:20Z</time>
      </trkpt>
      <trkpt lat="47.29494" lon="6.21452">
        <ele>499</ele>
        <time>2024-07-31T09:26:21Z</time>
      </trkpt>
      <trkpt lat="47.29497" lon="6.21452">
        <ele>498</ele>
        <time>2024-07-31T09:26:22Z</time>
      </trkpt>
      <trkpt lat="47.29499" lon="6.21452">
        <ele>497</ele>
        <time>2024-07-31T09:26:23Z</time>
      </trkpt>
      <trkpt lat="47.29502" lon="6.21453">
        <ele>497</ele>
        <time>2024-07-31T09:26:24Z</time>
      </trkpt>
      <trkpt lat="47.29505" lon="6.21453">
        <ele>496</ele>
        <time>2024-07-31T09:26:25Z</time>
      </trkpt>
      <trkpt lat="47.29509" lon="6.21455">
        <ele>495.6</ele>
        <time>2024-07-31T09:26:26Z</time>
      </trkpt>
      <trkpt lat="47.29513" lon="6.21456">
        <ele>494.6</ele>
        <time>2024-07-31T09:26:27Z</time>
      </trkpt>
      <trkpt lat="47.29517" lon="6.21457">
        <ele>494.2</ele>
        <time>2024-07-31T09:26:28Z</time>
      </trkpt>
      <trkpt lat="47.2952" lon="6.21459">
        <ele>493.2</ele>
        <time>2024-07-31T09:26:29Z</time>
      </trkpt>
      <trkpt lat="47.29522" lon="6.2146">
        <ele>492</ele>
        <time>2024-07-31T09:26:30Z</time>
      </trkpt>
      <trkpt lat="47.29525" lon="6.21461">
        <ele>491.6</ele>
        <time>2024-07-31T09:26:31Z</time>
      </trkpt>
      <trkpt lat="47.29528" lon="6.21462">
        <ele>491</ele>
        <time>2024-07-31T09:26:32Z</time>
      </trkpt>
      <trkpt lat="47.29533" lon="6.21463">
        <ele>490.6</ele>
        <time>2024-07-31T09:26:33Z</time>
      </trkpt>
      <trkpt lat="47.29537" lon="6.21464">
        <ele>489.6</ele>
        <time>2024-07-31T09:26:34Z</time>
      </trkpt>
      <trkpt lat="47.2954" lon="6.21466">
        <ele>489.4</ele>
        <time>2024-07-31T09:26:35Z</time>
      </trkpt>
      <trkpt lat="47.29542" lon="6.21467">
        <ele>488.6</ele>
        <time>2024-07-31T09:26:36Z</time>
      </trkpt>
      <trkpt lat="47.29544" lon="6.21469">
        <ele>487.8</ele>
        <time>2024-07-31T09:26:37Z</time>
      </trkpt>
      <trkpt lat="47.29547" lon="6.21471">
        <ele>487.2</ele>
        <time>2024-07-31T09:26:38Z</time>
      </trkpt>
      <trkpt lat="47.2955" lon="6.21473">
        <ele>485.6</ele>
        <time>2024-07-31T09:26:39Z</time>
      </trkpt>
      <trkpt lat="47.29553" lon="6.21475">
        <ele>485.2</ele>
        <time>2024-07-31T09:26:40Z</time>
      </trkpt>
      <trkpt lat="47.29555" lon="6.21477">
        <ele>484.2</ele>
        <time>2024-07-31T09:26:41Z</time>
      </trkpt>
      <trkpt lat="47.29558" lon="6.2148">
        <ele>483.4</ele>
        <time>2024-07-31T09:26:42Z</time>
      </trkpt>
      <trkpt lat="47.2956" lon="6.21483">
        <ele>483</ele>
        <time>2024-07-31T09:26:43Z</time>
      </trkpt>
      <trkpt lat="47.29563" lon="6.21486">
        <ele>482.4</ele>
        <time>2024-07-31T09:26:44Z</time>
      </trkpt>
      <trkpt lat="47.29567" lon="6.21489">
        <ele>481</ele>
        <time>2024-07-31T09:26:45Z</time>
      </trkpt>
      <trkpt lat="47.29571" lon="6.21493">
        <ele>481</ele>
        <time>2024-07-31T09:26:46Z</time>
      </trkpt>
      <trkpt lat="47.29573" lon="6.21495">
        <ele>480.4</ele>
        <time>2024-07-31T09:26:47Z</time>
      </trkpt>
      <trkpt lat="47.29577" lon="6.21498">
        <ele>479.8</ele>
        <time>2024-07-31T09:26:48Z</time>
      </trkpt>
      <trkpt lat="47.29579" lon="6.215">
        <ele>479</ele>
        <time>2024-07-31T09:26:49Z</time>
      </trkpt>
      <trkpt lat="47.29582" lon="6.21503">
        <ele>478.2</ele>
        <time>2024-07-31T09:26:50Z</time>
      </trkpt>
      <trkpt lat="47.29584" lon="6.21506">
        <ele>477.6</ele>
        <time>2024-07-31T09:26:51Z</time>
      </trkpt>
      <trkpt lat="47.29586" lon="6.21508">
        <ele>477</ele>
        <time>2024-07-31T09:26:52Z</time>
      </trkpt>
      <trkpt lat="47.29587" lon="6.2151">
        <ele>476.6</ele>
        <time>2024-07-31T09:26:53Z</time>
      </trkpt>
      <trkpt lat="47.29588" lon="6.21511">
        <ele>476.4</ele>
        <time>2024-07-31T09:26:54Z</time>
      </trkpt>
      <trkpt lat="47.29589" lon="6.21513">
        <ele>476.4</ele>
        <time>2024-07-31T09:26:55Z</time>
      </trkpt>
      <trkpt lat="47.2959" lon="6.21513">
        <ele>476.4</ele>
        <time>2024-07-31T09:26:56Z</time>
      </trkpt>
      <trkpt lat="47.2959" lon="6.21514">
        <ele>476.2</ele>
        <time>2024-07-31T09:26:57Z</time>
      </trkpt>
      <trkpt lat="47.2959" lon="6.21515">
        <ele>476.2</ele>
        <time>2024-07-31T09:26:58Z</time>
      </trkpt>
      <trkpt lat="47.2959" lon="6.21516">
        <ele>476.2</ele>
        <time>2024-07-31T09:26:59Z</time>
      </trkpt>
      <trkpt lat="47.2959" lon="6.21516">
        <ele>476.4</ele>
        <time>2024-07-31T09:27:00Z</time>
      </trkpt>
      <trkpt lat="47.2959" lon="6.21516">
        <ele>476</ele>
        <time>2024-07-31T09:27:01Z</time>
      </trkpt>
      <trkpt lat="47.29591" lon="6.21518">
        <ele>475.6</ele>
        <time>2024-07-31T09:27:02Z</time>
      </trkpt>
      <trkpt lat="47.29592" lon="6.21519">
        <ele>475</ele>
        <time>2024-07-31T09:27:03Z</time>
      </trkpt>
      <trkpt lat="47.29593" lon="6.21521">
        <ele>474.2</ele>
        <time>2024-07-31T09:27:04Z</time>
      </trkpt>
      <trkpt lat="47.29595" lon="6.21523">
        <ele>473.4</ele>
        <time>2024-07-31T09:27:05Z</time>
      </trkpt>
      <trkpt lat="47.29597" lon="6.21526">
        <ele>472.8</ele>
        <time>2024-07-31T09:27:06Z</time>
      </trkpt>
      <trkpt lat="47.29599" lon="6.21528">
        <ele>471.6</ele>
        <time>2024-07-31T09:27:07Z</time>
      </trkpt>
      <trkpt lat="47.29601" lon="6.21531">
        <ele>471.6</ele>
        <time>2024-07-31T09:27:08Z</time>
      </trkpt>
      <trkpt lat="47.29604" lon="6.21533">
        <ele>470.8</ele>
        <time>2024-07-31T09:27:09Z</time>
      </trkpt>
      <trkpt lat="47.29607" lon="6.21535">
        <ele>470.4</ele>
        <time>2024-07-31T09:27:10Z</time>
      </trkpt>
      <trkpt lat="47.2961" lon="6.21536">
        <ele>469</ele>
        <time>2024-07-31T09:27:11Z</time>
      </trkpt>
      <trkpt lat="47.29612" lon="6.21535">
        <ele>468.2</ele>
        <time>2024-07-31T09:27:12Z</time>
      </trkpt>
      <trkpt lat="47.29615" lon="6.21534">
        <ele>467.2</ele>
        <time>2024-07-31T09:27:13Z</time>
      </trkpt>
      <trkpt lat="47.29619" lon="6.21533">
        <ele>466.2</ele>
        <time>2024-07-31T09:27:14Z</time>
      </trkpt>
      <trkpt lat="47.29621" lon="6.21531">
        <ele>465.4</ele>
        <time>2024-07-31T09:27:15Z</time>
      </trkpt>
      <trkpt lat="47.29625" lon="6.21528">
        <ele>465</ele>
        <time>2024-07-31T09:27:16Z</time>
      </trkpt>
      <trkpt lat="47.29628" lon="6.21525">
        <ele>464.4</ele>
        <time>2024-07-31T09:27:17Z</time>
      </trkpt>
      <trkpt lat="47.2963" lon="6.21522">
        <ele>463.6</ele>
        <time>2024-07-31T09:27:18Z</time>
      </trkpt>
      <trkpt lat="47.29634" lon="6.21518">
        <ele>462.8</ele>
        <time>2024-07-31T09:27:19Z</time>
      </trkpt>
      <trkpt lat="47.29637" lon="6.21514">
        <ele>462.4</ele>
        <time>2024-07-31T09:27:20Z</time>
      </trkpt>
      <trkpt lat="47.2964" lon="6.21511">
        <ele>461.8</ele>
        <time>2024-07-31T09:27:21Z</time>
      </trkpt>
      <trkpt lat="47.29643" lon="6.21507">
        <ele>461</ele>
        <time>2024-07-31T09:27:22Z</time>
      </trkpt>
      <trkpt lat="47.29645" lon="6.21503">
        <ele>460.6</ele>
        <time>2024-07-31T09:27:23Z</time>
      </trkpt>
      <trkpt lat="47.29647" lon="6.21499">
        <ele>460.2</ele>
        <time>2024-07-31T09:27:24Z</time>
      </trkpt>
      <trkpt lat="47.29649" lon="6.21495">
        <ele>459.8</ele>
        <time>2024-07-31T09:27:25Z</time>
      </trkpt>
      <trkpt lat="47.2965" lon="6.21492">
        <ele>459</ele>
        <time>2024-07-31T09:27:26Z</time>
      </trkpt>
      <trkpt lat="47.29652" lon="6.21489">
        <ele>458.6</ele>
        <time>2024-07-31T09:27:27Z</time>
      </trkpt>
      <trkpt lat="47.29653" lon="6.21486">
        <ele>458.2</ele>
        <time>2024-07-31T09:27:28Z</time>
      </trkpt>
      <trkpt lat="47.29656" lon="6.21482">
        <ele>458</ele>
        <time>2024-07-31T09:27:29Z</time>
      </trkpt>
      <trkpt lat="47.29657" lon="6.21479">
        <ele>458</ele>
        <time>2024-07-31T09:27:30Z</time>
      </trkpt>
      <trkpt lat="47.29658" lon="6.21476">
        <ele>457.4</ele>
        <time>2024-07-31T09:27:31Z</time>
      </trkpt>
      <trkpt lat="47.29659" lon="6.21473">
        <ele>457.2</ele>
        <time>2024-07-31T09:27:32Z</time>
      </trkpt>
      <trkpt lat="47.29659" lon="6.2147">
        <ele>455.8</ele>
        <time>2024-07-31T09:27:33Z</time>
      </trkpt>
      <trkpt lat="47.29663" lon="6.21467">
        <ele>455.8</ele>
        <time>2024-07-31T09:27:34Z</time>
      </trkpt>
      <trkpt lat="47.29664" lon="6.21464">
        <ele>455.2</ele>
        <time>2024-07-31T09:27:35Z</time>
      </trkpt>
      <trkpt lat="47.29664" lon="6.21462">
        <ele>454.8</ele>
        <time>2024-07-31T09:27:36Z</time>
      </trkpt>
      <trkpt lat="47.29665" lon="6.21459">
        <ele>454.2</ele>
        <time>2024-07-31T09:27:37Z</time>
      </trkpt>
      <trkpt lat="47.29665" lon="6.21456">
        <ele>454</ele>
        <time>2024-07-31T09:27:38Z</time>
      </trkpt>
      <trkpt lat="47.29666" lon="6.21453">
        <ele>453.2</ele>
        <time>2024-07-31T09:27:39Z</time>
      </trkpt>
      <trkpt lat="47.29667" lon="6.21449">
        <ele>452.2</ele>
        <time>2024-07-31T09:27:40Z</time>
      </trkpt>
      <trkpt lat="47.29668" lon="6.21446">
        <ele>451</ele>
        <time>2024-07-31T09:27:41Z</time>
      </trkpt>
      <trkpt lat="47.29668" lon="6.21443">
        <ele>450.4</ele>
        <time>2024-07-31T09:27:42Z</time>
      </trkpt>
      <trkpt lat="47.29668" lon="6.21438">
        <ele>449.6</ele>
        <time>2024-07-31T09:27:43Z</time>
      </trkpt>
      <trkpt lat="47.29668" lon="6.21435">
        <ele>449</ele>
        <time>2024-07-31T09:27:44Z</time>
      </trkpt>
      <trkpt lat="47.29668" lon="6.21432">
        <ele>448.4</ele>
        <time>2024-07-31T09:27:45Z</time>
      </trkpt>
      <trkpt lat="47.29668" lon="6.21428">
        <ele>447.6</ele>
        <time>2024-07-31T09:27:46Z</time>
      </trkpt>
      <trkpt lat="47.29667" lon="6.21425">
        <ele>447</ele>
        <time>2024-07-31T09:27:47Z</time>
      </trkpt>
      <trkpt lat="47.29667" lon="6.21421">
        <ele>446.6</ele>
        <time>2024-07-31T09:27:48Z</time>
      </trkpt>
      <trkpt lat="47.29667" lon="6.21419">
        <ele>445.8</ele>
        <time>2024-07-31T09:27:49Z</time>
      </trkpt>
      <trkpt lat="47.29667" lon="6.21416">
        <ele>445.2</ele>
        <time>2024-07-31T09:27:50Z</time>
      </trkpt>
      <trkpt lat="47.29666" lon="6.21414">
        <ele>444.6</ele>
        <time>2024-07-31T09:27:51Z</time>
      </trkpt>
      <trkpt lat="47.29665" lon="6.21412">
        <ele>444.6</ele>
        <time>2024-07-31T09:27:52Z</time>
      </trkpt>
      <trkpt lat="47.29665" lon="6.21409">
        <ele>443.8</ele>
        <time>2024-07-31T09:27:53Z</time>
      </trkpt>
      <trkpt lat="47.29664" lon="6.21405">
        <ele>443</ele>
        <time>2024-07-31T09:27:54Z</time>
      </trkpt>
      <trkpt lat="47.29663" lon="6.21402">
        <ele>442.4</ele>
        <time>2024-07-31T09:27:55Z</time>
      </trkpt>
      <trkpt lat="47.29661" lon="6.21399">
        <ele>441.2</ele>
        <time>2024-07-31T09:27:56Z</time>
      </trkpt>
      <trkpt lat="47.2966" lon="6.21396">
        <ele>440.2</ele>
        <time>2024-07-31T09:27:57Z</time>
      </trkpt>
      <trkpt lat="47.29658" lon="6.21393">
        <ele>439.6</ele>
        <time>2024-07-31T09:27:58Z</time>
      </trkpt>
      <trkpt lat="47.29655" lon="6.21391">
        <ele>438.6</ele>
        <time>2024-07-31T09:27:59Z</time>
      </trkpt>
      <trkpt lat="47.29653" lon="6.21389">
        <ele>438</ele>
        <time>2024-07-31T09:28:00Z</time>
      </trkpt>
      <trkpt lat="47.29651" lon="6.21387">
        <ele>437.2</ele>
        <time>2024-07-31T09:28:01Z</time>
      </trkpt>
      <trkpt lat="47.29649" lon="6.21386">
        <ele>436.4</ele>
        <time>2024-07-31T09:28:02Z</time>
      </trkpt>
      <trkpt lat="47.29648" lon="6.21384">
        <ele>435.6</ele>
        <time>2024-07-31T09:28:03Z</time>
      </trkpt>
      <trkpt lat="47.29647" lon="6.21383">
        <ele>435</ele>
        <time>2024-07-31T09:28:04Z</time>
      </trkpt>
      <trkpt lat="47.29646" lon="6.2138">
        <ele>434.4</ele>
        <time>2024-07-31T09:28:05Z</time>
      </trkpt>
      <trkpt lat="47.29646" lon="6.21378">
        <ele>433.4</ele>
        <time>2024-07-31T09:28:06Z</time>
      </trkpt>
      <trkpt lat="47.29646" lon="6.21376">
        <ele>432.6</ele>
        <time>2024-07-31T09:28:07Z</time>
      </trkpt>
      <trkpt lat="47.29646" lon="6.21373">
        <ele>431.6</ele>
        <time>2024-07-31T09:28:08Z</time>
      </trkpt>
      <trkpt lat="47.29647" lon="6.21371">
        <ele>430.6</ele>
        <time>2024-07-31T09:28:09Z</time>
      </trkpt>
      <trkpt lat="47.29649" lon="6.21368">
        <ele>430.2</ele>
        <time>2024-07-31T09:28:10Z</time>
      </trkpt>
      <trkpt lat="47.29651" lon="6.21365">
        <ele>429.2</ele>
        <time>2024-07-31T09:28:11Z</time>
      </trkpt>
      <trkpt lat="47.29652" lon="6.21363">
        <ele>428.6</ele>
        <time>2024-07-31T09:28:12Z</time>
      </trkpt>
      <trkpt lat="47.29654" lon="6.2136">
        <ele>427.8</ele>
        <time>2024-07-31T09:28:13Z</time>
      </trkpt>
      <trkpt lat="47.29655" lon="6.21357">
        <ele>427.8</ele>
        <time>2024-07-31T09:28:14Z</time>
      </trkpt>
      <trkpt lat="47.29656" lon="6.21354">
        <ele>427.2</ele>
        <time>2024-07-31T09:28:15Z</time>
      </trkpt>
      <trkpt lat="47.29657" lon="6.21353">
        <ele>426.8</ele>
        <time>2024-07-31T09:28:16Z</time>
      </trkpt>
      <trkpt lat="47.29658" lon="6.21352">
        <ele>426</ele>
        <time>2024-07-31T09:28:17Z</time>
      </trkpt>
      <trkpt lat="47.29659" lon="6.2135">
        <ele>425.2</ele>
        <time>2024-07-31T09:28:18Z</time>
      </trkpt>
      <trkpt lat="47.2966" lon="6.21349">
        <ele>424.8</ele>
        <time>2024-07-31T09:28:19Z</time>
      </trkpt>
      <trkpt lat="47.29662" lon="6.21347">
        <ele>424.2</ele>
        <time>2024-07-31T09:28:20Z</time>
      </trkpt>
      <trkpt lat="47.29664" lon="6.21346">
        <ele>423.4</ele>
        <time>2024-07-31T09:28:21Z</time>
      </trkpt>
      <trkpt lat="47.29666" lon="6.21343">
        <ele>422.8</ele>
        <time>2024-07-31T09:28:22Z</time>
      </trkpt>
      <trkpt lat="47.29668" lon="6.21341">
        <ele>422.4</ele>
        <time>2024-07-31T09:28:23Z</time>
      </trkpt>
      <trkpt lat="47.2967" lon="6.21339">
        <ele>421.8</ele>
        <time>2024-07-31T09:28:24Z</time>
      </trkpt>
      <trkpt lat="47.29672" lon="6.21337">
        <ele>421.2</ele>
        <time>2024-07-31T09:28:25Z</time>
      </trkpt>
      <trkpt lat="47.29673" lon="6.21335">
        <ele>420.4</ele>
        <time>2024-07-31T09:28:26Z</time>
      </trkpt>
      <trkpt lat="47.29674" lon="6.21332">
        <ele>419.2</ele>
        <time>2024-07-31T09:28:27Z</time>
      </trkpt>
      <trkpt lat="47.29676" lon="6.21331">
        <ele>418.8</ele>
        <time>2024-07-31T09:28:28Z</time>
      </trkpt>
      <trkpt lat="47.29677" lon="6.21329">
        <ele>417.4</ele>
        <time>2024-07-31T09:28:29Z</time>
      </trkpt>
      <trkpt lat="47.29679" lon="6.21327">
        <ele>416.6</ele>
        <time>2024-07-31T09:28:30Z</time>
      </trkpt>
      <trkpt lat="47.29681" lon="6.21325">
        <ele>415.6</ele>
        <time>2024-07-31T09:28:31Z</time>
      </trkpt>
      <trkpt lat="47.29683" lon="6.21324">
        <ele>414.8</ele>
        <time>2024-07-31T09:28:32Z</time>
      </trkpt>
      <trkpt lat="47.29685" lon="6.21323">
        <ele>414</ele>
        <time>2024-07-31T09:28:33Z</time>
      </trkpt>
      <trkpt lat="47.29687" lon="6.21321">
        <ele>413.4</ele>
        <time>2024-07-31T09:28:34Z</time>
      </trkpt>
      <trkpt lat="47.2969" lon="6.2132">
        <ele>413.4</ele>
        <time>2024-07-31T09:28:35Z</time>
      </trkpt>
      <trkpt lat="47.29691" lon="6.21319">
        <ele>413.4</ele>
        <time>2024-07-31T09:28:36Z</time>
      </trkpt>
      <trkpt lat="47.29694" lon="6.21318">
        <ele>411.4</ele>
        <time>2024-07-31T09:28:37Z</time>
      </trkpt>
      <trkpt lat="47.29696" lon="6.21318">
        <ele>410.8</ele>
        <time>2024-07-31T09:28:38Z</time>
      </trkpt>
      <trkpt lat="47.29698" lon="6.21318">
        <ele>410.2</ele>
        <time>2024-07-31T09:28:39Z</time>
      </trkpt>
      <trkpt lat="47.29701" lon="6.21318">
        <ele>409.2</ele>
        <time>2024-07-31T09:28:40Z</time>
      </trkpt>
      <trkpt lat="47.29704" lon="6.21318">
        <ele>408.4</ele>
        <time>2024-07-31T09:28:41Z</time>
      </trkpt>
      <trkpt lat="47.29706" lon="6.21317">
        <ele>407.8</ele>
        <time>2024-07-31T09:28:42Z</time>
      </trkpt>
      <trkpt lat="47.29709" lon="6.21316">
        <ele>407.4</ele>
        <time>2024-07-31T09:28:43Z</time>
      </trkpt>
      <trkpt lat="47.29711" lon="6.21315">
        <ele>406.8</ele>
        <time>2024-07-31T09:28:44Z</time>
      </trkpt>
      <trkpt lat="47.29714" lon="6.21315">
        <ele>406</ele>
        <time>2024-07-31T09:28:45Z</time>
      </trkpt>
      <trkpt lat="47.29716" lon="6.21314">
        <ele>405.2</ele>
        <time>2024-07-31T09:28:46Z</time>
      </trkpt>
      <trkpt lat="47.29719" lon="6.21314">
        <ele>404.2</ele>
        <time>2024-07-31T09:28:47Z</time>
      </trkpt>
      <trkpt lat="47.29722" lon="6.21313">
        <ele>403.6</ele>
        <time>2024-07-31T09:28:48Z</time>
      </trkpt>
      <trkpt lat="47.29724" lon="6.21312">
        <ele>402.6</ele>
        <time>2024-07-31T09:28:49Z</time>
      </trkpt>
      <trkpt lat="47.29727" lon="6.21312">
        <ele>401.8</ele>
        <time>2024-07-31T09:28:50Z</time>
      </trkpt>
      <trkpt lat="47.2973" lon="6.21311">
        <ele>401.4</ele>
        <time>2024-07-31T09:28:51Z</time>
      </trkpt>
      <trkpt lat="47.29734" lon="6.21311">
        <ele>400</ele>
        <time>2024-07-31T09:28:52Z</time>
      </trkpt>
      <trkpt lat="47.29737" lon="6.2131">
        <ele>399.6</ele>
        <time>2024-07-31T09:28:53Z</time>
      </trkpt>
      <trkpt lat="47.2974" lon="6.2131">
        <ele>398.8</ele>
        <time>2024-07-31T09:28:54Z</time>
      </trkpt>
      <trkpt lat="47.29743" lon="6.21309">
        <ele>397.8</ele>
        <time>2024-07-31T09:28:55Z</time>
      </trkpt>
      <trkpt lat="47.29746" lon="6.21309">
        <ele>396.2</ele>
        <time>2024-07-31T09:28:56Z</time>
      </trkpt>
      <trkpt lat="47.2975" lon="6.21308">
        <ele>395</ele>
        <time>2024-07-31T09:28:57Z</time>
      </trkpt>
      <trkpt lat="47.29753" lon="6.21307">
        <ele>395</ele>
        <time>2024-07-31T09:28:58Z</time>
      </trkpt>
      <trkpt lat="47.29757" lon="6.21307">
        <ele>393.4</ele>
        <time>2024-07-31T09:28:59Z</time>
      </trkpt>
      <trkpt lat="47.2976" lon="6.21307">
        <ele>392.2</ele>
        <time>2024-07-31T09:29:00Z</time>
      </trkpt>
      <trkpt lat="47.29764" lon="6.21308">
        <ele>391</ele>
        <time>2024-07-31T09:29:01Z</time>
      </trkpt>
      <trkpt lat="47.29767" lon="6.21308">
        <ele>390.2</ele>
        <time>2024-07-31T09:29:02Z</time>
      </trkpt>
      <trkpt lat="47.2977" lon="6.21309">
        <ele>389.8</ele>
        <time>2024-07-31T09:29:03Z</time>
      </trkpt>
      <trkpt lat="47.29772" lon="6.2131">
        <ele>389</ele>
        <time>2024-07-31T09:29:04Z</time>
      </trkpt>
      <trkpt lat="47.29775" lon="6.2131">
        <ele>388.4</ele>
        <time>2024-07-31T09:29:05Z</time>
      </trkpt>
      <trkpt lat="47.29777" lon="6.21312">
        <ele>388.2</ele>
        <time>2024-07-31T09:29:06Z</time>
      </trkpt>
      <trkpt lat="47.29784" lon="6.21313">
        <ele>386.8</ele>
        <time>2024-07-31T09:29:07Z</time>
      </trkpt>
      <trkpt lat="47.29789" lon="6.21314">
        <ele>386.4</ele>
        <time>2024-07-31T09:29:08Z</time>
      </trkpt>
      <trkpt lat="47.29793" lon="6.21315">
        <ele>385</ele>
        <time>2024-07-31T09:29:09Z</time>
      </trkpt>
      <trkpt lat="47.29797" lon="6.21317">
        <ele>384</ele>
        <time>2024-07-31T09:29:10Z</time>
      </trkpt>
      <trkpt lat="47.298" lon="6.21319">
        <ele>383.6</ele>
        <time>2024-07-31T09:29:11Z</time>
      </trkpt>
      <trkpt lat="47.29806" lon="6.21322">
        <ele>382.8</ele>
        <time>2024-07-31T09:29:12Z</time>
      </trkpt>
      <trkpt lat="47.29811" lon="6.21325">
        <ele>382.4</ele>
        <time>2024-07-31T09:29:13Z</time>
      </trkpt>
      <trkpt lat="47.29814" lon="6.21328">
        <ele>381.2</ele>
        <time>2024-07-31T09:29:14Z</time>
      </trkpt>
      <trkpt lat="47.29818" lon="6.2133">
        <ele>381.4</ele>
        <time>2024-07-31T09:29:15Z</time>
      </trkpt>
      <trkpt lat="47.29822" lon="6.21332">
        <ele>380.6</ele>
        <time>2024-07-31T09:29:16Z</time>
      </trkpt>
      <trkpt lat="47.29825" lon="6.21334">
        <ele>380.4</ele>
        <time>2024-07-31T09:29:17Z</time>
      </trkpt>
      <trkpt lat="47.29828" lon="6.21337">
        <ele>379.8</ele>
        <time>2024-07-31T09:29:18Z</time>
      </trkpt>
      <trkpt lat="47.29832" lon="6.2134">
        <ele>379.6</ele>
        <time>2024-07-31T09:29:19Z</time>
      </trkpt>
      <trkpt lat="47.29835" lon="6.21343">
        <ele>379.6</ele>
        <time>2024-07-31T09:29:20Z</time>
      </trkpt>
      <trkpt lat="47.29837" lon="6.21346">
        <ele>379.4</ele>
        <time>2024-07-31T09:29:21Z</time>
      </trkpt>
      <trkpt lat="47.2984" lon="6.21348">
        <ele>379.4</ele>
        <time>2024-07-31T09:29:22Z</time>
      </trkpt>
      <trkpt lat="47.29842" lon="6.21351">
        <ele>378.6</ele>
        <time>2024-07-31T09:29:23Z</time>
      </trkpt>
      <trkpt lat="47.29844" lon="6.21355">
        <ele>378.8</ele>
        <time>2024-07-31T09:29:24Z</time>
      </trkpt>
      <trkpt lat="47.29847" lon="6.21358">
        <ele>378.8</ele>
        <time>2024-07-31T09:29:25Z</time>
      </trkpt>
      <trkpt lat="47.29849" lon="6.21362">
        <ele>378.2</ele>
        <time>2024-07-31T09:29:26Z</time>
      </trkpt>
      <trkpt lat="47.29853" lon="6.21366">
        <ele>378</ele>
        <time>2024-07-31T09:29:27Z</time>
      </trkpt>
      <trkpt lat="47.29855" lon="6.2137">
        <ele>377.6</ele>
        <time>2024-07-31T09:29:28Z</time>
      </trkpt>
      <trkpt lat="47.29858" lon="6.21376">
        <ele>377.2</ele>
        <time>2024-07-31T09:29:29Z</time>
      </trkpt>
      <trkpt lat="47.2986" lon="6.21381">
        <ele>376.6</ele>
        <time>2024-07-31T09:29:30Z</time>
      </trkpt>
      <trkpt lat="47.29862" lon="6.21385">
        <ele>376</ele>
        <time>2024-07-31T09:29:31Z</time>
      </trkpt>
      <trkpt lat="47.29863" lon="6.2139">
        <ele>376</ele>
        <time>2024-07-31T09:29:32Z</time>
      </trkpt>
      <trkpt lat="47.29866" lon="6.21395">
        <ele>375</ele>
        <time>2024-07-31T09:29:33Z</time>
      </trkpt>
      <trkpt lat="47.29868" lon="6.21399">
        <ele>374.4</ele>
        <time>2024-07-31T09:29:34Z</time>
      </trkpt>
      <trkpt lat="47.29871" lon="6.21404">
        <ele>373.6</ele>
        <time>2024-07-31T09:29:35Z</time>
      </trkpt>
      <trkpt lat="47.29873" lon="6.2141">
        <ele>373.2</ele>
        <time>2024-07-31T09:29:36Z</time>
      </trkpt>
      <trkpt lat="47.29876" lon="6.21416">
        <ele>372.4</ele>
        <time>2024-07-31T09:29:37Z</time>
      </trkpt>
      <trkpt lat="47.29878" lon="6.21421">
        <ele>371.6</ele>
        <time>2024-07-31T09:29:38Z</time>
      </trkpt>
      <trkpt lat="47.29879" lon="6.21425">
        <ele>371.2</ele>
        <time>2024-07-31T09:29:39Z</time>
      </trkpt>
      <trkpt lat="47.2988" lon="6.2143">
        <ele>370.8</ele>
        <time>2024-07-31T09:29:40Z</time>
      </trkpt>
      <trkpt lat="47.29883" lon="6.21434">
        <ele>370.8</ele>
        <time>2024-07-31T09:29:41Z</time>
      </trkpt>
      <trkpt lat="47.29886" lon="6.21439">
        <ele>370.8</ele>
        <time>2024-07-31T09:29:42Z</time>
      </trkpt>
      <trkpt lat="47.29889" lon="6.21442">
        <ele>369.6</ele>
        <time>2024-07-31T09:29:43Z</time>
      </trkpt>
      <trkpt lat="47.2989" lon="6.21446">
        <ele>369.4</ele>
        <time>2024-07-31T09:29:44Z</time>
      </trkpt>
      <trkpt lat="47.29892" lon="6.21448">
        <ele>368.8</ele>
        <time>2024-07-31T09:29:45Z</time>
      </trkpt>
      <trkpt lat="47.29893" lon="6.21451">
        <ele>368.2</ele>
        <time>2024-07-31T09:29:46Z</time>
      </trkpt>
      <trkpt lat="47.29894" lon="6.21454">
        <ele>367.4</ele>
        <time>2024-07-31T09:29:47Z</time>
      </trkpt>
      <trkpt lat="47.29895" lon="6.21457">
        <ele>367</ele>
        <time>2024-07-31T09:29:48Z</time>
      </trkpt>
      <trkpt lat="47.29895" lon="6.2146">
        <ele>365.8</ele>
        <time>2024-07-31T09:29:49Z</time>
      </trkpt>
      <trkpt lat="47.29896" lon="6.21463">
        <ele>364.8</ele>
        <time>2024-07-31T09:29:50Z</time>
      </trkpt>
      <trkpt lat="47.29896" lon="6.21467">
        <ele>363.8</ele>
        <time>2024-07-31T09:29:51Z</time>
      </trkpt>
      <trkpt lat="47.29897" lon="6.21472">
        <ele>362.6</ele>
        <time>2024-07-31T09:29:52Z</time>
      </trkpt>
      <trkpt lat="47.29898" lon="6.21476">
        <ele>361.6</ele>
        <time>2024-07-31T09:29:53Z</time>
      </trkpt>
      <trkpt lat="47.29899" lon="6.2148">
        <ele>360.8</ele>
        <time>2024-07-31T09:29:54Z</time>
      </trkpt>
      <trkpt lat="47.29899" lon="6.21484">
        <ele>360.2</ele>
        <time>2024-07-31T09:29:55Z</time>
      </trkpt>
      <trkpt lat="47.29901" lon="6.21488">
        <ele>359.2</ele>
        <time>2024-07-31T09:29:56Z</time>
      </trkpt>
      <trkpt lat="47.29902" lon="6.21492">
        <ele>358.6</ele>
        <time>2024-07-31T09:29:57Z</time>
      </trkpt>
      <trkpt lat="47.29902" lon="6.21495">
        <ele>358</ele>
        <time>2024-07-31T09:29:58Z</time>
      </trkpt>
      <trkpt lat="47.29901" lon="6.21498">
        <ele>357.6</ele>
        <time>2024-07-31T09:29:59Z</time>
      </trkpt>
      <trkpt lat="47.299" lon="6.21501">
        <ele>357.4</ele>
        <time>2024-07-31T09:30:00Z</time>
      </trkpt>
      <trkpt lat="47.29898" lon="6.21504">
        <ele>357.4</ele>
        <time>2024-07-31T09:30:01Z</time>
      </trkpt>
      <trkpt lat="47.29897" lon="6.21507">
        <ele>357.4</ele>
        <time>2024-07-31T09:30:02Z</time>
      </trkpt>
      <trkpt lat="47.29896" lon="6.21509">
        <ele>356.8</ele>
        <time>2024-07-31T09:30:03Z</time>
      </trkpt>
      <trkpt lat="47.29895" lon="6.21512">
        <ele>356.8</ele>
        <time>2024-07-31T09:30:04Z</time>
      </trkpt>
      <trkpt lat="47.29894" lon="6.21517">
        <ele>356.4</ele>
        <time>2024-07-31T09:30:05Z</time>
      </trkpt>
      <trkpt lat="47.29894" lon="6.21523">
        <ele>355.6</ele>
        <time>2024-07-31T09:30:06Z</time>
      </trkpt>
      <trkpt lat="47.29893" lon="6.21528">
        <ele>355.2</ele>
        <time>2024-07-31T09:30:07Z</time>
      </trkpt>
      <trkpt lat="47.29891" lon="6.21535">
        <ele>354.2</ele>
        <time>2024-07-31T09:30:08Z</time>
      </trkpt>
      <trkpt lat="47.2989" lon="6.2154">
        <ele>353.6</ele>
        <time>2024-07-31T09:30:09Z</time>
      </trkpt>
      <trkpt lat="47.29889" lon="6.21546">
        <ele>353</ele>
        <time>2024-07-31T09:30:10Z</time>
      </trkpt>
      <trkpt lat="47.29888" lon="6.21553">
        <ele>351.8</ele>
        <time>2024-07-31T09:30:11Z</time>
      </trkpt>
      <trkpt lat="47.29887" lon="6.21559">
        <ele>351</ele>
        <time>2024-07-31T09:30:12Z</time>
      </trkpt>
      <trkpt lat="47.29886" lon="6.21564">
        <ele>350.4</ele>
        <time>2024-07-31T09:30:13Z</time>
      </trkpt>
      <trkpt lat="47.29885" lon="6.21571">
        <ele>349.8</ele>
        <time>2024-07-31T09:30:14Z</time>
      </trkpt>
      <trkpt lat="47.29885" lon="6.21578">
        <ele>350.2</ele>
        <time>2024-07-31T09:30:15Z</time>
      </trkpt>
      <trkpt lat="47.29884" lon="6.21585">
        <ele>348</ele>
        <time>2024-07-31T09:30:16Z</time>
      </trkpt>
      <trkpt lat="47.29884" lon="6.21592">
        <ele>347.6</ele>
        <time>2024-07-31T09:30:17Z</time>
      </trkpt>
      <trkpt lat="47.29883" lon="6.21598">
        <ele>346.6</ele>
        <time>2024-07-31T09:30:18Z</time>
      </trkpt>
      <trkpt lat="47.29882" lon="6.21603">
        <ele>346.4</ele>
        <time>2024-07-31T09:30:19Z</time>
      </trkpt>
      <trkpt lat="47.29881" lon="6.21609">
        <ele>345.8</ele>
        <time>2024-07-31T09:30:20Z</time>
      </trkpt>
      <trkpt lat="47.29878" lon="6.21614">
        <ele>345.4</ele>
        <time>2024-07-31T09:30:21Z</time>
      </trkpt>
      <trkpt lat="47.29876" lon="6.21619">
        <ele>345</ele>
        <time>2024-07-31T09:30:22Z</time>
      </trkpt>
      <trkpt lat="47.29874" lon="6.21622">
        <ele>344.2</ele>
        <time>2024-07-31T09:30:23Z</time>
      </trkpt>
      <trkpt lat="47.29872" lon="6.21626">
        <ele>343.6</ele>
        <time>2024-07-31T09:30:24Z</time>
      </trkpt>
      <trkpt lat="47.29871" lon="6.21631">
        <ele>343</ele>
        <time>2024-07-31T09:30:25Z</time>
      </trkpt>
      <trkpt lat="47.2987" lon="6.21633">
        <ele>343</ele>
        <time>2024-07-31T09:30:26Z</time>
      </trkpt>
      <trkpt lat="47.2987" lon="6.21637">
        <ele>343</ele>
        <time>2024-07-31T09:30:27Z</time>
      </trkpt>
      <trkpt lat="47.2987" lon="6.21639">
        <ele>343</ele>
        <time>2024-07-31T09:30:28Z</time>
      </trkpt>
      <trkpt lat="47.29871" lon="6.2164">
        <ele>343.2</ele>
        <time>2024-07-31T09:30:29Z</time>
      </trkpt>
      <trkpt lat="47.29871" lon="6.21644">
        <ele>343.2</ele>
        <time>2024-07-31T09:30:30Z</time>
      </trkpt>
      <trkpt lat="47.29871" lon="6.21646">
        <ele>343.2</ele>
        <time>2024-07-31T09:30:31Z</time>
      </trkpt>
      <trkpt lat="47.29871" lon="6.21646">
        <ele>343.2</ele>
        <time>2024-07-31T09:30:32Z</time>
      </trkpt>
      <trkpt lat="47.29871" lon="6.21646">
        <ele>343.2</ele>
        <time>2024-07-31T09:30:33Z</time>
      </trkpt>
      <trkpt lat="47.2987" lon="6.21646">
        <ele>343.2</ele>
        <time>2024-07-31T09:30:34Z</time>
      </trkpt>
      <trkpt lat="47.2987" lon="6.21646">
        <ele>343.4</ele>
        <time>2024-07-31T09:30:35Z</time>
      </trkpt>
      <trkpt lat="47.2987" lon="6.21646">
        <ele>343.6</ele>
        <time>2024-07-31T09:30:36Z</time>
      </trkpt>
      <trkpt lat="47.2987" lon="6.21647">
        <ele>343.4</ele>
        <time>2024-07-31T09:30:37Z</time>
      </trkpt>
      <trkpt lat="47.29869" lon="6.21649">
        <ele>343</ele>
        <time>2024-07-31T09:30:38Z</time>
      </trkpt>
      <trkpt lat="47.29869" lon="6.21651">
        <ele>342.2</ele>
        <time>2024-07-31T09:30:39Z</time>
      </trkpt>
      <trkpt lat="47.29869" lon="6.21654">
        <ele>341.6</ele>
        <time>2024-07-31T09:30:40Z</time>
      </trkpt>
      <trkpt lat="47.29868" lon="6.21657">
        <ele>340.6</ele>
        <time>2024-07-31T09:30:41Z</time>
      </trkpt>
      <trkpt lat="47.29867" lon="6.21661">
        <ele>340</ele>
        <time>2024-07-31T09:30:42Z</time>
      </trkpt>
      <trkpt lat="47.29866" lon="6.21666">
        <ele>339.4</ele>
        <time>2024-07-31T09:30:43Z</time>
      </trkpt>
      <trkpt lat="47.29864" lon="6.21671">
        <ele>338.6</ele>
        <time>2024-07-31T09:30:44Z</time>
      </trkpt>
      <trkpt lat="47.29863" lon="6.21676">
        <ele>337.8</ele>
        <time>2024-07-31T09:30:45Z</time>
      </trkpt>
      <trkpt lat="47.29861" lon="6.21681">
        <ele>336.6</ele>
        <time>2024-07-31T09:30:46Z</time>
      </trkpt>
      <trkpt lat="47.2986" lon="6.21687">
        <ele>336</ele>
        <time>2024-07-31T09:30:47Z</time>
      </trkpt>
      <trkpt lat="47.29858" lon="6.21693">
        <ele>334.2</ele>
        <time>2024-07-31T09:30:48Z</time>
      </trkpt>
      <trkpt lat="47.29857" lon="6.21699">
        <ele>334.2</ele>
        <time>2024-07-31T09:30:49Z</time>
      </trkpt>
      <trkpt lat="47.29856" lon="6.21704">
        <ele>333.6</ele>
        <time>2024-07-31T09:30:50Z</time>
      </trkpt>
      <trkpt lat="47.29854" lon="6.2171">
        <ele>333</ele>
        <time>2024-07-31T09:30:51Z</time>
      </trkpt>
      <trkpt lat="47.29853" lon="6.21716">
        <ele>331.8</ele>
        <time>2024-07-31T09:30:52Z</time>
      </trkpt>
      <trkpt lat="47.29851" lon="6.21721">
        <ele>330.6</ele>
        <time>2024-07-31T09:30:53Z</time>
      </trkpt>
      <trkpt lat="47.2985" lon="6.21726">
        <ele>329.8</ele>
        <time>2024-07-31T09:30:54Z</time>
      </trkpt>
      <trkpt lat="47.29849" lon="6.2173">
        <ele>328.4</ele>
        <time>2024-07-31T09:30:55Z</time>
      </trkpt>
      <trkpt lat="47.29847" lon="6.21734">
        <ele>327.4</ele>
        <time>2024-07-31T09:30:56Z</time>
      </trkpt>
      <trkpt lat="47.29846" lon="6.21737">
        <ele>326.6</ele>
        <time>2024-07-31T09:30:57Z</time>
      </trkpt>
      <trkpt lat="47.29844" lon="6.21743">
        <ele>325.4</ele>
        <time>2024-07-31T09:30:58Z</time>
      </trkpt>
      <trkpt lat="47.29843" lon="6.21748">
        <ele>324.8</ele>
        <time>2024-07-31T09:30:59Z</time>
      </trkpt>
      <trkpt lat="47.29841" lon="6.21752">
        <ele>323.8</ele>
        <time>2024-07-31T09:31:00Z</time>
      </trkpt>
      <trkpt lat="47.2984" lon="6.21759">
        <ele>323</ele>
        <time>2024-07-31T09:31:01Z</time>
      </trkpt>
      <trkpt lat="47.29839" lon="6.21766">
        <ele>322.2</ele>
        <time>2024-07-31T09:31:02Z</time>
      </trkpt>
      <trkpt lat="47.29838" lon="6.21771">
        <ele>321</ele>
        <time>2024-07-31T09:31:03Z</time>
      </trkpt>
      <trkpt lat="47.29837" lon="6.21777">
        <ele>320.2</ele>
        <time>2024-07-31T09:31:04Z</time>
      </trkpt>
      <trkpt lat="47.29837" lon="6.21783">
        <ele>319.6</ele>
        <time>2024-07-31T09:31:05Z</time>
      </trkpt>
      <trkpt lat="47.29836" lon="6.21789">
        <ele>318.8</ele>
        <time>2024-07-31T09:31:06Z</time>
      </trkpt>
      <trkpt lat="47.29835" lon="6.21795">
        <ele>318.2</ele>
        <time>2024-07-31T09:31:07Z</time>
      </trkpt>
      <trkpt lat="47.29834" lon="6.21801">
        <ele>317.4</ele>
        <time>2024-07-31T09:31:08Z</time>
      </trkpt>
      <trkpt lat="47.29833" lon="6.21806">
        <ele>316.6</ele>
        <time>2024-07-31T09:31:09Z</time>
      </trkpt>
      <trkpt lat="47.29832" lon="6.21811">
        <ele>316.2</ele>
        <time>2024-07-31T09:31:10Z</time>
      </trkpt>
      <trkpt lat="47.2983" lon="6.21815">
        <ele>316.2</ele>
        <time>2024-07-31T09:31:11Z</time>
      </trkpt>
      <trkpt lat="47.29829" lon="6.2182">
        <ele>314.6</ele>
        <time>2024-07-31T09:31:12Z</time>
      </trkpt>
      <trkpt lat="47.29828" lon="6.21823">
        <ele>314.4</ele>
        <time>2024-07-31T09:31:13Z</time>
      </trkpt>
      <trkpt lat="47.29827" lon="6.21827">
        <ele>313.8</ele>
        <time>2024-07-31T09:31:14Z</time>
      </trkpt>
      <trkpt lat="47.29825" lon="6.21831">
        <ele>312.8</ele>
        <time>2024-07-31T09:31:15Z</time>
      </trkpt>
      <trkpt lat="47.29825" lon="6.21835">
        <ele>311.4</ele>
        <time>2024-07-31T09:31:16Z</time>
      </trkpt>
      <trkpt lat="47.29824" lon="6.21839">
        <ele>310.8</ele>
        <time>2024-07-31T09:31:17Z</time>
      </trkpt>
      <trkpt lat="47.29823" lon="6.21843">
        <ele>310</ele>
        <time>2024-07-31T09:31:18Z</time>
      </trkpt>
      <trkpt lat="47.29822" lon="6.21846">
        <ele>309.6</ele>
        <time>2024-07-31T09:31:19Z</time>
      </trkpt>
      <trkpt lat="47.29822" lon="6.21849">
        <ele>308.6</ele>
        <time>2024-07-31T09:31:20Z</time>
      </trkpt>
      <trkpt lat="47.29821" lon="6.21854">
        <ele>307.6</ele>
        <time>2024-07-31T09:31:21Z</time>
      </trkpt>
      <trkpt lat="47.29819" lon="6.21857">
        <ele>307</ele>
        <time>2024-07-31T09:31:22Z</time>
      </trkpt>
      <trkpt lat="47.29818" lon="6.21861">
        <ele>306.6</ele>
        <time>2024-07-31T09:31:23Z</time>
      </trkpt>
      <trkpt lat="47.29818" lon="6.21866">
        <ele>305.8</ele>
        <time>2024-07-31T09:31:24Z</time>
      </trkpt>
      <trkpt lat="47.29817" lon="6.21871">
        <ele>304.8</ele>
        <time>2024-07-31T09:31:25Z</time>
      </trkpt>
      <trkpt lat="47.29816" lon="6.21877">
        <ele>304</ele>
        <time>2024-07-31T09:31:26Z</time>
      </trkpt>
      <trkpt lat="47.29815" lon="6.21881">
        <ele>303</ele>
        <time>2024-07-31T09:31:27Z</time>
      </trkpt>
      <trkpt lat="47.29813" lon="6.21884">
        <ele>303</ele>
        <time>2024-07-31T09:31:28Z</time>
      </trkpt>
      <trkpt lat="47.29812" lon="6.21887">
        <ele>302</ele>
        <time>2024-07-31T09:31:29Z</time>
      </trkpt>
      <trkpt lat="47.2981" lon="6.21892">
        <ele>301.2</ele>
        <time>2024-07-31T09:31:30Z</time>
      </trkpt>
      <trkpt lat="47.29809" lon="6.21894">
        <ele>300.4</ele>
        <time>2024-07-31T09:31:31Z</time>
      </trkpt>
      <trkpt lat="47.29807" lon="6.21896">
        <ele>299.4</ele>
        <time>2024-07-31T09:31:32Z</time>
      </trkpt>
      <trkpt lat="47.29807" lon="6.219">
        <ele>299.4</ele>
        <time>2024-07-31T09:31:33Z</time>
      </trkpt>
      <trkpt lat="47.29806" lon="6.21903">
        <ele>299.6</ele>
        <time>2024-07-31T09:31:34Z</time>
      </trkpt>
      <trkpt lat="47.29805" lon="6.21906">
        <ele>298.4</ele>
        <time>2024-07-31T09:31:35Z</time>
      </trkpt>
      <trkpt lat="47.29805" lon="6.21909">
        <ele>297.8</ele>
        <time>2024-07-31T09:31:36Z</time>
      </trkpt>
      <trkpt lat="47.29804" lon="6.21913">
        <ele>296.8</ele>
        <time>2024-07-31T09:31:37Z</time>
      </trkpt>
      <trkpt lat="47.29803" lon="6.21919">
        <ele>296.2</ele>
        <time>2024-07-31T09:31:38Z</time>
      </trkpt>
      <trkpt lat="47.29802" lon="6.21923">
        <ele>295.2</ele>
        <time>2024-07-31T09:31:39Z</time>
      </trkpt>
      <trkpt lat="47.29801" lon="6.21927">
        <ele>294.4</ele>
        <time>2024-07-31T09:31:40Z</time>
      </trkpt>
      <trkpt lat="47.29801" lon="6.21929">
        <ele>293.6</ele>
        <time>2024-07-31T09:31:41Z</time>
      </trkpt>
      <trkpt lat="47.298" lon="6.21932">
        <ele>292.8</ele>
        <time>2024-07-31T09:31:42Z</time>
      </trkpt>
      <trkpt lat="47.298" lon="6.21935">
        <ele>292.2</ele>
        <time>2024-07-31T09:31:43Z</time>
      </trkpt>
      <trkpt lat="47.298" lon="6.21939">
        <ele>291.4</ele>
        <time>2024-07-31T09:31:44Z</time>
      </trkpt>
      <trkpt lat="47.29801" lon="6.21943">
        <ele>290.6</ele>
        <time>2024-07-31T09:31:45Z</time>
      </trkpt>
      <trkpt lat="47.29801" lon="6.21946">
        <ele>289.6</ele>
        <time>2024-07-31T09:31:46Z</time>
      </trkpt>
      <trkpt lat="47.29801" lon="6.21951">
        <ele>289</ele>
        <time>2024-07-31T09:31:47Z</time>
      </trkpt>
      <trkpt lat="47.29801" lon="6.21954">
        <ele>288.2</ele>
        <time>2024-07-31T09:31:48Z</time>
      </trkpt>
      <trkpt lat="47.29801" lon="6.21956">
        <ele>288</ele>
        <time>2024-07-31T09:31:49Z</time>
      </trkpt>
      <trkpt lat="47.29802" lon="6.21959">
        <ele>287.8</ele>
        <time>2024-07-31T09:31:50Z</time>
      </trkpt>
      <trkpt lat="47.29802" lon="6.21961">
        <ele>287.8</ele>
        <time>2024-07-31T09:31:51Z</time>
      </trkpt>
      <trkpt lat="47.29802" lon="6.21962">
        <ele>288</ele>
        <time>2024-07-31T09:31:52Z</time>
      </trkpt>
      <trkpt lat="47.29802" lon="6.21963">
        <ele>287.8</ele>
        <time>2024-07-31T09:31:53Z</time>
      </trkpt>
      <trkpt lat="47.29801" lon="6.21964">
        <ele>287.8</ele>
        <time>2024-07-31T09:31:54Z</time>
      </trkpt>
      <trkpt lat="47.29801" lon="6.21964">
        <ele>287.8</ele>
        <time>2024-07-31T09:31:55Z</time>
      </trkpt>
      <trkpt lat="47.298" lon="6.21965">
        <ele>288</ele>
        <time>2024-07-31T09:31:56Z</time>
      </trkpt>
      <trkpt lat="47.298" lon="6.21965">
        <ele>288</ele>
        <time>2024-07-31T09:31:57Z</time>
      </trkpt>
      <trkpt lat="47.298" lon="6.21965">
        <ele>287.8</ele>
        <time>2024-07-31T09:31:58Z</time>
      </trkpt>
      <trkpt lat="47.298" lon="6.21965">
        <ele>287.8</ele>
        <time>2024-07-31T09:31:59Z</time>
      </trkpt>
      <trkpt lat="47.298" lon="6.21965">
        <ele>287.8</ele>
        <time>2024-07-31T09:32:00Z</time>
      </trkpt>
      <trkpt lat="47.29799" lon="6.21966">
        <ele>287.6</ele>
        <time>2024-07-31T09:32:01Z</time>
      </trkpt>
      <trkpt lat="47.29799" lon="6.21968">
        <ele>287.4</ele>
        <time>2024-07-31T09:32:02Z</time>
      </trkpt>
      <trkpt lat="47.29799" lon="6.2197">
        <ele>287.2</ele>
        <time>2024-07-31T09:32:03Z</time>
      </trkpt>
      <trkpt lat="47.29799" lon="6.21971">
        <ele>286.8</ele>
        <time>2024-07-31T09:32:04Z</time>
      </trkpt>
      <trkpt lat="47.29798" lon="6.21973">
        <ele>286.2</ele>
        <time>2024-07-31T09:32:05Z</time>
      </trkpt>
      <trkpt lat="47.29798" lon="6.21975">
        <ele>285.6</ele>
        <time>2024-07-31T09:32:06Z</time>
      </trkpt>
      <trkpt lat="47.29798" lon="6.21979">
        <ele>285.2</ele>
        <time>2024-07-31T09:32:07Z</time>
      </trkpt>
      <trkpt lat="47.29798" lon="6.21982">
        <ele>284.6</ele>
        <time>2024-07-31T09:32:08Z</time>
      </trkpt>
      <trkpt lat="47.29798" lon="6.21985">
        <ele>283.8</ele>
        <time>2024-07-31T09:32:09Z</time>
      </trkpt>
      <trkpt lat="47.29797" lon="6.21989">
        <ele>283.2</ele>
        <time>2024-07-31T09:32:10Z</time>
      </trkpt>
      <trkpt lat="47.29797" lon="6.21993">
        <ele>282.2</ele>
        <time>2024-07-31T09:32:11Z</time>
      </trkpt>
      <trkpt lat="47.29796" lon="6.21996">
        <ele>282.2</ele>
        <time>2024-07-31T09:32:12Z</time>
      </trkpt>
      <trkpt lat="47.29796" lon="6.22001">
        <ele>281.6</ele>
        <time>2024-07-31T09:32:13Z</time>
      </trkpt>
      <trkpt lat="47.29796" lon="6.22005">
        <ele>280.6</ele>
        <time>2024-07-31T09:32:14Z</time>
      </trkpt>
      <trkpt lat="47.29797" lon="6.22007">
        <ele>279.6</ele>
        <time>2024-07-31T09:32:15Z</time>
      </trkpt>
      <trkpt lat="47.29797" lon="6.2201">
        <ele>279.4</ele>
        <time>2024-07-31T09:32:16Z</time>
      </trkpt>
      <trkpt lat="47.29798" lon="6.22013">
        <ele>279.4</ele>
        <time>2024-07-31T09:32:17Z</time>
      </trkpt>
      <trkpt lat="47.29798" lon="6.22015">
        <ele>279.4</ele>
        <time>2024-07-31T09:32:18Z</time>
      </trkpt>
      <trkpt lat="47.29798" lon="6.22017">
        <ele>279.2</ele>
        <time>2024-07-31T09:32:19Z</time>
      </trkpt>
      <trkpt lat="47.29799" lon="6.22019">
        <ele>278.8</ele>
        <time>2024-07-31T09:32:20Z</time>
      </trkpt>
      <trkpt lat="47.29799" lon="6.22021">
        <ele>278.6</ele>
        <time>2024-07-31T09:32:21Z</time>
      </trkpt>
      <trkpt lat="47.29799" lon="6.22023">
        <ele>277.8</ele>
        <time>2024-07-31T09:32:22Z</time>
      </trkpt>
      <trkpt lat="47.29798" lon="6.22026">
        <ele>277.6</ele>
        <time>2024-07-31T09:32:23Z</time>
      </trkpt>
      <trkpt lat="47.29798" lon="6.22029">
        <ele>277.2</ele>
        <time>2024-07-31T09:32:24Z</time>
      </trkpt>
      <trkpt lat="47.29798" lon="6.22032">
        <ele>276.4</ele>
        <time>2024-07-31T09:32:25Z</time>
      </trkpt>
      <trkpt lat="47.29798" lon="6.22036">
        <ele>275.6</ele>
        <time>2024-07-31T09:32:26Z</time>
      </trkpt>
      <trkpt lat="47.29797" lon="6.22041">
        <ele>275.2</ele>
        <time>2024-07-31T09:32:27Z</time>
      </trkpt>
      <trkpt lat="47.29798" lon="6.22045">
        <ele>274.8</ele>
        <time>2024-07-31T09:32:28Z</time>
      </trkpt>
      <trkpt lat="47.29799" lon="6.22049">
        <ele>274.6</ele>
        <time>2024-07-31T09:32:29Z</time>
      </trkpt>
      <trkpt lat="47.298" lon="6.22053">
        <ele>274.2</ele>
        <time>2024-07-31T09:32:30Z</time>
      </trkpt>
      <trkpt lat="47.29801" lon="6.22057">
        <ele>273.8</ele>
        <time>2024-07-31T09:32:31Z</time>
      </trkpt>
      <trkpt lat="47.29802" lon="6.22062">
        <ele>273.6</ele>
        <time>2024-07-31T09:32:32Z</time>
      </trkpt>
      <trkpt lat="47.29802" lon="6.22067">
        <ele>273.8</ele>
        <time>2024-07-31T09:32:33Z</time>
      </trkpt>
      <trkpt lat="47.29803" lon="6.2207">
        <ele>273.4</ele>
        <time>2024-07-31T09:32:34Z</time>
      </trkpt>
      <trkpt lat="47.29804" lon="6.22073">
        <ele>273.4</ele>
        <time>2024-07-31T09:32:35Z</time>
      </trkpt>
      <trkpt lat="47.29806" lon="6.22074">
        <ele>273.2</ele>
        <time>2024-07-31T09:32:36Z</time>
      </trkpt>
      <trkpt lat="47.29807" lon="6.22074">
        <ele>273.2</ele>
        <time>2024-07-31T09:32:37Z</time>
      </trkpt>
      <trkpt lat="47.29809" lon="6.22074">
        <ele>273.2</ele>
        <time>2024-07-31T09:32:38Z</time>
      </trkpt>
      <trkpt lat="47.2981" lon="6.22074">
        <ele>273.2</ele>
        <time>2024-07-31T09:32:39Z</time>
      </trkpt>
      <trkpt lat="47.29812" lon="6.22075">
        <ele>273</ele>
        <time>2024-07-31T09:32:40Z</time>
      </trkpt>
      <trkpt lat="47.29813" lon="6.22075">
        <ele>273</ele>
        <time>2024-07-31T09:32:41Z</time>
      </trkpt>
      <trkpt lat="47.29815" lon="6.22074">
        <ele>273</ele>
        <time>2024-07-31T09:32:42Z</time>
      </trkpt>
      <trkpt lat="47.29815" lon="6.22074">
        <ele>273.2</ele>
        <time>2024-07-31T09:32:43Z</time>
      </trkpt>
      <trkpt lat="47.29815" lon="6.22075">
        <ele>273</ele>
        <time>2024-07-31T09:32:44Z</time>
      </trkpt>
      <trkpt lat="47.29815" lon="6.22075">
        <ele>273</ele>
        <time>2024-07-31T09:32:45Z</time>
      </trkpt>
      <trkpt lat="47.29816" lon="6.22076">
        <ele>273</ele>
        <time>2024-07-31T09:32:46Z</time>
      </trkpt>
      <trkpt lat="47.29816" lon="6.22076">
        <ele>272.8</ele>
        <time>2024-07-31T09:32:47Z</time>
      </trkpt>
      <trkpt lat="47.29816" lon="6.22077">
        <ele>272.8</ele>
        <time>2024-07-31T09:32:48Z</time>
      </trkpt>
      <trkpt lat="47.29816" lon="6.22077">
        <ele>272.6</ele>
        <time>2024-07-31T09:32:49Z</time>
      </trkpt>
      <trkpt lat="47.29816" lon="6.22077">
        <ele>272.8</ele>
        <time>2024-07-31T09:32:50Z</time>
      </trkpt>
      <trkpt lat="47.29816" lon="6.22077">
        <ele>273</ele>
        <time>2024-07-31T09:32:51Z</time>
      </trkpt>
      <trkpt lat="47.29816" lon="6.22077">
        <ele>272.8</ele>
        <time>2024-07-31T09:32:52Z</time>
      </trkpt>
      <trkpt lat="47.29816" lon="6.22077">
        <ele>273</ele>
        <time>2024-07-31T09:32:53Z</time>
      </trkpt>
      <trkpt lat="47.29815" lon="6.22077">
        <ele>272.8</ele>
        <time>2024-07-31T09:32:54Z</time>
      </trkpt>
      <trkpt lat="47.29816" lon="6.22077">
        <ele>272.8</ele>
        <time>2024-07-31T09:32:55Z</time>
      </trkpt>
      <trkpt lat="47.29815" lon="6.22077">
        <ele>272.8</ele>
        <time>2024-07-31T09:32:56Z</time>
      </trkpt>
      <trkpt lat="47.29815" lon="6.22077">
        <ele>272.6</ele>
        <time>2024-07-31T09:32:57Z</time>
      </trkpt>
      <trkpt lat="47.29815" lon="6.22078">
        <ele>273</ele>
        <time>2024-07-31T09:32:58Z</time>
      </trkpt>
      <trkpt lat="47.29815" lon="6.22078">
        <ele>272.6</ele>
        <time>2024-07-31T09:32:59Z</time>
      </trkpt>
      <trkpt lat="47.29815" lon="6.22077">
        <ele>272.6</ele>
        <time>2024-07-31T09:33:00Z</time>
      </trkpt>
      <trkpt lat="47.29815" lon="6.22077">
        <ele>272.6</ele>
        <time>2024-07-31T09:33:01Z</time>
      </trkpt>
      <trkpt lat="47.29815" lon="6.22077">
        <ele>272.6</ele>
        <time>2024-07-31T09:33:02Z</time>
      </trkpt>
      <trkpt lat="47.29815" lon="6.22077">
        <ele>272.6</ele>
        <time>2024-07-31T09:33:03Z</time>
      </trkpt>
      <trkpt lat="47.29815" lon="6.22077">
        <ele>272.6</ele>
        <time>2024-07-31T09:33:04Z</time>
      </trkpt>
      <trkpt lat="47.29815" lon="6.22077">
        <ele>272.4</ele>
        <time>2024-07-31T09:33:05Z</time>
      </trkpt>
      <trkpt lat="47.29815" lon="6.22077">
        <ele>272.4</ele>
        <time>2024-07-31T09:33:06Z</time>
      </trkpt>
      <trkpt lat="47.29815" lon="6.22077">
        <ele>272.6</ele>
        <time>2024-07-31T09:33:07Z</time>
      </trkpt>
      <trkpt lat="47.29815" lon="6.22077">
        <ele>272.6</ele>
        <time>2024-07-31T09:33:08Z</time>
      </trkpt>
      <trkpt lat="47.29815" lon="6.22076">
        <ele>272.6</ele>
        <time>2024-07-31T09:33:09Z</time>
      </trkpt>
      <trkpt lat="47.29814" lon="6.22076">
        <ele>272.8</ele>
        <time>2024-07-31T09:33:10Z</time>
      </trkpt>
      <trkpt lat="47.29814" lon="6.22076">
        <ele>272.6</ele>
        <time>2024-07-31T09:33:11Z</time>
      </trkpt>
      <trkpt lat="47.29814" lon="6.22076">
        <ele>272.8</ele>
        <time>2024-07-31T09:33:12Z</time>
      </trkpt>
      <trkpt lat="47.29814" lon="6.22076">
        <ele>272.6</ele>
        <time>2024-07-31T09:33:13Z</time>
      </trkpt>
      <trkpt lat="47.29814" lon="6.22076">
        <ele>272.6</ele>
        <time>2024-07-31T09:33:14Z</time>
      </trkpt>
      <trkpt lat="47.29814" lon="6.22076">
        <ele>272.6</ele>
        <time>2024-07-31T09:33:15Z</time>
      </trkpt>
      <trkpt lat="47.29814" lon="6.22076">
        <ele>272.4</ele>
        <time>2024-07-31T09:33:16Z</time>
      </trkpt>
      <trkpt lat="47.29813" lon="6.22075">
        <ele>272.4</ele>
        <time>2024-07-31T09:33:17Z</time>
      </trkpt>
      <trkpt lat="47.29813" lon="6.22075">
        <ele>272.4</ele>
        <time>2024-07-31T09:33:18Z</time>
      </trkpt>
      <trkpt lat="47.29813" lon="6.22075">
        <ele>272.4</ele>
        <time>2024-07-31T09:33:19Z</time>
      </trkpt>
      <trkpt lat="47.29813" lon="6.22075">
        <ele>272.4</ele>
        <time>2024-07-31T09:33:20Z</time>
      </trkpt>
      <trkpt lat="47.29813" lon="6.22075">
        <ele>272.2</ele>
        <time>2024-07-31T09:33:21Z</time>
      </trkpt>
      <trkpt lat="47.29813" lon="6.22075">
        <ele>272.2</ele>
        <time>2024-07-31T09:33:22Z</time>
      </trkpt>
      <trkpt lat="47.29813" lon="6.22075">
        <ele>272.2</ele>
        <time>2024-07-31T09:33:23Z</time>
      </trkpt>
      <trkpt lat="47.29813" lon="6.22075">
        <ele>272.2</ele>
        <time>2024-07-31T09:33:24Z</time>
      </trkpt>
      <trkpt lat="47.29813" lon="6.22075">
        <ele>272.2</ele>
        <time>2024-07-31T09:33:25Z</time>
      </trkpt>
      <trkpt lat="47.29813" lon="6.22075">
        <ele>272</ele>
        <time>2024-07-31T09:33:26Z</time>
      </trkpt>
      <trkpt lat="47.29813" lon="6.22075">
        <ele>272</ele>
        <time>2024-07-31T09:33:27Z</time>
      </trkpt>
      <trkpt lat="47.29813" lon="6.22075">
        <ele>272</ele>
        <time>2024-07-31T09:33:28Z</time>
      </trkpt>
      <trkpt lat="47.29813" lon="6.22075">
        <ele>272</ele>
        <time>2024-07-31T09:33:29Z</time>
      </trkpt>
      <trkpt lat="47.29812" lon="6.22075">
        <ele>272</ele>
        <time>2024-07-31T09:33:30Z</time>
      </trkpt>
      <trkpt lat="47.29812" lon="6.22075">
        <ele>271.8</ele>
        <time>2024-07-31T09:33:31Z</time>
      </trkpt>
      <trkpt lat="47.29811" lon="6.22076">
        <ele>271.8</ele>
        <time>2024-07-31T09:33:32Z</time>
      </trkpt>
      <trkpt lat="47.2981" lon="6.22076">
        <ele>271.6</ele>
        <time>2024-07-31T09:33:33Z</time>
      </trkpt>
      <trkpt lat="47.29809" lon="6.22076">
        <ele>271.6</ele>
        <time>2024-07-31T09:33:34Z</time>
      </trkpt>
      <trkpt lat="47.29809" lon="6.22077">
        <ele>271.4</ele>
        <time>2024-07-31T09:33:35Z</time>
      </trkpt>
      <trkpt lat="47.29809" lon="6.22077">
        <ele>271.2</ele>
        <time>2024-07-31T09:33:36Z</time>
      </trkpt>
      <trkpt lat="47.29808" lon="6.22077">
        <ele>271.4</ele>
        <time>2024-07-31T09:33:37Z</time>
      </trkpt>
      <trkpt lat="47.29808" lon="6.22078">
        <ele>271.4</ele>
        <time>2024-07-31T09:33:38Z</time>
      </trkpt>
      <trkpt lat="47.29807" lon="6.22079">
        <ele>271.2</ele>
        <time>2024-07-31T09:33:39Z</time>
      </trkpt>
      <trkpt lat="47.29806" lon="6.2208">
        <ele>271.4</ele>
        <time>2024-07-31T09:33:40Z</time>
      </trkpt>
      <trkpt lat="47.29805" lon="6.22081">
        <ele>271.4</ele>
        <time>2024-07-31T09:33:41Z</time>
      </trkpt>
      <trkpt lat="47.29804" lon="6.22083">
        <ele>271.4</ele>
        <time>2024-07-31T09:33:42Z</time>
      </trkpt>
      <trkpt lat="47.29803" lon="6.22084">
        <ele>271.6</ele>
        <time>2024-07-31T09:33:43Z</time>
      </trkpt>
      <trkpt lat="47.29801" lon="6.22086">
        <ele>271.4</ele>
        <time>2024-07-31T09:33:44Z</time>
      </trkpt>
      <trkpt lat="47.298" lon="6.22089">
        <ele>271.4</ele>
        <time>2024-07-31T09:33:45Z</time>
      </trkpt>
      <trkpt lat="47.29798" lon="6.22092">
        <ele>271.4</ele>
        <time>2024-07-31T09:33:46Z</time>
      </trkpt>
      <trkpt lat="47.29797" lon="6.22096">
        <ele>271.4</ele>
        <time>2024-07-31T09:33:47Z</time>
      </trkpt>
      <trkpt lat="47.29796" lon="6.221">
        <ele>271.6</ele>
        <time>2024-07-31T09:33:48Z</time>
      </trkpt>
      <trkpt lat="47.29794" lon="6.22104">
        <ele>271.8</ele>
        <time>2024-07-31T09:33:49Z</time>
      </trkpt>
      <trkpt lat="47.29793" lon="6.22108">
        <ele>271.6</ele>
        <time>2024-07-31T09:33:50Z</time>
      </trkpt>
      <trkpt lat="47.29791" lon="6.22113">
        <ele>271.6</ele>
        <time>2024-07-31T09:33:51Z</time>
      </trkpt>
      <trkpt lat="47.2979" lon="6.22118">
        <ele>271.6</ele>
        <time>2024-07-31T09:33:52Z</time>
      </trkpt>
      <trkpt lat="47.29788" lon="6.22123">
        <ele>271.4</ele>
        <time>2024-07-31T09:33:53Z</time>
      </trkpt>
      <trkpt lat="47.29787" lon="6.22129">
        <ele>271.4</ele>
        <time>2024-07-31T09:33:54Z</time>
      </trkpt>
      <trkpt lat="47.29785" lon="6.22135">
        <ele>271.4</ele>
        <time>2024-07-31T09:33:55Z</time>
      </trkpt>
      <trkpt lat="47.29784" lon="6.22141">
        <ele>271.4</ele>
        <time>2024-07-31T09:33:56Z</time>
      </trkpt>
      <trkpt lat="47.29782" lon="6.22148">
        <ele>271.6</ele>
        <time>2024-07-31T09:33:57Z</time>
      </trkpt>
      <trkpt lat="47.29781" lon="6.22153">
        <ele>271.6</ele>
        <time>2024-07-31T09:33:58Z</time>
      </trkpt>
      <trkpt lat="47.29779" lon="6.22159">
        <ele>271.4</ele>
        <time>2024-07-31T09:33:59Z</time>
      </trkpt>
      <trkpt lat="47.29778" lon="6.22165">
        <ele>271.6</ele>
        <time>2024-07-31T09:34:00Z</time>
      </trkpt>
      <trkpt lat="47.29777" lon="6.2217">
        <ele>271.6</ele>
        <time>2024-07-31T09:34:01Z</time>
      </trkpt>
      <trkpt lat="47.29775" lon="6.22176">
        <ele>271.8</ele>
        <time>2024-07-31T09:34:02Z</time>
      </trkpt>
      <trkpt lat="47.29774" lon="6.22181">
        <ele>271.6</ele>
        <time>2024-07-31T09:34:03Z</time>
      </trkpt>
      <trkpt lat="47.29773" lon="6.22187">
        <ele>271.8</ele>
        <time>2024-07-31T09:34:04Z</time>
      </trkpt>
      <trkpt lat="47.29772" lon="6.22192">
        <ele>271.6</ele>
        <time>2024-07-31T09:34:05Z</time>
      </trkpt>
      <trkpt lat="47.29771" lon="6.22198">
        <ele>271.6</ele>
        <time>2024-07-31T09:34:06Z</time>
      </trkpt>
      <trkpt lat="47.2977" lon="6.22204">
        <ele>271.6</ele>
        <time>2024-07-31T09:34:07Z</time>
      </trkpt>
      <trkpt lat="47.29769" lon="6.22211">
        <ele>271.4</ele>
        <time>2024-07-31T09:34:08Z</time>
      </trkpt>
      <trkpt lat="47.29768" lon="6.22217">
        <ele>271.4</ele>
        <time>2024-07-31T09:34:09Z</time>
      </trkpt>
      <trkpt lat="47.29768" lon="6.22224">
        <ele>271.4</ele>
        <time>2024-07-31T09:34:10Z</time>
      </trkpt>
      <trkpt lat="47.29767" lon="6.2223">
        <ele>271.2</ele>
        <time>2024-07-31T09:34:11Z</time>
      </trkpt>
      <trkpt lat="47.29766" lon="6.22237">
        <ele>271.4</ele>
        <time>2024-07-31T09:34:12Z</time>
      </trkpt>
      <trkpt lat="47.29765" lon="6.22244">
        <ele>271.2</ele>
        <time>2024-07-31T09:34:13Z</time>
      </trkpt>
      <trkpt lat="47.29765" lon="6.2225">
        <ele>271.2</ele>
        <time>2024-07-31T09:34:14Z</time>
      </trkpt>
      <trkpt lat="47.29764" lon="6.22257">
        <ele>271.2</ele>
        <time>2024-07-31T09:34:15Z</time>
      </trkpt>
      <trkpt lat="47.29763" lon="6.22264">
        <ele>271.4</ele>
        <time>2024-07-31T09:34:16Z</time>
      </trkpt>
      <trkpt lat="47.29763" lon="6.22271">
        <ele>271.2</ele>
        <time>2024-07-31T09:34:17Z</time>
      </trkpt>
      <trkpt lat="47.29762" lon="6.22278">
        <ele>271.2</ele>
        <time>2024-07-31T09:34:18Z</time>
      </trkpt>
      <trkpt lat="47.29761" lon="6.22284">
        <ele>271.2</ele>
        <time>2024-07-31T09:34:19Z</time>
      </trkpt>
      <trkpt lat="47.29761" lon="6.22291">
        <ele>271.2</ele>
        <time>2024-07-31T09:34:20Z</time>
      </trkpt>
      <trkpt lat="47.29759" lon="6.22298">
        <ele>271.4</ele>
        <time>2024-07-31T09:34:21Z</time>
      </trkpt>
      <trkpt lat="47.29758" lon="6.22305">
        <ele>271.6</ele>
        <time>2024-07-31T09:34:22Z</time>
      </trkpt>
      <trkpt lat="47.29756" lon="6.22311">
        <ele>271.6</ele>
        <time>2024-07-31T09:34:23Z</time>
      </trkpt>
      <trkpt lat="47.29755" lon="6.22318">
        <ele>271.6</ele>
        <time>2024-07-31T09:34:24Z</time>
      </trkpt>
      <trkpt lat="47.29753" lon="6.22325">
        <ele>271.8</ele>
        <time>2024-07-31T09:34:25Z</time>
      </trkpt>
      <trkpt lat="47.29752" lon="6.22331">
        <ele>271.8</ele>
        <time>2024-07-31T09:34:26Z</time>
      </trkpt>
      <trkpt lat="47.2975" lon="6.22338">
        <ele>271.8</ele>
        <time>2024-07-31T09:34:27Z</time>
      </trkpt>
      <trkpt lat="47.29748" lon="6.22345">
        <ele>271.8</ele>
        <time>2024-07-31T09:34:28Z</time>
      </trkpt>
      <trkpt lat="47.29746" lon="6.22352">
        <ele>271.8</ele>
        <time>2024-07-31T09:34:29Z</time>
      </trkpt>
      <trkpt lat="47.29744" lon="6.22358">
        <ele>272</ele>
        <time>2024-07-31T09:34:30Z</time>
      </trkpt>
      <trkpt lat="47.29742" lon="6.22365">
        <ele>272</ele>
        <time>2024-07-31T09:34:31Z</time>
      </trkpt>
      <trkpt lat="47.2974" lon="6.22372">
        <ele>272</ele>
        <time>2024-07-31T09:34:32Z</time>
      </trkpt>
      <trkpt lat="47.29738" lon="6.22379">
        <ele>272</ele>
        <time>2024-07-31T09:34:33Z</time>
      </trkpt>
      <trkpt lat="47.29736" lon="6.22386">
        <ele>272</ele>
        <time>2024-07-31T09:34:34Z</time>
      </trkpt>
      <trkpt lat="47.29734" lon="6.22393">
        <ele>272</ele>
        <time>2024-07-31T09:34:35Z</time>
      </trkpt>
      <trkpt lat="47.29733" lon="6.224">
        <ele>272</ele>
        <time>2024-07-31T09:34:36Z</time>
      </trkpt>
      <trkpt lat="47.29731" lon="6.22407">
        <ele>272.2</ele>
        <time>2024-07-31T09:34:37Z</time>
      </trkpt>
      <trkpt lat="47.29729" lon="6.22414">
        <ele>272.2</ele>
        <time>2024-07-31T09:34:38Z</time>
      </trkpt>
      <trkpt lat="47.29727" lon="6.22421">
        <ele>272</ele>
        <time>2024-07-31T09:34:39Z</time>
      </trkpt>
      <trkpt lat="47.29725" lon="6.22428">
        <ele>272.2</ele>
        <time>2024-07-31T09:34:40Z</time>
      </trkpt>
      <trkpt lat="47.29723" lon="6.22435">
        <ele>272.2</ele>
        <time>2024-07-31T09:34:41Z</time>
      </trkpt>
      <trkpt lat="47.29721" lon="6.22442">
        <ele>272.4</ele>
        <time>2024-07-31T09:34:42Z</time>
      </trkpt>
      <trkpt lat="47.29719" lon="6.22448">
        <ele>272</ele>
        <time>2024-07-31T09:34:43Z</time>
      </trkpt>
      <trkpt lat="47.29717" lon="6.22454">
        <ele>272</ele>
        <time>2024-07-31T09:34:44Z</time>
      </trkpt>
      <trkpt lat="47.29714" lon="6.2246">
        <ele>272</ele>
        <time>2024-07-31T09:34:45Z</time>
      </trkpt>
      <trkpt lat="47.29712" lon="6.22466">
        <ele>272</ele>
        <time>2024-07-31T09:34:46Z</time>
      </trkpt>
      <trkpt lat="47.29709" lon="6.22472">
        <ele>271.8</ele>
        <time>2024-07-31T09:34:47Z</time>
      </trkpt>
      <trkpt lat="47.29707" lon="6.22478">
        <ele>272.2</ele>
        <time>2024-07-31T09:34:48Z</time>
      </trkpt>
      <trkpt lat="47.29705" lon="6.22483">
        <ele>272</ele>
        <time>2024-07-31T09:34:49Z</time>
      </trkpt>
      <trkpt lat="47.29703" lon="6.22489">
        <ele>272</ele>
        <time>2024-07-31T09:34:50Z</time>
      </trkpt>
      <trkpt lat="47.297" lon="6.22494">
        <ele>272</ele>
        <time>2024-07-31T09:34:51Z</time>
      </trkpt>
      <trkpt lat="47.29697" lon="6.225">
        <ele>272</ele>
        <time>2024-07-31T09:34:52Z</time>
      </trkpt>
      <trkpt lat="47.29695" lon="6.22506">
        <ele>271.8</ele>
        <time>2024-07-31T09:34:53Z</time>
      </trkpt>
      <trkpt lat="47.29692" lon="6.22511">
        <ele>271.8</ele>
        <time>2024-07-31T09:34:54Z</time>
      </trkpt>
      <trkpt lat="47.29689" lon="6.22517">
        <ele>272.2</ele>
        <time>2024-07-31T09:34:55Z</time>
      </trkpt>
      <trkpt lat="47.29686" lon="6.22522">
        <ele>272</ele>
        <time>2024-07-31T09:34:56Z</time>
      </trkpt>
      <trkpt lat="47.29683" lon="6.22528">
        <ele>271.8</ele>
        <time>2024-07-31T09:34:57Z</time>
      </trkpt>
      <trkpt lat="47.29681" lon="6.22534">
        <ele>271.8</ele>
        <time>2024-07-31T09:34:58Z</time>
      </trkpt>
      <trkpt lat="47.29678" lon="6.2254">
        <ele>271.8</ele>
        <time>2024-07-31T09:34:59Z</time>
      </trkpt>
      <trkpt lat="47.29676" lon="6.22546">
        <ele>271.8</ele>
        <time>2024-07-31T09:35:00Z</time>
      </trkpt>
      <trkpt lat="47.29674" lon="6.22552">
        <ele>272</ele>
        <time>2024-07-31T09:35:01Z</time>
      </trkpt>
      <trkpt lat="47.29671" lon="6.22558">
        <ele>271.4</ele>
        <time>2024-07-31T09:35:02Z</time>
      </trkpt>
      <trkpt lat="47.29669" lon="6.22564">
        <ele>271.6</ele>
        <time>2024-07-31T09:35:03Z</time>
      </trkpt>
      <trkpt lat="47.29667" lon="6.22569">
        <ele>272</ele>
        <time>2024-07-31T09:35:04Z</time>
      </trkpt>
      <trkpt lat="47.29665" lon="6.22575">
        <ele>272</ele>
        <time>2024-07-31T09:35:05Z</time>
      </trkpt>
      <trkpt lat="47.29663" lon="6.22581">
        <ele>272</ele>
        <time>2024-07-31T09:35:06Z</time>
      </trkpt>
      <trkpt lat="47.2966" lon="6.22587">
        <ele>272</ele>
        <time>2024-07-31T09:35:07Z</time>
      </trkpt>
      <trkpt lat="47.29658" lon="6.22593">
        <ele>271.6</ele>
        <time>2024-07-31T09:35:08Z</time>
      </trkpt>
      <trkpt lat="47.29656" lon="6.22599">
        <ele>271.8</ele>
        <time>2024-07-31T09:35:09Z</time>
      </trkpt>
      <trkpt lat="47.29654" lon="6.22605">
        <ele>272</ele>
        <time>2024-07-31T09:35:10Z</time>
      </trkpt>
      <trkpt lat="47.29652" lon="6.2261">
        <ele>272.2</ele>
        <time>2024-07-31T09:35:11Z</time>
      </trkpt>
      <trkpt lat="47.29649" lon="6.22616">
        <ele>272.2</ele>
        <time>2024-07-31T09:35:12Z</time>
      </trkpt>
      <trkpt lat="47.29647" lon="6.22622">
        <ele>272.2</ele>
        <time>2024-07-31T09:35:13Z</time>
      </trkpt>
      <trkpt lat="47.29645" lon="6.22628">
        <ele>272.2</ele>
        <time>2024-07-31T09:35:14Z</time>
      </trkpt>
      <trkpt lat="47.29643" lon="6.22635">
        <ele>272.2</ele>
        <time>2024-07-31T09:35:15Z</time>
      </trkpt>
      <trkpt lat="47.29641" lon="6.22641">
        <ele>272</ele>
        <time>2024-07-31T09:35:16Z</time>
      </trkpt>
      <trkpt lat="47.29638" lon="6.22647">
        <ele>272.2</ele>
        <time>2024-07-31T09:35:17Z</time>
      </trkpt>
      <trkpt lat="47.29636" lon="6.22652">
        <ele>272.4</ele>
        <time>2024-07-31T09:35:18Z</time>
      </trkpt>
      <trkpt lat="47.29634" lon="6.22658">
        <ele>272.6</ele>
        <time>2024-07-31T09:35:19Z</time>
      </trkpt>
      <trkpt lat="47.29632" lon="6.22664">
        <ele>272.8</ele>
        <time>2024-07-31T09:35:20Z</time>
      </trkpt>
      <trkpt lat="47.2963" lon="6.2267">
        <ele>272.8</ele>
        <time>2024-07-31T09:35:21Z</time>
      </trkpt>
      <trkpt lat="47.29628" lon="6.22676">
        <ele>272.6</ele>
        <time>2024-07-31T09:35:22Z</time>
      </trkpt>
      <trkpt lat="47.29625" lon="6.22682">
        <ele>272.6</ele>
        <time>2024-07-31T09:35:23Z</time>
      </trkpt>
      <trkpt lat="47.29622" lon="6.22687">
        <ele>272.8</ele>
        <time>2024-07-31T09:35:24Z</time>
      </trkpt>
      <trkpt lat="47.2962" lon="6.22692">
        <ele>272.8</ele>
        <time>2024-07-31T09:35:25Z</time>
      </trkpt>
      <trkpt lat="47.29617" lon="6.22697">
        <ele>273</ele>
        <time>2024-07-31T09:35:26Z</time>
      </trkpt>
      <trkpt lat="47.29615" lon="6.22701">
        <ele>273.6</ele>
        <time>2024-07-31T09:35:27Z</time>
      </trkpt>
      <trkpt lat="47.29613" lon="6.22704">
        <ele>273.8</ele>
        <time>2024-07-31T09:35:28Z</time>
      </trkpt>
      <trkpt lat="47.29611" lon="6.22708">
        <ele>274</ele>
        <time>2024-07-31T09:35:29Z</time>
      </trkpt>
      <trkpt lat="47.29609" lon="6.2271">
        <ele>274.2</ele>
        <time>2024-07-31T09:35:30Z</time>
      </trkpt>
      <trkpt lat="47.29607" lon="6.22712">
        <ele>274.4</ele>
        <time>2024-07-31T09:35:31Z</time>
      </trkpt>
      <trkpt lat="47.29605" lon="6.22715">
        <ele>274.4</ele>
        <time>2024-07-31T09:35:32Z</time>
      </trkpt>
      <trkpt lat="47.29604" lon="6.22718">
        <ele>274.8</ele>
        <time>2024-07-31T09:35:33Z</time>
      </trkpt>
      <trkpt lat="47.29602" lon="6.22721">
        <ele>275</ele>
        <time>2024-07-31T09:35:34Z</time>
      </trkpt>
      <trkpt lat="47.296" lon="6.22724">
        <ele>275</ele>
        <time>2024-07-31T09:35:35Z</time>
      </trkpt>
      <trkpt lat="47.29598" lon="6.22728">
        <ele>275</ele>
        <time>2024-07-31T09:35:36Z</time>
      </trkpt>
      <trkpt lat="47.29596" lon="6.2273">
        <ele>275.6</ele>
        <time>2024-07-31T09:35:37Z</time>
      </trkpt>
      <trkpt lat="47.29594" lon="6.22733">
        <ele>275.6</ele>
        <time>2024-07-31T09:35:38Z</time>
      </trkpt>
      <trkpt lat="47.29592" lon="6.22736">
        <ele>275.6</ele>
        <time>2024-07-31T09:35:39Z</time>
      </trkpt>
      <trkpt lat="47.2959" lon="6.22739">
        <ele>276</ele>
        <time>2024-07-31T09:35:40Z</time>
      </trkpt>
      <trkpt lat="47.29588" lon="6.22742">
        <ele>276.4</ele>
        <time>2024-07-31T09:35:41Z</time>
      </trkpt>
      <trkpt lat="47.29586" lon="6.22745">
        <ele>276.8</ele>
        <time>2024-07-31T09:35:42Z</time>
      </trkpt>
      <trkpt lat="47.29584" lon="6.22748">
        <ele>277.2</ele>
        <time>2024-07-31T09:35:43Z</time>
      </trkpt>
      <trkpt lat="47.29582" lon="6.22752">
        <ele>277</ele>
        <time>2024-07-31T09:35:44Z</time>
      </trkpt>
      <trkpt lat="47.2958" lon="6.22754">
        <ele>277.2</ele>
        <time>2024-07-31T09:35:45Z</time>
      </trkpt>
      <trkpt lat="47.29578" lon="6.22758">
        <ele>277.2</ele>
        <time>2024-07-31T09:35:46Z</time>
      </trkpt>
      <trkpt lat="47.29575" lon="6.22762">
        <ele>277.6</ele>
        <time>2024-07-31T09:35:47Z</time>
      </trkpt>
      <trkpt lat="47.29573" lon="6.22766">
        <ele>278</ele>
        <time>2024-07-31T09:35:48Z</time>
      </trkpt>
      <trkpt lat="47.29571" lon="6.2277">
        <ele>278</ele>
        <time>2024-07-31T09:35:49Z</time>
      </trkpt>
      <trkpt lat="47.29569" lon="6.22772">
        <ele>278</ele>
        <time>2024-07-31T09:35:50Z</time>
      </trkpt>
      <trkpt lat="47.29567" lon="6.22775">
        <ele>278.2</ele>
        <time>2024-07-31T09:35:51Z</time>
      </trkpt>
      <trkpt lat="47.29565" lon="6.22778">
        <ele>278.4</ele>
        <time>2024-07-31T09:35:52Z</time>
      </trkpt>
      <trkpt lat="47.29564" lon="6.22782">
        <ele>278.4</ele>
        <time>2024-07-31T09:35:53Z</time>
      </trkpt>
      <trkpt lat="47.29562" lon="6.22786">
        <ele>278.8</ele>
        <time>2024-07-31T09:35:54Z</time>
      </trkpt>
      <trkpt lat="47.29561" lon="6.22789">
        <ele>278.6</ele>
        <time>2024-07-31T09:35:55Z</time>
      </trkpt>
      <trkpt lat="47.29559" lon="6.22793">
        <ele>278.8</ele>
        <time>2024-07-31T09:35:56Z</time>
      </trkpt>
      <trkpt lat="47.29558" lon="6.22798">
        <ele>278.8</ele>
        <time>2024-07-31T09:35:57Z</time>
      </trkpt>
      <trkpt lat="47.29557" lon="6.22803">
        <ele>278.6</ele>
        <time>2024-07-31T09:35:58Z</time>
      </trkpt>
      <trkpt lat="47.29555" lon="6.22807">
        <ele>278.6</ele>
        <time>2024-07-31T09:35:59Z</time>
      </trkpt>
      <trkpt lat="47.29553" lon="6.22812">
        <ele>278.6</ele>
        <time>2024-07-31T09:36:00Z</time>
      </trkpt>
      <trkpt lat="47.2955" lon="6.22816">
        <ele>278.8</ele>
        <time>2024-07-31T09:36:01Z</time>
      </trkpt>
      <trkpt lat="47.29548" lon="6.22819">
        <ele>279</ele>
        <time>2024-07-31T09:36:02Z</time>
      </trkpt>
      <trkpt lat="47.29545" lon="6.22823">
        <ele>279</ele>
        <time>2024-07-31T09:36:03Z</time>
      </trkpt>
      <trkpt lat="47.29543" lon="6.22827">
        <ele>278.6</ele>
        <time>2024-07-31T09:36:04Z</time>
      </trkpt>
      <trkpt lat="47.29541" lon="6.2283">
        <ele>278.6</ele>
        <time>2024-07-31T09:36:05Z</time>
      </trkpt>
      <trkpt lat="47.29539" lon="6.22833">
        <ele>278.6</ele>
        <time>2024-07-31T09:36:06Z</time>
      </trkpt>
      <trkpt lat="47.29537" lon="6.22836">
        <ele>278.2</ele>
        <time>2024-07-31T09:36:07Z</time>
      </trkpt>
      <trkpt lat="47.29535" lon="6.22836">
        <ele>278.4</ele>
        <time>2024-07-31T09:36:08Z</time>
      </trkpt>
      <trkpt lat="47.29533" lon="6.22835">
        <ele>278.4</ele>
        <time>2024-07-31T09:36:09Z</time>
      </trkpt>
      <trkpt lat="47.29532" lon="6.22834">
        <ele>278.2</ele>
        <time>2024-07-31T09:36:10Z</time>
      </trkpt>
      <trkpt lat="47.29531" lon="6.22833">
        <ele>278.4</ele>
        <time>2024-07-31T09:36:11Z</time>
      </trkpt>
      <trkpt lat="47.2953" lon="6.22835">
        <ele>278.2</ele>
        <time>2024-07-31T09:36:12Z</time>
      </trkpt>
      <trkpt lat="47.29531" lon="6.22836">
        <ele>278.2</ele>
        <time>2024-07-31T09:36:13Z</time>
      </trkpt>
      <trkpt lat="47.29531" lon="6.22837">
        <ele>278.4</ele>
        <time>2024-07-31T09:36:14Z</time>
      </trkpt>
      <trkpt lat="47.29532" lon="6.22838">
        <ele>278.4</ele>
        <time>2024-07-31T09:36:15Z</time>
      </trkpt>
      <trkpt lat="47.29533" lon="6.22839">
        <ele>278.2</ele>
        <time>2024-07-31T09:36:16Z</time>
      </trkpt>
      <trkpt lat="47.29534" lon="6.2284">
        <ele>278.2</ele>
        <time>2024-07-31T09:36:17Z</time>
      </trkpt>
      <trkpt lat="47.29535" lon="6.22841">
        <ele>278.2</ele>
        <time>2024-07-31T09:36:18Z</time>
      </trkpt>
      <trkpt lat="47.29536" lon="6.22842">
        <ele>278.2</ele>
        <time>2024-07-31T09:36:19Z</time>
      </trkpt>
      <trkpt lat="47.29537" lon="6.22843">
        <ele>278.2</ele>
        <time>2024-07-31T09:36:20Z</time>
      </trkpt>
      <trkpt lat="47.29538" lon="6.22843">
        <ele>278.2</ele>
        <time>2024-07-31T09:36:21Z</time>
      </trkpt>
      <trkpt lat="47.29538" lon="6.22844">
        <ele>278.2</ele>
        <time>2024-07-31T09:36:22Z</time>
      </trkpt>
      <trkpt lat="47.29538" lon="6.22844">
        <ele>278.2</ele>
        <time>2024-07-31T09:36:23Z</time>
      </trkpt>
      <trkpt lat="47.29539" lon="6.22845">
        <ele>278.4</ele>
        <time>2024-07-31T09:36:24Z</time>
      </trkpt>
      <trkpt lat="47.29539" lon="6.22845">
        <ele>278.2</ele>
        <time>2024-07-31T09:36:25Z</time>
      </trkpt>
      <trkpt lat="47.29539" lon="6.22845">
        <ele>278.2</ele>
        <time>2024-07-31T09:36:26Z</time>
      </trkpt>
      <trkpt lat="47.29539" lon="6.22845">
        <ele>278.2</ele>
        <time>2024-07-31T09:36:27Z</time>
      </trkpt>
      <trkpt lat="47.29539" lon="6.22845">
        <ele>278.2</ele>
        <time>2024-07-31T09:36:28Z</time>
      </trkpt>
      <trkpt lat="47.29539" lon="6.22845">
        <ele>278.2</ele>
        <time>2024-07-31T09:36:29Z</time>
      </trkpt>
      <trkpt lat="47.29539" lon="6.22845">
        <ele>278.2</ele>
        <time>2024-07-31T09:36:30Z</time>
      </trkpt>
      <trkpt lat="47.29539" lon="6.22845">
        <ele>278.2</ele>
        <time>2024-07-31T09:36:31Z</time>
      </trkpt>
      <trkpt lat="47.29539" lon="6.22845">
        <ele>278.2</ele>
        <time>2024-07-31T09:36:32Z</time>
      </trkpt>
      <trkpt lat="47.29539" lon="6.22845">
        <ele>278.2</ele>
        <time>2024-07-31T09:36:33Z</time>
      </trkpt>
      <trkpt lat="47.29539" lon="6.22845">
        <ele>278</ele>
        <time>2024-07-31T09:36:34Z</time>
      </trkpt>
      <trkpt lat="47.29539" lon="6.22845">
        <ele>278.2</ele>
        <time>2024-07-31T09:36:35Z</time>
      </trkpt>
      <trkpt lat="47.29538" lon="6.22845">
        <ele>278</ele>
        <time>2024-07-31T09:36:36Z</time>
      </trkpt>
      <trkpt lat="47.29538" lon="6.22846">
        <ele>278</ele>
        <time>2024-07-31T09:36:37Z</time>
      </trkpt>
      <trkpt lat="47.29538" lon="6.22847">
        <ele>278</ele>
        <time>2024-07-31T09:36:38Z</time>
      </trkpt>
      <trkpt lat="47.29538" lon="6.22847">
        <ele>278</ele>
        <time>2024-07-31T09:36:39Z</time>
      </trkpt>
      <trkpt lat="47.29537" lon="6.22848">
        <ele>278</ele>
        <time>2024-07-31T09:36:40Z</time>
      </trkpt>
      <trkpt lat="47.29537" lon="6.2285">
        <ele>278</ele>
        <time>2024-07-31T09:36:41Z</time>
      </trkpt>
      <trkpt lat="47.29537" lon="6.22852">
        <ele>278</ele>
        <time>2024-07-31T09:36:42Z</time>
      </trkpt>
      <trkpt lat="47.29537" lon="6.22855">
        <ele>278</ele>
        <time>2024-07-31T09:36:43Z</time>
      </trkpt>
      <trkpt lat="47.29536" lon="6.22858">
        <ele>278</ele>
        <time>2024-07-31T09:36:44Z</time>
      </trkpt>
      <trkpt lat="47.29535" lon="6.22862">
        <ele>278.2</ele>
        <time>2024-07-31T09:36:45Z</time>
      </trkpt>
      <trkpt lat="47.29534" lon="6.22866">
        <ele>278.2</ele>
        <time>2024-07-31T09:36:46Z</time>
      </trkpt>
      <trkpt lat="47.29532" lon="6.22869">
        <ele>278</ele>
        <time>2024-07-31T09:36:47Z</time>
      </trkpt>
      <trkpt lat="47.2953" lon="6.22873">
        <ele>278</ele>
        <time>2024-07-31T09:36:48Z</time>
      </trkpt>
      <trkpt lat="47.29528" lon="6.22877">
        <ele>278.2</ele>
        <time>2024-07-31T09:36:49Z</time>
      </trkpt>
      <trkpt lat="47.29525" lon="6.22881">
        <ele>278.2</ele>
        <time>2024-07-31T09:36:50Z</time>
      </trkpt>
      <trkpt lat="47.29522" lon="6.22884">
        <ele>278</ele>
        <time>2024-07-31T09:36:51Z</time>
      </trkpt>
      <trkpt lat="47.29519" lon="6.22888">
        <ele>278</ele>
        <time>2024-07-31T09:36:52Z</time>
      </trkpt>
      <trkpt lat="47.29517" lon="6.22893">
        <ele>278.2</ele>
        <time>2024-07-31T09:36:53Z</time>
      </trkpt>
      <trkpt lat="47.29515" lon="6.22898">
        <ele>278</ele>
        <time>2024-07-31T09:36:54Z</time>
      </trkpt>
      <trkpt lat="47.29512" lon="6.22903">
        <ele>278</ele>
        <time>2024-07-31T09:36:55Z</time>
      </trkpt>
      <trkpt lat="47.29509" lon="6.22907">
        <ele>278</ele>
        <time>2024-07-31T09:36:56Z</time>
      </trkpt>
      <trkpt lat="47.29507" lon="6.22912">
        <ele>278</ele>
        <time>2024-07-31T09:36:57Z</time>
      </trkpt>
      <trkpt lat="47.29504" lon="6.22918">
        <ele>278</ele>
        <time>2024-07-31T09:36:58Z</time>
      </trkpt>
      <trkpt lat="47.29502" lon="6.22923">
        <ele>278.2</ele>
        <time>2024-07-31T09:36:59Z</time>
      </trkpt>
      <trkpt lat="47.295" lon="6.22928">
        <ele>278</ele>
        <time>2024-07-31T09:37:00Z</time>
      </trkpt>
      <trkpt lat="47.29497" lon="6.22935">
        <ele>278</ele>
        <time>2024-07-31T09:37:01Z</time>
      </trkpt>
      <trkpt lat="47.29495" lon="6.2294">
        <ele>278</ele>
        <time>2024-07-31T09:37:02Z</time>
      </trkpt>
      <trkpt lat="47.29492" lon="6.22945">
        <ele>278</ele>
        <time>2024-07-31T09:37:03Z</time>
      </trkpt>
      <trkpt lat="47.2949" lon="6.22948">
        <ele>278</ele>
        <time>2024-07-31T09:37:04Z</time>
      </trkpt>
      <trkpt lat="47.29488" lon="6.2295">
        <ele>277.8</ele>
        <time>2024-07-31T09:37:05Z</time>
      </trkpt>
      <trkpt lat="47.29487" lon="6.22951">
        <ele>277.6</ele>
        <time>2024-07-31T09:37:06Z</time>
      </trkpt>
      <trkpt lat="47.29486" lon="6.22952">
        <ele>277.6</ele>
        <time>2024-07-31T09:37:07Z</time>
      </trkpt>
      <trkpt lat="47.29484" lon="6.22952">
        <ele>277.4</ele>
        <time>2024-07-31T09:37:08Z</time>
      </trkpt>
      <trkpt lat="47.29483" lon="6.22953">
        <ele>277.2</ele>
        <time>2024-07-31T09:37:09Z</time>
      </trkpt>
      <trkpt lat="47.29482" lon="6.22953">
        <ele>277.2</ele>
        <time>2024-07-31T09:37:10Z</time>
      </trkpt>
      <trkpt lat="47.29482" lon="6.22954">
        <ele>277.2</ele>
        <time>2024-07-31T09:37:11Z</time>
      </trkpt>
      <trkpt lat="47.29483" lon="6.22954">
        <ele>277.2</ele>
        <time>2024-07-31T09:37:12Z</time>
      </trkpt>
      <trkpt lat="47.29483" lon="6.22954">
        <ele>277.2</ele>
        <time>2024-07-31T09:37:13Z</time>
      </trkpt>
      <trkpt lat="47.29482" lon="6.22954">
        <ele>277.2</ele>
        <time>2024-07-31T09:37:14Z</time>
      </trkpt>
      <trkpt lat="47.29482" lon="6.22954">
        <ele>277</ele>
        <time>2024-07-31T09:37:15Z</time>
      </trkpt>
      <trkpt lat="47.29482" lon="6.22954">
        <ele>277</ele>
        <time>2024-07-31T09:37:16Z</time>
      </trkpt>
      <trkpt lat="47.29482" lon="6.22954">
        <ele>277</ele>
        <time>2024-07-31T09:37:17Z</time>
      </trkpt>
      <trkpt lat="47.29482" lon="6.22954">
        <ele>277</ele>
        <time>2024-07-31T09:37:18Z</time>
      </trkpt>
      <trkpt lat="47.29482" lon="6.22954">
        <ele>277</ele>
        <time>2024-07-31T09:37:19Z</time>
      </trkpt>
      <trkpt lat="47.29482" lon="6.22954">
        <ele>277</ele>
        <time>2024-07-31T09:37:20Z</time>
      </trkpt>
      <trkpt lat="47.29482" lon="6.22954">
        <ele>277</ele>
        <time>2024-07-31T09:37:21Z</time>
      </trkpt>
      <trkpt lat="47.29482" lon="6.22954">
        <ele>277</ele>
        <time>2024-07-31T09:37:22Z</time>
      </trkpt>
      <trkpt lat="47.29482" lon="6.22954">
        <ele>276.8</ele>
        <time>2024-07-31T09:37:23Z</time>
      </trkpt>
      <trkpt lat="47.29482" lon="6.22954">
        <ele>277</ele>
        <time>2024-07-31T09:37:24Z</time>
      </trkpt>
      <trkpt lat="47.29482" lon="6.22954">
        <ele>276.8</ele>
        <time>2024-07-31T09:37:25Z</time>
      </trkpt>
      <trkpt lat="47.29482" lon="6.22954">
        <ele>276.8</ele>
        <time>2024-07-31T09:37:26Z</time>
      </trkpt>
      <trkpt lat="47.29482" lon="6.22954">
        <ele>276.8</ele>
        <time>2024-07-31T09:37:27Z</time>
      </trkpt>
      <trkpt lat="47.29482" lon="6.22954">
        <ele>276.8</ele>
        <time>2024-07-31T09:37:28Z</time>
      </trkpt>
      <trkpt lat="47.29482" lon="6.22954">
        <ele>276.6</ele>
        <time>2024-07-31T09:37:29Z</time>
      </trkpt>
      <trkpt lat="47.29482" lon="6.22954">
        <ele>276.8</ele>
        <time>2024-07-31T09:37:30Z</time>
      </trkpt>
      <trkpt lat="47.29482" lon="6.22954">
        <ele>276.8</ele>
        <time>2024-07-31T09:37:31Z</time>
      </trkpt>
      <trkpt lat="47.29482" lon="6.22954">
        <ele>276.6</ele>
        <time>2024-07-31T09:37:32Z</time>
      </trkpt>
      <trkpt lat="47.29482" lon="6.22954">
        <ele>276.6</ele>
        <time>2024-07-31T09:37:33Z</time>
      </trkpt>
      <trkpt lat="47.29482" lon="6.22955">
        <ele>276.6</ele>
        <time>2024-07-31T09:37:34Z</time>
      </trkpt>
      <trkpt lat="47.29482" lon="6.22955">
        <ele>276.8</ele>
        <time>2024-07-31T09:37:35Z</time>
      </trkpt>
      <trkpt lat="47.29482" lon="6.22955">
        <ele>276.6</ele>
        <time>2024-07-31T09:37:36Z</time>
      </trkpt>
      <trkpt lat="47.29482" lon="6.22955">
        <ele>276.8</ele>
        <time>2024-07-31T09:37:37Z</time>
      </trkpt>
      <trkpt lat="47.29482" lon="6.22955">
        <ele>276.8</ele>
        <time>2024-07-31T09:37:38Z</time>
      </trkpt>
      <trkpt lat="47.29482" lon="6.22955">
        <ele>276.8</ele>
        <time>2024-07-31T09:37:39Z</time>
      </trkpt>
      <trkpt lat="47.29482" lon="6.22955">
        <ele>276.8</ele>
        <time>2024-07-31T09:37:40Z</time>
      </trkpt>
      <trkpt lat="47.29482" lon="6.22955">
        <ele>276.8</ele>
        <time>2024-07-31T09:37:41Z</time>
      </trkpt>
      <trkpt lat="47.29482" lon="6.22956">
        <ele>276.8</ele>
        <time>2024-07-31T09:37:42Z</time>
      </trkpt>
      <trkpt lat="47.29482" lon="6.22956">
        <ele>276.8</ele>
        <time>2024-07-31T09:37:43Z</time>
      </trkpt>
      <trkpt lat="47.29482" lon="6.22956">
        <ele>277</ele>
        <time>2024-07-31T09:37:44Z</time>
      </trkpt>
      <trkpt lat="47.29482" lon="6.22957">
        <ele>276.8</ele>
        <time>2024-07-31T09:37:45Z</time>
      </trkpt>
      <trkpt lat="47.29482" lon="6.22957">
        <ele>277</ele>
        <time>2024-07-31T09:37:46Z</time>
      </trkpt>
      <trkpt lat="47.29482" lon="6.22958">
        <ele>276.8</ele>
        <time>2024-07-31T09:37:47Z</time>
      </trkpt>
      <trkpt lat="47.29482" lon="6.22958">
        <ele>276.8</ele>
        <time>2024-07-31T09:37:48Z</time>
      </trkpt>
      <trkpt lat="47.29482" lon="6.22958">
        <ele>277</ele>
        <time>2024-07-31T09:37:49Z</time>
      </trkpt>
      <trkpt lat="47.29482" lon="6.22958">
        <ele>277</ele>
        <time>2024-07-31T09:37:50Z</time>
      </trkpt>
      <trkpt lat="47.29482" lon="6.22958">
        <ele>277</ele>
        <time>2024-07-31T09:37:51Z</time>
      </trkpt>
      <trkpt lat="47.29482" lon="6.22959">
        <ele>277</ele>
        <time>2024-07-31T09:37:52Z</time>
      </trkpt>
      <trkpt lat="47.29482" lon="6.22958">
        <ele>277</ele>
        <time>2024-07-31T09:37:53Z</time>
      </trkpt>
      <trkpt lat="47.29482" lon="6.22958">
        <ele>277</ele>
        <time>2024-07-31T09:37:54Z</time>
      </trkpt>
      <trkpt lat="47.29482" lon="6.22959">
        <ele>277</ele>
        <time>2024-07-31T09:37:55Z</time>
      </trkpt>
      <trkpt lat="47.29482" lon="6.22959">
        <ele>277</ele>
        <time>2024-07-31T09:37:56Z</time>
      </trkpt>
      <trkpt lat="47.29482" lon="6.22959">
        <ele>277</ele>
        <time>2024-07-31T09:37:57Z</time>
      </trkpt>
      <trkpt lat="47.29482" lon="6.22959">
        <ele>277</ele>
        <time>2024-07-31T09:37:58Z</time>
      </trkpt>
      <trkpt lat="47.29482" lon="6.22959">
        <ele>277</ele>
        <time>2024-07-31T09:37:59Z</time>
      </trkpt>
      <trkpt lat="47.29482" lon="6.22959">
        <ele>277</ele>
        <time>2024-07-31T09:38:00Z</time>
      </trkpt>
      <trkpt lat="47.29482" lon="6.22959">
        <ele>277</ele>
        <time>2024-07-31T09:38:01Z</time>
      </trkpt>
      <trkpt lat="47.29482" lon="6.22959">
        <ele>276.8</ele>
        <time>2024-07-31T09:38:02Z</time>
      </trkpt>
      <trkpt lat="47.29482" lon="6.22959">
        <ele>276.8</ele>
        <time>2024-07-31T09:38:03Z</time>
      </trkpt>
      <trkpt lat="47.29482" lon="6.22959">
        <ele>276.8</ele>
        <time>2024-07-31T09:38:04Z</time>
      </trkpt>
      <trkpt lat="47.29482" lon="6.22959">
        <ele>276.8</ele>
        <time>2024-07-31T09:38:05Z</time>
      </trkpt>
      <trkpt lat="47.29482" lon="6.22959">
        <ele>276.8</ele>
        <time>2024-07-31T09:38:06Z</time>
      </trkpt>
      <trkpt lat="47.29482" lon="6.22959">
        <ele>276.8</ele>
        <time>2024-07-31T09:38:07Z</time>
      </trkpt>
      <trkpt lat="47.29482" lon="6.22959">
        <ele>276.8</ele>
        <time>2024-07-31T09:38:08Z</time>
      </trkpt>
      <trkpt lat="47.29482" lon="6.22959">
        <ele>277</ele>
        <time>2024-07-31T09:38:09Z</time>
      </trkpt>
      <trkpt lat="47.29482" lon="6.22959">
        <ele>277</ele>
        <time>2024-07-31T09:38:10Z</time>
      </trkpt>
      <trkpt lat="47.29482" lon="6.22959">
        <ele>276.8</ele>
        <time>2024-07-31T09:38:11Z</time>
      </trkpt>
      <trkpt lat="47.29482" lon="6.22959">
        <ele>276.8</ele>
        <time>2024-07-31T09:38:12Z</time>
      </trkpt>
      <trkpt lat="47.29482" lon="6.22959">
        <ele>277</ele>
        <time>2024-07-31T09:38:13Z</time>
      </trkpt>
      <trkpt lat="47.29482" lon="6.22959">
        <ele>277</ele>
        <time>2024-07-31T09:38:14Z</time>
      </trkpt>
      <trkpt lat="47.29482" lon="6.22959">
        <ele>277</ele>
        <time>2024-07-31T09:38:15Z</time>
      </trkpt>
      <trkpt lat="47.29482" lon="6.22959">
        <ele>277</ele>
        <time>2024-07-31T09:38:16Z</time>
      </trkpt>
      <trkpt lat="47.29482" lon="6.22959">
        <ele>277.2</ele>
        <time>2024-07-31T09:38:17Z</time>
      </trkpt>
      <trkpt lat="47.29482" lon="6.22959">
        <ele>277</ele>
        <time>2024-07-31T09:38:18Z</time>
      </trkpt>
      <trkpt lat="47.29482" lon="6.22959">
        <ele>277</ele>
        <time>2024-07-31T09:38:19Z</time>
      </trkpt>
      <trkpt lat="47.29482" lon="6.22959">
        <ele>277</ele>
        <time>2024-07-31T09:38:20Z</time>
      </trkpt>
      <trkpt lat="47.29482" lon="6.22959">
        <ele>277</ele>
        <time>2024-07-31T09:38:21Z</time>
      </trkpt>
      <trkpt lat="47.29482" lon="6.22959">
        <ele>277</ele>
        <time>2024-07-31T09:38:22Z</time>
      </trkpt>
      <trkpt lat="47.29482" lon="6.22959">
        <ele>277</ele>
        <time>2024-07-31T09:38:23Z</time>
      </trkpt>
      <trkpt lat="47.29482" lon="6.22959">
        <ele>277</ele>
        <time>2024-07-31T09:38:24Z</time>
      </trkpt>
      <trkpt lat="47.29482" lon="6.22959">
        <ele>277</ele>
        <time>2024-07-31T09:38:25Z</time>
      </trkpt>
      <trkpt lat="47.29482" lon="6.22959">
        <ele>277</ele>
        <time>2024-07-31T09:38:26Z</time>
      </trkpt>
      <trkpt lat="47.29482" lon="6.22959">
        <ele>277</ele>
        <time>2024-07-31T09:38:27Z</time>
      </trkpt>
      <trkpt lat="47.29482" lon="6.22959">
        <ele>276.8</ele>
        <time>2024-07-31T09:38:28Z</time>
      </trkpt>
      <trkpt lat="47.29481" lon="6.2296">
        <ele>277</ele>
        <time>2024-07-31T09:38:29Z</time>
      </trkpt>
      <trkpt lat="47.29481" lon="6.2296">
        <ele>277</ele>
        <time>2024-07-31T09:38:30Z</time>
      </trkpt>
      <trkpt lat="47.29481" lon="6.2296">
        <ele>277</ele>
        <time>2024-07-31T09:38:31Z</time>
      </trkpt>
      <trkpt lat="47.29481" lon="6.2296">
        <ele>277</ele>
        <time>2024-07-31T09:38:32Z</time>
      </trkpt>
      <trkpt lat="47.29481" lon="6.2296">
        <ele>277</ele>
        <time>2024-07-31T09:38:33Z</time>
      </trkpt>
      <trkpt lat="47.29481" lon="6.2296">
        <ele>277</ele>
        <time>2024-07-31T09:38:34Z</time>
      </trkpt>
      <trkpt lat="47.29481" lon="6.22961">
        <ele>277</ele>
        <time>2024-07-31T09:38:35Z</time>
      </trkpt>
      <trkpt lat="47.29481" lon="6.22961">
        <ele>277</ele>
        <time>2024-07-31T09:38:36Z</time>
      </trkpt>
      <trkpt lat="47.29481" lon="6.22961">
        <ele>277</ele>
        <time>2024-07-31T09:38:37Z</time>
      </trkpt>
      <trkpt lat="47.29481" lon="6.22961">
        <ele>277</ele>
        <time>2024-07-31T09:38:38Z</time>
      </trkpt>
      <trkpt lat="47.29481" lon="6.22961">
        <ele>277</ele>
        <time>2024-07-31T09:38:39Z</time>
      </trkpt>
      <trkpt lat="47.29481" lon="6.22961">
        <ele>277</ele>
        <time>2024-07-31T09:38:40Z</time>
      </trkpt>
      <trkpt lat="47.29481" lon="6.22961">
        <ele>277</ele>
        <time>2024-07-31T09:38:41Z</time>
      </trkpt>
      <trkpt lat="47.29481" lon="6.22961">
        <ele>277</ele>
        <time>2024-07-31T09:38:42Z</time>
      </trkpt>
      <trkpt lat="47.29481" lon="6.22961">
        <ele>277</ele>
        <time>2024-07-31T09:38:43Z</time>
      </trkpt>
      <trkpt lat="47.29481" lon="6.22961">
        <ele>277</ele>
        <time>2024-07-31T09:38:44Z</time>
      </trkpt>
      <trkpt lat="47.29481" lon="6.22961">
        <ele>277</ele>
        <time>2024-07-31T09:38:45Z</time>
      </trkpt>
      <trkpt lat="47.29481" lon="6.22961">
        <ele>277.2</ele>
        <time>2024-07-31T09:38:46Z</time>
      </trkpt>
      <trkpt lat="47.29481" lon="6.22961">
        <ele>277.2</ele>
        <time>2024-07-31T09:38:47Z</time>
      </trkpt>
      <trkpt lat="47.29481" lon="6.22962">
        <ele>277.2</ele>
        <time>2024-07-31T09:38:48Z</time>
      </trkpt>
      <trkpt lat="47.29481" lon="6.22962">
        <ele>277.2</ele>
        <time>2024-07-31T09:38:49Z</time>
      </trkpt>
      <trkpt lat="47.29481" lon="6.22962">
        <ele>277.2</ele>
        <time>2024-07-31T09:38:50Z</time>
      </trkpt>
      <trkpt lat="47.29481" lon="6.22961">
        <ele>277.2</ele>
        <time>2024-07-31T09:38:51Z</time>
      </trkpt>
      <trkpt lat="47.29481" lon="6.22961">
        <ele>277.2</ele>
        <time>2024-07-31T09:38:52Z</time>
      </trkpt>
      <trkpt lat="47.29481" lon="6.22961">
        <ele>277.2</ele>
        <time>2024-07-31T09:38:53Z</time>
      </trkpt>
      <trkpt lat="47.29481" lon="6.22961">
        <ele>277.2</ele>
        <time>2024-07-31T09:38:54Z</time>
      </trkpt>
      <trkpt lat="47.29481" lon="6.22961">
        <ele>277.2</ele>
        <time>2024-07-31T09:38:55Z</time>
      </trkpt>
      <trkpt lat="47.29482" lon="6.22961">
        <ele>277.2</ele>
        <time>2024-07-31T09:38:56Z</time>
      </trkpt>
      <trkpt lat="47.29482" lon="6.22961">
        <ele>277.4</ele>
        <time>2024-07-31T09:38:57Z</time>
      </trkpt>
      <trkpt lat="47.29482" lon="6.22962">
        <ele>277.4</ele>
        <time>2024-07-31T09:38:58Z</time>
      </trkpt>
      <trkpt lat="47.29482" lon="6.22963">
        <ele>277.4</ele>
        <time>2024-07-31T09:38:59Z</time>
      </trkpt>
      <trkpt lat="47.29483" lon="6.22964">
        <ele>277.4</ele>
        <time>2024-07-31T09:39:00Z</time>
      </trkpt>
      <trkpt lat="47.29483" lon="6.22965">
        <ele>277.4</ele>
        <time>2024-07-31T09:39:01Z</time>
      </trkpt>
      <trkpt lat="47.29483" lon="6.22966">
        <ele>277.6</ele>
        <time>2024-07-31T09:39:02Z</time>
      </trkpt>
      <trkpt lat="47.29483" lon="6.22968">
        <ele>277.4</ele>
        <time>2024-07-31T09:39:03Z</time>
      </trkpt>
      <trkpt lat="47.29483" lon="6.22971">
        <ele>277.6</ele>
        <time>2024-07-31T09:39:04Z</time>
      </trkpt>
      <trkpt lat="47.29483" lon="6.22974">
        <ele>277.6</ele>
        <time>2024-07-31T09:39:05Z</time>
      </trkpt>
      <trkpt lat="47.29481" lon="6.22977">
        <ele>277.6</ele>
        <time>2024-07-31T09:39:06Z</time>
      </trkpt>
      <trkpt lat="47.2948" lon="6.2298">
        <ele>277.8</ele>
        <time>2024-07-31T09:39:07Z</time>
      </trkpt>
      <trkpt lat="47.29478" lon="6.22984">
        <ele>278</ele>
        <time>2024-07-31T09:39:08Z</time>
      </trkpt>
      <trkpt lat="47.29477" lon="6.22989">
        <ele>277.8</ele>
        <time>2024-07-31T09:39:09Z</time>
      </trkpt>
      <trkpt lat="47.29476" lon="6.22994">
        <ele>277.6</ele>
        <time>2024-07-31T09:39:10Z</time>
      </trkpt>
      <trkpt lat="47.29475" lon="6.22999">
        <ele>277.6</ele>
        <time>2024-07-31T09:39:11Z</time>
      </trkpt>
      <trkpt lat="47.29476" lon="6.23005">
        <ele>277.8</ele>
        <time>2024-07-31T09:39:12Z</time>
      </trkpt>
      <trkpt lat="47.29476" lon="6.23011">
        <ele>277.6</ele>
        <time>2024-07-31T09:39:13Z</time>
      </trkpt>
      <trkpt lat="47.29477" lon="6.23017">
        <ele>277.4</ele>
        <time>2024-07-31T09:39:14Z</time>
      </trkpt>
      <trkpt lat="47.29478" lon="6.23024">
        <ele>277.2</ele>
        <time>2024-07-31T09:39:15Z</time>
      </trkpt>
      <trkpt lat="47.29479" lon="6.2303">
        <ele>277</ele>
        <time>2024-07-31T09:39:16Z</time>
      </trkpt>
      <trkpt lat="47.2948" lon="6.23037">
        <ele>277</ele>
        <time>2024-07-31T09:39:17Z</time>
      </trkpt>
      <trkpt lat="47.29482" lon="6.23044">
        <ele>277</ele>
        <time>2024-07-31T09:39:18Z</time>
      </trkpt>
      <trkpt lat="47.29484" lon="6.23052">
        <ele>276.8</ele>
        <time>2024-07-31T09:39:19Z</time>
      </trkpt>
      <trkpt lat="47.29486" lon="6.2306">
        <ele>276.4</ele>
        <time>2024-07-31T09:39:20Z</time>
      </trkpt>
      <trkpt lat="47.29487" lon="6.2307">
        <ele>276</ele>
        <time>2024-07-31T09:39:21Z</time>
      </trkpt>
      <trkpt lat="47.29489" lon="6.23079">
        <ele>275.6</ele>
        <time>2024-07-31T09:39:22Z</time>
      </trkpt>
      <trkpt lat="47.2949" lon="6.23089">
        <ele>275.8</ele>
        <time>2024-07-31T09:39:23Z</time>
      </trkpt>
      <trkpt lat="47.29492" lon="6.23099">
        <ele>275.6</ele>
        <time>2024-07-31T09:39:24Z</time>
      </trkpt>
      <trkpt lat="47.29494" lon="6.23108">
        <ele>275.2</ele>
        <time>2024-07-31T09:39:25Z</time>
      </trkpt>
      <trkpt lat="47.29496" lon="6.23117">
        <ele>275.4</ele>
        <time>2024-07-31T09:39:26Z</time>
      </trkpt>
      <trkpt lat="47.29498" lon="6.23126">
        <ele>275.2</ele>
        <time>2024-07-31T09:39:27Z</time>
      </trkpt>
      <trkpt lat="47.295" lon="6.23135">
        <ele>275.2</ele>
        <time>2024-07-31T09:39:28Z</time>
      </trkpt>
      <trkpt lat="47.29501" lon="6.23143">
        <ele>275.2</ele>
        <time>2024-07-31T09:39:29Z</time>
      </trkpt>
      <trkpt lat="47.29501" lon="6.23151">
        <ele>275.6</ele>
        <time>2024-07-31T09:39:30Z</time>
      </trkpt>
      <trkpt lat="47.29501" lon="6.23158">
        <ele>275.4</ele>
        <time>2024-07-31T09:39:31Z</time>
      </trkpt>
      <trkpt lat="47.295" lon="6.23166">
        <ele>275.4</ele>
        <time>2024-07-31T09:39:32Z</time>
      </trkpt>
      <trkpt lat="47.295" lon="6.23174">
        <ele>275.4</ele>
        <time>2024-07-31T09:39:33Z</time>
      </trkpt>
      <trkpt lat="47.29501" lon="6.23182">
        <ele>275.2</ele>
        <time>2024-07-31T09:39:34Z</time>
      </trkpt>
      <trkpt lat="47.29503" lon="6.2319">
        <ele>275.2</ele>
        <time>2024-07-31T09:39:35Z</time>
      </trkpt>
      <trkpt lat="47.29505" lon="6.23198">
        <ele>275.2</ele>
        <time>2024-07-31T09:39:36Z</time>
      </trkpt>
      <trkpt lat="47.29507" lon="6.23206">
        <ele>274.8</ele>
        <time>2024-07-31T09:39:37Z</time>
      </trkpt>
      <trkpt lat="47.29508" lon="6.23214">
        <ele>275</ele>
        <time>2024-07-31T09:39:38Z</time>
      </trkpt>
      <trkpt lat="47.29509" lon="6.23222">
        <ele>275</ele>
        <time>2024-07-31T09:39:39Z</time>
      </trkpt>
      <trkpt lat="47.2951" lon="6.2323">
        <ele>275</ele>
        <time>2024-07-31T09:39:40Z</time>
      </trkpt>
      <trkpt lat="47.29511" lon="6.23239">
        <ele>275.2</ele>
        <time>2024-07-31T09:39:41Z</time>
      </trkpt>
      <trkpt lat="47.29512" lon="6.23247">
        <ele>275.2</ele>
        <time>2024-07-31T09:39:42Z</time>
      </trkpt>
      <trkpt lat="47.29513" lon="6.23255">
        <ele>275</ele>
        <time>2024-07-31T09:39:43Z</time>
      </trkpt>
      <trkpt lat="47.29515" lon="6.23263">
        <ele>275.2</ele>
        <time>2024-07-31T09:39:44Z</time>
      </trkpt>
      <trkpt lat="47.29517" lon="6.2327">
        <ele>275.2</ele>
        <time>2024-07-31T09:39:45Z</time>
      </trkpt>
      <trkpt lat="47.2952" lon="6.23277">
        <ele>275.2</ele>
        <time>2024-07-31T09:39:46Z</time>
      </trkpt>
      <trkpt lat="47.29522" lon="6.23284">
        <ele>275.2</ele>
        <time>2024-07-31T09:39:47Z</time>
      </trkpt>
      <trkpt lat="47.29525" lon="6.23291">
        <ele>275.2</ele>
        <time>2024-07-31T09:39:48Z</time>
      </trkpt>
      <trkpt lat="47.29527" lon="6.23299">
        <ele>275.4</ele>
        <time>2024-07-31T09:39:49Z</time>
      </trkpt>
      <trkpt lat="47.29529" lon="6.23306">
        <ele>275.4</ele>
        <time>2024-07-31T09:39:50Z</time>
      </trkpt>
      <trkpt lat="47.29531" lon="6.23313">
        <ele>275.6</ele>
        <time>2024-07-31T09:39:51Z</time>
      </trkpt>
      <trkpt lat="47.29532" lon="6.2332">
        <ele>275.8</ele>
        <time>2024-07-31T09:39:52Z</time>
      </trkpt>
      <trkpt lat="47.29533" lon="6.23327">
        <ele>275.6</ele>
        <time>2024-07-31T09:39:53Z</time>
      </trkpt>
      <trkpt lat="47.29534" lon="6.23335">
        <ele>275.2</ele>
        <time>2024-07-31T09:39:54Z</time>
      </trkpt>
      <trkpt lat="47.29536" lon="6.23342">
        <ele>275.4</ele>
        <time>2024-07-31T09:39:55Z</time>
      </trkpt>
      <trkpt lat="47.29538" lon="6.23348">
        <ele>275.4</ele>
        <time>2024-07-31T09:39:56Z</time>
      </trkpt>
      <trkpt lat="47.2954" lon="6.23354">
        <ele>275.4</ele>
        <time>2024-07-31T09:39:57Z</time>
      </trkpt>
      <trkpt lat="47.29543" lon="6.23359">
        <ele>275.6</ele>
        <time>2024-07-31T09:39:58Z</time>
      </trkpt>
      <trkpt lat="47.29546" lon="6.23363">
        <ele>275.6</ele>
        <time>2024-07-31T09:39:59Z</time>
      </trkpt>
      <trkpt lat="47.2955" lon="6.23367">
        <ele>275.6</ele>
        <time>2024-07-31T09:40:00Z</time>
      </trkpt>
      <trkpt lat="47.29553" lon="6.23372">
        <ele>275.6</ele>
        <time>2024-07-31T09:40:01Z</time>
      </trkpt>
      <trkpt lat="47.29556" lon="6.23376">
        <ele>276</ele>
        <time>2024-07-31T09:40:02Z</time>
      </trkpt>
      <trkpt lat="47.2956" lon="6.23381">
        <ele>276.2</ele>
        <time>2024-07-31T09:40:03Z</time>
      </trkpt>
      <trkpt lat="47.29563" lon="6.23386">
        <ele>276.4</ele>
        <time>2024-07-31T09:40:04Z</time>
      </trkpt>
      <trkpt lat="47.29566" lon="6.23391">
        <ele>276.4</ele>
        <time>2024-07-31T09:40:05Z</time>
      </trkpt>
      <trkpt lat="47.29568" lon="6.23396">
        <ele>276.8</ele>
        <time>2024-07-31T09:40:06Z</time>
      </trkpt>
      <trkpt lat="47.29571" lon="6.23402">
        <ele>276.8</ele>
        <time>2024-07-31T09:40:07Z</time>
      </trkpt>
      <trkpt lat="47.29575" lon="6.23408">
        <ele>277</ele>
        <time>2024-07-31T09:40:08Z</time>
      </trkpt>
      <trkpt lat="47.29577" lon="6.23414">
        <ele>277.2</ele>
        <time>2024-07-31T09:40:09Z</time>
      </trkpt>
      <trkpt lat="47.29579" lon="6.2342">
        <ele>277.2</ele>
        <time>2024-07-31T09:40:10Z</time>
      </trkpt>
      <trkpt lat="47.29581" lon="6.23426">
        <ele>277.2</ele>
        <time>2024-07-31T09:40:11Z</time>
      </trkpt>
      <trkpt lat="47.29583" lon="6.23432">
        <ele>277.2</ele>
        <time>2024-07-31T09:40:12Z</time>
      </trkpt>
      <trkpt lat="47.29586" lon="6.23439">
        <ele>277.2</ele>
        <time>2024-07-31T09:40:13Z</time>
      </trkpt>
      <trkpt lat="47.29589" lon="6.23445">
        <ele>277.2</ele>
        <time>2024-07-31T09:40:14Z</time>
      </trkpt>
      <trkpt lat="47.29592" lon="6.23452">
        <ele>277.2</ele>
        <time>2024-07-31T09:40:15Z</time>
      </trkpt>
      <trkpt lat="47.29596" lon="6.23458">
        <ele>277.6</ele>
        <time>2024-07-31T09:40:16Z</time>
      </trkpt>
      <trkpt lat="47.29599" lon="6.23463">
        <ele>277.2</ele>
        <time>2024-07-31T09:40:17Z</time>
      </trkpt>
      <trkpt lat="47.29602" lon="6.23469">
        <ele>277.4</ele>
        <time>2024-07-31T09:40:18Z</time>
      </trkpt>
      <trkpt lat="47.29605" lon="6.23474">
        <ele>277.6</ele>
        <time>2024-07-31T09:40:19Z</time>
      </trkpt>
      <trkpt lat="47.29609" lon="6.23479">
        <ele>277.6</ele>
        <time>2024-07-31T09:40:20Z</time>
      </trkpt>
      <trkpt lat="47.29612" lon="6.23483">
        <ele>277.4</ele>
        <time>2024-07-31T09:40:21Z</time>
      </trkpt>
      <trkpt lat="47.29617" lon="6.23487">
        <ele>277.4</ele>
        <time>2024-07-31T09:40:22Z</time>
      </trkpt>
      <trkpt lat="47.29621" lon="6.23491">
        <ele>277.4</ele>
        <time>2024-07-31T09:40:23Z</time>
      </trkpt>
      <trkpt lat="47.29625" lon="6.23497">
        <ele>277.4</ele>
        <time>2024-07-31T09:40:24Z</time>
      </trkpt>
      <trkpt lat="47.29629" lon="6.23504">
        <ele>277</ele>
        <time>2024-07-31T09:40:25Z</time>
      </trkpt>
      <trkpt lat="47.29634" lon="6.2351">
        <ele>277</ele>
        <time>2024-07-31T09:40:26Z</time>
      </trkpt>
      <trkpt lat="47.29639" lon="6.23517">
        <ele>276.8</ele>
        <time>2024-07-31T09:40:27Z</time>
      </trkpt>
      <trkpt lat="47.29643" lon="6.23523">
        <ele>276.6</ele>
        <time>2024-07-31T09:40:28Z</time>
      </trkpt>
      <trkpt lat="47.29647" lon="6.2353">
        <ele>276.4</ele>
        <time>2024-07-31T09:40:29Z</time>
      </trkpt>
      <trkpt lat="47.29652" lon="6.23536">
        <ele>276.6</ele>
        <time>2024-07-31T09:40:30Z</time>
      </trkpt>
      <trkpt lat="47.29656" lon="6.23542">
        <ele>276.8</ele>
        <time>2024-07-31T09:40:31Z</time>
      </trkpt>
      <trkpt lat="47.2966" lon="6.23548">
        <ele>276.6</ele>
        <time>2024-07-31T09:40:32Z</time>
      </trkpt>
      <trkpt lat="47.29664" lon="6.23554">
        <ele>276.4</ele>
        <time>2024-07-31T09:40:33Z</time>
      </trkpt>
      <trkpt lat="47.29667" lon="6.2356">
        <ele>276.6</ele>
        <time>2024-07-31T09:40:34Z</time>
      </trkpt>
      <trkpt lat="47.2967" lon="6.23566">
        <ele>276.2</ele>
        <time>2024-07-31T09:40:35Z</time>
      </trkpt>
      <trkpt lat="47.29672" lon="6.23572">
        <ele>276.2</ele>
        <time>2024-07-31T09:40:36Z</time>
      </trkpt>
      <trkpt lat="47.29676" lon="6.23578">
        <ele>276</ele>
        <time>2024-07-31T09:40:37Z</time>
      </trkpt>
      <trkpt lat="47.2968" lon="6.23583">
        <ele>276</ele>
        <time>2024-07-31T09:40:38Z</time>
      </trkpt>
      <trkpt lat="47.29684" lon="6.23588">
        <ele>276.2</ele>
        <time>2024-07-31T09:40:39Z</time>
      </trkpt>
      <trkpt lat="47.29687" lon="6.23592">
        <ele>276.6</ele>
        <time>2024-07-31T09:40:40Z</time>
      </trkpt>
      <trkpt lat="47.29691" lon="6.23597">
        <ele>276.6</ele>
        <time>2024-07-31T09:40:41Z</time>
      </trkpt>
      <trkpt lat="47.29694" lon="6.23601">
        <ele>276.6</ele>
        <time>2024-07-31T09:40:42Z</time>
      </trkpt>
      <trkpt lat="47.29697" lon="6.23605">
        <ele>276.6</ele>
        <time>2024-07-31T09:40:43Z</time>
      </trkpt>
      <trkpt lat="47.29699" lon="6.23611">
        <ele>276.6</ele>
        <time>2024-07-31T09:40:44Z</time>
      </trkpt>
      <trkpt lat="47.29703" lon="6.23616">
        <ele>276.6</ele>
        <time>2024-07-31T09:40:45Z</time>
      </trkpt>
      <trkpt lat="47.29708" lon="6.23622">
        <ele>276.6</ele>
        <time>2024-07-31T09:40:46Z</time>
      </trkpt>
      <trkpt lat="47.29713" lon="6.23629">
        <ele>276.8</ele>
        <time>2024-07-31T09:40:47Z</time>
      </trkpt>
      <trkpt lat="47.29718" lon="6.23637">
        <ele>277</ele>
        <time>2024-07-31T09:40:48Z</time>
      </trkpt>
      <trkpt lat="47.29723" lon="6.23643">
        <ele>277.2</ele>
        <time>2024-07-31T09:40:49Z</time>
      </trkpt>
      <trkpt lat="47.29727" lon="6.23649">
        <ele>277.4</ele>
        <time>2024-07-31T09:40:50Z</time>
      </trkpt>
      <trkpt lat="47.29732" lon="6.23654">
        <ele>278</ele>
        <time>2024-07-31T09:40:51Z</time>
      </trkpt>
      <trkpt lat="47.29736" lon="6.23659">
        <ele>278.2</ele>
        <time>2024-07-31T09:40:52Z</time>
      </trkpt>
      <trkpt lat="47.2974" lon="6.23662">
        <ele>278.6</ele>
        <time>2024-07-31T09:40:53Z</time>
      </trkpt>
      <trkpt lat="47.29744" lon="6.23665">
        <ele>279</ele>
        <time>2024-07-31T09:40:54Z</time>
      </trkpt>
      <trkpt lat="47.29746" lon="6.23669">
        <ele>279.2</ele>
        <time>2024-07-31T09:40:55Z</time>
      </trkpt>
      <trkpt lat="47.29749" lon="6.23672">
        <ele>279.4</ele>
        <time>2024-07-31T09:40:56Z</time>
      </trkpt>
      <trkpt lat="47.29752" lon="6.23676">
        <ele>279.6</ele>
        <time>2024-07-31T09:40:57Z</time>
      </trkpt>
      <trkpt lat="47.29756" lon="6.23679">
        <ele>279.6</ele>
        <time>2024-07-31T09:40:58Z</time>
      </trkpt>
      <trkpt lat="47.2976" lon="6.23683">
        <ele>279.6</ele>
        <time>2024-07-31T09:40:59Z</time>
      </trkpt>
      <trkpt lat="47.29764" lon="6.23687">
        <ele>279.6</ele>
        <time>2024-07-31T09:41:00Z</time>
      </trkpt>
      <trkpt lat="47.29767" lon="6.2369">
        <ele>279.8</ele>
        <time>2024-07-31T09:41:01Z</time>
      </trkpt>
      <trkpt lat="47.29771" lon="6.23692">
        <ele>279.6</ele>
        <time>2024-07-31T09:41:02Z</time>
      </trkpt>
      <trkpt lat="47.29774" lon="6.23695">
        <ele>279.6</ele>
        <time>2024-07-31T09:41:03Z</time>
      </trkpt>
      <trkpt lat="47.29777" lon="6.23696">
        <ele>279.8</ele>
        <time>2024-07-31T09:41:04Z</time>
      </trkpt>
      <trkpt lat="47.29779" lon="6.23697">
        <ele>279.8</ele>
        <time>2024-07-31T09:41:05Z</time>
      </trkpt>
      <trkpt lat="47.2978" lon="6.23698">
        <ele>280</ele>
        <time>2024-07-31T09:41:06Z</time>
      </trkpt>
      <trkpt lat="47.29781" lon="6.23698">
        <ele>280</ele>
        <time>2024-07-31T09:41:07Z</time>
      </trkpt>
      <trkpt lat="47.29782" lon="6.23698">
        <ele>280</ele>
        <time>2024-07-31T09:41:08Z</time>
      </trkpt>
      <trkpt lat="47.29783" lon="6.23698">
        <ele>280</ele>
        <time>2024-07-31T09:41:09Z</time>
      </trkpt>
      <trkpt lat="47.29783" lon="6.23699">
        <ele>279.8</ele>
        <time>2024-07-31T09:41:10Z</time>
      </trkpt>
      <trkpt lat="47.29784" lon="6.23699">
        <ele>279.8</ele>
        <time>2024-07-31T09:41:11Z</time>
      </trkpt>
      <trkpt lat="47.29784" lon="6.237">
        <ele>279.8</ele>
        <time>2024-07-31T09:41:12Z</time>
      </trkpt>
      <trkpt lat="47.29785" lon="6.237">
        <ele>279.8</ele>
        <time>2024-07-31T09:41:13Z</time>
      </trkpt>
      <trkpt lat="47.29785" lon="6.23701">
        <ele>279.8</ele>
        <time>2024-07-31T09:41:14Z</time>
      </trkpt>
      <trkpt lat="47.29786" lon="6.237">
        <ele>279.8</ele>
        <time>2024-07-31T09:41:15Z</time>
      </trkpt>
      <trkpt lat="47.29787" lon="6.237">
        <ele>279.8</ele>
        <time>2024-07-31T09:41:16Z</time>
      </trkpt>
      <trkpt lat="47.29787" lon="6.23701">
        <ele>279.8</ele>
        <time>2024-07-31T09:41:17Z</time>
      </trkpt>
      <trkpt lat="47.29787" lon="6.23701">
        <ele>279.8</ele>
        <time>2024-07-31T09:41:18Z</time>
      </trkpt>
      <trkpt lat="47.29787" lon="6.23702">
        <ele>279.8</ele>
        <time>2024-07-31T09:41:19Z</time>
      </trkpt>
      <trkpt lat="47.29787" lon="6.23703">
        <ele>279.8</ele>
        <time>2024-07-31T09:41:20Z</time>
      </trkpt>
      <trkpt lat="47.29788" lon="6.23704">
        <ele>279.8</ele>
        <time>2024-07-31T09:41:21Z</time>
      </trkpt>
      <trkpt lat="47.29788" lon="6.23705">
        <ele>280</ele>
        <time>2024-07-31T09:41:22Z</time>
      </trkpt>
      <trkpt lat="47.29789" lon="6.23705">
        <ele>280</ele>
        <time>2024-07-31T09:41:23Z</time>
      </trkpt>
      <trkpt lat="47.29789" lon="6.23706">
        <ele>280</ele>
        <time>2024-07-31T09:41:24Z</time>
      </trkpt>
      <trkpt lat="47.2979" lon="6.23707">
        <ele>280</ele>
        <time>2024-07-31T09:41:25Z</time>
      </trkpt>
      <trkpt lat="47.29791" lon="6.23707">
        <ele>280</ele>
        <time>2024-07-31T09:41:26Z</time>
      </trkpt>
      <trkpt lat="47.29793" lon="6.23709">
        <ele>280</ele>
        <time>2024-07-31T09:41:27Z</time>
      </trkpt>
      <trkpt lat="47.29794" lon="6.23709">
        <ele>280</ele>
        <time>2024-07-31T09:41:28Z</time>
      </trkpt>
      <trkpt lat="47.29795" lon="6.23711">
        <ele>280.2</ele>
        <time>2024-07-31T09:41:29Z</time>
      </trkpt>
      <trkpt lat="47.29797" lon="6.23712">
        <ele>280.2</ele>
        <time>2024-07-31T09:41:30Z</time>
      </trkpt>
      <trkpt lat="47.29799" lon="6.23715">
        <ele>280.4</ele>
        <time>2024-07-31T09:41:31Z</time>
      </trkpt>
      <trkpt lat="47.29802" lon="6.23717">
        <ele>280.4</ele>
        <time>2024-07-31T09:41:32Z</time>
      </trkpt>
      <trkpt lat="47.29804" lon="6.23719">
        <ele>280.8</ele>
        <time>2024-07-31T09:41:33Z</time>
      </trkpt>
      <trkpt lat="47.29806" lon="6.23721">
        <ele>280.6</ele>
        <time>2024-07-31T09:41:34Z</time>
      </trkpt>
      <trkpt lat="47.29809" lon="6.23723">
        <ele>281</ele>
        <time>2024-07-31T09:41:35Z</time>
      </trkpt>
      <trkpt lat="47.29811" lon="6.23725">
        <ele>281.2</ele>
        <time>2024-07-31T09:41:36Z</time>
      </trkpt>
      <trkpt lat="47.29814" lon="6.23727">
        <ele>281.4</ele>
        <time>2024-07-31T09:41:37Z</time>
      </trkpt>
      <trkpt lat="47.29816" lon="6.23728">
        <ele>281.8</ele>
        <time>2024-07-31T09:41:38Z</time>
      </trkpt>
      <trkpt lat="47.29818" lon="6.2373">
        <ele>282</ele>
        <time>2024-07-31T09:41:39Z</time>
      </trkpt>
      <trkpt lat="47.29821" lon="6.23731">
        <ele>282.2</ele>
        <time>2024-07-31T09:41:40Z</time>
      </trkpt>
      <trkpt lat="47.29823" lon="6.23732">
        <ele>282.4</ele>
        <time>2024-07-31T09:41:41Z</time>
      </trkpt>
      <trkpt lat="47.29824" lon="6.23732">
        <ele>282.4</ele>
        <time>2024-07-31T09:41:42Z</time>
      </trkpt>
      <trkpt lat="47.29826" lon="6.23728">
        <ele>282.4</ele>
        <time>2024-07-31T09:41:43Z</time>
      </trkpt>
      <trkpt lat="47.29826" lon="6.23724">
        <ele>282</ele>
        <time>2024-07-31T09:41:44Z</time>
      </trkpt>
      <trkpt lat="47.29826" lon="6.23721">
        <ele>281.8</ele>
        <time>2024-07-31T09:41:45Z</time>
      </trkpt>
      <trkpt lat="47.29825" lon="6.23717">
        <ele>281.8</ele>
        <time>2024-07-31T09:41:46Z</time>
      </trkpt>
      <trkpt lat="47.29825" lon="6.2371">
        <ele>281.4</ele>
        <time>2024-07-31T09:41:47Z</time>
      </trkpt>
      <trkpt lat="47.29825" lon="6.23704">
        <ele>281.4</ele>
        <time>2024-07-31T09:41:48Z</time>
      </trkpt>
      <trkpt lat="47.29825" lon="6.23697">
        <ele>281.2</ele>
        <time>2024-07-31T09:41:49Z</time>
      </trkpt>
      <trkpt lat="47.29826" lon="6.23689">
        <ele>281.2</ele>
        <time>2024-07-31T09:41:50Z</time>
      </trkpt>
      <trkpt lat="47.29827" lon="6.23681">
        <ele>281</ele>
        <time>2024-07-31T09:41:51Z</time>
      </trkpt>
      <trkpt lat="47.29828" lon="6.23673">
        <ele>281</ele>
        <time>2024-07-31T09:41:52Z</time>
      </trkpt>
      <trkpt lat="47.2983" lon="6.23665">
        <ele>280.8</ele>
        <time>2024-07-31T09:41:53Z</time>
      </trkpt>
      <trkpt lat="47.29831" lon="6.23657">
        <ele>280.8</ele>
        <time>2024-07-31T09:41:54Z</time>
      </trkpt>
      <trkpt lat="47.29832" lon="6.2365">
        <ele>280.8</ele>
        <time>2024-07-31T09:41:55Z</time>
      </trkpt>
      <trkpt lat="47.29834" lon="6.23642">
        <ele>280.8</ele>
        <time>2024-07-31T09:41:56Z</time>
      </trkpt>
      <trkpt lat="47.29835" lon="6.23635">
        <ele>280.8</ele>
        <time>2024-07-31T09:41:57Z</time>
      </trkpt>
      <trkpt lat="47.29836" lon="6.23628">
        <ele>280.8</ele>
        <time>2024-07-31T09:41:58Z</time>
      </trkpt>
      <trkpt lat="47.29838" lon="6.23621">
        <ele>280.6</ele>
        <time>2024-07-31T09:41:59Z</time>
      </trkpt>
      <trkpt lat="47.29839" lon="6.23614">
        <ele>281</ele>
        <time>2024-07-31T09:42:00Z</time>
      </trkpt>
      <trkpt lat="47.2984" lon="6.23607">
        <ele>281.2</ele>
        <time>2024-07-31T09:42:01Z</time>
      </trkpt>
      <trkpt lat="47.29842" lon="6.236">
        <ele>281.4</ele>
        <time>2024-07-31T09:42:02Z</time>
      </trkpt>
      <trkpt lat="47.29843" lon="6.23593">
        <ele>281.6</ele>
        <time>2024-07-31T09:42:03Z</time>
      </trkpt>
      <trkpt lat="47.29843" lon="6.23586">
        <ele>281.4</ele>
        <time>2024-07-31T09:42:04Z</time>
      </trkpt>
      <trkpt lat="47.29845" lon="6.23578">
        <ele>281.2</ele>
        <time>2024-07-31T09:42:05Z</time>
      </trkpt>
      <trkpt lat="47.29845" lon="6.23571">
        <ele>280.8</ele>
        <time>2024-07-31T09:42:06Z</time>
      </trkpt>
      <trkpt lat="47.29846" lon="6.23564">
        <ele>280.8</ele>
        <time>2024-07-31T09:42:07Z</time>
      </trkpt>
      <trkpt lat="47.29847" lon="6.23556">
        <ele>280.6</ele>
        <time>2024-07-31T09:42:08Z</time>
      </trkpt>
      <trkpt lat="47.29849" lon="6.23548">
        <ele>280.4</ele>
        <time>2024-07-31T09:42:09Z</time>
      </trkpt>
      <trkpt lat="47.29851" lon="6.23541">
        <ele>280.4</ele>
        <time>2024-07-31T09:42:10Z</time>
      </trkpt>
      <trkpt lat="47.29852" lon="6.23533">
        <ele>280.8</ele>
        <time>2024-07-31T09:42:11Z</time>
      </trkpt>
      <trkpt lat="47.29853" lon="6.23525">
        <ele>280.8</ele>
        <time>2024-07-31T09:42:12Z</time>
      </trkpt>
      <trkpt lat="47.29854" lon="6.23516">
        <ele>280.6</ele>
        <time>2024-07-31T09:42:13Z</time>
      </trkpt>
      <trkpt lat="47.29856" lon="6.23508">
        <ele>280.6</ele>
        <time>2024-07-31T09:42:14Z</time>
      </trkpt>
      <trkpt lat="47.29857" lon="6.235">
        <ele>280.8</ele>
        <time>2024-07-31T09:42:15Z</time>
      </trkpt>
      <trkpt lat="47.29858" lon="6.23492">
        <ele>280.6</ele>
        <time>2024-07-31T09:42:16Z</time>
      </trkpt>
      <trkpt lat="47.2986" lon="6.23484">
        <ele>280.6</ele>
        <time>2024-07-31T09:42:17Z</time>
      </trkpt>
      <trkpt lat="47.29862" lon="6.23477">
        <ele>280.6</ele>
        <time>2024-07-31T09:42:18Z</time>
      </trkpt>
      <trkpt lat="47.29865" lon="6.23469">
        <ele>280.8</ele>
        <time>2024-07-31T09:42:19Z</time>
      </trkpt>
      <trkpt lat="47.29867" lon="6.23462">
        <ele>281</ele>
        <time>2024-07-31T09:42:20Z</time>
      </trkpt>
      <trkpt lat="47.29869" lon="6.23456">
        <ele>281</ele>
        <time>2024-07-31T09:42:21Z</time>
      </trkpt>
      <trkpt lat="47.29872" lon="6.23449">
        <ele>281.4</ele>
        <time>2024-07-31T09:42:22Z</time>
      </trkpt>
      <trkpt lat="47.29874" lon="6.23442">
        <ele>281</ele>
        <time>2024-07-31T09:42:23Z</time>
      </trkpt>
      <trkpt lat="47.29876" lon="6.23436">
        <ele>281.2</ele>
        <time>2024-07-31T09:42:24Z</time>
      </trkpt>
      <trkpt lat="47.29877" lon="6.2343">
        <ele>281.4</ele>
        <time>2024-07-31T09:42:25Z</time>
      </trkpt>
      <trkpt lat="47.29879" lon="6.23425">
        <ele>281.6</ele>
        <time>2024-07-31T09:42:26Z</time>
      </trkpt>
      <trkpt lat="47.2988" lon="6.23421">
        <ele>282</ele>
        <time>2024-07-31T09:42:27Z</time>
      </trkpt>
      <trkpt lat="47.29881" lon="6.23417">
        <ele>282.2</ele>
        <time>2024-07-31T09:42:28Z</time>
      </trkpt>
      <trkpt lat="47.2988" lon="6.23415">
        <ele>282.2</ele>
        <time>2024-07-31T09:42:29Z</time>
      </trkpt>
      <trkpt lat="47.29879" lon="6.23414">
        <ele>282.2</ele>
        <time>2024-07-31T09:42:30Z</time>
      </trkpt>
      <trkpt lat="47.29879" lon="6.23413">
        <ele>282</ele>
        <time>2024-07-31T09:42:31Z</time>
      </trkpt>
      <trkpt lat="47.29878" lon="6.23412">
        <ele>282.2</ele>
        <time>2024-07-31T09:42:32Z</time>
      </trkpt>
      <trkpt lat="47.29878" lon="6.2341">
        <ele>282.2</ele>
        <time>2024-07-31T09:42:33Z</time>
      </trkpt>
      <trkpt lat="47.29878" lon="6.23409">
        <ele>282.2</ele>
        <time>2024-07-31T09:42:34Z</time>
      </trkpt>
      <trkpt lat="47.29878" lon="6.23408">
        <ele>282.2</ele>
        <time>2024-07-31T09:42:35Z</time>
      </trkpt>
      <trkpt lat="47.29878" lon="6.23407">
        <ele>282.2</ele>
        <time>2024-07-31T09:42:36Z</time>
      </trkpt>
      <trkpt lat="47.29877" lon="6.23407">
        <ele>282.2</ele>
        <time>2024-07-31T09:42:37Z</time>
      </trkpt>
      <trkpt lat="47.29877" lon="6.23406">
        <ele>282</ele>
        <time>2024-07-31T09:42:38Z</time>
      </trkpt>
      <trkpt lat="47.29877" lon="6.23405">
        <ele>282</ele>
        <time>2024-07-31T09:42:39Z</time>
      </trkpt>
      <trkpt lat="47.29877" lon="6.23404">
        <ele>282</ele>
        <time>2024-07-31T09:42:40Z</time>
      </trkpt>
      <trkpt lat="47.29876" lon="6.23404">
        <ele>282</ele>
        <time>2024-07-31T09:42:41Z</time>
      </trkpt>
      <trkpt lat="47.29876" lon="6.23404">
        <ele>282.2</ele>
        <time>2024-07-31T09:42:42Z</time>
      </trkpt>
      <trkpt lat="47.29876" lon="6.23403">
        <ele>282</ele>
        <time>2024-07-31T09:42:43Z</time>
      </trkpt>
      <trkpt lat="47.29877" lon="6.23402">
        <ele>282</ele>
        <time>2024-07-31T09:42:44Z</time>
      </trkpt>
      <trkpt lat="47.29877" lon="6.23402">
        <ele>282</ele>
        <time>2024-07-31T09:42:45Z</time>
      </trkpt>
      <trkpt lat="47.29877" lon="6.23401">
        <ele>282.2</ele>
        <time>2024-07-31T09:42:46Z</time>
      </trkpt>
      <trkpt lat="47.29877" lon="6.234">
        <ele>282.2</ele>
        <time>2024-07-31T09:42:47Z</time>
      </trkpt>
      <trkpt lat="47.29876" lon="6.23399">
        <ele>282.2</ele>
        <time>2024-07-31T09:42:48Z</time>
      </trkpt>
      <trkpt lat="47.29875" lon="6.23399">
        <ele>282</ele>
        <time>2024-07-31T09:42:49Z</time>
      </trkpt>
      <trkpt lat="47.29874" lon="6.23399">
        <ele>282.2</ele>
        <time>2024-07-31T09:42:50Z</time>
      </trkpt>
      <trkpt lat="47.29872" lon="6.234">
        <ele>282</ele>
        <time>2024-07-31T09:42:51Z</time>
      </trkpt>
      <trkpt lat="47.29871" lon="6.23401">
        <ele>281.8</ele>
        <time>2024-07-31T09:42:52Z</time>
      </trkpt>
      <trkpt lat="47.29868" lon="6.23403">
        <ele>281.6</ele>
        <time>2024-07-31T09:42:53Z</time>
      </trkpt>
      <trkpt lat="47.29865" lon="6.23405">
        <ele>281</ele>
        <time>2024-07-31T09:42:54Z</time>
      </trkpt>
      <trkpt lat="47.2986" lon="6.23407">
        <ele>280.4</ele>
        <time>2024-07-31T09:42:55Z</time>
      </trkpt>
      <trkpt lat="47.29855" lon="6.23409">
        <ele>280</ele>
        <time>2024-07-31T09:42:56Z</time>
      </trkpt>
      <trkpt lat="47.29849" lon="6.23412">
        <ele>279</ele>
        <time>2024-07-31T09:42:57Z</time>
      </trkpt>
      <trkpt lat="47.29842" lon="6.23415">
        <ele>279</ele>
        <time>2024-07-31T09:42:58Z</time>
      </trkpt>
      <trkpt lat="47.29835" lon="6.23417">
        <ele>278</ele>
        <time>2024-07-31T09:42:59Z</time>
      </trkpt>
      <trkpt lat="47.29827" lon="6.2342">
        <ele>276.8</ele>
        <time>2024-07-31T09:43:00Z</time>
      </trkpt>
      <trkpt lat="47.29819" lon="6.23421">
        <ele>275.6</ele>
        <time>2024-07-31T09:43:01Z</time>
      </trkpt>
      <trkpt lat="47.2981" lon="6.23421">
        <ele>275</ele>
        <time>2024-07-31T09:43:02Z</time>
      </trkpt>
      <trkpt lat="47.29801" lon="6.23419">
        <ele>274.6</ele>
        <time>2024-07-31T09:43:03Z</time>
      </trkpt>
      <trkpt lat="47.29795" lon="6.23413">
        <ele>274.6</ele>
        <time>2024-07-31T09:43:04Z</time>
      </trkpt>
      <trkpt lat="47.29788" lon="6.23405">
        <ele>274.8</ele>
        <time>2024-07-31T09:43:05Z</time>
      </trkpt>
      <trkpt lat="47.29783" lon="6.23397">
        <ele>274.8</ele>
        <time>2024-07-31T09:43:06Z</time>
      </trkpt>
      <trkpt lat="47.29778" lon="6.23389">
        <ele>274.8</ele>
        <time>2024-07-31T09:43:07Z</time>
      </trkpt>
      <trkpt lat="47.29773" lon="6.23381">
        <ele>274.8</ele>
        <time>2024-07-31T09:43:08Z</time>
      </trkpt>
      <trkpt lat="47.29769" lon="6.23374">
        <ele>275</ele>
        <time>2024-07-31T09:43:09Z</time>
      </trkpt>
      <trkpt lat="47.29765" lon="6.23367">
        <ele>274.6</ele>
        <time>2024-07-31T09:43:10Z</time>
      </trkpt>
      <trkpt lat="47.29761" lon="6.23361">
        <ele>274.6</ele>
        <time>2024-07-31T09:43:11Z</time>
      </trkpt>
      <trkpt lat="47.29758" lon="6.23355">
        <ele>274.6</ele>
        <time>2024-07-31T09:43:12Z</time>
      </trkpt>
      <trkpt lat="47.29755" lon="6.23349">
        <ele>274.8</ele>
        <time>2024-07-31T09:43:13Z</time>
      </trkpt>
      <trkpt lat="47.29751" lon="6.23343">
        <ele>274.6</ele>
        <time>2024-07-31T09:43:14Z</time>
      </trkpt>
      <trkpt lat="47.29748" lon="6.23337">
        <ele>274.4</ele>
        <time>2024-07-31T09:43:15Z</time>
      </trkpt>
      <trkpt lat="47.29745" lon="6.23331">
        <ele>274.4</ele>
        <time>2024-07-31T09:43:16Z</time>
      </trkpt>
      <trkpt lat="47.29742" lon="6.23325">
        <ele>274.4</ele>
        <time>2024-07-31T09:43:17Z</time>
      </trkpt>
      <trkpt lat="47.2974" lon="6.23319">
        <ele>274.4</ele>
        <time>2024-07-31T09:43:18Z</time>
      </trkpt>
      <trkpt lat="47.29738" lon="6.23312">
        <ele>274.4</ele>
        <time>2024-07-31T09:43:19Z</time>
      </trkpt>
      <trkpt lat="47.29736" lon="6.23306">
        <ele>274.4</ele>
        <time>2024-07-31T09:43:20Z</time>
      </trkpt>
      <trkpt lat="47.29733" lon="6.23302">
        <ele>274.4</ele>
        <time>2024-07-31T09:43:21Z</time>
      </trkpt>
      <trkpt lat="47.29729" lon="6.23301">
        <ele>274.6</ele>
        <time>2024-07-31T09:43:22Z</time>
      </trkpt>
      <trkpt lat="47.29725" lon="6.23302">
        <ele>274.4</ele>
        <time>2024-07-31T09:43:23Z</time>
      </trkpt>
      <trkpt lat="47.29721" lon="6.23303">
        <ele>274.2</ele>
        <time>2024-07-31T09:43:24Z</time>
      </trkpt>
      <trkpt lat="47.29717" lon="6.23305">
        <ele>273.8</ele>
        <time>2024-07-31T09:43:25Z</time>
      </trkpt>
      <trkpt lat="47.29713" lon="6.23308">
        <ele>273.6</ele>
        <time>2024-07-31T09:43:26Z</time>
      </trkpt>
      <trkpt lat="47.29709" lon="6.23311">
        <ele>273.2</ele>
        <time>2024-07-31T09:43:27Z</time>
      </trkpt>
      <trkpt lat="47.29705" lon="6.23315">
        <ele>273</ele>
        <time>2024-07-31T09:43:28Z</time>
      </trkpt>
      <trkpt lat="47.29701" lon="6.23318">
        <ele>272.8</ele>
        <time>2024-07-31T09:43:29Z</time>
      </trkpt>
      <trkpt lat="47.29696" lon="6.2332">
        <ele>272.6</ele>
        <time>2024-07-31T09:43:30Z</time>
      </trkpt>
      <trkpt lat="47.2969" lon="6.23321">
        <ele>272.4</ele>
        <time>2024-07-31T09:43:31Z</time>
      </trkpt>
      <trkpt lat="47.29685" lon="6.23322">
        <ele>272</ele>
        <time>2024-07-31T09:43:32Z</time>
      </trkpt>
      <trkpt lat="47.29679" lon="6.23325">
        <ele>272</ele>
        <time>2024-07-31T09:43:33Z</time>
      </trkpt>
      <trkpt lat="47.29673" lon="6.23328">
        <ele>271.8</ele>
        <time>2024-07-31T09:43:34Z</time>
      </trkpt>
      <trkpt lat="47.29667" lon="6.23331">
        <ele>271.6</ele>
        <time>2024-07-31T09:43:35Z</time>
      </trkpt>
      <trkpt lat="47.29662" lon="6.23334">
        <ele>271.2</ele>
        <time>2024-07-31T09:43:36Z</time>
      </trkpt>
      <trkpt lat="47.29656" lon="6.23339">
        <ele>270.8</ele>
        <time>2024-07-31T09:43:37Z</time>
      </trkpt>
      <trkpt lat="47.2965" lon="6.23342">
        <ele>271</ele>
        <time>2024-07-31T09:43:38Z</time>
      </trkpt>
      <trkpt lat="47.29644" lon="6.23343">
        <ele>271</ele>
        <time>2024-07-31T09:43:39Z</time>
      </trkpt>
      <trkpt lat="47.29639" lon="6.23342">
        <ele>271</ele>
        <time>2024-07-31T09:43:40Z</time>
      </trkpt>
      <trkpt lat="47.29634" lon="6.23338">
        <ele>271</ele>
        <time>2024-07-31T09:43:41Z</time>
      </trkpt>
      <trkpt lat="47.29631" lon="6.23332">
        <ele>270.8</ele>
        <time>2024-07-31T09:43:42Z</time>
      </trkpt>
      <trkpt lat="47.29628" lon="6.23326">
        <ele>270.8</ele>
        <time>2024-07-31T09:43:43Z</time>
      </trkpt>
      <trkpt lat="47.29625" lon="6.23319">
        <ele>271</ele>
        <time>2024-07-31T09:43:44Z</time>
      </trkpt>
      <trkpt lat="47.29622" lon="6.23311">
        <ele>271</ele>
        <time>2024-07-31T09:43:45Z</time>
      </trkpt>
      <trkpt lat="47.29619" lon="6.23304">
        <ele>271</ele>
        <time>2024-07-31T09:43:46Z</time>
      </trkpt>
      <trkpt lat="47.29617" lon="6.23296">
        <ele>270.8</ele>
        <time>2024-07-31T09:43:47Z</time>
      </trkpt>
      <trkpt lat="47.29614" lon="6.23288">
        <ele>270.8</ele>
        <time>2024-07-31T09:43:48Z</time>
      </trkpt>
      <trkpt lat="47.29612" lon="6.2328">
        <ele>271</ele>
        <time>2024-07-31T09:43:49Z</time>
      </trkpt>
      <trkpt lat="47.2961" lon="6.23272">
        <ele>271</ele>
        <time>2024-07-31T09:43:50Z</time>
      </trkpt>
      <trkpt lat="47.29608" lon="6.23264">
        <ele>271.2</ele>
        <time>2024-07-31T09:43:51Z</time>
      </trkpt>
      <trkpt lat="47.29606" lon="6.23255">
        <ele>271.2</ele>
        <time>2024-07-31T09:43:52Z</time>
      </trkpt>
      <trkpt lat="47.29604" lon="6.23246">
        <ele>271</ele>
        <time>2024-07-31T09:43:53Z</time>
      </trkpt>
      <trkpt lat="47.29602" lon="6.23237">
        <ele>271.2</ele>
        <time>2024-07-31T09:43:54Z</time>
      </trkpt>
      <trkpt lat="47.29601" lon="6.23228">
        <ele>271.4</ele>
        <time>2024-07-31T09:43:55Z</time>
      </trkpt>
      <trkpt lat="47.29599" lon="6.23218">
        <ele>271.2</ele>
        <time>2024-07-31T09:43:56Z</time>
      </trkpt>
      <trkpt lat="47.29598" lon="6.23209">
        <ele>271.2</ele>
        <time>2024-07-31T09:43:57Z</time>
      </trkpt>
      <trkpt lat="47.29597" lon="6.23199">
        <ele>271.2</ele>
        <time>2024-07-31T09:43:58Z</time>
      </trkpt>
      <trkpt lat="47.29596" lon="6.2319">
        <ele>271.2</ele>
        <time>2024-07-31T09:43:59Z</time>
      </trkpt>
      <trkpt lat="47.29596" lon="6.2318">
        <ele>271</ele>
        <time>2024-07-31T09:44:00Z</time>
      </trkpt>
      <trkpt lat="47.29596" lon="6.23171">
        <ele>271</ele>
        <time>2024-07-31T09:44:01Z</time>
      </trkpt>
      <trkpt lat="47.29596" lon="6.23161">
        <ele>271</ele>
        <time>2024-07-31T09:44:02Z</time>
      </trkpt>
      <trkpt lat="47.29597" lon="6.23151">
        <ele>271</ele>
        <time>2024-07-31T09:44:03Z</time>
      </trkpt>
      <trkpt lat="47.29598" lon="6.23141">
        <ele>271</ele>
        <time>2024-07-31T09:44:04Z</time>
      </trkpt>
      <trkpt lat="47.29599" lon="6.23131">
        <ele>271</ele>
        <time>2024-07-31T09:44:05Z</time>
      </trkpt>
      <trkpt lat="47.29601" lon="6.23121">
        <ele>270.8</ele>
        <time>2024-07-31T09:44:06Z</time>
      </trkpt>
      <trkpt lat="47.29602" lon="6.23112">
        <ele>270.8</ele>
        <time>2024-07-31T09:44:07Z</time>
      </trkpt>
      <trkpt lat="47.29602" lon="6.23102">
        <ele>270.8</ele>
        <time>2024-07-31T09:44:08Z</time>
      </trkpt>
      <trkpt lat="47.29603" lon="6.23093">
        <ele>270.8</ele>
        <time>2024-07-31T09:44:09Z</time>
      </trkpt>
      <trkpt lat="47.29603" lon="6.23083">
        <ele>270.8</ele>
        <time>2024-07-31T09:44:10Z</time>
      </trkpt>
      <trkpt lat="47.29604" lon="6.23074">
        <ele>270.8</ele>
        <time>2024-07-31T09:44:11Z</time>
      </trkpt>
      <trkpt lat="47.29604" lon="6.23065">
        <ele>270.6</ele>
        <time>2024-07-31T09:44:12Z</time>
      </trkpt>
      <trkpt lat="47.29604" lon="6.23055">
        <ele>270.6</ele>
        <time>2024-07-31T09:44:13Z</time>
      </trkpt>
      <trkpt lat="47.29605" lon="6.23045">
        <ele>270.6</ele>
        <time>2024-07-31T09:44:14Z</time>
      </trkpt>
      <trkpt lat="47.29606" lon="6.23036">
        <ele>270.4</ele>
        <time>2024-07-31T09:44:15Z</time>
      </trkpt>
      <trkpt lat="47.29607" lon="6.23026">
        <ele>270.4</ele>
        <time>2024-07-31T09:44:16Z</time>
      </trkpt>
      <trkpt lat="47.29608" lon="6.23017">
        <ele>270.4</ele>
        <time>2024-07-31T09:44:17Z</time>
      </trkpt>
      <trkpt lat="47.29609" lon="6.23007">
        <ele>270.2</ele>
        <time>2024-07-31T09:44:18Z</time>
      </trkpt>
      <trkpt lat="47.2961" lon="6.22998">
        <ele>270.2</ele>
        <time>2024-07-31T09:44:19Z</time>
      </trkpt>
      <trkpt lat="47.29611" lon="6.22987">
        <ele>270.4</ele>
        <time>2024-07-31T09:44:20Z</time>
      </trkpt>
      <trkpt lat="47.29613" lon="6.22978">
        <ele>270.8</ele>
        <time>2024-07-31T09:44:21Z</time>
      </trkpt>
      <trkpt lat="47.29614" lon="6.22968">
        <ele>270.8</ele>
        <time>2024-07-31T09:44:22Z</time>
      </trkpt>
      <trkpt lat="47.29616" lon="6.22959">
        <ele>270.6</ele>
        <time>2024-07-31T09:44:23Z</time>
      </trkpt>
      <trkpt lat="47.29618" lon="6.2295">
        <ele>270.6</ele>
        <time>2024-07-31T09:44:24Z</time>
      </trkpt>
      <trkpt lat="47.2962" lon="6.22942">
        <ele>270.8</ele>
        <time>2024-07-31T09:44:25Z</time>
      </trkpt>
      <trkpt lat="47.29623" lon="6.22934">
        <ele>271</ele>
        <time>2024-07-31T09:44:26Z</time>
      </trkpt>
      <trkpt lat="47.29626" lon="6.22926">
        <ele>271</ele>
        <time>2024-07-31T09:44:27Z</time>
      </trkpt>
      <trkpt lat="47.29628" lon="6.22918">
        <ele>271.2</ele>
        <time>2024-07-31T09:44:28Z</time>
      </trkpt>
      <trkpt lat="47.29631" lon="6.2291">
        <ele>271.2</ele>
        <time>2024-07-31T09:44:29Z</time>
      </trkpt>
      <trkpt lat="47.29634" lon="6.22902">
        <ele>271.2</ele>
        <time>2024-07-31T09:44:30Z</time>
      </trkpt>
      <trkpt lat="47.29637" lon="6.22894">
        <ele>271.4</ele>
        <time>2024-07-31T09:44:31Z</time>
      </trkpt>
      <trkpt lat="47.2964" lon="6.22888">
        <ele>271.4</ele>
        <time>2024-07-31T09:44:32Z</time>
      </trkpt>
      <trkpt lat="47.29641" lon="6.22882">
        <ele>270.8</ele>
        <time>2024-07-31T09:44:33Z</time>
      </trkpt>
      <trkpt lat="47.29641" lon="6.22878">
        <ele>270.4</ele>
        <time>2024-07-31T09:44:34Z</time>
      </trkpt>
      <trkpt lat="47.29641" lon="6.22875">
        <ele>270</ele>
        <time>2024-07-31T09:44:35Z</time>
      </trkpt>
      <trkpt lat="47.29641" lon="6.22872">
        <ele>269.8</ele>
        <time>2024-07-31T09:44:36Z</time>
      </trkpt>
      <trkpt lat="47.29641" lon="6.22871">
        <ele>269.8</ele>
        <time>2024-07-31T09:44:37Z</time>
      </trkpt>
      <trkpt lat="47.2964" lon="6.22871">
        <ele>269.8</ele>
        <time>2024-07-31T09:44:38Z</time>
      </trkpt>
      <trkpt lat="47.2964" lon="6.22871">
        <ele>269.8</ele>
        <time>2024-07-31T09:44:39Z</time>
      </trkpt>
      <trkpt lat="47.2964" lon="6.22871">
        <ele>269.6</ele>
        <time>2024-07-31T09:44:40Z</time>
      </trkpt>
      <trkpt lat="47.2964" lon="6.22871">
        <ele>269.6</ele>
        <time>2024-07-31T09:44:41Z</time>
      </trkpt>
      <trkpt lat="47.2964" lon="6.22871">
        <ele>269.6</ele>
        <time>2024-07-31T09:44:42Z</time>
      </trkpt>
      <trkpt lat="47.2964" lon="6.22871">
        <ele>269.6</ele>
        <time>2024-07-31T09:44:43Z</time>
      </trkpt>
      <trkpt lat="47.2964" lon="6.22871">
        <ele>269.6</ele>
        <time>2024-07-31T09:44:44Z</time>
      </trkpt>
      <trkpt lat="47.2964" lon="6.22871">
        <ele>269.6</ele>
        <time>2024-07-31T09:44:45Z</time>
      </trkpt>
      <trkpt lat="47.2964" lon="6.22872">
        <ele>269.6</ele>
        <time>2024-07-31T09:44:46Z</time>
      </trkpt>
      <trkpt lat="47.2964" lon="6.22872">
        <ele>269.4</ele>
        <time>2024-07-31T09:44:47Z</time>
      </trkpt>
      <trkpt lat="47.29639" lon="6.22872">
        <ele>269.4</ele>
        <time>2024-07-31T09:44:48Z</time>
      </trkpt>
      <trkpt lat="47.29639" lon="6.22872">
        <ele>269.4</ele>
        <time>2024-07-31T09:44:49Z</time>
      </trkpt>
      <trkpt lat="47.29639" lon="6.22872">
        <ele>269.4</ele>
        <time>2024-07-31T09:44:50Z</time>
      </trkpt>
      <trkpt lat="47.29639" lon="6.22872">
        <ele>269.2</ele>
        <time>2024-07-31T09:44:51Z</time>
      </trkpt>
      <trkpt lat="47.29639" lon="6.22872">
        <ele>269.4</ele>
        <time>2024-07-31T09:44:52Z</time>
      </trkpt>
      <trkpt lat="47.29639" lon="6.22872">
        <ele>269.2</ele>
        <time>2024-07-31T09:44:53Z</time>
      </trkpt>
      <trkpt lat="47.29638" lon="6.22872">
        <ele>269.4</ele>
        <time>2024-07-31T09:44:54Z</time>
      </trkpt>
      <trkpt lat="47.29638" lon="6.22872">
        <ele>269.4</ele>
        <time>2024-07-31T09:44:55Z</time>
      </trkpt>
      <trkpt lat="47.29638" lon="6.22872">
        <ele>269.2</ele>
        <time>2024-07-31T09:44:56Z</time>
      </trkpt>
      <trkpt lat="47.29638" lon="6.22872">
        <ele>269.4</ele>
        <time>2024-07-31T09:44:57Z</time>
      </trkpt>
      <trkpt lat="47.29638" lon="6.22872">
        <ele>269.4</ele>
        <time>2024-07-31T09:44:58Z</time>
      </trkpt>
      <trkpt lat="47.29638" lon="6.22872">
        <ele>269.4</ele>
        <time>2024-07-31T09:44:59Z</time>
      </trkpt>
      <trkpt lat="47.29638" lon="6.22872">
        <ele>269.2</ele>
        <time>2024-07-31T09:45:00Z</time>
      </trkpt>
      <trkpt lat="47.29638" lon="6.22872">
        <ele>269.2</ele>
        <time>2024-07-31T09:45:01Z</time>
      </trkpt>
      <trkpt lat="47.29638" lon="6.22872">
        <ele>269.4</ele>
        <time>2024-07-31T09:45:02Z</time>
      </trkpt>
      <trkpt lat="47.29638" lon="6.22873">
        <ele>269.2</ele>
        <time>2024-07-31T09:45:03Z</time>
      </trkpt>
      <trkpt lat="47.29638" lon="6.22873">
        <ele>269.4</ele>
        <time>2024-07-31T09:45:04Z</time>
      </trkpt>
      <trkpt lat="47.29637" lon="6.22873">
        <ele>269.4</ele>
        <time>2024-07-31T09:45:05Z</time>
      </trkpt>
      <trkpt lat="47.29638" lon="6.22873">
        <ele>269.2</ele>
        <time>2024-07-31T09:45:06Z</time>
      </trkpt>
      <trkpt lat="47.29637" lon="6.22873">
        <ele>269.2</ele>
        <time>2024-07-31T09:45:07Z</time>
      </trkpt>
      <trkpt lat="47.29637" lon="6.22874">
        <ele>269.2</ele>
        <time>2024-07-31T09:45:08Z</time>
      </trkpt>
      <trkpt lat="47.29638" lon="6.22874">
        <ele>269.4</ele>
        <time>2024-07-31T09:45:09Z</time>
      </trkpt>
      <trkpt lat="47.29638" lon="6.22874">
        <ele>269.2</ele>
        <time>2024-07-31T09:45:10Z</time>
      </trkpt>
      <trkpt lat="47.29638" lon="6.22874">
        <ele>269.2</ele>
        <time>2024-07-31T09:45:11Z</time>
      </trkpt>
      <trkpt lat="47.29638" lon="6.22874">
        <ele>269</ele>
        <time>2024-07-31T09:45:12Z</time>
      </trkpt>
      <trkpt lat="47.29638" lon="6.22874">
        <ele>269.2</ele>
        <time>2024-07-31T09:45:13Z</time>
      </trkpt>
      <trkpt lat="47.29638" lon="6.22874">
        <ele>269.2</ele>
        <time>2024-07-31T09:45:14Z</time>
      </trkpt>
      <trkpt lat="47.29638" lon="6.22874">
        <ele>269.2</ele>
        <time>2024-07-31T09:45:15Z</time>
      </trkpt>
      <trkpt lat="47.29638" lon="6.22874">
        <ele>269</ele>
        <time>2024-07-31T09:45:16Z</time>
      </trkpt>
      <trkpt lat="47.29638" lon="6.22874">
        <ele>269</ele>
        <time>2024-07-31T09:45:17Z</time>
      </trkpt>
      <trkpt lat="47.29638" lon="6.22874">
        <ele>268.8</ele>
        <time>2024-07-31T09:45:18Z</time>
      </trkpt>
      <trkpt lat="47.29638" lon="6.22874">
        <ele>268.8</ele>
        <time>2024-07-31T09:45:19Z</time>
      </trkpt>
      <trkpt lat="47.29638" lon="6.22874">
        <ele>268.8</ele>
        <time>2024-07-31T09:45:20Z</time>
      </trkpt>
      <trkpt lat="47.29637" lon="6.22874">
        <ele>268.8</ele>
        <time>2024-07-31T09:45:21Z</time>
      </trkpt>
      <trkpt lat="47.29637" lon="6.22874">
        <ele>268.8</ele>
        <time>2024-07-31T09:45:22Z</time>
      </trkpt>
      <trkpt lat="47.29637" lon="6.22875">
        <ele>268.8</ele>
        <time>2024-07-31T09:45:23Z</time>
      </trkpt>
      <trkpt lat="47.29637" lon="6.22875">
        <ele>268.8</ele>
        <time>2024-07-31T09:45:24Z</time>
      </trkpt>
      <trkpt lat="47.29637" lon="6.22875">
        <ele>268.8</ele>
        <time>2024-07-31T09:45:25Z</time>
      </trkpt>
      <trkpt lat="47.29637" lon="6.22875">
        <ele>268.8</ele>
        <time>2024-07-31T09:45:26Z</time>
      </trkpt>
      <trkpt lat="47.29637" lon="6.22874">
        <ele>268.8</ele>
        <time>2024-07-31T09:45:27Z</time>
      </trkpt>
      <trkpt lat="47.29637" lon="6.22874">
        <ele>268.8</ele>
        <time>2024-07-31T09:45:28Z</time>
      </trkpt>
      <trkpt lat="47.29637" lon="6.22874">
        <ele>268.8</ele>
        <time>2024-07-31T09:45:29Z</time>
      </trkpt>
      <trkpt lat="47.29637" lon="6.22875">
        <ele>268.8</ele>
        <time>2024-07-31T09:45:30Z</time>
      </trkpt>
      <trkpt lat="47.29637" lon="6.22875">
        <ele>268.8</ele>
        <time>2024-07-31T09:45:31Z</time>
      </trkpt>
      <trkpt lat="47.29637" lon="6.22875">
        <ele>268.8</ele>
        <time>2024-07-31T09:45:32Z</time>
      </trkpt>
      <trkpt lat="47.29637" lon="6.22875">
        <ele>268.8</ele>
        <time>2024-07-31T09:45:33Z</time>
      </trkpt>
      <trkpt lat="47.29637" lon="6.22876">
        <ele>268.8</ele>
        <time>2024-07-31T09:45:34Z</time>
      </trkpt>
      <trkpt lat="47.29637" lon="6.22876">
        <ele>268.6</ele>
        <time>2024-07-31T09:45:35Z</time>
      </trkpt>
      <trkpt lat="47.29637" lon="6.22876">
        <ele>268.2</ele>
        <time>2024-07-31T09:45:36Z</time>
      </trkpt>
      <trkpt lat="47.29637" lon="6.22877">
        <ele>268</ele>
        <time>2024-07-31T09:45:37Z</time>
      </trkpt>
      <trkpt lat="47.29637" lon="6.22877">
        <ele>268</ele>
        <time>2024-07-31T09:45:38Z</time>
      </trkpt>
      <trkpt lat="47.29638" lon="6.22877">
        <ele>268</ele>
        <time>2024-07-31T09:45:39Z</time>
      </trkpt>
      <trkpt lat="47.29638" lon="6.22878">
        <ele>268</ele>
        <time>2024-07-31T09:45:40Z</time>
      </trkpt>
      <trkpt lat="47.29638" lon="6.22878">
        <ele>268.2</ele>
        <time>2024-07-31T09:45:41Z</time>
      </trkpt>
      <trkpt lat="47.29638" lon="6.22878">
        <ele>268.4</ele>
        <time>2024-07-31T09:45:42Z</time>
      </trkpt>
      <trkpt lat="47.29638" lon="6.22879">
        <ele>268.2</ele>
        <time>2024-07-31T09:45:43Z</time>
      </trkpt>
      <trkpt lat="47.29638" lon="6.22879">
        <ele>268.2</ele>
        <time>2024-07-31T09:45:44Z</time>
      </trkpt>
      <trkpt lat="47.29638" lon="6.22879">
        <ele>268.2</ele>
        <time>2024-07-31T09:45:45Z</time>
      </trkpt>
      <trkpt lat="47.29638" lon="6.22879">
        <ele>268.2</ele>
        <time>2024-07-31T09:45:46Z</time>
      </trkpt>
      <trkpt lat="47.29639" lon="6.22879">
        <ele>268.2</ele>
        <time>2024-07-31T09:45:47Z</time>
      </trkpt>
      <trkpt lat="47.29639" lon="6.22879">
        <ele>268.2</ele>
        <time>2024-07-31T09:45:48Z</time>
      </trkpt>
      <trkpt lat="47.29639" lon="6.22879">
        <ele>268.4</ele>
        <time>2024-07-31T09:45:49Z</time>
      </trkpt>
      <trkpt lat="47.29639" lon="6.22879">
        <ele>268.4</ele>
        <time>2024-07-31T09:45:50Z</time>
      </trkpt>
      <trkpt lat="47.29639" lon="6.22879">
        <ele>268.4</ele>
        <time>2024-07-31T09:45:51Z</time>
      </trkpt>
      <trkpt lat="47.29639" lon="6.22879">
        <ele>268.4</ele>
        <time>2024-07-31T09:45:52Z</time>
      </trkpt>
      <trkpt lat="47.29639" lon="6.22879">
        <ele>268.4</ele>
        <time>2024-07-31T09:45:53Z</time>
      </trkpt>
      <trkpt lat="47.29639" lon="6.22879">
        <ele>268.4</ele>
        <time>2024-07-31T09:45:54Z</time>
      </trkpt>
      <trkpt lat="47.29639" lon="6.22879">
        <ele>268.4</ele>
        <time>2024-07-31T09:45:55Z</time>
      </trkpt>
      <trkpt lat="47.29639" lon="6.22879">
        <ele>268.4</ele>
        <time>2024-07-31T09:45:56Z</time>
      </trkpt>
      <trkpt lat="47.29639" lon="6.22879">
        <ele>268.4</ele>
        <time>2024-07-31T09:45:57Z</time>
      </trkpt>
      <trkpt lat="47.29639" lon="6.22879">
        <ele>268.4</ele>
        <time>2024-07-31T09:45:58Z</time>
      </trkpt>
      <trkpt lat="47.29639" lon="6.22879">
        <ele>268.6</ele>
        <time>2024-07-31T09:45:59Z</time>
      </trkpt>
      <trkpt lat="47.29639" lon="6.22879">
        <ele>268.6</ele>
        <time>2024-07-31T09:46:00Z</time>
      </trkpt>
      <trkpt lat="47.29639" lon="6.22879">
        <ele>268.8</ele>
        <time>2024-07-31T09:46:01Z</time>
      </trkpt>
      <trkpt lat="47.29639" lon="6.22879">
        <ele>269</ele>
        <time>2024-07-31T09:46:02Z</time>
      </trkpt>
      <trkpt lat="47.29639" lon="6.22879">
        <ele>269</ele>
        <time>2024-07-31T09:46:03Z</time>
      </trkpt>
      <trkpt lat="47.29639" lon="6.22879">
        <ele>269</ele>
        <time>2024-07-31T09:46:04Z</time>
      </trkpt>
      <trkpt lat="47.29639" lon="6.22879">
        <ele>269</ele>
        <time>2024-07-31T09:46:05Z</time>
      </trkpt>
      <trkpt lat="47.29639" lon="6.22879">
        <ele>269</ele>
        <time>2024-07-31T09:46:06Z</time>
      </trkpt>
      <trkpt lat="47.29639" lon="6.22879">
        <ele>269</ele>
        <time>2024-07-31T09:46:07Z</time>
      </trkpt>
      <trkpt lat="47.29639" lon="6.22879">
        <ele>269</ele>
        <time>2024-07-31T09:46:08Z</time>
      </trkpt>
      <trkpt lat="47.29639" lon="6.22879">
        <ele>269</ele>
        <time>2024-07-31T09:46:09Z</time>
      </trkpt>
      <trkpt lat="47.29639" lon="6.22879">
        <ele>269</ele>
        <time>2024-07-31T09:46:10Z</time>
      </trkpt>
      <trkpt lat="47.29639" lon="6.22879">
        <ele>269.2</ele>
        <time>2024-07-31T09:46:11Z</time>
      </trkpt>
      <trkpt lat="47.29639" lon="6.22879">
        <ele>269.2</ele>
        <time>2024-07-31T09:46:12Z</time>
      </trkpt>
      <trkpt lat="47.29639" lon="6.22879">
        <ele>269.2</ele>
        <time>2024-07-31T09:46:13Z</time>
      </trkpt>
      <trkpt lat="47.29639" lon="6.22879">
        <ele>269</ele>
        <time>2024-07-31T09:46:14Z</time>
      </trkpt>
      <trkpt lat="47.29639" lon="6.22879">
        <ele>269.2</ele>
        <time>2024-07-31T09:46:15Z</time>
      </trkpt>
      <trkpt lat="47.29639" lon="6.22879">
        <ele>269.4</ele>
        <time>2024-07-31T09:46:16Z</time>
      </trkpt>
      <trkpt lat="47.29639" lon="6.22879">
        <ele>269.4</ele>
        <time>2024-07-31T09:46:17Z</time>
      </trkpt>
      <trkpt lat="47.29639" lon="6.22879">
        <ele>269.4</ele>
        <time>2024-07-31T09:46:18Z</time>
      </trkpt>
      <trkpt lat="47.29639" lon="6.22879">
        <ele>269.4</ele>
        <time>2024-07-31T09:46:19Z</time>
      </trkpt>
      <trkpt lat="47.29639" lon="6.22879">
        <ele>269.2</ele>
        <time>2024-07-31T09:46:20Z</time>
      </trkpt>
      <trkpt lat="47.29639" lon="6.22879">
        <ele>269.2</ele>
        <time>2024-07-31T09:46:21Z</time>
      </trkpt>
      <trkpt lat="47.29639" lon="6.22879">
        <ele>269</ele>
        <time>2024-07-31T09:46:22Z</time>
      </trkpt>
      <trkpt lat="47.29639" lon="6.22879">
        <ele>269</ele>
        <time>2024-07-31T09:46:23Z</time>
      </trkpt>
      <trkpt lat="47.29639" lon="6.22879">
        <ele>269</ele>
        <time>2024-07-31T09:46:24Z</time>
      </trkpt>
      <trkpt lat="47.29639" lon="6.22879">
        <ele>269.2</ele>
        <time>2024-07-31T09:46:25Z</time>
      </trkpt>
      <trkpt lat="47.29639" lon="6.22879">
        <ele>269</ele>
        <time>2024-07-31T09:46:26Z</time>
      </trkpt>
      <trkpt lat="47.29639" lon="6.22879">
        <ele>269</ele>
        <time>2024-07-31T09:46:27Z</time>
      </trkpt>
      <trkpt lat="47.29639" lon="6.22879">
        <ele>268.8</ele>
        <time>2024-07-31T09:46:28Z</time>
      </trkpt>
      <trkpt lat="47.29639" lon="6.22879">
        <ele>268.8</ele>
        <time>2024-07-31T09:46:29Z</time>
      </trkpt>
      <trkpt lat="47.29639" lon="6.22879">
        <ele>268.6</ele>
        <time>2024-07-31T09:46:30Z</time>
      </trkpt>
      <trkpt lat="47.29639" lon="6.22879">
        <ele>268.6</ele>
        <time>2024-07-31T09:46:31Z</time>
      </trkpt>
      <trkpt lat="47.29639" lon="6.22879">
        <ele>268.4</ele>
        <time>2024-07-31T09:46:32Z</time>
      </trkpt>
      <trkpt lat="47.29639" lon="6.22879">
        <ele>268.4</ele>
        <time>2024-07-31T09:46:33Z</time>
      </trkpt>
      <trkpt lat="47.29639" lon="6.22879">
        <ele>268.4</ele>
        <time>2024-07-31T09:46:34Z</time>
      </trkpt>
      <trkpt lat="47.29639" lon="6.22879">
        <ele>268.4</ele>
        <time>2024-07-31T09:46:35Z</time>
      </trkpt>
      <trkpt lat="47.29639" lon="6.22879">
        <ele>268.2</ele>
        <time>2024-07-31T09:46:36Z</time>
      </trkpt>
      <trkpt lat="47.29639" lon="6.22879">
        <ele>268.2</ele>
        <time>2024-07-31T09:46:37Z</time>
      </trkpt>
      <trkpt lat="47.29639" lon="6.22879">
        <ele>268.2</ele>
        <time>2024-07-31T09:46:38Z</time>
      </trkpt>
      <trkpt lat="47.29639" lon="6.22879">
        <ele>268.2</ele>
        <time>2024-07-31T09:46:39Z</time>
      </trkpt>
      <trkpt lat="47.29639" lon="6.22879">
        <ele>268.2</ele>
        <time>2024-07-31T09:46:40Z</time>
      </trkpt>
      <trkpt lat="47.29639" lon="6.22879">
        <ele>268.4</ele>
        <time>2024-07-31T09:46:41Z</time>
      </trkpt>
      <trkpt lat="47.29639" lon="6.22879">
        <ele>268.2</ele>
        <time>2024-07-31T09:46:42Z</time>
      </trkpt>
      <trkpt lat="47.29639" lon="6.22879">
        <ele>268.2</ele>
        <time>2024-07-31T09:46:43Z</time>
      </trkpt>
      <trkpt lat="47.29639" lon="6.22879">
        <ele>268</ele>
        <time>2024-07-31T09:46:44Z</time>
      </trkpt>
      <trkpt lat="47.29639" lon="6.22879">
        <ele>268</ele>
        <time>2024-07-31T09:46:45Z</time>
      </trkpt>
      <trkpt lat="47.29639" lon="6.22879">
        <ele>268</ele>
        <time>2024-07-31T09:46:46Z</time>
      </trkpt>
      <trkpt lat="47.29639" lon="6.22879">
        <ele>267.8</ele>
        <time>2024-07-31T09:46:47Z</time>
      </trkpt>
      <trkpt lat="47.29639" lon="6.22879">
        <ele>267.8</ele>
        <time>2024-07-31T09:46:48Z</time>
      </trkpt>
      <trkpt lat="47.29639" lon="6.22879">
        <ele>267.8</ele>
        <time>2024-07-31T09:46:49Z</time>
      </trkpt>
      <trkpt lat="47.29639" lon="6.22879">
        <ele>267.8</ele>
        <time>2024-07-31T09:46:50Z</time>
      </trkpt>
      <trkpt lat="47.29639" lon="6.22879">
        <ele>268</ele>
        <time>2024-07-31T09:46:51Z</time>
      </trkpt>
      <trkpt lat="47.29639" lon="6.22879">
        <ele>268</ele>
        <time>2024-07-31T09:46:52Z</time>
      </trkpt>
      <trkpt lat="47.29639" lon="6.22879">
        <ele>268</ele>
        <time>2024-07-31T09:46:53Z</time>
      </trkpt>
      <trkpt lat="47.29639" lon="6.22879">
        <ele>268</ele>
        <time>2024-07-31T09:46:54Z</time>
      </trkpt>
      <trkpt lat="47.29639" lon="6.22879">
        <ele>268.2</ele>
        <time>2024-07-31T09:46:55Z</time>
      </trkpt>
      <trkpt lat="47.29639" lon="6.22879">
        <ele>268.2</ele>
        <time>2024-07-31T09:46:56Z</time>
      </trkpt>
      <trkpt lat="47.29639" lon="6.22879">
        <ele>268.4</ele>
        <time>2024-07-31T09:46:57Z</time>
      </trkpt>
      <trkpt lat="47.29639" lon="6.22879">
        <ele>268.4</ele>
        <time>2024-07-31T09:46:58Z</time>
      </trkpt>
      <trkpt lat="47.29639" lon="6.22879">
        <ele>268.4</ele>
        <time>2024-07-31T09:46:59Z</time>
      </trkpt>
      <trkpt lat="47.29639" lon="6.22879">
        <ele>268.4</ele>
        <time>2024-07-31T09:47:00Z</time>
      </trkpt>
      <trkpt lat="47.29639" lon="6.22879">
        <ele>268.2</ele>
        <time>2024-07-31T09:47:01Z</time>
      </trkpt>
      <trkpt lat="47.29639" lon="6.22879">
        <ele>268.2</ele>
        <time>2024-07-31T09:47:02Z</time>
      </trkpt>
      <trkpt lat="47.29639" lon="6.22879">
        <ele>268.4</ele>
        <time>2024-07-31T09:47:03Z</time>
      </trkpt>
      <trkpt lat="47.29639" lon="6.22879">
        <ele>268.4</ele>
        <time>2024-07-31T09:47:04Z</time>
      </trkpt>
      <trkpt lat="47.29639" lon="6.22879">
        <ele>268.6</ele>
        <time>2024-07-31T09:47:05Z</time>
      </trkpt>
      <trkpt lat="47.2964" lon="6.22879">
        <ele>269</ele>
        <time>2024-07-31T09:47:06Z</time>
      </trkpt>
      <trkpt lat="47.29641" lon="6.22879">
        <ele>269.2</ele>
        <time>2024-07-31T09:47:07Z</time>
      </trkpt>
      <trkpt lat="47.29641" lon="6.22879">
        <ele>269.2</ele>
        <time>2024-07-31T09:47:08Z</time>
      </trkpt>
      <trkpt lat="47.29642" lon="6.2288">
        <ele>269.2</ele>
        <time>2024-07-31T09:47:09Z</time>
      </trkpt>
      <trkpt lat="47.29643" lon="6.22881">
        <ele>269.4</ele>
        <time>2024-07-31T09:47:10Z</time>
      </trkpt>
      <trkpt lat="47.29643" lon="6.22881">
        <ele>269.2</ele>
        <time>2024-07-31T09:47:11Z</time>
      </trkpt>
      <trkpt lat="47.29644" lon="6.22882">
        <ele>269.4</ele>
        <time>2024-07-31T09:47:12Z</time>
      </trkpt>
      <trkpt lat="47.29645" lon="6.22883">
        <ele>269.4</ele>
        <time>2024-07-31T09:47:13Z</time>
      </trkpt>
      <trkpt lat="47.29645" lon="6.22884">
        <ele>269.4</ele>
        <time>2024-07-31T09:47:14Z</time>
      </trkpt>
      <trkpt lat="47.29646" lon="6.22885">
        <ele>269.6</ele>
        <time>2024-07-31T09:47:15Z</time>
      </trkpt>
      <trkpt lat="47.29647" lon="6.22885">
        <ele>269.8</ele>
        <time>2024-07-31T09:47:16Z</time>
      </trkpt>
      <trkpt lat="47.29647" lon="6.22885">
        <ele>269.8</ele>
        <time>2024-07-31T09:47:17Z</time>
      </trkpt>
      <trkpt lat="47.29648" lon="6.22884">
        <ele>269.8</ele>
        <time>2024-07-31T09:47:18Z</time>
      </trkpt>
      <trkpt lat="47.29648" lon="6.22883">
        <ele>269.8</ele>
        <time>2024-07-31T09:47:19Z</time>
      </trkpt>
      <trkpt lat="47.29648" lon="6.22882">
        <ele>269.8</ele>
        <time>2024-07-31T09:47:20Z</time>
      </trkpt>
      <trkpt lat="47.29649" lon="6.22881">
        <ele>270</ele>
        <time>2024-07-31T09:47:21Z</time>
      </trkpt>
      <trkpt lat="47.29648" lon="6.2288">
        <ele>270</ele>
        <time>2024-07-31T09:47:22Z</time>
      </trkpt>
      <trkpt lat="47.29647" lon="6.22879">
        <ele>270</ele>
        <time>2024-07-31T09:47:23Z</time>
      </trkpt>
      <trkpt lat="47.29647" lon="6.22879">
        <ele>270</ele>
        <time>2024-07-31T09:47:24Z</time>
      </trkpt>
      <trkpt lat="47.29646" lon="6.22878">
        <ele>270.2</ele>
        <time>2024-07-31T09:47:25Z</time>
      </trkpt>
      <trkpt lat="47.29645" lon="6.22877">
        <ele>270</ele>
        <time>2024-07-31T09:47:26Z</time>
      </trkpt>
      <trkpt lat="47.29646" lon="6.22876">
        <ele>269.8</ele>
        <time>2024-07-31T09:47:27Z</time>
      </trkpt>
      <trkpt lat="47.29646" lon="6.22874">
        <ele>269.8</ele>
        <time>2024-07-31T09:47:28Z</time>
      </trkpt>
      <trkpt lat="47.29647" lon="6.22872">
        <ele>270</ele>
        <time>2024-07-31T09:47:29Z</time>
      </trkpt>
      <trkpt lat="47.29648" lon="6.2287">
        <ele>270</ele>
        <time>2024-07-31T09:47:30Z</time>
      </trkpt>
      <trkpt lat="47.2965" lon="6.22867">
        <ele>270.2</ele>
        <time>2024-07-31T09:47:31Z</time>
      </trkpt>
      <trkpt lat="47.29652" lon="6.22865">
        <ele>270.2</ele>
        <time>2024-07-31T09:47:32Z</time>
      </trkpt>
      <trkpt lat="47.29653" lon="6.22862">
        <ele>270.2</ele>
        <time>2024-07-31T09:47:33Z</time>
      </trkpt>
      <trkpt lat="47.29655" lon="6.22859">
        <ele>270.2</ele>
        <time>2024-07-31T09:47:34Z</time>
      </trkpt>
      <trkpt lat="47.29657" lon="6.22855">
        <ele>270.2</ele>
        <time>2024-07-31T09:47:35Z</time>
      </trkpt>
      <trkpt lat="47.29659" lon="6.22851">
        <ele>270.4</ele>
        <time>2024-07-31T09:47:36Z</time>
      </trkpt>
      <trkpt lat="47.2966" lon="6.22847">
        <ele>270.4</ele>
        <time>2024-07-31T09:47:37Z</time>
      </trkpt>
      <trkpt lat="47.29662" lon="6.22842">
        <ele>270.2</ele>
        <time>2024-07-31T09:47:38Z</time>
      </trkpt>
      <trkpt lat="47.29664" lon="6.22838">
        <ele>270.2</ele>
        <time>2024-07-31T09:47:39Z</time>
      </trkpt>
      <trkpt lat="47.29666" lon="6.22833">
        <ele>270.4</ele>
        <time>2024-07-31T09:47:40Z</time>
      </trkpt>
      <trkpt lat="47.29668" lon="6.22828">
        <ele>270.2</ele>
        <time>2024-07-31T09:47:41Z</time>
      </trkpt>
      <trkpt lat="47.2967" lon="6.22823">
        <ele>270.4</ele>
        <time>2024-07-31T09:47:42Z</time>
      </trkpt>
      <trkpt lat="47.29673" lon="6.22817">
        <ele>270.2</ele>
        <time>2024-07-31T09:47:43Z</time>
      </trkpt>
      <trkpt lat="47.29675" lon="6.22812">
        <ele>270.2</ele>
        <time>2024-07-31T09:47:44Z</time>
      </trkpt>
      <trkpt lat="47.29678" lon="6.22806">
        <ele>270.2</ele>
        <time>2024-07-31T09:47:45Z</time>
      </trkpt>
      <trkpt lat="47.29681" lon="6.22801">
        <ele>270.2</ele>
        <time>2024-07-31T09:47:46Z</time>
      </trkpt>
      <trkpt lat="47.29683" lon="6.22795">
        <ele>270.2</ele>
        <time>2024-07-31T09:47:47Z</time>
      </trkpt>
      <trkpt lat="47.29686" lon="6.22789">
        <ele>270</ele>
        <time>2024-07-31T09:47:48Z</time>
      </trkpt>
      <trkpt lat="47.29689" lon="6.22783">
        <ele>270.2</ele>
        <time>2024-07-31T09:47:49Z</time>
      </trkpt>
      <trkpt lat="47.29691" lon="6.22777">
        <ele>270.4</ele>
        <time>2024-07-31T09:47:50Z</time>
      </trkpt>
      <trkpt lat="47.29694" lon="6.2277">
        <ele>270.4</ele>
        <time>2024-07-31T09:47:51Z</time>
      </trkpt>
      <trkpt lat="47.29697" lon="6.22764">
        <ele>270.4</ele>
        <time>2024-07-31T09:47:52Z</time>
      </trkpt>
      <trkpt lat="47.29701" lon="6.22757">
        <ele>270.2</ele>
        <time>2024-07-31T09:47:53Z</time>
      </trkpt>
      <trkpt lat="47.29704" lon="6.22751">
        <ele>270.2</ele>
        <time>2024-07-31T09:47:54Z</time>
      </trkpt>
      <trkpt lat="47.29707" lon="6.22744">
        <ele>270.2</ele>
        <time>2024-07-31T09:47:55Z</time>
      </trkpt>
      <trkpt lat="47.2971" lon="6.22737">
        <ele>270.2</ele>
        <time>2024-07-31T09:47:56Z</time>
      </trkpt>
      <trkpt lat="47.29713" lon="6.2273">
        <ele>270.4</ele>
        <time>2024-07-31T09:47:57Z</time>
      </trkpt>
      <trkpt lat="47.29716" lon="6.22723">
        <ele>270.4</ele>
        <time>2024-07-31T09:47:58Z</time>
      </trkpt>
      <trkpt lat="47.29719" lon="6.22716">
        <ele>270.2</ele>
        <time>2024-07-31T09:47:59Z</time>
      </trkpt>
      <trkpt lat="47.29723" lon="6.22709">
        <ele>270.2</ele>
        <time>2024-07-31T09:48:00Z</time>
      </trkpt>
      <trkpt lat="47.29726" lon="6.22702">
        <ele>270.4</ele>
        <time>2024-07-31T09:48:01Z</time>
      </trkpt>
      <trkpt lat="47.29729" lon="6.22695">
        <ele>270.6</ele>
        <time>2024-07-31T09:48:02Z</time>
      </trkpt>
      <trkpt lat="47.29733" lon="6.22688">
        <ele>270.6</ele>
        <time>2024-07-31T09:48:03Z</time>
      </trkpt>
      <trkpt lat="47.29736" lon="6.22681">
        <ele>270.6</ele>
        <time>2024-07-31T09:48:04Z</time>
      </trkpt>
      <trkpt lat="47.29739" lon="6.22675">
        <ele>270.6</ele>
        <time>2024-07-31T09:48:05Z</time>
      </trkpt>
      <trkpt lat="47.29742" lon="6.22667">
        <ele>270.8</ele>
        <time>2024-07-31T09:48:06Z</time>
      </trkpt>
      <trkpt lat="47.29746" lon="6.2266">
        <ele>271</ele>
        <time>2024-07-31T09:48:07Z</time>
      </trkpt>
      <trkpt lat="47.29748" lon="6.22653">
        <ele>271</ele>
        <time>2024-07-31T09:48:08Z</time>
      </trkpt>
      <trkpt lat="47.29751" lon="6.22645">
        <ele>271</ele>
        <time>2024-07-31T09:48:09Z</time>
      </trkpt>
      <trkpt lat="47.29755" lon="6.22638">
        <ele>271</ele>
        <time>2024-07-31T09:48:10Z</time>
      </trkpt>
      <trkpt lat="47.29758" lon="6.2263">
        <ele>270.8</ele>
        <time>2024-07-31T09:48:11Z</time>
      </trkpt>
      <trkpt lat="47.29761" lon="6.22623">
        <ele>270.8</ele>
        <time>2024-07-31T09:48:12Z</time>
      </trkpt>
      <trkpt lat="47.29764" lon="6.22615">
        <ele>271</ele>
        <time>2024-07-31T09:48:13Z</time>
      </trkpt>
      <trkpt lat="47.29767" lon="6.22607">
        <ele>271</ele>
        <time>2024-07-31T09:48:14Z</time>
      </trkpt>
      <trkpt lat="47.29771" lon="6.22599">
        <ele>270.8</ele>
        <time>2024-07-31T09:48:15Z</time>
      </trkpt>
      <trkpt lat="47.29774" lon="6.22591">
        <ele>270.8</ele>
        <time>2024-07-31T09:48:16Z</time>
      </trkpt>
      <trkpt lat="47.29777" lon="6.22583">
        <ele>270.8</ele>
        <time>2024-07-31T09:48:17Z</time>
      </trkpt>
      <trkpt lat="47.2978" lon="6.22574">
        <ele>270.8</ele>
        <time>2024-07-31T09:48:18Z</time>
      </trkpt>
      <trkpt lat="47.29783" lon="6.22566">
        <ele>270.8</ele>
        <time>2024-07-31T09:48:19Z</time>
      </trkpt>
      <trkpt lat="47.29785" lon="6.22557">
        <ele>270.8</ele>
        <time>2024-07-31T09:48:20Z</time>
      </trkpt>
      <trkpt lat="47.29788" lon="6.22548">
        <ele>271</ele>
        <time>2024-07-31T09:48:21Z</time>
      </trkpt>
      <trkpt lat="47.2979" lon="6.22539">
        <ele>270.8</ele>
        <time>2024-07-31T09:48:22Z</time>
      </trkpt>
      <trkpt lat="47.29792" lon="6.2253">
        <ele>270.8</ele>
        <time>2024-07-31T09:48:23Z</time>
      </trkpt>
      <trkpt lat="47.29795" lon="6.22521">
        <ele>270.8</ele>
        <time>2024-07-31T09:48:24Z</time>
      </trkpt>
      <trkpt lat="47.29797" lon="6.22512">
        <ele>270.8</ele>
        <time>2024-07-31T09:48:25Z</time>
      </trkpt>
      <trkpt lat="47.29799" lon="6.22502">
        <ele>270.8</ele>
        <time>2024-07-31T09:48:26Z</time>
      </trkpt>
      <trkpt lat="47.29802" lon="6.22493">
        <ele>270.8</ele>
        <time>2024-07-31T09:48:27Z</time>
      </trkpt>
      <trkpt lat="47.29804" lon="6.22484">
        <ele>270.8</ele>
        <time>2024-07-31T09:48:28Z</time>
      </trkpt>
      <trkpt lat="47.29806" lon="6.22475">
        <ele>270.8</ele>
        <time>2024-07-31T09:48:29Z</time>
      </trkpt>
      <trkpt lat="47.29808" lon="6.22466">
        <ele>270.8</ele>
        <time>2024-07-31T09:48:30Z</time>
      </trkpt>
      <trkpt lat="47.29811" lon="6.22457">
        <ele>270.8</ele>
        <time>2024-07-31T09:48:31Z</time>
      </trkpt>
      <trkpt lat="47.29813" lon="6.22448">
        <ele>270.8</ele>
        <time>2024-07-31T09:48:32Z</time>
      </trkpt>
      <trkpt lat="47.29815" lon="6.22439">
        <ele>271</ele>
        <time>2024-07-31T09:48:33Z</time>
      </trkpt>
      <trkpt lat="47.29817" lon="6.2243">
        <ele>271</ele>
        <time>2024-07-31T09:48:34Z</time>
      </trkpt>
      <trkpt lat="47.29819" lon="6.22421">
        <ele>270.8</ele>
        <time>2024-07-31T09:48:35Z</time>
      </trkpt>
      <trkpt lat="47.29822" lon="6.22413">
        <ele>270.8</ele>
        <time>2024-07-31T09:48:36Z</time>
      </trkpt>
      <trkpt lat="47.29824" lon="6.22405">
        <ele>270.6</ele>
        <time>2024-07-31T09:48:37Z</time>
      </trkpt>
      <trkpt lat="47.29825" lon="6.224">
        <ele>270.4</ele>
        <time>2024-07-31T09:48:38Z</time>
      </trkpt>
      <trkpt lat="47.29826" lon="6.22397">
        <ele>270.2</ele>
        <time>2024-07-31T09:48:39Z</time>
      </trkpt>
      <trkpt lat="47.29827" lon="6.22395">
        <ele>270.2</ele>
        <time>2024-07-31T09:48:40Z</time>
      </trkpt>
      <trkpt lat="47.29826" lon="6.22395">
        <ele>270.2</ele>
        <time>2024-07-31T09:48:41Z</time>
      </trkpt>
      <trkpt lat="47.29825" lon="6.22396">
        <ele>270.2</ele>
        <time>2024-07-31T09:48:42Z</time>
      </trkpt>
      <trkpt lat="47.29825" lon="6.22398">
        <ele>270.4</ele>
        <time>2024-07-31T09:48:43Z</time>
      </trkpt>
      <trkpt lat="47.29824" lon="6.224">
        <ele>270.2</ele>
        <time>2024-07-31T09:48:44Z</time>
      </trkpt>
      <trkpt lat="47.29824" lon="6.22403">
        <ele>270.2</ele>
        <time>2024-07-31T09:48:45Z</time>
      </trkpt>
      <trkpt lat="47.29823" lon="6.22406">
        <ele>270.2</ele>
        <time>2024-07-31T09:48:46Z</time>
      </trkpt>
      <trkpt lat="47.29822" lon="6.22409">
        <ele>270.2</ele>
        <time>2024-07-31T09:48:47Z</time>
      </trkpt>
      <trkpt lat="47.29822" lon="6.22413">
        <ele>270.2</ele>
        <time>2024-07-31T09:48:48Z</time>
      </trkpt>
      <trkpt lat="47.29821" lon="6.22417">
        <ele>270.2</ele>
        <time>2024-07-31T09:48:49Z</time>
      </trkpt>
      <trkpt lat="47.2982" lon="6.2242">
        <ele>270.2</ele>
        <time>2024-07-31T09:48:50Z</time>
      </trkpt>
      <trkpt lat="47.2982" lon="6.22424">
        <ele>270.2</ele>
        <time>2024-07-31T09:48:51Z</time>
      </trkpt>
      <trkpt lat="47.29819" lon="6.22426">
        <ele>270.2</ele>
        <time>2024-07-31T09:48:52Z</time>
      </trkpt>
      <trkpt lat="47.29819" lon="6.22429">
        <ele>270.2</ele>
        <time>2024-07-31T09:48:53Z</time>
      </trkpt>
      <trkpt lat="47.29818" lon="6.22431">
        <ele>270.2</ele>
        <time>2024-07-31T09:48:54Z</time>
      </trkpt>
      <trkpt lat="47.29817" lon="6.22433">
        <ele>270.2</ele>
        <time>2024-07-31T09:48:55Z</time>
      </trkpt>
      <trkpt lat="47.29817" lon="6.22435">
        <ele>270</ele>
        <time>2024-07-31T09:48:56Z</time>
      </trkpt>
      <trkpt lat="47.29817" lon="6.22437">
        <ele>270</ele>
        <time>2024-07-31T09:48:57Z</time>
      </trkpt>
      <trkpt lat="47.29817" lon="6.22437">
        <ele>270</ele>
        <time>2024-07-31T09:48:58Z</time>
      </trkpt>
      <trkpt lat="47.29817" lon="6.22438">
        <ele>270</ele>
        <time>2024-07-31T09:48:59Z</time>
      </trkpt>
      <trkpt lat="47.29818" lon="6.22438">
        <ele>270</ele>
        <time>2024-07-31T09:49:00Z</time>
      </trkpt>
      <trkpt lat="47.29818" lon="6.22438">
        <ele>270</ele>
        <time>2024-07-31T09:49:01Z</time>
      </trkpt>
      <trkpt lat="47.29818" lon="6.22439">
        <ele>270</ele>
        <time>2024-07-31T09:49:02Z</time>
      </trkpt>
      <trkpt lat="47.29818" lon="6.22439">
        <ele>270.2</ele>
        <time>2024-07-31T09:49:03Z</time>
      </trkpt>
      <trkpt lat="47.29818" lon="6.22439">
        <ele>270.2</ele>
        <time>2024-07-31T09:49:04Z</time>
      </trkpt>
      <trkpt lat="47.29818" lon="6.22439">
        <ele>270</ele>
        <time>2024-07-31T09:49:05Z</time>
      </trkpt>
      <trkpt lat="47.29818" lon="6.22439">
        <ele>270</ele>
        <time>2024-07-31T09:49:06Z</time>
      </trkpt>
      <trkpt lat="47.29818" lon="6.22439">
        <ele>270</ele>
        <time>2024-07-31T09:49:07Z</time>
      </trkpt>
      <trkpt lat="47.29818" lon="6.22439">
        <ele>270</ele>
        <time>2024-07-31T09:49:08Z</time>
      </trkpt>
      <trkpt lat="47.29818" lon="6.22439">
        <ele>270</ele>
        <time>2024-07-31T09:49:09Z</time>
      </trkpt>
      <trkpt lat="47.29818" lon="6.22438">
        <ele>269.8</ele>
        <time>2024-07-31T09:49:10Z</time>
      </trkpt>
      <trkpt lat="47.29818" lon="6.22438">
        <ele>270</ele>
        <time>2024-07-31T09:49:11Z</time>
      </trkpt>
      <trkpt lat="47.29819" lon="6.22438">
        <ele>269.8</ele>
        <time>2024-07-31T09:49:12Z</time>
      </trkpt>
      <trkpt lat="47.29819" lon="6.22438">
        <ele>270</ele>
        <time>2024-07-31T09:49:13Z</time>
      </trkpt>
      <trkpt lat="47.29819" lon="6.22438">
        <ele>269.8</ele>
        <time>2024-07-31T09:49:14Z</time>
      </trkpt>
      <trkpt lat="47.29819" lon="6.22438">
        <ele>269.8</ele>
        <time>2024-07-31T09:49:15Z</time>
      </trkpt>
      <trkpt lat="47.29819" lon="6.22438">
        <ele>269.8</ele>
        <time>2024-07-31T09:49:16Z</time>
      </trkpt>
      <trkpt lat="47.29819" lon="6.22438">
        <ele>269.8</ele>
        <time>2024-07-31T09:49:17Z</time>
      </trkpt>
      <trkpt lat="47.29819" lon="6.22437">
        <ele>269.8</ele>
        <time>2024-07-31T09:49:18Z</time>
      </trkpt>
      <trkpt lat="47.29819" lon="6.22437">
        <ele>269.8</ele>
        <time>2024-07-31T09:49:19Z</time>
      </trkpt>
      <trkpt lat="47.29819" lon="6.22437">
        <ele>269.6</ele>
        <time>2024-07-31T09:49:20Z</time>
      </trkpt>
      <trkpt lat="47.29819" lon="6.22437">
        <ele>269.8</ele>
        <time>2024-07-31T09:49:21Z</time>
      </trkpt>
      <trkpt lat="47.29819" lon="6.22437">
        <ele>269.8</ele>
        <time>2024-07-31T09:49:22Z</time>
      </trkpt>
      <trkpt lat="47.29819" lon="6.22437">
        <ele>269.8</ele>
        <time>2024-07-31T09:49:23Z</time>
      </trkpt>
      <trkpt lat="47.29819" lon="6.22437">
        <ele>269.8</ele>
        <time>2024-07-31T09:49:24Z</time>
      </trkpt>
      <trkpt lat="47.29819" lon="6.22437">
        <ele>269.8</ele>
        <time>2024-07-31T09:49:25Z</time>
      </trkpt>
      <trkpt lat="47.29819" lon="6.22437">
        <ele>269.8</ele>
        <time>2024-07-31T09:49:26Z</time>
      </trkpt>
      <trkpt lat="47.29819" lon="6.22438">
        <ele>270</ele>
        <time>2024-07-31T09:49:27Z</time>
      </trkpt>
      <trkpt lat="47.29819" lon="6.22438">
        <ele>269.8</ele>
        <time>2024-07-31T09:49:28Z</time>
      </trkpt>
      <trkpt lat="47.29819" lon="6.22438">
        <ele>269.6</ele>
        <time>2024-07-31T09:49:29Z</time>
      </trkpt>
      <trkpt lat="47.29819" lon="6.22438">
        <ele>269.6</ele>
        <time>2024-07-31T09:49:30Z</time>
      </trkpt>
      <trkpt lat="47.29819" lon="6.22438">
        <ele>269.6</ele>
        <time>2024-07-31T09:49:31Z</time>
      </trkpt>
      <trkpt lat="47.29819" lon="6.22438">
        <ele>269.8</ele>
        <time>2024-07-31T09:49:32Z</time>
      </trkpt>
      <trkpt lat="47.29819" lon="6.22438">
        <ele>269.6</ele>
        <time>2024-07-31T09:49:33Z</time>
      </trkpt>
      <trkpt lat="47.29819" lon="6.22437">
        <ele>269.6</ele>
        <time>2024-07-31T09:49:34Z</time>
      </trkpt>
      <trkpt lat="47.29819" lon="6.22437">
        <ele>269.6</ele>
        <time>2024-07-31T09:49:35Z</time>
      </trkpt>
      <trkpt lat="47.29819" lon="6.22437">
        <ele>269.6</ele>
        <time>2024-07-31T09:49:36Z</time>
      </trkpt>
      <trkpt lat="47.29819" lon="6.22437">
        <ele>269.8</ele>
        <time>2024-07-31T09:49:37Z</time>
      </trkpt>
      <trkpt lat="47.2982" lon="6.22437">
        <ele>269.8</ele>
        <time>2024-07-31T09:49:38Z</time>
      </trkpt>
      <trkpt lat="47.2982" lon="6.22438">
        <ele>269.6</ele>
        <time>2024-07-31T09:49:39Z</time>
      </trkpt>
      <trkpt lat="47.2982" lon="6.22438">
        <ele>269.8</ele>
        <time>2024-07-31T09:49:40Z</time>
      </trkpt>
      <trkpt lat="47.2982" lon="6.22438">
        <ele>269.8</ele>
        <time>2024-07-31T09:49:41Z</time>
      </trkpt>
      <trkpt lat="47.2982" lon="6.22438">
        <ele>270</ele>
        <time>2024-07-31T09:49:42Z</time>
      </trkpt>
      <trkpt lat="47.2982" lon="6.22439">
        <ele>269.8</ele>
        <time>2024-07-31T09:49:43Z</time>
      </trkpt>
      <trkpt lat="47.2982" lon="6.22439">
        <ele>269.8</ele>
        <time>2024-07-31T09:49:44Z</time>
      </trkpt>
      <trkpt lat="47.2982" lon="6.22439">
        <ele>269.8</ele>
        <time>2024-07-31T09:49:45Z</time>
      </trkpt>
      <trkpt lat="47.2982" lon="6.22439">
        <ele>269.8</ele>
        <time>2024-07-31T09:49:46Z</time>
      </trkpt>
      <trkpt lat="47.2982" lon="6.22438">
        <ele>269.8</ele>
        <time>2024-07-31T09:49:47Z</time>
      </trkpt>
      <trkpt lat="47.2982" lon="6.22438">
        <ele>269.8</ele>
        <time>2024-07-31T09:49:48Z</time>
      </trkpt>
      <trkpt lat="47.2982" lon="6.22438">
        <ele>269.8</ele>
        <time>2024-07-31T09:49:49Z</time>
      </trkpt>
      <trkpt lat="47.2982" lon="6.22438">
        <ele>270</ele>
        <time>2024-07-31T09:49:50Z</time>
      </trkpt>
      <trkpt lat="47.29819" lon="6.22438">
        <ele>270</ele>
        <time>2024-07-31T09:49:51Z</time>
      </trkpt>
      <trkpt lat="47.29819" lon="6.22438">
        <ele>270</ele>
        <time>2024-07-31T09:49:52Z</time>
      </trkpt>
      <trkpt lat="47.29818" lon="6.22438">
        <ele>269.8</ele>
        <time>2024-07-31T09:49:53Z</time>
      </trkpt>
      <trkpt lat="47.29818" lon="6.22438">
        <ele>269.8</ele>
        <time>2024-07-31T09:49:54Z</time>
      </trkpt>
      <trkpt lat="47.29818" lon="6.22438">
        <ele>269.8</ele>
        <time>2024-07-31T09:49:55Z</time>
      </trkpt>
      <trkpt lat="47.29818" lon="6.22438">
        <ele>269.8</ele>
        <time>2024-07-31T09:49:56Z</time>
      </trkpt>
      <trkpt lat="47.29817" lon="6.22439">
        <ele>269.8</ele>
        <time>2024-07-31T09:49:57Z</time>
      </trkpt>
      <trkpt lat="47.29817" lon="6.22439">
        <ele>269.8</ele>
        <time>2024-07-31T09:49:58Z</time>
      </trkpt>
      <trkpt lat="47.29817" lon="6.2244">
        <ele>269.8</ele>
        <time>2024-07-31T09:49:59Z</time>
      </trkpt>
      <trkpt lat="47.29818" lon="6.22438">
        <ele>269.8</ele>
        <time>2024-07-31T09:50:00Z</time>
      </trkpt>
      <trkpt lat="47.29818" lon="6.22437">
        <ele>269.8</ele>
        <time>2024-07-31T09:50:01Z</time>
      </trkpt>
      <trkpt lat="47.29817" lon="6.22437">
        <ele>269.8</ele>
        <time>2024-07-31T09:50:02Z</time>
      </trkpt>
      <trkpt lat="47.29817" lon="6.22435">
        <ele>269.8</ele>
        <time>2024-07-31T09:50:03Z</time>
      </trkpt>
      <trkpt lat="47.29818" lon="6.22433">
        <ele>269.8</ele>
        <time>2024-07-31T09:50:04Z</time>
      </trkpt>
      <trkpt lat="47.29819" lon="6.2243">
        <ele>269.8</ele>
        <time>2024-07-31T09:50:05Z</time>
      </trkpt>
      <trkpt lat="47.2982" lon="6.22426">
        <ele>270</ele>
        <time>2024-07-31T09:50:06Z</time>
      </trkpt>
      <trkpt lat="47.29821" lon="6.22422">
        <ele>269.8</ele>
        <time>2024-07-31T09:50:07Z</time>
      </trkpt>
      <trkpt lat="47.29822" lon="6.22417">
        <ele>270</ele>
        <time>2024-07-31T09:50:08Z</time>
      </trkpt>
      <trkpt lat="47.29823" lon="6.22412">
        <ele>270</ele>
        <time>2024-07-31T09:50:09Z</time>
      </trkpt>
      <trkpt lat="47.29824" lon="6.22407">
        <ele>270.2</ele>
        <time>2024-07-31T09:50:10Z</time>
      </trkpt>
      <trkpt lat="47.29826" lon="6.22401">
        <ele>270.2</ele>
        <time>2024-07-31T09:50:11Z</time>
      </trkpt>
      <trkpt lat="47.29827" lon="6.22395">
        <ele>270.4</ele>
        <time>2024-07-31T09:50:12Z</time>
      </trkpt>
      <trkpt lat="47.29829" lon="6.22389">
        <ele>270.4</ele>
        <time>2024-07-31T09:50:13Z</time>
      </trkpt>
      <trkpt lat="47.29831" lon="6.22382">
        <ele>270.6</ele>
        <time>2024-07-31T09:50:14Z</time>
      </trkpt>
      <trkpt lat="47.29832" lon="6.22376">
        <ele>270.4</ele>
        <time>2024-07-31T09:50:15Z</time>
      </trkpt>
      <trkpt lat="47.29834" lon="6.22369">
        <ele>270.4</ele>
        <time>2024-07-31T09:50:16Z</time>
      </trkpt>
      <trkpt lat="47.29836" lon="6.22362">
        <ele>270.4</ele>
        <time>2024-07-31T09:50:17Z</time>
      </trkpt>
      <trkpt lat="47.29837" lon="6.22355">
        <ele>270.4</ele>
        <time>2024-07-31T09:50:18Z</time>
      </trkpt>
      <trkpt lat="47.29839" lon="6.22348">
        <ele>270.2</ele>
        <time>2024-07-31T09:50:19Z</time>
      </trkpt>
      <trkpt lat="47.29841" lon="6.22341">
        <ele>270.2</ele>
        <time>2024-07-31T09:50:20Z</time>
      </trkpt>
      <trkpt lat="47.29842" lon="6.22333">
        <ele>270.4</ele>
        <time>2024-07-31T09:50:21Z</time>
      </trkpt>
      <trkpt lat="47.29844" lon="6.22326">
        <ele>270.4</ele>
        <time>2024-07-31T09:50:22Z</time>
      </trkpt>
      <trkpt lat="47.29846" lon="6.22318">
        <ele>270.4</ele>
        <time>2024-07-31T09:50:23Z</time>
      </trkpt>
      <trkpt lat="47.29847" lon="6.2231">
        <ele>270.6</ele>
        <time>2024-07-31T09:50:24Z</time>
      </trkpt>
      <trkpt lat="47.29849" lon="6.22302">
        <ele>270.6</ele>
        <time>2024-07-31T09:50:25Z</time>
      </trkpt>
      <trkpt lat="47.29851" lon="6.22293">
        <ele>270.6</ele>
        <time>2024-07-31T09:50:26Z</time>
      </trkpt>
      <trkpt lat="47.29853" lon="6.22285">
        <ele>270.6</ele>
        <time>2024-07-31T09:50:27Z</time>
      </trkpt>
      <trkpt lat="47.29855" lon="6.22276">
        <ele>270.6</ele>
        <time>2024-07-31T09:50:28Z</time>
      </trkpt>
      <trkpt lat="47.29856" lon="6.22268">
        <ele>270.6</ele>
        <time>2024-07-31T09:50:29Z</time>
      </trkpt>
      <trkpt lat="47.29858" lon="6.2226">
        <ele>270.4</ele>
        <time>2024-07-31T09:50:30Z</time>
      </trkpt>
      <trkpt lat="47.2986" lon="6.22251">
        <ele>270.4</ele>
        <time>2024-07-31T09:50:31Z</time>
      </trkpt>
      <trkpt lat="47.29862" lon="6.22242">
        <ele>270.4</ele>
        <time>2024-07-31T09:50:32Z</time>
      </trkpt>
      <trkpt lat="47.29864" lon="6.22234">
        <ele>270.2</ele>
        <time>2024-07-31T09:50:33Z</time>
      </trkpt>
      <trkpt lat="47.29866" lon="6.22225">
        <ele>270.2</ele>
        <time>2024-07-31T09:50:34Z</time>
      </trkpt>
      <trkpt lat="47.29868" lon="6.22216">
        <ele>270.4</ele>
        <time>2024-07-31T09:50:35Z</time>
      </trkpt>
      <trkpt lat="47.2987" lon="6.22207">
        <ele>270.4</ele>
        <time>2024-07-31T09:50:36Z</time>
      </trkpt>
      <trkpt lat="47.29872" lon="6.22198">
        <ele>270</ele>
        <time>2024-07-31T09:50:37Z</time>
      </trkpt>
      <trkpt lat="47.29874" lon="6.22189">
        <ele>269.8</ele>
        <time>2024-07-31T09:50:38Z</time>
      </trkpt>
      <trkpt lat="47.29876" lon="6.2218">
        <ele>269.6</ele>
        <time>2024-07-31T09:50:39Z</time>
      </trkpt>
      <trkpt lat="47.29879" lon="6.22172">
        <ele>269.6</ele>
        <time>2024-07-31T09:50:40Z</time>
      </trkpt>
      <trkpt lat="47.29881" lon="6.22163">
        <ele>269.4</ele>
        <time>2024-07-31T09:50:41Z</time>
      </trkpt>
      <trkpt lat="47.29885" lon="6.22155">
        <ele>269.6</ele>
        <time>2024-07-31T09:50:42Z</time>
      </trkpt>
      <trkpt lat="47.29889" lon="6.22149">
        <ele>269.6</ele>
        <time>2024-07-31T09:50:43Z</time>
      </trkpt>
      <trkpt lat="47.29893" lon="6.22144">
        <ele>269.6</ele>
        <time>2024-07-31T09:50:44Z</time>
      </trkpt>
      <trkpt lat="47.29898" lon="6.2214">
        <ele>269.6</ele>
        <time>2024-07-31T09:50:45Z</time>
      </trkpt>
      <trkpt lat="47.29901" lon="6.22134">
        <ele>269.8</ele>
        <time>2024-07-31T09:50:46Z</time>
      </trkpt>
      <trkpt lat="47.29904" lon="6.22128">
        <ele>269.8</ele>
        <time>2024-07-31T09:50:47Z</time>
      </trkpt>
      <trkpt lat="47.29906" lon="6.22122">
        <ele>270</ele>
        <time>2024-07-31T09:50:48Z</time>
      </trkpt>
      <trkpt lat="47.2991" lon="6.22116">
        <ele>270</ele>
        <time>2024-07-31T09:50:49Z</time>
      </trkpt>
      <trkpt lat="47.29913" lon="6.22111">
        <ele>270</ele>
        <time>2024-07-31T09:50:50Z</time>
      </trkpt>
      <trkpt lat="47.29917" lon="6.22105">
        <ele>270.2</ele>
        <time>2024-07-31T09:50:51Z</time>
      </trkpt>
      <trkpt lat="47.2992" lon="6.22098">
        <ele>270</ele>
        <time>2024-07-31T09:50:52Z</time>
      </trkpt>
      <trkpt lat="47.29924" lon="6.22092">
        <ele>270</ele>
        <time>2024-07-31T09:50:53Z</time>
      </trkpt>
      <trkpt lat="47.29927" lon="6.22085">
        <ele>270</ele>
        <time>2024-07-31T09:50:54Z</time>
      </trkpt>
      <trkpt lat="47.29931" lon="6.22078">
        <ele>270</ele>
        <time>2024-07-31T09:50:55Z</time>
      </trkpt>
      <trkpt lat="47.29935" lon="6.22071">
        <ele>269.8</ele>
        <time>2024-07-31T09:50:56Z</time>
      </trkpt>
      <trkpt lat="47.29939" lon="6.22064">
        <ele>269.8</ele>
        <time>2024-07-31T09:50:57Z</time>
      </trkpt>
      <trkpt lat="47.29943" lon="6.22057">
        <ele>270</ele>
        <time>2024-07-31T09:50:58Z</time>
      </trkpt>
      <trkpt lat="47.29947" lon="6.2205">
        <ele>270</ele>
        <time>2024-07-31T09:50:59Z</time>
      </trkpt>
      <trkpt lat="47.29951" lon="6.22043">
        <ele>270</ele>
        <time>2024-07-31T09:51:00Z</time>
      </trkpt>
      <trkpt lat="47.29954" lon="6.22037">
        <ele>269.8</ele>
        <time>2024-07-31T09:51:01Z</time>
      </trkpt>
      <trkpt lat="47.29958" lon="6.2203">
        <ele>270</ele>
        <time>2024-07-31T09:51:02Z</time>
      </trkpt>
      <trkpt lat="47.29962" lon="6.22023">
        <ele>270</ele>
        <time>2024-07-31T09:51:03Z</time>
      </trkpt>
      <trkpt lat="47.29966" lon="6.22016">
        <ele>270</ele>
        <time>2024-07-31T09:51:04Z</time>
      </trkpt>
      <trkpt lat="47.2997" lon="6.22009">
        <ele>269.8</ele>
        <time>2024-07-31T09:51:05Z</time>
      </trkpt>
      <trkpt lat="47.29974" lon="6.22003">
        <ele>269.8</ele>
        <time>2024-07-31T09:51:06Z</time>
      </trkpt>
      <trkpt lat="47.29979" lon="6.21997">
        <ele>269.8</ele>
        <time>2024-07-31T09:51:07Z</time>
      </trkpt>
      <trkpt lat="47.29983" lon="6.21992">
        <ele>269.6</ele>
        <time>2024-07-31T09:51:08Z</time>
      </trkpt>
      <trkpt lat="47.29988" lon="6.21988">
        <ele>269.4</ele>
        <time>2024-07-31T09:51:09Z</time>
      </trkpt>
      <trkpt lat="47.29993" lon="6.21985">
        <ele>269.6</ele>
        <time>2024-07-31T09:51:10Z</time>
      </trkpt>
      <trkpt lat="47.29998" lon="6.2198">
        <ele>269.6</ele>
        <time>2024-07-31T09:51:11Z</time>
      </trkpt>
      <trkpt lat="47.30002" lon="6.21975">
        <ele>269.6</ele>
        <time>2024-07-31T09:51:12Z</time>
      </trkpt>
      <trkpt lat="47.30006" lon="6.21969">
        <ele>269.8</ele>
        <time>2024-07-31T09:51:13Z</time>
      </trkpt>
      <trkpt lat="47.3001" lon="6.21963">
        <ele>269.8</ele>
        <time>2024-07-31T09:51:14Z</time>
      </trkpt>
      <trkpt lat="47.30014" lon="6.21957">
        <ele>269.8</ele>
        <time>2024-07-31T09:51:15Z</time>
      </trkpt>
      <trkpt lat="47.30018" lon="6.2195">
        <ele>269.8</ele>
        <time>2024-07-31T09:51:16Z</time>
      </trkpt>
      <trkpt lat="47.30022" lon="6.21944">
        <ele>269.6</ele>
        <time>2024-07-31T09:51:17Z</time>
      </trkpt>
      <trkpt lat="47.30026" lon="6.21937">
        <ele>269.4</ele>
        <time>2024-07-31T09:51:18Z</time>
      </trkpt>
      <trkpt lat="47.30029" lon="6.2193">
        <ele>269.4</ele>
        <time>2024-07-31T09:51:19Z</time>
      </trkpt>
      <trkpt lat="47.30033" lon="6.21924">
        <ele>269.4</ele>
        <time>2024-07-31T09:51:20Z</time>
      </trkpt>
      <trkpt lat="47.30037" lon="6.21917">
        <ele>269.4</ele>
        <time>2024-07-31T09:51:21Z</time>
      </trkpt>
      <trkpt lat="47.30041" lon="6.2191">
        <ele>269.4</ele>
        <time>2024-07-31T09:51:22Z</time>
      </trkpt>
      <trkpt lat="47.30045" lon="6.21903">
        <ele>269.2</ele>
        <time>2024-07-31T09:51:23Z</time>
      </trkpt>
      <trkpt lat="47.30048" lon="6.21897">
        <ele>269.4</ele>
        <time>2024-07-31T09:51:24Z</time>
      </trkpt>
      <trkpt lat="47.30052" lon="6.2189">
        <ele>269.4</ele>
        <time>2024-07-31T09:51:25Z</time>
      </trkpt>
      <trkpt lat="47.30056" lon="6.21883">
        <ele>269.4</ele>
        <time>2024-07-31T09:51:26Z</time>
      </trkpt>
      <trkpt lat="47.3006" lon="6.21877">
        <ele>269.4</ele>
        <time>2024-07-31T09:51:27Z</time>
      </trkpt>
      <trkpt lat="47.30064" lon="6.2187">
        <ele>269.6</ele>
        <time>2024-07-31T09:51:28Z</time>
      </trkpt>
      <trkpt lat="47.30068" lon="6.21863">
        <ele>269.6</ele>
        <time>2024-07-31T09:51:29Z</time>
      </trkpt>
      <trkpt lat="47.30072" lon="6.21856">
        <ele>269.8</ele>
        <time>2024-07-31T09:51:30Z</time>
      </trkpt>
      <trkpt lat="47.30076" lon="6.2185">
        <ele>269.6</ele>
        <time>2024-07-31T09:51:31Z</time>
      </trkpt>
      <trkpt lat="47.3008" lon="6.21843">
        <ele>269.6</ele>
        <time>2024-07-31T09:51:32Z</time>
      </trkpt>
      <trkpt lat="47.30085" lon="6.21836">
        <ele>269.6</ele>
        <time>2024-07-31T09:51:34Z</time>
      </trkpt>
      <trkpt lat="47.30089" lon="6.21829">
        <ele>269.2</ele>
        <time>2024-07-31T09:51:35Z</time>
      </trkpt>
      <trkpt lat="47.30093" lon="6.21823">
        <ele>269.4</ele>
        <time>2024-07-31T09:51:36Z</time>
      </trkpt>
      <trkpt lat="47.30097" lon="6.21816">
        <ele>269.2</ele>
        <time>2024-07-31T09:51:37Z</time>
      </trkpt>
      <trkpt lat="47.30101" lon="6.21808">
        <ele>269.4</ele>
        <time>2024-07-31T09:51:38Z</time>
      </trkpt>
      <trkpt lat="47.30105" lon="6.21801">
        <ele>269.4</ele>
        <time>2024-07-31T09:51:39Z</time>
      </trkpt>
      <trkpt lat="47.30109" lon="6.21794">
        <ele>269.4</ele>
        <time>2024-07-31T09:51:40Z</time>
      </trkpt>
      <trkpt lat="47.30114" lon="6.21787">
        <ele>269.6</ele>
        <time>2024-07-31T09:51:41Z</time>
      </trkpt>
      <trkpt lat="47.30118" lon="6.2178">
        <ele>269.8</ele>
        <time>2024-07-31T09:51:42Z</time>
      </trkpt>
      <trkpt lat="47.30122" lon="6.21773">
        <ele>269.8</ele>
        <time>2024-07-31T09:51:43Z</time>
      </trkpt>
      <trkpt lat="47.30126" lon="6.21766">
        <ele>269.6</ele>
        <time>2024-07-31T09:51:44Z</time>
      </trkpt>
      <trkpt lat="47.3013" lon="6.21759">
        <ele>269.4</ele>
        <time>2024-07-31T09:51:45Z</time>
      </trkpt>
      <trkpt lat="47.30134" lon="6.21753">
        <ele>269.4</ele>
        <time>2024-07-31T09:51:46Z</time>
      </trkpt>
      <trkpt lat="47.30138" lon="6.21746">
        <ele>269.6</ele>
        <time>2024-07-31T09:51:47Z</time>
      </trkpt>
      <trkpt lat="47.30142" lon="6.21739">
        <ele>269.4</ele>
        <time>2024-07-31T09:51:48Z</time>
      </trkpt>
      <trkpt lat="47.30145" lon="6.21732">
        <ele>269.4</ele>
        <time>2024-07-31T09:51:49Z</time>
      </trkpt>
      <trkpt lat="47.30149" lon="6.21725">
        <ele>269.4</ele>
        <time>2024-07-31T09:51:50Z</time>
      </trkpt>
      <trkpt lat="47.30153" lon="6.21719">
        <ele>269.6</ele>
        <time>2024-07-31T09:51:51Z</time>
      </trkpt>
      <trkpt lat="47.30157" lon="6.21713">
        <ele>269.6</ele>
        <time>2024-07-31T09:51:52Z</time>
      </trkpt>
      <trkpt lat="47.30161" lon="6.21706">
        <ele>269.6</ele>
        <time>2024-07-31T09:51:53Z</time>
      </trkpt>
      <trkpt lat="47.30165" lon="6.217">
        <ele>269.6</ele>
        <time>2024-07-31T09:51:54Z</time>
      </trkpt>
      <trkpt lat="47.30169" lon="6.21694">
        <ele>270</ele>
        <time>2024-07-31T09:51:55Z</time>
      </trkpt>
      <trkpt lat="47.30173" lon="6.21688">
        <ele>270.2</ele>
        <time>2024-07-31T09:51:56Z</time>
      </trkpt>
      <trkpt lat="47.30177" lon="6.21682">
        <ele>270.2</ele>
        <time>2024-07-31T09:51:57Z</time>
      </trkpt>
      <trkpt lat="47.30182" lon="6.21676">
        <ele>270</ele>
        <time>2024-07-31T09:51:58Z</time>
      </trkpt>
      <trkpt lat="47.30186" lon="6.2167">
        <ele>270.2</ele>
        <time>2024-07-31T09:51:59Z</time>
      </trkpt>
      <trkpt lat="47.30191" lon="6.21663">
        <ele>270.2</ele>
        <time>2024-07-31T09:52:00Z</time>
      </trkpt>
      <trkpt lat="47.30195" lon="6.21657">
        <ele>270.2</ele>
        <time>2024-07-31T09:52:01Z</time>
      </trkpt>
      <trkpt lat="47.302" lon="6.21651">
        <ele>270.2</ele>
        <time>2024-07-31T09:52:02Z</time>
      </trkpt>
      <trkpt lat="47.30205" lon="6.21645">
        <ele>270</ele>
        <time>2024-07-31T09:52:03Z</time>
      </trkpt>
      <trkpt lat="47.30209" lon="6.21638">
        <ele>269.8</ele>
        <time>2024-07-31T09:52:04Z</time>
      </trkpt>
      <trkpt lat="47.30214" lon="6.21632">
        <ele>269.6</ele>
        <time>2024-07-31T09:52:05Z</time>
      </trkpt>
      <trkpt lat="47.30219" lon="6.21625">
        <ele>269.6</ele>
        <time>2024-07-31T09:52:06Z</time>
      </trkpt>
      <trkpt lat="47.30223" lon="6.21619">
        <ele>269.4</ele>
        <time>2024-07-31T09:52:07Z</time>
      </trkpt>
      <trkpt lat="47.30228" lon="6.21612">
        <ele>269.2</ele>
        <time>2024-07-31T09:52:08Z</time>
      </trkpt>
      <trkpt lat="47.30233" lon="6.21606">
        <ele>269</ele>
        <time>2024-07-31T09:52:09Z</time>
      </trkpt>
      <trkpt lat="47.30238" lon="6.216">
        <ele>269.2</ele>
        <time>2024-07-31T09:52:10Z</time>
      </trkpt>
      <trkpt lat="47.30243" lon="6.21594">
        <ele>269.2</ele>
        <time>2024-07-31T09:52:11Z</time>
      </trkpt>
      <trkpt lat="47.30248" lon="6.21587">
        <ele>269.4</ele>
        <time>2024-07-31T09:52:12Z</time>
      </trkpt>
      <trkpt lat="47.30252" lon="6.2158">
        <ele>269.4</ele>
        <time>2024-07-31T09:52:13Z</time>
      </trkpt>
      <trkpt lat="47.30257" lon="6.21573">
        <ele>269.4</ele>
        <time>2024-07-31T09:52:14Z</time>
      </trkpt>
      <trkpt lat="47.30261" lon="6.21565">
        <ele>269.4</ele>
        <time>2024-07-31T09:52:15Z</time>
      </trkpt>
      <trkpt lat="47.30265" lon="6.21557">
        <ele>269.2</ele>
        <time>2024-07-31T09:52:16Z</time>
      </trkpt>
      <trkpt lat="47.30268" lon="6.2155">
        <ele>269.2</ele>
        <time>2024-07-31T09:52:17Z</time>
      </trkpt>
      <trkpt lat="47.30272" lon="6.21543">
        <ele>269</ele>
        <time>2024-07-31T09:52:18Z</time>
      </trkpt>
      <trkpt lat="47.30276" lon="6.21535">
        <ele>269.2</ele>
        <time>2024-07-31T09:52:19Z</time>
      </trkpt>
      <trkpt lat="47.3028" lon="6.21528">
        <ele>269.2</ele>
        <time>2024-07-31T09:52:20Z</time>
      </trkpt>
      <trkpt lat="47.30283" lon="6.2152">
        <ele>269</ele>
        <time>2024-07-31T09:52:21Z</time>
      </trkpt>
      <trkpt lat="47.30287" lon="6.21512">
        <ele>269.2</ele>
        <time>2024-07-31T09:52:22Z</time>
      </trkpt>
      <trkpt lat="47.3029" lon="6.21504">
        <ele>269</ele>
        <time>2024-07-31T09:52:23Z</time>
      </trkpt>
      <trkpt lat="47.30294" lon="6.21497">
        <ele>268.8</ele>
        <time>2024-07-31T09:52:24Z</time>
      </trkpt>
      <trkpt lat="47.30298" lon="6.21489">
        <ele>268.8</ele>
        <time>2024-07-31T09:52:25Z</time>
      </trkpt>
      <trkpt lat="47.30302" lon="6.21483">
        <ele>268.8</ele>
        <time>2024-07-31T09:52:26Z</time>
      </trkpt>
      <trkpt lat="47.30306" lon="6.21476">
        <ele>268.8</ele>
        <time>2024-07-31T09:52:27Z</time>
      </trkpt>
      <trkpt lat="47.30311" lon="6.21469">
        <ele>269</ele>
        <time>2024-07-31T09:52:28Z</time>
      </trkpt>
      <trkpt lat="47.30316" lon="6.21462">
        <ele>269</ele>
        <time>2024-07-31T09:52:29Z</time>
      </trkpt>
      <trkpt lat="47.3032" lon="6.21455">
        <ele>269.2</ele>
        <time>2024-07-31T09:52:30Z</time>
      </trkpt>
      <trkpt lat="47.30325" lon="6.21448">
        <ele>269.2</ele>
        <time>2024-07-31T09:52:31Z</time>
      </trkpt>
      <trkpt lat="47.30329" lon="6.21442">
        <ele>268.8</ele>
        <time>2024-07-31T09:52:32Z</time>
      </trkpt>
      <trkpt lat="47.30333" lon="6.21434">
        <ele>268.8</ele>
        <time>2024-07-31T09:52:33Z</time>
      </trkpt>
      <trkpt lat="47.30337" lon="6.21426">
        <ele>268.8</ele>
        <time>2024-07-31T09:52:34Z</time>
      </trkpt>
      <trkpt lat="47.3034" lon="6.21417">
        <ele>269</ele>
        <time>2024-07-31T09:52:35Z</time>
      </trkpt>
      <trkpt lat="47.30342" lon="6.21409">
        <ele>269</ele>
        <time>2024-07-31T09:52:36Z</time>
      </trkpt>
      <trkpt lat="47.30345" lon="6.214">
        <ele>269</ele>
        <time>2024-07-31T09:52:37Z</time>
      </trkpt>
      <trkpt lat="47.30346" lon="6.21391">
        <ele>269.2</ele>
        <time>2024-07-31T09:52:38Z</time>
      </trkpt>
      <trkpt lat="47.30348" lon="6.21381">
        <ele>269.4</ele>
        <time>2024-07-31T09:52:39Z</time>
      </trkpt>
      <trkpt lat="47.30349" lon="6.21372">
        <ele>269.2</ele>
        <time>2024-07-31T09:52:40Z</time>
      </trkpt>
      <trkpt lat="47.30351" lon="6.21363">
        <ele>269.2</ele>
        <time>2024-07-31T09:52:41Z</time>
      </trkpt>
      <trkpt lat="47.30352" lon="6.21352">
        <ele>269.2</ele>
        <time>2024-07-31T09:52:42Z</time>
      </trkpt>
      <trkpt lat="47.30353" lon="6.21343">
        <ele>269.6</ele>
        <time>2024-07-31T09:52:43Z</time>
      </trkpt>
      <trkpt lat="47.30354" lon="6.21333">
        <ele>269.6</ele>
        <time>2024-07-31T09:52:44Z</time>
      </trkpt>
      <trkpt lat="47.30356" lon="6.21323">
        <ele>269.4</ele>
        <time>2024-07-31T09:52:45Z</time>
      </trkpt>
      <trkpt lat="47.30357" lon="6.21314">
        <ele>269.2</ele>
        <time>2024-07-31T09:52:46Z</time>
      </trkpt>
      <trkpt lat="47.30358" lon="6.21304">
        <ele>269.4</ele>
        <time>2024-07-31T09:52:47Z</time>
      </trkpt>
      <trkpt lat="47.3036" lon="6.21295">
        <ele>269.2</ele>
        <time>2024-07-31T09:52:48Z</time>
      </trkpt>
      <trkpt lat="47.30362" lon="6.21285">
        <ele>269.2</ele>
        <time>2024-07-31T09:52:49Z</time>
      </trkpt>
      <trkpt lat="47.30364" lon="6.21276">
        <ele>269.2</ele>
        <time>2024-07-31T09:52:50Z</time>
      </trkpt>
      <trkpt lat="47.30366" lon="6.21267">
        <ele>269.2</ele>
        <time>2024-07-31T09:52:51Z</time>
      </trkpt>
      <trkpt lat="47.30368" lon="6.21257">
        <ele>269.4</ele>
        <time>2024-07-31T09:52:52Z</time>
      </trkpt>
      <trkpt lat="47.3037" lon="6.21248">
        <ele>269.2</ele>
        <time>2024-07-31T09:52:53Z</time>
      </trkpt>
      <trkpt lat="47.30372" lon="6.21239">
        <ele>269.2</ele>
        <time>2024-07-31T09:52:54Z</time>
      </trkpt>
      <trkpt lat="47.30374" lon="6.2123">
        <ele>269.2</ele>
        <time>2024-07-31T09:52:55Z</time>
      </trkpt>
      <trkpt lat="47.30376" lon="6.21221">
        <ele>269.2</ele>
        <time>2024-07-31T09:52:56Z</time>
      </trkpt>
      <trkpt lat="47.30378" lon="6.21212">
        <ele>269.4</ele>
        <time>2024-07-31T09:52:57Z</time>
      </trkpt>
      <trkpt lat="47.3038" lon="6.21202">
        <ele>269.4</ele>
        <time>2024-07-31T09:52:58Z</time>
      </trkpt>
      <trkpt lat="47.30382" lon="6.21193">
        <ele>269.4</ele>
        <time>2024-07-31T09:52:59Z</time>
      </trkpt>
      <trkpt lat="47.30384" lon="6.21183">
        <ele>269.2</ele>
        <time>2024-07-31T09:53:00Z</time>
      </trkpt>
      <trkpt lat="47.30386" lon="6.21173">
        <ele>269.4</ele>
        <time>2024-07-31T09:53:01Z</time>
      </trkpt>
      <trkpt lat="47.30388" lon="6.21164">
        <ele>269.4</ele>
        <time>2024-07-31T09:53:02Z</time>
      </trkpt>
      <trkpt lat="47.3039" lon="6.21154">
        <ele>269.6</ele>
        <time>2024-07-31T09:53:03Z</time>
      </trkpt>
      <trkpt lat="47.30391" lon="6.21144">
        <ele>269.4</ele>
        <time>2024-07-31T09:53:04Z</time>
      </trkpt>
      <trkpt lat="47.30393" lon="6.21134">
        <ele>269.8</ele>
        <time>2024-07-31T09:53:05Z</time>
      </trkpt>
      <trkpt lat="47.30395" lon="6.21122">
        <ele>269.6</ele>
        <time>2024-07-31T09:53:06Z</time>
      </trkpt>
      <trkpt lat="47.30396" lon="6.21112">
        <ele>269.6</ele>
        <time>2024-07-31T09:53:07Z</time>
      </trkpt>
      <trkpt lat="47.30398" lon="6.21102">
        <ele>269.6</ele>
        <time>2024-07-31T09:53:08Z</time>
      </trkpt>
      <trkpt lat="47.30399" lon="6.21093">
        <ele>269.6</ele>
        <time>2024-07-31T09:53:09Z</time>
      </trkpt>
      <trkpt lat="47.30401" lon="6.21083">
        <ele>269.6</ele>
        <time>2024-07-31T09:53:10Z</time>
      </trkpt>
      <trkpt lat="47.30401" lon="6.21073">
        <ele>269.4</ele>
        <time>2024-07-31T09:53:11Z</time>
      </trkpt>
      <trkpt lat="47.30402" lon="6.21063">
        <ele>269.4</ele>
        <time>2024-07-31T09:53:12Z</time>
      </trkpt>
      <trkpt lat="47.30402" lon="6.21053">
        <ele>269.2</ele>
        <time>2024-07-31T09:53:13Z</time>
      </trkpt>
      <trkpt lat="47.30402" lon="6.21043">
        <ele>269.4</ele>
        <time>2024-07-31T09:53:14Z</time>
      </trkpt>
      <trkpt lat="47.30402" lon="6.21034">
        <ele>269.2</ele>
        <time>2024-07-31T09:53:15Z</time>
      </trkpt>
      <trkpt lat="47.30402" lon="6.21024">
        <ele>269.2</ele>
        <time>2024-07-31T09:53:16Z</time>
      </trkpt>
      <trkpt lat="47.30402" lon="6.21015">
        <ele>269.2</ele>
        <time>2024-07-31T09:53:17Z</time>
      </trkpt>
      <trkpt lat="47.30402" lon="6.21005">
        <ele>269.4</ele>
        <time>2024-07-31T09:53:18Z</time>
      </trkpt>
      <trkpt lat="47.30401" lon="6.20995">
        <ele>269.2</ele>
        <time>2024-07-31T09:53:19Z</time>
      </trkpt>
      <trkpt lat="47.30401" lon="6.20985">
        <ele>269.4</ele>
        <time>2024-07-31T09:53:20Z</time>
      </trkpt>
      <trkpt lat="47.304" lon="6.20974">
        <ele>269.4</ele>
        <time>2024-07-31T09:53:21Z</time>
      </trkpt>
      <trkpt lat="47.304" lon="6.20964">
        <ele>269.4</ele>
        <time>2024-07-31T09:53:22Z</time>
      </trkpt>
      <trkpt lat="47.30399" lon="6.20955">
        <ele>269.4</ele>
        <time>2024-07-31T09:53:23Z</time>
      </trkpt>
      <trkpt lat="47.30398" lon="6.20945">
        <ele>269.4</ele>
        <time>2024-07-31T09:53:24Z</time>
      </trkpt>
      <trkpt lat="47.30396" lon="6.20934">
        <ele>269.4</ele>
        <time>2024-07-31T09:53:25Z</time>
      </trkpt>
      <trkpt lat="47.30394" lon="6.20924">
        <ele>269.6</ele>
        <time>2024-07-31T09:53:26Z</time>
      </trkpt>
      <trkpt lat="47.30392" lon="6.20915">
        <ele>269.8</ele>
        <time>2024-07-31T09:53:27Z</time>
      </trkpt>
      <trkpt lat="47.3039" lon="6.20905">
        <ele>269.8</ele>
        <time>2024-07-31T09:53:28Z</time>
      </trkpt>
      <trkpt lat="47.30388" lon="6.20896">
        <ele>270</ele>
        <time>2024-07-31T09:53:29Z</time>
      </trkpt>
      <trkpt lat="47.30386" lon="6.20886">
        <ele>270</ele>
        <time>2024-07-31T09:53:30Z</time>
      </trkpt>
      <trkpt lat="47.30383" lon="6.20876">
        <ele>269.8</ele>
        <time>2024-07-31T09:53:31Z</time>
      </trkpt>
      <trkpt lat="47.30381" lon="6.20868">
        <ele>269.8</ele>
        <time>2024-07-31T09:53:32Z</time>
      </trkpt>
      <trkpt lat="47.30378" lon="6.20859">
        <ele>269.4</ele>
        <time>2024-07-31T09:53:33Z</time>
      </trkpt>
      <trkpt lat="47.30374" lon="6.20851">
        <ele>269.4</ele>
        <time>2024-07-31T09:53:34Z</time>
      </trkpt>
      <trkpt lat="47.30371" lon="6.20843">
        <ele>269.8</ele>
        <time>2024-07-31T09:53:35Z</time>
      </trkpt>
      <trkpt lat="47.30368" lon="6.20835">
        <ele>270</ele>
        <time>2024-07-31T09:53:36Z</time>
      </trkpt>
      <trkpt lat="47.30364" lon="6.20826">
        <ele>270</ele>
        <time>2024-07-31T09:53:37Z</time>
      </trkpt>
      <trkpt lat="47.3036" lon="6.20818">
        <ele>269.8</ele>
        <time>2024-07-31T09:53:38Z</time>
      </trkpt>
      <trkpt lat="47.30356" lon="6.20809">
        <ele>270</ele>
        <time>2024-07-31T09:53:39Z</time>
      </trkpt>
      <trkpt lat="47.30352" lon="6.20801">
        <ele>270.2</ele>
        <time>2024-07-31T09:53:40Z</time>
      </trkpt>
      <trkpt lat="47.30348" lon="6.20793">
        <ele>270.2</ele>
        <time>2024-07-31T09:53:41Z</time>
      </trkpt>
      <trkpt lat="47.30344" lon="6.20786">
        <ele>270.4</ele>
        <time>2024-07-31T09:53:42Z</time>
      </trkpt>
      <trkpt lat="47.30339" lon="6.20779">
        <ele>270.4</ele>
        <time>2024-07-31T09:53:43Z</time>
      </trkpt>
      <trkpt lat="47.30335" lon="6.20773">
        <ele>270.8</ele>
        <time>2024-07-31T09:53:44Z</time>
      </trkpt>
      <trkpt lat="47.30331" lon="6.20767">
        <ele>271</ele>
        <time>2024-07-31T09:53:45Z</time>
      </trkpt>
      <trkpt lat="47.30328" lon="6.20761">
        <ele>271.2</ele>
        <time>2024-07-31T09:53:46Z</time>
      </trkpt>
      <trkpt lat="47.30325" lon="6.20756">
        <ele>271.6</ele>
        <time>2024-07-31T09:53:47Z</time>
      </trkpt>
      <trkpt lat="47.30321" lon="6.20752">
        <ele>271.8</ele>
        <time>2024-07-31T09:53:48Z</time>
      </trkpt>
      <trkpt lat="47.30318" lon="6.20749">
        <ele>272</ele>
        <time>2024-07-31T09:53:49Z</time>
      </trkpt>
      <trkpt lat="47.30314" lon="6.20745">
        <ele>272.2</ele>
        <time>2024-07-31T09:53:50Z</time>
      </trkpt>
      <trkpt lat="47.3031" lon="6.20742">
        <ele>272.4</ele>
        <time>2024-07-31T09:53:51Z</time>
      </trkpt>
      <trkpt lat="47.30307" lon="6.20738">
        <ele>272.6</ele>
        <time>2024-07-31T09:53:52Z</time>
      </trkpt>
      <trkpt lat="47.30303" lon="6.20735">
        <ele>272.8</ele>
        <time>2024-07-31T09:53:53Z</time>
      </trkpt>
      <trkpt lat="47.303" lon="6.20731">
        <ele>272.8</ele>
        <time>2024-07-31T09:53:54Z</time>
      </trkpt>
      <trkpt lat="47.30296" lon="6.20727">
        <ele>273</ele>
        <time>2024-07-31T09:53:55Z</time>
      </trkpt>
      <trkpt lat="47.30292" lon="6.20723">
        <ele>272.8</ele>
        <time>2024-07-31T09:53:56Z</time>
      </trkpt>
      <trkpt lat="47.30288" lon="6.20719">
        <ele>273</ele>
        <time>2024-07-31T09:53:57Z</time>
      </trkpt>
      <trkpt lat="47.30283" lon="6.20715">
        <ele>273.4</ele>
        <time>2024-07-31T09:53:58Z</time>
      </trkpt>
      <trkpt lat="47.30279" lon="6.20711">
        <ele>273.4</ele>
        <time>2024-07-31T09:53:59Z</time>
      </trkpt>
      <trkpt lat="47.30275" lon="6.20707">
        <ele>273.8</ele>
        <time>2024-07-31T09:54:00Z</time>
      </trkpt>
      <trkpt lat="47.30271" lon="6.20704">
        <ele>273.8</ele>
        <time>2024-07-31T09:54:01Z</time>
      </trkpt>
      <trkpt lat="47.30267" lon="6.207">
        <ele>273.8</ele>
        <time>2024-07-31T09:54:02Z</time>
      </trkpt>
      <trkpt lat="47.30263" lon="6.20697">
        <ele>274.2</ele>
        <time>2024-07-31T09:54:03Z</time>
      </trkpt>
      <trkpt lat="47.30259" lon="6.20693">
        <ele>274.6</ele>
        <time>2024-07-31T09:54:04Z</time>
      </trkpt>
      <trkpt lat="47.30255" lon="6.2069">
        <ele>274.6</ele>
        <time>2024-07-31T09:54:05Z</time>
      </trkpt>
      <trkpt lat="47.30252" lon="6.20686">
        <ele>274.6</ele>
        <time>2024-07-31T09:54:06Z</time>
      </trkpt>
      <trkpt lat="47.30248" lon="6.20683">
        <ele>275</ele>
        <time>2024-07-31T09:54:07Z</time>
      </trkpt>
      <trkpt lat="47.30244" lon="6.20679">
        <ele>275.2</ele>
        <time>2024-07-31T09:54:08Z</time>
      </trkpt>
      <trkpt lat="47.3024" lon="6.20676">
        <ele>275.2</ele>
        <time>2024-07-31T09:54:09Z</time>
      </trkpt>
      <trkpt lat="47.30236" lon="6.20673">
        <ele>275.4</ele>
        <time>2024-07-31T09:54:10Z</time>
      </trkpt>
      <trkpt lat="47.30232" lon="6.2067">
        <ele>275.4</ele>
        <time>2024-07-31T09:54:11Z</time>
      </trkpt>
      <trkpt lat="47.30228" lon="6.20667">
        <ele>275.4</ele>
        <time>2024-07-31T09:54:12Z</time>
      </trkpt>
      <trkpt lat="47.30223" lon="6.20663">
        <ele>275.6</ele>
        <time>2024-07-31T09:54:13Z</time>
      </trkpt>
      <trkpt lat="47.30219" lon="6.2066">
        <ele>275.6</ele>
        <time>2024-07-31T09:54:14Z</time>
      </trkpt>
      <trkpt lat="47.30214" lon="6.20656">
        <ele>275.2</ele>
        <time>2024-07-31T09:54:15Z</time>
      </trkpt>
      <trkpt lat="47.30209" lon="6.20653">
        <ele>275</ele>
        <time>2024-07-31T09:54:16Z</time>
      </trkpt>
      <trkpt lat="47.30204" lon="6.2065">
        <ele>274.8</ele>
        <time>2024-07-31T09:54:17Z</time>
      </trkpt>
      <trkpt lat="47.30199" lon="6.20647">
        <ele>274.8</ele>
        <time>2024-07-31T09:54:18Z</time>
      </trkpt>
      <trkpt lat="47.30193" lon="6.20644">
        <ele>275</ele>
        <time>2024-07-31T09:54:19Z</time>
      </trkpt>
      <trkpt lat="47.30186" lon="6.20641">
        <ele>274.4</ele>
        <time>2024-07-31T09:54:20Z</time>
      </trkpt>
      <trkpt lat="47.3018" lon="6.20638">
        <ele>273.6</ele>
        <time>2024-07-31T09:54:21Z</time>
      </trkpt>
      <trkpt lat="47.30173" lon="6.20635">
        <ele>272.8</ele>
        <time>2024-07-31T09:54:22Z</time>
      </trkpt>
      <trkpt lat="47.30166" lon="6.20632">
        <ele>272</ele>
        <time>2024-07-31T09:54:23Z</time>
      </trkpt>
      <trkpt lat="47.30158" lon="6.20629">
        <ele>271.8</ele>
        <time>2024-07-31T09:54:24Z</time>
      </trkpt>
      <trkpt lat="47.30151" lon="6.20627">
        <ele>271.4</ele>
        <time>2024-07-31T09:54:25Z</time>
      </trkpt>
      <trkpt lat="47.30143" lon="6.20624">
        <ele>271</ele>
        <time>2024-07-31T09:54:26Z</time>
      </trkpt>
      <trkpt lat="47.30135" lon="6.20621">
        <ele>270.4</ele>
        <time>2024-07-31T09:54:27Z</time>
      </trkpt>
      <trkpt lat="47.30127" lon="6.20617">
        <ele>270.4</ele>
        <time>2024-07-31T09:54:28Z</time>
      </trkpt>
      <trkpt lat="47.30119" lon="6.20614">
        <ele>270.4</ele>
        <time>2024-07-31T09:54:29Z</time>
      </trkpt>
      <trkpt lat="47.30111" lon="6.2061">
        <ele>270.2</ele>
        <time>2024-07-31T09:54:30Z</time>
      </trkpt>
      <trkpt lat="47.30104" lon="6.20606">
        <ele>270</ele>
        <time>2024-07-31T09:54:31Z</time>
      </trkpt>
      <trkpt lat="47.30097" lon="6.20602">
        <ele>270</ele>
        <time>2024-07-31T09:54:32Z</time>
      </trkpt>
      <trkpt lat="47.3009" lon="6.20598">
        <ele>269.6</ele>
        <time>2024-07-31T09:54:33Z</time>
      </trkpt>
      <trkpt lat="47.30083" lon="6.20595">
        <ele>269.4</ele>
        <time>2024-07-31T09:54:34Z</time>
      </trkpt>
      <trkpt lat="47.30077" lon="6.20592">
        <ele>269.4</ele>
        <time>2024-07-31T09:54:35Z</time>
      </trkpt>
      <trkpt lat="47.3007" lon="6.2059">
        <ele>269.2</ele>
        <time>2024-07-31T09:54:36Z</time>
      </trkpt>
      <trkpt lat="47.30064" lon="6.20587">
        <ele>269</ele>
        <time>2024-07-31T09:54:37Z</time>
      </trkpt>
      <trkpt lat="47.30058" lon="6.20584">
        <ele>269</ele>
        <time>2024-07-31T09:54:38Z</time>
      </trkpt>
      <trkpt lat="47.30052" lon="6.20581">
        <ele>269.2</ele>
        <time>2024-07-31T09:54:39Z</time>
      </trkpt>
      <trkpt lat="47.30046" lon="6.20578">
        <ele>269</ele>
        <time>2024-07-31T09:54:40Z</time>
      </trkpt>
      <trkpt lat="47.30039" lon="6.20576">
        <ele>269</ele>
        <time>2024-07-31T09:54:41Z</time>
      </trkpt>
      <trkpt lat="47.30033" lon="6.20575">
        <ele>268.8</ele>
        <time>2024-07-31T09:54:42Z</time>
      </trkpt>
      <trkpt lat="47.30026" lon="6.20573">
        <ele>268.6</ele>
        <time>2024-07-31T09:54:43Z</time>
      </trkpt>
      <trkpt lat="47.3002" lon="6.2057">
        <ele>268.8</ele>
        <time>2024-07-31T09:54:44Z</time>
      </trkpt>
      <trkpt lat="47.30014" lon="6.20569">
        <ele>268.8</ele>
        <time>2024-07-31T09:54:45Z</time>
      </trkpt>
      <trkpt lat="47.30007" lon="6.20567">
        <ele>268.8</ele>
        <time>2024-07-31T09:54:46Z</time>
      </trkpt>
      <trkpt lat="47.3" lon="6.20566">
        <ele>268.8</ele>
        <time>2024-07-31T09:54:47Z</time>
      </trkpt>
      <trkpt lat="47.29994" lon="6.20564">
        <ele>269</ele>
        <time>2024-07-31T09:54:48Z</time>
      </trkpt>
      <trkpt lat="47.29987" lon="6.20562">
        <ele>269</ele>
        <time>2024-07-31T09:54:49Z</time>
      </trkpt>
      <trkpt lat="47.29981" lon="6.2056">
        <ele>269</ele>
        <time>2024-07-31T09:54:50Z</time>
      </trkpt>
      <trkpt lat="47.29974" lon="6.20558">
        <ele>268.8</ele>
        <time>2024-07-31T09:54:51Z</time>
      </trkpt>
      <trkpt lat="47.29967" lon="6.20556">
        <ele>268.6</ele>
        <time>2024-07-31T09:54:52Z</time>
      </trkpt>
      <trkpt lat="47.29961" lon="6.20554">
        <ele>268.4</ele>
        <time>2024-07-31T09:54:53Z</time>
      </trkpt>
      <trkpt lat="47.29954" lon="6.20551">
        <ele>268.6</ele>
        <time>2024-07-31T09:54:54Z</time>
      </trkpt>
      <trkpt lat="47.29948" lon="6.20549">
        <ele>268.8</ele>
        <time>2024-07-31T09:54:55Z</time>
      </trkpt>
      <trkpt lat="47.29941" lon="6.20546">
        <ele>268.6</ele>
        <time>2024-07-31T09:54:56Z</time>
      </trkpt>
      <trkpt lat="47.29934" lon="6.20544">
        <ele>268.4</ele>
        <time>2024-07-31T09:54:57Z</time>
      </trkpt>
      <trkpt lat="47.29927" lon="6.20542">
        <ele>268.4</ele>
        <time>2024-07-31T09:54:58Z</time>
      </trkpt>
      <trkpt lat="47.29921" lon="6.20539">
        <ele>268.2</ele>
        <time>2024-07-31T09:54:59Z</time>
      </trkpt>
      <trkpt lat="47.29914" lon="6.20537">
        <ele>268.2</ele>
        <time>2024-07-31T09:55:00Z</time>
      </trkpt>
      <trkpt lat="47.29907" lon="6.20534">
        <ele>268.4</ele>
        <time>2024-07-31T09:55:01Z</time>
      </trkpt>
      <trkpt lat="47.29901" lon="6.20531">
        <ele>268.2</ele>
        <time>2024-07-31T09:55:02Z</time>
      </trkpt>
      <trkpt lat="47.29894" lon="6.20528">
        <ele>268.2</ele>
        <time>2024-07-31T09:55:03Z</time>
      </trkpt>
      <trkpt lat="47.29888" lon="6.20525">
        <ele>268.2</ele>
        <time>2024-07-31T09:55:04Z</time>
      </trkpt>
      <trkpt lat="47.29882" lon="6.20522">
        <ele>268.6</ele>
        <time>2024-07-31T09:55:05Z</time>
      </trkpt>
      <trkpt lat="47.29876" lon="6.20519">
        <ele>268.8</ele>
        <time>2024-07-31T09:55:06Z</time>
      </trkpt>
      <trkpt lat="47.2987" lon="6.20516">
        <ele>268.8</ele>
        <time>2024-07-31T09:55:07Z</time>
      </trkpt>
      <trkpt lat="47.29864" lon="6.20514">
        <ele>268.8</ele>
        <time>2024-07-31T09:55:08Z</time>
      </trkpt>
      <trkpt lat="47.29859" lon="6.20511">
        <ele>268.8</ele>
        <time>2024-07-31T09:55:09Z</time>
      </trkpt>
      <trkpt lat="47.29853" lon="6.20509">
        <ele>268.8</ele>
        <time>2024-07-31T09:55:10Z</time>
      </trkpt>
      <trkpt lat="47.29847" lon="6.20506">
        <ele>268.6</ele>
        <time>2024-07-31T09:55:11Z</time>
      </trkpt>
      <trkpt lat="47.2984" lon="6.20504">
        <ele>268.6</ele>
        <time>2024-07-31T09:55:12Z</time>
      </trkpt>
      <trkpt lat="47.29833" lon="6.20501">
        <ele>268.4</ele>
        <time>2024-07-31T09:55:13Z</time>
      </trkpt>
      <trkpt lat="47.29827" lon="6.20499">
        <ele>268.6</ele>
        <time>2024-07-31T09:55:14Z</time>
      </trkpt>
      <trkpt lat="47.2982" lon="6.20497">
        <ele>268.4</ele>
        <time>2024-07-31T09:55:15Z</time>
      </trkpt>
      <trkpt lat="47.29814" lon="6.20494">
        <ele>268.4</ele>
        <time>2024-07-31T09:55:16Z</time>
      </trkpt>
      <trkpt lat="47.29807" lon="6.20491">
        <ele>268.4</ele>
        <time>2024-07-31T09:55:17Z</time>
      </trkpt>
      <trkpt lat="47.29801" lon="6.20488">
        <ele>268.4</ele>
        <time>2024-07-31T09:55:18Z</time>
      </trkpt>
      <trkpt lat="47.29794" lon="6.20485">
        <ele>268.4</ele>
        <time>2024-07-31T09:55:19Z</time>
      </trkpt>
      <trkpt lat="47.29787" lon="6.20483">
        <ele>268.6</ele>
        <time>2024-07-31T09:55:20Z</time>
      </trkpt>
      <trkpt lat="47.29781" lon="6.2048">
        <ele>269</ele>
        <time>2024-07-31T09:55:21Z</time>
      </trkpt>
      <trkpt lat="47.29774" lon="6.20478">
        <ele>269</ele>
        <time>2024-07-31T09:55:22Z</time>
      </trkpt>
      <trkpt lat="47.29767" lon="6.20477">
        <ele>268.8</ele>
        <time>2024-07-31T09:55:23Z</time>
      </trkpt>
      <trkpt lat="47.29761" lon="6.20475">
        <ele>268.4</ele>
        <time>2024-07-31T09:55:24Z</time>
      </trkpt>
      <trkpt lat="47.29754" lon="6.20473">
        <ele>268.4</ele>
        <time>2024-07-31T09:55:25Z</time>
      </trkpt>
      <trkpt lat="47.29747" lon="6.2047">
        <ele>268.4</ele>
        <time>2024-07-31T09:55:26Z</time>
      </trkpt>
      <trkpt lat="47.29741" lon="6.20468">
        <ele>268.4</ele>
        <time>2024-07-31T09:55:27Z</time>
      </trkpt>
      <trkpt lat="47.29734" lon="6.20467">
        <ele>268.6</ele>
        <time>2024-07-31T09:55:28Z</time>
      </trkpt>
      <trkpt lat="47.29727" lon="6.20465">
        <ele>268.6</ele>
        <time>2024-07-31T09:55:29Z</time>
      </trkpt>
      <trkpt lat="47.29721" lon="6.20463">
        <ele>268.6</ele>
        <time>2024-07-31T09:55:30Z</time>
      </trkpt>
      <trkpt lat="47.29714" lon="6.20461">
        <ele>268.8</ele>
        <time>2024-07-31T09:55:31Z</time>
      </trkpt>
      <trkpt lat="47.29707" lon="6.2046">
        <ele>268.4</ele>
        <time>2024-07-31T09:55:32Z</time>
      </trkpt>
      <trkpt lat="47.29701" lon="6.20457">
        <ele>268.4</ele>
        <time>2024-07-31T09:55:33Z</time>
      </trkpt>
      <trkpt lat="47.29695" lon="6.20456">
        <ele>268.4</ele>
        <time>2024-07-31T09:55:34Z</time>
      </trkpt>
      <trkpt lat="47.29689" lon="6.20454">
        <ele>268.4</ele>
        <time>2024-07-31T09:55:35Z</time>
      </trkpt>
      <trkpt lat="47.29682" lon="6.20452">
        <ele>268.2</ele>
        <time>2024-07-31T09:55:36Z</time>
      </trkpt>
      <trkpt lat="47.29676" lon="6.20451">
        <ele>268</ele>
        <time>2024-07-31T09:55:37Z</time>
      </trkpt>
      <trkpt lat="47.2967" lon="6.2045">
        <ele>268.2</ele>
        <time>2024-07-31T09:55:38Z</time>
      </trkpt>
      <trkpt lat="47.29663" lon="6.20448">
        <ele>268.2</ele>
        <time>2024-07-31T09:55:39Z</time>
      </trkpt>
      <trkpt lat="47.29658" lon="6.20447">
        <ele>268</ele>
        <time>2024-07-31T09:55:40Z</time>
      </trkpt>
      <trkpt lat="47.29652" lon="6.20445">
        <ele>268.2</ele>
        <time>2024-07-31T09:55:41Z</time>
      </trkpt>
      <trkpt lat="47.29647" lon="6.20443">
        <ele>268.2</ele>
        <time>2024-07-31T09:55:42Z</time>
      </trkpt>
      <trkpt lat="47.29642" lon="6.20441">
        <ele>268</ele>
        <time>2024-07-31T09:55:43Z</time>
      </trkpt>
      <trkpt lat="47.29637" lon="6.20438">
        <ele>267.8</ele>
        <time>2024-07-31T09:55:44Z</time>
      </trkpt>
      <trkpt lat="47.29633" lon="6.20435">
        <ele>268</ele>
        <time>2024-07-31T09:55:45Z</time>
      </trkpt>
      <trkpt lat="47.2963" lon="6.20431">
        <ele>268</ele>
        <time>2024-07-31T09:55:46Z</time>
      </trkpt>
      <trkpt lat="47.29626" lon="6.20427">
        <ele>268.2</ele>
        <time>2024-07-31T09:55:47Z</time>
      </trkpt>
      <trkpt lat="47.29623" lon="6.20423">
        <ele>268.2</ele>
        <time>2024-07-31T09:55:48Z</time>
      </trkpt>
      <trkpt lat="47.2962" lon="6.20418">
        <ele>268.2</ele>
        <time>2024-07-31T09:55:49Z</time>
      </trkpt>
      <trkpt lat="47.29617" lon="6.20414">
        <ele>268.4</ele>
        <time>2024-07-31T09:55:50Z</time>
      </trkpt>
      <trkpt lat="47.29613" lon="6.20409">
        <ele>268.2</ele>
        <time>2024-07-31T09:55:51Z</time>
      </trkpt>
      <trkpt lat="47.29609" lon="6.20405">
        <ele>268.4</ele>
        <time>2024-07-31T09:55:52Z</time>
      </trkpt>
      <trkpt lat="47.29605" lon="6.204">
        <ele>268.4</ele>
        <time>2024-07-31T09:55:53Z</time>
      </trkpt>
      <trkpt lat="47.29601" lon="6.20396">
        <ele>268.6</ele>
        <time>2024-07-31T09:55:54Z</time>
      </trkpt>
      <trkpt lat="47.29597" lon="6.20392">
        <ele>268.6</ele>
        <time>2024-07-31T09:55:55Z</time>
      </trkpt>
      <trkpt lat="47.29594" lon="6.20387">
        <ele>268.6</ele>
        <time>2024-07-31T09:55:56Z</time>
      </trkpt>
      <trkpt lat="47.2959" lon="6.20383">
        <ele>268.6</ele>
        <time>2024-07-31T09:55:57Z</time>
      </trkpt>
      <trkpt lat="47.29585" lon="6.20379">
        <ele>268.6</ele>
        <time>2024-07-31T09:55:58Z</time>
      </trkpt>
      <trkpt lat="47.29582" lon="6.20374">
        <ele>268.6</ele>
        <time>2024-07-31T09:55:59Z</time>
      </trkpt>
      <trkpt lat="47.29578" lon="6.20368">
        <ele>268.6</ele>
        <time>2024-07-31T09:56:00Z</time>
      </trkpt>
      <trkpt lat="47.29575" lon="6.20362">
        <ele>268.8</ele>
        <time>2024-07-31T09:56:01Z</time>
      </trkpt>
      <trkpt lat="47.29572" lon="6.20356">
        <ele>269</ele>
        <time>2024-07-31T09:56:02Z</time>
      </trkpt>
      <trkpt lat="47.2957" lon="6.20351">
        <ele>269.2</ele>
        <time>2024-07-31T09:56:03Z</time>
      </trkpt>
      <trkpt lat="47.29567" lon="6.20346">
        <ele>269.2</ele>
        <time>2024-07-31T09:56:04Z</time>
      </trkpt>
      <trkpt lat="47.29565" lon="6.20342">
        <ele>269.6</ele>
        <time>2024-07-31T09:56:05Z</time>
      </trkpt>
      <trkpt lat="47.29563" lon="6.20336">
        <ele>269.6</ele>
        <time>2024-07-31T09:56:06Z</time>
      </trkpt>
      <trkpt lat="47.29561" lon="6.20329">
        <ele>269.4</ele>
        <time>2024-07-31T09:56:07Z</time>
      </trkpt>
      <trkpt lat="47.2956" lon="6.20323">
        <ele>269.4</ele>
        <time>2024-07-31T09:56:08Z</time>
      </trkpt>
      <trkpt lat="47.29558" lon="6.20316">
        <ele>269.2</ele>
        <time>2024-07-31T09:56:09Z</time>
      </trkpt>
      <trkpt lat="47.29556" lon="6.2031">
        <ele>269.4</ele>
        <time>2024-07-31T09:56:10Z</time>
      </trkpt>
      <trkpt lat="47.29555" lon="6.20303">
        <ele>269.6</ele>
        <time>2024-07-31T09:56:11Z</time>
      </trkpt>
      <trkpt lat="47.29553" lon="6.20296">
        <ele>269.8</ele>
        <time>2024-07-31T09:56:12Z</time>
      </trkpt>
      <trkpt lat="47.29552" lon="6.20289">
        <ele>269.8</ele>
        <time>2024-07-31T09:56:13Z</time>
      </trkpt>
      <trkpt lat="47.2955" lon="6.20281">
        <ele>269.6</ele>
        <time>2024-07-31T09:56:14Z</time>
      </trkpt>
      <trkpt lat="47.29548" lon="6.20274">
        <ele>269.8</ele>
        <time>2024-07-31T09:56:15Z</time>
      </trkpt>
      <trkpt lat="47.29547" lon="6.20267">
        <ele>269.8</ele>
        <time>2024-07-31T09:56:16Z</time>
      </trkpt>
      <trkpt lat="47.29545" lon="6.2026">
        <ele>269.8</ele>
        <time>2024-07-31T09:56:17Z</time>
      </trkpt>
      <trkpt lat="47.29543" lon="6.20252">
        <ele>269.8</ele>
        <time>2024-07-31T09:56:18Z</time>
      </trkpt>
      <trkpt lat="47.29541" lon="6.20245">
        <ele>269.8</ele>
        <time>2024-07-31T09:56:19Z</time>
      </trkpt>
      <trkpt lat="47.29539" lon="6.20238">
        <ele>269.8</ele>
        <time>2024-07-31T09:56:20Z</time>
      </trkpt>
      <trkpt lat="47.29536" lon="6.20231">
        <ele>269.8</ele>
        <time>2024-07-31T09:56:21Z</time>
      </trkpt>
      <trkpt lat="47.29534" lon="6.20224">
        <ele>269.8</ele>
        <time>2024-07-31T09:56:22Z</time>
      </trkpt>
      <trkpt lat="47.29531" lon="6.20217">
        <ele>269.6</ele>
        <time>2024-07-31T09:56:23Z</time>
      </trkpt>
      <trkpt lat="47.29528" lon="6.2021">
        <ele>269.8</ele>
        <time>2024-07-31T09:56:24Z</time>
      </trkpt>
      <trkpt lat="47.29525" lon="6.20203">
        <ele>269.6</ele>
        <time>2024-07-31T09:56:25Z</time>
      </trkpt>
      <trkpt lat="47.29522" lon="6.20197">
        <ele>269.8</ele>
        <time>2024-07-31T09:56:26Z</time>
      </trkpt>
      <trkpt lat="47.29518" lon="6.20191">
        <ele>269.6</ele>
        <time>2024-07-31T09:56:27Z</time>
      </trkpt>
      <trkpt lat="47.29515" lon="6.20185">
        <ele>269.8</ele>
        <time>2024-07-31T09:56:28Z</time>
      </trkpt>
      <trkpt lat="47.2951" lon="6.2018">
        <ele>269.8</ele>
        <time>2024-07-31T09:56:29Z</time>
      </trkpt>
      <trkpt lat="47.29506" lon="6.20175">
        <ele>269.8</ele>
        <time>2024-07-31T09:56:30Z</time>
      </trkpt>
      <trkpt lat="47.29502" lon="6.20169">
        <ele>270</ele>
        <time>2024-07-31T09:56:31Z</time>
      </trkpt>
      <trkpt lat="47.29497" lon="6.20165">
        <ele>270</ele>
        <time>2024-07-31T09:56:32Z</time>
      </trkpt>
      <trkpt lat="47.29493" lon="6.2016">
        <ele>270</ele>
        <time>2024-07-31T09:56:33Z</time>
      </trkpt>
      <trkpt lat="47.29489" lon="6.20155">
        <ele>270.2</ele>
        <time>2024-07-31T09:56:34Z</time>
      </trkpt>
      <trkpt lat="47.29485" lon="6.20151">
        <ele>270.2</ele>
        <time>2024-07-31T09:56:35Z</time>
      </trkpt>
      <trkpt lat="47.29481" lon="6.20146">
        <ele>270.4</ele>
        <time>2024-07-31T09:56:36Z</time>
      </trkpt>
      <trkpt lat="47.29477" lon="6.20142">
        <ele>270.2</ele>
        <time>2024-07-31T09:56:37Z</time>
      </trkpt>
      <trkpt lat="47.29474" lon="6.20138">
        <ele>270.4</ele>
        <time>2024-07-31T09:56:38Z</time>
      </trkpt>
      <trkpt lat="47.2947" lon="6.20134">
        <ele>270.4</ele>
        <time>2024-07-31T09:56:39Z</time>
      </trkpt>
      <trkpt lat="47.29467" lon="6.20131">
        <ele>270.4</ele>
        <time>2024-07-31T09:56:40Z</time>
      </trkpt>
      <trkpt lat="47.29465" lon="6.20127">
        <ele>270.4</ele>
        <time>2024-07-31T09:56:41Z</time>
      </trkpt>
      <trkpt lat="47.29463" lon="6.20123">
        <ele>270.6</ele>
        <time>2024-07-31T09:56:42Z</time>
      </trkpt>
      <trkpt lat="47.29463" lon="6.2012">
        <ele>270.6</ele>
        <time>2024-07-31T09:56:43Z</time>
      </trkpt>
      <trkpt lat="47.29464" lon="6.20115">
        <ele>270.8</ele>
        <time>2024-07-31T09:56:44Z</time>
      </trkpt>
      <trkpt lat="47.29465" lon="6.20111">
        <ele>270.8</ele>
        <time>2024-07-31T09:56:45Z</time>
      </trkpt>
      <trkpt lat="47.29466" lon="6.20107">
        <ele>271</ele>
        <time>2024-07-31T09:56:46Z</time>
      </trkpt>
      <trkpt lat="47.29467" lon="6.20102">
        <ele>271</ele>
        <time>2024-07-31T09:56:47Z</time>
      </trkpt>
      <trkpt lat="47.29469" lon="6.20098">
        <ele>271</ele>
        <time>2024-07-31T09:56:48Z</time>
      </trkpt>
      <trkpt lat="47.29471" lon="6.20094">
        <ele>271.2</ele>
        <time>2024-07-31T09:56:49Z</time>
      </trkpt>
      <trkpt lat="47.29472" lon="6.2009">
        <ele>271.4</ele>
        <time>2024-07-31T09:56:50Z</time>
      </trkpt>
      <trkpt lat="47.29474" lon="6.20085">
        <ele>271.4</ele>
        <time>2024-07-31T09:56:51Z</time>
      </trkpt>
      <trkpt lat="47.29476" lon="6.20081">
        <ele>271.6</ele>
        <time>2024-07-31T09:56:52Z</time>
      </trkpt>
      <trkpt lat="47.29477" lon="6.20076">
        <ele>271.8</ele>
        <time>2024-07-31T09:56:53Z</time>
      </trkpt>
      <trkpt lat="47.29478" lon="6.20072">
        <ele>272</ele>
        <time>2024-07-31T09:56:54Z</time>
      </trkpt>
      <trkpt lat="47.29479" lon="6.20067">
        <ele>272.4</ele>
        <time>2024-07-31T09:56:55Z</time>
      </trkpt>
      <trkpt lat="47.2948" lon="6.20062">
        <ele>272.4</ele>
        <time>2024-07-31T09:56:56Z</time>
      </trkpt>
      <trkpt lat="47.29482" lon="6.20058">
        <ele>272.6</ele>
        <time>2024-07-31T09:56:57Z</time>
      </trkpt>
      <trkpt lat="47.29483" lon="6.20053">
        <ele>272.8</ele>
        <time>2024-07-31T09:56:58Z</time>
      </trkpt>
      <trkpt lat="47.29485" lon="6.20048">
        <ele>273</ele>
        <time>2024-07-31T09:56:59Z</time>
      </trkpt>
      <trkpt lat="47.29486" lon="6.20043">
        <ele>273</ele>
        <time>2024-07-31T09:57:00Z</time>
      </trkpt>
      <trkpt lat="47.29487" lon="6.20039">
        <ele>273.2</ele>
        <time>2024-07-31T09:57:01Z</time>
      </trkpt>
      <trkpt lat="47.29488" lon="6.20034">
        <ele>273.4</ele>
        <time>2024-07-31T09:57:02Z</time>
      </trkpt>
      <trkpt lat="47.2949" lon="6.20029">
        <ele>273.4</ele>
        <time>2024-07-31T09:57:03Z</time>
      </trkpt>
      <trkpt lat="47.29491" lon="6.20025">
        <ele>273.6</ele>
        <time>2024-07-31T09:57:04Z</time>
      </trkpt>
      <trkpt lat="47.29493" lon="6.20021">
        <ele>273.8</ele>
        <time>2024-07-31T09:57:05Z</time>
      </trkpt>
      <trkpt lat="47.29494" lon="6.20016">
        <ele>274</ele>
        <time>2024-07-31T09:57:06Z</time>
      </trkpt>
      <trkpt lat="47.29496" lon="6.20011">
        <ele>274</ele>
        <time>2024-07-31T09:57:07Z</time>
      </trkpt>
      <trkpt lat="47.29498" lon="6.20008">
        <ele>274.4</ele>
        <time>2024-07-31T09:57:08Z</time>
      </trkpt>
      <trkpt lat="47.295" lon="6.20005">
        <ele>274.6</ele>
        <time>2024-07-31T09:57:09Z</time>
      </trkpt>
      <trkpt lat="47.29503" lon="6.20003">
        <ele>274.8</ele>
        <time>2024-07-31T09:57:10Z</time>
      </trkpt>
      <trkpt lat="47.29505" lon="6.19999">
        <ele>275</ele>
        <time>2024-07-31T09:57:11Z</time>
      </trkpt>
      <trkpt lat="47.29507" lon="6.19996">
        <ele>275</ele>
        <time>2024-07-31T09:57:12Z</time>
      </trkpt>
      <trkpt lat="47.2951" lon="6.19992">
        <ele>275.4</ele>
        <time>2024-07-31T09:57:13Z</time>
      </trkpt>
      <trkpt lat="47.29512" lon="6.19989">
        <ele>275.6</ele>
        <time>2024-07-31T09:57:14Z</time>
      </trkpt>
      <trkpt lat="47.29514" lon="6.19986">
        <ele>275.8</ele>
        <time>2024-07-31T09:57:15Z</time>
      </trkpt>
      <trkpt lat="47.29516" lon="6.19982">
        <ele>275.8</ele>
        <time>2024-07-31T09:57:16Z</time>
      </trkpt>
      <trkpt lat="47.29518" lon="6.19978">
        <ele>276</ele>
        <time>2024-07-31T09:57:17Z</time>
      </trkpt>
      <trkpt lat="47.2952" lon="6.19975">
        <ele>276.4</ele>
        <time>2024-07-31T09:57:18Z</time>
      </trkpt>
      <trkpt lat="47.29521" lon="6.19971">
        <ele>276.6</ele>
        <time>2024-07-31T09:57:19Z</time>
      </trkpt>
      <trkpt lat="47.29523" lon="6.19967">
        <ele>276.8</ele>
        <time>2024-07-31T09:57:20Z</time>
      </trkpt>
      <trkpt lat="47.29524" lon="6.19964">
        <ele>277.2</ele>
        <time>2024-07-31T09:57:21Z</time>
      </trkpt>
      <trkpt lat="47.29526" lon="6.19961">
        <ele>277.6</ele>
        <time>2024-07-31T09:57:22Z</time>
      </trkpt>
      <trkpt lat="47.29528" lon="6.19958">
        <ele>278</ele>
        <time>2024-07-31T09:57:23Z</time>
      </trkpt>
      <trkpt lat="47.29529" lon="6.19955">
        <ele>278</ele>
        <time>2024-07-31T09:57:24Z</time>
      </trkpt>
      <trkpt lat="47.29531" lon="6.19952">
        <ele>278</ele>
        <time>2024-07-31T09:57:25Z</time>
      </trkpt>
      <trkpt lat="47.29532" lon="6.1995">
        <ele>278.4</ele>
        <time>2024-07-31T09:57:26Z</time>
      </trkpt>
      <trkpt lat="47.29533" lon="6.19947">
        <ele>278.6</ele>
        <time>2024-07-31T09:57:27Z</time>
      </trkpt>
      <trkpt lat="47.29534" lon="6.19943">
        <ele>278.8</ele>
        <time>2024-07-31T09:57:28Z</time>
      </trkpt>
      <trkpt lat="47.29535" lon="6.1994">
        <ele>278.8</ele>
        <time>2024-07-31T09:57:29Z</time>
      </trkpt>
      <trkpt lat="47.29536" lon="6.19937">
        <ele>279.2</ele>
        <time>2024-07-31T09:57:30Z</time>
      </trkpt>
      <trkpt lat="47.29537" lon="6.19934">
        <ele>279.2</ele>
        <time>2024-07-31T09:57:31Z</time>
      </trkpt>
      <trkpt lat="47.29538" lon="6.19931">
        <ele>279.4</ele>
        <time>2024-07-31T09:57:32Z</time>
      </trkpt>
      <trkpt lat="47.2954" lon="6.19928">
        <ele>279.6</ele>
        <time>2024-07-31T09:57:33Z</time>
      </trkpt>
      <trkpt lat="47.29541" lon="6.19924">
        <ele>279.8</ele>
        <time>2024-07-31T09:57:34Z</time>
      </trkpt>
      <trkpt lat="47.29542" lon="6.19921">
        <ele>279.8</ele>
        <time>2024-07-31T09:57:35Z</time>
      </trkpt>
      <trkpt lat="47.29543" lon="6.19918">
        <ele>280</ele>
        <time>2024-07-31T09:57:36Z</time>
      </trkpt>
      <trkpt lat="47.29544" lon="6.19915">
        <ele>280.2</ele>
        <time>2024-07-31T09:57:37Z</time>
      </trkpt>
      <trkpt lat="47.29545" lon="6.19911">
        <ele>280.4</ele>
        <time>2024-07-31T09:57:38Z</time>
      </trkpt>
      <trkpt lat="47.29546" lon="6.19908">
        <ele>280.6</ele>
        <time>2024-07-31T09:57:39Z</time>
      </trkpt>
      <trkpt lat="47.29547" lon="6.19904">
        <ele>280.8</ele>
        <time>2024-07-31T09:57:40Z</time>
      </trkpt>
      <trkpt lat="47.29548" lon="6.19901">
        <ele>280.8</ele>
        <time>2024-07-31T09:57:41Z</time>
      </trkpt>
      <trkpt lat="47.29549" lon="6.19898">
        <ele>281.2</ele>
        <time>2024-07-31T09:57:42Z</time>
      </trkpt>
      <trkpt lat="47.2955" lon="6.19895">
        <ele>281.2</ele>
        <time>2024-07-31T09:57:43Z</time>
      </trkpt>
      <trkpt lat="47.29551" lon="6.19892">
        <ele>281.6</ele>
        <time>2024-07-31T09:57:44Z</time>
      </trkpt>
      <trkpt lat="47.29551" lon="6.19888">
        <ele>281.8</ele>
        <time>2024-07-31T09:57:45Z</time>
      </trkpt>
      <trkpt lat="47.29551" lon="6.19884">
        <ele>282</ele>
        <time>2024-07-31T09:57:46Z</time>
      </trkpt>
      <trkpt lat="47.29552" lon="6.1988">
        <ele>282</ele>
        <time>2024-07-31T09:57:47Z</time>
      </trkpt>
      <trkpt lat="47.29552" lon="6.19877">
        <ele>282.2</ele>
        <time>2024-07-31T09:57:48Z</time>
      </trkpt>
      <trkpt lat="47.29553" lon="6.19873">
        <ele>282.4</ele>
        <time>2024-07-31T09:57:49Z</time>
      </trkpt>
      <trkpt lat="47.29553" lon="6.1987">
        <ele>282.8</ele>
        <time>2024-07-31T09:57:50Z</time>
      </trkpt>
      <trkpt lat="47.29554" lon="6.19867">
        <ele>283</ele>
        <time>2024-07-31T09:57:51Z</time>
      </trkpt>
      <trkpt lat="47.29554" lon="6.19864">
        <ele>283.2</ele>
        <time>2024-07-31T09:57:52Z</time>
      </trkpt>
      <trkpt lat="47.29554" lon="6.19861">
        <ele>283.6</ele>
        <time>2024-07-31T09:57:53Z</time>
      </trkpt>
      <trkpt lat="47.29555" lon="6.19858">
        <ele>284</ele>
        <time>2024-07-31T09:57:54Z</time>
      </trkpt>
      <trkpt lat="47.29555" lon="6.19855">
        <ele>284</ele>
        <time>2024-07-31T09:57:55Z</time>
      </trkpt>
      <trkpt lat="47.29556" lon="6.19852">
        <ele>284</ele>
        <time>2024-07-31T09:57:56Z</time>
      </trkpt>
      <trkpt lat="47.29557" lon="6.19849">
        <ele>284.4</ele>
        <time>2024-07-31T09:57:57Z</time>
      </trkpt>
      <trkpt lat="47.29558" lon="6.19846">
        <ele>284.4</ele>
        <time>2024-07-31T09:57:58Z</time>
      </trkpt>
      <trkpt lat="47.29558" lon="6.19844">
        <ele>284.4</ele>
        <time>2024-07-31T09:57:59Z</time>
      </trkpt>
      <trkpt lat="47.29559" lon="6.19841">
        <ele>284.6</ele>
        <time>2024-07-31T09:58:00Z</time>
      </trkpt>
      <trkpt lat="47.29559" lon="6.19838">
        <ele>284.8</ele>
        <time>2024-07-31T09:58:01Z</time>
      </trkpt>
      <trkpt lat="47.29559" lon="6.19835">
        <ele>285</ele>
        <time>2024-07-31T09:58:02Z</time>
      </trkpt>
      <trkpt lat="47.2956" lon="6.19832">
        <ele>285.2</ele>
        <time>2024-07-31T09:58:03Z</time>
      </trkpt>
      <trkpt lat="47.29561" lon="6.1983">
        <ele>285.4</ele>
        <time>2024-07-31T09:58:04Z</time>
      </trkpt>
      <trkpt lat="47.29561" lon="6.19827">
        <ele>285.8</ele>
        <time>2024-07-31T09:58:05Z</time>
      </trkpt>
      <trkpt lat="47.29562" lon="6.19824">
        <ele>285.8</ele>
        <time>2024-07-31T09:58:06Z</time>
      </trkpt>
      <trkpt lat="47.29562" lon="6.19821">
        <ele>286</ele>
        <time>2024-07-31T09:58:07Z</time>
      </trkpt>
      <trkpt lat="47.29563" lon="6.19818">
        <ele>286.2</ele>
        <time>2024-07-31T09:58:08Z</time>
      </trkpt>
      <trkpt lat="47.29564" lon="6.19816">
        <ele>286.2</ele>
        <time>2024-07-31T09:58:09Z</time>
      </trkpt>
      <trkpt lat="47.29564" lon="6.19813">
        <ele>286.4</ele>
        <time>2024-07-31T09:58:10Z</time>
      </trkpt>
      <trkpt lat="47.29564" lon="6.1981">
        <ele>286.6</ele>
        <time>2024-07-31T09:58:11Z</time>
      </trkpt>
      <trkpt lat="47.29565" lon="6.19807">
        <ele>286.8</ele>
        <time>2024-07-31T09:58:12Z</time>
      </trkpt>
      <trkpt lat="47.29565" lon="6.19804">
        <ele>286.8</ele>
        <time>2024-07-31T09:58:13Z</time>
      </trkpt>
      <trkpt lat="47.29565" lon="6.19801">
        <ele>287.2</ele>
        <time>2024-07-31T09:58:14Z</time>
      </trkpt>
      <trkpt lat="47.29566" lon="6.19798">
        <ele>287.2</ele>
        <time>2024-07-31T09:58:15Z</time>
      </trkpt>
      <trkpt lat="47.29566" lon="6.19795">
        <ele>287.4</ele>
        <time>2024-07-31T09:58:16Z</time>
      </trkpt>
      <trkpt lat="47.29567" lon="6.19793">
        <ele>287.6</ele>
        <time>2024-07-31T09:58:17Z</time>
      </trkpt>
      <trkpt lat="47.29567" lon="6.1979">
        <ele>287.8</ele>
        <time>2024-07-31T09:58:18Z</time>
      </trkpt>
      <trkpt lat="47.29568" lon="6.19788">
        <ele>288.2</ele>
        <time>2024-07-31T09:58:19Z</time>
      </trkpt>
      <trkpt lat="47.29568" lon="6.19785">
        <ele>288.4</ele>
        <time>2024-07-31T09:58:20Z</time>
      </trkpt>
      <trkpt lat="47.29569" lon="6.19783">
        <ele>288.6</ele>
        <time>2024-07-31T09:58:21Z</time>
      </trkpt>
      <trkpt lat="47.2957" lon="6.1978">
        <ele>288.8</ele>
        <time>2024-07-31T09:58:22Z</time>
      </trkpt>
      <trkpt lat="47.2957" lon="6.19777">
        <ele>289.2</ele>
        <time>2024-07-31T09:58:23Z</time>
      </trkpt>
      <trkpt lat="47.2957" lon="6.19774">
        <ele>289.4</ele>
        <time>2024-07-31T09:58:24Z</time>
      </trkpt>
      <trkpt lat="47.29571" lon="6.19771">
        <ele>289.6</ele>
        <time>2024-07-31T09:58:25Z</time>
      </trkpt>
      <trkpt lat="47.29571" lon="6.19768">
        <ele>290</ele>
        <time>2024-07-31T09:58:26Z</time>
      </trkpt>
      <trkpt lat="47.29572" lon="6.19765">
        <ele>290.2</ele>
        <time>2024-07-31T09:58:27Z</time>
      </trkpt>
      <trkpt lat="47.29573" lon="6.19763">
        <ele>290.4</ele>
        <time>2024-07-31T09:58:28Z</time>
      </trkpt>
      <trkpt lat="47.29573" lon="6.1976">
        <ele>290.6</ele>
        <time>2024-07-31T09:58:29Z</time>
      </trkpt>
      <trkpt lat="47.29573" lon="6.19758">
        <ele>291</ele>
        <time>2024-07-31T09:58:30Z</time>
      </trkpt>
      <trkpt lat="47.29574" lon="6.19755">
        <ele>291</ele>
        <time>2024-07-31T09:58:31Z</time>
      </trkpt>
      <trkpt lat="47.29575" lon="6.19753">
        <ele>291</ele>
        <time>2024-07-31T09:58:32Z</time>
      </trkpt>
      <trkpt lat="47.29575" lon="6.19751">
        <ele>291.4</ele>
        <time>2024-07-31T09:58:33Z</time>
      </trkpt>
      <trkpt lat="47.29575" lon="6.19748">
        <ele>291.8</ele>
        <time>2024-07-31T09:58:34Z</time>
      </trkpt>
      <trkpt lat="47.29576" lon="6.19745">
        <ele>292</ele>
        <time>2024-07-31T09:58:35Z</time>
      </trkpt>
      <trkpt lat="47.29577" lon="6.19743">
        <ele>292.4</ele>
        <time>2024-07-31T09:58:36Z</time>
      </trkpt>
      <trkpt lat="47.29578" lon="6.1974">
        <ele>292.6</ele>
        <time>2024-07-31T09:58:37Z</time>
      </trkpt>
      <trkpt lat="47.29578" lon="6.19738">
        <ele>292.6</ele>
        <time>2024-07-31T09:58:38Z</time>
      </trkpt>
      <trkpt lat="47.29579" lon="6.19736">
        <ele>293</ele>
        <time>2024-07-31T09:58:39Z</time>
      </trkpt>
      <trkpt lat="47.2958" lon="6.19733">
        <ele>293.2</ele>
        <time>2024-07-31T09:58:40Z</time>
      </trkpt>
      <trkpt lat="47.2958" lon="6.19731">
        <ele>293.4</ele>
        <time>2024-07-31T09:58:41Z</time>
      </trkpt>
      <trkpt lat="47.29581" lon="6.19728">
        <ele>293.6</ele>
        <time>2024-07-31T09:58:42Z</time>
      </trkpt>
      <trkpt lat="47.29582" lon="6.19725">
        <ele>293.8</ele>
        <time>2024-07-31T09:58:43Z</time>
      </trkpt>
      <trkpt lat="47.29582" lon="6.19723">
        <ele>294.2</ele>
        <time>2024-07-31T09:58:44Z</time>
      </trkpt>
      <trkpt lat="47.29583" lon="6.19721">
        <ele>294.4</ele>
        <time>2024-07-31T09:58:45Z</time>
      </trkpt>
      <trkpt lat="47.29583" lon="6.19719">
        <ele>294.6</ele>
        <time>2024-07-31T09:58:46Z</time>
      </trkpt>
      <trkpt lat="47.29583" lon="6.19717">
        <ele>294.6</ele>
        <time>2024-07-31T09:58:47Z</time>
      </trkpt>
      <trkpt lat="47.29584" lon="6.19714">
        <ele>294.8</ele>
        <time>2024-07-31T09:58:48Z</time>
      </trkpt>
      <trkpt lat="47.29584" lon="6.19712">
        <ele>295.2</ele>
        <time>2024-07-31T09:58:49Z</time>
      </trkpt>
      <trkpt lat="47.29585" lon="6.1971">
        <ele>295.4</ele>
        <time>2024-07-31T09:58:50Z</time>
      </trkpt>
      <trkpt lat="47.29585" lon="6.19708">
        <ele>295.4</ele>
        <time>2024-07-31T09:58:51Z</time>
      </trkpt>
      <trkpt lat="47.29586" lon="6.19706">
        <ele>295.6</ele>
        <time>2024-07-31T09:58:52Z</time>
      </trkpt>
      <trkpt lat="47.29587" lon="6.19704">
        <ele>296</ele>
        <time>2024-07-31T09:58:53Z</time>
      </trkpt>
      <trkpt lat="47.29588" lon="6.19702">
        <ele>296</ele>
        <time>2024-07-31T09:58:54Z</time>
      </trkpt>
      <trkpt lat="47.29588" lon="6.197">
        <ele>296</ele>
        <time>2024-07-31T09:58:55Z</time>
      </trkpt>
      <trkpt lat="47.29588" lon="6.19699">
        <ele>296.2</ele>
        <time>2024-07-31T09:58:56Z</time>
      </trkpt>
      <trkpt lat="47.29588" lon="6.19697">
        <ele>296.4</ele>
        <time>2024-07-31T09:58:57Z</time>
      </trkpt>
      <trkpt lat="47.29588" lon="6.19696">
        <ele>296.6</ele>
        <time>2024-07-31T09:58:58Z</time>
      </trkpt>
      <trkpt lat="47.29587" lon="6.19696">
        <ele>296.6</ele>
        <time>2024-07-31T09:58:59Z</time>
      </trkpt>
      <trkpt lat="47.29587" lon="6.19696">
        <ele>296.6</ele>
        <time>2024-07-31T09:59:00Z</time>
      </trkpt>
      <trkpt lat="47.29587" lon="6.19696">
        <ele>296.4</ele>
        <time>2024-07-31T09:59:01Z</time>
      </trkpt>
      <trkpt lat="47.29587" lon="6.19696">
        <ele>296.4</ele>
        <time>2024-07-31T09:59:02Z</time>
      </trkpt>
      <trkpt lat="47.29587" lon="6.19696">
        <ele>296.6</ele>
        <time>2024-07-31T09:59:03Z</time>
      </trkpt>
      <trkpt lat="47.29586" lon="6.19696">
        <ele>296.6</ele>
        <time>2024-07-31T09:59:04Z</time>
      </trkpt>
      <trkpt lat="47.29586" lon="6.19697">
        <ele>296.6</ele>
        <time>2024-07-31T09:59:05Z</time>
      </trkpt>
      <trkpt lat="47.29585" lon="6.19697">
        <ele>296.6</ele>
        <time>2024-07-31T09:59:06Z</time>
      </trkpt>
      <trkpt lat="47.29585" lon="6.19697">
        <ele>296.4</ele>
        <time>2024-07-31T09:59:07Z</time>
      </trkpt>
      <trkpt lat="47.29584" lon="6.19697">
        <ele>296.4</ele>
        <time>2024-07-31T09:59:08Z</time>
      </trkpt>
      <trkpt lat="47.29584" lon="6.19697">
        <ele>296.4</ele>
        <time>2024-07-31T09:59:09Z</time>
      </trkpt>
      <trkpt lat="47.29584" lon="6.19697">
        <ele>296.4</ele>
        <time>2024-07-31T09:59:10Z</time>
      </trkpt>
      <trkpt lat="47.29583" lon="6.19697">
        <ele>296.4</ele>
        <time>2024-07-31T09:59:11Z</time>
      </trkpt>
      <trkpt lat="47.29583" lon="6.19697">
        <ele>296.4</ele>
        <time>2024-07-31T09:59:12Z</time>
      </trkpt>
      <trkpt lat="47.29583" lon="6.19697">
        <ele>296.4</ele>
        <time>2024-07-31T09:59:13Z</time>
      </trkpt>
      <trkpt lat="47.29583" lon="6.19696">
        <ele>296.4</ele>
        <time>2024-07-31T09:59:14Z</time>
      </trkpt>
      <trkpt lat="47.29583" lon="6.19696">
        <ele>296.4</ele>
        <time>2024-07-31T09:59:15Z</time>
      </trkpt>
      <trkpt lat="47.29583" lon="6.19696">
        <ele>296.4</ele>
        <time>2024-07-31T09:59:16Z</time>
      </trkpt>
      <trkpt lat="47.29583" lon="6.19696">
        <ele>296.4</ele>
        <time>2024-07-31T09:59:17Z</time>
      </trkpt>
      <trkpt lat="47.29583" lon="6.19696">
        <ele>296.2</ele>
        <time>2024-07-31T09:59:18Z</time>
      </trkpt>
      <trkpt lat="47.29583" lon="6.19696">
        <ele>296.4</ele>
        <time>2024-07-31T09:59:19Z</time>
      </trkpt>
      <trkpt lat="47.29583" lon="6.19696">
        <ele>296.2</ele>
        <time>2024-07-31T09:59:20Z</time>
      </trkpt>
      <trkpt lat="47.29583" lon="6.19696">
        <ele>296.2</ele>
        <time>2024-07-31T09:59:21Z</time>
      </trkpt>
      <trkpt lat="47.29583" lon="6.19696">
        <ele>296.2</ele>
        <time>2024-07-31T09:59:22Z</time>
      </trkpt>
      <trkpt lat="47.29583" lon="6.19696">
        <ele>296.2</ele>
        <time>2024-07-31T09:59:23Z</time>
      </trkpt>
      <trkpt lat="47.29583" lon="6.19696">
        <ele>296.2</ele>
        <time>2024-07-31T09:59:24Z</time>
      </trkpt>
      <trkpt lat="47.29583" lon="6.19696">
        <ele>296.2</ele>
        <time>2024-07-31T09:59:25Z</time>
      </trkpt>
      <trkpt lat="47.29583" lon="6.19696">
        <ele>296.2</ele>
        <time>2024-07-31T09:59:26Z</time>
      </trkpt>
      <trkpt lat="47.29583" lon="6.19696">
        <ele>296.4</ele>
        <time>2024-07-31T09:59:27Z</time>
      </trkpt>
      <trkpt lat="47.29583" lon="6.19696">
        <ele>296.4</ele>
        <time>2024-07-31T09:59:28Z</time>
      </trkpt>
      <trkpt lat="47.29583" lon="6.19696">
        <ele>296.2</ele>
        <time>2024-07-31T09:59:29Z</time>
      </trkpt>
      <trkpt lat="47.29583" lon="6.19696">
        <ele>296.4</ele>
        <time>2024-07-31T09:59:30Z</time>
      </trkpt>
      <trkpt lat="47.29582" lon="6.19696">
        <ele>296.2</ele>
        <time>2024-07-31T09:59:31Z</time>
      </trkpt>
      <trkpt lat="47.29582" lon="6.19696">
        <ele>296.2</ele>
        <time>2024-07-31T09:59:32Z</time>
      </trkpt>
      <trkpt lat="47.29582" lon="6.19696">
        <ele>296</ele>
        <time>2024-07-31T09:59:33Z</time>
      </trkpt>
      <trkpt lat="47.29582" lon="6.19696">
        <ele>296.2</ele>
        <time>2024-07-31T09:59:34Z</time>
      </trkpt>
      <trkpt lat="47.29582" lon="6.19696">
        <ele>296.2</ele>
        <time>2024-07-31T09:59:35Z</time>
      </trkpt>
      <trkpt lat="47.29582" lon="6.19696">
        <ele>296.2</ele>
        <time>2024-07-31T09:59:36Z</time>
      </trkpt>
      <trkpt lat="47.29582" lon="6.19696">
        <ele>296.2</ele>
        <time>2024-07-31T09:59:37Z</time>
      </trkpt>
      <trkpt lat="47.29582" lon="6.19696">
        <ele>296.2</ele>
        <time>2024-07-31T09:59:38Z</time>
      </trkpt>
      <trkpt lat="47.29582" lon="6.19696">
        <ele>296.2</ele>
        <time>2024-07-31T09:59:39Z</time>
      </trkpt>
      <trkpt lat="47.29582" lon="6.19696">
        <ele>296.2</ele>
        <time>2024-07-31T09:59:40Z</time>
      </trkpt>
      <trkpt lat="47.29582" lon="6.19696">
        <ele>296.2</ele>
        <time>2024-07-31T09:59:41Z</time>
      </trkpt>
      <trkpt lat="47.29582" lon="6.19696">
        <ele>296.4</ele>
        <time>2024-07-31T09:59:42Z</time>
      </trkpt>
      <trkpt lat="47.29582" lon="6.19696">
        <ele>296.2</ele>
        <time>2024-07-31T09:59:43Z</time>
      </trkpt>
      <trkpt lat="47.29582" lon="6.19696">
        <ele>296.2</ele>
        <time>2024-07-31T09:59:44Z</time>
      </trkpt>
      <trkpt lat="47.29582" lon="6.19696">
        <ele>296.2</ele>
        <time>2024-07-31T09:59:45Z</time>
      </trkpt>
      <trkpt lat="47.29582" lon="6.19696">
        <ele>296.2</ele>
        <time>2024-07-31T09:59:46Z</time>
      </trkpt>
      <trkpt lat="47.29583" lon="6.19696">
        <ele>296.2</ele>
        <time>2024-07-31T09:59:47Z</time>
      </trkpt>
      <trkpt lat="47.29583" lon="6.19696">
        <ele>296.4</ele>
        <time>2024-07-31T09:59:48Z</time>
      </trkpt>
      <trkpt lat="47.29583" lon="6.19697">
        <ele>296.4</ele>
        <time>2024-07-31T09:59:49Z</time>
      </trkpt>
      <trkpt lat="47.29583" lon="6.19698">
        <ele>296.2</ele>
        <time>2024-07-31T09:59:50Z</time>
      </trkpt>
      <trkpt lat="47.29584" lon="6.19698">
        <ele>296.2</ele>
        <time>2024-07-31T09:59:51Z</time>
      </trkpt>
      <trkpt lat="47.29584" lon="6.19698">
        <ele>296.2</ele>
        <time>2024-07-31T09:59:52Z</time>
      </trkpt>
      <trkpt lat="47.29585" lon="6.19699">
        <ele>296.2</ele>
        <time>2024-07-31T09:59:53Z</time>
      </trkpt>
      <trkpt lat="47.29586" lon="6.19698">
        <ele>296.2</ele>
        <time>2024-07-31T09:59:54Z</time>
      </trkpt>
      <trkpt lat="47.29587" lon="6.19696">
        <ele>296.4</ele>
        <time>2024-07-31T09:59:55Z</time>
      </trkpt>
      <trkpt lat="47.29588" lon="6.19696">
        <ele>296.6</ele>
        <time>2024-07-31T09:59:56Z</time>
      </trkpt>
      <trkpt lat="47.29588" lon="6.19694">
        <ele>296.6</ele>
        <time>2024-07-31T09:59:57Z</time>
      </trkpt>
      <trkpt lat="47.29588" lon="6.19693">
        <ele>296.6</ele>
        <time>2024-07-31T09:59:58Z</time>
      </trkpt>
      <trkpt lat="47.29588" lon="6.19691">
        <ele>296.8</ele>
        <time>2024-07-31T09:59:59Z</time>
      </trkpt>
      <trkpt lat="47.29588" lon="6.1969">
        <ele>296.8</ele>
        <time>2024-07-31T10:00:00Z</time>
      </trkpt>
      <trkpt lat="47.29588" lon="6.19688">
        <ele>296.8</ele>
        <time>2024-07-31T10:00:01Z</time>
      </trkpt>
      <trkpt lat="47.29588" lon="6.19687">
        <ele>296.6</ele>
        <time>2024-07-31T10:00:02Z</time>
      </trkpt>
      <trkpt lat="47.29587" lon="6.19686">
        <ele>296.6</ele>
        <time>2024-07-31T10:00:03Z</time>
      </trkpt>
      <trkpt lat="47.29587" lon="6.19684">
        <ele>296.4</ele>
        <time>2024-07-31T10:00:04Z</time>
      </trkpt>
      <trkpt lat="47.29586" lon="6.19683">
        <ele>296.2</ele>
        <time>2024-07-31T10:00:05Z</time>
      </trkpt>
      <trkpt lat="47.29585" lon="6.19682">
        <ele>295.8</ele>
        <time>2024-07-31T10:00:06Z</time>
      </trkpt>
      <trkpt lat="47.29585" lon="6.19682">
        <ele>295.6</ele>
        <time>2024-07-31T10:00:07Z</time>
      </trkpt>
      <trkpt lat="47.29584" lon="6.19681">
        <ele>295.4</ele>
        <time>2024-07-31T10:00:08Z</time>
      </trkpt>
      <trkpt lat="47.29583" lon="6.1968">
        <ele>295.6</ele>
        <time>2024-07-31T10:00:09Z</time>
      </trkpt>
      <trkpt lat="47.29583" lon="6.19679">
        <ele>295.4</ele>
        <time>2024-07-31T10:00:10Z</time>
      </trkpt>
      <trkpt lat="47.29583" lon="6.19678">
        <ele>295.4</ele>
        <time>2024-07-31T10:00:11Z</time>
      </trkpt>
      <trkpt lat="47.29581" lon="6.19678">
        <ele>295.2</ele>
        <time>2024-07-31T10:00:12Z</time>
      </trkpt>
      <trkpt lat="47.29581" lon="6.19677">
        <ele>295.2</ele>
        <time>2024-07-31T10:00:13Z</time>
      </trkpt>
      <trkpt lat="47.2958" lon="6.19677">
        <ele>295</ele>
        <time>2024-07-31T10:00:14Z</time>
      </trkpt>
      <trkpt lat="47.29579" lon="6.19676">
        <ele>294.8</ele>
        <time>2024-07-31T10:00:15Z</time>
      </trkpt>
      <trkpt lat="47.29578" lon="6.19676">
        <ele>294.8</ele>
        <time>2024-07-31T10:00:16Z</time>
      </trkpt>
      <trkpt lat="47.29577" lon="6.19675">
        <ele>294.6</ele>
        <time>2024-07-31T10:00:17Z</time>
      </trkpt>
      <trkpt lat="47.29576" lon="6.19675">
        <ele>294.2</ele>
        <time>2024-07-31T10:00:18Z</time>
      </trkpt>
      <trkpt lat="47.29575" lon="6.19675">
        <ele>294.4</ele>
        <time>2024-07-31T10:00:19Z</time>
      </trkpt>
      <trkpt lat="47.29574" lon="6.19675">
        <ele>294.2</ele>
        <time>2024-07-31T10:00:20Z</time>
      </trkpt>
      <trkpt lat="47.29573" lon="6.19675">
        <ele>294.2</ele>
        <time>2024-07-31T10:00:21Z</time>
      </trkpt>
      <trkpt lat="47.29573" lon="6.19675">
        <ele>294</ele>
        <time>2024-07-31T10:00:22Z</time>
      </trkpt>
      <trkpt lat="47.29572" lon="6.19675">
        <ele>294</ele>
        <time>2024-07-31T10:00:23Z</time>
      </trkpt>
      <trkpt lat="47.29571" lon="6.19675">
        <ele>294</ele>
        <time>2024-07-31T10:00:24Z</time>
      </trkpt>
      <trkpt lat="47.29571" lon="6.19675">
        <ele>293.8</ele>
        <time>2024-07-31T10:00:25Z</time>
      </trkpt>
      <trkpt lat="47.2957" lon="6.19676">
        <ele>293.6</ele>
        <time>2024-07-31T10:00:26Z</time>
      </trkpt>
      <trkpt lat="47.2957" lon="6.19676">
        <ele>293.6</ele>
        <time>2024-07-31T10:00:27Z</time>
      </trkpt>
      <trkpt lat="47.29569" lon="6.19676">
        <ele>293.6</ele>
        <time>2024-07-31T10:00:28Z</time>
      </trkpt>
      <trkpt lat="47.29569" lon="6.19676">
        <ele>293.6</ele>
        <time>2024-07-31T10:00:29Z</time>
      </trkpt>
      <trkpt lat="47.29568" lon="6.19677">
        <ele>293.8</ele>
        <time>2024-07-31T10:00:30Z</time>
      </trkpt>
      <trkpt lat="47.29568" lon="6.19677">
        <ele>293.6</ele>
        <time>2024-07-31T10:00:31Z</time>
      </trkpt>
      <trkpt lat="47.29568" lon="6.19677">
        <ele>293.4</ele>
        <time>2024-07-31T10:00:32Z</time>
      </trkpt>
      <trkpt lat="47.29568" lon="6.19677">
        <ele>293.6</ele>
        <time>2024-07-31T10:00:33Z</time>
      </trkpt>
      <trkpt lat="47.29568" lon="6.19677">
        <ele>293.6</ele>
        <time>2024-07-31T10:00:34Z</time>
      </trkpt>
      <trkpt lat="47.29568" lon="6.19677">
        <ele>293.6</ele>
        <time>2024-07-31T10:00:35Z</time>
      </trkpt>
      <trkpt lat="47.29567" lon="6.19677">
        <ele>293.6</ele>
        <time>2024-07-31T10:00:36Z</time>
      </trkpt>
      <trkpt lat="47.29567" lon="6.19677">
        <ele>293.6</ele>
        <time>2024-07-31T10:00:37Z</time>
      </trkpt>
      <trkpt lat="47.29567" lon="6.19677">
        <ele>293.8</ele>
        <time>2024-07-31T10:00:38Z</time>
      </trkpt>
      <trkpt lat="47.29567" lon="6.19677">
        <ele>293.8</ele>
        <time>2024-07-31T10:00:39Z</time>
      </trkpt>
      <trkpt lat="47.29567" lon="6.19677">
        <ele>293.6</ele>
        <time>2024-07-31T10:00:40Z</time>
      </trkpt>
      <trkpt lat="47.29568" lon="6.19677">
        <ele>293.6</ele>
        <time>2024-07-31T10:00:41Z</time>
      </trkpt>
      <trkpt lat="47.29568" lon="6.19677">
        <ele>293.6</ele>
        <time>2024-07-31T10:00:42Z</time>
      </trkpt>
      <trkpt lat="47.29569" lon="6.19676">
        <ele>293.6</ele>
        <time>2024-07-31T10:00:43Z</time>
      </trkpt>
      <trkpt lat="47.29569" lon="6.19676">
        <ele>293.6</ele>
        <time>2024-07-31T10:00:44Z</time>
      </trkpt>
      <trkpt lat="47.2957" lon="6.19677">
        <ele>293.6</ele>
        <time>2024-07-31T10:00:45Z</time>
      </trkpt>
      <trkpt lat="47.2957" lon="6.19677">
        <ele>293.8</ele>
        <time>2024-07-31T10:00:46Z</time>
      </trkpt>
      <trkpt lat="47.29571" lon="6.19677">
        <ele>293.8</ele>
        <time>2024-07-31T10:00:47Z</time>
      </trkpt>
      <trkpt lat="47.29572" lon="6.19677">
        <ele>293.8</ele>
        <time>2024-07-31T10:00:48Z</time>
      </trkpt>
      <trkpt lat="47.29572" lon="6.19677">
        <ele>293.8</ele>
        <time>2024-07-31T10:00:49Z</time>
      </trkpt>
      <trkpt lat="47.29573" lon="6.19678">
        <ele>294</ele>
        <time>2024-07-31T10:00:50Z</time>
      </trkpt>
      <trkpt lat="47.29573" lon="6.19678">
        <ele>294.2</ele>
        <time>2024-07-31T10:00:51Z</time>
      </trkpt>
      <trkpt lat="47.29574" lon="6.19678">
        <ele>294.2</ele>
        <time>2024-07-31T10:00:52Z</time>
      </trkpt>
      <trkpt lat="47.29576" lon="6.19679">
        <ele>294.4</ele>
        <time>2024-07-31T10:00:53Z</time>
      </trkpt>
      <trkpt lat="47.29577" lon="6.1968">
        <ele>294.4</ele>
        <time>2024-07-31T10:00:54Z</time>
      </trkpt>
      <trkpt lat="47.29577" lon="6.1968">
        <ele>294.6</ele>
        <time>2024-07-31T10:00:55Z</time>
      </trkpt>
      <trkpt lat="47.29578" lon="6.1968">
        <ele>294.8</ele>
        <time>2024-07-31T10:00:56Z</time>
      </trkpt>
      <trkpt lat="47.29579" lon="6.1968">
        <ele>295</ele>
        <time>2024-07-31T10:00:57Z</time>
      </trkpt>
      <trkpt lat="47.29579" lon="6.19681">
        <ele>295.2</ele>
        <time>2024-07-31T10:00:58Z</time>
      </trkpt>
      <trkpt lat="47.29579" lon="6.1968">
        <ele>295.2</ele>
        <time>2024-07-31T10:00:59Z</time>
      </trkpt>
      <trkpt lat="47.2958" lon="6.1968">
        <ele>295.2</ele>
        <time>2024-07-31T10:01:00Z</time>
      </trkpt>
      <trkpt lat="47.29581" lon="6.19681">
        <ele>295.2</ele>
        <time>2024-07-31T10:01:01Z</time>
      </trkpt>
      <trkpt lat="47.29582" lon="6.19681">
        <ele>295.4</ele>
        <time>2024-07-31T10:01:02Z</time>
      </trkpt>
      <trkpt lat="47.29583" lon="6.19681">
        <ele>295.6</ele>
        <time>2024-07-31T10:01:03Z</time>
      </trkpt>
      <trkpt lat="47.29584" lon="6.19682">
        <ele>295.8</ele>
        <time>2024-07-31T10:01:04Z</time>
      </trkpt>
      <trkpt lat="47.29585" lon="6.19682">
        <ele>295.8</ele>
        <time>2024-07-31T10:01:05Z</time>
      </trkpt>
      <trkpt lat="47.29585" lon="6.19683">
        <ele>296</ele>
        <time>2024-07-31T10:01:06Z</time>
      </trkpt>
      <trkpt lat="47.29585" lon="6.19685">
        <ele>296</ele>
        <time>2024-07-31T10:01:07Z</time>
      </trkpt>
      <trkpt lat="47.29586" lon="6.19686">
        <ele>296.2</ele>
        <time>2024-07-31T10:01:08Z</time>
      </trkpt>
      <trkpt lat="47.29586" lon="6.19687">
        <ele>296.6</ele>
        <time>2024-07-31T10:01:09Z</time>
      </trkpt>
      <trkpt lat="47.29586" lon="6.19688">
        <ele>296.6</ele>
        <time>2024-07-31T10:01:10Z</time>
      </trkpt>
      <trkpt lat="47.29587" lon="6.19688">
        <ele>296.6</ele>
        <time>2024-07-31T10:01:11Z</time>
      </trkpt>
      <trkpt lat="47.29587" lon="6.19688">
        <ele>296.6</ele>
        <time>2024-07-31T10:01:12Z</time>
      </trkpt>
      <trkpt lat="47.29587" lon="6.19689">
        <ele>296.8</ele>
        <time>2024-07-31T10:01:13Z</time>
      </trkpt>
      <trkpt lat="47.29587" lon="6.19689">
        <ele>296.6</ele>
        <time>2024-07-31T10:01:14Z</time>
      </trkpt>
      <trkpt lat="47.29588" lon="6.1969">
        <ele>296.8</ele>
        <time>2024-07-31T10:01:15Z</time>
      </trkpt>
      <trkpt lat="47.29588" lon="6.1969">
        <ele>296.8</ele>
        <time>2024-07-31T10:01:16Z</time>
      </trkpt>
      <trkpt lat="47.29589" lon="6.1969">
        <ele>296.8</ele>
        <time>2024-07-31T10:01:17Z</time>
      </trkpt>
      <trkpt lat="47.2959" lon="6.19689">
        <ele>296.8</ele>
        <time>2024-07-31T10:01:18Z</time>
      </trkpt>
      <trkpt lat="47.29591" lon="6.19687">
        <ele>297</ele>
        <time>2024-07-31T10:01:19Z</time>
      </trkpt>
      <trkpt lat="47.29592" lon="6.19685">
        <ele>297.2</ele>
        <time>2024-07-31T10:01:20Z</time>
      </trkpt>
      <trkpt lat="47.29593" lon="6.19682">
        <ele>297.4</ele>
        <time>2024-07-31T10:01:21Z</time>
      </trkpt>
      <trkpt lat="47.29594" lon="6.1968">
        <ele>297.4</ele>
        <time>2024-07-31T10:01:22Z</time>
      </trkpt>
      <trkpt lat="47.29595" lon="6.19677">
        <ele>297.6</ele>
        <time>2024-07-31T10:01:23Z</time>
      </trkpt>
      <trkpt lat="47.29595" lon="6.19674">
        <ele>297.8</ele>
        <time>2024-07-31T10:01:24Z</time>
      </trkpt>
      <trkpt lat="47.29596" lon="6.19672">
        <ele>298.2</ele>
        <time>2024-07-31T10:01:25Z</time>
      </trkpt>
      <trkpt lat="47.29597" lon="6.19669">
        <ele>298.2</ele>
        <time>2024-07-31T10:01:26Z</time>
      </trkpt>
      <trkpt lat="47.29598" lon="6.19667">
        <ele>298.6</ele>
        <time>2024-07-31T10:01:27Z</time>
      </trkpt>
      <trkpt lat="47.29598" lon="6.19664">
        <ele>298.8</ele>
        <time>2024-07-31T10:01:28Z</time>
      </trkpt>
      <trkpt lat="47.29599" lon="6.19661">
        <ele>299</ele>
        <time>2024-07-31T10:01:29Z</time>
      </trkpt>
      <trkpt lat="47.296" lon="6.19658">
        <ele>299</ele>
        <time>2024-07-31T10:01:30Z</time>
      </trkpt>
      <trkpt lat="47.296" lon="6.19655">
        <ele>299</ele>
        <time>2024-07-31T10:01:31Z</time>
      </trkpt>
      <trkpt lat="47.29601" lon="6.19653">
        <ele>299.2</ele>
        <time>2024-07-31T10:01:32Z</time>
      </trkpt>
      <trkpt lat="47.29601" lon="6.1965">
        <ele>299.6</ele>
        <time>2024-07-31T10:01:33Z</time>
      </trkpt>
      <trkpt lat="47.29601" lon="6.19647">
        <ele>299.6</ele>
        <time>2024-07-31T10:01:34Z</time>
      </trkpt>
      <trkpt lat="47.29602" lon="6.19645">
        <ele>299.8</ele>
        <time>2024-07-31T10:01:35Z</time>
      </trkpt>
      <trkpt lat="47.29602" lon="6.19642">
        <ele>300</ele>
        <time>2024-07-31T10:01:36Z</time>
      </trkpt>
      <trkpt lat="47.29603" lon="6.19639">
        <ele>300.2</ele>
        <time>2024-07-31T10:01:37Z</time>
      </trkpt>
      <trkpt lat="47.29603" lon="6.19636">
        <ele>300.4</ele>
        <time>2024-07-31T10:01:38Z</time>
      </trkpt>
      <trkpt lat="47.29603" lon="6.19633">
        <ele>300.4</ele>
        <time>2024-07-31T10:01:39Z</time>
      </trkpt>
      <trkpt lat="47.29604" lon="6.1963">
        <ele>300.6</ele>
        <time>2024-07-31T10:01:40Z</time>
      </trkpt>
      <trkpt lat="47.29604" lon="6.19628">
        <ele>300.8</ele>
        <time>2024-07-31T10:01:41Z</time>
      </trkpt>
      <trkpt lat="47.29605" lon="6.19625">
        <ele>301.2</ele>
        <time>2024-07-31T10:01:42Z</time>
      </trkpt>
      <trkpt lat="47.29605" lon="6.19622">
        <ele>301.4</ele>
        <time>2024-07-31T10:01:43Z</time>
      </trkpt>
      <trkpt lat="47.29605" lon="6.19619">
        <ele>301.6</ele>
        <time>2024-07-31T10:01:44Z</time>
      </trkpt>
      <trkpt lat="47.29605" lon="6.19617">
        <ele>302</ele>
        <time>2024-07-31T10:01:45Z</time>
      </trkpt>
      <trkpt lat="47.29605" lon="6.19614">
        <ele>302.2</ele>
        <time>2024-07-31T10:01:46Z</time>
      </trkpt>
      <trkpt lat="47.29605" lon="6.19612">
        <ele>302.4</ele>
        <time>2024-07-31T10:01:47Z</time>
      </trkpt>
      <trkpt lat="47.29605" lon="6.19609">
        <ele>302.4</ele>
        <time>2024-07-31T10:01:48Z</time>
      </trkpt>
      <trkpt lat="47.29605" lon="6.19607">
        <ele>302.8</ele>
        <time>2024-07-31T10:01:49Z</time>
      </trkpt>
      <trkpt lat="47.29605" lon="6.19605">
        <ele>303</ele>
        <time>2024-07-31T10:01:50Z</time>
      </trkpt>
      <trkpt lat="47.29605" lon="6.19602">
        <ele>303.2</ele>
        <time>2024-07-31T10:01:51Z</time>
      </trkpt>
      <trkpt lat="47.29605" lon="6.196">
        <ele>303.2</ele>
        <time>2024-07-31T10:01:52Z</time>
      </trkpt>
      <trkpt lat="47.29605" lon="6.19597">
        <ele>303.4</ele>
        <time>2024-07-31T10:01:53Z</time>
      </trkpt>
      <trkpt lat="47.29605" lon="6.19595">
        <ele>303.6</ele>
        <time>2024-07-31T10:01:54Z</time>
      </trkpt>
      <trkpt lat="47.29604" lon="6.19592">
        <ele>303.8</ele>
        <time>2024-07-31T10:01:55Z</time>
      </trkpt>
      <trkpt lat="47.29604" lon="6.1959">
        <ele>304</ele>
        <time>2024-07-31T10:01:56Z</time>
      </trkpt>
      <trkpt lat="47.29604" lon="6.19587">
        <ele>304</ele>
        <time>2024-07-31T10:01:57Z</time>
      </trkpt>
      <trkpt lat="47.29604" lon="6.19585">
        <ele>304.2</ele>
        <time>2024-07-31T10:01:58Z</time>
      </trkpt>
      <trkpt lat="47.29604" lon="6.19582">
        <ele>304.4</ele>
        <time>2024-07-31T10:01:59Z</time>
      </trkpt>
      <trkpt lat="47.29603" lon="6.19579">
        <ele>304.6</ele>
        <time>2024-07-31T10:02:00Z</time>
      </trkpt>
      <trkpt lat="47.29603" lon="6.19577">
        <ele>305</ele>
        <time>2024-07-31T10:02:01Z</time>
      </trkpt>
      <trkpt lat="47.29602" lon="6.19574">
        <ele>305.2</ele>
        <time>2024-07-31T10:02:02Z</time>
      </trkpt>
      <trkpt lat="47.29602" lon="6.19572">
        <ele>305.6</ele>
        <time>2024-07-31T10:02:03Z</time>
      </trkpt>
      <trkpt lat="47.29602" lon="6.19569">
        <ele>305.6</ele>
        <time>2024-07-31T10:02:04Z</time>
      </trkpt>
      <trkpt lat="47.29602" lon="6.19567">
        <ele>306</ele>
        <time>2024-07-31T10:02:05Z</time>
      </trkpt>
      <trkpt lat="47.29602" lon="6.19564">
        <ele>306.2</ele>
        <time>2024-07-31T10:02:06Z</time>
      </trkpt>
      <trkpt lat="47.29602" lon="6.19562">
        <ele>306.4</ele>
        <time>2024-07-31T10:02:07Z</time>
      </trkpt>
      <trkpt lat="47.29601" lon="6.1956">
        <ele>306.6</ele>
        <time>2024-07-31T10:02:08Z</time>
      </trkpt>
      <trkpt lat="47.29601" lon="6.19557">
        <ele>307</ele>
        <time>2024-07-31T10:02:09Z</time>
      </trkpt>
      <trkpt lat="47.29601" lon="6.19555">
        <ele>307</ele>
        <time>2024-07-31T10:02:10Z</time>
      </trkpt>
      <trkpt lat="47.29601" lon="6.19552">
        <ele>307.2</ele>
        <time>2024-07-31T10:02:11Z</time>
      </trkpt>
      <trkpt lat="47.29601" lon="6.19549">
        <ele>307.4</ele>
        <time>2024-07-31T10:02:12Z</time>
      </trkpt>
      <trkpt lat="47.29601" lon="6.19547">
        <ele>307.6</ele>
        <time>2024-07-31T10:02:13Z</time>
      </trkpt>
      <trkpt lat="47.29601" lon="6.19544">
        <ele>307.6</ele>
        <time>2024-07-31T10:02:14Z</time>
      </trkpt>
      <trkpt lat="47.29601" lon="6.19541">
        <ele>307.6</ele>
        <time>2024-07-31T10:02:15Z</time>
      </trkpt>
      <trkpt lat="47.29601" lon="6.19539">
        <ele>307.8</ele>
        <time>2024-07-31T10:02:16Z</time>
      </trkpt>
      <trkpt lat="47.29601" lon="6.19536">
        <ele>308.2</ele>
        <time>2024-07-31T10:02:17Z</time>
      </trkpt>
      <trkpt lat="47.29601" lon="6.19534">
        <ele>308.4</ele>
        <time>2024-07-31T10:02:18Z</time>
      </trkpt>
      <trkpt lat="47.29601" lon="6.19531">
        <ele>308.6</ele>
        <time>2024-07-31T10:02:19Z</time>
      </trkpt>
      <trkpt lat="47.29601" lon="6.19529">
        <ele>308.8</ele>
        <time>2024-07-31T10:02:20Z</time>
      </trkpt>
      <trkpt lat="47.29601" lon="6.19526">
        <ele>308.8</ele>
        <time>2024-07-31T10:02:21Z</time>
      </trkpt>
      <trkpt lat="47.29601" lon="6.19524">
        <ele>309.2</ele>
        <time>2024-07-31T10:02:22Z</time>
      </trkpt>
      <trkpt lat="47.29601" lon="6.19521">
        <ele>309.2</ele>
        <time>2024-07-31T10:02:23Z</time>
      </trkpt>
      <trkpt lat="47.296" lon="6.19519">
        <ele>309.2</ele>
        <time>2024-07-31T10:02:24Z</time>
      </trkpt>
      <trkpt lat="47.296" lon="6.19516">
        <ele>309.4</ele>
        <time>2024-07-31T10:02:25Z</time>
      </trkpt>
      <trkpt lat="47.29601" lon="6.19513">
        <ele>309.6</ele>
        <time>2024-07-31T10:02:26Z</time>
      </trkpt>
      <trkpt lat="47.29601" lon="6.19511">
        <ele>309.8</ele>
        <time>2024-07-31T10:02:27Z</time>
      </trkpt>
      <trkpt lat="47.29601" lon="6.19508">
        <ele>310</ele>
        <time>2024-07-31T10:02:28Z</time>
      </trkpt>
      <trkpt lat="47.29601" lon="6.19505">
        <ele>310.2</ele>
        <time>2024-07-31T10:02:29Z</time>
      </trkpt>
      <trkpt lat="47.29601" lon="6.19503">
        <ele>310.2</ele>
        <time>2024-07-31T10:02:30Z</time>
      </trkpt>
      <trkpt lat="47.29601" lon="6.195">
        <ele>310.4</ele>
        <time>2024-07-31T10:02:31Z</time>
      </trkpt>
      <trkpt lat="47.29601" lon="6.19497">
        <ele>310.6</ele>
        <time>2024-07-31T10:02:32Z</time>
      </trkpt>
      <trkpt lat="47.29601" lon="6.19494">
        <ele>310.8</ele>
        <time>2024-07-31T10:02:33Z</time>
      </trkpt>
      <trkpt lat="47.29601" lon="6.19492">
        <ele>311</ele>
        <time>2024-07-31T10:02:34Z</time>
      </trkpt>
      <trkpt lat="47.29602" lon="6.19489">
        <ele>311.2</ele>
        <time>2024-07-31T10:02:35Z</time>
      </trkpt>
      <trkpt lat="47.29602" lon="6.19486">
        <ele>311.2</ele>
        <time>2024-07-31T10:02:36Z</time>
      </trkpt>
      <trkpt lat="47.29603" lon="6.19483">
        <ele>311.4</ele>
        <time>2024-07-31T10:02:37Z</time>
      </trkpt>
      <trkpt lat="47.29603" lon="6.19481">
        <ele>311.6</ele>
        <time>2024-07-31T10:02:38Z</time>
      </trkpt>
      <trkpt lat="47.29603" lon="6.19478">
        <ele>311.8</ele>
        <time>2024-07-31T10:02:39Z</time>
      </trkpt>
      <trkpt lat="47.29603" lon="6.19476">
        <ele>312</ele>
        <time>2024-07-31T10:02:40Z</time>
      </trkpt>
      <trkpt lat="47.29603" lon="6.19473">
        <ele>312</ele>
        <time>2024-07-31T10:02:41Z</time>
      </trkpt>
      <trkpt lat="47.29604" lon="6.19471">
        <ele>312.2</ele>
        <time>2024-07-31T10:02:42Z</time>
      </trkpt>
      <trkpt lat="47.29604" lon="6.19468">
        <ele>312.4</ele>
        <time>2024-07-31T10:02:43Z</time>
      </trkpt>
      <trkpt lat="47.29605" lon="6.19466">
        <ele>312.4</ele>
        <time>2024-07-31T10:02:44Z</time>
      </trkpt>
      <trkpt lat="47.29605" lon="6.19463">
        <ele>312.8</ele>
        <time>2024-07-31T10:02:45Z</time>
      </trkpt>
      <trkpt lat="47.29606" lon="6.19461">
        <ele>312.8</ele>
        <time>2024-07-31T10:02:46Z</time>
      </trkpt>
      <trkpt lat="47.29606" lon="6.19458">
        <ele>313</ele>
        <time>2024-07-31T10:02:47Z</time>
      </trkpt>
      <trkpt lat="47.29606" lon="6.19456">
        <ele>313.2</ele>
        <time>2024-07-31T10:02:48Z</time>
      </trkpt>
      <trkpt lat="47.29606" lon="6.19453">
        <ele>313.4</ele>
        <time>2024-07-31T10:02:49Z</time>
      </trkpt>
      <trkpt lat="47.29607" lon="6.19451">
        <ele>313.6</ele>
        <time>2024-07-31T10:02:50Z</time>
      </trkpt>
      <trkpt lat="47.29607" lon="6.19448">
        <ele>313.8</ele>
        <time>2024-07-31T10:02:51Z</time>
      </trkpt>
      <trkpt lat="47.29607" lon="6.19446">
        <ele>313.8</ele>
        <time>2024-07-31T10:02:52Z</time>
      </trkpt>
      <trkpt lat="47.29607" lon="6.19443">
        <ele>314.2</ele>
        <time>2024-07-31T10:02:53Z</time>
      </trkpt>
      <trkpt lat="47.29608" lon="6.19441">
        <ele>314.2</ele>
        <time>2024-07-31T10:02:54Z</time>
      </trkpt>
      <trkpt lat="47.29608" lon="6.19439">
        <ele>314.6</ele>
        <time>2024-07-31T10:02:55Z</time>
      </trkpt>
      <trkpt lat="47.29608" lon="6.19436">
        <ele>315</ele>
        <time>2024-07-31T10:02:56Z</time>
      </trkpt>
      <trkpt lat="47.29609" lon="6.19434">
        <ele>315.4</ele>
        <time>2024-07-31T10:02:57Z</time>
      </trkpt>
      <trkpt lat="47.29609" lon="6.19432">
        <ele>315.4</ele>
        <time>2024-07-31T10:02:58Z</time>
      </trkpt>
      <trkpt lat="47.29609" lon="6.1943">
        <ele>315.6</ele>
        <time>2024-07-31T10:02:59Z</time>
      </trkpt>
      <trkpt lat="47.29609" lon="6.19428">
        <ele>316</ele>
        <time>2024-07-31T10:03:00Z</time>
      </trkpt>
      <trkpt lat="47.29609" lon="6.19428">
        <ele>316</ele>
        <time>2024-07-31T10:03:01Z</time>
      </trkpt>
      <trkpt lat="47.29608" lon="6.19429">
        <ele>315.6</ele>
        <time>2024-07-31T10:03:02Z</time>
      </trkpt>
      <trkpt lat="47.29607" lon="6.1943">
        <ele>315.6</ele>
        <time>2024-07-31T10:03:03Z</time>
      </trkpt>
      <trkpt lat="47.29606" lon="6.19432">
        <ele>315.2</ele>
        <time>2024-07-31T10:03:04Z</time>
      </trkpt>
      <trkpt lat="47.29605" lon="6.19433">
        <ele>315</ele>
        <time>2024-07-31T10:03:05Z</time>
      </trkpt>
      <trkpt lat="47.29605" lon="6.19434">
        <ele>315</ele>
        <time>2024-07-31T10:03:06Z</time>
      </trkpt>
      <trkpt lat="47.29605" lon="6.19434">
        <ele>315</ele>
        <time>2024-07-31T10:03:07Z</time>
      </trkpt>
      <trkpt lat="47.29605" lon="6.19435">
        <ele>315.2</ele>
        <time>2024-07-31T10:03:08Z</time>
      </trkpt>
      <trkpt lat="47.29605" lon="6.19435">
        <ele>315</ele>
        <time>2024-07-31T10:03:09Z</time>
      </trkpt>
      <trkpt lat="47.29605" lon="6.19435">
        <ele>315</ele>
        <time>2024-07-31T10:03:10Z</time>
      </trkpt>
      <trkpt lat="47.29605" lon="6.19435">
        <ele>315</ele>
        <time>2024-07-31T10:03:11Z</time>
      </trkpt>
      <trkpt lat="47.29605" lon="6.19435">
        <ele>315.2</ele>
        <time>2024-07-31T10:03:12Z</time>
      </trkpt>
      <trkpt lat="47.29605" lon="6.19435">
        <ele>315</ele>
        <time>2024-07-31T10:03:13Z</time>
      </trkpt>
      <trkpt lat="47.29605" lon="6.19435">
        <ele>315.2</ele>
        <time>2024-07-31T10:03:14Z</time>
      </trkpt>
      <trkpt lat="47.29605" lon="6.19435">
        <ele>315.2</ele>
        <time>2024-07-31T10:03:15Z</time>
      </trkpt>
      <trkpt lat="47.29605" lon="6.19435">
        <ele>315.4</ele>
        <time>2024-07-31T10:03:16Z</time>
      </trkpt>
      <trkpt lat="47.29605" lon="6.19435">
        <ele>315.2</ele>
        <time>2024-07-31T10:03:17Z</time>
      </trkpt>
      <trkpt lat="47.29605" lon="6.19435">
        <ele>315.2</ele>
        <time>2024-07-31T10:03:18Z</time>
      </trkpt>
      <trkpt lat="47.29605" lon="6.19435">
        <ele>315.2</ele>
        <time>2024-07-31T10:03:19Z</time>
      </trkpt>
      <trkpt lat="47.29605" lon="6.19435">
        <ele>315.2</ele>
        <time>2024-07-31T10:03:20Z</time>
      </trkpt>
      <trkpt lat="47.29605" lon="6.19435">
        <ele>315.2</ele>
        <time>2024-07-31T10:03:21Z</time>
      </trkpt>
      <trkpt lat="47.29605" lon="6.19435">
        <ele>315</ele>
        <time>2024-07-31T10:03:22Z</time>
      </trkpt>
      <trkpt lat="47.29605" lon="6.19435">
        <ele>315</ele>
        <time>2024-07-31T10:03:23Z</time>
      </trkpt>
      <trkpt lat="47.29605" lon="6.19435">
        <ele>315</ele>
        <time>2024-07-31T10:03:24Z</time>
      </trkpt>
      <trkpt lat="47.29605" lon="6.19435">
        <ele>315</ele>
        <time>2024-07-31T10:03:25Z</time>
      </trkpt>
      <trkpt lat="47.29605" lon="6.19435">
        <ele>315</ele>
        <time>2024-07-31T10:03:26Z</time>
      </trkpt>
      <trkpt lat="47.29605" lon="6.19435">
        <ele>315</ele>
        <time>2024-07-31T10:03:27Z</time>
      </trkpt>
      <trkpt lat="47.29605" lon="6.19435">
        <ele>315</ele>
        <time>2024-07-31T10:03:28Z</time>
      </trkpt>
      <trkpt lat="47.29605" lon="6.19434">
        <ele>315.2</ele>
        <time>2024-07-31T10:03:29Z</time>
      </trkpt>
      <trkpt lat="47.29605" lon="6.19434">
        <ele>315.2</ele>
        <time>2024-07-31T10:03:30Z</time>
      </trkpt>
      <trkpt lat="47.29605" lon="6.19434">
        <ele>315.2</ele>
        <time>2024-07-31T10:03:31Z</time>
      </trkpt>
      <trkpt lat="47.29606" lon="6.19434">
        <ele>315.2</ele>
        <time>2024-07-31T10:03:32Z</time>
      </trkpt>
      <trkpt lat="47.29607" lon="6.19435">
        <ele>315.2</ele>
        <time>2024-07-31T10:03:33Z</time>
      </trkpt>
      <trkpt lat="47.29608" lon="6.19434">
        <ele>315.4</ele>
        <time>2024-07-31T10:03:34Z</time>
      </trkpt>
      <trkpt lat="47.29608" lon="6.19434">
        <ele>315.4</ele>
        <time>2024-07-31T10:03:35Z</time>
      </trkpt>
      <trkpt lat="47.29609" lon="6.19435">
        <ele>315.4</ele>
        <time>2024-07-31T10:03:36Z</time>
      </trkpt>
      <trkpt lat="47.2961" lon="6.19434">
        <ele>315.4</ele>
        <time>2024-07-31T10:03:37Z</time>
      </trkpt>
      <trkpt lat="47.2961" lon="6.19433">
        <ele>315.4</ele>
        <time>2024-07-31T10:03:38Z</time>
      </trkpt>
      <trkpt lat="47.2961" lon="6.19431">
        <ele>315.6</ele>
        <time>2024-07-31T10:03:39Z</time>
      </trkpt>
      <trkpt lat="47.2961" lon="6.19429">
        <ele>315.8</ele>
        <time>2024-07-31T10:03:40Z</time>
      </trkpt>
      <trkpt lat="47.2961" lon="6.19426">
        <ele>316</ele>
        <time>2024-07-31T10:03:41Z</time>
      </trkpt>
      <trkpt lat="47.2961" lon="6.19424">
        <ele>316</ele>
        <time>2024-07-31T10:03:42Z</time>
      </trkpt>
      <trkpt lat="47.2961" lon="6.19421">
        <ele>316.2</ele>
        <time>2024-07-31T10:03:43Z</time>
      </trkpt>
      <trkpt lat="47.2961" lon="6.19418">
        <ele>316.4</ele>
        <time>2024-07-31T10:03:44Z</time>
      </trkpt>
      <trkpt lat="47.2961" lon="6.19416">
        <ele>316.6</ele>
        <time>2024-07-31T10:03:45Z</time>
      </trkpt>
      <trkpt lat="47.29611" lon="6.19413">
        <ele>317</ele>
        <time>2024-07-31T10:03:46Z</time>
      </trkpt>
      <trkpt lat="47.29611" lon="6.19411">
        <ele>317.2</ele>
        <time>2024-07-31T10:03:47Z</time>
      </trkpt>
      <trkpt lat="47.29612" lon="6.19408">
        <ele>317.6</ele>
        <time>2024-07-31T10:03:48Z</time>
      </trkpt>
      <trkpt lat="47.29612" lon="6.19405">
        <ele>317.8</ele>
        <time>2024-07-31T10:03:49Z</time>
      </trkpt>
      <trkpt lat="47.29612" lon="6.19403">
        <ele>318.2</ele>
        <time>2024-07-31T10:03:50Z</time>
      </trkpt>
      <trkpt lat="47.29612" lon="6.194">
        <ele>318.4</ele>
        <time>2024-07-31T10:03:51Z</time>
      </trkpt>
      <trkpt lat="47.29613" lon="6.19397">
        <ele>318.6</ele>
        <time>2024-07-31T10:03:52Z</time>
      </trkpt>
      <trkpt lat="47.29613" lon="6.19395">
        <ele>319</ele>
        <time>2024-07-31T10:03:53Z</time>
      </trkpt>
      <trkpt lat="47.29614" lon="6.19392">
        <ele>319.2</ele>
        <time>2024-07-31T10:03:54Z</time>
      </trkpt>
      <trkpt lat="47.29614" lon="6.1939">
        <ele>319.6</ele>
        <time>2024-07-31T10:03:55Z</time>
      </trkpt>
      <trkpt lat="47.29615" lon="6.19388">
        <ele>319.8</ele>
        <time>2024-07-31T10:03:56Z</time>
      </trkpt>
      <trkpt lat="47.29616" lon="6.19385">
        <ele>320</ele>
        <time>2024-07-31T10:03:57Z</time>
      </trkpt>
      <trkpt lat="47.29617" lon="6.19383">
        <ele>320.2</ele>
        <time>2024-07-31T10:03:58Z</time>
      </trkpt>
      <trkpt lat="47.29617" lon="6.19381">
        <ele>320.6</ele>
        <time>2024-07-31T10:03:59Z</time>
      </trkpt>
      <trkpt lat="47.29618" lon="6.19379">
        <ele>320.8</ele>
        <time>2024-07-31T10:04:00Z</time>
      </trkpt>
      <trkpt lat="47.29618" lon="6.19376">
        <ele>321</ele>
        <time>2024-07-31T10:04:01Z</time>
      </trkpt>
      <trkpt lat="47.29618" lon="6.19374">
        <ele>321.2</ele>
        <time>2024-07-31T10:04:02Z</time>
      </trkpt>
      <trkpt lat="47.29617" lon="6.19371">
        <ele>321.4</ele>
        <time>2024-07-31T10:04:03Z</time>
      </trkpt>
      <trkpt lat="47.29617" lon="6.19369">
        <ele>321.6</ele>
        <time>2024-07-31T10:04:04Z</time>
      </trkpt>
      <trkpt lat="47.29616" lon="6.19366">
        <ele>321.6</ele>
        <time>2024-07-31T10:04:05Z</time>
      </trkpt>
      <trkpt lat="47.29616" lon="6.19364">
        <ele>321.8</ele>
        <time>2024-07-31T10:04:06Z</time>
      </trkpt>
      <trkpt lat="47.29615" lon="6.19361">
        <ele>322</ele>
        <time>2024-07-31T10:04:07Z</time>
      </trkpt>
      <trkpt lat="47.29614" lon="6.19359">
        <ele>322.2</ele>
        <time>2024-07-31T10:04:08Z</time>
      </trkpt>
      <trkpt lat="47.29613" lon="6.19357">
        <ele>322.4</ele>
        <time>2024-07-31T10:04:09Z</time>
      </trkpt>
      <trkpt lat="47.29611" lon="6.19355">
        <ele>322.4</ele>
        <time>2024-07-31T10:04:10Z</time>
      </trkpt>
      <trkpt lat="47.2961" lon="6.19353">
        <ele>322.4</ele>
        <time>2024-07-31T10:04:11Z</time>
      </trkpt>
      <trkpt lat="47.29608" lon="6.19352">
        <ele>322.8</ele>
        <time>2024-07-31T10:04:12Z</time>
      </trkpt>
      <trkpt lat="47.29606" lon="6.19351">
        <ele>322.6</ele>
        <time>2024-07-31T10:04:13Z</time>
      </trkpt>
      <trkpt lat="47.29604" lon="6.1935">
        <ele>322.6</ele>
        <time>2024-07-31T10:04:14Z</time>
      </trkpt>
      <trkpt lat="47.29602" lon="6.19348">
        <ele>322.8</ele>
        <time>2024-07-31T10:04:15Z</time>
      </trkpt>
      <trkpt lat="47.296" lon="6.19346">
        <ele>323</ele>
        <time>2024-07-31T10:04:16Z</time>
      </trkpt>
      <trkpt lat="47.29598" lon="6.19344">
        <ele>323</ele>
        <time>2024-07-31T10:04:17Z</time>
      </trkpt>
      <trkpt lat="47.29596" lon="6.19343">
        <ele>322.8</ele>
        <time>2024-07-31T10:04:18Z</time>
      </trkpt>
      <trkpt lat="47.29594" lon="6.19341">
        <ele>322.8</ele>
        <time>2024-07-31T10:04:19Z</time>
      </trkpt>
      <trkpt lat="47.29592" lon="6.1934">
        <ele>323.2</ele>
        <time>2024-07-31T10:04:20Z</time>
      </trkpt>
      <trkpt lat="47.2959" lon="6.19339">
        <ele>323.4</ele>
        <time>2024-07-31T10:04:21Z</time>
      </trkpt>
      <trkpt lat="47.29589" lon="6.19338">
        <ele>323.6</ele>
        <time>2024-07-31T10:04:22Z</time>
      </trkpt>
      <trkpt lat="47.29587" lon="6.19337">
        <ele>323.8</ele>
        <time>2024-07-31T10:04:23Z</time>
      </trkpt>
      <trkpt lat="47.29586" lon="6.19337">
        <ele>324.2</ele>
        <time>2024-07-31T10:04:24Z</time>
      </trkpt>
      <trkpt lat="47.29584" lon="6.19337">
        <ele>324.4</ele>
        <time>2024-07-31T10:04:25Z</time>
      </trkpt>
      <trkpt lat="47.29583" lon="6.19336">
        <ele>324.6</ele>
        <time>2024-07-31T10:04:26Z</time>
      </trkpt>
      <trkpt lat="47.29582" lon="6.19336">
        <ele>324.6</ele>
        <time>2024-07-31T10:04:27Z</time>
      </trkpt>
      <trkpt lat="47.2958" lon="6.19335">
        <ele>324.8</ele>
        <time>2024-07-31T10:04:28Z</time>
      </trkpt>
      <trkpt lat="47.29578" lon="6.19335">
        <ele>325</ele>
        <time>2024-07-31T10:04:29Z</time>
      </trkpt>
      <trkpt lat="47.29577" lon="6.19335">
        <ele>325.4</ele>
        <time>2024-07-31T10:04:30Z</time>
      </trkpt>
      <trkpt lat="47.29575" lon="6.19335">
        <ele>325.4</ele>
        <time>2024-07-31T10:04:31Z</time>
      </trkpt>
      <trkpt lat="47.29573" lon="6.19335">
        <ele>325.6</ele>
        <time>2024-07-31T10:04:32Z</time>
      </trkpt>
      <trkpt lat="47.29572" lon="6.19335">
        <ele>326</ele>
        <time>2024-07-31T10:04:33Z</time>
      </trkpt>
      <trkpt lat="47.29571" lon="6.19336">
        <ele>326.4</ele>
        <time>2024-07-31T10:04:34Z</time>
      </trkpt>
      <trkpt lat="47.2957" lon="6.19336">
        <ele>326.8</ele>
        <time>2024-07-31T10:04:35Z</time>
      </trkpt>
      <trkpt lat="47.29568" lon="6.19336">
        <ele>327</ele>
        <time>2024-07-31T10:04:36Z</time>
      </trkpt>
      <trkpt lat="47.29567" lon="6.19337">
        <ele>327.2</ele>
        <time>2024-07-31T10:04:37Z</time>
      </trkpt>
      <trkpt lat="47.29566" lon="6.19337">
        <ele>327.6</ele>
        <time>2024-07-31T10:04:38Z</time>
      </trkpt>
      <trkpt lat="47.29565" lon="6.19337">
        <ele>327.8</ele>
        <time>2024-07-31T10:04:39Z</time>
      </trkpt>
      <trkpt lat="47.29564" lon="6.19337">
        <ele>328</ele>
        <time>2024-07-31T10:04:40Z</time>
      </trkpt>
      <trkpt lat="47.29563" lon="6.19338">
        <ele>328.2</ele>
        <time>2024-07-31T10:04:41Z</time>
      </trkpt>
      <trkpt lat="47.29562" lon="6.19338">
        <ele>328.4</ele>
        <time>2024-07-31T10:04:42Z</time>
      </trkpt>
      <trkpt lat="47.29561" lon="6.19338">
        <ele>328.6</ele>
        <time>2024-07-31T10:04:43Z</time>
      </trkpt>
      <trkpt lat="47.2956" lon="6.19338">
        <ele>328.8</ele>
        <time>2024-07-31T10:04:44Z</time>
      </trkpt>
      <trkpt lat="47.29559" lon="6.19339">
        <ele>329</ele>
        <time>2024-07-31T10:04:45Z</time>
      </trkpt>
      <trkpt lat="47.29558" lon="6.19339">
        <ele>329.4</ele>
        <time>2024-07-31T10:04:46Z</time>
      </trkpt>
      <trkpt lat="47.29557" lon="6.1934">
        <ele>329.8</ele>
        <time>2024-07-31T10:04:47Z</time>
      </trkpt>
      <trkpt lat="47.29556" lon="6.19341">
        <ele>329.8</ele>
        <time>2024-07-31T10:04:48Z</time>
      </trkpt>
      <trkpt lat="47.29555" lon="6.19342">
        <ele>329.8</ele>
        <time>2024-07-31T10:04:49Z</time>
      </trkpt>
      <trkpt lat="47.29554" lon="6.19343">
        <ele>330</ele>
        <time>2024-07-31T10:04:50Z</time>
      </trkpt>
      <trkpt lat="47.29552" lon="6.19344">
        <ele>330.4</ele>
        <time>2024-07-31T10:04:51Z</time>
      </trkpt>
      <trkpt lat="47.29551" lon="6.19345">
        <ele>330.6</ele>
        <time>2024-07-31T10:04:52Z</time>
      </trkpt>
      <trkpt lat="47.29549" lon="6.19345">
        <ele>331</ele>
        <time>2024-07-31T10:04:53Z</time>
      </trkpt>
      <trkpt lat="47.29548" lon="6.19346">
        <ele>331.2</ele>
        <time>2024-07-31T10:04:54Z</time>
      </trkpt>
      <trkpt lat="47.29546" lon="6.19346">
        <ele>331.6</ele>
        <time>2024-07-31T10:04:55Z</time>
      </trkpt>
      <trkpt lat="47.29545" lon="6.19347">
        <ele>331.8</ele>
        <time>2024-07-31T10:04:56Z</time>
      </trkpt>
      <trkpt lat="47.29544" lon="6.19347">
        <ele>332.2</ele>
        <time>2024-07-31T10:04:57Z</time>
      </trkpt>
      <trkpt lat="47.29542" lon="6.19347">
        <ele>332.4</ele>
        <time>2024-07-31T10:04:58Z</time>
      </trkpt>
      <trkpt lat="47.29541" lon="6.19348">
        <ele>332.6</ele>
        <time>2024-07-31T10:04:59Z</time>
      </trkpt>
      <trkpt lat="47.29539" lon="6.19348">
        <ele>332.6</ele>
        <time>2024-07-31T10:05:00Z</time>
      </trkpt>
      <trkpt lat="47.29537" lon="6.19348">
        <ele>332.6</ele>
        <time>2024-07-31T10:05:01Z</time>
      </trkpt>
      <trkpt lat="47.29536" lon="6.1935">
        <ele>332.8</ele>
        <time>2024-07-31T10:05:02Z</time>
      </trkpt>
      <trkpt lat="47.29534" lon="6.1935">
        <ele>333</ele>
        <time>2024-07-31T10:05:03Z</time>
      </trkpt>
      <trkpt lat="47.29533" lon="6.1935">
        <ele>333</ele>
        <time>2024-07-31T10:05:04Z</time>
      </trkpt>
      <trkpt lat="47.29531" lon="6.19351">
        <ele>333.2</ele>
        <time>2024-07-31T10:05:05Z</time>
      </trkpt>
      <trkpt lat="47.2953" lon="6.19352">
        <ele>333.2</ele>
        <time>2024-07-31T10:05:06Z</time>
      </trkpt>
      <trkpt lat="47.29528" lon="6.19352">
        <ele>333.8</ele>
        <time>2024-07-31T10:05:07Z</time>
      </trkpt>
      <trkpt lat="47.29527" lon="6.19353">
        <ele>333.8</ele>
        <time>2024-07-31T10:05:08Z</time>
      </trkpt>
      <trkpt lat="47.29526" lon="6.19353">
        <ele>334</ele>
        <time>2024-07-31T10:05:09Z</time>
      </trkpt>
      <trkpt lat="47.29524" lon="6.19353">
        <ele>333.8</ele>
        <time>2024-07-31T10:05:10Z</time>
      </trkpt>
      <trkpt lat="47.29523" lon="6.19353">
        <ele>333.8</ele>
        <time>2024-07-31T10:05:11Z</time>
      </trkpt>
      <trkpt lat="47.29522" lon="6.19353">
        <ele>334</ele>
        <time>2024-07-31T10:05:12Z</time>
      </trkpt>
      <trkpt lat="47.2952" lon="6.19354">
        <ele>334</ele>
        <time>2024-07-31T10:05:13Z</time>
      </trkpt>
      <trkpt lat="47.29519" lon="6.19354">
        <ele>334.2</ele>
        <time>2024-07-31T10:05:14Z</time>
      </trkpt>
      <trkpt lat="47.29518" lon="6.19354">
        <ele>334.4</ele>
        <time>2024-07-31T10:05:15Z</time>
      </trkpt>
      <trkpt lat="47.29517" lon="6.19354">
        <ele>334.8</ele>
        <time>2024-07-31T10:05:16Z</time>
      </trkpt>
      <trkpt lat="47.29515" lon="6.19354">
        <ele>334.8</ele>
        <time>2024-07-31T10:05:17Z</time>
      </trkpt>
      <trkpt lat="47.29514" lon="6.19354">
        <ele>334.8</ele>
        <time>2024-07-31T10:05:18Z</time>
      </trkpt>
      <trkpt lat="47.29513" lon="6.19355">
        <ele>335</ele>
        <time>2024-07-31T10:05:19Z</time>
      </trkpt>
      <trkpt lat="47.29512" lon="6.19356">
        <ele>335.4</ele>
        <time>2024-07-31T10:05:20Z</time>
      </trkpt>
      <trkpt lat="47.29511" lon="6.19357">
        <ele>335.4</ele>
        <time>2024-07-31T10:05:21Z</time>
      </trkpt>
      <trkpt lat="47.29511" lon="6.19358">
        <ele>335.8</ele>
        <time>2024-07-31T10:05:22Z</time>
      </trkpt>
      <trkpt lat="47.29509" lon="6.19359">
        <ele>336.2</ele>
        <time>2024-07-31T10:05:23Z</time>
      </trkpt>
      <trkpt lat="47.29508" lon="6.19359">
        <ele>336.2</ele>
        <time>2024-07-31T10:05:24Z</time>
      </trkpt>
      <trkpt lat="47.29507" lon="6.19359">
        <ele>336.4</ele>
        <time>2024-07-31T10:05:25Z</time>
      </trkpt>
      <trkpt lat="47.29506" lon="6.19359">
        <ele>336.6</ele>
        <time>2024-07-31T10:05:26Z</time>
      </trkpt>
      <trkpt lat="47.29505" lon="6.1936">
        <ele>337</ele>
        <time>2024-07-31T10:05:27Z</time>
      </trkpt>
      <trkpt lat="47.29504" lon="6.19361">
        <ele>337.4</ele>
        <time>2024-07-31T10:05:28Z</time>
      </trkpt>
      <trkpt lat="47.29503" lon="6.19362">
        <ele>337.8</ele>
        <time>2024-07-31T10:05:29Z</time>
      </trkpt>
      <trkpt lat="47.29502" lon="6.19362">
        <ele>338</ele>
        <time>2024-07-31T10:05:30Z</time>
      </trkpt>
      <trkpt lat="47.295" lon="6.19363">
        <ele>338.2</ele>
        <time>2024-07-31T10:05:31Z</time>
      </trkpt>
      <trkpt lat="47.29499" lon="6.19364">
        <ele>338.6</ele>
        <time>2024-07-31T10:05:32Z</time>
      </trkpt>
      <trkpt lat="47.29498" lon="6.19364">
        <ele>338.8</ele>
        <time>2024-07-31T10:05:33Z</time>
      </trkpt>
      <trkpt lat="47.29496" lon="6.19365">
        <ele>338.8</ele>
        <time>2024-07-31T10:05:34Z</time>
      </trkpt>
      <trkpt lat="47.29495" lon="6.19366">
        <ele>339</ele>
        <time>2024-07-31T10:05:35Z</time>
      </trkpt>
      <trkpt lat="47.29494" lon="6.19367">
        <ele>339.4</ele>
        <time>2024-07-31T10:05:36Z</time>
      </trkpt>
      <trkpt lat="47.29493" lon="6.19368">
        <ele>339.4</ele>
        <time>2024-07-31T10:05:37Z</time>
      </trkpt>
      <trkpt lat="47.29492" lon="6.19368">
        <ele>339.6</ele>
        <time>2024-07-31T10:05:38Z</time>
      </trkpt>
      <trkpt lat="47.29491" lon="6.19369">
        <ele>340</ele>
        <time>2024-07-31T10:05:39Z</time>
      </trkpt>
      <trkpt lat="47.2949" lon="6.19369">
        <ele>340.2</ele>
        <time>2024-07-31T10:05:40Z</time>
      </trkpt>
      <trkpt lat="47.29489" lon="6.1937">
        <ele>340.4</ele>
        <time>2024-07-31T10:05:41Z</time>
      </trkpt>
      <trkpt lat="47.29488" lon="6.19372">
        <ele>340.6</ele>
        <time>2024-07-31T10:05:42Z</time>
      </trkpt>
      <trkpt lat="47.29487" lon="6.19373">
        <ele>340.8</ele>
        <time>2024-07-31T10:05:43Z</time>
      </trkpt>
      <trkpt lat="47.29486" lon="6.19374">
        <ele>341.2</ele>
        <time>2024-07-31T10:05:44Z</time>
      </trkpt>
      <trkpt lat="47.29485" lon="6.19376">
        <ele>341.4</ele>
        <time>2024-07-31T10:05:45Z</time>
      </trkpt>
      <trkpt lat="47.29484" lon="6.19377">
        <ele>341.4</ele>
        <time>2024-07-31T10:05:46Z</time>
      </trkpt>
      <trkpt lat="47.29483" lon="6.19379">
        <ele>341.6</ele>
        <time>2024-07-31T10:05:47Z</time>
      </trkpt>
      <trkpt lat="47.29481" lon="6.1938">
        <ele>342</ele>
        <time>2024-07-31T10:05:48Z</time>
      </trkpt>
      <trkpt lat="47.2948" lon="6.19382">
        <ele>342.2</ele>
        <time>2024-07-31T10:05:49Z</time>
      </trkpt>
      <trkpt lat="47.29479" lon="6.19383">
        <ele>342.4</ele>
        <time>2024-07-31T10:05:50Z</time>
      </trkpt>
      <trkpt lat="47.29478" lon="6.19384">
        <ele>342.6</ele>
        <time>2024-07-31T10:05:51Z</time>
      </trkpt>
      <trkpt lat="47.29476" lon="6.19385">
        <ele>342.8</ele>
        <time>2024-07-31T10:05:52Z</time>
      </trkpt>
      <trkpt lat="47.29475" lon="6.19387">
        <ele>343.2</ele>
        <time>2024-07-31T10:05:53Z</time>
      </trkpt>
      <trkpt lat="47.29475" lon="6.19389">
        <ele>343.4</ele>
        <time>2024-07-31T10:05:54Z</time>
      </trkpt>
      <trkpt lat="47.29474" lon="6.1939">
        <ele>343.6</ele>
        <time>2024-07-31T10:05:55Z</time>
      </trkpt>
      <trkpt lat="47.29472" lon="6.19392">
        <ele>343.6</ele>
        <time>2024-07-31T10:05:56Z</time>
      </trkpt>
      <trkpt lat="47.29471" lon="6.19393">
        <ele>343.8</ele>
        <time>2024-07-31T10:05:57Z</time>
      </trkpt>
      <trkpt lat="47.2947" lon="6.19395">
        <ele>344</ele>
        <time>2024-07-31T10:05:58Z</time>
      </trkpt>
      <trkpt lat="47.29469" lon="6.19396">
        <ele>344.2</ele>
        <time>2024-07-31T10:05:59Z</time>
      </trkpt>
      <trkpt lat="47.29468" lon="6.19397">
        <ele>344.4</ele>
        <time>2024-07-31T10:06:00Z</time>
      </trkpt>
      <trkpt lat="47.29467" lon="6.19399">
        <ele>344.8</ele>
        <time>2024-07-31T10:06:01Z</time>
      </trkpt>
      <trkpt lat="47.29466" lon="6.194">
        <ele>345.2</ele>
        <time>2024-07-31T10:06:02Z</time>
      </trkpt>
      <trkpt lat="47.29465" lon="6.19401">
        <ele>345.4</ele>
        <time>2024-07-31T10:06:03Z</time>
      </trkpt>
      <trkpt lat="47.29464" lon="6.19402">
        <ele>345.6</ele>
        <time>2024-07-31T10:06:04Z</time>
      </trkpt>
      <trkpt lat="47.29463" lon="6.19403">
        <ele>345.6</ele>
        <time>2024-07-31T10:06:05Z</time>
      </trkpt>
      <trkpt lat="47.29461" lon="6.19404">
        <ele>346</ele>
        <time>2024-07-31T10:06:06Z</time>
      </trkpt>
      <trkpt lat="47.2946" lon="6.19404">
        <ele>346.2</ele>
        <time>2024-07-31T10:06:07Z</time>
      </trkpt>
      <trkpt lat="47.29459" lon="6.19403">
        <ele>346.2</ele>
        <time>2024-07-31T10:06:08Z</time>
      </trkpt>
      <trkpt lat="47.29458" lon="6.19402">
        <ele>346.4</ele>
        <time>2024-07-31T10:06:09Z</time>
      </trkpt>
      <trkpt lat="47.29458" lon="6.19401">
        <ele>346.6</ele>
        <time>2024-07-31T10:06:10Z</time>
      </trkpt>
      <trkpt lat="47.29459" lon="6.194">
        <ele>346.6</ele>
        <time>2024-07-31T10:06:11Z</time>
      </trkpt>
      <trkpt lat="47.29459" lon="6.19399">
        <ele>346.8</ele>
        <time>2024-07-31T10:06:12Z</time>
      </trkpt>
      <trkpt lat="47.29461" lon="6.19397">
        <ele>347</ele>
        <time>2024-07-31T10:06:13Z</time>
      </trkpt>
      <trkpt lat="47.29462" lon="6.19396">
        <ele>347</ele>
        <time>2024-07-31T10:06:14Z</time>
      </trkpt>
      <trkpt lat="47.29463" lon="6.19395">
        <ele>346.8</ele>
        <time>2024-07-31T10:06:15Z</time>
      </trkpt>
      <trkpt lat="47.29464" lon="6.19393">
        <ele>347</ele>
        <time>2024-07-31T10:06:16Z</time>
      </trkpt>
      <trkpt lat="47.29465" lon="6.1939">
        <ele>347</ele>
        <time>2024-07-31T10:06:17Z</time>
      </trkpt>
      <trkpt lat="47.29466" lon="6.19388">
        <ele>347</ele>
        <time>2024-07-31T10:06:18Z</time>
      </trkpt>
      <trkpt lat="47.29467" lon="6.19386">
        <ele>347</ele>
        <time>2024-07-31T10:06:19Z</time>
      </trkpt>
      <trkpt lat="47.29468" lon="6.19384">
        <ele>346.8</ele>
        <time>2024-07-31T10:06:20Z</time>
      </trkpt>
      <trkpt lat="47.29468" lon="6.19381">
        <ele>347</ele>
        <time>2024-07-31T10:06:21Z</time>
      </trkpt>
      <trkpt lat="47.29469" lon="6.19379">
        <ele>347</ele>
        <time>2024-07-31T10:06:22Z</time>
      </trkpt>
      <trkpt lat="47.2947" lon="6.19376">
        <ele>347</ele>
        <time>2024-07-31T10:06:23Z</time>
      </trkpt>
      <trkpt lat="47.29471" lon="6.19374">
        <ele>346.8</ele>
        <time>2024-07-31T10:06:24Z</time>
      </trkpt>
      <trkpt lat="47.29472" lon="6.19371">
        <ele>346.8</ele>
        <time>2024-07-31T10:06:25Z</time>
      </trkpt>
      <trkpt lat="47.29474" lon="6.19368">
        <ele>347</ele>
        <time>2024-07-31T10:06:26Z</time>
      </trkpt>
      <trkpt lat="47.29475" lon="6.19364">
        <ele>346.8</ele>
        <time>2024-07-31T10:06:27Z</time>
      </trkpt>
      <trkpt lat="47.29476" lon="6.19361">
        <ele>346.8</ele>
        <time>2024-07-31T10:06:28Z</time>
      </trkpt>
      <trkpt lat="47.29477" lon="6.19357">
        <ele>347</ele>
        <time>2024-07-31T10:06:29Z</time>
      </trkpt>
      <trkpt lat="47.29479" lon="6.19352">
        <ele>346.8</ele>
        <time>2024-07-31T10:06:30Z</time>
      </trkpt>
      <trkpt lat="47.29481" lon="6.19348">
        <ele>346.8</ele>
        <time>2024-07-31T10:06:31Z</time>
      </trkpt>
      <trkpt lat="47.29482" lon="6.19344">
        <ele>347</ele>
        <time>2024-07-31T10:06:32Z</time>
      </trkpt>
      <trkpt lat="47.29484" lon="6.1934">
        <ele>347</ele>
        <time>2024-07-31T10:06:33Z</time>
      </trkpt>
      <trkpt lat="47.29485" lon="6.19336">
        <ele>347</ele>
        <time>2024-07-31T10:06:34Z</time>
      </trkpt>
      <trkpt lat="47.29487" lon="6.19331">
        <ele>347</ele>
        <time>2024-07-31T10:06:35Z</time>
      </trkpt>
      <trkpt lat="47.29488" lon="6.19326">
        <ele>347.2</ele>
        <time>2024-07-31T10:06:36Z</time>
      </trkpt>
      <trkpt lat="47.2949" lon="6.19322">
        <ele>346.8</ele>
        <time>2024-07-31T10:06:37Z</time>
      </trkpt>
      <trkpt lat="47.29492" lon="6.19316">
        <ele>346.6</ele>
        <time>2024-07-31T10:06:38Z</time>
      </trkpt>
      <trkpt lat="47.29494" lon="6.19312">
        <ele>346.6</ele>
        <time>2024-07-31T10:06:39Z</time>
      </trkpt>
      <trkpt lat="47.29496" lon="6.19307">
        <ele>346.6</ele>
        <time>2024-07-31T10:06:40Z</time>
      </trkpt>
      <trkpt lat="47.29498" lon="6.19301">
        <ele>346.6</ele>
        <time>2024-07-31T10:06:41Z</time>
      </trkpt>
      <trkpt lat="47.295" lon="6.19296">
        <ele>346.6</ele>
        <time>2024-07-31T10:06:42Z</time>
      </trkpt>
      <trkpt lat="47.29501" lon="6.19291">
        <ele>346.8</ele>
        <time>2024-07-31T10:06:43Z</time>
      </trkpt>
      <trkpt lat="47.29503" lon="6.19286">
        <ele>346.8</ele>
        <time>2024-07-31T10:06:44Z</time>
      </trkpt>
      <trkpt lat="47.29505" lon="6.19281">
        <ele>346.8</ele>
        <time>2024-07-31T10:06:45Z</time>
      </trkpt>
      <trkpt lat="47.29507" lon="6.19276">
        <ele>347</ele>
        <time>2024-07-31T10:06:46Z</time>
      </trkpt>
      <trkpt lat="47.29508" lon="6.19272">
        <ele>347</ele>
        <time>2024-07-31T10:06:47Z</time>
      </trkpt>
      <trkpt lat="47.2951" lon="6.19267">
        <ele>347.2</ele>
        <time>2024-07-31T10:06:48Z</time>
      </trkpt>
      <trkpt lat="47.29511" lon="6.19262">
        <ele>347.2</ele>
        <time>2024-07-31T10:06:49Z</time>
      </trkpt>
      <trkpt lat="47.29514" lon="6.19258">
        <ele>347</ele>
        <time>2024-07-31T10:06:50Z</time>
      </trkpt>
      <trkpt lat="47.29516" lon="6.19253">
        <ele>346.8</ele>
        <time>2024-07-31T10:06:51Z</time>
      </trkpt>
      <trkpt lat="47.29518" lon="6.19248">
        <ele>347</ele>
        <time>2024-07-31T10:06:52Z</time>
      </trkpt>
      <trkpt lat="47.2952" lon="6.19243">
        <ele>347</ele>
        <time>2024-07-31T10:06:53Z</time>
      </trkpt>
      <trkpt lat="47.29521" lon="6.19238">
        <ele>347</ele>
        <time>2024-07-31T10:06:54Z</time>
      </trkpt>
      <trkpt lat="47.29523" lon="6.19232">
        <ele>347</ele>
        <time>2024-07-31T10:06:55Z</time>
      </trkpt>
      <trkpt lat="47.29525" lon="6.19226">
        <ele>346.8</ele>
        <time>2024-07-31T10:06:56Z</time>
      </trkpt>
      <trkpt lat="47.29526" lon="6.1922">
        <ele>347</ele>
        <time>2024-07-31T10:06:57Z</time>
      </trkpt>
      <trkpt lat="47.29528" lon="6.19214">
        <ele>347</ele>
        <time>2024-07-31T10:06:58Z</time>
      </trkpt>
      <trkpt lat="47.2953" lon="6.19208">
        <ele>347</ele>
        <time>2024-07-31T10:06:59Z</time>
      </trkpt>
      <trkpt lat="47.29531" lon="6.19202">
        <ele>347</ele>
        <time>2024-07-31T10:07:00Z</time>
      </trkpt>
      <trkpt lat="47.29533" lon="6.19195">
        <ele>346.6</ele>
        <time>2024-07-31T10:07:01Z</time>
      </trkpt>
      <trkpt lat="47.29534" lon="6.19188">
        <ele>346.6</ele>
        <time>2024-07-31T10:07:02Z</time>
      </trkpt>
      <trkpt lat="47.29535" lon="6.19181">
        <ele>346.6</ele>
        <time>2024-07-31T10:07:03Z</time>
      </trkpt>
      <trkpt lat="47.29536" lon="6.19174">
        <ele>346.4</ele>
        <time>2024-07-31T10:07:04Z</time>
      </trkpt>
      <trkpt lat="47.29537" lon="6.19166">
        <ele>346</ele>
        <time>2024-07-31T10:07:05Z</time>
      </trkpt>
      <trkpt lat="47.29538" lon="6.19159">
        <ele>346</ele>
        <time>2024-07-31T10:07:06Z</time>
      </trkpt>
      <trkpt lat="47.29539" lon="6.19151">
        <ele>345.8</ele>
        <time>2024-07-31T10:07:07Z</time>
      </trkpt>
      <trkpt lat="47.2954" lon="6.19143">
        <ele>345.8</ele>
        <time>2024-07-31T10:07:08Z</time>
      </trkpt>
      <trkpt lat="47.29541" lon="6.19135">
        <ele>345.2</ele>
        <time>2024-07-31T10:07:09Z</time>
      </trkpt>
      <trkpt lat="47.2954" lon="6.19126">
        <ele>344.6</ele>
        <time>2024-07-31T10:07:10Z</time>
      </trkpt>
      <trkpt lat="47.2954" lon="6.19118">
        <ele>344.4</ele>
        <time>2024-07-31T10:07:11Z</time>
      </trkpt>
      <trkpt lat="47.29539" lon="6.19108">
        <ele>343.8</ele>
        <time>2024-07-31T10:07:12Z</time>
      </trkpt>
      <trkpt lat="47.29538" lon="6.19098">
        <ele>343</ele>
        <time>2024-07-31T10:07:13Z</time>
      </trkpt>
      <trkpt lat="47.29538" lon="6.19089">
        <ele>342</ele>
        <time>2024-07-31T10:07:14Z</time>
      </trkpt>
      <trkpt lat="47.2954" lon="6.1908">
        <ele>341.2</ele>
        <time>2024-07-31T10:07:15Z</time>
      </trkpt>
      <trkpt lat="47.29543" lon="6.19073">
        <ele>340.2</ele>
        <time>2024-07-31T10:07:16Z</time>
      </trkpt>
      <trkpt lat="47.29548" lon="6.19069">
        <ele>339.4</ele>
        <time>2024-07-31T10:07:17Z</time>
      </trkpt>
      <trkpt lat="47.29552" lon="6.19066">
        <ele>338.2</ele>
        <time>2024-07-31T10:07:18Z</time>
      </trkpt>
      <trkpt lat="47.29557" lon="6.19065">
        <ele>337.8</ele>
        <time>2024-07-31T10:07:19Z</time>
      </trkpt>
      <trkpt lat="47.2956" lon="6.19067">
        <ele>338</ele>
        <time>2024-07-31T10:07:20Z</time>
      </trkpt>
      <trkpt lat="47.29563" lon="6.19071">
        <ele>337.8</ele>
        <time>2024-07-31T10:07:21Z</time>
      </trkpt>
      <trkpt lat="47.29565" lon="6.19076">
        <ele>337.6</ele>
        <time>2024-07-31T10:07:22Z</time>
      </trkpt>
      <trkpt lat="47.29568" lon="6.19081">
        <ele>337.8</ele>
        <time>2024-07-31T10:07:23Z</time>
      </trkpt>
      <trkpt lat="47.29571" lon="6.19086">
        <ele>337.4</ele>
        <time>2024-07-31T10:07:24Z</time>
      </trkpt>
      <trkpt lat="47.29574" lon="6.19091">
        <ele>337.4</ele>
        <time>2024-07-31T10:07:25Z</time>
      </trkpt>
      <trkpt lat="47.29578" lon="6.19094">
        <ele>337.6</ele>
        <time>2024-07-31T10:07:26Z</time>
      </trkpt>
      <trkpt lat="47.29581" lon="6.19096">
        <ele>337.4</ele>
        <time>2024-07-31T10:07:27Z</time>
      </trkpt>
      <trkpt lat="47.29584" lon="6.19097">
        <ele>337.8</ele>
        <time>2024-07-31T10:07:28Z</time>
      </trkpt>
      <trkpt lat="47.29587" lon="6.19098">
        <ele>338.2</ele>
        <time>2024-07-31T10:07:29Z</time>
      </trkpt>
      <trkpt lat="47.2959" lon="6.19098">
        <ele>338.4</ele>
        <time>2024-07-31T10:07:30Z</time>
      </trkpt>
      <trkpt lat="47.29592" lon="6.19097">
        <ele>338.6</ele>
        <time>2024-07-31T10:07:31Z</time>
      </trkpt>
      <trkpt lat="47.29595" lon="6.19094">
        <ele>338.4</ele>
        <time>2024-07-31T10:07:32Z</time>
      </trkpt>
      <trkpt lat="47.29597" lon="6.19091">
        <ele>338.8</ele>
        <time>2024-07-31T10:07:33Z</time>
      </trkpt>
      <trkpt lat="47.296" lon="6.19088">
        <ele>339</ele>
        <time>2024-07-31T10:07:34Z</time>
      </trkpt>
      <trkpt lat="47.29602" lon="6.19085">
        <ele>339.2</ele>
        <time>2024-07-31T10:07:35Z</time>
      </trkpt>
      <trkpt lat="47.29604" lon="6.19081">
        <ele>339.2</ele>
        <time>2024-07-31T10:07:36Z</time>
      </trkpt>
      <trkpt lat="47.29607" lon="6.19077">
        <ele>339.6</ele>
        <time>2024-07-31T10:07:37Z</time>
      </trkpt>
      <trkpt lat="47.2961" lon="6.19073">
        <ele>340</ele>
        <time>2024-07-31T10:07:38Z</time>
      </trkpt>
      <trkpt lat="47.29613" lon="6.1907">
        <ele>340.2</ele>
        <time>2024-07-31T10:07:39Z</time>
      </trkpt>
      <trkpt lat="47.29615" lon="6.19069">
        <ele>340.6</ele>
        <time>2024-07-31T10:07:40Z</time>
      </trkpt>
      <trkpt lat="47.29618" lon="6.19067">
        <ele>340.6</ele>
        <time>2024-07-31T10:07:41Z</time>
      </trkpt>
      <trkpt lat="47.2962" lon="6.19067">
        <ele>341.2</ele>
        <time>2024-07-31T10:07:42Z</time>
      </trkpt>
      <trkpt lat="47.29622" lon="6.19066">
        <ele>341.6</ele>
        <time>2024-07-31T10:07:43Z</time>
      </trkpt>
      <trkpt lat="47.29624" lon="6.19066">
        <ele>342</ele>
        <time>2024-07-31T10:07:44Z</time>
      </trkpt>
      <trkpt lat="47.29626" lon="6.19065">
        <ele>342.4</ele>
        <time>2024-07-31T10:07:45Z</time>
      </trkpt>
      <trkpt lat="47.29628" lon="6.19063">
        <ele>342.6</ele>
        <time>2024-07-31T10:07:46Z</time>
      </trkpt>
      <trkpt lat="47.2963" lon="6.19061">
        <ele>342.6</ele>
        <time>2024-07-31T10:07:47Z</time>
      </trkpt>
      <trkpt lat="47.29631" lon="6.19058">
        <ele>342.8</ele>
        <time>2024-07-31T10:07:48Z</time>
      </trkpt>
      <trkpt lat="47.29632" lon="6.19055">
        <ele>343.2</ele>
        <time>2024-07-31T10:07:49Z</time>
      </trkpt>
      <trkpt lat="47.29633" lon="6.19051">
        <ele>343.2</ele>
        <time>2024-07-31T10:07:50Z</time>
      </trkpt>
      <trkpt lat="47.29633" lon="6.19046">
        <ele>343.4</ele>
        <time>2024-07-31T10:07:51Z</time>
      </trkpt>
      <trkpt lat="47.29634" lon="6.19042">
        <ele>343.4</ele>
        <time>2024-07-31T10:07:52Z</time>
      </trkpt>
      <trkpt lat="47.29634" lon="6.19037">
        <ele>343.6</ele>
        <time>2024-07-31T10:07:53Z</time>
      </trkpt>
      <trkpt lat="47.29634" lon="6.19033">
        <ele>343.6</ele>
        <time>2024-07-31T10:07:54Z</time>
      </trkpt>
      <trkpt lat="47.29634" lon="6.19028">
        <ele>343.8</ele>
        <time>2024-07-31T10:07:55Z</time>
      </trkpt>
      <trkpt lat="47.29635" lon="6.19024">
        <ele>344</ele>
        <time>2024-07-31T10:07:56Z</time>
      </trkpt>
      <trkpt lat="47.29635" lon="6.19019">
        <ele>344.2</ele>
        <time>2024-07-31T10:07:57Z</time>
      </trkpt>
      <trkpt lat="47.29635" lon="6.19014">
        <ele>344.4</ele>
        <time>2024-07-31T10:07:58Z</time>
      </trkpt>
      <trkpt lat="47.29636" lon="6.19009">
        <ele>344.4</ele>
        <time>2024-07-31T10:07:59Z</time>
      </trkpt>
      <trkpt lat="47.29637" lon="6.19004">
        <ele>344.6</ele>
        <time>2024-07-31T10:08:00Z</time>
      </trkpt>
      <trkpt lat="47.29637" lon="6.18999">
        <ele>344.4</ele>
        <time>2024-07-31T10:08:01Z</time>
      </trkpt>
      <trkpt lat="47.29638" lon="6.18994">
        <ele>344.8</ele>
        <time>2024-07-31T10:08:02Z</time>
      </trkpt>
      <trkpt lat="47.29639" lon="6.18989">
        <ele>344.6</ele>
        <time>2024-07-31T10:08:03Z</time>
      </trkpt>
      <trkpt lat="47.2964" lon="6.18984">
        <ele>344.8</ele>
        <time>2024-07-31T10:08:04Z</time>
      </trkpt>
      <trkpt lat="47.29641" lon="6.18979">
        <ele>345</ele>
        <time>2024-07-31T10:08:05Z</time>
      </trkpt>
      <trkpt lat="47.29642" lon="6.18973">
        <ele>344.8</ele>
        <time>2024-07-31T10:08:06Z</time>
      </trkpt>
      <trkpt lat="47.29643" lon="6.18968">
        <ele>345</ele>
        <time>2024-07-31T10:08:07Z</time>
      </trkpt>
      <trkpt lat="47.29643" lon="6.18963">
        <ele>345</ele>
        <time>2024-07-31T10:08:08Z</time>
      </trkpt>
      <trkpt lat="47.29644" lon="6.18957">
        <ele>345</ele>
        <time>2024-07-31T10:08:09Z</time>
      </trkpt>
      <trkpt lat="47.29643" lon="6.18951">
        <ele>344.8</ele>
        <time>2024-07-31T10:08:10Z</time>
      </trkpt>
      <trkpt lat="47.29643" lon="6.18945">
        <ele>344.8</ele>
        <time>2024-07-31T10:08:11Z</time>
      </trkpt>
      <trkpt lat="47.29642" lon="6.18939">
        <ele>344.8</ele>
        <time>2024-07-31T10:08:12Z</time>
      </trkpt>
      <trkpt lat="47.29641" lon="6.18933">
        <ele>345</ele>
        <time>2024-07-31T10:08:13Z</time>
      </trkpt>
      <trkpt lat="47.29641" lon="6.18928">
        <ele>345.2</ele>
        <time>2024-07-31T10:08:14Z</time>
      </trkpt>
      <trkpt lat="47.2964" lon="6.18923">
        <ele>345.6</ele>
        <time>2024-07-31T10:08:15Z</time>
      </trkpt>
      <trkpt lat="47.29639" lon="6.18917">
        <ele>345.8</ele>
        <time>2024-07-31T10:08:16Z</time>
      </trkpt>
      <trkpt lat="47.29638" lon="6.18912">
        <ele>345.8</ele>
        <time>2024-07-31T10:08:17Z</time>
      </trkpt>
      <trkpt lat="47.29637" lon="6.18907">
        <ele>345.8</ele>
        <time>2024-07-31T10:08:18Z</time>
      </trkpt>
      <trkpt lat="47.29636" lon="6.18903">
        <ele>345.8</ele>
        <time>2024-07-31T10:08:19Z</time>
      </trkpt>
      <trkpt lat="47.29635" lon="6.18898">
        <ele>346.2</ele>
        <time>2024-07-31T10:08:20Z</time>
      </trkpt>
      <trkpt lat="47.29635" lon="6.18893">
        <ele>346.2</ele>
        <time>2024-07-31T10:08:21Z</time>
      </trkpt>
      <trkpt lat="47.29634" lon="6.18888">
        <ele>346</ele>
        <time>2024-07-31T10:08:22Z</time>
      </trkpt>
      <trkpt lat="47.29633" lon="6.18884">
        <ele>346.6</ele>
        <time>2024-07-31T10:08:23Z</time>
      </trkpt>
      <trkpt lat="47.29633" lon="6.18879">
        <ele>347</ele>
        <time>2024-07-31T10:08:24Z</time>
      </trkpt>
      <trkpt lat="47.29633" lon="6.18874">
        <ele>346.8</ele>
        <time>2024-07-31T10:08:25Z</time>
      </trkpt>
      <trkpt lat="47.29632" lon="6.1887">
        <ele>346.8</ele>
        <time>2024-07-31T10:08:26Z</time>
      </trkpt>
      <trkpt lat="47.29631" lon="6.18865">
        <ele>347.2</ele>
        <time>2024-07-31T10:08:27Z</time>
      </trkpt>
      <trkpt lat="47.2963" lon="6.18861">
        <ele>347.4</ele>
        <time>2024-07-31T10:08:28Z</time>
      </trkpt>
      <trkpt lat="47.29629" lon="6.18857">
        <ele>347.6</ele>
        <time>2024-07-31T10:08:29Z</time>
      </trkpt>
      <trkpt lat="47.29629" lon="6.18852">
        <ele>348</ele>
        <time>2024-07-31T10:08:30Z</time>
      </trkpt>
      <trkpt lat="47.29628" lon="6.18848">
        <ele>348</ele>
        <time>2024-07-31T10:08:31Z</time>
      </trkpt>
      <trkpt lat="47.29628" lon="6.18843">
        <ele>348</ele>
        <time>2024-07-31T10:08:32Z</time>
      </trkpt>
      <trkpt lat="47.29628" lon="6.18838">
        <ele>348</ele>
        <time>2024-07-31T10:08:33Z</time>
      </trkpt>
      <trkpt lat="47.29628" lon="6.18834">
        <ele>348.2</ele>
        <time>2024-07-31T10:08:34Z</time>
      </trkpt>
      <trkpt lat="47.29628" lon="6.18829">
        <ele>348.4</ele>
        <time>2024-07-31T10:08:35Z</time>
      </trkpt>
      <trkpt lat="47.29628" lon="6.18824">
        <ele>348.4</ele>
        <time>2024-07-31T10:08:36Z</time>
      </trkpt>
      <trkpt lat="47.29628" lon="6.18819">
        <ele>348.6</ele>
        <time>2024-07-31T10:08:37Z</time>
      </trkpt>
      <trkpt lat="47.29628" lon="6.18814">
        <ele>348.6</ele>
        <time>2024-07-31T10:08:38Z</time>
      </trkpt>
      <trkpt lat="47.29628" lon="6.18809">
        <ele>349</ele>
        <time>2024-07-31T10:08:39Z</time>
      </trkpt>
      <trkpt lat="47.29628" lon="6.18804">
        <ele>349.2</ele>
        <time>2024-07-31T10:08:40Z</time>
      </trkpt>
      <trkpt lat="47.29628" lon="6.188">
        <ele>349.2</ele>
        <time>2024-07-31T10:08:41Z</time>
      </trkpt>
      <trkpt lat="47.29628" lon="6.18795">
        <ele>349.2</ele>
        <time>2024-07-31T10:08:42Z</time>
      </trkpt>
      <trkpt lat="47.29627" lon="6.1879">
        <ele>349.4</ele>
        <time>2024-07-31T10:08:43Z</time>
      </trkpt>
      <trkpt lat="47.29626" lon="6.18784">
        <ele>350</ele>
        <time>2024-07-31T10:08:44Z</time>
      </trkpt>
      <trkpt lat="47.29625" lon="6.18779">
        <ele>349.6</ele>
        <time>2024-07-31T10:08:45Z</time>
      </trkpt>
      <trkpt lat="47.29624" lon="6.18773">
        <ele>350</ele>
        <time>2024-07-31T10:08:46Z</time>
      </trkpt>
      <trkpt lat="47.29623" lon="6.18767">
        <ele>350</ele>
        <time>2024-07-31T10:08:47Z</time>
      </trkpt>
      <trkpt lat="47.29621" lon="6.18761">
        <ele>350.4</ele>
        <time>2024-07-31T10:08:48Z</time>
      </trkpt>
      <trkpt lat="47.2962" lon="6.18756">
        <ele>350.2</ele>
        <time>2024-07-31T10:08:49Z</time>
      </trkpt>
      <trkpt lat="47.29618" lon="6.1875">
        <ele>350.2</ele>
        <time>2024-07-31T10:08:50Z</time>
      </trkpt>
      <trkpt lat="47.29616" lon="6.18744">
        <ele>350.4</ele>
        <time>2024-07-31T10:08:51Z</time>
      </trkpt>
      <trkpt lat="47.29615" lon="6.18739">
        <ele>350.6</ele>
        <time>2024-07-31T10:08:52Z</time>
      </trkpt>
      <trkpt lat="47.29613" lon="6.18734">
        <ele>350.6</ele>
        <time>2024-07-31T10:08:53Z</time>
      </trkpt>
      <trkpt lat="47.29612" lon="6.18729">
        <ele>350.6</ele>
        <time>2024-07-31T10:08:54Z</time>
      </trkpt>
      <trkpt lat="47.2961" lon="6.18723">
        <ele>350.6</ele>
        <time>2024-07-31T10:08:55Z</time>
      </trkpt>
      <trkpt lat="47.29608" lon="6.18717">
        <ele>350.4</ele>
        <time>2024-07-31T10:08:56Z</time>
      </trkpt>
      <trkpt lat="47.29607" lon="6.18711">
        <ele>350.6</ele>
        <time>2024-07-31T10:08:57Z</time>
      </trkpt>
      <trkpt lat="47.29605" lon="6.18706">
        <ele>350.6</ele>
        <time>2024-07-31T10:08:58Z</time>
      </trkpt>
      <trkpt lat="47.29604" lon="6.187">
        <ele>350.6</ele>
        <time>2024-07-31T10:08:59Z</time>
      </trkpt>
      <trkpt lat="47.29602" lon="6.18694">
        <ele>350.6</ele>
        <time>2024-07-31T10:09:00Z</time>
      </trkpt>
      <trkpt lat="47.29601" lon="6.18689">
        <ele>350.6</ele>
        <time>2024-07-31T10:09:01Z</time>
      </trkpt>
      <trkpt lat="47.29599" lon="6.18684">
        <ele>350.8</ele>
        <time>2024-07-31T10:09:02Z</time>
      </trkpt>
      <trkpt lat="47.29598" lon="6.18679">
        <ele>351.2</ele>
        <time>2024-07-31T10:09:03Z</time>
      </trkpt>
      <trkpt lat="47.29597" lon="6.18674">
        <ele>351.2</ele>
        <time>2024-07-31T10:09:04Z</time>
      </trkpt>
      <trkpt lat="47.29596" lon="6.18668">
        <ele>351.6</ele>
        <time>2024-07-31T10:09:05Z</time>
      </trkpt>
      <trkpt lat="47.29595" lon="6.18664">
        <ele>351.8</ele>
        <time>2024-07-31T10:09:06Z</time>
      </trkpt>
      <trkpt lat="47.29594" lon="6.18659">
        <ele>352.2</ele>
        <time>2024-07-31T10:09:07Z</time>
      </trkpt>
      <trkpt lat="47.29593" lon="6.18655">
        <ele>352.2</ele>
        <time>2024-07-31T10:09:08Z</time>
      </trkpt>
      <trkpt lat="47.29592" lon="6.1865">
        <ele>352.6</ele>
        <time>2024-07-31T10:09:09Z</time>
      </trkpt>
      <trkpt lat="47.29591" lon="6.18646">
        <ele>353.2</ele>
        <time>2024-07-31T10:09:10Z</time>
      </trkpt>
      <trkpt lat="47.2959" lon="6.18642">
        <ele>353.2</ele>
        <time>2024-07-31T10:09:11Z</time>
      </trkpt>
      <trkpt lat="47.29589" lon="6.18638">
        <ele>353.2</ele>
        <time>2024-07-31T10:09:12Z</time>
      </trkpt>
      <trkpt lat="47.29588" lon="6.18634">
        <ele>353.8</ele>
        <time>2024-07-31T10:09:13Z</time>
      </trkpt>
      <trkpt lat="47.29588" lon="6.1863">
        <ele>353.8</ele>
        <time>2024-07-31T10:09:14Z</time>
      </trkpt>
      <trkpt lat="47.29587" lon="6.18627">
        <ele>353.8</ele>
        <time>2024-07-31T10:09:15Z</time>
      </trkpt>
      <trkpt lat="47.29586" lon="6.18623">
        <ele>353.8</ele>
        <time>2024-07-31T10:09:16Z</time>
      </trkpt>
      <trkpt lat="47.29585" lon="6.1862">
        <ele>354.2</ele>
        <time>2024-07-31T10:09:17Z</time>
      </trkpt>
      <trkpt lat="47.29585" lon="6.18616">
        <ele>354.4</ele>
        <time>2024-07-31T10:09:18Z</time>
      </trkpt>
      <trkpt lat="47.29584" lon="6.18613">
        <ele>354.6</ele>
        <time>2024-07-31T10:09:19Z</time>
      </trkpt>
      <trkpt lat="47.29583" lon="6.1861">
        <ele>355</ele>
        <time>2024-07-31T10:09:20Z</time>
      </trkpt>
      <trkpt lat="47.29582" lon="6.18607">
        <ele>355.2</ele>
        <time>2024-07-31T10:09:21Z</time>
      </trkpt>
      <trkpt lat="47.29582" lon="6.18604">
        <ele>355.4</ele>
        <time>2024-07-31T10:09:22Z</time>
      </trkpt>
      <trkpt lat="47.29581" lon="6.186">
        <ele>355.8</ele>
        <time>2024-07-31T10:09:23Z</time>
      </trkpt>
      <trkpt lat="47.29581" lon="6.18597">
        <ele>356.2</ele>
        <time>2024-07-31T10:09:24Z</time>
      </trkpt>
      <trkpt lat="47.2958" lon="6.18593">
        <ele>356.4</ele>
        <time>2024-07-31T10:09:25Z</time>
      </trkpt>
      <trkpt lat="47.2958" lon="6.1859">
        <ele>356.4</ele>
        <time>2024-07-31T10:09:26Z</time>
      </trkpt>
      <trkpt lat="47.29579" lon="6.18587">
        <ele>356.6</ele>
        <time>2024-07-31T10:09:27Z</time>
      </trkpt>
      <trkpt lat="47.29579" lon="6.18583">
        <ele>357.2</ele>
        <time>2024-07-31T10:09:28Z</time>
      </trkpt>
      <trkpt lat="47.29578" lon="6.1858">
        <ele>357.2</ele>
        <time>2024-07-31T10:09:29Z</time>
      </trkpt>
      <trkpt lat="47.29577" lon="6.18577">
        <ele>357.4</ele>
        <time>2024-07-31T10:09:30Z</time>
      </trkpt>
      <trkpt lat="47.29577" lon="6.18574">
        <ele>357.6</ele>
        <time>2024-07-31T10:09:31Z</time>
      </trkpt>
      <trkpt lat="47.29577" lon="6.18571">
        <ele>358.2</ele>
        <time>2024-07-31T10:09:32Z</time>
      </trkpt>
      <trkpt lat="47.29576" lon="6.18567">
        <ele>358.4</ele>
        <time>2024-07-31T10:09:33Z</time>
      </trkpt>
      <trkpt lat="47.29576" lon="6.18564">
        <ele>358.6</ele>
        <time>2024-07-31T10:09:34Z</time>
      </trkpt>
      <trkpt lat="47.29576" lon="6.18561">
        <ele>358.6</ele>
        <time>2024-07-31T10:09:35Z</time>
      </trkpt>
      <trkpt lat="47.29575" lon="6.18558">
        <ele>359</ele>
        <time>2024-07-31T10:09:36Z</time>
      </trkpt>
      <trkpt lat="47.29575" lon="6.18555">
        <ele>359.2</ele>
        <time>2024-07-31T10:09:37Z</time>
      </trkpt>
      <trkpt lat="47.29575" lon="6.18552">
        <ele>359.2</ele>
        <time>2024-07-31T10:09:38Z</time>
      </trkpt>
      <trkpt lat="47.29574" lon="6.18549">
        <ele>359.4</ele>
        <time>2024-07-31T10:09:39Z</time>
      </trkpt>
      <trkpt lat="47.29574" lon="6.18546">
        <ele>359.8</ele>
        <time>2024-07-31T10:09:40Z</time>
      </trkpt>
      <trkpt lat="47.29574" lon="6.18544">
        <ele>360.2</ele>
        <time>2024-07-31T10:09:41Z</time>
      </trkpt>
      <trkpt lat="47.29573" lon="6.18542">
        <ele>360.4</ele>
        <time>2024-07-31T10:09:42Z</time>
      </trkpt>
      <trkpt lat="47.29572" lon="6.18539">
        <ele>360.6</ele>
        <time>2024-07-31T10:09:43Z</time>
      </trkpt>
      <trkpt lat="47.29572" lon="6.18536">
        <ele>361</ele>
        <time>2024-07-31T10:09:44Z</time>
      </trkpt>
      <trkpt lat="47.29571" lon="6.18534">
        <ele>361.2</ele>
        <time>2024-07-31T10:09:45Z</time>
      </trkpt>
      <trkpt lat="47.29571" lon="6.18531">
        <ele>361.2</ele>
        <time>2024-07-31T10:09:46Z</time>
      </trkpt>
      <trkpt lat="47.2957" lon="6.18528">
        <ele>361.6</ele>
        <time>2024-07-31T10:09:47Z</time>
      </trkpt>
      <trkpt lat="47.2957" lon="6.18525">
        <ele>361.8</ele>
        <time>2024-07-31T10:09:48Z</time>
      </trkpt>
      <trkpt lat="47.2957" lon="6.18522">
        <ele>362.2</ele>
        <time>2024-07-31T10:09:49Z</time>
      </trkpt>
      <trkpt lat="47.29569" lon="6.18518">
        <ele>362.4</ele>
        <time>2024-07-31T10:09:50Z</time>
      </trkpt>
      <trkpt lat="47.29569" lon="6.18515">
        <ele>362.6</ele>
        <time>2024-07-31T10:09:51Z</time>
      </trkpt>
      <trkpt lat="47.29568" lon="6.18512">
        <ele>362.6</ele>
        <time>2024-07-31T10:09:52Z</time>
      </trkpt>
      <trkpt lat="47.29568" lon="6.18509">
        <ele>363</ele>
        <time>2024-07-31T10:09:53Z</time>
      </trkpt>
      <trkpt lat="47.29568" lon="6.18506">
        <ele>363.4</ele>
        <time>2024-07-31T10:09:54Z</time>
      </trkpt>
      <trkpt lat="47.29568" lon="6.18502">
        <ele>363.6</ele>
        <time>2024-07-31T10:09:55Z</time>
      </trkpt>
      <trkpt lat="47.29568" lon="6.18499">
        <ele>363.8</ele>
        <time>2024-07-31T10:09:56Z</time>
      </trkpt>
      <trkpt lat="47.29567" lon="6.18496">
        <ele>364.2</ele>
        <time>2024-07-31T10:09:57Z</time>
      </trkpt>
      <trkpt lat="47.29567" lon="6.18493">
        <ele>364.4</ele>
        <time>2024-07-31T10:09:58Z</time>
      </trkpt>
      <trkpt lat="47.29566" lon="6.18489">
        <ele>364.8</ele>
        <time>2024-07-31T10:09:59Z</time>
      </trkpt>
      <trkpt lat="47.29566" lon="6.18486">
        <ele>364.8</ele>
        <time>2024-07-31T10:10:00Z</time>
      </trkpt>
      <trkpt lat="47.29566" lon="6.18483">
        <ele>365.2</ele>
        <time>2024-07-31T10:10:01Z</time>
      </trkpt>
      <trkpt lat="47.29565" lon="6.1848">
        <ele>365.4</ele>
        <time>2024-07-31T10:10:02Z</time>
      </trkpt>
      <trkpt lat="47.29564" lon="6.18477">
        <ele>365.4</ele>
        <time>2024-07-31T10:10:03Z</time>
      </trkpt>
      <trkpt lat="47.29563" lon="6.18474">
        <ele>365.8</ele>
        <time>2024-07-31T10:10:04Z</time>
      </trkpt>
      <trkpt lat="47.29563" lon="6.18471">
        <ele>365.8</ele>
        <time>2024-07-31T10:10:05Z</time>
      </trkpt>
      <trkpt lat="47.29562" lon="6.18468">
        <ele>366.2</ele>
        <time>2024-07-31T10:10:06Z</time>
      </trkpt>
      <trkpt lat="47.29562" lon="6.18466">
        <ele>366.6</ele>
        <time>2024-07-31T10:10:07Z</time>
      </trkpt>
      <trkpt lat="47.29561" lon="6.18463">
        <ele>366.6</ele>
        <time>2024-07-31T10:10:08Z</time>
      </trkpt>
      <trkpt lat="47.29561" lon="6.1846">
        <ele>366.8</ele>
        <time>2024-07-31T10:10:09Z</time>
      </trkpt>
      <trkpt lat="47.2956" lon="6.18457">
        <ele>367.2</ele>
        <time>2024-07-31T10:10:10Z</time>
      </trkpt>
      <trkpt lat="47.29559" lon="6.18454">
        <ele>367.4</ele>
        <time>2024-07-31T10:10:11Z</time>
      </trkpt>
      <trkpt lat="47.29558" lon="6.18451">
        <ele>367.6</ele>
        <time>2024-07-31T10:10:12Z</time>
      </trkpt>
      <trkpt lat="47.29558" lon="6.18448">
        <ele>367.8</ele>
        <time>2024-07-31T10:10:13Z</time>
      </trkpt>
      <trkpt lat="47.29557" lon="6.18445">
        <ele>368.2</ele>
        <time>2024-07-31T10:10:14Z</time>
      </trkpt>
      <trkpt lat="47.29557" lon="6.18442">
        <ele>368.4</ele>
        <time>2024-07-31T10:10:15Z</time>
      </trkpt>
      <trkpt lat="47.29556" lon="6.18439">
        <ele>368.6</ele>
        <time>2024-07-31T10:10:16Z</time>
      </trkpt>
      <trkpt lat="47.29556" lon="6.18436">
        <ele>369</ele>
        <time>2024-07-31T10:10:17Z</time>
      </trkpt>
      <trkpt lat="47.29555" lon="6.18433">
        <ele>369.2</ele>
        <time>2024-07-31T10:10:18Z</time>
      </trkpt>
      <trkpt lat="47.29555" lon="6.1843">
        <ele>369.6</ele>
        <time>2024-07-31T10:10:19Z</time>
      </trkpt>
      <trkpt lat="47.29554" lon="6.18427">
        <ele>369.8</ele>
        <time>2024-07-31T10:10:20Z</time>
      </trkpt>
      <trkpt lat="47.29554" lon="6.18424">
        <ele>370.2</ele>
        <time>2024-07-31T10:10:21Z</time>
      </trkpt>
      <trkpt lat="47.29554" lon="6.18421">
        <ele>370.2</ele>
        <time>2024-07-31T10:10:22Z</time>
      </trkpt>
      <trkpt lat="47.29553" lon="6.18417">
        <ele>370</ele>
        <time>2024-07-31T10:10:23Z</time>
      </trkpt>
      <trkpt lat="47.29553" lon="6.18414">
        <ele>370.2</ele>
        <time>2024-07-31T10:10:24Z</time>
      </trkpt>
      <trkpt lat="47.29553" lon="6.18411">
        <ele>370.8</ele>
        <time>2024-07-31T10:10:25Z</time>
      </trkpt>
      <trkpt lat="47.29553" lon="6.18408">
        <ele>371</ele>
        <time>2024-07-31T10:10:26Z</time>
      </trkpt>
      <trkpt lat="47.29552" lon="6.18405">
        <ele>371.4</ele>
        <time>2024-07-31T10:10:27Z</time>
      </trkpt>
      <trkpt lat="47.29552" lon="6.18402">
        <ele>371.4</ele>
        <time>2024-07-31T10:10:28Z</time>
      </trkpt>
      <trkpt lat="47.29551" lon="6.18399">
        <ele>371.8</ele>
        <time>2024-07-31T10:10:29Z</time>
      </trkpt>
      <trkpt lat="47.29551" lon="6.18397">
        <ele>372.2</ele>
        <time>2024-07-31T10:10:30Z</time>
      </trkpt>
      <trkpt lat="47.2955" lon="6.18394">
        <ele>372.4</ele>
        <time>2024-07-31T10:10:31Z</time>
      </trkpt>
      <trkpt lat="47.2955" lon="6.18391">
        <ele>372.8</ele>
        <time>2024-07-31T10:10:32Z</time>
      </trkpt>
      <trkpt lat="47.29549" lon="6.18389">
        <ele>373</ele>
        <time>2024-07-31T10:10:33Z</time>
      </trkpt>
      <trkpt lat="47.29548" lon="6.18386">
        <ele>373.2</ele>
        <time>2024-07-31T10:10:34Z</time>
      </trkpt>
      <trkpt lat="47.29547" lon="6.18383">
        <ele>373.4</ele>
        <time>2024-07-31T10:10:35Z</time>
      </trkpt>
      <trkpt lat="47.29547" lon="6.18381">
        <ele>373.4</ele>
        <time>2024-07-31T10:10:36Z</time>
      </trkpt>
      <trkpt lat="47.29546" lon="6.18378">
        <ele>373.8</ele>
        <time>2024-07-31T10:10:37Z</time>
      </trkpt>
      <trkpt lat="47.29545" lon="6.18376">
        <ele>374</ele>
        <time>2024-07-31T10:10:38Z</time>
      </trkpt>
      <trkpt lat="47.29544" lon="6.18373">
        <ele>374.2</ele>
        <time>2024-07-31T10:10:39Z</time>
      </trkpt>
      <trkpt lat="47.29544" lon="6.1837">
        <ele>374.4</ele>
        <time>2024-07-31T10:10:40Z</time>
      </trkpt>
      <trkpt lat="47.29544" lon="6.18367">
        <ele>374.4</ele>
        <time>2024-07-31T10:10:41Z</time>
      </trkpt>
      <trkpt lat="47.29544" lon="6.18363">
        <ele>374.8</ele>
        <time>2024-07-31T10:10:42Z</time>
      </trkpt>
      <trkpt lat="47.29543" lon="6.1836">
        <ele>375.2</ele>
        <time>2024-07-31T10:10:43Z</time>
      </trkpt>
      <trkpt lat="47.29543" lon="6.18358">
        <ele>375.2</ele>
        <time>2024-07-31T10:10:44Z</time>
      </trkpt>
      <trkpt lat="47.29542" lon="6.18354">
        <ele>375.2</ele>
        <time>2024-07-31T10:10:45Z</time>
      </trkpt>
      <trkpt lat="47.29541" lon="6.18351">
        <ele>375.2</ele>
        <time>2024-07-31T10:10:46Z</time>
      </trkpt>
      <trkpt lat="47.29541" lon="6.18349">
        <ele>375.4</ele>
        <time>2024-07-31T10:10:47Z</time>
      </trkpt>
      <trkpt lat="47.29541" lon="6.18346">
        <ele>375.6</ele>
        <time>2024-07-31T10:10:48Z</time>
      </trkpt>
      <trkpt lat="47.2954" lon="6.18343">
        <ele>376</ele>
        <time>2024-07-31T10:10:49Z</time>
      </trkpt>
      <trkpt lat="47.29539" lon="6.18341">
        <ele>376</ele>
        <time>2024-07-31T10:10:50Z</time>
      </trkpt>
      <trkpt lat="47.29538" lon="6.18339">
        <ele>376.2</ele>
        <time>2024-07-31T10:10:51Z</time>
      </trkpt>
      <trkpt lat="47.29537" lon="6.18336">
        <ele>376.4</ele>
        <time>2024-07-31T10:10:52Z</time>
      </trkpt>
      <trkpt lat="47.29536" lon="6.18333">
        <ele>376.6</ele>
        <time>2024-07-31T10:10:53Z</time>
      </trkpt>
      <trkpt lat="47.29535" lon="6.18331">
        <ele>376.6</ele>
        <time>2024-07-31T10:10:54Z</time>
      </trkpt>
      <trkpt lat="47.29534" lon="6.18328">
        <ele>377</ele>
        <time>2024-07-31T10:10:55Z</time>
      </trkpt>
      <trkpt lat="47.29534" lon="6.18326">
        <ele>377</ele>
        <time>2024-07-31T10:10:56Z</time>
      </trkpt>
      <trkpt lat="47.29533" lon="6.18323">
        <ele>377</ele>
        <time>2024-07-31T10:10:57Z</time>
      </trkpt>
      <trkpt lat="47.29532" lon="6.18321">
        <ele>377.2</ele>
        <time>2024-07-31T10:10:58Z</time>
      </trkpt>
      <trkpt lat="47.29532" lon="6.18319">
        <ele>377.6</ele>
        <time>2024-07-31T10:10:59Z</time>
      </trkpt>
      <trkpt lat="47.29531" lon="6.18316">
        <ele>377.8</ele>
        <time>2024-07-31T10:11:00Z</time>
      </trkpt>
      <trkpt lat="47.2953" lon="6.18314">
        <ele>377.6</ele>
        <time>2024-07-31T10:11:01Z</time>
      </trkpt>
      <trkpt lat="47.29529" lon="6.18312">
        <ele>377.8</ele>
        <time>2024-07-31T10:11:02Z</time>
      </trkpt>
      <trkpt lat="47.29529" lon="6.18309">
        <ele>378</ele>
        <time>2024-07-31T10:11:03Z</time>
      </trkpt>
      <trkpt lat="47.29528" lon="6.18306">
        <ele>378.4</ele>
        <time>2024-07-31T10:11:04Z</time>
      </trkpt>
      <trkpt lat="47.29527" lon="6.18304">
        <ele>378.6</ele>
        <time>2024-07-31T10:11:05Z</time>
      </trkpt>
      <trkpt lat="47.29526" lon="6.18301">
        <ele>378.6</ele>
        <time>2024-07-31T10:11:06Z</time>
      </trkpt>
      <trkpt lat="47.29526" lon="6.18298">
        <ele>378.6</ele>
        <time>2024-07-31T10:11:07Z</time>
      </trkpt>
      <trkpt lat="47.29525" lon="6.18295">
        <ele>378.8</ele>
        <time>2024-07-31T10:11:08Z</time>
      </trkpt>
      <trkpt lat="47.29524" lon="6.18292">
        <ele>379</ele>
        <time>2024-07-31T10:11:09Z</time>
      </trkpt>
      <trkpt lat="47.29523" lon="6.1829">
        <ele>379</ele>
        <time>2024-07-31T10:11:10Z</time>
      </trkpt>
      <trkpt lat="47.29522" lon="6.18287">
        <ele>379</ele>
        <time>2024-07-31T10:11:11Z</time>
      </trkpt>
      <trkpt lat="47.29521" lon="6.18283">
        <ele>379.2</ele>
        <time>2024-07-31T10:11:12Z</time>
      </trkpt>
      <trkpt lat="47.2952" lon="6.1828">
        <ele>379.4</ele>
        <time>2024-07-31T10:11:13Z</time>
      </trkpt>
      <trkpt lat="47.29518" lon="6.18276">
        <ele>379.4</ele>
        <time>2024-07-31T10:11:14Z</time>
      </trkpt>
      <trkpt lat="47.29517" lon="6.18273">
        <ele>379.6</ele>
        <time>2024-07-31T10:11:15Z</time>
      </trkpt>
      <trkpt lat="47.29516" lon="6.18269">
        <ele>379.6</ele>
        <time>2024-07-31T10:11:16Z</time>
      </trkpt>
      <trkpt lat="47.29514" lon="6.18265">
        <ele>379.4</ele>
        <time>2024-07-31T10:11:17Z</time>
      </trkpt>
      <trkpt lat="47.29513" lon="6.18261">
        <ele>379.6</ele>
        <time>2024-07-31T10:11:18Z</time>
      </trkpt>
      <trkpt lat="47.29512" lon="6.18257">
        <ele>379.8</ele>
        <time>2024-07-31T10:11:19Z</time>
      </trkpt>
      <trkpt lat="47.29511" lon="6.18253">
        <ele>380</ele>
        <time>2024-07-31T10:11:20Z</time>
      </trkpt>
      <trkpt lat="47.2951" lon="6.18248">
        <ele>380</ele>
        <time>2024-07-31T10:11:21Z</time>
      </trkpt>
      <trkpt lat="47.29508" lon="6.18244">
        <ele>380</ele>
        <time>2024-07-31T10:11:22Z</time>
      </trkpt>
      <trkpt lat="47.29507" lon="6.1824">
        <ele>380</ele>
        <time>2024-07-31T10:11:23Z</time>
      </trkpt>
      <trkpt lat="47.29506" lon="6.18237">
        <ele>380.2</ele>
        <time>2024-07-31T10:11:24Z</time>
      </trkpt>
      <trkpt lat="47.29505" lon="6.18233">
        <ele>380.2</ele>
        <time>2024-07-31T10:11:25Z</time>
      </trkpt>
      <trkpt lat="47.29503" lon="6.18229">
        <ele>380.4</ele>
        <time>2024-07-31T10:11:26Z</time>
      </trkpt>
      <trkpt lat="47.29502" lon="6.18225">
        <ele>380.4</ele>
        <time>2024-07-31T10:11:27Z</time>
      </trkpt>
      <trkpt lat="47.29501" lon="6.1822">
        <ele>380.4</ele>
        <time>2024-07-31T10:11:28Z</time>
      </trkpt>
      <trkpt lat="47.295" lon="6.18216">
        <ele>380.4</ele>
        <time>2024-07-31T10:11:29Z</time>
      </trkpt>
      <trkpt lat="47.29499" lon="6.18212">
        <ele>380.6</ele>
        <time>2024-07-31T10:11:30Z</time>
      </trkpt>
      <trkpt lat="47.29497" lon="6.18208">
        <ele>380.6</ele>
        <time>2024-07-31T10:11:31Z</time>
      </trkpt>
      <trkpt lat="47.29496" lon="6.18203">
        <ele>380.8</ele>
        <time>2024-07-31T10:11:32Z</time>
      </trkpt>
      <trkpt lat="47.29495" lon="6.18199">
        <ele>381</ele>
        <time>2024-07-31T10:11:33Z</time>
      </trkpt>
      <trkpt lat="47.29494" lon="6.18195">
        <ele>381</ele>
        <time>2024-07-31T10:11:34Z</time>
      </trkpt>
      <trkpt lat="47.29493" lon="6.18191">
        <ele>381</ele>
        <time>2024-07-31T10:11:35Z</time>
      </trkpt>
      <trkpt lat="47.29492" lon="6.18187">
        <ele>381.2</ele>
        <time>2024-07-31T10:11:36Z</time>
      </trkpt>
      <trkpt lat="47.29491" lon="6.18183">
        <ele>381.4</ele>
        <time>2024-07-31T10:11:37Z</time>
      </trkpt>
      <trkpt lat="47.2949" lon="6.18179">
        <ele>381.6</ele>
        <time>2024-07-31T10:11:38Z</time>
      </trkpt>
      <trkpt lat="47.29489" lon="6.18175">
        <ele>381.4</ele>
        <time>2024-07-31T10:11:39Z</time>
      </trkpt>
      <trkpt lat="47.29488" lon="6.18172">
        <ele>381.6</ele>
        <time>2024-07-31T10:11:40Z</time>
      </trkpt>
      <trkpt lat="47.29487" lon="6.18168">
        <ele>381.6</ele>
        <time>2024-07-31T10:11:41Z</time>
      </trkpt>
      <trkpt lat="47.29486" lon="6.18165">
        <ele>382</ele>
        <time>2024-07-31T10:11:42Z</time>
      </trkpt>
      <trkpt lat="47.29485" lon="6.18161">
        <ele>382.2</ele>
        <time>2024-07-31T10:11:43Z</time>
      </trkpt>
      <trkpt lat="47.29484" lon="6.18157">
        <ele>382.2</ele>
        <time>2024-07-31T10:11:44Z</time>
      </trkpt>
      <trkpt lat="47.29483" lon="6.18153">
        <ele>382.4</ele>
        <time>2024-07-31T10:11:45Z</time>
      </trkpt>
      <trkpt lat="47.29482" lon="6.1815">
        <ele>382.8</ele>
        <time>2024-07-31T10:11:46Z</time>
      </trkpt>
      <trkpt lat="47.29481" lon="6.18146">
        <ele>382.6</ele>
        <time>2024-07-31T10:11:47Z</time>
      </trkpt>
      <trkpt lat="47.29481" lon="6.18142">
        <ele>382.6</ele>
        <time>2024-07-31T10:11:48Z</time>
      </trkpt>
      <trkpt lat="47.2948" lon="6.18137">
        <ele>382.6</ele>
        <time>2024-07-31T10:11:49Z</time>
      </trkpt>
      <trkpt lat="47.29479" lon="6.18133">
        <ele>382.6</ele>
        <time>2024-07-31T10:11:50Z</time>
      </trkpt>
      <trkpt lat="47.29478" lon="6.18129">
        <ele>383</ele>
        <time>2024-07-31T10:11:51Z</time>
      </trkpt>
      <trkpt lat="47.29478" lon="6.18124">
        <ele>383.2</ele>
        <time>2024-07-31T10:11:52Z</time>
      </trkpt>
      <trkpt lat="47.29478" lon="6.1812">
        <ele>383.4</ele>
        <time>2024-07-31T10:11:53Z</time>
      </trkpt>
      <trkpt lat="47.29477" lon="6.18116">
        <ele>383.4</ele>
        <time>2024-07-31T10:11:54Z</time>
      </trkpt>
      <trkpt lat="47.29477" lon="6.18112">
        <ele>383.6</ele>
        <time>2024-07-31T10:11:55Z</time>
      </trkpt>
      <trkpt lat="47.29476" lon="6.18108">
        <ele>383.8</ele>
        <time>2024-07-31T10:11:56Z</time>
      </trkpt>
      <trkpt lat="47.29475" lon="6.18105">
        <ele>384</ele>
        <time>2024-07-31T10:11:57Z</time>
      </trkpt>
      <trkpt lat="47.29474" lon="6.18101">
        <ele>384.2</ele>
        <time>2024-07-31T10:11:58Z</time>
      </trkpt>
      <trkpt lat="47.29474" lon="6.18097">
        <ele>384.2</ele>
        <time>2024-07-31T10:11:59Z</time>
      </trkpt>
      <trkpt lat="47.29473" lon="6.18093">
        <ele>384.4</ele>
        <time>2024-07-31T10:12:00Z</time>
      </trkpt>
      <trkpt lat="47.29472" lon="6.1809">
        <ele>384.6</ele>
        <time>2024-07-31T10:12:01Z</time>
      </trkpt>
      <trkpt lat="47.29471" lon="6.18086">
        <ele>384.6</ele>
        <time>2024-07-31T10:12:02Z</time>
      </trkpt>
      <trkpt lat="47.29471" lon="6.18081">
        <ele>384.8</ele>
        <time>2024-07-31T10:12:03Z</time>
      </trkpt>
      <trkpt lat="47.2947" lon="6.18077">
        <ele>385</ele>
        <time>2024-07-31T10:12:04Z</time>
      </trkpt>
      <trkpt lat="47.2947" lon="6.18073">
        <ele>385</ele>
        <time>2024-07-31T10:12:05Z</time>
      </trkpt>
      <trkpt lat="47.29469" lon="6.18068">
        <ele>385.2</ele>
        <time>2024-07-31T10:12:06Z</time>
      </trkpt>
      <trkpt lat="47.29468" lon="6.18064">
        <ele>385.2</ele>
        <time>2024-07-31T10:12:07Z</time>
      </trkpt>
      <trkpt lat="47.29468" lon="6.18059">
        <ele>385.2</ele>
        <time>2024-07-31T10:12:08Z</time>
      </trkpt>
      <trkpt lat="47.29467" lon="6.18054">
        <ele>385.2</ele>
        <time>2024-07-31T10:12:09Z</time>
      </trkpt>
      <trkpt lat="47.29466" lon="6.18048">
        <ele>385.2</ele>
        <time>2024-07-31T10:12:10Z</time>
      </trkpt>
      <trkpt lat="47.29465" lon="6.18043">
        <ele>385.6</ele>
        <time>2024-07-31T10:12:11Z</time>
      </trkpt>
      <trkpt lat="47.29464" lon="6.18038">
        <ele>385.6</ele>
        <time>2024-07-31T10:12:12Z</time>
      </trkpt>
      <trkpt lat="47.29462" lon="6.18032">
        <ele>385.6</ele>
        <time>2024-07-31T10:12:13Z</time>
      </trkpt>
      <trkpt lat="47.29461" lon="6.18026">
        <ele>385.6</ele>
        <time>2024-07-31T10:12:14Z</time>
      </trkpt>
      <trkpt lat="47.2946" lon="6.18021">
        <ele>385.6</ele>
        <time>2024-07-31T10:12:15Z</time>
      </trkpt>
      <trkpt lat="47.29459" lon="6.18015">
        <ele>386</ele>
        <time>2024-07-31T10:12:16Z</time>
      </trkpt>
      <trkpt lat="47.29458" lon="6.18009">
        <ele>386</ele>
        <time>2024-07-31T10:12:17Z</time>
      </trkpt>
      <trkpt lat="47.29457" lon="6.18003">
        <ele>385.8</ele>
        <time>2024-07-31T10:12:18Z</time>
      </trkpt>
      <trkpt lat="47.29456" lon="6.17998">
        <ele>386</ele>
        <time>2024-07-31T10:12:19Z</time>
      </trkpt>
      <trkpt lat="47.29456" lon="6.17992">
        <ele>386.2</ele>
        <time>2024-07-31T10:12:20Z</time>
      </trkpt>
      <trkpt lat="47.29456" lon="6.17987">
        <ele>386</ele>
        <time>2024-07-31T10:12:21Z</time>
      </trkpt>
      <trkpt lat="47.29456" lon="6.17982">
        <ele>386.4</ele>
        <time>2024-07-31T10:12:22Z</time>
      </trkpt>
      <trkpt lat="47.29456" lon="6.17977">
        <ele>386.6</ele>
        <time>2024-07-31T10:12:23Z</time>
      </trkpt>
      <trkpt lat="47.29456" lon="6.17972">
        <ele>387</ele>
        <time>2024-07-31T10:12:24Z</time>
      </trkpt>
      <trkpt lat="47.29456" lon="6.17967">
        <ele>386.8</ele>
        <time>2024-07-31T10:12:25Z</time>
      </trkpt>
      <trkpt lat="47.29456" lon="6.17961">
        <ele>386.8</ele>
        <time>2024-07-31T10:12:26Z</time>
      </trkpt>
      <trkpt lat="47.29456" lon="6.17955">
        <ele>387.2</ele>
        <time>2024-07-31T10:12:27Z</time>
      </trkpt>
      <trkpt lat="47.29457" lon="6.17948">
        <ele>387.2</ele>
        <time>2024-07-31T10:12:28Z</time>
      </trkpt>
      <trkpt lat="47.29458" lon="6.17941">
        <ele>387.4</ele>
        <time>2024-07-31T10:12:29Z</time>
      </trkpt>
      <trkpt lat="47.29458" lon="6.17935">
        <ele>387.6</ele>
        <time>2024-07-31T10:12:30Z</time>
      </trkpt>
      <trkpt lat="47.29459" lon="6.17928">
        <ele>387.6</ele>
        <time>2024-07-31T10:12:31Z</time>
      </trkpt>
      <trkpt lat="47.29459" lon="6.17922">
        <ele>387.8</ele>
        <time>2024-07-31T10:12:32Z</time>
      </trkpt>
      <trkpt lat="47.29459" lon="6.17915">
        <ele>388.2</ele>
        <time>2024-07-31T10:12:33Z</time>
      </trkpt>
      <trkpt lat="47.29459" lon="6.1791">
        <ele>388</ele>
        <time>2024-07-31T10:12:34Z</time>
      </trkpt>
      <trkpt lat="47.29458" lon="6.17904">
        <ele>388</ele>
        <time>2024-07-31T10:12:35Z</time>
      </trkpt>
      <trkpt lat="47.29458" lon="6.17898">
        <ele>388.2</ele>
        <time>2024-07-31T10:12:36Z</time>
      </trkpt>
      <trkpt lat="47.29459" lon="6.17891">
        <ele>388</ele>
        <time>2024-07-31T10:12:37Z</time>
      </trkpt>
      <trkpt lat="47.29459" lon="6.17884">
        <ele>388.4</ele>
        <time>2024-07-31T10:12:38Z</time>
      </trkpt>
      <trkpt lat="47.2946" lon="6.17878">
        <ele>388.4</ele>
        <time>2024-07-31T10:12:39Z</time>
      </trkpt>
      <trkpt lat="47.29461" lon="6.17871">
        <ele>388.2</ele>
        <time>2024-07-31T10:12:40Z</time>
      </trkpt>
      <trkpt lat="47.29461" lon="6.17864">
        <ele>388</ele>
        <time>2024-07-31T10:12:41Z</time>
      </trkpt>
      <trkpt lat="47.29461" lon="6.17858">
        <ele>388</ele>
        <time>2024-07-31T10:12:42Z</time>
      </trkpt>
      <trkpt lat="47.29462" lon="6.17851">
        <ele>388</ele>
        <time>2024-07-31T10:12:43Z</time>
      </trkpt>
      <trkpt lat="47.29462" lon="6.17843">
        <ele>388</ele>
        <time>2024-07-31T10:12:44Z</time>
      </trkpt>
      <trkpt lat="47.29463" lon="6.17837">
        <ele>388</ele>
        <time>2024-07-31T10:12:45Z</time>
      </trkpt>
      <trkpt lat="47.29463" lon="6.1783">
        <ele>388</ele>
        <time>2024-07-31T10:12:46Z</time>
      </trkpt>
      <trkpt lat="47.29464" lon="6.17823">
        <ele>388.2</ele>
        <time>2024-07-31T10:12:47Z</time>
      </trkpt>
      <trkpt lat="47.29466" lon="6.17817">
        <ele>388.4</ele>
        <time>2024-07-31T10:12:48Z</time>
      </trkpt>
      <trkpt lat="47.29467" lon="6.17811">
        <ele>388.4</ele>
        <time>2024-07-31T10:12:49Z</time>
      </trkpt>
      <trkpt lat="47.29469" lon="6.17805">
        <ele>388.4</ele>
        <time>2024-07-31T10:12:50Z</time>
      </trkpt>
      <trkpt lat="47.2947" lon="6.17798">
        <ele>388.8</ele>
        <time>2024-07-31T10:12:51Z</time>
      </trkpt>
      <trkpt lat="47.29471" lon="6.17792">
        <ele>388.6</ele>
        <time>2024-07-31T10:12:52Z</time>
      </trkpt>
      <trkpt lat="47.29472" lon="6.17785">
        <ele>388.8</ele>
        <time>2024-07-31T10:12:53Z</time>
      </trkpt>
      <trkpt lat="47.29474" lon="6.17778">
        <ele>388.6</ele>
        <time>2024-07-31T10:12:54Z</time>
      </trkpt>
      <trkpt lat="47.29475" lon="6.17772">
        <ele>388.8</ele>
        <time>2024-07-31T10:12:55Z</time>
      </trkpt>
      <trkpt lat="47.29476" lon="6.17765">
        <ele>388.6</ele>
        <time>2024-07-31T10:12:56Z</time>
      </trkpt>
      <trkpt lat="47.29478" lon="6.17758">
        <ele>388.6</ele>
        <time>2024-07-31T10:12:57Z</time>
      </trkpt>
      <trkpt lat="47.29479" lon="6.17751">
        <ele>388.6</ele>
        <time>2024-07-31T10:12:58Z</time>
      </trkpt>
      <trkpt lat="47.2948" lon="6.17744">
        <ele>388.8</ele>
        <time>2024-07-31T10:12:59Z</time>
      </trkpt>
      <trkpt lat="47.29482" lon="6.17737">
        <ele>388.6</ele>
        <time>2024-07-31T10:13:00Z</time>
      </trkpt>
      <trkpt lat="47.29483" lon="6.17729">
        <ele>388.6</ele>
        <time>2024-07-31T10:13:01Z</time>
      </trkpt>
      <trkpt lat="47.29484" lon="6.17722">
        <ele>388.6</ele>
        <time>2024-07-31T10:13:02Z</time>
      </trkpt>
      <trkpt lat="47.29486" lon="6.17714">
        <ele>388.8</ele>
        <time>2024-07-31T10:13:03Z</time>
      </trkpt>
      <trkpt lat="47.29487" lon="6.17706">
        <ele>388.4</ele>
        <time>2024-07-31T10:13:04Z</time>
      </trkpt>
      <trkpt lat="47.29489" lon="6.17699">
        <ele>388.4</ele>
        <time>2024-07-31T10:13:05Z</time>
      </trkpt>
      <trkpt lat="47.2949" lon="6.17691">
        <ele>388.4</ele>
        <time>2024-07-31T10:13:06Z</time>
      </trkpt>
      <trkpt lat="47.29491" lon="6.17684">
        <ele>388.4</ele>
        <time>2024-07-31T10:13:07Z</time>
      </trkpt>
      <trkpt lat="47.29492" lon="6.17676">
        <ele>388.4</ele>
        <time>2024-07-31T10:13:08Z</time>
      </trkpt>
      <trkpt lat="47.29494" lon="6.17668">
        <ele>388.2</ele>
        <time>2024-07-31T10:13:09Z</time>
      </trkpt>
      <trkpt lat="47.29496" lon="6.1766">
        <ele>388.2</ele>
        <time>2024-07-31T10:13:10Z</time>
      </trkpt>
      <trkpt lat="47.29497" lon="6.17652">
        <ele>388.4</ele>
        <time>2024-07-31T10:13:11Z</time>
      </trkpt>
      <trkpt lat="47.29498" lon="6.17644">
        <ele>388</ele>
        <time>2024-07-31T10:13:12Z</time>
      </trkpt>
      <trkpt lat="47.29499" lon="6.17636">
        <ele>388</ele>
        <time>2024-07-31T10:13:13Z</time>
      </trkpt>
      <trkpt lat="47.295" lon="6.17628">
        <ele>388</ele>
        <time>2024-07-31T10:13:14Z</time>
      </trkpt>
      <trkpt lat="47.29501" lon="6.17619">
        <ele>387.8</ele>
        <time>2024-07-31T10:13:15Z</time>
      </trkpt>
      <trkpt lat="47.29501" lon="6.17611">
        <ele>387.8</ele>
        <time>2024-07-31T10:13:16Z</time>
      </trkpt>
      <trkpt lat="47.29501" lon="6.17601">
        <ele>387.6</ele>
        <time>2024-07-31T10:13:17Z</time>
      </trkpt>
      <trkpt lat="47.29501" lon="6.17592">
        <ele>387.6</ele>
        <time>2024-07-31T10:13:18Z</time>
      </trkpt>
      <trkpt lat="47.295" lon="6.17583">
        <ele>387.6</ele>
        <time>2024-07-31T10:13:19Z</time>
      </trkpt>
      <trkpt lat="47.29499" lon="6.17574">
        <ele>388</ele>
        <time>2024-07-31T10:13:20Z</time>
      </trkpt>
      <trkpt lat="47.29498" lon="6.17565">
        <ele>387.8</ele>
        <time>2024-07-31T10:13:21Z</time>
      </trkpt>
      <trkpt lat="47.29497" lon="6.17557">
        <ele>388.2</ele>
        <time>2024-07-31T10:13:22Z</time>
      </trkpt>
      <trkpt lat="47.29495" lon="6.17549">
        <ele>388.4</ele>
        <time>2024-07-31T10:13:23Z</time>
      </trkpt>
      <trkpt lat="47.29495" lon="6.17542">
        <ele>388.8</ele>
        <time>2024-07-31T10:13:24Z</time>
      </trkpt>
      <trkpt lat="47.29494" lon="6.17534">
        <ele>389.4</ele>
        <time>2024-07-31T10:13:25Z</time>
      </trkpt>
      <trkpt lat="47.29493" lon="6.17527">
        <ele>389.6</ele>
        <time>2024-07-31T10:13:26Z</time>
      </trkpt>
      <trkpt lat="47.29493" lon="6.1752">
        <ele>389.8</ele>
        <time>2024-07-31T10:13:27Z</time>
      </trkpt>
      <trkpt lat="47.29493" lon="6.17513">
        <ele>390</ele>
        <time>2024-07-31T10:13:28Z</time>
      </trkpt>
      <trkpt lat="47.29492" lon="6.17506">
        <ele>390</ele>
        <time>2024-07-31T10:13:29Z</time>
      </trkpt>
      <trkpt lat="47.29492" lon="6.175">
        <ele>390.6</ele>
        <time>2024-07-31T10:13:30Z</time>
      </trkpt>
      <trkpt lat="47.29492" lon="6.17492">
        <ele>390.8</ele>
        <time>2024-07-31T10:13:31Z</time>
      </trkpt>
      <trkpt lat="47.29492" lon="6.17485">
        <ele>391</ele>
        <time>2024-07-31T10:13:32Z</time>
      </trkpt>
      <trkpt lat="47.29493" lon="6.17478">
        <ele>390.8</ele>
        <time>2024-07-31T10:13:33Z</time>
      </trkpt>
      <trkpt lat="47.29493" lon="6.1747">
        <ele>391.2</ele>
        <time>2024-07-31T10:13:34Z</time>
      </trkpt>
      <trkpt lat="47.29494" lon="6.17463">
        <ele>391.6</ele>
        <time>2024-07-31T10:13:35Z</time>
      </trkpt>
      <trkpt lat="47.29495" lon="6.17455">
        <ele>391.6</ele>
        <time>2024-07-31T10:13:36Z</time>
      </trkpt>
      <trkpt lat="47.29497" lon="6.17448">
        <ele>392</ele>
        <time>2024-07-31T10:13:37Z</time>
      </trkpt>
      <trkpt lat="47.29499" lon="6.17442">
        <ele>392.4</ele>
        <time>2024-07-31T10:13:38Z</time>
      </trkpt>
      <trkpt lat="47.29501" lon="6.17436">
        <ele>393</ele>
        <time>2024-07-31T10:13:39Z</time>
      </trkpt>
      <trkpt lat="47.29504" lon="6.1743">
        <ele>393.4</ele>
        <time>2024-07-31T10:13:40Z</time>
      </trkpt>
      <trkpt lat="47.29506" lon="6.17424">
        <ele>393.4</ele>
        <time>2024-07-31T10:13:41Z</time>
      </trkpt>
      <trkpt lat="47.29509" lon="6.17419">
        <ele>393.6</ele>
        <time>2024-07-31T10:13:42Z</time>
      </trkpt>
      <trkpt lat="47.29512" lon="6.17414">
        <ele>394</ele>
        <time>2024-07-31T10:13:43Z</time>
      </trkpt>
      <trkpt lat="47.29515" lon="6.17408">
        <ele>394.4</ele>
        <time>2024-07-31T10:13:44Z</time>
      </trkpt>
      <trkpt lat="47.29517" lon="6.17404">
        <ele>394.8</ele>
        <time>2024-07-31T10:13:45Z</time>
      </trkpt>
      <trkpt lat="47.2952" lon="6.17399">
        <ele>394.8</ele>
        <time>2024-07-31T10:13:46Z</time>
      </trkpt>
      <trkpt lat="47.29523" lon="6.17393">
        <ele>395.2</ele>
        <time>2024-07-31T10:13:47Z</time>
      </trkpt>
      <trkpt lat="47.29525" lon="6.17387">
        <ele>395.4</ele>
        <time>2024-07-31T10:13:48Z</time>
      </trkpt>
      <trkpt lat="47.29528" lon="6.17381">
        <ele>395.6</ele>
        <time>2024-07-31T10:13:49Z</time>
      </trkpt>
      <trkpt lat="47.2953" lon="6.17375">
        <ele>395.8</ele>
        <time>2024-07-31T10:13:50Z</time>
      </trkpt>
      <trkpt lat="47.29533" lon="6.17369">
        <ele>395.8</ele>
        <time>2024-07-31T10:13:51Z</time>
      </trkpt>
      <trkpt lat="47.29536" lon="6.17363">
        <ele>396</ele>
        <time>2024-07-31T10:13:52Z</time>
      </trkpt>
      <trkpt lat="47.29538" lon="6.17357">
        <ele>396</ele>
        <time>2024-07-31T10:13:53Z</time>
      </trkpt>
      <trkpt lat="47.29541" lon="6.17352">
        <ele>396.4</ele>
        <time>2024-07-31T10:13:54Z</time>
      </trkpt>
      <trkpt lat="47.29544" lon="6.17348">
        <ele>396.6</ele>
        <time>2024-07-31T10:13:55Z</time>
      </trkpt>
      <trkpt lat="47.29547" lon="6.17344">
        <ele>396.6</ele>
        <time>2024-07-31T10:13:56Z</time>
      </trkpt>
      <trkpt lat="47.2955" lon="6.17339">
        <ele>396.6</ele>
        <time>2024-07-31T10:13:57Z</time>
      </trkpt>
      <trkpt lat="47.29553" lon="6.17336">
        <ele>396.4</ele>
        <time>2024-07-31T10:13:58Z</time>
      </trkpt>
      <trkpt lat="47.29556" lon="6.17332">
        <ele>396.8</ele>
        <time>2024-07-31T10:13:59Z</time>
      </trkpt>
      <trkpt lat="47.29559" lon="6.17329">
        <ele>396.8</ele>
        <time>2024-07-31T10:14:00Z</time>
      </trkpt>
      <trkpt lat="47.29562" lon="6.17325">
        <ele>397.2</ele>
        <time>2024-07-31T10:14:01Z</time>
      </trkpt>
      <trkpt lat="47.29565" lon="6.17322">
        <ele>397.8</ele>
        <time>2024-07-31T10:14:02Z</time>
      </trkpt>
      <trkpt lat="47.29568" lon="6.1732">
        <ele>397.8</ele>
        <time>2024-07-31T10:14:03Z</time>
      </trkpt>
      <trkpt lat="47.2957" lon="6.17318">
        <ele>398.2</ele>
        <time>2024-07-31T10:14:04Z</time>
      </trkpt>
      <trkpt lat="47.29572" lon="6.17316">
        <ele>398.6</ele>
        <time>2024-07-31T10:14:05Z</time>
      </trkpt>
      <trkpt lat="47.29574" lon="6.17315">
        <ele>398.6</ele>
        <time>2024-07-31T10:14:06Z</time>
      </trkpt>
      <trkpt lat="47.29576" lon="6.17313">
        <ele>399.2</ele>
        <time>2024-07-31T10:14:07Z</time>
      </trkpt>
      <trkpt lat="47.29578" lon="6.17312">
        <ele>399</ele>
        <time>2024-07-31T10:14:08Z</time>
      </trkpt>
      <trkpt lat="47.2958" lon="6.17309">
        <ele>399.4</ele>
        <time>2024-07-31T10:14:09Z</time>
      </trkpt>
      <trkpt lat="47.29582" lon="6.17308">
        <ele>399.6</ele>
        <time>2024-07-31T10:14:10Z</time>
      </trkpt>
      <trkpt lat="47.29584" lon="6.17306">
        <ele>399.8</ele>
        <time>2024-07-31T10:14:11Z</time>
      </trkpt>
      <trkpt lat="47.29586" lon="6.17305">
        <ele>400.2</ele>
        <time>2024-07-31T10:14:12Z</time>
      </trkpt>
      <trkpt lat="47.29589" lon="6.17304">
        <ele>400.2</ele>
        <time>2024-07-31T10:14:13Z</time>
      </trkpt>
      <trkpt lat="47.29591" lon="6.17304">
        <ele>400.2</ele>
        <time>2024-07-31T10:14:14Z</time>
      </trkpt>
      <trkpt lat="47.29593" lon="6.17303">
        <ele>399.8</ele>
        <time>2024-07-31T10:14:15Z</time>
      </trkpt>
      <trkpt lat="47.29595" lon="6.17302">
        <ele>399.6</ele>
        <time>2024-07-31T10:14:16Z</time>
      </trkpt>
      <trkpt lat="47.29597" lon="6.17299">
        <ele>399.6</ele>
        <time>2024-07-31T10:14:17Z</time>
      </trkpt>
      <trkpt lat="47.296" lon="6.17297">
        <ele>399.4</ele>
        <time>2024-07-31T10:14:18Z</time>
      </trkpt>
      <trkpt lat="47.29602" lon="6.17295">
        <ele>399.2</ele>
        <time>2024-07-31T10:14:19Z</time>
      </trkpt>
      <trkpt lat="47.29604" lon="6.17293">
        <ele>399.2</ele>
        <time>2024-07-31T10:14:20Z</time>
      </trkpt>
      <trkpt lat="47.29606" lon="6.17291">
        <ele>399.4</ele>
        <time>2024-07-31T10:14:21Z</time>
      </trkpt>
      <trkpt lat="47.29609" lon="6.17288">
        <ele>398.8</ele>
        <time>2024-07-31T10:14:22Z</time>
      </trkpt>
      <trkpt lat="47.29612" lon="6.17284">
        <ele>398.6</ele>
        <time>2024-07-31T10:14:23Z</time>
      </trkpt>
      <trkpt lat="47.29616" lon="6.1728">
        <ele>397.8</ele>
        <time>2024-07-31T10:14:24Z</time>
      </trkpt>
      <trkpt lat="47.2962" lon="6.17275">
        <ele>397.8</ele>
        <time>2024-07-31T10:14:25Z</time>
      </trkpt>
      <trkpt lat="47.29625" lon="6.17271">
        <ele>397.6</ele>
        <time>2024-07-31T10:14:26Z</time>
      </trkpt>
      <trkpt lat="47.2963" lon="6.17267">
        <ele>397.2</ele>
        <time>2024-07-31T10:14:27Z</time>
      </trkpt>
      <trkpt lat="47.29635" lon="6.17262">
        <ele>397</ele>
        <time>2024-07-31T10:14:28Z</time>
      </trkpt>
      <trkpt lat="47.29641" lon="6.17257">
        <ele>396.6</ele>
        <time>2024-07-31T10:14:29Z</time>
      </trkpt>
      <trkpt lat="47.29646" lon="6.17253">
        <ele>396.4</ele>
        <time>2024-07-31T10:14:30Z</time>
      </trkpt>
      <trkpt lat="47.29652" lon="6.17248">
        <ele>396</ele>
        <time>2024-07-31T10:14:31Z</time>
      </trkpt>
      <trkpt lat="47.29659" lon="6.17242">
        <ele>395.6</ele>
        <time>2024-07-31T10:14:32Z</time>
      </trkpt>
      <trkpt lat="47.29664" lon="6.17237">
        <ele>395.6</ele>
        <time>2024-07-31T10:14:33Z</time>
      </trkpt>
      <trkpt lat="47.2967" lon="6.17232">
        <ele>395</ele>
        <time>2024-07-31T10:14:34Z</time>
      </trkpt>
      <trkpt lat="47.29675" lon="6.17227">
        <ele>394.8</ele>
        <time>2024-07-31T10:14:35Z</time>
      </trkpt>
      <trkpt lat="47.2968" lon="6.17222">
        <ele>394.2</ele>
        <time>2024-07-31T10:14:36Z</time>
      </trkpt>
      <trkpt lat="47.29685" lon="6.17217">
        <ele>394</ele>
        <time>2024-07-31T10:14:37Z</time>
      </trkpt>
      <trkpt lat="47.2969" lon="6.17213">
        <ele>393.4</ele>
        <time>2024-07-31T10:14:38Z</time>
      </trkpt>
      <trkpt lat="47.29695" lon="6.17208">
        <ele>393.6</ele>
        <time>2024-07-31T10:14:39Z</time>
      </trkpt>
      <trkpt lat="47.297" lon="6.17203">
        <ele>393.6</ele>
        <time>2024-07-31T10:14:40Z</time>
      </trkpt>
      <trkpt lat="47.29704" lon="6.17198">
        <ele>393.4</ele>
        <time>2024-07-31T10:14:41Z</time>
      </trkpt>
      <trkpt lat="47.29709" lon="6.17194">
        <ele>393</ele>
        <time>2024-07-31T10:14:42Z</time>
      </trkpt>
      <trkpt lat="47.29714" lon="6.17189">
        <ele>392.6</ele>
        <time>2024-07-31T10:14:43Z</time>
      </trkpt>
      <trkpt lat="47.29719" lon="6.17184">
        <ele>392.4</ele>
        <time>2024-07-31T10:14:44Z</time>
      </trkpt>
      <trkpt lat="47.29724" lon="6.1718">
        <ele>392.4</ele>
        <time>2024-07-31T10:14:45Z</time>
      </trkpt>
      <trkpt lat="47.29729" lon="6.17176">
        <ele>392</ele>
        <time>2024-07-31T10:14:46Z</time>
      </trkpt>
      <trkpt lat="47.29734" lon="6.17171">
        <ele>391.6</ele>
        <time>2024-07-31T10:14:47Z</time>
      </trkpt>
      <trkpt lat="47.29739" lon="6.17166">
        <ele>391.6</ele>
        <time>2024-07-31T10:14:48Z</time>
      </trkpt>
      <trkpt lat="47.29744" lon="6.17162">
        <ele>391.6</ele>
        <time>2024-07-31T10:14:49Z</time>
      </trkpt>
      <trkpt lat="47.29749" lon="6.17157">
        <ele>390.6</ele>
        <time>2024-07-31T10:14:50Z</time>
      </trkpt>
      <trkpt lat="47.29753" lon="6.17153">
        <ele>390.4</ele>
        <time>2024-07-31T10:14:51Z</time>
      </trkpt>
      <trkpt lat="47.29755" lon="6.17151">
        <ele>390.2</ele>
        <time>2024-07-31T10:14:52Z</time>
      </trkpt>
      <trkpt lat="47.29756" lon="6.17149">
        <ele>390.2</ele>
        <time>2024-07-31T10:14:53Z</time>
      </trkpt>
      <trkpt lat="47.29757" lon="6.17148">
        <ele>390.4</ele>
        <time>2024-07-31T10:14:54Z</time>
      </trkpt>
      <trkpt lat="47.29759" lon="6.17147">
        <ele>390.2</ele>
        <time>2024-07-31T10:14:55Z</time>
      </trkpt>
      <trkpt lat="47.2976" lon="6.17145">
        <ele>390</ele>
        <time>2024-07-31T10:14:56Z</time>
      </trkpt>
      <trkpt lat="47.29762" lon="6.17144">
        <ele>390.2</ele>
        <time>2024-07-31T10:14:57Z</time>
      </trkpt>
      <trkpt lat="47.29764" lon="6.17142">
        <ele>390</ele>
        <time>2024-07-31T10:14:58Z</time>
      </trkpt>
      <trkpt lat="47.29766" lon="6.17141">
        <ele>389.8</ele>
        <time>2024-07-31T10:14:59Z</time>
      </trkpt>
      <trkpt lat="47.29768" lon="6.17139">
        <ele>389.6</ele>
        <time>2024-07-31T10:15:00Z</time>
      </trkpt>
      <trkpt lat="47.2977" lon="6.17138">
        <ele>389.4</ele>
        <time>2024-07-31T10:15:01Z</time>
      </trkpt>
      <trkpt lat="47.29772" lon="6.17137">
        <ele>389.2</ele>
        <time>2024-07-31T10:15:02Z</time>
      </trkpt>
      <trkpt lat="47.29775" lon="6.17135">
        <ele>388.8</ele>
        <time>2024-07-31T10:15:03Z</time>
      </trkpt>
      <trkpt lat="47.29777" lon="6.17133">
        <ele>388.6</ele>
        <time>2024-07-31T10:15:04Z</time>
      </trkpt>
      <trkpt lat="47.29779" lon="6.17131">
        <ele>388.4</ele>
        <time>2024-07-31T10:15:05Z</time>
      </trkpt>
      <trkpt lat="47.2978" lon="6.17129">
        <ele>388.4</ele>
        <time>2024-07-31T10:15:06Z</time>
      </trkpt>
      <trkpt lat="47.29782" lon="6.17127">
        <ele>388.6</ele>
        <time>2024-07-31T10:15:07Z</time>
      </trkpt>
      <trkpt lat="47.29784" lon="6.17125">
        <ele>388.4</ele>
        <time>2024-07-31T10:15:08Z</time>
      </trkpt>
      <trkpt lat="47.29787" lon="6.17124">
        <ele>388.2</ele>
        <time>2024-07-31T10:15:09Z</time>
      </trkpt>
      <trkpt lat="47.29789" lon="6.17122">
        <ele>388.2</ele>
        <time>2024-07-31T10:15:10Z</time>
      </trkpt>
      <trkpt lat="47.29792" lon="6.1712">
        <ele>387.8</ele>
        <time>2024-07-31T10:15:11Z</time>
      </trkpt>
      <trkpt lat="47.29795" lon="6.17117">
        <ele>387.2</ele>
        <time>2024-07-31T10:15:12Z</time>
      </trkpt>
      <trkpt lat="47.29799" lon="6.17113">
        <ele>386.8</ele>
        <time>2024-07-31T10:15:13Z</time>
      </trkpt>
      <trkpt lat="47.29802" lon="6.17109">
        <ele>386.4</ele>
        <time>2024-07-31T10:15:14Z</time>
      </trkpt>
      <trkpt lat="47.29806" lon="6.17105">
        <ele>386.2</ele>
        <time>2024-07-31T10:15:15Z</time>
      </trkpt>
      <trkpt lat="47.29808" lon="6.171">
        <ele>385.4</ele>
        <time>2024-07-31T10:15:16Z</time>
      </trkpt>
      <trkpt lat="47.2981" lon="6.17095">
        <ele>385</ele>
        <time>2024-07-31T10:15:17Z</time>
      </trkpt>
      <trkpt lat="47.29811" lon="6.17089">
        <ele>384.8</ele>
        <time>2024-07-31T10:15:18Z</time>
      </trkpt>
      <trkpt lat="47.29811" lon="6.17084">
        <ele>384.4</ele>
        <time>2024-07-31T10:15:19Z</time>
      </trkpt>
      <trkpt lat="47.2981" lon="6.1708">
        <ele>384.4</ele>
        <time>2024-07-31T10:15:20Z</time>
      </trkpt>
      <trkpt lat="47.29809" lon="6.17076">
        <ele>384.6</ele>
        <time>2024-07-31T10:15:21Z</time>
      </trkpt>
      <trkpt lat="47.29808" lon="6.17072">
        <ele>384.4</ele>
        <time>2024-07-31T10:15:22Z</time>
      </trkpt>
      <trkpt lat="47.29806" lon="6.17067">
        <ele>384.4</ele>
        <time>2024-07-31T10:15:23Z</time>
      </trkpt>
      <trkpt lat="47.29804" lon="6.17063">
        <ele>384.4</ele>
        <time>2024-07-31T10:15:24Z</time>
      </trkpt>
      <trkpt lat="47.29803" lon="6.1706">
        <ele>384.4</ele>
        <time>2024-07-31T10:15:25Z</time>
      </trkpt>
      <trkpt lat="47.29804" lon="6.17058">
        <ele>383.8</ele>
        <time>2024-07-31T10:15:26Z</time>
      </trkpt>
      <trkpt lat="47.29805" lon="6.17056">
        <ele>383.4</ele>
        <time>2024-07-31T10:15:27Z</time>
      </trkpt>
      <trkpt lat="47.29806" lon="6.17055">
        <ele>383.2</ele>
        <time>2024-07-31T10:15:28Z</time>
      </trkpt>
      <trkpt lat="47.29809" lon="6.17055">
        <ele>383</ele>
        <time>2024-07-31T10:15:29Z</time>
      </trkpt>
      <trkpt lat="47.29811" lon="6.17056">
        <ele>382.2</ele>
        <time>2024-07-31T10:15:30Z</time>
      </trkpt>
      <trkpt lat="47.29815" lon="6.17058">
        <ele>381.2</ele>
        <time>2024-07-31T10:15:31Z</time>
      </trkpt>
      <trkpt lat="47.29819" lon="6.1706">
        <ele>381.2</ele>
        <time>2024-07-31T10:15:32Z</time>
      </trkpt>
      <trkpt lat="47.29823" lon="6.17062">
        <ele>380.4</ele>
        <time>2024-07-31T10:15:33Z</time>
      </trkpt>
      <trkpt lat="47.29828" lon="6.17064">
        <ele>379.4</ele>
        <time>2024-07-31T10:15:34Z</time>
      </trkpt>
      <trkpt lat="47.29832" lon="6.17066">
        <ele>379.2</ele>
        <time>2024-07-31T10:15:35Z</time>
      </trkpt>
      <trkpt lat="47.29837" lon="6.17068">
        <ele>378.8</ele>
        <time>2024-07-31T10:15:36Z</time>
      </trkpt>
      <trkpt lat="47.29842" lon="6.1707">
        <ele>377.2</ele>
        <time>2024-07-31T10:15:37Z</time>
      </trkpt>
      <trkpt lat="47.29847" lon="6.17072">
        <ele>376.6</ele>
        <time>2024-07-31T10:15:38Z</time>
      </trkpt>
      <trkpt lat="47.29852" lon="6.17075">
        <ele>375.6</ele>
        <time>2024-07-31T10:15:39Z</time>
      </trkpt>
      <trkpt lat="47.29858" lon="6.17079">
        <ele>375.2</ele>
        <time>2024-07-31T10:15:40Z</time>
      </trkpt>
      <trkpt lat="47.29865" lon="6.17084">
        <ele>374</ele>
        <time>2024-07-31T10:15:41Z</time>
      </trkpt>
      <trkpt lat="47.29871" lon="6.17088">
        <ele>373.2</ele>
        <time>2024-07-31T10:15:42Z</time>
      </trkpt>
      <trkpt lat="47.29878" lon="6.17092">
        <ele>372.4</ele>
        <time>2024-07-31T10:15:43Z</time>
      </trkpt>
      <trkpt lat="47.29884" lon="6.17097">
        <ele>370.8</ele>
        <time>2024-07-31T10:15:44Z</time>
      </trkpt>
      <trkpt lat="47.29891" lon="6.17103">
        <ele>370</ele>
        <time>2024-07-31T10:15:45Z</time>
      </trkpt>
      <trkpt lat="47.29897" lon="6.17108">
        <ele>368.4</ele>
        <time>2024-07-31T10:15:46Z</time>
      </trkpt>
      <trkpt lat="47.29903" lon="6.17113">
        <ele>367.6</ele>
        <time>2024-07-31T10:15:47Z</time>
      </trkpt>
      <trkpt lat="47.29909" lon="6.17119">
        <ele>366.6</ele>
        <time>2024-07-31T10:15:48Z</time>
      </trkpt>
      <trkpt lat="47.29914" lon="6.17124">
        <ele>365.4</ele>
        <time>2024-07-31T10:15:49Z</time>
      </trkpt>
      <trkpt lat="47.29919" lon="6.1713">
        <ele>364.6</ele>
        <time>2024-07-31T10:15:50Z</time>
      </trkpt>
      <trkpt lat="47.29925" lon="6.17136">
        <ele>364.2</ele>
        <time>2024-07-31T10:15:51Z</time>
      </trkpt>
      <trkpt lat="47.2993" lon="6.17141">
        <ele>362.4</ele>
        <time>2024-07-31T10:15:52Z</time>
      </trkpt>
      <trkpt lat="47.29935" lon="6.17147">
        <ele>362</ele>
        <time>2024-07-31T10:15:53Z</time>
      </trkpt>
      <trkpt lat="47.29939" lon="6.17153">
        <ele>362</ele>
        <time>2024-07-31T10:15:54Z</time>
      </trkpt>
      <trkpt lat="47.29942" lon="6.17158">
        <ele>360.6</ele>
        <time>2024-07-31T10:15:55Z</time>
      </trkpt>
      <trkpt lat="47.29945" lon="6.17161">
        <ele>359.4</ele>
        <time>2024-07-31T10:15:56Z</time>
      </trkpt>
      <trkpt lat="47.29947" lon="6.17164">
        <ele>358.6</ele>
        <time>2024-07-31T10:15:57Z</time>
      </trkpt>
      <trkpt lat="47.29949" lon="6.17165">
        <ele>358</ele>
        <time>2024-07-31T10:15:58Z</time>
      </trkpt>
      <trkpt lat="47.29951" lon="6.17165">
        <ele>357.8</ele>
        <time>2024-07-31T10:15:59Z</time>
      </trkpt>
      <trkpt lat="47.29952" lon="6.17162">
        <ele>357.4</ele>
        <time>2024-07-31T10:16:00Z</time>
      </trkpt>
      <trkpt lat="47.29953" lon="6.17159">
        <ele>356.8</ele>
        <time>2024-07-31T10:16:01Z</time>
      </trkpt>
      <trkpt lat="47.29953" lon="6.17155">
        <ele>356.8</ele>
        <time>2024-07-31T10:16:02Z</time>
      </trkpt>
      <trkpt lat="47.29953" lon="6.17151">
        <ele>355.8</ele>
        <time>2024-07-31T10:16:03Z</time>
      </trkpt>
      <trkpt lat="47.29952" lon="6.17145">
        <ele>355.4</ele>
        <time>2024-07-31T10:16:04Z</time>
      </trkpt>
      <trkpt lat="47.29949" lon="6.17137">
        <ele>355.4</ele>
        <time>2024-07-31T10:16:05Z</time>
      </trkpt>
      <trkpt lat="47.29946" lon="6.17127">
        <ele>354.4</ele>
        <time>2024-07-31T10:16:06Z</time>
      </trkpt>
      <trkpt lat="47.29944" lon="6.17117">
        <ele>353.6</ele>
        <time>2024-07-31T10:16:07Z</time>
      </trkpt>
      <trkpt lat="47.29941" lon="6.17105">
        <ele>352.8</ele>
        <time>2024-07-31T10:16:08Z</time>
      </trkpt>
      <trkpt lat="47.29938" lon="6.17094">
        <ele>352</ele>
        <time>2024-07-31T10:16:09Z</time>
      </trkpt>
      <trkpt lat="47.29935" lon="6.17083">
        <ele>351.4</ele>
        <time>2024-07-31T10:16:10Z</time>
      </trkpt>
      <trkpt lat="47.29931" lon="6.17072">
        <ele>350.6</ele>
        <time>2024-07-31T10:16:11Z</time>
      </trkpt>
      <trkpt lat="47.29928" lon="6.1706">
        <ele>350</ele>
        <time>2024-07-31T10:16:12Z</time>
      </trkpt>
      <trkpt lat="47.29924" lon="6.17048">
        <ele>349.4</ele>
        <time>2024-07-31T10:16:13Z</time>
      </trkpt>
      <trkpt lat="47.29921" lon="6.17036">
        <ele>348.8</ele>
        <time>2024-07-31T10:16:14Z</time>
      </trkpt>
      <trkpt lat="47.29916" lon="6.17023">
        <ele>348</ele>
        <time>2024-07-31T10:16:15Z</time>
      </trkpt>
      <trkpt lat="47.29911" lon="6.17009">
        <ele>348</ele>
        <time>2024-07-31T10:16:16Z</time>
      </trkpt>
      <trkpt lat="47.29907" lon="6.16995">
        <ele>347</ele>
        <time>2024-07-31T10:16:17Z</time>
      </trkpt>
      <trkpt lat="47.29903" lon="6.16981">
        <ele>346.2</ele>
        <time>2024-07-31T10:16:18Z</time>
      </trkpt>
      <trkpt lat="47.29899" lon="6.16967">
        <ele>345.6</ele>
        <time>2024-07-31T10:16:19Z</time>
      </trkpt>
      <trkpt lat="47.29896" lon="6.16953">
        <ele>344.6</ele>
        <time>2024-07-31T10:16:20Z</time>
      </trkpt>
      <trkpt lat="47.29892" lon="6.16939">
        <ele>344</ele>
        <time>2024-07-31T10:16:21Z</time>
      </trkpt>
      <trkpt lat="47.29888" lon="6.16925">
        <ele>343</ele>
        <time>2024-07-31T10:16:22Z</time>
      </trkpt>
      <trkpt lat="47.29884" lon="6.1691">
        <ele>342</ele>
        <time>2024-07-31T10:16:23Z</time>
      </trkpt>
      <trkpt lat="47.2988" lon="6.16896">
        <ele>341.6</ele>
        <time>2024-07-31T10:16:24Z</time>
      </trkpt>
      <trkpt lat="47.29875" lon="6.16882">
        <ele>341</ele>
        <time>2024-07-31T10:16:25Z</time>
      </trkpt>
      <trkpt lat="47.2987" lon="6.16868">
        <ele>339.8</ele>
        <time>2024-07-31T10:16:26Z</time>
      </trkpt>
      <trkpt lat="47.29867" lon="6.16853">
        <ele>338.8</ele>
        <time>2024-07-31T10:16:27Z</time>
      </trkpt>
      <trkpt lat="47.29864" lon="6.16838">
        <ele>338.4</ele>
        <time>2024-07-31T10:16:28Z</time>
      </trkpt>
      <trkpt lat="47.2986" lon="6.16823">
        <ele>336.6</ele>
        <time>2024-07-31T10:16:29Z</time>
      </trkpt>
      <trkpt lat="47.29857" lon="6.16809">
        <ele>336</ele>
        <time>2024-07-31T10:16:30Z</time>
      </trkpt>
      <trkpt lat="47.29853" lon="6.16795">
        <ele>334.8</ele>
        <time>2024-07-31T10:16:31Z</time>
      </trkpt>
      <trkpt lat="47.29849" lon="6.1678">
        <ele>334</ele>
        <time>2024-07-31T10:16:32Z</time>
      </trkpt>
      <trkpt lat="47.29845" lon="6.16765">
        <ele>333.2</ele>
        <time>2024-07-31T10:16:33Z</time>
      </trkpt>
      <trkpt lat="47.29841" lon="6.1675">
        <ele>332</ele>
        <time>2024-07-31T10:16:34Z</time>
      </trkpt>
      <trkpt lat="47.29836" lon="6.16735">
        <ele>330.8</ele>
        <time>2024-07-31T10:16:35Z</time>
      </trkpt>
      <trkpt lat="47.29831" lon="6.1672">
        <ele>329.6</ele>
        <time>2024-07-31T10:16:36Z</time>
      </trkpt>
      <trkpt lat="47.29826" lon="6.16706">
        <ele>328.8</ele>
        <time>2024-07-31T10:16:37Z</time>
      </trkpt>
      <trkpt lat="47.29821" lon="6.16691">
        <ele>328.8</ele>
        <time>2024-07-31T10:16:38Z</time>
      </trkpt>
      <trkpt lat="47.29817" lon="6.16676">
        <ele>327.2</ele>
        <time>2024-07-31T10:16:39Z</time>
      </trkpt>
      <trkpt lat="47.29812" lon="6.16661">
        <ele>327.2</ele>
        <time>2024-07-31T10:16:40Z</time>
      </trkpt>
      <trkpt lat="47.29807" lon="6.16645">
        <ele>326</ele>
        <time>2024-07-31T10:16:41Z</time>
      </trkpt>
      <trkpt lat="47.29802" lon="6.1663">
        <ele>325</ele>
        <time>2024-07-31T10:16:42Z</time>
      </trkpt>
      <trkpt lat="47.29798" lon="6.16614">
        <ele>324.2</ele>
        <time>2024-07-31T10:16:43Z</time>
      </trkpt>
      <trkpt lat="47.29793" lon="6.16599">
        <ele>322.4</ele>
        <time>2024-07-31T10:16:44Z</time>
      </trkpt>
      <trkpt lat="47.29788" lon="6.16583">
        <ele>320.8</ele>
        <time>2024-07-31T10:16:45Z</time>
      </trkpt>
      <trkpt lat="47.29783" lon="6.16568">
        <ele>320.6</ele>
        <time>2024-07-31T10:16:46Z</time>
      </trkpt>
      <trkpt lat="47.29777" lon="6.16553">
        <ele>318.6</ele>
        <time>2024-07-31T10:16:47Z</time>
      </trkpt>
      <trkpt lat="47.29771" lon="6.16538">
        <ele>317.4</ele>
        <time>2024-07-31T10:16:48Z</time>
      </trkpt>
      <trkpt lat="47.29765" lon="6.16523">
        <ele>316.6</ele>
        <time>2024-07-31T10:16:49Z</time>
      </trkpt>
      <trkpt lat="47.2976" lon="6.1651">
        <ele>315</ele>
        <time>2024-07-31T10:16:50Z</time>
      </trkpt>
      <trkpt lat="47.29757" lon="6.16498">
        <ele>313.4</ele>
        <time>2024-07-31T10:16:51Z</time>
      </trkpt>
      <trkpt lat="47.29754" lon="6.1649">
        <ele>312.8</ele>
        <time>2024-07-31T10:16:52Z</time>
      </trkpt>
      <trkpt lat="47.29754" lon="6.1648">
        <ele>312</ele>
        <time>2024-07-31T10:16:53Z</time>
      </trkpt>
      <trkpt lat="47.29753" lon="6.16473">
        <ele>311.2</ele>
        <time>2024-07-31T10:16:54Z</time>
      </trkpt>
      <trkpt lat="47.29754" lon="6.16467">
        <ele>311.2</ele>
        <time>2024-07-31T10:16:55Z</time>
      </trkpt>
      <trkpt lat="47.29756" lon="6.16461">
        <ele>311.2</ele>
        <time>2024-07-31T10:16:56Z</time>
      </trkpt>
      <trkpt lat="47.29759" lon="6.16457">
        <ele>310.8</ele>
        <time>2024-07-31T10:16:57Z</time>
      </trkpt>
      <trkpt lat="47.29762" lon="6.16453">
        <ele>310.6</ele>
        <time>2024-07-31T10:16:58Z</time>
      </trkpt>
      <trkpt lat="47.29764" lon="6.16449">
        <ele>310.4</ele>
        <time>2024-07-31T10:16:59Z</time>
      </trkpt>
      <trkpt lat="47.29766" lon="6.16444">
        <ele>310</ele>
        <time>2024-07-31T10:17:00Z</time>
      </trkpt>
      <trkpt lat="47.29767" lon="6.16439">
        <ele>310</ele>
        <time>2024-07-31T10:17:01Z</time>
      </trkpt>
      <trkpt lat="47.29767" lon="6.16434">
        <ele>310</ele>
        <time>2024-07-31T10:17:02Z</time>
      </trkpt>
      <trkpt lat="47.29767" lon="6.16428">
        <ele>310</ele>
        <time>2024-07-31T10:17:03Z</time>
      </trkpt>
      <trkpt lat="47.29767" lon="6.16421">
        <ele>309.2</ele>
        <time>2024-07-31T10:17:04Z</time>
      </trkpt>
      <trkpt lat="47.29765" lon="6.16414">
        <ele>309.6</ele>
        <time>2024-07-31T10:17:05Z</time>
      </trkpt>
      <trkpt lat="47.29764" lon="6.16406">
        <ele>308.8</ele>
        <time>2024-07-31T10:17:06Z</time>
      </trkpt>
      <trkpt lat="47.29762" lon="6.16399">
        <ele>308.8</ele>
        <time>2024-07-31T10:17:07Z</time>
      </trkpt>
      <trkpt lat="47.29761" lon="6.1639">
        <ele>308.2</ele>
        <time>2024-07-31T10:17:08Z</time>
      </trkpt>
      <trkpt lat="47.2976" lon="6.16382">
        <ele>307.6</ele>
        <time>2024-07-31T10:17:09Z</time>
      </trkpt>
      <trkpt lat="47.2976" lon="6.16373">
        <ele>307.4</ele>
        <time>2024-07-31T10:17:10Z</time>
      </trkpt>
      <trkpt lat="47.2976" lon="6.16364">
        <ele>306.8</ele>
        <time>2024-07-31T10:17:11Z</time>
      </trkpt>
      <trkpt lat="47.29761" lon="6.16356">
        <ele>306.6</ele>
        <time>2024-07-31T10:17:12Z</time>
      </trkpt>
      <trkpt lat="47.29762" lon="6.16348">
        <ele>305.8</ele>
        <time>2024-07-31T10:17:13Z</time>
      </trkpt>
      <trkpt lat="47.29763" lon="6.1634">
        <ele>305.6</ele>
        <time>2024-07-31T10:17:14Z</time>
      </trkpt>
      <trkpt lat="47.29766" lon="6.16331">
        <ele>305.2</ele>
        <time>2024-07-31T10:17:15Z</time>
      </trkpt>
      <trkpt lat="47.29768" lon="6.16321">
        <ele>304.4</ele>
        <time>2024-07-31T10:17:16Z</time>
      </trkpt>
      <trkpt lat="47.2977" lon="6.1631">
        <ele>304</ele>
        <time>2024-07-31T10:17:17Z</time>
      </trkpt>
      <trkpt lat="47.29772" lon="6.163">
        <ele>303</ele>
        <time>2024-07-31T10:17:18Z</time>
      </trkpt>
      <trkpt lat="47.29775" lon="6.16289">
        <ele>302.2</ele>
        <time>2024-07-31T10:17:19Z</time>
      </trkpt>
      <trkpt lat="47.29778" lon="6.16277">
        <ele>301.4</ele>
        <time>2024-07-31T10:17:20Z</time>
      </trkpt>
      <trkpt lat="47.2978" lon="6.16266">
        <ele>300</ele>
        <time>2024-07-31T10:17:21Z</time>
      </trkpt>
      <trkpt lat="47.29784" lon="6.16255">
        <ele>298.8</ele>
        <time>2024-07-31T10:17:22Z</time>
      </trkpt>
      <trkpt lat="47.29788" lon="6.16244">
        <ele>298.8</ele>
        <time>2024-07-31T10:17:23Z</time>
      </trkpt>
      <trkpt lat="47.29792" lon="6.16234">
        <ele>298</ele>
        <time>2024-07-31T10:17:24Z</time>
      </trkpt>
      <trkpt lat="47.29796" lon="6.16224">
        <ele>297.2</ele>
        <time>2024-07-31T10:17:25Z</time>
      </trkpt>
      <trkpt lat="47.29801" lon="6.16215">
        <ele>296.6</ele>
        <time>2024-07-31T10:17:26Z</time>
      </trkpt>
      <trkpt lat="47.29807" lon="6.16205">
        <ele>296.2</ele>
        <time>2024-07-31T10:17:27Z</time>
      </trkpt>
      <trkpt lat="47.29813" lon="6.16195">
        <ele>295.4</ele>
        <time>2024-07-31T10:17:28Z</time>
      </trkpt>
      <trkpt lat="47.29819" lon="6.16184">
        <ele>295.2</ele>
        <time>2024-07-31T10:17:29Z</time>
      </trkpt>
      <trkpt lat="47.29825" lon="6.16173">
        <ele>295.4</ele>
        <time>2024-07-31T10:17:30Z</time>
      </trkpt>
      <trkpt lat="47.29831" lon="6.16162">
        <ele>294.4</ele>
        <time>2024-07-31T10:17:31Z</time>
      </trkpt>
      <trkpt lat="47.29836" lon="6.16151">
        <ele>293.2</ele>
        <time>2024-07-31T10:17:32Z</time>
      </trkpt>
      <trkpt lat="47.29841" lon="6.16141">
        <ele>292.4</ele>
        <time>2024-07-31T10:17:33Z</time>
      </trkpt>
      <trkpt lat="47.29846" lon="6.16131">
        <ele>291.8</ele>
        <time>2024-07-31T10:17:34Z</time>
      </trkpt>
      <trkpt lat="47.2985" lon="6.16123">
        <ele>291.4</ele>
        <time>2024-07-31T10:17:35Z</time>
      </trkpt>
      <trkpt lat="47.29854" lon="6.16115">
        <ele>291</ele>
        <time>2024-07-31T10:17:36Z</time>
      </trkpt>
      <trkpt lat="47.29857" lon="6.1611">
        <ele>290.4</ele>
        <time>2024-07-31T10:17:37Z</time>
      </trkpt>
      <trkpt lat="47.29858" lon="6.16105">
        <ele>290</ele>
        <time>2024-07-31T10:17:38Z</time>
      </trkpt>
      <trkpt lat="47.2986" lon="6.16102">
        <ele>289.6</ele>
        <time>2024-07-31T10:17:39Z</time>
      </trkpt>
      <trkpt lat="47.2986" lon="6.16099">
        <ele>289.6</ele>
        <time>2024-07-31T10:17:40Z</time>
      </trkpt>
      <trkpt lat="47.29861" lon="6.16097">
        <ele>289.4</ele>
        <time>2024-07-31T10:17:41Z</time>
      </trkpt>
      <trkpt lat="47.29861" lon="6.16094">
        <ele>289.6</ele>
        <time>2024-07-31T10:17:42Z</time>
      </trkpt>
      <trkpt lat="47.29862" lon="6.1609">
        <ele>289.4</ele>
        <time>2024-07-31T10:17:43Z</time>
      </trkpt>
      <trkpt lat="47.29862" lon="6.16085">
        <ele>289.2</ele>
        <time>2024-07-31T10:17:44Z</time>
      </trkpt>
      <trkpt lat="47.29862" lon="6.16081">
        <ele>289.2</ele>
        <time>2024-07-31T10:17:45Z</time>
      </trkpt>
      <trkpt lat="47.29862" lon="6.16075">
        <ele>289.2</ele>
        <time>2024-07-31T10:17:46Z</time>
      </trkpt>
      <trkpt lat="47.29864" lon="6.16069">
        <ele>289.2</ele>
        <time>2024-07-31T10:17:47Z</time>
      </trkpt>
      <trkpt lat="47.29866" lon="6.16062">
        <ele>288.6</ele>
        <time>2024-07-31T10:17:48Z</time>
      </trkpt>
      <trkpt lat="47.29869" lon="6.16055">
        <ele>288.4</ele>
        <time>2024-07-31T10:17:49Z</time>
      </trkpt>
      <trkpt lat="47.29872" lon="6.16047">
        <ele>288</ele>
        <time>2024-07-31T10:17:50Z</time>
      </trkpt>
      <trkpt lat="47.29875" lon="6.16039">
        <ele>287.6</ele>
        <time>2024-07-31T10:17:51Z</time>
      </trkpt>
      <trkpt lat="47.29878" lon="6.1603">
        <ele>287</ele>
        <time>2024-07-31T10:17:52Z</time>
      </trkpt>
      <trkpt lat="47.29881" lon="6.16021">
        <ele>286.8</ele>
        <time>2024-07-31T10:17:53Z</time>
      </trkpt>
      <trkpt lat="47.29884" lon="6.16011">
        <ele>286.4</ele>
        <time>2024-07-31T10:17:54Z</time>
      </trkpt>
      <trkpt lat="47.29885" lon="6.16001">
        <ele>285.8</ele>
        <time>2024-07-31T10:17:55Z</time>
      </trkpt>
      <trkpt lat="47.29887" lon="6.1599">
        <ele>285.6</ele>
        <time>2024-07-31T10:17:56Z</time>
      </trkpt>
      <trkpt lat="47.29889" lon="6.15979">
        <ele>285.4</ele>
        <time>2024-07-31T10:17:57Z</time>
      </trkpt>
      <trkpt lat="47.29891" lon="6.15968">
        <ele>285.2</ele>
        <time>2024-07-31T10:17:58Z</time>
      </trkpt>
      <trkpt lat="47.29893" lon="6.15957">
        <ele>284.8</ele>
        <time>2024-07-31T10:17:59Z</time>
      </trkpt>
      <trkpt lat="47.29894" lon="6.15946">
        <ele>284.6</ele>
        <time>2024-07-31T10:18:00Z</time>
      </trkpt>
      <trkpt lat="47.29896" lon="6.15934">
        <ele>284.2</ele>
        <time>2024-07-31T10:18:01Z</time>
      </trkpt>
      <trkpt lat="47.29897" lon="6.15923">
        <ele>284.2</ele>
        <time>2024-07-31T10:18:02Z</time>
      </trkpt>
      <trkpt lat="47.29899" lon="6.15912">
        <ele>284.4</ele>
        <time>2024-07-31T10:18:03Z</time>
      </trkpt>
      <trkpt lat="47.299" lon="6.15901">
        <ele>284.2</ele>
        <time>2024-07-31T10:18:04Z</time>
      </trkpt>
      <trkpt lat="47.29901" lon="6.15891">
        <ele>284.2</ele>
        <time>2024-07-31T10:18:05Z</time>
      </trkpt>
      <trkpt lat="47.29902" lon="6.1588">
        <ele>284</ele>
        <time>2024-07-31T10:18:06Z</time>
      </trkpt>
      <trkpt lat="47.29903" lon="6.1587">
        <ele>284</ele>
        <time>2024-07-31T10:18:07Z</time>
      </trkpt>
      <trkpt lat="47.29903" lon="6.1586">
        <ele>283.8</ele>
        <time>2024-07-31T10:18:08Z</time>
      </trkpt>
      <trkpt lat="47.29903" lon="6.1585">
        <ele>283.8</ele>
        <time>2024-07-31T10:18:09Z</time>
      </trkpt>
      <trkpt lat="47.29904" lon="6.15841">
        <ele>283.8</ele>
        <time>2024-07-31T10:18:10Z</time>
      </trkpt>
      <trkpt lat="47.29904" lon="6.15832">
        <ele>283.8</ele>
        <time>2024-07-31T10:18:11Z</time>
      </trkpt>
      <trkpt lat="47.29904" lon="6.15823">
        <ele>283.6</ele>
        <time>2024-07-31T10:18:12Z</time>
      </trkpt>
      <trkpt lat="47.29904" lon="6.15814">
        <ele>284</ele>
        <time>2024-07-31T10:18:13Z</time>
      </trkpt>
      <trkpt lat="47.29904" lon="6.15805">
        <ele>284</ele>
        <time>2024-07-31T10:18:14Z</time>
      </trkpt>
      <trkpt lat="47.29904" lon="6.15796">
        <ele>284</ele>
        <time>2024-07-31T10:18:15Z</time>
      </trkpt>
      <trkpt lat="47.29904" lon="6.15788">
        <ele>284.2</ele>
        <time>2024-07-31T10:18:16Z</time>
      </trkpt>
      <trkpt lat="47.29905" lon="6.15781">
        <ele>284.2</ele>
        <time>2024-07-31T10:18:17Z</time>
      </trkpt>
      <trkpt lat="47.29907" lon="6.15774">
        <ele>284.2</ele>
        <time>2024-07-31T10:18:18Z</time>
      </trkpt>
      <trkpt lat="47.2991" lon="6.15768">
        <ele>284.4</ele>
        <time>2024-07-31T10:18:19Z</time>
      </trkpt>
      <trkpt lat="47.29914" lon="6.15764">
        <ele>284.4</ele>
        <time>2024-07-31T10:18:20Z</time>
      </trkpt>
      <trkpt lat="47.29918" lon="6.15761">
        <ele>284.8</ele>
        <time>2024-07-31T10:18:21Z</time>
      </trkpt>
      <trkpt lat="47.29922" lon="6.15759">
        <ele>285.2</ele>
        <time>2024-07-31T10:18:22Z</time>
      </trkpt>
      <trkpt lat="47.29925" lon="6.15758">
        <ele>285.6</ele>
        <time>2024-07-31T10:18:23Z</time>
      </trkpt>
      <trkpt lat="47.29929" lon="6.15756">
        <ele>286</ele>
        <time>2024-07-31T10:18:24Z</time>
      </trkpt>
      <trkpt lat="47.29933" lon="6.15755">
        <ele>286.4</ele>
        <time>2024-07-31T10:18:25Z</time>
      </trkpt>
      <trkpt lat="47.29936" lon="6.15754">
        <ele>286.6</ele>
        <time>2024-07-31T10:18:26Z</time>
      </trkpt>
      <trkpt lat="47.29939" lon="6.15753">
        <ele>287</ele>
        <time>2024-07-31T10:18:27Z</time>
      </trkpt>
      <trkpt lat="47.29943" lon="6.15751">
        <ele>287.4</ele>
        <time>2024-07-31T10:18:28Z</time>
      </trkpt>
      <trkpt lat="47.29946" lon="6.1575">
        <ele>287.4</ele>
        <time>2024-07-31T10:18:29Z</time>
      </trkpt>
      <trkpt lat="47.29949" lon="6.15748">
        <ele>287.8</ele>
        <time>2024-07-31T10:18:30Z</time>
      </trkpt>
      <trkpt lat="47.29952" lon="6.15747">
        <ele>288.2</ele>
        <time>2024-07-31T10:18:31Z</time>
      </trkpt>
      <trkpt lat="47.29955" lon="6.15745">
        <ele>288.6</ele>
        <time>2024-07-31T10:18:32Z</time>
      </trkpt>
      <trkpt lat="47.29958" lon="6.15743">
        <ele>288.8</ele>
        <time>2024-07-31T10:18:33Z</time>
      </trkpt>
      <trkpt lat="47.29961" lon="6.15743">
        <ele>289</ele>
        <time>2024-07-31T10:18:34Z</time>
      </trkpt>
      <trkpt lat="47.29964" lon="6.15744">
        <ele>289.4</ele>
        <time>2024-07-31T10:18:35Z</time>
      </trkpt>
      <trkpt lat="47.29967" lon="6.15746">
        <ele>289.6</ele>
        <time>2024-07-31T10:18:36Z</time>
      </trkpt>
      <trkpt lat="47.29969" lon="6.1575">
        <ele>289.8</ele>
        <time>2024-07-31T10:18:37Z</time>
      </trkpt>
      <trkpt lat="47.2997" lon="6.15754">
        <ele>290</ele>
        <time>2024-07-31T10:18:38Z</time>
      </trkpt>
      <trkpt lat="47.29971" lon="6.15759">
        <ele>290.4</ele>
        <time>2024-07-31T10:18:39Z</time>
      </trkpt>
      <trkpt lat="47.29971" lon="6.15764">
        <ele>290.4</ele>
        <time>2024-07-31T10:18:40Z</time>
      </trkpt>
      <trkpt lat="47.29972" lon="6.15769">
        <ele>290.4</ele>
        <time>2024-07-31T10:18:41Z</time>
      </trkpt>
      <trkpt lat="47.29973" lon="6.15774">
        <ele>290.4</ele>
        <time>2024-07-31T10:18:42Z</time>
      </trkpt>
      <trkpt lat="47.29974" lon="6.1578">
        <ele>290.6</ele>
        <time>2024-07-31T10:18:43Z</time>
      </trkpt>
      <trkpt lat="47.29975" lon="6.15785">
        <ele>290.6</ele>
        <time>2024-07-31T10:18:44Z</time>
      </trkpt>
      <trkpt lat="47.29976" lon="6.15791">
        <ele>290.6</ele>
        <time>2024-07-31T10:18:45Z</time>
      </trkpt>
      <trkpt lat="47.29977" lon="6.15798">
        <ele>290.6</ele>
        <time>2024-07-31T10:18:46Z</time>
      </trkpt>
      <trkpt lat="47.29978" lon="6.15804">
        <ele>290.4</ele>
        <time>2024-07-31T10:18:47Z</time>
      </trkpt>
      <trkpt lat="47.2998" lon="6.1581">
        <ele>290.4</ele>
        <time>2024-07-31T10:18:48Z</time>
      </trkpt>
      <trkpt lat="47.29981" lon="6.15816">
        <ele>290.4</ele>
        <time>2024-07-31T10:18:49Z</time>
      </trkpt>
      <trkpt lat="47.29982" lon="6.15822">
        <ele>290.6</ele>
        <time>2024-07-31T10:18:50Z</time>
      </trkpt>
      <trkpt lat="47.29984" lon="6.15829">
        <ele>290.6</ele>
        <time>2024-07-31T10:18:51Z</time>
      </trkpt>
      <trkpt lat="47.29985" lon="6.15835">
        <ele>290.4</ele>
        <time>2024-07-31T10:18:52Z</time>
      </trkpt>
      <trkpt lat="47.29987" lon="6.15841">
        <ele>290.4</ele>
        <time>2024-07-31T10:18:53Z</time>
      </trkpt>
      <trkpt lat="47.29989" lon="6.15847">
        <ele>290.6</ele>
        <time>2024-07-31T10:18:54Z</time>
      </trkpt>
      <trkpt lat="47.29991" lon="6.15854">
        <ele>290.6</ele>
        <time>2024-07-31T10:18:55Z</time>
      </trkpt>
      <trkpt lat="47.29993" lon="6.1586">
        <ele>290.6</ele>
        <time>2024-07-31T10:18:56Z</time>
      </trkpt>
      <trkpt lat="47.29995" lon="6.15866">
        <ele>290.6</ele>
        <time>2024-07-31T10:18:57Z</time>
      </trkpt>
      <trkpt lat="47.29997" lon="6.15872">
        <ele>290.8</ele>
        <time>2024-07-31T10:18:58Z</time>
      </trkpt>
      <trkpt lat="47.29999" lon="6.15878">
        <ele>291</ele>
        <time>2024-07-31T10:18:59Z</time>
      </trkpt>
      <trkpt lat="47.30001" lon="6.15884">
        <ele>291</ele>
        <time>2024-07-31T10:19:00Z</time>
      </trkpt>
      <trkpt lat="47.30003" lon="6.1589">
        <ele>291</ele>
        <time>2024-07-31T10:19:01Z</time>
      </trkpt>
      <trkpt lat="47.30005" lon="6.15896">
        <ele>290.8</ele>
        <time>2024-07-31T10:19:02Z</time>
      </trkpt>
      <trkpt lat="47.30008" lon="6.15902">
        <ele>291</ele>
        <time>2024-07-31T10:19:03Z</time>
      </trkpt>
      <trkpt lat="47.3001" lon="6.15908">
        <ele>291</ele>
        <time>2024-07-31T10:19:04Z</time>
      </trkpt>
      <trkpt lat="47.30012" lon="6.15914">
        <ele>291.2</ele>
        <time>2024-07-31T10:19:05Z</time>
      </trkpt>
      <trkpt lat="47.30015" lon="6.1592">
        <ele>291.2</ele>
        <time>2024-07-31T10:19:06Z</time>
      </trkpt>
      <trkpt lat="47.30017" lon="6.15925">
        <ele>291.2</ele>
        <time>2024-07-31T10:19:07Z</time>
      </trkpt>
      <trkpt lat="47.3002" lon="6.15931">
        <ele>291.2</ele>
        <time>2024-07-31T10:19:08Z</time>
      </trkpt>
      <trkpt lat="47.30023" lon="6.15938">
        <ele>291</ele>
        <time>2024-07-31T10:19:09Z</time>
      </trkpt>
      <trkpt lat="47.30025" lon="6.15944">
        <ele>291</ele>
        <time>2024-07-31T10:19:10Z</time>
      </trkpt>
      <trkpt lat="47.30028" lon="6.1595">
        <ele>290.8</ele>
        <time>2024-07-31T10:19:11Z</time>
      </trkpt>
      <trkpt lat="47.30031" lon="6.15957">
        <ele>290.8</ele>
        <time>2024-07-31T10:19:12Z</time>
      </trkpt>
      <trkpt lat="47.30034" lon="6.15963">
        <ele>290.8</ele>
        <time>2024-07-31T10:19:13Z</time>
      </trkpt>
      <trkpt lat="47.30036" lon="6.1597">
        <ele>290.8</ele>
        <time>2024-07-31T10:19:14Z</time>
      </trkpt>
      <trkpt lat="47.30039" lon="6.15977">
        <ele>290.8</ele>
        <time>2024-07-31T10:19:15Z</time>
      </trkpt>
      <trkpt lat="47.30042" lon="6.15984">
        <ele>290.8</ele>
        <time>2024-07-31T10:19:16Z</time>
      </trkpt>
      <trkpt lat="47.30045" lon="6.15991">
        <ele>290.6</ele>
        <time>2024-07-31T10:19:17Z</time>
      </trkpt>
      <trkpt lat="47.30048" lon="6.15997">
        <ele>290.4</ele>
        <time>2024-07-31T10:19:18Z</time>
      </trkpt>
      <trkpt lat="47.30051" lon="6.16004">
        <ele>290.4</ele>
        <time>2024-07-31T10:19:19Z</time>
      </trkpt>
      <trkpt lat="47.30054" lon="6.16011">
        <ele>290.2</ele>
        <time>2024-07-31T10:19:20Z</time>
      </trkpt>
      <trkpt lat="47.30058" lon="6.16018">
        <ele>290</ele>
        <time>2024-07-31T10:19:21Z</time>
      </trkpt>
      <trkpt lat="47.30061" lon="6.16025">
        <ele>289.8</ele>
        <time>2024-07-31T10:19:22Z</time>
      </trkpt>
      <trkpt lat="47.30065" lon="6.16031">
        <ele>289.8</ele>
        <time>2024-07-31T10:19:23Z</time>
      </trkpt>
      <trkpt lat="47.3007" lon="6.16037">
        <ele>289.8</ele>
        <time>2024-07-31T10:19:24Z</time>
      </trkpt>
      <trkpt lat="47.30074" lon="6.16042">
        <ele>289.4</ele>
        <time>2024-07-31T10:19:25Z</time>
      </trkpt>
      <trkpt lat="47.30078" lon="6.16048">
        <ele>289.8</ele>
        <time>2024-07-31T10:19:26Z</time>
      </trkpt>
      <trkpt lat="47.30083" lon="6.16052">
        <ele>289.8</ele>
        <time>2024-07-31T10:19:27Z</time>
      </trkpt>
      <trkpt lat="47.30087" lon="6.16056">
        <ele>290</ele>
        <time>2024-07-31T10:19:28Z</time>
      </trkpt>
      <trkpt lat="47.30092" lon="6.16059">
        <ele>290.2</ele>
        <time>2024-07-31T10:19:29Z</time>
      </trkpt>
      <trkpt lat="47.30096" lon="6.16063">
        <ele>290.4</ele>
        <time>2024-07-31T10:19:30Z</time>
      </trkpt>
      <trkpt lat="47.30101" lon="6.16065">
        <ele>290.6</ele>
        <time>2024-07-31T10:19:31Z</time>
      </trkpt>
      <trkpt lat="47.30105" lon="6.16068">
        <ele>290.4</ele>
        <time>2024-07-31T10:19:32Z</time>
      </trkpt>
      <trkpt lat="47.3011" lon="6.16071">
        <ele>290.6</ele>
        <time>2024-07-31T10:19:33Z</time>
      </trkpt>
      <trkpt lat="47.30114" lon="6.16073">
        <ele>290.4</ele>
        <time>2024-07-31T10:19:34Z</time>
      </trkpt>
      <trkpt lat="47.30118" lon="6.16075">
        <ele>290.4</ele>
        <time>2024-07-31T10:19:35Z</time>
      </trkpt>
      <trkpt lat="47.30123" lon="6.16077">
        <ele>290.6</ele>
        <time>2024-07-31T10:19:36Z</time>
      </trkpt>
      <trkpt lat="47.30127" lon="6.1608">
        <ele>290.6</ele>
        <time>2024-07-31T10:19:37Z</time>
      </trkpt>
      <trkpt lat="47.30132" lon="6.16082">
        <ele>291</ele>
        <time>2024-07-31T10:19:38Z</time>
      </trkpt>
      <trkpt lat="47.30137" lon="6.16084">
        <ele>291</ele>
        <time>2024-07-31T10:19:39Z</time>
      </trkpt>
      <trkpt lat="47.30141" lon="6.16085">
        <ele>290.8</ele>
        <time>2024-07-31T10:19:40Z</time>
      </trkpt>
      <trkpt lat="47.30146" lon="6.16087">
        <ele>290.8</ele>
        <time>2024-07-31T10:19:41Z</time>
      </trkpt>
      <trkpt lat="47.30151" lon="6.16089">
        <ele>291</ele>
        <time>2024-07-31T10:19:42Z</time>
      </trkpt>
      <trkpt lat="47.30155" lon="6.16091">
        <ele>291.2</ele>
        <time>2024-07-31T10:19:43Z</time>
      </trkpt>
      <trkpt lat="47.3016" lon="6.16094">
        <ele>291.2</ele>
        <time>2024-07-31T10:19:44Z</time>
      </trkpt>
      <trkpt lat="47.30164" lon="6.16097">
        <ele>291.4</ele>
        <time>2024-07-31T10:19:45Z</time>
      </trkpt>
      <trkpt lat="47.30169" lon="6.16099">
        <ele>291.4</ele>
        <time>2024-07-31T10:19:46Z</time>
      </trkpt>
      <trkpt lat="47.30173" lon="6.16102">
        <ele>291.8</ele>
        <time>2024-07-31T10:19:47Z</time>
      </trkpt>
      <trkpt lat="47.30177" lon="6.16105">
        <ele>291.8</ele>
        <time>2024-07-31T10:19:48Z</time>
      </trkpt>
      <trkpt lat="47.30181" lon="6.16109">
        <ele>291.8</ele>
        <time>2024-07-31T10:19:49Z</time>
      </trkpt>
      <trkpt lat="47.30186" lon="6.16112">
        <ele>292</ele>
        <time>2024-07-31T10:19:50Z</time>
      </trkpt>
      <trkpt lat="47.3019" lon="6.16116">
        <ele>292.2</ele>
        <time>2024-07-31T10:19:51Z</time>
      </trkpt>
      <trkpt lat="47.30194" lon="6.1612">
        <ele>292.2</ele>
        <time>2024-07-31T10:19:52Z</time>
      </trkpt>
      <trkpt lat="47.30199" lon="6.16123">
        <ele>292.2</ele>
        <time>2024-07-31T10:19:53Z</time>
      </trkpt>
      <trkpt lat="47.30203" lon="6.16127">
        <ele>292.2</ele>
        <time>2024-07-31T10:19:54Z</time>
      </trkpt>
      <trkpt lat="47.30207" lon="6.16131">
        <ele>292.2</ele>
        <time>2024-07-31T10:19:55Z</time>
      </trkpt>
      <trkpt lat="47.30211" lon="6.16135">
        <ele>292.2</ele>
        <time>2024-07-31T10:19:56Z</time>
      </trkpt>
      <trkpt lat="47.30215" lon="6.16139">
        <ele>292.2</ele>
        <time>2024-07-31T10:19:57Z</time>
      </trkpt>
      <trkpt lat="47.30219" lon="6.16143">
        <ele>292.2</ele>
        <time>2024-07-31T10:19:58Z</time>
      </trkpt>
      <trkpt lat="47.30224" lon="6.16146">
        <ele>292.2</ele>
        <time>2024-07-31T10:19:59Z</time>
      </trkpt>
      <trkpt lat="47.30228" lon="6.16151">
        <ele>292.4</ele>
        <time>2024-07-31T10:20:00Z</time>
      </trkpt>
      <trkpt lat="47.30233" lon="6.16155">
        <ele>292.6</ele>
        <time>2024-07-31T10:20:01Z</time>
      </trkpt>
      <trkpt lat="47.30237" lon="6.16159">
        <ele>292.6</ele>
        <time>2024-07-31T10:20:02Z</time>
      </trkpt>
      <trkpt lat="47.30241" lon="6.16163">
        <ele>292.8</ele>
        <time>2024-07-31T10:20:03Z</time>
      </trkpt>
      <trkpt lat="47.30246" lon="6.16166">
        <ele>292.8</ele>
        <time>2024-07-31T10:20:04Z</time>
      </trkpt>
      <trkpt lat="47.30251" lon="6.16169">
        <ele>293</ele>
        <time>2024-07-31T10:20:05Z</time>
      </trkpt>
      <trkpt lat="47.30256" lon="6.16171">
        <ele>293</ele>
        <time>2024-07-31T10:20:06Z</time>
      </trkpt>
      <trkpt lat="47.3026" lon="6.16173">
        <ele>293.2</ele>
        <time>2024-07-31T10:20:07Z</time>
      </trkpt>
      <trkpt lat="47.30265" lon="6.16175">
        <ele>293</ele>
        <time>2024-07-31T10:20:08Z</time>
      </trkpt>
      <trkpt lat="47.3027" lon="6.16176">
        <ele>293</ele>
        <time>2024-07-31T10:20:09Z</time>
      </trkpt>
      <trkpt lat="47.30274" lon="6.16177">
        <ele>293.2</ele>
        <time>2024-07-31T10:20:10Z</time>
      </trkpt>
      <trkpt lat="47.30279" lon="6.16178">
        <ele>293.4</ele>
        <time>2024-07-31T10:20:11Z</time>
      </trkpt>
      <trkpt lat="47.30283" lon="6.16178">
        <ele>293.8</ele>
        <time>2024-07-31T10:20:12Z</time>
      </trkpt>
      <trkpt lat="47.30287" lon="6.16179">
        <ele>294.2</ele>
        <time>2024-07-31T10:20:13Z</time>
      </trkpt>
      <trkpt lat="47.30291" lon="6.1618">
        <ele>294.4</ele>
        <time>2024-07-31T10:20:14Z</time>
      </trkpt>
      <trkpt lat="47.30295" lon="6.1618">
        <ele>294.4</ele>
        <time>2024-07-31T10:20:15Z</time>
      </trkpt>
      <trkpt lat="47.30299" lon="6.16181">
        <ele>294.6</ele>
        <time>2024-07-31T10:20:16Z</time>
      </trkpt>
      <trkpt lat="47.30302" lon="6.16181">
        <ele>294.8</ele>
        <time>2024-07-31T10:20:17Z</time>
      </trkpt>
      <trkpt lat="47.30305" lon="6.16182">
        <ele>295.2</ele>
        <time>2024-07-31T10:20:18Z</time>
      </trkpt>
      <trkpt lat="47.30309" lon="6.16183">
        <ele>295.2</ele>
        <time>2024-07-31T10:20:19Z</time>
      </trkpt>
      <trkpt lat="47.30312" lon="6.16184">
        <ele>295.2</ele>
        <time>2024-07-31T10:20:20Z</time>
      </trkpt>
      <trkpt lat="47.30315" lon="6.16185">
        <ele>295.4</ele>
        <time>2024-07-31T10:20:21Z</time>
      </trkpt>
      <trkpt lat="47.30318" lon="6.16187">
        <ele>295.8</ele>
        <time>2024-07-31T10:20:22Z</time>
      </trkpt>
      <trkpt lat="47.30321" lon="6.1619">
        <ele>296.2</ele>
        <time>2024-07-31T10:20:23Z</time>
      </trkpt>
      <trkpt lat="47.30323" lon="6.16193">
        <ele>296.4</ele>
        <time>2024-07-31T10:20:24Z</time>
      </trkpt>
      <trkpt lat="47.30326" lon="6.16195">
        <ele>296.8</ele>
        <time>2024-07-31T10:20:25Z</time>
      </trkpt>
      <trkpt lat="47.30329" lon="6.16198">
        <ele>296.8</ele>
        <time>2024-07-31T10:20:26Z</time>
      </trkpt>
      <trkpt lat="47.30331" lon="6.16202">
        <ele>296.8</ele>
        <time>2024-07-31T10:20:27Z</time>
      </trkpt>
      <trkpt lat="47.30334" lon="6.16205">
        <ele>297</ele>
        <time>2024-07-31T10:20:28Z</time>
      </trkpt>
      <trkpt lat="47.30336" lon="6.16208">
        <ele>297</ele>
        <time>2024-07-31T10:20:29Z</time>
      </trkpt>
      <trkpt lat="47.30339" lon="6.16212">
        <ele>297</ele>
        <time>2024-07-31T10:20:30Z</time>
      </trkpt>
      <trkpt lat="47.30342" lon="6.16215">
        <ele>297</ele>
        <time>2024-07-31T10:20:31Z</time>
      </trkpt>
      <trkpt lat="47.30345" lon="6.16219">
        <ele>297.4</ele>
        <time>2024-07-31T10:20:32Z</time>
      </trkpt>
      <trkpt lat="47.30347" lon="6.16222">
        <ele>297.6</ele>
        <time>2024-07-31T10:20:33Z</time>
      </trkpt>
      <trkpt lat="47.3035" lon="6.16225">
        <ele>297.4</ele>
        <time>2024-07-31T10:20:34Z</time>
      </trkpt>
      <trkpt lat="47.30353" lon="6.16229">
        <ele>297.4</ele>
        <time>2024-07-31T10:20:35Z</time>
      </trkpt>
      <trkpt lat="47.30356" lon="6.16232">
        <ele>297.6</ele>
        <time>2024-07-31T10:20:36Z</time>
      </trkpt>
      <trkpt lat="47.30359" lon="6.16235">
        <ele>297.4</ele>
        <time>2024-07-31T10:20:37Z</time>
      </trkpt>
      <trkpt lat="47.30362" lon="6.16239">
        <ele>297.6</ele>
        <time>2024-07-31T10:20:38Z</time>
      </trkpt>
      <trkpt lat="47.30365" lon="6.16242">
        <ele>297.6</ele>
        <time>2024-07-31T10:20:39Z</time>
      </trkpt>
      <trkpt lat="47.30368" lon="6.16245">
        <ele>297.6</ele>
        <time>2024-07-31T10:20:40Z</time>
      </trkpt>
      <trkpt lat="47.30371" lon="6.16248">
        <ele>297.8</ele>
        <time>2024-07-31T10:20:41Z</time>
      </trkpt>
      <trkpt lat="47.30374" lon="6.16251">
        <ele>297.8</ele>
        <time>2024-07-31T10:20:42Z</time>
      </trkpt>
      <trkpt lat="47.30377" lon="6.16254">
        <ele>298</ele>
        <time>2024-07-31T10:20:43Z</time>
      </trkpt>
      <trkpt lat="47.30381" lon="6.16257">
        <ele>298.2</ele>
        <time>2024-07-31T10:20:44Z</time>
      </trkpt>
      <trkpt lat="47.30384" lon="6.16259">
        <ele>298.2</ele>
        <time>2024-07-31T10:20:45Z</time>
      </trkpt>
      <trkpt lat="47.30388" lon="6.16261">
        <ele>298.6</ele>
        <time>2024-07-31T10:20:46Z</time>
      </trkpt>
      <trkpt lat="47.30391" lon="6.16263">
        <ele>298.6</ele>
        <time>2024-07-31T10:20:47Z</time>
      </trkpt>
      <trkpt lat="47.30395" lon="6.16265">
        <ele>298.8</ele>
        <time>2024-07-31T10:20:48Z</time>
      </trkpt>
      <trkpt lat="47.30399" lon="6.16266">
        <ele>298.8</ele>
        <time>2024-07-31T10:20:49Z</time>
      </trkpt>
      <trkpt lat="47.30403" lon="6.16266">
        <ele>299.2</ele>
        <time>2024-07-31T10:20:50Z</time>
      </trkpt>
      <trkpt lat="47.30406" lon="6.16267">
        <ele>299.2</ele>
        <time>2024-07-31T10:20:51Z</time>
      </trkpt>
      <trkpt lat="47.3041" lon="6.16267">
        <ele>299.2</ele>
        <time>2024-07-31T10:20:52Z</time>
      </trkpt>
      <trkpt lat="47.30414" lon="6.16268">
        <ele>299.2</ele>
        <time>2024-07-31T10:20:53Z</time>
      </trkpt>
      <trkpt lat="47.30417" lon="6.16268">
        <ele>299.2</ele>
        <time>2024-07-31T10:20:54Z</time>
      </trkpt>
      <trkpt lat="47.30421" lon="6.16268">
        <ele>299.2</ele>
        <time>2024-07-31T10:20:55Z</time>
      </trkpt>
      <trkpt lat="47.30425" lon="6.16268">
        <ele>299.4</ele>
        <time>2024-07-31T10:20:56Z</time>
      </trkpt>
      <trkpt lat="47.30429" lon="6.16269">
        <ele>299.4</ele>
        <time>2024-07-31T10:20:57Z</time>
      </trkpt>
      <trkpt lat="47.30432" lon="6.16269">
        <ele>299.4</ele>
        <time>2024-07-31T10:20:58Z</time>
      </trkpt>
      <trkpt lat="47.30436" lon="6.16269">
        <ele>299.6</ele>
        <time>2024-07-31T10:20:59Z</time>
      </trkpt>
      <trkpt lat="47.3044" lon="6.16269">
        <ele>299.6</ele>
        <time>2024-07-31T10:21:00Z</time>
      </trkpt>
      <trkpt lat="47.30444" lon="6.16269">
        <ele>299.6</ele>
        <time>2024-07-31T10:21:01Z</time>
      </trkpt>
      <trkpt lat="47.30448" lon="6.16269">
        <ele>300</ele>
        <time>2024-07-31T10:21:02Z</time>
      </trkpt>
      <trkpt lat="47.30451" lon="6.16268">
        <ele>299.8</ele>
        <time>2024-07-31T10:21:03Z</time>
      </trkpt>
      <trkpt lat="47.30455" lon="6.16268">
        <ele>299.8</ele>
        <time>2024-07-31T10:21:04Z</time>
      </trkpt>
      <trkpt lat="47.30459" lon="6.16267">
        <ele>300.2</ele>
        <time>2024-07-31T10:21:05Z</time>
      </trkpt>
      <trkpt lat="47.30462" lon="6.16266">
        <ele>300.4</ele>
        <time>2024-07-31T10:21:06Z</time>
      </trkpt>
      <trkpt lat="47.30466" lon="6.16265">
        <ele>300.6</ele>
        <time>2024-07-31T10:21:07Z</time>
      </trkpt>
      <trkpt lat="47.3047" lon="6.16264">
        <ele>301</ele>
        <time>2024-07-31T10:21:08Z</time>
      </trkpt>
      <trkpt lat="47.30473" lon="6.16262">
        <ele>301.2</ele>
        <time>2024-07-31T10:21:09Z</time>
      </trkpt>
      <trkpt lat="47.30476" lon="6.1626">
        <ele>301</ele>
        <time>2024-07-31T10:21:10Z</time>
      </trkpt>
      <trkpt lat="47.30479" lon="6.1626">
        <ele>301.2</ele>
        <time>2024-07-31T10:21:11Z</time>
      </trkpt>
      <trkpt lat="47.30482" lon="6.16259">
        <ele>301.4</ele>
        <time>2024-07-31T10:21:12Z</time>
      </trkpt>
      <trkpt lat="47.30485" lon="6.16258">
        <ele>301.6</ele>
        <time>2024-07-31T10:21:13Z</time>
      </trkpt>
      <trkpt lat="47.30488" lon="6.16257">
        <ele>301.8</ele>
        <time>2024-07-31T10:21:14Z</time>
      </trkpt>
      <trkpt lat="47.3049" lon="6.16257">
        <ele>302</ele>
        <time>2024-07-31T10:21:15Z</time>
      </trkpt>
      <trkpt lat="47.30492" lon="6.16255">
        <ele>302.2</ele>
        <time>2024-07-31T10:21:16Z</time>
      </trkpt>
      <trkpt lat="47.30495" lon="6.16253">
        <ele>302.4</ele>
        <time>2024-07-31T10:21:17Z</time>
      </trkpt>
      <trkpt lat="47.30498" lon="6.16251">
        <ele>302.6</ele>
        <time>2024-07-31T10:21:18Z</time>
      </trkpt>
      <trkpt lat="47.305" lon="6.16251">
        <ele>302.6</ele>
        <time>2024-07-31T10:21:19Z</time>
      </trkpt>
      <trkpt lat="47.30503" lon="6.16252">
        <ele>302.8</ele>
        <time>2024-07-31T10:21:20Z</time>
      </trkpt>
      <trkpt lat="47.30505" lon="6.16254">
        <ele>303.2</ele>
        <time>2024-07-31T10:21:21Z</time>
      </trkpt>
      <trkpt lat="47.30507" lon="6.16257">
        <ele>303.2</ele>
        <time>2024-07-31T10:21:22Z</time>
      </trkpt>
      <trkpt lat="47.30508" lon="6.1626">
        <ele>303.4</ele>
        <time>2024-07-31T10:21:23Z</time>
      </trkpt>
      <trkpt lat="47.30509" lon="6.16263">
        <ele>303.6</ele>
        <time>2024-07-31T10:21:24Z</time>
      </trkpt>
      <trkpt lat="47.30511" lon="6.16266">
        <ele>303.6</ele>
        <time>2024-07-31T10:21:25Z</time>
      </trkpt>
      <trkpt lat="47.30512" lon="6.16269">
        <ele>303.6</ele>
        <time>2024-07-31T10:21:26Z</time>
      </trkpt>
      <trkpt lat="47.30514" lon="6.16273">
        <ele>303.8</ele>
        <time>2024-07-31T10:21:27Z</time>
      </trkpt>
      <trkpt lat="47.30515" lon="6.16277">
        <ele>303.6</ele>
        <time>2024-07-31T10:21:28Z</time>
      </trkpt>
      <trkpt lat="47.30517" lon="6.16281">
        <ele>303.8</ele>
        <time>2024-07-31T10:21:29Z</time>
      </trkpt>
      <trkpt lat="47.30518" lon="6.16284">
        <ele>303.6</ele>
        <time>2024-07-31T10:21:30Z</time>
      </trkpt>
      <trkpt lat="47.3052" lon="6.16288">
        <ele>304.2</ele>
        <time>2024-07-31T10:21:31Z</time>
      </trkpt>
      <trkpt lat="47.30521" lon="6.16292">
        <ele>304.2</ele>
        <time>2024-07-31T10:21:32Z</time>
      </trkpt>
      <trkpt lat="47.30523" lon="6.16295">
        <ele>304.2</ele>
        <time>2024-07-31T10:21:33Z</time>
      </trkpt>
      <trkpt lat="47.30524" lon="6.16299">
        <ele>304.4</ele>
        <time>2024-07-31T10:21:34Z</time>
      </trkpt>
      <trkpt lat="47.30526" lon="6.16303">
        <ele>304.6</ele>
        <time>2024-07-31T10:21:35Z</time>
      </trkpt>
      <trkpt lat="47.30527" lon="6.16306">
        <ele>305</ele>
        <time>2024-07-31T10:21:36Z</time>
      </trkpt>
      <trkpt lat="47.30529" lon="6.1631">
        <ele>305</ele>
        <time>2024-07-31T10:21:37Z</time>
      </trkpt>
      <trkpt lat="47.3053" lon="6.16313">
        <ele>305</ele>
        <time>2024-07-31T10:21:38Z</time>
      </trkpt>
      <trkpt lat="47.30531" lon="6.16317">
        <ele>305</ele>
        <time>2024-07-31T10:21:39Z</time>
      </trkpt>
      <trkpt lat="47.30533" lon="6.16321">
        <ele>305.2</ele>
        <time>2024-07-31T10:21:40Z</time>
      </trkpt>
      <trkpt lat="47.30534" lon="6.16325">
        <ele>305.4</ele>
        <time>2024-07-31T10:21:41Z</time>
      </trkpt>
      <trkpt lat="47.30535" lon="6.16328">
        <ele>305.8</ele>
        <time>2024-07-31T10:21:42Z</time>
      </trkpt>
      <trkpt lat="47.30536" lon="6.16332">
        <ele>305.8</ele>
        <time>2024-07-31T10:21:43Z</time>
      </trkpt>
      <trkpt lat="47.30537" lon="6.16335">
        <ele>306</ele>
        <time>2024-07-31T10:21:44Z</time>
      </trkpt>
      <trkpt lat="47.30538" lon="6.16339">
        <ele>306</ele>
        <time>2024-07-31T10:21:45Z</time>
      </trkpt>
      <trkpt lat="47.30539" lon="6.16342">
        <ele>306.2</ele>
        <time>2024-07-31T10:21:46Z</time>
      </trkpt>
      <trkpt lat="47.3054" lon="6.16345">
        <ele>306.6</ele>
        <time>2024-07-31T10:21:47Z</time>
      </trkpt>
      <trkpt lat="47.30541" lon="6.16348">
        <ele>306.6</ele>
        <time>2024-07-31T10:21:48Z</time>
      </trkpt>
      <trkpt lat="47.30542" lon="6.16351">
        <ele>306.8</ele>
        <time>2024-07-31T10:21:49Z</time>
      </trkpt>
      <trkpt lat="47.30543" lon="6.16354">
        <ele>306.8</ele>
        <time>2024-07-31T10:21:50Z</time>
      </trkpt>
      <trkpt lat="47.30544" lon="6.16356">
        <ele>307.2</ele>
        <time>2024-07-31T10:21:51Z</time>
      </trkpt>
      <trkpt lat="47.30545" lon="6.16359">
        <ele>307.4</ele>
        <time>2024-07-31T10:21:52Z</time>
      </trkpt>
      <trkpt lat="47.30546" lon="6.16362">
        <ele>307.4</ele>
        <time>2024-07-31T10:21:53Z</time>
      </trkpt>
      <trkpt lat="47.30547" lon="6.16364">
        <ele>307.8</ele>
        <time>2024-07-31T10:21:54Z</time>
      </trkpt>
      <trkpt lat="47.30549" lon="6.16366">
        <ele>307.6</ele>
        <time>2024-07-31T10:21:55Z</time>
      </trkpt>
      <trkpt lat="47.30551" lon="6.16367">
        <ele>307.8</ele>
        <time>2024-07-31T10:21:56Z</time>
      </trkpt>
      <trkpt lat="47.30552" lon="6.16368">
        <ele>308</ele>
        <time>2024-07-31T10:21:57Z</time>
      </trkpt>
      <trkpt lat="47.30554" lon="6.16369">
        <ele>308</ele>
        <time>2024-07-31T10:21:58Z</time>
      </trkpt>
      <trkpt lat="47.30556" lon="6.16369">
        <ele>308.4</ele>
        <time>2024-07-31T10:21:59Z</time>
      </trkpt>
      <trkpt lat="47.30557" lon="6.16369">
        <ele>308.4</ele>
        <time>2024-07-31T10:22:00Z</time>
      </trkpt>
      <trkpt lat="47.30559" lon="6.16368">
        <ele>308.6</ele>
        <time>2024-07-31T10:22:01Z</time>
      </trkpt>
      <trkpt lat="47.30561" lon="6.16367">
        <ele>308.6</ele>
        <time>2024-07-31T10:22:02Z</time>
      </trkpt>
      <trkpt lat="47.30563" lon="6.16365">
        <ele>308.6</ele>
        <time>2024-07-31T10:22:03Z</time>
      </trkpt>
      <trkpt lat="47.30564" lon="6.16364">
        <ele>309</ele>
        <time>2024-07-31T10:22:04Z</time>
      </trkpt>
      <trkpt lat="47.30565" lon="6.16362">
        <ele>309.6</ele>
        <time>2024-07-31T10:22:05Z</time>
      </trkpt>
      <trkpt lat="47.30567" lon="6.16361">
        <ele>310</ele>
        <time>2024-07-31T10:22:06Z</time>
      </trkpt>
      <trkpt lat="47.30568" lon="6.1636">
        <ele>309.6</ele>
        <time>2024-07-31T10:22:07Z</time>
      </trkpt>
      <trkpt lat="47.3057" lon="6.16358">
        <ele>310.2</ele>
        <time>2024-07-31T10:22:08Z</time>
      </trkpt>
      <trkpt lat="47.30571" lon="6.16356">
        <ele>310.4</ele>
        <time>2024-07-31T10:22:09Z</time>
      </trkpt>
      <trkpt lat="47.30573" lon="6.16354">
        <ele>310.4</ele>
        <time>2024-07-31T10:22:10Z</time>
      </trkpt>
      <trkpt lat="47.30575" lon="6.16352">
        <ele>310.6</ele>
        <time>2024-07-31T10:22:11Z</time>
      </trkpt>
      <trkpt lat="47.30577" lon="6.16349">
        <ele>310.4</ele>
        <time>2024-07-31T10:22:12Z</time>
      </trkpt>
      <trkpt lat="47.30579" lon="6.16346">
        <ele>311</ele>
        <time>2024-07-31T10:22:13Z</time>
      </trkpt>
      <trkpt lat="47.3058" lon="6.16344">
        <ele>311</ele>
        <time>2024-07-31T10:22:14Z</time>
      </trkpt>
      <trkpt lat="47.30582" lon="6.16341">
        <ele>311.2</ele>
        <time>2024-07-31T10:22:15Z</time>
      </trkpt>
      <trkpt lat="47.30584" lon="6.16338">
        <ele>311.4</ele>
        <time>2024-07-31T10:22:16Z</time>
      </trkpt>
      <trkpt lat="47.30586" lon="6.16335">
        <ele>311.6</ele>
        <time>2024-07-31T10:22:17Z</time>
      </trkpt>
      <trkpt lat="47.30588" lon="6.16332">
        <ele>311.6</ele>
        <time>2024-07-31T10:22:18Z</time>
      </trkpt>
      <trkpt lat="47.30589" lon="6.1633">
        <ele>311.6</ele>
        <time>2024-07-31T10:22:19Z</time>
      </trkpt>
      <trkpt lat="47.30591" lon="6.16327">
        <ele>312</ele>
        <time>2024-07-31T10:22:20Z</time>
      </trkpt>
      <trkpt lat="47.30593" lon="6.16324">
        <ele>312.2</ele>
        <time>2024-07-31T10:22:21Z</time>
      </trkpt>
      <trkpt lat="47.30594" lon="6.16321">
        <ele>312.8</ele>
        <time>2024-07-31T10:22:22Z</time>
      </trkpt>
      <trkpt lat="47.30596" lon="6.16319">
        <ele>313</ele>
        <time>2024-07-31T10:22:23Z</time>
      </trkpt>
      <trkpt lat="47.30597" lon="6.16317">
        <ele>312.8</ele>
        <time>2024-07-31T10:22:24Z</time>
      </trkpt>
      <trkpt lat="47.30599" lon="6.16315">
        <ele>313</ele>
        <time>2024-07-31T10:22:25Z</time>
      </trkpt>
      <trkpt lat="47.30601" lon="6.16313">
        <ele>313.2</ele>
        <time>2024-07-31T10:22:26Z</time>
      </trkpt>
      <trkpt lat="47.30602" lon="6.1631">
        <ele>313.4</ele>
        <time>2024-07-31T10:22:27Z</time>
      </trkpt>
      <trkpt lat="47.30604" lon="6.16308">
        <ele>313.8</ele>
        <time>2024-07-31T10:22:28Z</time>
      </trkpt>
      <trkpt lat="47.30606" lon="6.16305">
        <ele>314</ele>
        <time>2024-07-31T10:22:29Z</time>
      </trkpt>
      <trkpt lat="47.30608" lon="6.16303">
        <ele>313.8</ele>
        <time>2024-07-31T10:22:30Z</time>
      </trkpt>
      <trkpt lat="47.3061" lon="6.163">
        <ele>314.2</ele>
        <time>2024-07-31T10:22:31Z</time>
      </trkpt>
      <trkpt lat="47.30612" lon="6.16297">
        <ele>314.2</ele>
        <time>2024-07-31T10:22:32Z</time>
      </trkpt>
      <trkpt lat="47.30614" lon="6.16295">
        <ele>314.6</ele>
        <time>2024-07-31T10:22:33Z</time>
      </trkpt>
      <trkpt lat="47.30616" lon="6.16293">
        <ele>314.8</ele>
        <time>2024-07-31T10:22:34Z</time>
      </trkpt>
      <trkpt lat="47.30617" lon="6.16291">
        <ele>314.6</ele>
        <time>2024-07-31T10:22:35Z</time>
      </trkpt>
      <trkpt lat="47.30619" lon="6.16289">
        <ele>315</ele>
        <time>2024-07-31T10:22:36Z</time>
      </trkpt>
      <trkpt lat="47.3062" lon="6.16287">
        <ele>315.2</ele>
        <time>2024-07-31T10:22:37Z</time>
      </trkpt>
      <trkpt lat="47.30622" lon="6.16285">
        <ele>315.2</ele>
        <time>2024-07-31T10:22:38Z</time>
      </trkpt>
      <trkpt lat="47.30623" lon="6.16283">
        <ele>315.6</ele>
        <time>2024-07-31T10:22:39Z</time>
      </trkpt>
      <trkpt lat="47.30625" lon="6.16281">
        <ele>315.8</ele>
        <time>2024-07-31T10:22:40Z</time>
      </trkpt>
      <trkpt lat="47.30626" lon="6.16279">
        <ele>315.8</ele>
        <time>2024-07-31T10:22:41Z</time>
      </trkpt>
      <trkpt lat="47.30628" lon="6.16277">
        <ele>316.2</ele>
        <time>2024-07-31T10:22:42Z</time>
      </trkpt>
      <trkpt lat="47.3063" lon="6.16275">
        <ele>316.4</ele>
        <time>2024-07-31T10:22:43Z</time>
      </trkpt>
      <trkpt lat="47.30631" lon="6.16274">
        <ele>316.4</ele>
        <time>2024-07-31T10:22:44Z</time>
      </trkpt>
      <trkpt lat="47.30632" lon="6.16273">
        <ele>316.4</ele>
        <time>2024-07-31T10:22:45Z</time>
      </trkpt>
      <trkpt lat="47.30633" lon="6.16271">
        <ele>316.6</ele>
        <time>2024-07-31T10:22:46Z</time>
      </trkpt>
      <trkpt lat="47.30634" lon="6.1627">
        <ele>317</ele>
        <time>2024-07-31T10:22:47Z</time>
      </trkpt>
      <trkpt lat="47.30636" lon="6.16268">
        <ele>317.2</ele>
        <time>2024-07-31T10:22:48Z</time>
      </trkpt>
      <trkpt lat="47.30637" lon="6.16267">
        <ele>317.4</ele>
        <time>2024-07-31T10:22:49Z</time>
      </trkpt>
      <trkpt lat="47.30639" lon="6.16266">
        <ele>317.6</ele>
        <time>2024-07-31T10:22:50Z</time>
      </trkpt>
      <trkpt lat="47.3064" lon="6.16264">
        <ele>317.8</ele>
        <time>2024-07-31T10:22:51Z</time>
      </trkpt>
      <trkpt lat="47.30641" lon="6.16263">
        <ele>318</ele>
        <time>2024-07-31T10:22:52Z</time>
      </trkpt>
      <trkpt lat="47.30642" lon="6.16261">
        <ele>318</ele>
        <time>2024-07-31T10:22:53Z</time>
      </trkpt>
      <trkpt lat="47.30644" lon="6.16259">
        <ele>318</ele>
        <time>2024-07-31T10:22:54Z</time>
      </trkpt>
      <trkpt lat="47.30646" lon="6.16257">
        <ele>318.2</ele>
        <time>2024-07-31T10:22:55Z</time>
      </trkpt>
      <trkpt lat="47.30647" lon="6.16255">
        <ele>318.2</ele>
        <time>2024-07-31T10:22:56Z</time>
      </trkpt>
      <trkpt lat="47.30648" lon="6.16253">
        <ele>318.6</ele>
        <time>2024-07-31T10:22:57Z</time>
      </trkpt>
      <trkpt lat="47.3065" lon="6.16252">
        <ele>318.6</ele>
        <time>2024-07-31T10:22:58Z</time>
      </trkpt>
      <trkpt lat="47.30651" lon="6.16251">
        <ele>318.8</ele>
        <time>2024-07-31T10:22:59Z</time>
      </trkpt>
      <trkpt lat="47.30653" lon="6.16249">
        <ele>319.2</ele>
        <time>2024-07-31T10:23:00Z</time>
      </trkpt>
      <trkpt lat="47.30654" lon="6.16247">
        <ele>319.6</ele>
        <time>2024-07-31T10:23:01Z</time>
      </trkpt>
      <trkpt lat="47.30656" lon="6.16246">
        <ele>319.6</ele>
        <time>2024-07-31T10:23:02Z</time>
      </trkpt>
      <trkpt lat="47.30657" lon="6.16244">
        <ele>319.8</ele>
        <time>2024-07-31T10:23:03Z</time>
      </trkpt>
      <trkpt lat="47.30659" lon="6.16243">
        <ele>319.8</ele>
        <time>2024-07-31T10:23:04Z</time>
      </trkpt>
      <trkpt lat="47.3066" lon="6.16241">
        <ele>319.8</ele>
        <time>2024-07-31T10:23:05Z</time>
      </trkpt>
      <trkpt lat="47.30662" lon="6.16239">
        <ele>320</ele>
        <time>2024-07-31T10:23:06Z</time>
      </trkpt>
      <trkpt lat="47.30664" lon="6.16237">
        <ele>320.2</ele>
        <time>2024-07-31T10:23:07Z</time>
      </trkpt>
      <trkpt lat="47.30665" lon="6.16235">
        <ele>320.4</ele>
        <time>2024-07-31T10:23:08Z</time>
      </trkpt>
      <trkpt lat="47.30667" lon="6.16234">
        <ele>320.6</ele>
        <time>2024-07-31T10:23:09Z</time>
      </trkpt>
      <trkpt lat="47.30668" lon="6.16233">
        <ele>321</ele>
        <time>2024-07-31T10:23:10Z</time>
      </trkpt>
      <trkpt lat="47.30671" lon="6.16233">
        <ele>321.2</ele>
        <time>2024-07-31T10:23:11Z</time>
      </trkpt>
      <trkpt lat="47.30673" lon="6.16234">
        <ele>321.4</ele>
        <time>2024-07-31T10:23:12Z</time>
      </trkpt>
      <trkpt lat="47.30675" lon="6.16235">
        <ele>321.8</ele>
        <time>2024-07-31T10:23:13Z</time>
      </trkpt>
      <trkpt lat="47.30676" lon="6.16237">
        <ele>322.2</ele>
        <time>2024-07-31T10:23:14Z</time>
      </trkpt>
      <trkpt lat="47.30677" lon="6.16239">
        <ele>322.4</ele>
        <time>2024-07-31T10:23:15Z</time>
      </trkpt>
      <trkpt lat="47.30677" lon="6.16241">
        <ele>322.4</ele>
        <time>2024-07-31T10:23:16Z</time>
      </trkpt>
      <trkpt lat="47.30677" lon="6.16243">
        <ele>322.4</ele>
        <time>2024-07-31T10:23:17Z</time>
      </trkpt>
      <trkpt lat="47.30677" lon="6.16246">
        <ele>322.4</ele>
        <time>2024-07-31T10:23:18Z</time>
      </trkpt>
      <trkpt lat="47.30677" lon="6.16247">
        <ele>322.8</ele>
        <time>2024-07-31T10:23:19Z</time>
      </trkpt>
      <trkpt lat="47.30676" lon="6.16249">
        <ele>322.8</ele>
        <time>2024-07-31T10:23:20Z</time>
      </trkpt>
      <trkpt lat="47.30676" lon="6.1625">
        <ele>323</ele>
        <time>2024-07-31T10:23:21Z</time>
      </trkpt>
      <trkpt lat="47.30674" lon="6.16251">
        <ele>323.2</ele>
        <time>2024-07-31T10:23:22Z</time>
      </trkpt>
      <trkpt lat="47.30673" lon="6.16252">
        <ele>322.8</ele>
        <time>2024-07-31T10:23:23Z</time>
      </trkpt>
      <trkpt lat="47.30672" lon="6.16253">
        <ele>323.2</ele>
        <time>2024-07-31T10:23:24Z</time>
      </trkpt>
      <trkpt lat="47.3067" lon="6.16255">
        <ele>323.6</ele>
        <time>2024-07-31T10:23:25Z</time>
      </trkpt>
      <trkpt lat="47.30669" lon="6.16257">
        <ele>323.6</ele>
        <time>2024-07-31T10:23:26Z</time>
      </trkpt>
      <trkpt lat="47.30668" lon="6.16258">
        <ele>323.6</ele>
        <time>2024-07-31T10:23:27Z</time>
      </trkpt>
      <trkpt lat="47.30668" lon="6.16258">
        <ele>323.8</ele>
        <time>2024-07-31T10:23:28Z</time>
      </trkpt>
      <trkpt lat="47.30667" lon="6.1626">
        <ele>324</ele>
        <time>2024-07-31T10:23:29Z</time>
      </trkpt>
      <trkpt lat="47.30666" lon="6.16261">
        <ele>324</ele>
        <time>2024-07-31T10:23:30Z</time>
      </trkpt>
      <trkpt lat="47.30664" lon="6.16263">
        <ele>324.2</ele>
        <time>2024-07-31T10:23:31Z</time>
      </trkpt>
      <trkpt lat="47.30663" lon="6.16265">
        <ele>324.4</ele>
        <time>2024-07-31T10:23:32Z</time>
      </trkpt>
      <trkpt lat="47.30662" lon="6.16267">
        <ele>324.4</ele>
        <time>2024-07-31T10:23:33Z</time>
      </trkpt>
      <trkpt lat="47.30661" lon="6.16268">
        <ele>324.6</ele>
        <time>2024-07-31T10:23:34Z</time>
      </trkpt>
      <trkpt lat="47.30661" lon="6.1627">
        <ele>324.8</ele>
        <time>2024-07-31T10:23:35Z</time>
      </trkpt>
      <trkpt lat="47.3066" lon="6.16272">
        <ele>325.2</ele>
        <time>2024-07-31T10:23:36Z</time>
      </trkpt>
      <trkpt lat="47.30659" lon="6.16274">
        <ele>325.2</ele>
        <time>2024-07-31T10:23:37Z</time>
      </trkpt>
      <trkpt lat="47.30658" lon="6.16276">
        <ele>325.2</ele>
        <time>2024-07-31T10:23:38Z</time>
      </trkpt>
      <trkpt lat="47.30657" lon="6.16278">
        <ele>325.4</ele>
        <time>2024-07-31T10:23:39Z</time>
      </trkpt>
      <trkpt lat="47.30656" lon="6.1628">
        <ele>325.4</ele>
        <time>2024-07-31T10:23:40Z</time>
      </trkpt>
      <trkpt lat="47.30656" lon="6.16282">
        <ele>325.4</ele>
        <time>2024-07-31T10:23:41Z</time>
      </trkpt>
      <trkpt lat="47.30655" lon="6.16285">
        <ele>325.6</ele>
        <time>2024-07-31T10:23:42Z</time>
      </trkpt>
      <trkpt lat="47.30654" lon="6.16287">
        <ele>325.8</ele>
        <time>2024-07-31T10:23:43Z</time>
      </trkpt>
      <trkpt lat="47.30653" lon="6.16289">
        <ele>326</ele>
        <time>2024-07-31T10:23:44Z</time>
      </trkpt>
      <trkpt lat="47.30652" lon="6.16292">
        <ele>326</ele>
        <time>2024-07-31T10:23:45Z</time>
      </trkpt>
      <trkpt lat="47.30651" lon="6.16295">
        <ele>326.6</ele>
        <time>2024-07-31T10:23:46Z</time>
      </trkpt>
      <trkpt lat="47.3065" lon="6.16298">
        <ele>326.8</ele>
        <time>2024-07-31T10:23:47Z</time>
      </trkpt>
      <trkpt lat="47.3065" lon="6.163">
        <ele>326.4</ele>
        <time>2024-07-31T10:23:48Z</time>
      </trkpt>
      <trkpt lat="47.30649" lon="6.16303">
        <ele>326.8</ele>
        <time>2024-07-31T10:23:49Z</time>
      </trkpt>
      <trkpt lat="47.30649" lon="6.16307">
        <ele>327</ele>
        <time>2024-07-31T10:23:50Z</time>
      </trkpt>
      <trkpt lat="47.30648" lon="6.1631">
        <ele>327</ele>
        <time>2024-07-31T10:23:51Z</time>
      </trkpt>
      <trkpt lat="47.30649" lon="6.16314">
        <ele>327.6</ele>
        <time>2024-07-31T10:23:52Z</time>
      </trkpt>
      <trkpt lat="47.30649" lon="6.16318">
        <ele>327.6</ele>
        <time>2024-07-31T10:23:53Z</time>
      </trkpt>
      <trkpt lat="47.30649" lon="6.16321">
        <ele>327.8</ele>
        <time>2024-07-31T10:23:54Z</time>
      </trkpt>
      <trkpt lat="47.30649" lon="6.16324">
        <ele>328</ele>
        <time>2024-07-31T10:23:55Z</time>
      </trkpt>
      <trkpt lat="47.30649" lon="6.16326">
        <ele>328.6</ele>
        <time>2024-07-31T10:23:56Z</time>
      </trkpt>
      <trkpt lat="47.30649" lon="6.1633">
        <ele>328.8</ele>
        <time>2024-07-31T10:23:57Z</time>
      </trkpt>
      <trkpt lat="47.30649" lon="6.16334">
        <ele>328.8</ele>
        <time>2024-07-31T10:23:58Z</time>
      </trkpt>
      <trkpt lat="47.3065" lon="6.16338">
        <ele>329</ele>
        <time>2024-07-31T10:23:59Z</time>
      </trkpt>
      <trkpt lat="47.3065" lon="6.16343">
        <ele>329</ele>
        <time>2024-07-31T10:24:00Z</time>
      </trkpt>
      <trkpt lat="47.3065" lon="6.16346">
        <ele>329</ele>
        <time>2024-07-31T10:24:01Z</time>
      </trkpt>
      <trkpt lat="47.30651" lon="6.16349">
        <ele>329.4</ele>
        <time>2024-07-31T10:24:02Z</time>
      </trkpt>
      <trkpt lat="47.30651" lon="6.16353">
        <ele>329.4</ele>
        <time>2024-07-31T10:24:03Z</time>
      </trkpt>
      <trkpt lat="47.30651" lon="6.16355">
        <ele>329.6</ele>
        <time>2024-07-31T10:24:04Z</time>
      </trkpt>
      <trkpt lat="47.30651" lon="6.16357">
        <ele>329.6</ele>
        <time>2024-07-31T10:24:05Z</time>
      </trkpt>
      <trkpt lat="47.30651" lon="6.1636">
        <ele>330</ele>
        <time>2024-07-31T10:24:06Z</time>
      </trkpt>
      <trkpt lat="47.30652" lon="6.16362">
        <ele>330</ele>
        <time>2024-07-31T10:24:07Z</time>
      </trkpt>
      <trkpt lat="47.30653" lon="6.16365">
        <ele>330.2</ele>
        <time>2024-07-31T10:24:08Z</time>
      </trkpt>
      <trkpt lat="47.30653" lon="6.16368">
        <ele>330.4</ele>
        <time>2024-07-31T10:24:09Z</time>
      </trkpt>
      <trkpt lat="47.30654" lon="6.1637">
        <ele>330.6</ele>
        <time>2024-07-31T10:24:10Z</time>
      </trkpt>
      <trkpt lat="47.30654" lon="6.16373">
        <ele>330.8</ele>
        <time>2024-07-31T10:24:11Z</time>
      </trkpt>
      <trkpt lat="47.30655" lon="6.16376">
        <ele>330.8</ele>
        <time>2024-07-31T10:24:12Z</time>
      </trkpt>
      <trkpt lat="47.30656" lon="6.16379">
        <ele>331.4</ele>
        <time>2024-07-31T10:24:13Z</time>
      </trkpt>
      <trkpt lat="47.30657" lon="6.16383">
        <ele>331.4</ele>
        <time>2024-07-31T10:24:14Z</time>
      </trkpt>
      <trkpt lat="47.30658" lon="6.16386">
        <ele>331.6</ele>
        <time>2024-07-31T10:24:15Z</time>
      </trkpt>
      <trkpt lat="47.30659" lon="6.16389">
        <ele>331.6</ele>
        <time>2024-07-31T10:24:16Z</time>
      </trkpt>
      <trkpt lat="47.3066" lon="6.16392">
        <ele>332</ele>
        <time>2024-07-31T10:24:17Z</time>
      </trkpt>
      <trkpt lat="47.30661" lon="6.16395">
        <ele>332.2</ele>
        <time>2024-07-31T10:24:18Z</time>
      </trkpt>
      <trkpt lat="47.30661" lon="6.16398">
        <ele>332.2</ele>
        <time>2024-07-31T10:24:19Z</time>
      </trkpt>
      <trkpt lat="47.30662" lon="6.164">
        <ele>332.2</ele>
        <time>2024-07-31T10:24:20Z</time>
      </trkpt>
      <trkpt lat="47.30663" lon="6.16403">
        <ele>332.2</ele>
        <time>2024-07-31T10:24:21Z</time>
      </trkpt>
      <trkpt lat="47.30663" lon="6.16406">
        <ele>332.2</ele>
        <time>2024-07-31T10:24:22Z</time>
      </trkpt>
      <trkpt lat="47.30664" lon="6.16409">
        <ele>332.4</ele>
        <time>2024-07-31T10:24:23Z</time>
      </trkpt>
      <trkpt lat="47.30664" lon="6.16413">
        <ele>332.6</ele>
        <time>2024-07-31T10:24:24Z</time>
      </trkpt>
      <trkpt lat="47.30664" lon="6.16417">
        <ele>333</ele>
        <time>2024-07-31T10:24:25Z</time>
      </trkpt>
      <trkpt lat="47.30665" lon="6.16421">
        <ele>333.2</ele>
        <time>2024-07-31T10:24:26Z</time>
      </trkpt>
      <trkpt lat="47.30665" lon="6.16425">
        <ele>333.4</ele>
        <time>2024-07-31T10:24:27Z</time>
      </trkpt>
      <trkpt lat="47.30666" lon="6.16429">
        <ele>333.6</ele>
        <time>2024-07-31T10:24:28Z</time>
      </trkpt>
      <trkpt lat="47.30666" lon="6.16432">
        <ele>333.8</ele>
        <time>2024-07-31T10:24:29Z</time>
      </trkpt>
      <trkpt lat="47.30666" lon="6.16437">
        <ele>333.8</ele>
        <time>2024-07-31T10:24:30Z</time>
      </trkpt>
      <trkpt lat="47.30667" lon="6.1644">
        <ele>334</ele>
        <time>2024-07-31T10:24:31Z</time>
      </trkpt>
      <trkpt lat="47.30668" lon="6.16444">
        <ele>334</ele>
        <time>2024-07-31T10:24:32Z</time>
      </trkpt>
      <trkpt lat="47.30668" lon="6.16448">
        <ele>334.2</ele>
        <time>2024-07-31T10:24:33Z</time>
      </trkpt>
      <trkpt lat="47.30669" lon="6.16451">
        <ele>334.6</ele>
        <time>2024-07-31T10:24:34Z</time>
      </trkpt>
      <trkpt lat="47.30669" lon="6.16455">
        <ele>334.8</ele>
        <time>2024-07-31T10:24:35Z</time>
      </trkpt>
      <trkpt lat="47.3067" lon="6.16457">
        <ele>335</ele>
        <time>2024-07-31T10:24:36Z</time>
      </trkpt>
      <trkpt lat="47.30671" lon="6.1646">
        <ele>334.8</ele>
        <time>2024-07-31T10:24:37Z</time>
      </trkpt>
      <trkpt lat="47.30671" lon="6.16464">
        <ele>335.2</ele>
        <time>2024-07-31T10:24:38Z</time>
      </trkpt>
      <trkpt lat="47.30672" lon="6.16466">
        <ele>335.4</ele>
        <time>2024-07-31T10:24:39Z</time>
      </trkpt>
      <trkpt lat="47.30673" lon="6.16469">
        <ele>335.6</ele>
        <time>2024-07-31T10:24:40Z</time>
      </trkpt>
      <trkpt lat="47.30674" lon="6.16472">
        <ele>335.6</ele>
        <time>2024-07-31T10:24:41Z</time>
      </trkpt>
      <trkpt lat="47.30676" lon="6.16473">
        <ele>335.8</ele>
        <time>2024-07-31T10:24:42Z</time>
      </trkpt>
      <trkpt lat="47.30676" lon="6.16473">
        <ele>335.8</ele>
        <time>2024-07-31T10:24:43Z</time>
      </trkpt>
      <trkpt lat="47.30677" lon="6.16475">
        <ele>336</ele>
        <time>2024-07-31T10:24:44Z</time>
      </trkpt>
      <trkpt lat="47.30677" lon="6.16476">
        <ele>336</ele>
        <time>2024-07-31T10:24:45Z</time>
      </trkpt>
      <trkpt lat="47.30677" lon="6.16476">
        <ele>335.6</ele>
        <time>2024-07-31T10:24:46Z</time>
      </trkpt>
      <trkpt lat="47.30677" lon="6.16476">
        <ele>336</ele>
        <time>2024-07-31T10:24:47Z</time>
      </trkpt>
      <trkpt lat="47.30677" lon="6.16476">
        <ele>336</ele>
        <time>2024-07-31T10:24:48Z</time>
      </trkpt>
      <trkpt lat="47.30677" lon="6.16477">
        <ele>335.8</ele>
        <time>2024-07-31T10:24:49Z</time>
      </trkpt>
      <trkpt lat="47.30677" lon="6.16477">
        <ele>336</ele>
        <time>2024-07-31T10:24:50Z</time>
      </trkpt>
      <trkpt lat="47.30677" lon="6.16477">
        <ele>335</ele>
        <time>2024-07-31T10:24:51Z</time>
      </trkpt>
      <trkpt lat="47.30677" lon="6.16476">
        <ele>336.4</ele>
        <time>2024-07-31T10:24:52Z</time>
      </trkpt>
      <trkpt lat="47.30677" lon="6.16476">
        <ele>335.8</ele>
        <time>2024-07-31T10:24:53Z</time>
      </trkpt>
      <trkpt lat="47.30678" lon="6.16476">
        <ele>335.4</ele>
        <time>2024-07-31T10:24:54Z</time>
      </trkpt>
      <trkpt lat="47.30677" lon="6.16477">
        <ele>335.8</ele>
        <time>2024-07-31T10:24:55Z</time>
      </trkpt>
      <trkpt lat="47.30677" lon="6.16477">
        <ele>335.6</ele>
        <time>2024-07-31T10:24:56Z</time>
      </trkpt>
      <trkpt lat="47.30677" lon="6.16477">
        <ele>336</ele>
        <time>2024-07-31T10:24:57Z</time>
      </trkpt>
      <trkpt lat="47.30677" lon="6.16478">
        <ele>336.2</ele>
        <time>2024-07-31T10:24:58Z</time>
      </trkpt>
      <trkpt lat="47.30677" lon="6.16479">
        <ele>335.4</ele>
        <time>2024-07-31T10:24:59Z</time>
      </trkpt>
      <trkpt lat="47.30677" lon="6.16479">
        <ele>335.6</ele>
        <time>2024-07-31T10:25:00Z</time>
      </trkpt>
      <trkpt lat="47.30677" lon="6.16479">
        <ele>335.8</ele>
        <time>2024-07-31T10:25:01Z</time>
      </trkpt>
      <trkpt lat="47.30677" lon="6.16479">
        <ele>335.6</ele>
        <time>2024-07-31T10:25:02Z</time>
      </trkpt>
      <trkpt lat="47.30677" lon="6.16479">
        <ele>335.4</ele>
        <time>2024-07-31T10:25:03Z</time>
      </trkpt>
      <trkpt lat="47.30678" lon="6.16479">
        <ele>335.4</ele>
        <time>2024-07-31T10:25:04Z</time>
      </trkpt>
      <trkpt lat="47.30678" lon="6.16479">
        <ele>335.8</ele>
        <time>2024-07-31T10:25:05Z</time>
      </trkpt>
      <trkpt lat="47.30678" lon="6.16479">
        <ele>336</ele>
        <time>2024-07-31T10:25:06Z</time>
      </trkpt>
      <trkpt lat="47.30677" lon="6.16479">
        <ele>336</ele>
        <time>2024-07-31T10:25:07Z</time>
      </trkpt>
      <trkpt lat="47.30678" lon="6.16479">
        <ele>335.8</ele>
        <time>2024-07-31T10:25:08Z</time>
      </trkpt>
      <trkpt lat="47.30677" lon="6.16479">
        <ele>335.8</ele>
        <time>2024-07-31T10:25:09Z</time>
      </trkpt>
      <trkpt lat="47.30678" lon="6.16479">
        <ele>335.4</ele>
        <time>2024-07-31T10:25:10Z</time>
      </trkpt>
      <trkpt lat="47.30678" lon="6.16479">
        <ele>335.6</ele>
        <time>2024-07-31T10:25:11Z</time>
      </trkpt>
      <trkpt lat="47.30678" lon="6.16479">
        <ele>335.4</ele>
        <time>2024-07-31T10:25:12Z</time>
      </trkpt>
      <trkpt lat="47.30678" lon="6.1648">
        <ele>335.4</ele>
        <time>2024-07-31T10:25:13Z</time>
      </trkpt>
      <trkpt lat="47.30678" lon="6.1648">
        <ele>335.2</ele>
        <time>2024-07-31T10:25:14Z</time>
      </trkpt>
      <trkpt lat="47.30678" lon="6.1648">
        <ele>336</ele>
        <time>2024-07-31T10:25:15Z</time>
      </trkpt>
      <trkpt lat="47.30678" lon="6.1648">
        <ele>335.2</ele>
        <time>2024-07-31T10:25:16Z</time>
      </trkpt>
      <trkpt lat="47.30677" lon="6.16481">
        <ele>336</ele>
        <time>2024-07-31T10:25:17Z</time>
      </trkpt>
      <trkpt lat="47.30677" lon="6.1648">
        <ele>335.6</ele>
        <time>2024-07-31T10:25:18Z</time>
      </trkpt>
      <trkpt lat="47.30677" lon="6.16481">
        <ele>335.6</ele>
        <time>2024-07-31T10:25:19Z</time>
      </trkpt>
      <trkpt lat="47.30677" lon="6.16481">
        <ele>335.4</ele>
        <time>2024-07-31T10:25:20Z</time>
      </trkpt>
      <trkpt lat="47.30678" lon="6.16482">
        <ele>335.4</ele>
        <time>2024-07-31T10:25:21Z</time>
      </trkpt>
      <trkpt lat="47.30678" lon="6.16484">
        <ele>335.6</ele>
        <time>2024-07-31T10:25:22Z</time>
      </trkpt>
      <trkpt lat="47.30679" lon="6.16485">
        <ele>335.6</ele>
        <time>2024-07-31T10:25:23Z</time>
      </trkpt>
      <trkpt lat="47.3068" lon="6.16487">
        <ele>335.8</ele>
        <time>2024-07-31T10:25:24Z</time>
      </trkpt>
      <trkpt lat="47.3068" lon="6.16488">
        <ele>336</ele>
        <time>2024-07-31T10:25:25Z</time>
      </trkpt>
      <trkpt lat="47.30681" lon="6.16491">
        <ele>336</ele>
        <time>2024-07-31T10:25:26Z</time>
      </trkpt>
      <trkpt lat="47.30682" lon="6.16493">
        <ele>336</ele>
        <time>2024-07-31T10:25:27Z</time>
      </trkpt>
      <trkpt lat="47.30683" lon="6.16495">
        <ele>336.4</ele>
        <time>2024-07-31T10:25:28Z</time>
      </trkpt>
      <trkpt lat="47.30685" lon="6.16496">
        <ele>336.4</ele>
        <time>2024-07-31T10:25:29Z</time>
      </trkpt>
      <trkpt lat="47.30686" lon="6.16498">
        <ele>336.4</ele>
        <time>2024-07-31T10:25:30Z</time>
      </trkpt>
      <trkpt lat="47.30687" lon="6.16501">
        <ele>336.8</ele>
        <time>2024-07-31T10:25:31Z</time>
      </trkpt>
      <trkpt lat="47.30688" lon="6.16503">
        <ele>336.8</ele>
        <time>2024-07-31T10:25:32Z</time>
      </trkpt>
      <trkpt lat="47.30689" lon="6.16506">
        <ele>337</ele>
        <time>2024-07-31T10:25:33Z</time>
      </trkpt>
      <trkpt lat="47.30691" lon="6.16508">
        <ele>337.2</ele>
        <time>2024-07-31T10:25:34Z</time>
      </trkpt>
      <trkpt lat="47.30692" lon="6.16511">
        <ele>337.2</ele>
        <time>2024-07-31T10:25:35Z</time>
      </trkpt>
      <trkpt lat="47.30693" lon="6.16514">
        <ele>337.6</ele>
        <time>2024-07-31T10:25:36Z</time>
      </trkpt>
      <trkpt lat="47.30694" lon="6.16516">
        <ele>337.8</ele>
        <time>2024-07-31T10:25:37Z</time>
      </trkpt>
      <trkpt lat="47.30695" lon="6.16519">
        <ele>337.8</ele>
        <time>2024-07-31T10:25:38Z</time>
      </trkpt>
      <trkpt lat="47.30696" lon="6.16522">
        <ele>337.8</ele>
        <time>2024-07-31T10:25:39Z</time>
      </trkpt>
      <trkpt lat="47.30697" lon="6.16525">
        <ele>338</ele>
        <time>2024-07-31T10:25:40Z</time>
      </trkpt>
      <trkpt lat="47.30698" lon="6.16528">
        <ele>338.2</ele>
        <time>2024-07-31T10:25:41Z</time>
      </trkpt>
      <trkpt lat="47.30699" lon="6.16531">
        <ele>338.4</ele>
        <time>2024-07-31T10:25:42Z</time>
      </trkpt>
      <trkpt lat="47.307" lon="6.16534">
        <ele>338.6</ele>
        <time>2024-07-31T10:25:43Z</time>
      </trkpt>
      <trkpt lat="47.30702" lon="6.16537">
        <ele>338.6</ele>
        <time>2024-07-31T10:25:44Z</time>
      </trkpt>
      <trkpt lat="47.30703" lon="6.1654">
        <ele>339</ele>
        <time>2024-07-31T10:25:45Z</time>
      </trkpt>
      <trkpt lat="47.30704" lon="6.16544">
        <ele>339</ele>
        <time>2024-07-31T10:25:46Z</time>
      </trkpt>
      <trkpt lat="47.30705" lon="6.16547">
        <ele>339.4</ele>
        <time>2024-07-31T10:25:47Z</time>
      </trkpt>
      <trkpt lat="47.30706" lon="6.1655">
        <ele>339.4</ele>
        <time>2024-07-31T10:25:48Z</time>
      </trkpt>
      <trkpt lat="47.30707" lon="6.16553">
        <ele>339.6</ele>
        <time>2024-07-31T10:25:49Z</time>
      </trkpt>
      <trkpt lat="47.30708" lon="6.16556">
        <ele>339.6</ele>
        <time>2024-07-31T10:25:50Z</time>
      </trkpt>
      <trkpt lat="47.30709" lon="6.1656">
        <ele>339.6</ele>
        <time>2024-07-31T10:25:51Z</time>
      </trkpt>
      <trkpt lat="47.3071" lon="6.16563">
        <ele>339.8</ele>
        <time>2024-07-31T10:25:52Z</time>
      </trkpt>
      <trkpt lat="47.30711" lon="6.16566">
        <ele>340.2</ele>
        <time>2024-07-31T10:25:53Z</time>
      </trkpt>
      <trkpt lat="47.30712" lon="6.16569">
        <ele>340</ele>
        <time>2024-07-31T10:25:54Z</time>
      </trkpt>
      <trkpt lat="47.30713" lon="6.16572">
        <ele>340.2</ele>
        <time>2024-07-31T10:25:55Z</time>
      </trkpt>
      <trkpt lat="47.30714" lon="6.16575">
        <ele>340.4</ele>
        <time>2024-07-31T10:25:56Z</time>
      </trkpt>
      <trkpt lat="47.30716" lon="6.16578">
        <ele>340.4</ele>
        <time>2024-07-31T10:25:57Z</time>
      </trkpt>
      <trkpt lat="47.30717" lon="6.16581">
        <ele>340.6</ele>
        <time>2024-07-31T10:25:58Z</time>
      </trkpt>
      <trkpt lat="47.30718" lon="6.16585">
        <ele>340.8</ele>
        <time>2024-07-31T10:25:59Z</time>
      </trkpt>
      <trkpt lat="47.30719" lon="6.16588">
        <ele>340.8</ele>
        <time>2024-07-31T10:26:00Z</time>
      </trkpt>
      <trkpt lat="47.30721" lon="6.1659">
        <ele>340.8</ele>
        <time>2024-07-31T10:26:01Z</time>
      </trkpt>
      <trkpt lat="47.30722" lon="6.16593">
        <ele>341</ele>
        <time>2024-07-31T10:26:02Z</time>
      </trkpt>
      <trkpt lat="47.30723" lon="6.16596">
        <ele>341.2</ele>
        <time>2024-07-31T10:26:03Z</time>
      </trkpt>
      <trkpt lat="47.30724" lon="6.16599">
        <ele>340.8</ele>
        <time>2024-07-31T10:26:04Z</time>
      </trkpt>
      <trkpt lat="47.30725" lon="6.16602">
        <ele>341.4</ele>
        <time>2024-07-31T10:26:05Z</time>
      </trkpt>
      <trkpt lat="47.30725" lon="6.16604">
        <ele>341</ele>
        <time>2024-07-31T10:26:06Z</time>
      </trkpt>
      <trkpt lat="47.30726" lon="6.16607">
        <ele>341.6</ele>
        <time>2024-07-31T10:26:07Z</time>
      </trkpt>
      <trkpt lat="47.30727" lon="6.1661">
        <ele>341.8</ele>
        <time>2024-07-31T10:26:08Z</time>
      </trkpt>
      <trkpt lat="47.30727" lon="6.16612">
        <ele>342</ele>
        <time>2024-07-31T10:26:09Z</time>
      </trkpt>
      <trkpt lat="47.30728" lon="6.16615">
        <ele>342</ele>
        <time>2024-07-31T10:26:10Z</time>
      </trkpt>
      <trkpt lat="47.30729" lon="6.16617">
        <ele>342.2</ele>
        <time>2024-07-31T10:26:11Z</time>
      </trkpt>
      <trkpt lat="47.3073" lon="6.16619">
        <ele>342.6</ele>
        <time>2024-07-31T10:26:12Z</time>
      </trkpt>
      <trkpt lat="47.30731" lon="6.16621">
        <ele>342.6</ele>
        <time>2024-07-31T10:26:13Z</time>
      </trkpt>
      <trkpt lat="47.30731" lon="6.16623">
        <ele>342.6</ele>
        <time>2024-07-31T10:26:14Z</time>
      </trkpt>
      <trkpt lat="47.30732" lon="6.16625">
        <ele>342.6</ele>
        <time>2024-07-31T10:26:15Z</time>
      </trkpt>
      <trkpt lat="47.30733" lon="6.16626">
        <ele>343</ele>
        <time>2024-07-31T10:26:16Z</time>
      </trkpt>
      <trkpt lat="47.30733" lon="6.16628">
        <ele>343.2</ele>
        <time>2024-07-31T10:26:17Z</time>
      </trkpt>
      <trkpt lat="47.30734" lon="6.1663">
        <ele>343.2</ele>
        <time>2024-07-31T10:26:18Z</time>
      </trkpt>
      <trkpt lat="47.30735" lon="6.16632">
        <ele>343.4</ele>
        <time>2024-07-31T10:26:19Z</time>
      </trkpt>
      <trkpt lat="47.30736" lon="6.16634">
        <ele>343.6</ele>
        <time>2024-07-31T10:26:20Z</time>
      </trkpt>
      <trkpt lat="47.30737" lon="6.16637">
        <ele>344</ele>
        <time>2024-07-31T10:26:21Z</time>
      </trkpt>
      <trkpt lat="47.30737" lon="6.1664">
        <ele>344</ele>
        <time>2024-07-31T10:26:22Z</time>
      </trkpt>
      <trkpt lat="47.30738" lon="6.16643">
        <ele>344</ele>
        <time>2024-07-31T10:26:23Z</time>
      </trkpt>
      <trkpt lat="47.30739" lon="6.16645">
        <ele>344.2</ele>
        <time>2024-07-31T10:26:24Z</time>
      </trkpt>
      <trkpt lat="47.30741" lon="6.16648">
        <ele>344.2</ele>
        <time>2024-07-31T10:26:25Z</time>
      </trkpt>
      <trkpt lat="47.30742" lon="6.1665">
        <ele>344.4</ele>
        <time>2024-07-31T10:26:26Z</time>
      </trkpt>
      <trkpt lat="47.30743" lon="6.16652">
        <ele>344.4</ele>
        <time>2024-07-31T10:26:27Z</time>
      </trkpt>
      <trkpt lat="47.30745" lon="6.16654">
        <ele>344.4</ele>
        <time>2024-07-31T10:26:28Z</time>
      </trkpt>
      <trkpt lat="47.30746" lon="6.16657">
        <ele>344.6</ele>
        <time>2024-07-31T10:26:29Z</time>
      </trkpt>
      <trkpt lat="47.30747" lon="6.1666">
        <ele>344.8</ele>
        <time>2024-07-31T10:26:30Z</time>
      </trkpt>
      <trkpt lat="47.30748" lon="6.16663">
        <ele>344.8</ele>
        <time>2024-07-31T10:26:31Z</time>
      </trkpt>
      <trkpt lat="47.30749" lon="6.16667">
        <ele>344.6</ele>
        <time>2024-07-31T10:26:32Z</time>
      </trkpt>
      <trkpt lat="47.3075" lon="6.16671">
        <ele>344.6</ele>
        <time>2024-07-31T10:26:33Z</time>
      </trkpt>
      <trkpt lat="47.30751" lon="6.16674">
        <ele>344.6</ele>
        <time>2024-07-31T10:26:34Z</time>
      </trkpt>
      <trkpt lat="47.30752" lon="6.16678">
        <ele>344.6</ele>
        <time>2024-07-31T10:26:35Z</time>
      </trkpt>
      <trkpt lat="47.30753" lon="6.16682">
        <ele>344.6</ele>
        <time>2024-07-31T10:26:36Z</time>
      </trkpt>
      <trkpt lat="47.30753" lon="6.16686">
        <ele>344.8</ele>
        <time>2024-07-31T10:26:37Z</time>
      </trkpt>
      <trkpt lat="47.30754" lon="6.1669">
        <ele>344.8</ele>
        <time>2024-07-31T10:26:38Z</time>
      </trkpt>
      <trkpt lat="47.30755" lon="6.16694">
        <ele>345</ele>
        <time>2024-07-31T10:26:39Z</time>
      </trkpt>
      <trkpt lat="47.30755" lon="6.16698">
        <ele>345</ele>
        <time>2024-07-31T10:26:40Z</time>
      </trkpt>
      <trkpt lat="47.30755" lon="6.16702">
        <ele>344.8</ele>
        <time>2024-07-31T10:26:41Z</time>
      </trkpt>
      <trkpt lat="47.30756" lon="6.16705">
        <ele>344.6</ele>
        <time>2024-07-31T10:26:42Z</time>
      </trkpt>
      <trkpt lat="47.30757" lon="6.16706">
        <ele>344.6</ele>
        <time>2024-07-31T10:26:43Z</time>
      </trkpt>
      <trkpt lat="47.30757" lon="6.16707">
        <ele>344.6</ele>
        <time>2024-07-31T10:26:44Z</time>
      </trkpt>
      <trkpt lat="47.30756" lon="6.16707">
        <ele>344.6</ele>
        <time>2024-07-31T10:26:45Z</time>
      </trkpt>
      <trkpt lat="47.30756" lon="6.16707">
        <ele>344.6</ele>
        <time>2024-07-31T10:26:46Z</time>
      </trkpt>
      <trkpt lat="47.30756" lon="6.16707">
        <ele>344.6</ele>
        <time>2024-07-31T10:26:47Z</time>
      </trkpt>
      <trkpt lat="47.30756" lon="6.16707">
        <ele>344.6</ele>
        <time>2024-07-31T10:26:48Z</time>
      </trkpt>
      <trkpt lat="47.30756" lon="6.16707">
        <ele>344.4</ele>
        <time>2024-07-31T10:26:49Z</time>
      </trkpt>
      <trkpt lat="47.30756" lon="6.16707">
        <ele>344.8</ele>
        <time>2024-07-31T10:26:50Z</time>
      </trkpt>
      <trkpt lat="47.30756" lon="6.16707">
        <ele>344.8</ele>
        <time>2024-07-31T10:26:51Z</time>
      </trkpt>
      <trkpt lat="47.30756" lon="6.16707">
        <ele>344.8</ele>
        <time>2024-07-31T10:26:52Z</time>
      </trkpt>
      <trkpt lat="47.30756" lon="6.16707">
        <ele>344.8</ele>
        <time>2024-07-31T10:26:53Z</time>
      </trkpt>
      <trkpt lat="47.30756" lon="6.16707">
        <ele>344.8</ele>
        <time>2024-07-31T10:26:54Z</time>
      </trkpt>
      <trkpt lat="47.30756" lon="6.16707">
        <ele>344.8</ele>
        <time>2024-07-31T10:26:55Z</time>
      </trkpt>
      <trkpt lat="47.30756" lon="6.16707">
        <ele>344.8</ele>
        <time>2024-07-31T10:26:56Z</time>
      </trkpt>
      <trkpt lat="47.30756" lon="6.16707">
        <ele>344.8</ele>
        <time>2024-07-31T10:26:57Z</time>
      </trkpt>
      <trkpt lat="47.30756" lon="6.16707">
        <ele>344.8</ele>
        <time>2024-07-31T10:26:58Z</time>
      </trkpt>
      <trkpt lat="47.30756" lon="6.16707">
        <ele>344.8</ele>
        <time>2024-07-31T10:26:59Z</time>
      </trkpt>
      <trkpt lat="47.30756" lon="6.16707">
        <ele>344.6</ele>
        <time>2024-07-31T10:27:00Z</time>
      </trkpt>
      <trkpt lat="47.30756" lon="6.16707">
        <ele>344.8</ele>
        <time>2024-07-31T10:27:01Z</time>
      </trkpt>
      <trkpt lat="47.30756" lon="6.16708">
        <ele>344.6</ele>
        <time>2024-07-31T10:27:02Z</time>
      </trkpt>
      <trkpt lat="47.30756" lon="6.16708">
        <ele>344.8</ele>
        <time>2024-07-31T10:27:03Z</time>
      </trkpt>
      <trkpt lat="47.30756" lon="6.16709">
        <ele>344.6</ele>
        <time>2024-07-31T10:27:04Z</time>
      </trkpt>
      <trkpt lat="47.30757" lon="6.1671">
        <ele>344.6</ele>
        <time>2024-07-31T10:27:05Z</time>
      </trkpt>
      <trkpt lat="47.30757" lon="6.16711">
        <ele>344.6</ele>
        <time>2024-07-31T10:27:06Z</time>
      </trkpt>
      <trkpt lat="47.30757" lon="6.16713">
        <ele>344.8</ele>
        <time>2024-07-31T10:27:07Z</time>
      </trkpt>
      <trkpt lat="47.30759" lon="6.16715">
        <ele>345</ele>
        <time>2024-07-31T10:27:08Z</time>
      </trkpt>
      <trkpt lat="47.30759" lon="6.16718">
        <ele>345</ele>
        <time>2024-07-31T10:27:09Z</time>
      </trkpt>
      <trkpt lat="47.3076" lon="6.16721">
        <ele>345</ele>
        <time>2024-07-31T10:27:10Z</time>
      </trkpt>
      <trkpt lat="47.30761" lon="6.16725">
        <ele>345.2</ele>
        <time>2024-07-31T10:27:11Z</time>
      </trkpt>
      <trkpt lat="47.30762" lon="6.16729">
        <ele>345.2</ele>
        <time>2024-07-31T10:27:12Z</time>
      </trkpt>
      <trkpt lat="47.30763" lon="6.16733">
        <ele>345</ele>
        <time>2024-07-31T10:27:13Z</time>
      </trkpt>
      <trkpt lat="47.30764" lon="6.16737">
        <ele>344.6</ele>
        <time>2024-07-31T10:27:14Z</time>
      </trkpt>
      <trkpt lat="47.30764" lon="6.16742">
        <ele>344.8</ele>
        <time>2024-07-31T10:27:15Z</time>
      </trkpt>
      <trkpt lat="47.30765" lon="6.16747">
        <ele>344.6</ele>
        <time>2024-07-31T10:27:16Z</time>
      </trkpt>
      <trkpt lat="47.30766" lon="6.16752">
        <ele>344.6</ele>
        <time>2024-07-31T10:27:17Z</time>
      </trkpt>
      <trkpt lat="47.30767" lon="6.16758">
        <ele>344.6</ele>
        <time>2024-07-31T10:27:18Z</time>
      </trkpt>
      <trkpt lat="47.30768" lon="6.16763">
        <ele>344.4</ele>
        <time>2024-07-31T10:27:19Z</time>
      </trkpt>
      <trkpt lat="47.30769" lon="6.16768">
        <ele>344.4</ele>
        <time>2024-07-31T10:27:20Z</time>
      </trkpt>
      <trkpt lat="47.3077" lon="6.16774">
        <ele>344.2</ele>
        <time>2024-07-31T10:27:21Z</time>
      </trkpt>
      <trkpt lat="47.30771" lon="6.16779">
        <ele>344.4</ele>
        <time>2024-07-31T10:27:22Z</time>
      </trkpt>
      <trkpt lat="47.30772" lon="6.16784">
        <ele>344.2</ele>
        <time>2024-07-31T10:27:23Z</time>
      </trkpt>
      <trkpt lat="47.30773" lon="6.16789">
        <ele>344</ele>
        <time>2024-07-31T10:27:24Z</time>
      </trkpt>
      <trkpt lat="47.30774" lon="6.16794">
        <ele>344</ele>
        <time>2024-07-31T10:27:25Z</time>
      </trkpt>
      <trkpt lat="47.30776" lon="6.168">
        <ele>344</ele>
        <time>2024-07-31T10:27:26Z</time>
      </trkpt>
      <trkpt lat="47.30777" lon="6.16805">
        <ele>344</ele>
        <time>2024-07-31T10:27:27Z</time>
      </trkpt>
      <trkpt lat="47.30778" lon="6.1681">
        <ele>343.8</ele>
        <time>2024-07-31T10:27:28Z</time>
      </trkpt>
      <trkpt lat="47.30779" lon="6.16815">
        <ele>344.2</ele>
        <time>2024-07-31T10:27:29Z</time>
      </trkpt>
      <trkpt lat="47.3078" lon="6.1682">
        <ele>344</ele>
        <time>2024-07-31T10:27:30Z</time>
      </trkpt>
      <trkpt lat="47.30781" lon="6.16825">
        <ele>343.8</ele>
        <time>2024-07-31T10:27:31Z</time>
      </trkpt>
      <trkpt lat="47.30782" lon="6.1683">
        <ele>343.8</ele>
        <time>2024-07-31T10:27:32Z</time>
      </trkpt>
      <trkpt lat="47.30783" lon="6.16835">
        <ele>343.6</ele>
        <time>2024-07-31T10:27:33Z</time>
      </trkpt>
      <trkpt lat="47.30784" lon="6.1684">
        <ele>343.8</ele>
        <time>2024-07-31T10:27:34Z</time>
      </trkpt>
      <trkpt lat="47.30785" lon="6.16845">
        <ele>343.8</ele>
        <time>2024-07-31T10:27:35Z</time>
      </trkpt>
      <trkpt lat="47.30786" lon="6.1685">
        <ele>343.8</ele>
        <time>2024-07-31T10:27:36Z</time>
      </trkpt>
      <trkpt lat="47.30786" lon="6.16855">
        <ele>343.8</ele>
        <time>2024-07-31T10:27:37Z</time>
      </trkpt>
      <trkpt lat="47.30787" lon="6.16861">
        <ele>343.8</ele>
        <time>2024-07-31T10:27:38Z</time>
      </trkpt>
      <trkpt lat="47.30788" lon="6.16866">
        <ele>343.6</ele>
        <time>2024-07-31T10:27:39Z</time>
      </trkpt>
      <trkpt lat="47.30788" lon="6.16872">
        <ele>343.6</ele>
        <time>2024-07-31T10:27:40Z</time>
      </trkpt>
      <trkpt lat="47.30789" lon="6.16877">
        <ele>343.6</ele>
        <time>2024-07-31T10:27:41Z</time>
      </trkpt>
      <trkpt lat="47.3079" lon="6.16883">
        <ele>343.6</ele>
        <time>2024-07-31T10:27:42Z</time>
      </trkpt>
      <trkpt lat="47.30791" lon="6.16889">
        <ele>343.6</ele>
        <time>2024-07-31T10:27:43Z</time>
      </trkpt>
      <trkpt lat="47.30792" lon="6.16895">
        <ele>343.6</ele>
        <time>2024-07-31T10:27:44Z</time>
      </trkpt>
      <trkpt lat="47.30793" lon="6.16902">
        <ele>343.6</ele>
        <time>2024-07-31T10:27:45Z</time>
      </trkpt>
      <trkpt lat="47.30794" lon="6.16908">
        <ele>343.8</ele>
        <time>2024-07-31T10:27:46Z</time>
      </trkpt>
      <trkpt lat="47.30795" lon="6.16913">
        <ele>344</ele>
        <time>2024-07-31T10:27:47Z</time>
      </trkpt>
      <trkpt lat="47.30796" lon="6.16919">
        <ele>344.8</ele>
        <time>2024-07-31T10:27:48Z</time>
      </trkpt>
      <trkpt lat="47.30797" lon="6.16924">
        <ele>344.6</ele>
        <time>2024-07-31T10:27:49Z</time>
      </trkpt>
      <trkpt lat="47.30798" lon="6.16929">
        <ele>344.8</ele>
        <time>2024-07-31T10:27:50Z</time>
      </trkpt>
      <trkpt lat="47.30799" lon="6.16934">
        <ele>345</ele>
        <time>2024-07-31T10:27:51Z</time>
      </trkpt>
      <trkpt lat="47.308" lon="6.16939">
        <ele>345</ele>
        <time>2024-07-31T10:27:52Z</time>
      </trkpt>
      <trkpt lat="47.308" lon="6.16944">
        <ele>345.2</ele>
        <time>2024-07-31T10:27:53Z</time>
      </trkpt>
      <trkpt lat="47.30801" lon="6.16949">
        <ele>345.6</ele>
        <time>2024-07-31T10:27:54Z</time>
      </trkpt>
      <trkpt lat="47.30802" lon="6.16954">
        <ele>345.6</ele>
        <time>2024-07-31T10:27:55Z</time>
      </trkpt>
      <trkpt lat="47.30803" lon="6.16958">
        <ele>345.4</ele>
        <time>2024-07-31T10:27:56Z</time>
      </trkpt>
      <trkpt lat="47.30804" lon="6.16963">
        <ele>346.2</ele>
        <time>2024-07-31T10:27:57Z</time>
      </trkpt>
      <trkpt lat="47.30805" lon="6.16968">
        <ele>346.4</ele>
        <time>2024-07-31T10:27:58Z</time>
      </trkpt>
      <trkpt lat="47.30805" lon="6.16973">
        <ele>346.6</ele>
        <time>2024-07-31T10:27:59Z</time>
      </trkpt>
      <trkpt lat="47.30806" lon="6.16978">
        <ele>346.4</ele>
        <time>2024-07-31T10:28:00Z</time>
      </trkpt>
      <trkpt lat="47.30807" lon="6.16982">
        <ele>346.8</ele>
        <time>2024-07-31T10:28:01Z</time>
      </trkpt>
      <trkpt lat="47.30808" lon="6.16986">
        <ele>347.2</ele>
        <time>2024-07-31T10:28:02Z</time>
      </trkpt>
      <trkpt lat="47.30809" lon="6.1699">
        <ele>347.4</ele>
        <time>2024-07-31T10:28:03Z</time>
      </trkpt>
      <trkpt lat="47.3081" lon="6.16994">
        <ele>347.4</ele>
        <time>2024-07-31T10:28:04Z</time>
      </trkpt>
      <trkpt lat="47.3081" lon="6.16998">
        <ele>347.4</ele>
        <time>2024-07-31T10:28:05Z</time>
      </trkpt>
      <trkpt lat="47.30811" lon="6.17002">
        <ele>347.4</ele>
        <time>2024-07-31T10:28:06Z</time>
      </trkpt>
      <trkpt lat="47.30811" lon="6.17007">
        <ele>347.6</ele>
        <time>2024-07-31T10:28:07Z</time>
      </trkpt>
      <trkpt lat="47.30812" lon="6.17012">
        <ele>347.6</ele>
        <time>2024-07-31T10:28:08Z</time>
      </trkpt>
      <trkpt lat="47.30813" lon="6.17017">
        <ele>348</ele>
        <time>2024-07-31T10:28:09Z</time>
      </trkpt>
      <trkpt lat="47.30813" lon="6.17022">
        <ele>348</ele>
        <time>2024-07-31T10:28:10Z</time>
      </trkpt>
      <trkpt lat="47.30814" lon="6.17027">
        <ele>348.6</ele>
        <time>2024-07-31T10:28:11Z</time>
      </trkpt>
      <trkpt lat="47.30814" lon="6.17032">
        <ele>348.6</ele>
        <time>2024-07-31T10:28:12Z</time>
      </trkpt>
      <trkpt lat="47.30814" lon="6.17037">
        <ele>348.6</ele>
        <time>2024-07-31T10:28:13Z</time>
      </trkpt>
      <trkpt lat="47.30815" lon="6.17041">
        <ele>348.6</ele>
        <time>2024-07-31T10:28:14Z</time>
      </trkpt>
      <trkpt lat="47.30816" lon="6.17046">
        <ele>348.8</ele>
        <time>2024-07-31T10:28:15Z</time>
      </trkpt>
      <trkpt lat="47.30817" lon="6.17051">
        <ele>349.2</ele>
        <time>2024-07-31T10:28:16Z</time>
      </trkpt>
      <trkpt lat="47.30818" lon="6.17055">
        <ele>349.4</ele>
        <time>2024-07-31T10:28:17Z</time>
      </trkpt>
      <trkpt lat="47.3082" lon="6.1706">
        <ele>349.4</ele>
        <time>2024-07-31T10:28:18Z</time>
      </trkpt>
      <trkpt lat="47.30821" lon="6.17063">
        <ele>349.6</ele>
        <time>2024-07-31T10:28:19Z</time>
      </trkpt>
      <trkpt lat="47.30823" lon="6.17066">
        <ele>349.6</ele>
        <time>2024-07-31T10:28:20Z</time>
      </trkpt>
      <trkpt lat="47.30825" lon="6.17068">
        <ele>350</ele>
        <time>2024-07-31T10:28:21Z</time>
      </trkpt>
      <trkpt lat="47.30827" lon="6.17069">
        <ele>350.2</ele>
        <time>2024-07-31T10:28:22Z</time>
      </trkpt>
      <trkpt lat="47.30829" lon="6.1707">
        <ele>350.6</ele>
        <time>2024-07-31T10:28:23Z</time>
      </trkpt>
      <trkpt lat="47.3083" lon="6.1707">
        <ele>350.6</ele>
        <time>2024-07-31T10:28:24Z</time>
      </trkpt>
      <trkpt lat="47.30832" lon="6.1707">
        <ele>351</ele>
        <time>2024-07-31T10:28:25Z</time>
      </trkpt>
      <trkpt lat="47.30834" lon="6.17069">
        <ele>351</ele>
        <time>2024-07-31T10:28:26Z</time>
      </trkpt>
      <trkpt lat="47.30835" lon="6.17069">
        <ele>351.2</ele>
        <time>2024-07-31T10:28:27Z</time>
      </trkpt>
      <trkpt lat="47.30837" lon="6.17069">
        <ele>351.6</ele>
        <time>2024-07-31T10:28:28Z</time>
      </trkpt>
      <trkpt lat="47.30839" lon="6.17068">
        <ele>351.4</ele>
        <time>2024-07-31T10:28:29Z</time>
      </trkpt>
      <trkpt lat="47.30841" lon="6.17068">
        <ele>352</ele>
        <time>2024-07-31T10:28:30Z</time>
      </trkpt>
      <trkpt lat="47.30843" lon="6.17068">
        <ele>352.2</ele>
        <time>2024-07-31T10:28:31Z</time>
      </trkpt>
      <trkpt lat="47.30845" lon="6.17067">
        <ele>352.4</ele>
        <time>2024-07-31T10:28:32Z</time>
      </trkpt>
      <trkpt lat="47.30847" lon="6.17067">
        <ele>352.8</ele>
        <time>2024-07-31T10:28:33Z</time>
      </trkpt>
      <trkpt lat="47.30849" lon="6.17067">
        <ele>353</ele>
        <time>2024-07-31T10:28:34Z</time>
      </trkpt>
      <trkpt lat="47.30851" lon="6.17067">
        <ele>353.4</ele>
        <time>2024-07-31T10:28:35Z</time>
      </trkpt>
      <trkpt lat="47.30853" lon="6.17066">
        <ele>353.6</ele>
        <time>2024-07-31T10:28:36Z</time>
      </trkpt>
      <trkpt lat="47.30855" lon="6.17066">
        <ele>353.8</ele>
        <time>2024-07-31T10:28:37Z</time>
      </trkpt>
      <trkpt lat="47.30857" lon="6.17065">
        <ele>354</ele>
        <time>2024-07-31T10:28:38Z</time>
      </trkpt>
      <trkpt lat="47.30859" lon="6.17064">
        <ele>354.2</ele>
        <time>2024-07-31T10:28:39Z</time>
      </trkpt>
      <trkpt lat="47.3086" lon="6.17064">
        <ele>354.4</ele>
        <time>2024-07-31T10:28:40Z</time>
      </trkpt>
      <trkpt lat="47.30862" lon="6.17064">
        <ele>354.6</ele>
        <time>2024-07-31T10:28:41Z</time>
      </trkpt>
      <trkpt lat="47.30864" lon="6.17065">
        <ele>354.8</ele>
        <time>2024-07-31T10:28:42Z</time>
      </trkpt>
      <trkpt lat="47.30866" lon="6.17066">
        <ele>355.2</ele>
        <time>2024-07-31T10:28:43Z</time>
      </trkpt>
      <trkpt lat="47.30868" lon="6.17067">
        <ele>355.4</ele>
        <time>2024-07-31T10:28:44Z</time>
      </trkpt>
      <trkpt lat="47.30869" lon="6.17067">
        <ele>356</ele>
        <time>2024-07-31T10:28:45Z</time>
      </trkpt>
      <trkpt lat="47.30871" lon="6.17067">
        <ele>356.2</ele>
        <time>2024-07-31T10:28:46Z</time>
      </trkpt>
      <trkpt lat="47.30872" lon="6.17067">
        <ele>356.2</ele>
        <time>2024-07-31T10:28:47Z</time>
      </trkpt>
      <trkpt lat="47.30873" lon="6.17066">
        <ele>356.2</ele>
        <time>2024-07-31T10:28:48Z</time>
      </trkpt>
      <trkpt lat="47.30874" lon="6.17066">
        <ele>356.4</ele>
        <time>2024-07-31T10:28:49Z</time>
      </trkpt>
      <trkpt lat="47.30875" lon="6.17065">
        <ele>356.4</ele>
        <time>2024-07-31T10:28:50Z</time>
      </trkpt>
      <trkpt lat="47.30876" lon="6.17065">
        <ele>356.4</ele>
        <time>2024-07-31T10:28:51Z</time>
      </trkpt>
      <trkpt lat="47.30876" lon="6.17066">
        <ele>356.6</ele>
        <time>2024-07-31T10:28:52Z</time>
      </trkpt>
      <trkpt lat="47.30876" lon="6.17066">
        <ele>356.6</ele>
        <time>2024-07-31T10:28:53Z</time>
      </trkpt>
      <trkpt lat="47.30877" lon="6.17066">
        <ele>356.6</ele>
        <time>2024-07-31T10:28:54Z</time>
      </trkpt>
      <trkpt lat="47.30877" lon="6.17066">
        <ele>356.4</ele>
        <time>2024-07-31T10:28:55Z</time>
      </trkpt>
      <trkpt lat="47.30877" lon="6.17066">
        <ele>356</ele>
        <time>2024-07-31T10:28:56Z</time>
      </trkpt>
      <trkpt lat="47.30877" lon="6.17066">
        <ele>356.2</ele>
        <time>2024-07-31T10:28:57Z</time>
      </trkpt>
      <trkpt lat="47.30877" lon="6.17066">
        <ele>356</ele>
        <time>2024-07-31T10:28:58Z</time>
      </trkpt>
      <trkpt lat="47.30877" lon="6.17066">
        <ele>356</ele>
        <time>2024-07-31T10:28:59Z</time>
      </trkpt>
      <trkpt lat="47.30877" lon="6.17066">
        <ele>356.2</ele>
        <time>2024-07-31T10:29:00Z</time>
      </trkpt>
      <trkpt lat="47.30877" lon="6.17066">
        <ele>356</ele>
        <time>2024-07-31T10:29:01Z</time>
      </trkpt>
      <trkpt lat="47.30877" lon="6.17066">
        <ele>356</ele>
        <time>2024-07-31T10:29:02Z</time>
      </trkpt>
      <trkpt lat="47.30877" lon="6.17066">
        <ele>356</ele>
        <time>2024-07-31T10:29:03Z</time>
      </trkpt>
      <trkpt lat="47.30877" lon="6.17066">
        <ele>356</ele>
        <time>2024-07-31T10:29:04Z</time>
      </trkpt>
      <trkpt lat="47.30877" lon="6.17066">
        <ele>356</ele>
        <time>2024-07-31T10:29:05Z</time>
      </trkpt>
      <trkpt lat="47.30877" lon="6.17066">
        <ele>356.2</ele>
        <time>2024-07-31T10:29:06Z</time>
      </trkpt>
      <trkpt lat="47.30877" lon="6.17066">
        <ele>356.2</ele>
        <time>2024-07-31T10:29:07Z</time>
      </trkpt>
      <trkpt lat="47.30877" lon="6.17066">
        <ele>356.2</ele>
        <time>2024-07-31T10:29:08Z</time>
      </trkpt>
      <trkpt lat="47.30877" lon="6.17066">
        <ele>356.2</ele>
        <time>2024-07-31T10:29:09Z</time>
      </trkpt>
      <trkpt lat="47.30877" lon="6.17066">
        <ele>356.2</ele>
        <time>2024-07-31T10:29:10Z</time>
      </trkpt>
      <trkpt lat="47.30877" lon="6.17066">
        <ele>356.2</ele>
        <time>2024-07-31T10:29:11Z</time>
      </trkpt>
      <trkpt lat="47.30877" lon="6.17066">
        <ele>356</ele>
        <time>2024-07-31T10:29:12Z</time>
      </trkpt>
      <trkpt lat="47.30877" lon="6.17066">
        <ele>356.2</ele>
        <time>2024-07-31T10:29:13Z</time>
      </trkpt>
      <trkpt lat="47.30877" lon="6.17066">
        <ele>356.2</ele>
        <time>2024-07-31T10:29:14Z</time>
      </trkpt>
      <trkpt lat="47.30877" lon="6.17066">
        <ele>356</ele>
        <time>2024-07-31T10:29:15Z</time>
      </trkpt>
      <trkpt lat="47.30877" lon="6.17066">
        <ele>356.2</ele>
        <time>2024-07-31T10:29:16Z</time>
      </trkpt>
      <trkpt lat="47.30877" lon="6.17066">
        <ele>356.2</ele>
        <time>2024-07-31T10:29:17Z</time>
      </trkpt>
      <trkpt lat="47.30877" lon="6.17066">
        <ele>356.2</ele>
        <time>2024-07-31T10:29:18Z</time>
      </trkpt>
      <trkpt lat="47.30877" lon="6.17066">
        <ele>356.2</ele>
        <time>2024-07-31T10:29:19Z</time>
      </trkpt>
      <trkpt lat="47.30877" lon="6.17066">
        <ele>356.2</ele>
        <time>2024-07-31T10:29:20Z</time>
      </trkpt>
      <trkpt lat="47.30877" lon="6.17066">
        <ele>356.2</ele>
        <time>2024-07-31T10:29:21Z</time>
      </trkpt>
      <trkpt lat="47.30877" lon="6.17066">
        <ele>356.2</ele>
        <time>2024-07-31T10:29:22Z</time>
      </trkpt>
      <trkpt lat="47.30877" lon="6.17066">
        <ele>356</ele>
        <time>2024-07-31T10:29:23Z</time>
      </trkpt>
      <trkpt lat="47.30877" lon="6.17066">
        <ele>356.2</ele>
        <time>2024-07-31T10:29:24Z</time>
      </trkpt>
      <trkpt lat="47.30877" lon="6.17066">
        <ele>356.2</ele>
        <time>2024-07-31T10:29:25Z</time>
      </trkpt>
      <trkpt lat="47.30877" lon="6.17066">
        <ele>356.2</ele>
        <time>2024-07-31T10:29:26Z</time>
      </trkpt>
      <trkpt lat="47.30877" lon="6.17066">
        <ele>356.2</ele>
        <time>2024-07-31T10:29:27Z</time>
      </trkpt>
      <trkpt lat="47.30877" lon="6.17066">
        <ele>356.2</ele>
        <time>2024-07-31T10:29:28Z</time>
      </trkpt>
      <trkpt lat="47.30877" lon="6.17066">
        <ele>356.2</ele>
        <time>2024-07-31T10:29:29Z</time>
      </trkpt>
      <trkpt lat="47.30877" lon="6.17066">
        <ele>356</ele>
        <time>2024-07-31T10:29:30Z</time>
      </trkpt>
      <trkpt lat="47.30877" lon="6.17066">
        <ele>356</ele>
        <time>2024-07-31T10:29:31Z</time>
      </trkpt>
      <trkpt lat="47.30877" lon="6.17066">
        <ele>356</ele>
        <time>2024-07-31T10:29:32Z</time>
      </trkpt>
      <trkpt lat="47.30877" lon="6.17066">
        <ele>356</ele>
        <time>2024-07-31T10:29:33Z</time>
      </trkpt>
      <trkpt lat="47.30877" lon="6.17066">
        <ele>356</ele>
        <time>2024-07-31T10:29:34Z</time>
      </trkpt>
      <trkpt lat="47.30877" lon="6.17066">
        <ele>356</ele>
        <time>2024-07-31T10:29:35Z</time>
      </trkpt>
      <trkpt lat="47.30877" lon="6.17066">
        <ele>356</ele>
        <time>2024-07-31T10:29:36Z</time>
      </trkpt>
      <trkpt lat="47.30877" lon="6.17066">
        <ele>356</ele>
        <time>2024-07-31T10:29:37Z</time>
      </trkpt>
      <trkpt lat="47.30877" lon="6.17066">
        <ele>356</ele>
        <time>2024-07-31T10:29:38Z</time>
      </trkpt>
      <trkpt lat="47.30877" lon="6.17066">
        <ele>356</ele>
        <time>2024-07-31T10:29:39Z</time>
      </trkpt>
      <trkpt lat="47.30877" lon="6.17066">
        <ele>356</ele>
        <time>2024-07-31T10:29:40Z</time>
      </trkpt>
      <trkpt lat="47.30877" lon="6.17066">
        <ele>355.8</ele>
        <time>2024-07-31T10:29:41Z</time>
      </trkpt>
      <trkpt lat="47.30877" lon="6.17066">
        <ele>355.8</ele>
        <time>2024-07-31T10:29:42Z</time>
      </trkpt>
      <trkpt lat="47.30877" lon="6.17066">
        <ele>355.8</ele>
        <time>2024-07-31T10:29:43Z</time>
      </trkpt>
      <trkpt lat="47.30877" lon="6.17066">
        <ele>356</ele>
        <time>2024-07-31T10:29:44Z</time>
      </trkpt>
      <trkpt lat="47.30877" lon="6.17066">
        <ele>356</ele>
        <time>2024-07-31T10:29:45Z</time>
      </trkpt>
      <trkpt lat="47.30877" lon="6.17066">
        <ele>356</ele>
        <time>2024-07-31T10:29:46Z</time>
      </trkpt>
      <trkpt lat="47.30877" lon="6.17066">
        <ele>356</ele>
        <time>2024-07-31T10:29:47Z</time>
      </trkpt>
      <trkpt lat="47.30877" lon="6.17066">
        <ele>356</ele>
        <time>2024-07-31T10:29:48Z</time>
      </trkpt>
      <trkpt lat="47.30877" lon="6.17066">
        <ele>356</ele>
        <time>2024-07-31T10:29:49Z</time>
      </trkpt>
      <trkpt lat="47.30877" lon="6.17066">
        <ele>356</ele>
        <time>2024-07-31T10:29:50Z</time>
      </trkpt>
      <trkpt lat="47.30877" lon="6.17066">
        <ele>356</ele>
        <time>2024-07-31T10:29:51Z</time>
      </trkpt>
      <trkpt lat="47.30877" lon="6.17066">
        <ele>355.8</ele>
        <time>2024-07-31T10:29:52Z</time>
      </trkpt>
      <trkpt lat="47.30877" lon="6.17066">
        <ele>355.8</ele>
        <time>2024-07-31T10:29:53Z</time>
      </trkpt>
      <trkpt lat="47.30877" lon="6.17066">
        <ele>356</ele>
        <time>2024-07-31T10:29:54Z</time>
      </trkpt>
      <trkpt lat="47.30877" lon="6.17066">
        <ele>356</ele>
        <time>2024-07-31T10:29:55Z</time>
      </trkpt>
      <trkpt lat="47.30877" lon="6.17066">
        <ele>356</ele>
        <time>2024-07-31T10:29:56Z</time>
      </trkpt>
      <trkpt lat="47.30877" lon="6.17066">
        <ele>356</ele>
        <time>2024-07-31T10:29:57Z</time>
      </trkpt>
      <trkpt lat="47.30877" lon="6.17066">
        <ele>356</ele>
        <time>2024-07-31T10:29:58Z</time>
      </trkpt>
      <trkpt lat="47.30877" lon="6.17066">
        <ele>356</ele>
        <time>2024-07-31T10:29:59Z</time>
      </trkpt>
      <trkpt lat="47.30877" lon="6.17066">
        <ele>356</ele>
        <time>2024-07-31T10:30:00Z</time>
      </trkpt>
      <trkpt lat="47.30877" lon="6.17066">
        <ele>356</ele>
        <time>2024-07-31T10:30:01Z</time>
      </trkpt>
      <trkpt lat="47.30877" lon="6.17066">
        <ele>356</ele>
        <time>2024-07-31T10:30:02Z</time>
      </trkpt>
      <trkpt lat="47.30877" lon="6.17066">
        <ele>356.2</ele>
        <time>2024-07-31T10:30:03Z</time>
      </trkpt>
      <trkpt lat="47.30877" lon="6.17066">
        <ele>356</ele>
        <time>2024-07-31T10:30:04Z</time>
      </trkpt>
      <trkpt lat="47.30877" lon="6.17066">
        <ele>356</ele>
        <time>2024-07-31T10:30:05Z</time>
      </trkpt>
      <trkpt lat="47.30877" lon="6.17066">
        <ele>356</ele>
        <time>2024-07-31T10:30:06Z</time>
      </trkpt>
      <trkpt lat="47.30877" lon="6.17066">
        <ele>356</ele>
        <time>2024-07-31T10:30:07Z</time>
      </trkpt>
      <trkpt lat="47.30877" lon="6.17066">
        <ele>356</ele>
        <time>2024-07-31T10:30:08Z</time>
      </trkpt>
      <trkpt lat="47.30877" lon="6.17066">
        <ele>356</ele>
        <time>2024-07-31T10:30:09Z</time>
      </trkpt>
      <trkpt lat="47.30877" lon="6.17066">
        <ele>355.8</ele>
        <time>2024-07-31T10:30:10Z</time>
      </trkpt>
      <trkpt lat="47.30877" lon="6.17066">
        <ele>356</ele>
        <time>2024-07-31T10:30:11Z</time>
      </trkpt>
      <trkpt lat="47.30877" lon="6.17066">
        <ele>355.8</ele>
        <time>2024-07-31T10:30:12Z</time>
      </trkpt>
      <trkpt lat="47.30877" lon="6.17066">
        <ele>356</ele>
        <time>2024-07-31T10:30:13Z</time>
      </trkpt>
      <trkpt lat="47.30877" lon="6.17066">
        <ele>355.8</ele>
        <time>2024-07-31T10:30:14Z</time>
      </trkpt>
      <trkpt lat="47.30877" lon="6.17066">
        <ele>356</ele>
        <time>2024-07-31T10:30:15Z</time>
      </trkpt>
      <trkpt lat="47.30877" lon="6.17066">
        <ele>356</ele>
        <time>2024-07-31T10:30:16Z</time>
      </trkpt>
      <trkpt lat="47.30877" lon="6.17066">
        <ele>356</ele>
        <time>2024-07-31T10:30:17Z</time>
      </trkpt>
      <trkpt lat="47.30877" lon="6.17066">
        <ele>356</ele>
        <time>2024-07-31T10:30:18Z</time>
      </trkpt>
      <trkpt lat="47.30877" lon="6.17066">
        <ele>355.8</ele>
        <time>2024-07-31T10:30:19Z</time>
      </trkpt>
      <trkpt lat="47.30877" lon="6.17066">
        <ele>355.8</ele>
        <time>2024-07-31T10:30:20Z</time>
      </trkpt>
      <trkpt lat="47.30877" lon="6.17066">
        <ele>355.8</ele>
        <time>2024-07-31T10:30:21Z</time>
      </trkpt>
      <trkpt lat="47.30877" lon="6.17066">
        <ele>355.8</ele>
        <time>2024-07-31T10:30:22Z</time>
      </trkpt>
      <trkpt lat="47.30877" lon="6.17066">
        <ele>355.8</ele>
        <time>2024-07-31T10:30:23Z</time>
      </trkpt>
      <trkpt lat="47.30877" lon="6.17066">
        <ele>355.8</ele>
        <time>2024-07-31T10:30:24Z</time>
      </trkpt>
      <trkpt lat="47.30877" lon="6.17066">
        <ele>355.8</ele>
        <time>2024-07-31T10:30:25Z</time>
      </trkpt>
      <trkpt lat="47.30877" lon="6.17066">
        <ele>355.8</ele>
        <time>2024-07-31T10:30:26Z</time>
      </trkpt>
      <trkpt lat="47.30877" lon="6.17066">
        <ele>355.8</ele>
        <time>2024-07-31T10:30:27Z</time>
      </trkpt>
      <trkpt lat="47.30877" lon="6.17066">
        <ele>355.8</ele>
        <time>2024-07-31T10:30:28Z</time>
      </trkpt>
      <trkpt lat="47.30877" lon="6.17066">
        <ele>355.8</ele>
        <time>2024-07-31T10:30:29Z</time>
      </trkpt>
      <trkpt lat="47.30877" lon="6.17066">
        <ele>355.8</ele>
        <time>2024-07-31T10:30:30Z</time>
      </trkpt>
      <trkpt lat="47.30877" lon="6.17066">
        <ele>355.8</ele>
        <time>2024-07-31T10:30:31Z</time>
      </trkpt>
      <trkpt lat="47.30877" lon="6.17066">
        <ele>355.8</ele>
        <time>2024-07-31T10:30:32Z</time>
      </trkpt>
      <trkpt lat="47.30877" lon="6.17066">
        <ele>355.8</ele>
        <time>2024-07-31T10:30:33Z</time>
      </trkpt>
      <trkpt lat="47.30877" lon="6.17066">
        <ele>355.8</ele>
        <time>2024-07-31T10:30:34Z</time>
      </trkpt>
      <trkpt lat="47.30877" lon="6.17066">
        <ele>355.8</ele>
        <time>2024-07-31T10:30:35Z</time>
      </trkpt>
      <trkpt lat="47.30877" lon="6.17066">
        <ele>356</ele>
        <time>2024-07-31T10:30:36Z</time>
      </trkpt>
      <trkpt lat="47.30877" lon="6.17066">
        <ele>356</ele>
        <time>2024-07-31T10:30:37Z</time>
      </trkpt>
      <trkpt lat="47.30877" lon="6.17066">
        <ele>355.8</ele>
        <time>2024-07-31T10:30:38Z</time>
      </trkpt>
      <trkpt lat="47.30877" lon="6.17066">
        <ele>355.8</ele>
        <time>2024-07-31T10:30:39Z</time>
      </trkpt>
      <trkpt lat="47.30877" lon="6.17066">
        <ele>355.8</ele>
        <time>2024-07-31T10:30:40Z</time>
      </trkpt>
      <trkpt lat="47.30877" lon="6.17066">
        <ele>355.6</ele>
        <time>2024-07-31T10:30:41Z</time>
      </trkpt>
      <trkpt lat="47.30877" lon="6.17066">
        <ele>355.6</ele>
        <time>2024-07-31T10:30:42Z</time>
      </trkpt>
      <trkpt lat="47.30877" lon="6.17066">
        <ele>355.6</ele>
        <time>2024-07-31T10:30:43Z</time>
      </trkpt>
      <trkpt lat="47.30877" lon="6.17066">
        <ele>355.8</ele>
        <time>2024-07-31T10:30:44Z</time>
      </trkpt>
      <trkpt lat="47.30877" lon="6.17066">
        <ele>355.8</ele>
        <time>2024-07-31T10:30:45Z</time>
      </trkpt>
      <trkpt lat="47.30877" lon="6.17066">
        <ele>355.8</ele>
        <time>2024-07-31T10:30:46Z</time>
      </trkpt>
      <trkpt lat="47.30877" lon="6.17066">
        <ele>355.8</ele>
        <time>2024-07-31T10:30:47Z</time>
      </trkpt>
      <trkpt lat="47.30877" lon="6.17066">
        <ele>355.8</ele>
        <time>2024-07-31T10:30:48Z</time>
      </trkpt>
      <trkpt lat="47.30877" lon="6.17066">
        <ele>355.6</ele>
        <time>2024-07-31T10:30:49Z</time>
      </trkpt>
      <trkpt lat="47.30877" lon="6.17066">
        <ele>355.8</ele>
        <time>2024-07-31T10:30:50Z</time>
      </trkpt>
      <trkpt lat="47.30877" lon="6.17066">
        <ele>355.8</ele>
        <time>2024-07-31T10:30:51Z</time>
      </trkpt>
      <trkpt lat="47.30877" lon="6.17066">
        <ele>355.6</ele>
        <time>2024-07-31T10:30:52Z</time>
      </trkpt>
      <trkpt lat="47.30877" lon="6.17066">
        <ele>355.8</ele>
        <time>2024-07-31T10:30:53Z</time>
      </trkpt>
      <trkpt lat="47.30877" lon="6.17066">
        <ele>355.8</ele>
        <time>2024-07-31T10:30:54Z</time>
      </trkpt>
      <trkpt lat="47.30877" lon="6.17066">
        <ele>355.8</ele>
        <time>2024-07-31T10:30:55Z</time>
      </trkpt>
      <trkpt lat="47.30877" lon="6.17066">
        <ele>355.8</ele>
        <time>2024-07-31T10:30:56Z</time>
      </trkpt>
      <trkpt lat="47.30877" lon="6.17066">
        <ele>355.6</ele>
        <time>2024-07-31T10:30:57Z</time>
      </trkpt>
      <trkpt lat="47.30877" lon="6.17066">
        <ele>355.6</ele>
        <time>2024-07-31T10:30:58Z</time>
      </trkpt>
      <trkpt lat="47.30877" lon="6.17066">
        <ele>355.6</ele>
        <time>2024-07-31T10:30:59Z</time>
      </trkpt>
      <trkpt lat="47.30877" lon="6.17066">
        <ele>355.6</ele>
        <time>2024-07-31T10:31:00Z</time>
      </trkpt>
      <trkpt lat="47.30877" lon="6.17066">
        <ele>355.6</ele>
        <time>2024-07-31T10:31:01Z</time>
      </trkpt>
      <trkpt lat="47.30877" lon="6.17066">
        <ele>355.6</ele>
        <time>2024-07-31T10:31:02Z</time>
      </trkpt>
      <trkpt lat="47.30877" lon="6.17066">
        <ele>355.6</ele>
        <time>2024-07-31T10:31:03Z</time>
      </trkpt>
      <trkpt lat="47.30877" lon="6.17066">
        <ele>355.6</ele>
        <time>2024-07-31T10:31:04Z</time>
      </trkpt>
      <trkpt lat="47.30877" lon="6.17066">
        <ele>355.8</ele>
        <time>2024-07-31T10:31:05Z</time>
      </trkpt>
      <trkpt lat="47.30877" lon="6.17066">
        <ele>355.8</ele>
        <time>2024-07-31T10:31:06Z</time>
      </trkpt>
      <trkpt lat="47.30877" lon="6.17066">
        <ele>355.8</ele>
        <time>2024-07-31T10:31:07Z</time>
      </trkpt>
      <trkpt lat="47.30877" lon="6.17066">
        <ele>355.8</ele>
        <time>2024-07-31T10:31:08Z</time>
      </trkpt>
      <trkpt lat="47.30877" lon="6.17066">
        <ele>355.8</ele>
        <time>2024-07-31T10:31:09Z</time>
      </trkpt>
      <trkpt lat="47.30877" lon="6.17066">
        <ele>355.8</ele>
        <time>2024-07-31T10:31:10Z</time>
      </trkpt>
      <trkpt lat="47.30877" lon="6.17066">
        <ele>355.6</ele>
        <time>2024-07-31T10:31:11Z</time>
      </trkpt>
      <trkpt lat="47.30877" lon="6.17066">
        <ele>355.8</ele>
        <time>2024-07-31T10:31:12Z</time>
      </trkpt>
      <trkpt lat="47.30877" lon="6.17066">
        <ele>355.8</ele>
        <time>2024-07-31T10:31:13Z</time>
      </trkpt>
      <trkpt lat="47.30877" lon="6.17066">
        <ele>355.6</ele>
        <time>2024-07-31T10:31:14Z</time>
      </trkpt>
      <trkpt lat="47.30877" lon="6.17066">
        <ele>355.6</ele>
        <time>2024-07-31T10:31:15Z</time>
      </trkpt>
      <trkpt lat="47.30877" lon="6.17066">
        <ele>355.6</ele>
        <time>2024-07-31T10:31:16Z</time>
      </trkpt>
      <trkpt lat="47.30877" lon="6.17066">
        <ele>355.6</ele>
        <time>2024-07-31T10:31:17Z</time>
      </trkpt>
      <trkpt lat="47.30877" lon="6.17066">
        <ele>355.6</ele>
        <time>2024-07-31T10:31:18Z</time>
      </trkpt>
      <trkpt lat="47.30877" lon="6.17066">
        <ele>355.8</ele>
        <time>2024-07-31T10:31:19Z</time>
      </trkpt>
      <trkpt lat="47.30877" lon="6.17066">
        <ele>355.8</ele>
        <time>2024-07-31T10:31:20Z</time>
      </trkpt>
      <trkpt lat="47.30877" lon="6.17066">
        <ele>355.8</ele>
        <time>2024-07-31T10:31:21Z</time>
      </trkpt>
      <trkpt lat="47.30877" lon="6.17066">
        <ele>355.6</ele>
        <time>2024-07-31T10:31:22Z</time>
      </trkpt>
      <trkpt lat="47.30877" lon="6.17066">
        <ele>355.6</ele>
        <time>2024-07-31T10:31:23Z</time>
      </trkpt>
      <trkpt lat="47.30877" lon="6.17066">
        <ele>355.6</ele>
        <time>2024-07-31T10:31:24Z</time>
      </trkpt>
      <trkpt lat="47.30877" lon="6.17066">
        <ele>355.8</ele>
        <time>2024-07-31T10:31:25Z</time>
      </trkpt>
      <trkpt lat="47.30877" lon="6.17066">
        <ele>355.8</ele>
        <time>2024-07-31T10:31:26Z</time>
      </trkpt>
      <trkpt lat="47.30877" lon="6.17066">
        <ele>355.8</ele>
        <time>2024-07-31T10:31:27Z</time>
      </trkpt>
      <trkpt lat="47.30877" lon="6.17066">
        <ele>355.8</ele>
        <time>2024-07-31T10:31:28Z</time>
      </trkpt>
      <trkpt lat="47.30877" lon="6.17066">
        <ele>355.6</ele>
        <time>2024-07-31T10:31:29Z</time>
      </trkpt>
      <trkpt lat="47.30877" lon="6.17066">
        <ele>355.8</ele>
        <time>2024-07-31T10:31:30Z</time>
      </trkpt>
      <trkpt lat="47.30877" lon="6.17066">
        <ele>355.6</ele>
        <time>2024-07-31T10:31:31Z</time>
      </trkpt>
      <trkpt lat="47.30877" lon="6.17066">
        <ele>355.6</ele>
        <time>2024-07-31T10:31:32Z</time>
      </trkpt>
      <trkpt lat="47.30877" lon="6.17066">
        <ele>355.6</ele>
        <time>2024-07-31T10:31:33Z</time>
      </trkpt>
      <trkpt lat="47.30877" lon="6.17066">
        <ele>355.8</ele>
        <time>2024-07-31T10:31:34Z</time>
      </trkpt>
      <trkpt lat="47.30877" lon="6.17066">
        <ele>356</ele>
        <time>2024-07-31T10:31:35Z</time>
      </trkpt>
      <trkpt lat="47.30877" lon="6.17066">
        <ele>355.8</ele>
        <time>2024-07-31T10:31:36Z</time>
      </trkpt>
      <trkpt lat="47.30877" lon="6.17066">
        <ele>355.8</ele>
        <time>2024-07-31T10:31:37Z</time>
      </trkpt>
      <trkpt lat="47.30877" lon="6.17066">
        <ele>355.8</ele>
        <time>2024-07-31T10:31:38Z</time>
      </trkpt>
      <trkpt lat="47.30877" lon="6.17066">
        <ele>355.8</ele>
        <time>2024-07-31T10:31:39Z</time>
      </trkpt>
      <trkpt lat="47.30877" lon="6.17066">
        <ele>355.8</ele>
        <time>2024-07-31T10:31:40Z</time>
      </trkpt>
      <trkpt lat="47.30877" lon="6.17066">
        <ele>355.8</ele>
        <time>2024-07-31T10:31:41Z</time>
      </trkpt>
      <trkpt lat="47.30877" lon="6.17066">
        <ele>355.8</ele>
        <time>2024-07-31T10:31:42Z</time>
      </trkpt>
      <trkpt lat="47.30877" lon="6.17066">
        <ele>355.8</ele>
        <time>2024-07-31T10:31:43Z</time>
      </trkpt>
      <trkpt lat="47.30877" lon="6.17066">
        <ele>355.6</ele>
        <time>2024-07-31T10:31:44Z</time>
      </trkpt>
      <trkpt lat="47.30877" lon="6.17066">
        <ele>355.6</ele>
        <time>2024-07-31T10:31:45Z</time>
      </trkpt>
      <trkpt lat="47.30877" lon="6.17066">
        <ele>355.8</ele>
        <time>2024-07-31T10:31:46Z</time>
      </trkpt>
      <trkpt lat="47.30877" lon="6.17066">
        <ele>355.8</ele>
        <time>2024-07-31T10:31:47Z</time>
      </trkpt>
      <trkpt lat="47.30877" lon="6.17066">
        <ele>355.8</ele>
        <time>2024-07-31T10:31:48Z</time>
      </trkpt>
      <trkpt lat="47.30877" lon="6.17066">
        <ele>355.8</ele>
        <time>2024-07-31T10:31:49Z</time>
      </trkpt>
      <trkpt lat="47.30877" lon="6.17066">
        <ele>355.8</ele>
        <time>2024-07-31T10:31:50Z</time>
      </trkpt>
      <trkpt lat="47.30877" lon="6.17066">
        <ele>355.8</ele>
        <time>2024-07-31T10:31:51Z</time>
      </trkpt>
      <trkpt lat="47.30877" lon="6.17066">
        <ele>355.6</ele>
        <time>2024-07-31T10:31:52Z</time>
      </trkpt>
      <trkpt lat="47.30877" lon="6.17066">
        <ele>355.6</ele>
        <time>2024-07-31T10:31:53Z</time>
      </trkpt>
      <trkpt lat="47.30877" lon="6.17066">
        <ele>355.8</ele>
        <time>2024-07-31T10:31:54Z</time>
      </trkpt>
      <trkpt lat="47.30877" lon="6.17066">
        <ele>355.8</ele>
        <time>2024-07-31T10:31:55Z</time>
      </trkpt>
      <trkpt lat="47.30877" lon="6.17066">
        <ele>355.8</ele>
        <time>2024-07-31T10:31:56Z</time>
      </trkpt>
      <trkpt lat="47.30877" lon="6.17066">
        <ele>355.8</ele>
        <time>2024-07-31T10:31:57Z</time>
      </trkpt>
      <trkpt lat="47.30877" lon="6.17066">
        <ele>355.8</ele>
        <time>2024-07-31T10:31:58Z</time>
      </trkpt>
      <trkpt lat="47.30877" lon="6.17066">
        <ele>355.8</ele>
        <time>2024-07-31T10:31:59Z</time>
      </trkpt>
      <trkpt lat="47.30877" lon="6.17066">
        <ele>355.8</ele>
        <time>2024-07-31T10:32:00Z</time>
      </trkpt>
      <trkpt lat="47.30877" lon="6.17066">
        <ele>355.6</ele>
        <time>2024-07-31T10:32:01Z</time>
      </trkpt>
      <trkpt lat="47.30877" lon="6.17066">
        <ele>355.6</ele>
        <time>2024-07-31T10:32:02Z</time>
      </trkpt>
      <trkpt lat="47.30877" lon="6.17066">
        <ele>355.8</ele>
        <time>2024-07-31T10:32:03Z</time>
      </trkpt>
      <trkpt lat="47.30877" lon="6.17066">
        <ele>355.8</ele>
        <time>2024-07-31T10:32:04Z</time>
      </trkpt>
      <trkpt lat="47.30877" lon="6.17066">
        <ele>355.8</ele>
        <time>2024-07-31T10:32:05Z</time>
      </trkpt>
      <trkpt lat="47.30877" lon="6.17066">
        <ele>355.6</ele>
        <time>2024-07-31T10:32:06Z</time>
      </trkpt>
      <trkpt lat="47.30877" lon="6.17066">
        <ele>355.6</ele>
        <time>2024-07-31T10:32:07Z</time>
      </trkpt>
      <trkpt lat="47.30877" lon="6.17066">
        <ele>355.8</ele>
        <time>2024-07-31T10:32:08Z</time>
      </trkpt>
      <trkpt lat="47.30877" lon="6.17066">
        <ele>355.8</ele>
        <time>2024-07-31T10:32:09Z</time>
      </trkpt>
      <trkpt lat="47.30877" lon="6.17066">
        <ele>355.6</ele>
        <time>2024-07-31T10:32:10Z</time>
      </trkpt>
      <trkpt lat="47.30877" lon="6.17066">
        <ele>355.8</ele>
        <time>2024-07-31T10:32:11Z</time>
      </trkpt>
      <trkpt lat="47.30877" lon="6.17066">
        <ele>355.8</ele>
        <time>2024-07-31T10:32:12Z</time>
      </trkpt>
      <trkpt lat="47.30877" lon="6.17066">
        <ele>355.8</ele>
        <time>2024-07-31T10:32:13Z</time>
      </trkpt>
      <trkpt lat="47.30877" lon="6.17066">
        <ele>355.6</ele>
        <time>2024-07-31T10:32:14Z</time>
      </trkpt>
      <trkpt lat="47.30877" lon="6.17066">
        <ele>355.6</ele>
        <time>2024-07-31T10:32:15Z</time>
      </trkpt>
      <trkpt lat="47.30877" lon="6.17066">
        <ele>355.8</ele>
        <time>2024-07-31T10:32:16Z</time>
      </trkpt>
      <trkpt lat="47.30877" lon="6.17066">
        <ele>355.6</ele>
        <time>2024-07-31T10:32:17Z</time>
      </trkpt>
      <trkpt lat="47.30877" lon="6.17066">
        <ele>355.6</ele>
        <time>2024-07-31T10:32:18Z</time>
      </trkpt>
      <trkpt lat="47.30877" lon="6.17066">
        <ele>355.6</ele>
        <time>2024-07-31T10:32:19Z</time>
      </trkpt>
      <trkpt lat="47.30877" lon="6.17066">
        <ele>355.6</ele>
        <time>2024-07-31T10:32:20Z</time>
      </trkpt>
      <trkpt lat="47.30877" lon="6.17066">
        <ele>355.6</ele>
        <time>2024-07-31T10:32:21Z</time>
      </trkpt>
      <trkpt lat="47.30877" lon="6.17066">
        <ele>355.6</ele>
        <time>2024-07-31T10:32:22Z</time>
      </trkpt>
      <trkpt lat="47.30877" lon="6.17066">
        <ele>355.6</ele>
        <time>2024-07-31T10:32:23Z</time>
      </trkpt>
      <trkpt lat="47.30877" lon="6.17066">
        <ele>355.6</ele>
        <time>2024-07-31T10:32:24Z</time>
      </trkpt>
      <trkpt lat="47.30877" lon="6.17066">
        <ele>355.6</ele>
        <time>2024-07-31T10:32:25Z</time>
      </trkpt>
      <trkpt lat="47.30877" lon="6.17066">
        <ele>355.8</ele>
        <time>2024-07-31T10:32:26Z</time>
      </trkpt>
      <trkpt lat="47.30877" lon="6.17066">
        <ele>355.6</ele>
        <time>2024-07-31T10:32:27Z</time>
      </trkpt>
      <trkpt lat="47.30877" lon="6.17066">
        <ele>355.6</ele>
        <time>2024-07-31T10:32:28Z</time>
      </trkpt>
      <trkpt lat="47.30877" lon="6.17066">
        <ele>355.6</ele>
        <time>2024-07-31T10:32:29Z</time>
      </trkpt>
      <trkpt lat="47.30877" lon="6.17066">
        <ele>355.6</ele>
        <time>2024-07-31T10:32:30Z</time>
      </trkpt>
      <trkpt lat="47.30877" lon="6.17066">
        <ele>355.6</ele>
        <time>2024-07-31T10:32:31Z</time>
      </trkpt>
      <trkpt lat="47.30877" lon="6.17066">
        <ele>355.6</ele>
        <time>2024-07-31T10:32:32Z</time>
      </trkpt>
      <trkpt lat="47.30877" lon="6.17066">
        <ele>355.6</ele>
        <time>2024-07-31T10:32:33Z</time>
      </trkpt>
      <trkpt lat="47.30877" lon="6.17066">
        <ele>355.6</ele>
        <time>2024-07-31T10:32:34Z</time>
      </trkpt>
      <trkpt lat="47.30877" lon="6.17066">
        <ele>355.6</ele>
        <time>2024-07-31T10:32:35Z</time>
      </trkpt>
      <trkpt lat="47.30877" lon="6.17066">
        <ele>355.6</ele>
        <time>2024-07-31T10:32:36Z</time>
      </trkpt>
      <trkpt lat="47.30877" lon="6.17066">
        <ele>355.4</ele>
        <time>2024-07-31T10:32:37Z</time>
      </trkpt>
      <trkpt lat="47.30877" lon="6.17066">
        <ele>355.4</ele>
        <time>2024-07-31T10:32:38Z</time>
      </trkpt>
      <trkpt lat="47.30877" lon="6.17066">
        <ele>355.6</ele>
        <time>2024-07-31T10:32:39Z</time>
      </trkpt>
      <trkpt lat="47.30877" lon="6.17066">
        <ele>355.6</ele>
        <time>2024-07-31T10:32:40Z</time>
      </trkpt>
      <trkpt lat="47.30877" lon="6.17066">
        <ele>355.4</ele>
        <time>2024-07-31T10:32:41Z</time>
      </trkpt>
      <trkpt lat="47.30877" lon="6.17066">
        <ele>355.6</ele>
        <time>2024-07-31T10:32:42Z</time>
      </trkpt>
      <trkpt lat="47.30877" lon="6.17066">
        <ele>355.6</ele>
        <time>2024-07-31T10:32:43Z</time>
      </trkpt>
      <trkpt lat="47.30877" lon="6.17066">
        <ele>355.6</ele>
        <time>2024-07-31T10:32:44Z</time>
      </trkpt>
      <trkpt lat="47.30877" lon="6.17066">
        <ele>355.6</ele>
        <time>2024-07-31T10:32:45Z</time>
      </trkpt>
      <trkpt lat="47.30877" lon="6.17066">
        <ele>355.4</ele>
        <time>2024-07-31T10:32:46Z</time>
      </trkpt>
      <trkpt lat="47.30877" lon="6.17066">
        <ele>355.4</ele>
        <time>2024-07-31T10:32:47Z</time>
      </trkpt>
      <trkpt lat="47.30877" lon="6.17066">
        <ele>355.6</ele>
        <time>2024-07-31T10:32:48Z</time>
      </trkpt>
      <trkpt lat="47.30877" lon="6.17066">
        <ele>355.6</ele>
        <time>2024-07-31T10:32:49Z</time>
      </trkpt>
      <trkpt lat="47.30877" lon="6.17066">
        <ele>355.6</ele>
        <time>2024-07-31T10:32:50Z</time>
      </trkpt>
      <trkpt lat="47.30877" lon="6.17066">
        <ele>355.6</ele>
        <time>2024-07-31T10:32:51Z</time>
      </trkpt>
      <trkpt lat="47.30877" lon="6.17066">
        <ele>355.6</ele>
        <time>2024-07-31T10:32:52Z</time>
      </trkpt>
      <trkpt lat="47.30877" lon="6.17066">
        <ele>355.6</ele>
        <time>2024-07-31T10:32:53Z</time>
      </trkpt>
      <trkpt lat="47.30877" lon="6.17066">
        <ele>355.6</ele>
        <time>2024-07-31T10:32:54Z</time>
      </trkpt>
      <trkpt lat="47.30877" lon="6.17066">
        <ele>355.6</ele>
        <time>2024-07-31T10:32:55Z</time>
      </trkpt>
      <trkpt lat="47.30877" lon="6.17066">
        <ele>355.6</ele>
        <time>2024-07-31T10:32:56Z</time>
      </trkpt>
      <trkpt lat="47.30877" lon="6.17066">
        <ele>355.6</ele>
        <time>2024-07-31T10:32:57Z</time>
      </trkpt>
      <trkpt lat="47.30877" lon="6.17066">
        <ele>355.6</ele>
        <time>2024-07-31T10:32:58Z</time>
      </trkpt>
      <trkpt lat="47.30877" lon="6.17066">
        <ele>355.6</ele>
        <time>2024-07-31T10:32:59Z</time>
      </trkpt>
      <trkpt lat="47.30877" lon="6.17066">
        <ele>355.6</ele>
        <time>2024-07-31T10:33:00Z</time>
      </trkpt>
      <trkpt lat="47.30877" lon="6.17066">
        <ele>355.6</ele>
        <time>2024-07-31T10:33:01Z</time>
      </trkpt>
      <trkpt lat="47.30877" lon="6.17066">
        <ele>355.6</ele>
        <time>2024-07-31T10:33:02Z</time>
      </trkpt>
      <trkpt lat="47.30877" lon="6.17066">
        <ele>355.6</ele>
        <time>2024-07-31T10:33:03Z</time>
      </trkpt>
      <trkpt lat="47.30877" lon="6.17066">
        <ele>355.6</ele>
        <time>2024-07-31T10:33:04Z</time>
      </trkpt>
      <trkpt lat="47.30877" lon="6.17066">
        <ele>355.6</ele>
        <time>2024-07-31T10:33:05Z</time>
      </trkpt>
      <trkpt lat="47.30877" lon="6.17066">
        <ele>355.6</ele>
        <time>2024-07-31T10:33:06Z</time>
      </trkpt>
      <trkpt lat="47.30877" lon="6.17066">
        <ele>355.6</ele>
        <time>2024-07-31T10:33:07Z</time>
      </trkpt>
      <trkpt lat="47.30877" lon="6.17066">
        <ele>355.6</ele>
        <time>2024-07-31T10:33:08Z</time>
      </trkpt>
      <trkpt lat="47.30877" lon="6.17066">
        <ele>355.6</ele>
        <time>2024-07-31T10:33:09Z</time>
      </trkpt>
      <trkpt lat="47.30877" lon="6.17066">
        <ele>355.6</ele>
        <time>2024-07-31T10:33:10Z</time>
      </trkpt>
      <trkpt lat="47.30877" lon="6.17066">
        <ele>355.4</ele>
        <time>2024-07-31T10:33:11Z</time>
      </trkpt>
      <trkpt lat="47.30877" lon="6.17066">
        <ele>355.4</ele>
        <time>2024-07-31T10:33:12Z</time>
      </trkpt>
      <trkpt lat="47.30877" lon="6.17066">
        <ele>355.4</ele>
        <time>2024-07-31T10:33:13Z</time>
      </trkpt>
      <trkpt lat="47.30877" lon="6.17066">
        <ele>355.4</ele>
        <time>2024-07-31T10:33:14Z</time>
      </trkpt>
      <trkpt lat="47.30877" lon="6.17066">
        <ele>355.6</ele>
        <time>2024-07-31T10:33:15Z</time>
      </trkpt>
      <trkpt lat="47.30877" lon="6.17066">
        <ele>355.6</ele>
        <time>2024-07-31T10:33:16Z</time>
      </trkpt>
      <trkpt lat="47.30877" lon="6.17066">
        <ele>355.6</ele>
        <time>2024-07-31T10:33:17Z</time>
      </trkpt>
      <trkpt lat="47.30877" lon="6.17066">
        <ele>355.6</ele>
        <time>2024-07-31T10:33:18Z</time>
      </trkpt>
      <trkpt lat="47.30877" lon="6.17066">
        <ele>355.6</ele>
        <time>2024-07-31T10:33:19Z</time>
      </trkpt>
      <trkpt lat="47.30877" lon="6.17066">
        <ele>355.6</ele>
        <time>2024-07-31T10:33:20Z</time>
      </trkpt>
      <trkpt lat="47.30877" lon="6.17066">
        <ele>355.6</ele>
        <time>2024-07-31T10:33:21Z</time>
      </trkpt>
      <trkpt lat="47.30877" lon="6.17066">
        <ele>355.8</ele>
        <time>2024-07-31T10:33:22Z</time>
      </trkpt>
      <trkpt lat="47.30877" lon="6.17066">
        <ele>355.6</ele>
        <time>2024-07-31T10:33:23Z</time>
      </trkpt>
      <trkpt lat="47.30877" lon="6.17066">
        <ele>355.4</ele>
        <time>2024-07-31T10:33:24Z</time>
      </trkpt>
      <trkpt lat="47.30877" lon="6.17066">
        <ele>355.4</ele>
        <time>2024-07-31T10:33:25Z</time>
      </trkpt>
      <trkpt lat="47.30877" lon="6.17066">
        <ele>355.4</ele>
        <time>2024-07-31T10:33:26Z</time>
      </trkpt>
      <trkpt lat="47.30877" lon="6.17066">
        <ele>355.4</ele>
        <time>2024-07-31T10:33:27Z</time>
      </trkpt>
      <trkpt lat="47.30877" lon="6.17066">
        <ele>355.4</ele>
        <time>2024-07-31T10:33:28Z</time>
      </trkpt>
      <trkpt lat="47.30877" lon="6.17066">
        <ele>355.4</ele>
        <time>2024-07-31T10:33:29Z</time>
      </trkpt>
      <trkpt lat="47.30877" lon="6.17066">
        <ele>355.6</ele>
        <time>2024-07-31T10:33:30Z</time>
      </trkpt>
      <trkpt lat="47.30877" lon="6.17066">
        <ele>355.6</ele>
        <time>2024-07-31T10:33:31Z</time>
      </trkpt>
      <trkpt lat="47.30877" lon="6.17066">
        <ele>355.6</ele>
        <time>2024-07-31T10:33:32Z</time>
      </trkpt>
      <trkpt lat="47.30877" lon="6.17066">
        <ele>355.6</ele>
        <time>2024-07-31T10:33:33Z</time>
      </trkpt>
      <trkpt lat="47.30877" lon="6.17066">
        <ele>355.4</ele>
        <time>2024-07-31T10:33:34Z</time>
      </trkpt>
      <trkpt lat="47.30877" lon="6.17066">
        <ele>355.6</ele>
        <time>2024-07-31T10:33:35Z</time>
      </trkpt>
      <trkpt lat="47.30877" lon="6.17066">
        <ele>355.6</ele>
        <time>2024-07-31T10:33:36Z</time>
      </trkpt>
      <trkpt lat="47.30877" lon="6.17066">
        <ele>355.6</ele>
        <time>2024-07-31T10:33:37Z</time>
      </trkpt>
      <trkpt lat="47.30877" lon="6.17066">
        <ele>355.6</ele>
        <time>2024-07-31T10:33:38Z</time>
      </trkpt>
      <trkpt lat="47.30877" lon="6.17066">
        <ele>355.6</ele>
        <time>2024-07-31T10:33:39Z</time>
      </trkpt>
      <trkpt lat="47.30877" lon="6.17066">
        <ele>355.6</ele>
        <time>2024-07-31T10:33:40Z</time>
      </trkpt>
      <trkpt lat="47.30877" lon="6.17066">
        <ele>355.6</ele>
        <time>2024-07-31T10:33:41Z</time>
      </trkpt>
      <trkpt lat="47.30877" lon="6.17066">
        <ele>355.4</ele>
        <time>2024-07-31T10:33:42Z</time>
      </trkpt>
      <trkpt lat="47.30877" lon="6.17066">
        <ele>355.4</ele>
        <time>2024-07-31T10:33:43Z</time>
      </trkpt>
      <trkpt lat="47.30877" lon="6.17066">
        <ele>355.4</ele>
        <time>2024-07-31T10:33:44Z</time>
      </trkpt>
      <trkpt lat="47.30877" lon="6.17066">
        <ele>355.6</ele>
        <time>2024-07-31T10:33:45Z</time>
      </trkpt>
      <trkpt lat="47.30877" lon="6.17066">
        <ele>355.6</ele>
        <time>2024-07-31T10:33:46Z</time>
      </trkpt>
      <trkpt lat="47.30877" lon="6.17066">
        <ele>355.6</ele>
        <time>2024-07-31T10:33:47Z</time>
      </trkpt>
      <trkpt lat="47.30877" lon="6.17066">
        <ele>355.6</ele>
        <time>2024-07-31T10:33:48Z</time>
      </trkpt>
      <trkpt lat="47.30877" lon="6.17066">
        <ele>355.6</ele>
        <time>2024-07-31T10:33:49Z</time>
      </trkpt>
      <trkpt lat="47.30877" lon="6.17066">
        <ele>355.6</ele>
        <time>2024-07-31T10:33:50Z</time>
      </trkpt>
      <trkpt lat="47.30877" lon="6.17066">
        <ele>355.6</ele>
        <time>2024-07-31T10:33:51Z</time>
      </trkpt>
      <trkpt lat="47.30877" lon="6.17066">
        <ele>355.6</ele>
        <time>2024-07-31T10:33:52Z</time>
      </trkpt>
      <trkpt lat="47.30877" lon="6.17066">
        <ele>355.6</ele>
        <time>2024-07-31T10:33:53Z</time>
      </trkpt>
      <trkpt lat="47.30877" lon="6.17066">
        <ele>355.4</ele>
        <time>2024-07-31T10:33:54Z</time>
      </trkpt>
      <trkpt lat="47.30877" lon="6.17066">
        <ele>355.6</ele>
        <time>2024-07-31T10:33:55Z</time>
      </trkpt>
      <trkpt lat="47.30877" lon="6.17066">
        <ele>355.6</ele>
        <time>2024-07-31T10:33:56Z</time>
      </trkpt>
      <trkpt lat="47.30877" lon="6.17066">
        <ele>355.4</ele>
        <time>2024-07-31T10:33:57Z</time>
      </trkpt>
      <trkpt lat="47.30877" lon="6.17066">
        <ele>355.4</ele>
        <time>2024-07-31T10:33:58Z</time>
      </trkpt>
      <trkpt lat="47.30877" lon="6.17066">
        <ele>355.6</ele>
        <time>2024-07-31T10:33:59Z</time>
      </trkpt>
      <trkpt lat="47.30877" lon="6.17066">
        <ele>355.6</ele>
        <time>2024-07-31T10:34:00Z</time>
      </trkpt>
      <trkpt lat="47.30877" lon="6.17066">
        <ele>355.4</ele>
        <time>2024-07-31T10:34:01Z</time>
      </trkpt>
      <trkpt lat="47.30877" lon="6.17066">
        <ele>355.4</ele>
        <time>2024-07-31T10:34:02Z</time>
      </trkpt>
      <trkpt lat="47.30877" lon="6.17066">
        <ele>355.4</ele>
        <time>2024-07-31T10:34:03Z</time>
      </trkpt>
      <trkpt lat="47.30877" lon="6.17066">
        <ele>355.4</ele>
        <time>2024-07-31T10:34:04Z</time>
      </trkpt>
      <trkpt lat="47.30877" lon="6.17066">
        <ele>355.4</ele>
        <time>2024-07-31T10:34:05Z</time>
      </trkpt>
      <trkpt lat="47.30877" lon="6.17066">
        <ele>355.4</ele>
        <time>2024-07-31T10:34:06Z</time>
      </trkpt>
      <trkpt lat="47.30877" lon="6.17066">
        <ele>355.4</ele>
        <time>2024-07-31T10:34:07Z</time>
      </trkpt>
      <trkpt lat="47.30877" lon="6.17066">
        <ele>355.4</ele>
        <time>2024-07-31T10:34:08Z</time>
      </trkpt>
      <trkpt lat="47.30877" lon="6.17066">
        <ele>355.4</ele>
        <time>2024-07-31T10:34:09Z</time>
      </trkpt>
      <trkpt lat="47.30877" lon="6.17066">
        <ele>355.4</ele>
        <time>2024-07-31T10:34:10Z</time>
      </trkpt>
      <trkpt lat="47.30877" lon="6.17066">
        <ele>355.4</ele>
        <time>2024-07-31T10:34:11Z</time>
      </trkpt>
      <trkpt lat="47.30877" lon="6.17066">
        <ele>355.4</ele>
        <time>2024-07-31T10:34:12Z</time>
      </trkpt>
      <trkpt lat="47.30877" lon="6.17066">
        <ele>355.6</ele>
        <time>2024-07-31T10:34:13Z</time>
      </trkpt>
      <trkpt lat="47.30877" lon="6.17066">
        <ele>355.6</ele>
        <time>2024-07-31T10:34:14Z</time>
      </trkpt>
      <trkpt lat="47.30877" lon="6.17066">
        <ele>355.4</ele>
        <time>2024-07-31T10:34:15Z</time>
      </trkpt>
      <trkpt lat="47.30877" lon="6.17066">
        <ele>355.6</ele>
        <time>2024-07-31T10:34:16Z</time>
      </trkpt>
      <trkpt lat="47.30877" lon="6.17066">
        <ele>355.4</ele>
        <time>2024-07-31T10:34:17Z</time>
      </trkpt>
      <trkpt lat="47.30877" lon="6.17066">
        <ele>355.6</ele>
        <time>2024-07-31T10:34:18Z</time>
      </trkpt>
      <trkpt lat="47.30877" lon="6.17066">
        <ele>355.4</ele>
        <time>2024-07-31T10:34:19Z</time>
      </trkpt>
      <trkpt lat="47.30877" lon="6.17066">
        <ele>355.4</ele>
        <time>2024-07-31T10:34:20Z</time>
      </trkpt>
      <trkpt lat="47.30877" lon="6.17066">
        <ele>355.4</ele>
        <time>2024-07-31T10:34:21Z</time>
      </trkpt>
      <trkpt lat="47.30877" lon="6.17066">
        <ele>355.6</ele>
        <time>2024-07-31T10:34:22Z</time>
      </trkpt>
      <trkpt lat="47.30877" lon="6.17066">
        <ele>355.4</ele>
        <time>2024-07-31T10:34:23Z</time>
      </trkpt>
      <trkpt lat="47.30877" lon="6.17066">
        <ele>355.4</ele>
        <time>2024-07-31T10:34:24Z</time>
      </trkpt>
      <trkpt lat="47.30877" lon="6.17066">
        <ele>355.6</ele>
        <time>2024-07-31T10:34:25Z</time>
      </trkpt>
      <trkpt lat="47.30877" lon="6.17066">
        <ele>355.6</ele>
        <time>2024-07-31T10:34:26Z</time>
      </trkpt>
      <trkpt lat="47.30877" lon="6.17066">
        <ele>355.6</ele>
        <time>2024-07-31T10:34:27Z</time>
      </trkpt>
      <trkpt lat="47.30877" lon="6.17066">
        <ele>355.6</ele>
        <time>2024-07-31T10:34:28Z</time>
      </trkpt>
      <trkpt lat="47.30877" lon="6.17066">
        <ele>355.4</ele>
        <time>2024-07-31T10:34:29Z</time>
      </trkpt>
      <trkpt lat="47.30877" lon="6.17066">
        <ele>355.6</ele>
        <time>2024-07-31T10:34:30Z</time>
      </trkpt>
      <trkpt lat="47.30877" lon="6.17066">
        <ele>355.4</ele>
        <time>2024-07-31T10:34:31Z</time>
      </trkpt>
      <trkpt lat="47.30877" lon="6.17066">
        <ele>355.4</ele>
        <time>2024-07-31T10:34:32Z</time>
      </trkpt>
      <trkpt lat="47.30877" lon="6.17066">
        <ele>355.6</ele>
        <time>2024-07-31T10:34:33Z</time>
      </trkpt>
      <trkpt lat="47.30877" lon="6.17066">
        <ele>355.6</ele>
        <time>2024-07-31T10:34:34Z</time>
      </trkpt>
      <trkpt lat="47.30877" lon="6.17066">
        <ele>355.6</ele>
        <time>2024-07-31T10:34:35Z</time>
      </trkpt>
      <trkpt lat="47.30877" lon="6.17066">
        <ele>355.6</ele>
        <time>2024-07-31T10:34:36Z</time>
      </trkpt>
      <trkpt lat="47.30877" lon="6.17066">
        <ele>355.6</ele>
        <time>2024-07-31T10:34:37Z</time>
      </trkpt>
      <trkpt lat="47.30877" lon="6.17066">
        <ele>355.4</ele>
        <time>2024-07-31T10:34:38Z</time>
      </trkpt>
      <trkpt lat="47.30877" lon="6.17066">
        <ele>355.4</ele>
        <time>2024-07-31T10:34:39Z</time>
      </trkpt>
      <trkpt lat="47.30877" lon="6.17066">
        <ele>355.6</ele>
        <time>2024-07-31T10:34:40Z</time>
      </trkpt>
      <trkpt lat="47.30877" lon="6.17066">
        <ele>355.4</ele>
        <time>2024-07-31T10:34:41Z</time>
      </trkpt>
      <trkpt lat="47.30877" lon="6.17066">
        <ele>355.4</ele>
        <time>2024-07-31T10:34:42Z</time>
      </trkpt>
      <trkpt lat="47.30877" lon="6.17066">
        <ele>355.4</ele>
        <time>2024-07-31T10:34:43Z</time>
      </trkpt>
      <trkpt lat="47.30877" lon="6.17066">
        <ele>355.4</ele>
        <time>2024-07-31T10:34:44Z</time>
      </trkpt>
      <trkpt lat="47.30877" lon="6.17066">
        <ele>355.4</ele>
        <time>2024-07-31T10:34:45Z</time>
      </trkpt>
      <trkpt lat="47.30877" lon="6.17066">
        <ele>355.4</ele>
        <time>2024-07-31T10:34:46Z</time>
      </trkpt>
      <trkpt lat="47.30877" lon="6.17066">
        <ele>355.4</ele>
        <time>2024-07-31T10:34:47Z</time>
      </trkpt>
      <trkpt lat="47.30877" lon="6.17066">
        <ele>355.2</ele>
        <time>2024-07-31T10:34:48Z</time>
      </trkpt>
      <trkpt lat="47.30877" lon="6.17066">
        <ele>355.4</ele>
        <time>2024-07-31T10:34:49Z</time>
      </trkpt>
      <trkpt lat="47.30877" lon="6.17066">
        <ele>355.2</ele>
        <time>2024-07-31T10:34:50Z</time>
      </trkpt>
      <trkpt lat="47.30877" lon="6.17066">
        <ele>355.4</ele>
        <time>2024-07-31T10:34:51Z</time>
      </trkpt>
      <trkpt lat="47.30877" lon="6.17066">
        <ele>355.4</ele>
        <time>2024-07-31T10:34:52Z</time>
      </trkpt>
      <trkpt lat="47.30877" lon="6.17066">
        <ele>355.4</ele>
        <time>2024-07-31T10:34:53Z</time>
      </trkpt>
      <trkpt lat="47.30877" lon="6.17066">
        <ele>355.4</ele>
        <time>2024-07-31T10:34:54Z</time>
      </trkpt>
      <trkpt lat="47.30877" lon="6.17066">
        <ele>355.4</ele>
        <time>2024-07-31T10:34:55Z</time>
      </trkpt>
      <trkpt lat="47.30877" lon="6.17066">
        <ele>355.2</ele>
        <time>2024-07-31T10:34:56Z</time>
      </trkpt>
      <trkpt lat="47.30877" lon="6.17066">
        <ele>355.2</ele>
        <time>2024-07-31T10:34:57Z</time>
      </trkpt>
      <trkpt lat="47.30877" lon="6.17066">
        <ele>355.2</ele>
        <time>2024-07-31T10:34:58Z</time>
      </trkpt>
      <trkpt lat="47.30877" lon="6.17066">
        <ele>355.2</ele>
        <time>2024-07-31T10:34:59Z</time>
      </trkpt>
      <trkpt lat="47.30877" lon="6.17066">
        <ele>355.2</ele>
        <time>2024-07-31T10:35:00Z</time>
      </trkpt>
      <trkpt lat="47.30877" lon="6.17066">
        <ele>355.4</ele>
        <time>2024-07-31T10:35:01Z</time>
      </trkpt>
      <trkpt lat="47.30877" lon="6.17066">
        <ele>355.4</ele>
        <time>2024-07-31T10:35:02Z</time>
      </trkpt>
      <trkpt lat="47.30877" lon="6.17066">
        <ele>355.4</ele>
        <time>2024-07-31T10:35:03Z</time>
      </trkpt>
      <trkpt lat="47.30877" lon="6.17066">
        <ele>355.4</ele>
        <time>2024-07-31T10:35:04Z</time>
      </trkpt>
      <trkpt lat="47.30877" lon="6.17066">
        <ele>355.4</ele>
        <time>2024-07-31T10:35:05Z</time>
      </trkpt>
      <trkpt lat="47.30877" lon="6.17066">
        <ele>355.4</ele>
        <time>2024-07-31T10:35:06Z</time>
      </trkpt>
      <trkpt lat="47.30877" lon="6.17066">
        <ele>355.4</ele>
        <time>2024-07-31T10:35:07Z</time>
      </trkpt>
      <trkpt lat="47.30877" lon="6.17066">
        <ele>355.4</ele>
        <time>2024-07-31T10:35:08Z</time>
      </trkpt>
      <trkpt lat="47.30877" lon="6.17066">
        <ele>355.2</ele>
        <time>2024-07-31T10:35:09Z</time>
      </trkpt>
      <trkpt lat="47.30877" lon="6.17066">
        <ele>355.4</ele>
        <time>2024-07-31T10:35:10Z</time>
      </trkpt>
      <trkpt lat="47.30877" lon="6.17066">
        <ele>355.2</ele>
        <time>2024-07-31T10:35:11Z</time>
      </trkpt>
      <trkpt lat="47.30877" lon="6.17066">
        <ele>355.2</ele>
        <time>2024-07-31T10:35:12Z</time>
      </trkpt>
      <trkpt lat="47.30877" lon="6.17066">
        <ele>355.2</ele>
        <time>2024-07-31T10:35:13Z</time>
      </trkpt>
      <trkpt lat="47.30877" lon="6.17066">
        <ele>355.2</ele>
        <time>2024-07-31T10:35:14Z</time>
      </trkpt>
      <trkpt lat="47.30877" lon="6.17066">
        <ele>355.4</ele>
        <time>2024-07-31T10:35:15Z</time>
      </trkpt>
      <trkpt lat="47.30877" lon="6.17066">
        <ele>355.2</ele>
        <time>2024-07-31T10:35:16Z</time>
      </trkpt>
      <trkpt lat="47.30877" lon="6.17066">
        <ele>355.2</ele>
        <time>2024-07-31T10:35:17Z</time>
      </trkpt>
      <trkpt lat="47.30877" lon="6.17066">
        <ele>355.2</ele>
        <time>2024-07-31T10:35:18Z</time>
      </trkpt>
      <trkpt lat="47.30877" lon="6.17066">
        <ele>355.2</ele>
        <time>2024-07-31T10:35:19Z</time>
      </trkpt>
      <trkpt lat="47.30877" lon="6.17066">
        <ele>355.2</ele>
        <time>2024-07-31T10:35:20Z</time>
      </trkpt>
      <trkpt lat="47.30877" lon="6.17066">
        <ele>355.2</ele>
        <time>2024-07-31T10:35:21Z</time>
      </trkpt>
      <trkpt lat="47.30877" lon="6.17066">
        <ele>355.4</ele>
        <time>2024-07-31T10:35:22Z</time>
      </trkpt>
      <trkpt lat="47.30877" lon="6.17066">
        <ele>355.2</ele>
        <time>2024-07-31T10:35:23Z</time>
      </trkpt>
      <trkpt lat="47.30877" lon="6.17066">
        <ele>355.2</ele>
        <time>2024-07-31T10:35:24Z</time>
      </trkpt>
      <trkpt lat="47.30877" lon="6.17066">
        <ele>355.2</ele>
        <time>2024-07-31T10:35:25Z</time>
      </trkpt>
      <trkpt lat="47.30877" lon="6.17066">
        <ele>355.2</ele>
        <time>2024-07-31T10:35:26Z</time>
      </trkpt>
      <trkpt lat="47.30877" lon="6.17066">
        <ele>355.2</ele>
        <time>2024-07-31T10:35:27Z</time>
      </trkpt>
      <trkpt lat="47.30877" lon="6.17066">
        <ele>355.2</ele>
        <time>2024-07-31T10:35:28Z</time>
      </trkpt>
      <trkpt lat="47.30877" lon="6.17066">
        <ele>355.4</ele>
        <time>2024-07-31T10:35:29Z</time>
      </trkpt>
      <trkpt lat="47.30877" lon="6.17066">
        <ele>355.2</ele>
        <time>2024-07-31T10:35:30Z</time>
      </trkpt>
      <trkpt lat="47.30877" lon="6.17066">
        <ele>355.2</ele>
        <time>2024-07-31T10:35:31Z</time>
      </trkpt>
      <trkpt lat="47.30877" lon="6.17066">
        <ele>355.4</ele>
        <time>2024-07-31T10:35:32Z</time>
      </trkpt>
      <trkpt lat="47.30877" lon="6.17066">
        <ele>355.2</ele>
        <time>2024-07-31T10:35:33Z</time>
      </trkpt>
      <trkpt lat="47.30877" lon="6.17066">
        <ele>355.2</ele>
        <time>2024-07-31T10:35:34Z</time>
      </trkpt>
      <trkpt lat="47.30877" lon="6.17066">
        <ele>355.2</ele>
        <time>2024-07-31T10:35:35Z</time>
      </trkpt>
      <trkpt lat="47.30877" lon="6.17066">
        <ele>355.2</ele>
        <time>2024-07-31T10:35:36Z</time>
      </trkpt>
      <trkpt lat="47.30877" lon="6.17066">
        <ele>355.2</ele>
        <time>2024-07-31T10:35:37Z</time>
      </trkpt>
      <trkpt lat="47.30877" lon="6.17066">
        <ele>355.2</ele>
        <time>2024-07-31T10:35:38Z</time>
      </trkpt>
      <trkpt lat="47.30877" lon="6.17066">
        <ele>355.2</ele>
        <time>2024-07-31T10:35:39Z</time>
      </trkpt>
      <trkpt lat="47.30877" lon="6.17066">
        <ele>355.2</ele>
        <time>2024-07-31T10:35:40Z</time>
      </trkpt>
      <trkpt lat="47.30877" lon="6.17066">
        <ele>355.2</ele>
        <time>2024-07-31T10:35:41Z</time>
      </trkpt>
      <trkpt lat="47.30877" lon="6.17066">
        <ele>355.2</ele>
        <time>2024-07-31T10:35:42Z</time>
      </trkpt>
      <trkpt lat="47.30877" lon="6.17066">
        <ele>355.2</ele>
        <time>2024-07-31T10:35:43Z</time>
      </trkpt>
      <trkpt lat="47.30877" lon="6.17066">
        <ele>355.2</ele>
        <time>2024-07-31T10:35:44Z</time>
      </trkpt>
      <trkpt lat="47.30877" lon="6.17066">
        <ele>355.2</ele>
        <time>2024-07-31T10:35:45Z</time>
      </trkpt>
      <trkpt lat="47.30877" lon="6.17066">
        <ele>355.2</ele>
        <time>2024-07-31T10:35:46Z</time>
      </trkpt>
      <trkpt lat="47.30877" lon="6.17066">
        <ele>355.2</ele>
        <time>2024-07-31T10:35:47Z</time>
      </trkpt>
      <trkpt lat="47.30877" lon="6.17066">
        <ele>355.2</ele>
        <time>2024-07-31T10:35:48Z</time>
      </trkpt>
      <trkpt lat="47.30877" lon="6.17066">
        <ele>355.2</ele>
        <time>2024-07-31T10:35:49Z</time>
      </trkpt>
      <trkpt lat="47.30877" lon="6.17066">
        <ele>355</ele>
        <time>2024-07-31T10:35:50Z</time>
      </trkpt>
      <trkpt lat="47.30877" lon="6.17066">
        <ele>355</ele>
        <time>2024-07-31T10:35:51Z</time>
      </trkpt>
      <trkpt lat="47.30877" lon="6.17066">
        <ele>355.2</ele>
        <time>2024-07-31T10:35:52Z</time>
      </trkpt>
      <trkpt lat="47.30877" lon="6.17066">
        <ele>355.2</ele>
        <time>2024-07-31T10:35:53Z</time>
      </trkpt>
      <trkpt lat="47.30877" lon="6.17066">
        <ele>355.2</ele>
        <time>2024-07-31T10:35:54Z</time>
      </trkpt>
      <trkpt lat="47.30877" lon="6.17066">
        <ele>355.2</ele>
        <time>2024-07-31T10:35:55Z</time>
      </trkpt>
      <trkpt lat="47.30877" lon="6.17066">
        <ele>355.2</ele>
        <time>2024-07-31T10:35:56Z</time>
      </trkpt>
      <trkpt lat="47.30877" lon="6.17066">
        <ele>355.2</ele>
        <time>2024-07-31T10:35:57Z</time>
      </trkpt>
      <trkpt lat="47.30877" lon="6.17066">
        <ele>355.2</ele>
        <time>2024-07-31T10:35:58Z</time>
      </trkpt>
      <trkpt lat="47.30877" lon="6.17066">
        <ele>355.2</ele>
        <time>2024-07-31T10:35:59Z</time>
      </trkpt>
      <trkpt lat="47.30877" lon="6.17066">
        <ele>355.2</ele>
        <time>2024-07-31T10:36:00Z</time>
      </trkpt>
      <trkpt lat="47.30877" lon="6.17066">
        <ele>355.2</ele>
        <time>2024-07-31T10:36:01Z</time>
      </trkpt>
      <trkpt lat="47.30877" lon="6.17066">
        <ele>355.2</ele>
        <time>2024-07-31T10:36:02Z</time>
      </trkpt>
      <trkpt lat="47.30877" lon="6.17066">
        <ele>355.2</ele>
        <time>2024-07-31T10:36:03Z</time>
      </trkpt>
      <trkpt lat="47.30877" lon="6.17066">
        <ele>355.2</ele>
        <time>2024-07-31T10:36:04Z</time>
      </trkpt>
      <trkpt lat="47.30877" lon="6.17066">
        <ele>355.2</ele>
        <time>2024-07-31T10:36:05Z</time>
      </trkpt>
      <trkpt lat="47.30877" lon="6.17066">
        <ele>355.2</ele>
        <time>2024-07-31T10:36:06Z</time>
      </trkpt>
      <trkpt lat="47.30877" lon="6.17066">
        <ele>355.2</ele>
        <time>2024-07-31T10:36:07Z</time>
      </trkpt>
      <trkpt lat="47.30877" lon="6.17066">
        <ele>355.2</ele>
        <time>2024-07-31T10:36:08Z</time>
      </trkpt>
      <trkpt lat="47.30877" lon="6.17066">
        <ele>355.2</ele>
        <time>2024-07-31T10:36:09Z</time>
      </trkpt>
      <trkpt lat="47.30877" lon="6.17066">
        <ele>355.2</ele>
        <time>2024-07-31T10:36:10Z</time>
      </trkpt>
      <trkpt lat="47.30877" lon="6.17066">
        <ele>355</ele>
        <time>2024-07-31T10:36:11Z</time>
      </trkpt>
      <trkpt lat="47.30877" lon="6.17066">
        <ele>355.2</ele>
        <time>2024-07-31T10:36:12Z</time>
      </trkpt>
      <trkpt lat="47.30877" lon="6.17066">
        <ele>355.2</ele>
        <time>2024-07-31T10:36:13Z</time>
      </trkpt>
      <trkpt lat="47.30877" lon="6.17066">
        <ele>355.2</ele>
        <time>2024-07-31T10:36:14Z</time>
      </trkpt>
      <trkpt lat="47.30877" lon="6.17066">
        <ele>355.2</ele>
        <time>2024-07-31T10:36:15Z</time>
      </trkpt>
      <trkpt lat="47.30877" lon="6.17066">
        <ele>355.2</ele>
        <time>2024-07-31T10:36:16Z</time>
      </trkpt>
      <trkpt lat="47.30876" lon="6.17066">
        <ele>355.4</ele>
        <time>2024-07-31T10:36:17Z</time>
      </trkpt>
      <trkpt lat="47.30876" lon="6.17067">
        <ele>355.4</ele>
        <time>2024-07-31T10:36:18Z</time>
      </trkpt>
      <trkpt lat="47.30875" lon="6.17068">
        <ele>355.4</ele>
        <time>2024-07-31T10:36:19Z</time>
      </trkpt>
      <trkpt lat="47.30874" lon="6.17069">
        <ele>355.4</ele>
        <time>2024-07-31T10:36:20Z</time>
      </trkpt>
      <trkpt lat="47.30874" lon="6.17071">
        <ele>355.4</ele>
        <time>2024-07-31T10:36:21Z</time>
      </trkpt>
      <trkpt lat="47.30873" lon="6.17073">
        <ele>355.4</ele>
        <time>2024-07-31T10:36:22Z</time>
      </trkpt>
      <trkpt lat="47.30873" lon="6.17076">
        <ele>355.2</ele>
        <time>2024-07-31T10:36:23Z</time>
      </trkpt>
      <trkpt lat="47.30873" lon="6.17079">
        <ele>355.2</ele>
        <time>2024-07-31T10:36:24Z</time>
      </trkpt>
      <trkpt lat="47.30873" lon="6.17083">
        <ele>355.4</ele>
        <time>2024-07-31T10:36:25Z</time>
      </trkpt>
      <trkpt lat="47.30873" lon="6.17087">
        <ele>355.4</ele>
        <time>2024-07-31T10:36:26Z</time>
      </trkpt>
      <trkpt lat="47.30873" lon="6.1709">
        <ele>355.4</ele>
        <time>2024-07-31T10:36:27Z</time>
      </trkpt>
      <trkpt lat="47.30872" lon="6.17095">
        <ele>355.4</ele>
        <time>2024-07-31T10:36:28Z</time>
      </trkpt>
      <trkpt lat="47.30872" lon="6.17099">
        <ele>355.2</ele>
        <time>2024-07-31T10:36:29Z</time>
      </trkpt>
      <trkpt lat="47.30871" lon="6.17104">
        <ele>355.2</ele>
        <time>2024-07-31T10:36:30Z</time>
      </trkpt>
      <trkpt lat="47.30871" lon="6.17108">
        <ele>354.8</ele>
        <time>2024-07-31T10:36:31Z</time>
      </trkpt>
      <trkpt lat="47.30871" lon="6.17113">
        <ele>354.8</ele>
        <time>2024-07-31T10:36:32Z</time>
      </trkpt>
      <trkpt lat="47.30871" lon="6.17118">
        <ele>355</ele>
        <time>2024-07-31T10:36:33Z</time>
      </trkpt>
      <trkpt lat="47.3087" lon="6.17123">
        <ele>355.2</ele>
        <time>2024-07-31T10:36:34Z</time>
      </trkpt>
      <trkpt lat="47.3087" lon="6.17127">
        <ele>355.2</ele>
        <time>2024-07-31T10:36:35Z</time>
      </trkpt>
      <trkpt lat="47.3087" lon="6.17131">
        <ele>355.4</ele>
        <time>2024-07-31T10:36:36Z</time>
      </trkpt>
      <trkpt lat="47.3087" lon="6.17135">
        <ele>355.2</ele>
        <time>2024-07-31T10:36:37Z</time>
      </trkpt>
      <trkpt lat="47.3087" lon="6.17139">
        <ele>355.2</ele>
        <time>2024-07-31T10:36:38Z</time>
      </trkpt>
      <trkpt lat="47.3087" lon="6.17143">
        <ele>355</ele>
        <time>2024-07-31T10:36:39Z</time>
      </trkpt>
      <trkpt lat="47.3087" lon="6.17147">
        <ele>355</ele>
        <time>2024-07-31T10:36:40Z</time>
      </trkpt>
      <trkpt lat="47.3087" lon="6.17151">
        <ele>355.2</ele>
        <time>2024-07-31T10:36:41Z</time>
      </trkpt>
      <trkpt lat="47.3087" lon="6.17154">
        <ele>355.2</ele>
        <time>2024-07-31T10:36:42Z</time>
      </trkpt>
      <trkpt lat="47.3087" lon="6.17158">
        <ele>355.2</ele>
        <time>2024-07-31T10:36:43Z</time>
      </trkpt>
      <trkpt lat="47.3087" lon="6.17161">
        <ele>355.2</ele>
        <time>2024-07-31T10:36:44Z</time>
      </trkpt>
      <trkpt lat="47.3087" lon="6.17165">
        <ele>355.2</ele>
        <time>2024-07-31T10:36:45Z</time>
      </trkpt>
      <trkpt lat="47.3087" lon="6.17169">
        <ele>355.4</ele>
        <time>2024-07-31T10:36:46Z</time>
      </trkpt>
      <trkpt lat="47.30871" lon="6.17174">
        <ele>355.2</ele>
        <time>2024-07-31T10:36:47Z</time>
      </trkpt>
      <trkpt lat="47.30871" lon="6.17178">
        <ele>355.4</ele>
        <time>2024-07-31T10:36:48Z</time>
      </trkpt>
      <trkpt lat="47.30871" lon="6.17182">
        <ele>355.4</ele>
        <time>2024-07-31T10:36:49Z</time>
      </trkpt>
      <trkpt lat="47.30871" lon="6.17185">
        <ele>355.6</ele>
        <time>2024-07-31T10:36:50Z</time>
      </trkpt>
      <trkpt lat="47.30872" lon="6.1719">
        <ele>355.6</ele>
        <time>2024-07-31T10:36:51Z</time>
      </trkpt>
      <trkpt lat="47.30872" lon="6.17194">
        <ele>355.6</ele>
        <time>2024-07-31T10:36:52Z</time>
      </trkpt>
      <trkpt lat="47.30872" lon="6.17199">
        <ele>355.8</ele>
        <time>2024-07-31T10:36:53Z</time>
      </trkpt>
      <trkpt lat="47.30872" lon="6.17204">
        <ele>355.8</ele>
        <time>2024-07-31T10:36:54Z</time>
      </trkpt>
      <trkpt lat="47.30872" lon="6.17208">
        <ele>355.8</ele>
        <time>2024-07-31T10:36:55Z</time>
      </trkpt>
      <trkpt lat="47.30872" lon="6.17213">
        <ele>355.6</ele>
        <time>2024-07-31T10:36:56Z</time>
      </trkpt>
      <trkpt lat="47.30872" lon="6.17218">
        <ele>355.8</ele>
        <time>2024-07-31T10:36:57Z</time>
      </trkpt>
      <trkpt lat="47.30872" lon="6.17222">
        <ele>355.6</ele>
        <time>2024-07-31T10:36:58Z</time>
      </trkpt>
      <trkpt lat="47.30871" lon="6.17226">
        <ele>355.8</ele>
        <time>2024-07-31T10:36:59Z</time>
      </trkpt>
      <trkpt lat="47.30871" lon="6.17231">
        <ele>356</ele>
        <time>2024-07-31T10:37:00Z</time>
      </trkpt>
      <trkpt lat="47.30871" lon="6.17236">
        <ele>355.8</ele>
        <time>2024-07-31T10:37:01Z</time>
      </trkpt>
      <trkpt lat="47.30871" lon="6.17241">
        <ele>355.8</ele>
        <time>2024-07-31T10:37:02Z</time>
      </trkpt>
      <trkpt lat="47.30871" lon="6.17245">
        <ele>356</ele>
        <time>2024-07-31T10:37:03Z</time>
      </trkpt>
      <trkpt lat="47.3087" lon="6.1725">
        <ele>356</ele>
        <time>2024-07-31T10:37:04Z</time>
      </trkpt>
      <trkpt lat="47.3087" lon="6.17254">
        <ele>356</ele>
        <time>2024-07-31T10:37:05Z</time>
      </trkpt>
      <trkpt lat="47.30869" lon="6.17259">
        <ele>356.4</ele>
        <time>2024-07-31T10:37:06Z</time>
      </trkpt>
      <trkpt lat="47.30869" lon="6.17263">
        <ele>356.2</ele>
        <time>2024-07-31T10:37:07Z</time>
      </trkpt>
      <trkpt lat="47.30869" lon="6.17267">
        <ele>356.4</ele>
        <time>2024-07-31T10:37:08Z</time>
      </trkpt>
      <trkpt lat="47.30868" lon="6.17271">
        <ele>356.6</ele>
        <time>2024-07-31T10:37:09Z</time>
      </trkpt>
      <trkpt lat="47.30868" lon="6.17275">
        <ele>356.6</ele>
        <time>2024-07-31T10:37:10Z</time>
      </trkpt>
      <trkpt lat="47.30868" lon="6.17279">
        <ele>356.8</ele>
        <time>2024-07-31T10:37:11Z</time>
      </trkpt>
      <trkpt lat="47.30867" lon="6.17283">
        <ele>356.6</ele>
        <time>2024-07-31T10:37:12Z</time>
      </trkpt>
      <trkpt lat="47.30867" lon="6.17288">
        <ele>356.4</ele>
        <time>2024-07-31T10:37:13Z</time>
      </trkpt>
      <trkpt lat="47.30866" lon="6.17292">
        <ele>356.6</ele>
        <time>2024-07-31T10:37:14Z</time>
      </trkpt>
      <trkpt lat="47.30866" lon="6.17296">
        <ele>356.6</ele>
        <time>2024-07-31T10:37:15Z</time>
      </trkpt>
      <trkpt lat="47.30867" lon="6.17299">
        <ele>356.6</ele>
        <time>2024-07-31T10:37:16Z</time>
      </trkpt>
      <trkpt lat="47.30867" lon="6.17303">
        <ele>356.6</ele>
        <time>2024-07-31T10:37:17Z</time>
      </trkpt>
      <trkpt lat="47.30867" lon="6.17307">
        <ele>356.2</ele>
        <time>2024-07-31T10:37:18Z</time>
      </trkpt>
      <trkpt lat="47.30867" lon="6.17311">
        <ele>356.4</ele>
        <time>2024-07-31T10:37:19Z</time>
      </trkpt>
      <trkpt lat="47.30866" lon="6.17315">
        <ele>356.8</ele>
        <time>2024-07-31T10:37:20Z</time>
      </trkpt>
      <trkpt lat="47.30866" lon="6.17319">
        <ele>356.8</ele>
        <time>2024-07-31T10:37:21Z</time>
      </trkpt>
      <trkpt lat="47.30865" lon="6.17322">
        <ele>356.8</ele>
        <time>2024-07-31T10:37:22Z</time>
      </trkpt>
      <trkpt lat="47.30864" lon="6.17326">
        <ele>357</ele>
        <time>2024-07-31T10:37:23Z</time>
      </trkpt>
      <trkpt lat="47.30864" lon="6.17329">
        <ele>357</ele>
        <time>2024-07-31T10:37:24Z</time>
      </trkpt>
      <trkpt lat="47.30863" lon="6.17334">
        <ele>356.6</ele>
        <time>2024-07-31T10:37:25Z</time>
      </trkpt>
      <trkpt lat="47.30862" lon="6.17338">
        <ele>356.8</ele>
        <time>2024-07-31T10:37:26Z</time>
      </trkpt>
      <trkpt lat="47.30861" lon="6.17343">
        <ele>357</ele>
        <time>2024-07-31T10:37:27Z</time>
      </trkpt>
      <trkpt lat="47.30861" lon="6.17348">
        <ele>357</ele>
        <time>2024-07-31T10:37:28Z</time>
      </trkpt>
      <trkpt lat="47.3086" lon="6.17353">
        <ele>356.6</ele>
        <time>2024-07-31T10:37:29Z</time>
      </trkpt>
      <trkpt lat="47.3086" lon="6.17359">
        <ele>356.4</ele>
        <time>2024-07-31T10:37:30Z</time>
      </trkpt>
      <trkpt lat="47.3086" lon="6.17366">
        <ele>356</ele>
        <time>2024-07-31T10:37:31Z</time>
      </trkpt>
      <trkpt lat="47.3086" lon="6.17372">
        <ele>356.4</ele>
        <time>2024-07-31T10:37:32Z</time>
      </trkpt>
      <trkpt lat="47.3086" lon="6.17378">
        <ele>356</ele>
        <time>2024-07-31T10:37:33Z</time>
      </trkpt>
      <trkpt lat="47.30861" lon="6.17385">
        <ele>356.2</ele>
        <time>2024-07-31T10:37:34Z</time>
      </trkpt>
      <trkpt lat="47.30861" lon="6.17391">
        <ele>356</ele>
        <time>2024-07-31T10:37:35Z</time>
      </trkpt>
      <trkpt lat="47.30862" lon="6.17397">
        <ele>355.8</ele>
        <time>2024-07-31T10:37:36Z</time>
      </trkpt>
      <trkpt lat="47.30863" lon="6.17404">
        <ele>355.6</ele>
        <time>2024-07-31T10:37:37Z</time>
      </trkpt>
      <trkpt lat="47.30863" lon="6.1741">
        <ele>355.8</ele>
        <time>2024-07-31T10:37:38Z</time>
      </trkpt>
      <trkpt lat="47.30863" lon="6.17416">
        <ele>355.8</ele>
        <time>2024-07-31T10:37:39Z</time>
      </trkpt>
      <trkpt lat="47.30864" lon="6.17422">
        <ele>355.8</ele>
        <time>2024-07-31T10:37:40Z</time>
      </trkpt>
      <trkpt lat="47.30864" lon="6.17427">
        <ele>355.6</ele>
        <time>2024-07-31T10:37:41Z</time>
      </trkpt>
      <trkpt lat="47.30864" lon="6.17432">
        <ele>355.4</ele>
        <time>2024-07-31T10:37:42Z</time>
      </trkpt>
      <trkpt lat="47.30865" lon="6.17437">
        <ele>355.6</ele>
        <time>2024-07-31T10:37:43Z</time>
      </trkpt>
      <trkpt lat="47.30866" lon="6.17442">
        <ele>355.8</ele>
        <time>2024-07-31T10:37:44Z</time>
      </trkpt>
      <trkpt lat="47.30866" lon="6.17448">
        <ele>355.4</ele>
        <time>2024-07-31T10:37:45Z</time>
      </trkpt>
      <trkpt lat="47.30867" lon="6.17453">
        <ele>355.4</ele>
        <time>2024-07-31T10:37:46Z</time>
      </trkpt>
      <trkpt lat="47.30868" lon="6.17459">
        <ele>355.4</ele>
        <time>2024-07-31T10:37:47Z</time>
      </trkpt>
      <trkpt lat="47.30869" lon="6.17465">
        <ele>355.6</ele>
        <time>2024-07-31T10:37:48Z</time>
      </trkpt>
      <trkpt lat="47.30871" lon="6.17472">
        <ele>355.4</ele>
        <time>2024-07-31T10:37:49Z</time>
      </trkpt>
      <trkpt lat="47.30872" lon="6.17478">
        <ele>355.2</ele>
        <time>2024-07-31T10:37:50Z</time>
      </trkpt>
      <trkpt lat="47.30873" lon="6.17484">
        <ele>355.2</ele>
        <time>2024-07-31T10:37:51Z</time>
      </trkpt>
      <trkpt lat="47.30874" lon="6.1749">
        <ele>355.2</ele>
        <time>2024-07-31T10:37:52Z</time>
      </trkpt>
      <trkpt lat="47.30875" lon="6.17496">
        <ele>355.2</ele>
        <time>2024-07-31T10:37:53Z</time>
      </trkpt>
      <trkpt lat="47.30875" lon="6.17503">
        <ele>355</ele>
        <time>2024-07-31T10:37:54Z</time>
      </trkpt>
      <trkpt lat="47.30876" lon="6.17508">
        <ele>355.2</ele>
        <time>2024-07-31T10:37:55Z</time>
      </trkpt>
      <trkpt lat="47.30876" lon="6.17514">
        <ele>355.4</ele>
        <time>2024-07-31T10:37:56Z</time>
      </trkpt>
      <trkpt lat="47.30876" lon="6.17519">
        <ele>355.4</ele>
        <time>2024-07-31T10:37:57Z</time>
      </trkpt>
      <trkpt lat="47.30877" lon="6.17525">
        <ele>355.4</ele>
        <time>2024-07-31T10:37:58Z</time>
      </trkpt>
      <trkpt lat="47.30877" lon="6.17531">
        <ele>355</ele>
        <time>2024-07-31T10:37:59Z</time>
      </trkpt>
      <trkpt lat="47.30876" lon="6.17539">
        <ele>355.4</ele>
        <time>2024-07-31T10:38:00Z</time>
      </trkpt>
      <trkpt lat="47.30877" lon="6.17546">
        <ele>355.4</ele>
        <time>2024-07-31T10:38:01Z</time>
      </trkpt>
      <trkpt lat="47.30876" lon="6.17554">
        <ele>355.2</ele>
        <time>2024-07-31T10:38:02Z</time>
      </trkpt>
      <trkpt lat="47.30877" lon="6.17561">
        <ele>355</ele>
        <time>2024-07-31T10:38:03Z</time>
      </trkpt>
      <trkpt lat="47.30877" lon="6.17569">
        <ele>354.8</ele>
        <time>2024-07-31T10:38:04Z</time>
      </trkpt>
      <trkpt lat="47.30878" lon="6.17577">
        <ele>354.6</ele>
        <time>2024-07-31T10:38:05Z</time>
      </trkpt>
      <trkpt lat="47.30878" lon="6.17584">
        <ele>354.6</ele>
        <time>2024-07-31T10:38:06Z</time>
      </trkpt>
      <trkpt lat="47.30879" lon="6.17592">
        <ele>354.6</ele>
        <time>2024-07-31T10:38:07Z</time>
      </trkpt>
      <trkpt lat="47.3088" lon="6.17599">
        <ele>354.8</ele>
        <time>2024-07-31T10:38:08Z</time>
      </trkpt>
      <trkpt lat="47.3088" lon="6.17605">
        <ele>355</ele>
        <time>2024-07-31T10:38:09Z</time>
      </trkpt>
      <trkpt lat="47.30881" lon="6.17611">
        <ele>354.8</ele>
        <time>2024-07-31T10:38:10Z</time>
      </trkpt>
      <trkpt lat="47.30882" lon="6.17616">
        <ele>354.8</ele>
        <time>2024-07-31T10:38:11Z</time>
      </trkpt>
      <trkpt lat="47.30884" lon="6.17622">
        <ele>354.8</ele>
        <time>2024-07-31T10:38:12Z</time>
      </trkpt>
      <trkpt lat="47.30886" lon="6.17628">
        <ele>354.6</ele>
        <time>2024-07-31T10:38:13Z</time>
      </trkpt>
      <trkpt lat="47.30887" lon="6.17634">
        <ele>354.6</ele>
        <time>2024-07-31T10:38:14Z</time>
      </trkpt>
      <trkpt lat="47.30888" lon="6.17639">
        <ele>354.6</ele>
        <time>2024-07-31T10:38:15Z</time>
      </trkpt>
      <trkpt lat="47.30889" lon="6.17644">
        <ele>354.8</ele>
        <time>2024-07-31T10:38:16Z</time>
      </trkpt>
      <trkpt lat="47.30891" lon="6.1765">
        <ele>354.8</ele>
        <time>2024-07-31T10:38:17Z</time>
      </trkpt>
      <trkpt lat="47.30893" lon="6.17655">
        <ele>355</ele>
        <time>2024-07-31T10:38:18Z</time>
      </trkpt>
      <trkpt lat="47.30895" lon="6.1766">
        <ele>355</ele>
        <time>2024-07-31T10:38:19Z</time>
      </trkpt>
      <trkpt lat="47.30897" lon="6.17666">
        <ele>355</ele>
        <time>2024-07-31T10:38:20Z</time>
      </trkpt>
      <trkpt lat="47.30899" lon="6.17671">
        <ele>355</ele>
        <time>2024-07-31T10:38:21Z</time>
      </trkpt>
      <trkpt lat="47.30901" lon="6.17677">
        <ele>355.2</ele>
        <time>2024-07-31T10:38:22Z</time>
      </trkpt>
      <trkpt lat="47.30903" lon="6.17682">
        <ele>355.2</ele>
        <time>2024-07-31T10:38:23Z</time>
      </trkpt>
      <trkpt lat="47.30905" lon="6.17688">
        <ele>355.4</ele>
        <time>2024-07-31T10:38:24Z</time>
      </trkpt>
      <trkpt lat="47.30908" lon="6.17694">
        <ele>355.6</ele>
        <time>2024-07-31T10:38:25Z</time>
      </trkpt>
      <trkpt lat="47.3091" lon="6.17699">
        <ele>355.8</ele>
        <time>2024-07-31T10:38:26Z</time>
      </trkpt>
      <trkpt lat="47.30912" lon="6.17703">
        <ele>356</ele>
        <time>2024-07-31T10:38:27Z</time>
      </trkpt>
      <trkpt lat="47.30915" lon="6.17708">
        <ele>355.6</ele>
        <time>2024-07-31T10:38:28Z</time>
      </trkpt>
      <trkpt lat="47.30917" lon="6.17713">
        <ele>356</ele>
        <time>2024-07-31T10:38:29Z</time>
      </trkpt>
      <trkpt lat="47.30919" lon="6.17717">
        <ele>356.4</ele>
        <time>2024-07-31T10:38:30Z</time>
      </trkpt>
      <trkpt lat="47.30921" lon="6.17721">
        <ele>356.2</ele>
        <time>2024-07-31T10:38:31Z</time>
      </trkpt>
      <trkpt lat="47.30924" lon="6.17725">
        <ele>356.4</ele>
        <time>2024-07-31T10:38:32Z</time>
      </trkpt>
      <trkpt lat="47.30926" lon="6.17729">
        <ele>356.8</ele>
        <time>2024-07-31T10:38:33Z</time>
      </trkpt>
      <trkpt lat="47.30928" lon="6.17734">
        <ele>356.6</ele>
        <time>2024-07-31T10:38:34Z</time>
      </trkpt>
      <trkpt lat="47.3093" lon="6.17738">
        <ele>356.8</ele>
        <time>2024-07-31T10:38:35Z</time>
      </trkpt>
      <trkpt lat="47.30931" lon="6.17742">
        <ele>357.2</ele>
        <time>2024-07-31T10:38:36Z</time>
      </trkpt>
      <trkpt lat="47.30933" lon="6.17746">
        <ele>357.4</ele>
        <time>2024-07-31T10:38:37Z</time>
      </trkpt>
      <trkpt lat="47.30935" lon="6.1775">
        <ele>357.4</ele>
        <time>2024-07-31T10:38:38Z</time>
      </trkpt>
      <trkpt lat="47.30937" lon="6.17754">
        <ele>357.6</ele>
        <time>2024-07-31T10:38:39Z</time>
      </trkpt>
      <trkpt lat="47.30939" lon="6.17758">
        <ele>357.6</ele>
        <time>2024-07-31T10:38:40Z</time>
      </trkpt>
      <trkpt lat="47.30942" lon="6.17762">
        <ele>358</ele>
        <time>2024-07-31T10:38:41Z</time>
      </trkpt>
      <trkpt lat="47.30944" lon="6.17766">
        <ele>357.8</ele>
        <time>2024-07-31T10:38:42Z</time>
      </trkpt>
      <trkpt lat="47.30946" lon="6.1777">
        <ele>358.2</ele>
        <time>2024-07-31T10:38:43Z</time>
      </trkpt>
      <trkpt lat="47.30947" lon="6.17774">
        <ele>358.2</ele>
        <time>2024-07-31T10:38:44Z</time>
      </trkpt>
      <trkpt lat="47.30949" lon="6.17778">
        <ele>358.2</ele>
        <time>2024-07-31T10:38:45Z</time>
      </trkpt>
      <trkpt lat="47.30951" lon="6.17781">
        <ele>358.2</ele>
        <time>2024-07-31T10:38:46Z</time>
      </trkpt>
      <trkpt lat="47.30953" lon="6.17786">
        <ele>358.8</ele>
        <time>2024-07-31T10:38:47Z</time>
      </trkpt>
      <trkpt lat="47.30955" lon="6.1779">
        <ele>359</ele>
        <time>2024-07-31T10:38:48Z</time>
      </trkpt>
      <trkpt lat="47.30956" lon="6.17794">
        <ele>359.2</ele>
        <time>2024-07-31T10:38:49Z</time>
      </trkpt>
      <trkpt lat="47.30957" lon="6.17798">
        <ele>359.4</ele>
        <time>2024-07-31T10:38:50Z</time>
      </trkpt>
      <trkpt lat="47.30959" lon="6.17802">
        <ele>359.6</ele>
        <time>2024-07-31T10:38:51Z</time>
      </trkpt>
      <trkpt lat="47.3096" lon="6.17806">
        <ele>359.6</ele>
        <time>2024-07-31T10:38:52Z</time>
      </trkpt>
      <trkpt lat="47.30962" lon="6.17809">
        <ele>359.8</ele>
        <time>2024-07-31T10:38:53Z</time>
      </trkpt>
      <trkpt lat="47.30964" lon="6.17813">
        <ele>360</ele>
        <time>2024-07-31T10:38:54Z</time>
      </trkpt>
      <trkpt lat="47.30966" lon="6.17817">
        <ele>360</ele>
        <time>2024-07-31T10:38:55Z</time>
      </trkpt>
      <trkpt lat="47.30967" lon="6.17821">
        <ele>359.8</ele>
        <time>2024-07-31T10:38:56Z</time>
      </trkpt>
      <trkpt lat="47.30969" lon="6.17825">
        <ele>359.8</ele>
        <time>2024-07-31T10:38:57Z</time>
      </trkpt>
      <trkpt lat="47.3097" lon="6.17829">
        <ele>360</ele>
        <time>2024-07-31T10:38:58Z</time>
      </trkpt>
      <trkpt lat="47.30973" lon="6.17833">
        <ele>360.4</ele>
        <time>2024-07-31T10:38:59Z</time>
      </trkpt>
      <trkpt lat="47.30975" lon="6.17836">
        <ele>360.6</ele>
        <time>2024-07-31T10:39:00Z</time>
      </trkpt>
      <trkpt lat="47.30977" lon="6.1784">
        <ele>360.6</ele>
        <time>2024-07-31T10:39:01Z</time>
      </trkpt>
      <trkpt lat="47.30979" lon="6.17843">
        <ele>360.8</ele>
        <time>2024-07-31T10:39:02Z</time>
      </trkpt>
      <trkpt lat="47.3098" lon="6.17846">
        <ele>361</ele>
        <time>2024-07-31T10:39:03Z</time>
      </trkpt>
      <trkpt lat="47.30982" lon="6.17849">
        <ele>361.2</ele>
        <time>2024-07-31T10:39:04Z</time>
      </trkpt>
      <trkpt lat="47.30984" lon="6.17851">
        <ele>361.6</ele>
        <time>2024-07-31T10:39:05Z</time>
      </trkpt>
      <trkpt lat="47.30986" lon="6.17854">
        <ele>361.4</ele>
        <time>2024-07-31T10:39:06Z</time>
      </trkpt>
      <trkpt lat="47.30987" lon="6.17857">
        <ele>361.4</ele>
        <time>2024-07-31T10:39:07Z</time>
      </trkpt>
      <trkpt lat="47.30989" lon="6.17859">
        <ele>361.6</ele>
        <time>2024-07-31T10:39:08Z</time>
      </trkpt>
      <trkpt lat="47.30991" lon="6.17862">
        <ele>362</ele>
        <time>2024-07-31T10:39:09Z</time>
      </trkpt>
      <trkpt lat="47.30993" lon="6.17865">
        <ele>362.6</ele>
        <time>2024-07-31T10:39:10Z</time>
      </trkpt>
      <trkpt lat="47.30994" lon="6.17867">
        <ele>362.4</ele>
        <time>2024-07-31T10:39:11Z</time>
      </trkpt>
      <trkpt lat="47.30996" lon="6.17869">
        <ele>362.6</ele>
        <time>2024-07-31T10:39:12Z</time>
      </trkpt>
      <trkpt lat="47.30998" lon="6.17872">
        <ele>362.8</ele>
        <time>2024-07-31T10:39:13Z</time>
      </trkpt>
      <trkpt lat="47.30999" lon="6.17875">
        <ele>362.8</ele>
        <time>2024-07-31T10:39:14Z</time>
      </trkpt>
      <trkpt lat="47.31001" lon="6.17877">
        <ele>363.4</ele>
        <time>2024-07-31T10:39:15Z</time>
      </trkpt>
      <trkpt lat="47.31002" lon="6.17879">
        <ele>363.6</ele>
        <time>2024-07-31T10:39:16Z</time>
      </trkpt>
      <trkpt lat="47.31004" lon="6.17881">
        <ele>363.6</ele>
        <time>2024-07-31T10:39:17Z</time>
      </trkpt>
      <trkpt lat="47.31006" lon="6.17884">
        <ele>363.8</ele>
        <time>2024-07-31T10:39:18Z</time>
      </trkpt>
      <trkpt lat="47.31007" lon="6.17887">
        <ele>364.2</ele>
        <time>2024-07-31T10:39:19Z</time>
      </trkpt>
      <trkpt lat="47.31008" lon="6.17889">
        <ele>364.2</ele>
        <time>2024-07-31T10:39:20Z</time>
      </trkpt>
      <trkpt lat="47.3101" lon="6.17892">
        <ele>364.4</ele>
        <time>2024-07-31T10:39:21Z</time>
      </trkpt>
      <trkpt lat="47.31011" lon="6.17895">
        <ele>364.4</ele>
        <time>2024-07-31T10:39:22Z</time>
      </trkpt>
      <trkpt lat="47.31013" lon="6.17897">
        <ele>364.4</ele>
        <time>2024-07-31T10:39:23Z</time>
      </trkpt>
      <trkpt lat="47.31014" lon="6.17899">
        <ele>364.6</ele>
        <time>2024-07-31T10:39:24Z</time>
      </trkpt>
      <trkpt lat="47.31016" lon="6.17902">
        <ele>364.8</ele>
        <time>2024-07-31T10:39:25Z</time>
      </trkpt>
      <trkpt lat="47.31018" lon="6.17904">
        <ele>365.2</ele>
        <time>2024-07-31T10:39:26Z</time>
      </trkpt>
      <trkpt lat="47.3102" lon="6.17906">
        <ele>365.4</ele>
        <time>2024-07-31T10:39:27Z</time>
      </trkpt>
      <trkpt lat="47.31021" lon="6.17908">
        <ele>365.6</ele>
        <time>2024-07-31T10:39:28Z</time>
      </trkpt>
      <trkpt lat="47.31023" lon="6.1791">
        <ele>365.6</ele>
        <time>2024-07-31T10:39:29Z</time>
      </trkpt>
      <trkpt lat="47.31025" lon="6.17912">
        <ele>365.4</ele>
        <time>2024-07-31T10:39:30Z</time>
      </trkpt>
      <trkpt lat="47.31027" lon="6.17914">
        <ele>365.8</ele>
        <time>2024-07-31T10:39:31Z</time>
      </trkpt>
      <trkpt lat="47.3103" lon="6.17916">
        <ele>366.2</ele>
        <time>2024-07-31T10:39:32Z</time>
      </trkpt>
      <trkpt lat="47.31032" lon="6.17917">
        <ele>366.4</ele>
        <time>2024-07-31T10:39:33Z</time>
      </trkpt>
      <trkpt lat="47.31034" lon="6.17919">
        <ele>366.6</ele>
        <time>2024-07-31T10:39:34Z</time>
      </trkpt>
      <trkpt lat="47.31036" lon="6.17921">
        <ele>367</ele>
        <time>2024-07-31T10:39:35Z</time>
      </trkpt>
      <trkpt lat="47.31038" lon="6.17923">
        <ele>367.2</ele>
        <time>2024-07-31T10:39:36Z</time>
      </trkpt>
      <trkpt lat="47.3104" lon="6.17924">
        <ele>367.4</ele>
        <time>2024-07-31T10:39:37Z</time>
      </trkpt>
      <trkpt lat="47.31042" lon="6.17925">
        <ele>367.4</ele>
        <time>2024-07-31T10:39:38Z</time>
      </trkpt>
      <trkpt lat="47.31044" lon="6.17927">
        <ele>367.8</ele>
        <time>2024-07-31T10:39:39Z</time>
      </trkpt>
      <trkpt lat="47.31045" lon="6.17927">
        <ele>367.8</ele>
        <time>2024-07-31T10:39:40Z</time>
      </trkpt>
      <trkpt lat="47.31048" lon="6.17928">
        <ele>368</ele>
        <time>2024-07-31T10:39:41Z</time>
      </trkpt>
      <trkpt lat="47.3105" lon="6.17929">
        <ele>368</ele>
        <time>2024-07-31T10:39:42Z</time>
      </trkpt>
      <trkpt lat="47.31052" lon="6.17929">
        <ele>368</ele>
        <time>2024-07-31T10:39:43Z</time>
      </trkpt>
      <trkpt lat="47.31053" lon="6.17929">
        <ele>368.4</ele>
        <time>2024-07-31T10:39:44Z</time>
      </trkpt>
      <trkpt lat="47.31055" lon="6.17929">
        <ele>368.6</ele>
        <time>2024-07-31T10:39:45Z</time>
      </trkpt>
      <trkpt lat="47.31057" lon="6.17931">
        <ele>368.6</ele>
        <time>2024-07-31T10:39:46Z</time>
      </trkpt>
      <trkpt lat="47.31059" lon="6.17932">
        <ele>368.8</ele>
        <time>2024-07-31T10:39:47Z</time>
      </trkpt>
      <trkpt lat="47.31061" lon="6.17934">
        <ele>369</ele>
        <time>2024-07-31T10:39:48Z</time>
      </trkpt>
      <trkpt lat="47.31062" lon="6.17935">
        <ele>369.2</ele>
        <time>2024-07-31T10:39:49Z</time>
      </trkpt>
      <trkpt lat="47.31064" lon="6.17936">
        <ele>369.4</ele>
        <time>2024-07-31T10:39:50Z</time>
      </trkpt>
      <trkpt lat="47.31066" lon="6.17937">
        <ele>369.4</ele>
        <time>2024-07-31T10:39:51Z</time>
      </trkpt>
      <trkpt lat="47.31068" lon="6.17937">
        <ele>369.4</ele>
        <time>2024-07-31T10:39:52Z</time>
      </trkpt>
      <trkpt lat="47.3107" lon="6.17936">
        <ele>369.6</ele>
        <time>2024-07-31T10:39:53Z</time>
      </trkpt>
      <trkpt lat="47.31072" lon="6.17935">
        <ele>369.4</ele>
        <time>2024-07-31T10:39:54Z</time>
      </trkpt>
      <trkpt lat="47.31075" lon="6.17934">
        <ele>369.6</ele>
        <time>2024-07-31T10:39:55Z</time>
      </trkpt>
      <trkpt lat="47.31077" lon="6.17932">
        <ele>369.6</ele>
        <time>2024-07-31T10:39:56Z</time>
      </trkpt>
      <trkpt lat="47.31078" lon="6.1793">
        <ele>369.8</ele>
        <time>2024-07-31T10:39:57Z</time>
      </trkpt>
      <trkpt lat="47.3108" lon="6.17927">
        <ele>369.6</ele>
        <time>2024-07-31T10:39:58Z</time>
      </trkpt>
      <trkpt lat="47.31083" lon="6.17925">
        <ele>369.8</ele>
        <time>2024-07-31T10:39:59Z</time>
      </trkpt>
      <trkpt lat="47.31085" lon="6.17922">
        <ele>369.4</ele>
        <time>2024-07-31T10:40:00Z</time>
      </trkpt>
      <trkpt lat="47.31086" lon="6.17919">
        <ele>369.2</ele>
        <time>2024-07-31T10:40:01Z</time>
      </trkpt>
      <trkpt lat="47.31088" lon="6.17916">
        <ele>369.4</ele>
        <time>2024-07-31T10:40:02Z</time>
      </trkpt>
      <trkpt lat="47.3109" lon="6.17912">
        <ele>369.4</ele>
        <time>2024-07-31T10:40:03Z</time>
      </trkpt>
      <trkpt lat="47.31091" lon="6.17908">
        <ele>369.6</ele>
        <time>2024-07-31T10:40:04Z</time>
      </trkpt>
      <trkpt lat="47.31093" lon="6.17905">
        <ele>369.6</ele>
        <time>2024-07-31T10:40:05Z</time>
      </trkpt>
      <trkpt lat="47.31093" lon="6.17902">
        <ele>370</ele>
        <time>2024-07-31T10:40:06Z</time>
      </trkpt>
      <trkpt lat="47.31094" lon="6.17898">
        <ele>370</ele>
        <time>2024-07-31T10:40:07Z</time>
      </trkpt>
      <trkpt lat="47.31095" lon="6.17895">
        <ele>370.4</ele>
        <time>2024-07-31T10:40:08Z</time>
      </trkpt>
      <trkpt lat="47.31095" lon="6.17891">
        <ele>370.4</ele>
        <time>2024-07-31T10:40:09Z</time>
      </trkpt>
      <trkpt lat="47.31095" lon="6.17888">
        <ele>370.4</ele>
        <time>2024-07-31T10:40:10Z</time>
      </trkpt>
      <trkpt lat="47.31095" lon="6.17885">
        <ele>370.6</ele>
        <time>2024-07-31T10:40:11Z</time>
      </trkpt>
      <trkpt lat="47.31095" lon="6.17882">
        <ele>370.4</ele>
        <time>2024-07-31T10:40:12Z</time>
      </trkpt>
      <trkpt lat="47.31094" lon="6.17879">
        <ele>370.4</ele>
        <time>2024-07-31T10:40:13Z</time>
      </trkpt>
      <trkpt lat="47.31094" lon="6.17875">
        <ele>370.2</ele>
        <time>2024-07-31T10:40:14Z</time>
      </trkpt>
      <trkpt lat="47.31094" lon="6.17871">
        <ele>370.4</ele>
        <time>2024-07-31T10:40:15Z</time>
      </trkpt>
      <trkpt lat="47.31094" lon="6.17867">
        <ele>370.6</ele>
        <time>2024-07-31T10:40:16Z</time>
      </trkpt>
      <trkpt lat="47.31095" lon="6.17863">
        <ele>370.2</ele>
        <time>2024-07-31T10:40:17Z</time>
      </trkpt>
      <trkpt lat="47.31095" lon="6.17859">
        <ele>370.2</ele>
        <time>2024-07-31T10:40:18Z</time>
      </trkpt>
      <trkpt lat="47.31095" lon="6.17854">
        <ele>370</ele>
        <time>2024-07-31T10:40:19Z</time>
      </trkpt>
      <trkpt lat="47.31096" lon="6.17849">
        <ele>369.6</ele>
        <time>2024-07-31T10:40:20Z</time>
      </trkpt>
      <trkpt lat="47.31097" lon="6.17845">
        <ele>369.6</ele>
        <time>2024-07-31T10:40:21Z</time>
      </trkpt>
      <trkpt lat="47.311" lon="6.1784">
        <ele>369</ele>
        <time>2024-07-31T10:40:22Z</time>
      </trkpt>
      <trkpt lat="47.31103" lon="6.17836">
        <ele>369.2</ele>
        <time>2024-07-31T10:40:23Z</time>
      </trkpt>
      <trkpt lat="47.31106" lon="6.17832">
        <ele>369</ele>
        <time>2024-07-31T10:40:24Z</time>
      </trkpt>
      <trkpt lat="47.3111" lon="6.17828">
        <ele>369</ele>
        <time>2024-07-31T10:40:25Z</time>
      </trkpt>
      <trkpt lat="47.31113" lon="6.17824">
        <ele>368.6</ele>
        <time>2024-07-31T10:40:26Z</time>
      </trkpt>
      <trkpt lat="47.31116" lon="6.17821">
        <ele>368.6</ele>
        <time>2024-07-31T10:40:27Z</time>
      </trkpt>
      <trkpt lat="47.31119" lon="6.1782">
        <ele>368.6</ele>
        <time>2024-07-31T10:40:28Z</time>
      </trkpt>
      <trkpt lat="47.3112" lon="6.17819">
        <ele>368.4</ele>
        <time>2024-07-31T10:40:29Z</time>
      </trkpt>
      <trkpt lat="47.31122" lon="6.17819">
        <ele>368.4</ele>
        <time>2024-07-31T10:40:30Z</time>
      </trkpt>
      <trkpt lat="47.31122" lon="6.17817">
        <ele>368.4</ele>
        <time>2024-07-31T10:40:31Z</time>
      </trkpt>
      <trkpt lat="47.31123" lon="6.17817">
        <ele>368.4</ele>
        <time>2024-07-31T10:40:32Z</time>
      </trkpt>
      <trkpt lat="47.31123" lon="6.17815">
        <ele>368.6</ele>
        <time>2024-07-31T10:40:33Z</time>
      </trkpt>
      <trkpt lat="47.31123" lon="6.17813">
        <ele>368.6</ele>
        <time>2024-07-31T10:40:34Z</time>
      </trkpt>
      <trkpt lat="47.31124" lon="6.17811">
        <ele>368.6</ele>
        <time>2024-07-31T10:40:35Z</time>
      </trkpt>
      <trkpt lat="47.31124" lon="6.17809">
        <ele>368.4</ele>
        <time>2024-07-31T10:40:36Z</time>
      </trkpt>
      <trkpt lat="47.31125" lon="6.17806">
        <ele>368.2</ele>
        <time>2024-07-31T10:40:37Z</time>
      </trkpt>
      <trkpt lat="47.31125" lon="6.17803">
        <ele>368.2</ele>
        <time>2024-07-31T10:40:38Z</time>
      </trkpt>
      <trkpt lat="47.31126" lon="6.178">
        <ele>368.2</ele>
        <time>2024-07-31T10:40:39Z</time>
      </trkpt>
      <trkpt lat="47.31126" lon="6.17798">
        <ele>368.2</ele>
        <time>2024-07-31T10:40:40Z</time>
      </trkpt>
      <trkpt lat="47.31127" lon="6.17795">
        <ele>368.2</ele>
        <time>2024-07-31T10:40:41Z</time>
      </trkpt>
      <trkpt lat="47.31128" lon="6.17792">
        <ele>368.4</ele>
        <time>2024-07-31T10:40:42Z</time>
      </trkpt>
      <trkpt lat="47.3113" lon="6.17789">
        <ele>368.4</ele>
        <time>2024-07-31T10:40:43Z</time>
      </trkpt>
      <trkpt lat="47.3113" lon="6.17786">
        <ele>368.4</ele>
        <time>2024-07-31T10:40:44Z</time>
      </trkpt>
      <trkpt lat="47.3113" lon="6.17783">
        <ele>368.2</ele>
        <time>2024-07-31T10:40:45Z</time>
      </trkpt>
      <trkpt lat="47.3113" lon="6.1778">
        <ele>368.4</ele>
        <time>2024-07-31T10:40:46Z</time>
      </trkpt>
      <trkpt lat="47.31131" lon="6.17777">
        <ele>368.8</ele>
        <time>2024-07-31T10:40:47Z</time>
      </trkpt>
      <trkpt lat="47.31131" lon="6.17775">
        <ele>368.6</ele>
        <time>2024-07-31T10:40:48Z</time>
      </trkpt>
      <trkpt lat="47.31131" lon="6.17772">
        <ele>368.6</ele>
        <time>2024-07-31T10:40:49Z</time>
      </trkpt>
      <trkpt lat="47.31131" lon="6.17769">
        <ele>368.6</ele>
        <time>2024-07-31T10:40:50Z</time>
      </trkpt>
      <trkpt lat="47.31131" lon="6.17766">
        <ele>368.6</ele>
        <time>2024-07-31T10:40:51Z</time>
      </trkpt>
      <trkpt lat="47.31131" lon="6.17763">
        <ele>368.8</ele>
        <time>2024-07-31T10:40:52Z</time>
      </trkpt>
      <trkpt lat="47.31131" lon="6.1776">
        <ele>369</ele>
        <time>2024-07-31T10:40:53Z</time>
      </trkpt>
      <trkpt lat="47.31131" lon="6.17757">
        <ele>369</ele>
        <time>2024-07-31T10:40:54Z</time>
      </trkpt>
      <trkpt lat="47.31131" lon="6.17753">
        <ele>369.2</ele>
        <time>2024-07-31T10:40:55Z</time>
      </trkpt>
      <trkpt lat="47.31131" lon="6.1775">
        <ele>369.2</ele>
        <time>2024-07-31T10:40:56Z</time>
      </trkpt>
      <trkpt lat="47.31131" lon="6.17748">
        <ele>369.2</ele>
        <time>2024-07-31T10:40:57Z</time>
      </trkpt>
      <trkpt lat="47.31131" lon="6.17745">
        <ele>369.2</ele>
        <time>2024-07-31T10:40:58Z</time>
      </trkpt>
      <trkpt lat="47.31131" lon="6.17742">
        <ele>369.4</ele>
        <time>2024-07-31T10:40:59Z</time>
      </trkpt>
      <trkpt lat="47.31132" lon="6.17739">
        <ele>369.6</ele>
        <time>2024-07-31T10:41:00Z</time>
      </trkpt>
      <trkpt lat="47.31132" lon="6.17736">
        <ele>369.4</ele>
        <time>2024-07-31T10:41:01Z</time>
      </trkpt>
      <trkpt lat="47.31133" lon="6.17733">
        <ele>369.4</ele>
        <time>2024-07-31T10:41:02Z</time>
      </trkpt>
      <trkpt lat="47.31133" lon="6.1773">
        <ele>369.6</ele>
        <time>2024-07-31T10:41:03Z</time>
      </trkpt>
      <trkpt lat="47.31133" lon="6.17728">
        <ele>369.6</ele>
        <time>2024-07-31T10:41:04Z</time>
      </trkpt>
      <trkpt lat="47.31133" lon="6.17726">
        <ele>369.8</ele>
        <time>2024-07-31T10:41:05Z</time>
      </trkpt>
      <trkpt lat="47.31133" lon="6.17723">
        <ele>369.8</ele>
        <time>2024-07-31T10:41:06Z</time>
      </trkpt>
      <trkpt lat="47.31133" lon="6.17719">
        <ele>370.2</ele>
        <time>2024-07-31T10:41:07Z</time>
      </trkpt>
      <trkpt lat="47.31133" lon="6.17716">
        <ele>370.2</ele>
        <time>2024-07-31T10:41:08Z</time>
      </trkpt>
      <trkpt lat="47.31132" lon="6.17713">
        <ele>370.2</ele>
        <time>2024-07-31T10:41:09Z</time>
      </trkpt>
      <trkpt lat="47.31132" lon="6.1771">
        <ele>370.2</ele>
        <time>2024-07-31T10:41:10Z</time>
      </trkpt>
      <trkpt lat="47.31133" lon="6.17707">
        <ele>370.4</ele>
        <time>2024-07-31T10:41:11Z</time>
      </trkpt>
      <trkpt lat="47.31133" lon="6.17704">
        <ele>370.6</ele>
        <time>2024-07-31T10:41:12Z</time>
      </trkpt>
      <trkpt lat="47.31133" lon="6.177">
        <ele>370.6</ele>
        <time>2024-07-31T10:41:13Z</time>
      </trkpt>
      <trkpt lat="47.31133" lon="6.17697">
        <ele>371</ele>
        <time>2024-07-31T10:41:14Z</time>
      </trkpt>
      <trkpt lat="47.31134" lon="6.17695">
        <ele>370.8</ele>
        <time>2024-07-31T10:41:15Z</time>
      </trkpt>
      <trkpt lat="47.31134" lon="6.17691">
        <ele>371</ele>
        <time>2024-07-31T10:41:16Z</time>
      </trkpt>
      <trkpt lat="47.31134" lon="6.17688">
        <ele>371</ele>
        <time>2024-07-31T10:41:17Z</time>
      </trkpt>
      <trkpt lat="47.31134" lon="6.17684">
        <ele>371</ele>
        <time>2024-07-31T10:41:18Z</time>
      </trkpt>
      <trkpt lat="47.31134" lon="6.17682">
        <ele>371.2</ele>
        <time>2024-07-31T10:41:19Z</time>
      </trkpt>
      <trkpt lat="47.31135" lon="6.17679">
        <ele>371.2</ele>
        <time>2024-07-31T10:41:20Z</time>
      </trkpt>
      <trkpt lat="47.31136" lon="6.17677">
        <ele>371</ele>
        <time>2024-07-31T10:41:21Z</time>
      </trkpt>
      <trkpt lat="47.31137" lon="6.17676">
        <ele>371.2</ele>
        <time>2024-07-31T10:41:22Z</time>
      </trkpt>
      <trkpt lat="47.31137" lon="6.17673">
        <ele>371.4</ele>
        <time>2024-07-31T10:41:23Z</time>
      </trkpt>
      <trkpt lat="47.31137" lon="6.17671">
        <ele>371.4</ele>
        <time>2024-07-31T10:41:24Z</time>
      </trkpt>
      <trkpt lat="47.31138" lon="6.17668">
        <ele>371.4</ele>
        <time>2024-07-31T10:41:25Z</time>
      </trkpt>
      <trkpt lat="47.31138" lon="6.17666">
        <ele>371.6</ele>
        <time>2024-07-31T10:41:26Z</time>
      </trkpt>
      <trkpt lat="47.31139" lon="6.17664">
        <ele>371.6</ele>
        <time>2024-07-31T10:41:27Z</time>
      </trkpt>
      <trkpt lat="47.3114" lon="6.17661">
        <ele>371.6</ele>
        <time>2024-07-31T10:41:28Z</time>
      </trkpt>
      <trkpt lat="47.31141" lon="6.17659">
        <ele>371.6</ele>
        <time>2024-07-31T10:41:29Z</time>
      </trkpt>
      <trkpt lat="47.31142" lon="6.17657">
        <ele>371.8</ele>
        <time>2024-07-31T10:41:30Z</time>
      </trkpt>
      <trkpt lat="47.31142" lon="6.17655">
        <ele>372</ele>
        <time>2024-07-31T10:41:31Z</time>
      </trkpt>
      <trkpt lat="47.31143" lon="6.17652">
        <ele>372.2</ele>
        <time>2024-07-31T10:41:32Z</time>
      </trkpt>
      <trkpt lat="47.31143" lon="6.17649">
        <ele>372.2</ele>
        <time>2024-07-31T10:41:33Z</time>
      </trkpt>
      <trkpt lat="47.31143" lon="6.17646">
        <ele>372.4</ele>
        <time>2024-07-31T10:41:34Z</time>
      </trkpt>
      <trkpt lat="47.31144" lon="6.17644">
        <ele>372.6</ele>
        <time>2024-07-31T10:41:35Z</time>
      </trkpt>
      <trkpt lat="47.31144" lon="6.17641">
        <ele>372.6</ele>
        <time>2024-07-31T10:41:36Z</time>
      </trkpt>
      <trkpt lat="47.31145" lon="6.17638">
        <ele>372.6</ele>
        <time>2024-07-31T10:41:37Z</time>
      </trkpt>
      <trkpt lat="47.31145" lon="6.17634">
        <ele>372.6</ele>
        <time>2024-07-31T10:41:38Z</time>
      </trkpt>
      <trkpt lat="47.31146" lon="6.17631">
        <ele>372.8</ele>
        <time>2024-07-31T10:41:39Z</time>
      </trkpt>
      <trkpt lat="47.31146" lon="6.17628">
        <ele>373</ele>
        <time>2024-07-31T10:41:40Z</time>
      </trkpt>
      <trkpt lat="47.31147" lon="6.17624">
        <ele>373.2</ele>
        <time>2024-07-31T10:41:41Z</time>
      </trkpt>
      <trkpt lat="47.31148" lon="6.17621">
        <ele>373.2</ele>
        <time>2024-07-31T10:41:42Z</time>
      </trkpt>
      <trkpt lat="47.31148" lon="6.17619">
        <ele>373.2</ele>
        <time>2024-07-31T10:41:43Z</time>
      </trkpt>
      <trkpt lat="47.31149" lon="6.17616">
        <ele>373.2</ele>
        <time>2024-07-31T10:41:44Z</time>
      </trkpt>
      <trkpt lat="47.31149" lon="6.17613">
        <ele>373.6</ele>
        <time>2024-07-31T10:41:45Z</time>
      </trkpt>
      <trkpt lat="47.3115" lon="6.1761">
        <ele>373.6</ele>
        <time>2024-07-31T10:41:46Z</time>
      </trkpt>
      <trkpt lat="47.31151" lon="6.17607">
        <ele>373.8</ele>
        <time>2024-07-31T10:41:47Z</time>
      </trkpt>
      <trkpt lat="47.31151" lon="6.17604">
        <ele>374</ele>
        <time>2024-07-31T10:41:48Z</time>
      </trkpt>
      <trkpt lat="47.31152" lon="6.17602">
        <ele>373.8</ele>
        <time>2024-07-31T10:41:49Z</time>
      </trkpt>
      <trkpt lat="47.31152" lon="6.17599">
        <ele>374</ele>
        <time>2024-07-31T10:41:50Z</time>
      </trkpt>
      <trkpt lat="47.31154" lon="6.17595">
        <ele>374</ele>
        <time>2024-07-31T10:41:51Z</time>
      </trkpt>
      <trkpt lat="47.31154" lon="6.17592">
        <ele>373.6</ele>
        <time>2024-07-31T10:41:52Z</time>
      </trkpt>
      <trkpt lat="47.31155" lon="6.1759">
        <ele>373.8</ele>
        <time>2024-07-31T10:41:53Z</time>
      </trkpt>
      <trkpt lat="47.31156" lon="6.17587">
        <ele>373.8</ele>
        <time>2024-07-31T10:41:54Z</time>
      </trkpt>
      <trkpt lat="47.31156" lon="6.17585">
        <ele>374</ele>
        <time>2024-07-31T10:41:55Z</time>
      </trkpt>
      <trkpt lat="47.31157" lon="6.17582">
        <ele>374</ele>
        <time>2024-07-31T10:41:56Z</time>
      </trkpt>
      <trkpt lat="47.31159" lon="6.17579">
        <ele>374</ele>
        <time>2024-07-31T10:41:57Z</time>
      </trkpt>
      <trkpt lat="47.3116" lon="6.17576">
        <ele>373.8</ele>
        <time>2024-07-31T10:41:58Z</time>
      </trkpt>
      <trkpt lat="47.31161" lon="6.17572">
        <ele>373.6</ele>
        <time>2024-07-31T10:41:59Z</time>
      </trkpt>
      <trkpt lat="47.31161" lon="6.17568">
        <ele>373.8</ele>
        <time>2024-07-31T10:42:00Z</time>
      </trkpt>
      <trkpt lat="47.31162" lon="6.17566">
        <ele>373.8</ele>
        <time>2024-07-31T10:42:01Z</time>
      </trkpt>
      <trkpt lat="47.31164" lon="6.17562">
        <ele>373.8</ele>
        <time>2024-07-31T10:42:02Z</time>
      </trkpt>
      <trkpt lat="47.31165" lon="6.17559">
        <ele>374.2</ele>
        <time>2024-07-31T10:42:03Z</time>
      </trkpt>
      <trkpt lat="47.31165" lon="6.17556">
        <ele>374.2</ele>
        <time>2024-07-31T10:42:04Z</time>
      </trkpt>
      <trkpt lat="47.31167" lon="6.17552">
        <ele>374</ele>
        <time>2024-07-31T10:42:05Z</time>
      </trkpt>
      <trkpt lat="47.31168" lon="6.17548">
        <ele>374</ele>
        <time>2024-07-31T10:42:06Z</time>
      </trkpt>
      <trkpt lat="47.31169" lon="6.17544">
        <ele>374.4</ele>
        <time>2024-07-31T10:42:07Z</time>
      </trkpt>
      <trkpt lat="47.31169" lon="6.1754">
        <ele>374.2</ele>
        <time>2024-07-31T10:42:08Z</time>
      </trkpt>
      <trkpt lat="47.31169" lon="6.17537">
        <ele>374.6</ele>
        <time>2024-07-31T10:42:09Z</time>
      </trkpt>
      <trkpt lat="47.3117" lon="6.17533">
        <ele>374.4</ele>
        <time>2024-07-31T10:42:10Z</time>
      </trkpt>
      <trkpt lat="47.31171" lon="6.1753">
        <ele>374.4</ele>
        <time>2024-07-31T10:42:11Z</time>
      </trkpt>
      <trkpt lat="47.31172" lon="6.17526">
        <ele>374.4</ele>
        <time>2024-07-31T10:42:12Z</time>
      </trkpt>
      <trkpt lat="47.31173" lon="6.17523">
        <ele>374.8</ele>
        <time>2024-07-31T10:42:13Z</time>
      </trkpt>
      <trkpt lat="47.31173" lon="6.1752">
        <ele>375</ele>
        <time>2024-07-31T10:42:14Z</time>
      </trkpt>
      <trkpt lat="47.31174" lon="6.17516">
        <ele>374.8</ele>
        <time>2024-07-31T10:42:15Z</time>
      </trkpt>
      <trkpt lat="47.31174" lon="6.17513">
        <ele>374.8</ele>
        <time>2024-07-31T10:42:16Z</time>
      </trkpt>
      <trkpt lat="47.31175" lon="6.1751">
        <ele>375</ele>
        <time>2024-07-31T10:42:17Z</time>
      </trkpt>
      <trkpt lat="47.31175" lon="6.17507">
        <ele>375</ele>
        <time>2024-07-31T10:42:18Z</time>
      </trkpt>
      <trkpt lat="47.31175" lon="6.17504">
        <ele>375</ele>
        <time>2024-07-31T10:42:19Z</time>
      </trkpt>
      <trkpt lat="47.31176" lon="6.17502">
        <ele>375.2</ele>
        <time>2024-07-31T10:42:20Z</time>
      </trkpt>
      <trkpt lat="47.31176" lon="6.175">
        <ele>375.2</ele>
        <time>2024-07-31T10:42:21Z</time>
      </trkpt>
      <trkpt lat="47.31176" lon="6.17498">
        <ele>375.4</ele>
        <time>2024-07-31T10:42:22Z</time>
      </trkpt>
      <trkpt lat="47.31176" lon="6.17495">
        <ele>375.4</ele>
        <time>2024-07-31T10:42:23Z</time>
      </trkpt>
      <trkpt lat="47.31176" lon="6.17493">
        <ele>375.6</ele>
        <time>2024-07-31T10:42:24Z</time>
      </trkpt>
      <trkpt lat="47.31177" lon="6.1749">
        <ele>375.8</ele>
        <time>2024-07-31T10:42:25Z</time>
      </trkpt>
      <trkpt lat="47.31177" lon="6.17486">
        <ele>375.8</ele>
        <time>2024-07-31T10:42:26Z</time>
      </trkpt>
      <trkpt lat="47.31177" lon="6.17483">
        <ele>375.4</ele>
        <time>2024-07-31T10:42:27Z</time>
      </trkpt>
      <trkpt lat="47.31178" lon="6.1748">
        <ele>375.8</ele>
        <time>2024-07-31T10:42:28Z</time>
      </trkpt>
      <trkpt lat="47.31178" lon="6.17477">
        <ele>375.8</ele>
        <time>2024-07-31T10:42:29Z</time>
      </trkpt>
      <trkpt lat="47.31179" lon="6.17475">
        <ele>375.8</ele>
        <time>2024-07-31T10:42:30Z</time>
      </trkpt>
      <trkpt lat="47.31179" lon="6.17472">
        <ele>376</ele>
        <time>2024-07-31T10:42:31Z</time>
      </trkpt>
      <trkpt lat="47.3118" lon="6.17468">
        <ele>376</ele>
        <time>2024-07-31T10:42:32Z</time>
      </trkpt>
      <trkpt lat="47.3118" lon="6.17465">
        <ele>376</ele>
        <time>2024-07-31T10:42:33Z</time>
      </trkpt>
      <trkpt lat="47.31181" lon="6.17462">
        <ele>376.2</ele>
        <time>2024-07-31T10:42:34Z</time>
      </trkpt>
      <trkpt lat="47.31181" lon="6.17459">
        <ele>376.4</ele>
        <time>2024-07-31T10:42:35Z</time>
      </trkpt>
      <trkpt lat="47.31181" lon="6.17456">
        <ele>376.6</ele>
        <time>2024-07-31T10:42:36Z</time>
      </trkpt>
      <trkpt lat="47.31182" lon="6.17454">
        <ele>376.6</ele>
        <time>2024-07-31T10:42:37Z</time>
      </trkpt>
      <trkpt lat="47.31183" lon="6.17452">
        <ele>376.8</ele>
        <time>2024-07-31T10:42:38Z</time>
      </trkpt>
      <trkpt lat="47.31183" lon="6.1745">
        <ele>377</ele>
        <time>2024-07-31T10:42:39Z</time>
      </trkpt>
      <trkpt lat="47.31184" lon="6.17448">
        <ele>377</ele>
        <time>2024-07-31T10:42:40Z</time>
      </trkpt>
      <trkpt lat="47.31184" lon="6.17446">
        <ele>377</ele>
        <time>2024-07-31T10:42:41Z</time>
      </trkpt>
      <trkpt lat="47.31184" lon="6.17443">
        <ele>376.8</ele>
        <time>2024-07-31T10:42:42Z</time>
      </trkpt>
      <trkpt lat="47.31184" lon="6.17439">
        <ele>377</ele>
        <time>2024-07-31T10:42:43Z</time>
      </trkpt>
      <trkpt lat="47.31185" lon="6.17436">
        <ele>377.2</ele>
        <time>2024-07-31T10:42:44Z</time>
      </trkpt>
      <trkpt lat="47.31185" lon="6.17433">
        <ele>377.2</ele>
        <time>2024-07-31T10:42:45Z</time>
      </trkpt>
      <trkpt lat="47.31186" lon="6.1743">
        <ele>377.4</ele>
        <time>2024-07-31T10:42:46Z</time>
      </trkpt>
      <trkpt lat="47.31186" lon="6.17427">
        <ele>377.6</ele>
        <time>2024-07-31T10:42:47Z</time>
      </trkpt>
      <trkpt lat="47.31187" lon="6.17424">
        <ele>377.6</ele>
        <time>2024-07-31T10:42:48Z</time>
      </trkpt>
      <trkpt lat="47.31188" lon="6.17422">
        <ele>377.6</ele>
        <time>2024-07-31T10:42:49Z</time>
      </trkpt>
      <trkpt lat="47.31188" lon="6.1742">
        <ele>377.6</ele>
        <time>2024-07-31T10:42:50Z</time>
      </trkpt>
      <trkpt lat="47.31188" lon="6.1742">
        <ele>377.4</ele>
        <time>2024-07-31T10:42:51Z</time>
      </trkpt>
      <trkpt lat="47.31188" lon="6.17419">
        <ele>377.4</ele>
        <time>2024-07-31T10:42:52Z</time>
      </trkpt>
      <trkpt lat="47.31188" lon="6.17418">
        <ele>377</ele>
        <time>2024-07-31T10:42:53Z</time>
      </trkpt>
      <trkpt lat="47.31188" lon="6.17417">
        <ele>377.2</ele>
        <time>2024-07-31T10:42:54Z</time>
      </trkpt>
      <trkpt lat="47.31189" lon="6.17415">
        <ele>377.4</ele>
        <time>2024-07-31T10:42:55Z</time>
      </trkpt>
      <trkpt lat="47.31189" lon="6.17414">
        <ele>377.4</ele>
        <time>2024-07-31T10:42:56Z</time>
      </trkpt>
      <trkpt lat="47.3119" lon="6.17412">
        <ele>377.2</ele>
        <time>2024-07-31T10:42:57Z</time>
      </trkpt>
      <trkpt lat="47.3119" lon="6.17411">
        <ele>377.2</ele>
        <time>2024-07-31T10:42:58Z</time>
      </trkpt>
      <trkpt lat="47.3119" lon="6.1741">
        <ele>377.2</ele>
        <time>2024-07-31T10:42:59Z</time>
      </trkpt>
      <trkpt lat="47.3119" lon="6.17408">
        <ele>377.2</ele>
        <time>2024-07-31T10:43:00Z</time>
      </trkpt>
      <trkpt lat="47.3119" lon="6.17407">
        <ele>377.2</ele>
        <time>2024-07-31T10:43:01Z</time>
      </trkpt>
      <trkpt lat="47.3119" lon="6.17406">
        <ele>377.2</ele>
        <time>2024-07-31T10:43:02Z</time>
      </trkpt>
      <trkpt lat="47.3119" lon="6.17405">
        <ele>377.2</ele>
        <time>2024-07-31T10:43:03Z</time>
      </trkpt>
      <trkpt lat="47.3119" lon="6.17404">
        <ele>377.2</ele>
        <time>2024-07-31T10:43:04Z</time>
      </trkpt>
      <trkpt lat="47.3119" lon="6.17403">
        <ele>377.4</ele>
        <time>2024-07-31T10:43:05Z</time>
      </trkpt>
      <trkpt lat="47.3119" lon="6.17401">
        <ele>377.6</ele>
        <time>2024-07-31T10:43:06Z</time>
      </trkpt>
      <trkpt lat="47.31192" lon="6.17398">
        <ele>377.6</ele>
        <time>2024-07-31T10:43:07Z</time>
      </trkpt>
      <trkpt lat="47.31192" lon="6.17397">
        <ele>377.6</ele>
        <time>2024-07-31T10:43:08Z</time>
      </trkpt>
      <trkpt lat="47.31193" lon="6.17394">
        <ele>377.6</ele>
        <time>2024-07-31T10:43:09Z</time>
      </trkpt>
      <trkpt lat="47.31193" lon="6.17392">
        <ele>377.6</ele>
        <time>2024-07-31T10:43:10Z</time>
      </trkpt>
      <trkpt lat="47.31193" lon="6.17389">
        <ele>377.6</ele>
        <time>2024-07-31T10:43:11Z</time>
      </trkpt>
      <trkpt lat="47.31193" lon="6.17387">
        <ele>377.6</ele>
        <time>2024-07-31T10:43:12Z</time>
      </trkpt>
      <trkpt lat="47.31193" lon="6.17386">
        <ele>377.6</ele>
        <time>2024-07-31T10:43:13Z</time>
      </trkpt>
      <trkpt lat="47.31193" lon="6.17384">
        <ele>377.6</ele>
        <time>2024-07-31T10:43:14Z</time>
      </trkpt>
      <trkpt lat="47.31194" lon="6.17383">
        <ele>377.6</ele>
        <time>2024-07-31T10:43:15Z</time>
      </trkpt>
      <trkpt lat="47.31194" lon="6.17382">
        <ele>377.6</ele>
        <time>2024-07-31T10:43:16Z</time>
      </trkpt>
      <trkpt lat="47.31194" lon="6.1738">
        <ele>377.6</ele>
        <time>2024-07-31T10:43:17Z</time>
      </trkpt>
      <trkpt lat="47.31194" lon="6.17379">
        <ele>377.8</ele>
        <time>2024-07-31T10:43:18Z</time>
      </trkpt>
      <trkpt lat="47.31195" lon="6.17378">
        <ele>378</ele>
        <time>2024-07-31T10:43:19Z</time>
      </trkpt>
      <trkpt lat="47.31195" lon="6.17376">
        <ele>378</ele>
        <time>2024-07-31T10:43:20Z</time>
      </trkpt>
      <trkpt lat="47.31195" lon="6.17375">
        <ele>377.8</ele>
        <time>2024-07-31T10:43:21Z</time>
      </trkpt>
      <trkpt lat="47.31195" lon="6.17373">
        <ele>377.8</ele>
        <time>2024-07-31T10:43:22Z</time>
      </trkpt>
      <trkpt lat="47.31196" lon="6.17372">
        <ele>378.2</ele>
        <time>2024-07-31T10:43:23Z</time>
      </trkpt>
      <trkpt lat="47.31197" lon="6.17372">
        <ele>378.2</ele>
        <time>2024-07-31T10:43:24Z</time>
      </trkpt>
      <trkpt lat="47.31197" lon="6.1737">
        <ele>378</ele>
        <time>2024-07-31T10:43:25Z</time>
      </trkpt>
      <trkpt lat="47.31198" lon="6.17369">
        <ele>378.4</ele>
        <time>2024-07-31T10:43:26Z</time>
      </trkpt>
      <trkpt lat="47.31198" lon="6.17368">
        <ele>378.4</ele>
        <time>2024-07-31T10:43:27Z</time>
      </trkpt>
      <trkpt lat="47.31199" lon="6.17366">
        <ele>378.4</ele>
        <time>2024-07-31T10:43:28Z</time>
      </trkpt>
      <trkpt lat="47.31199" lon="6.17365">
        <ele>378.6</ele>
        <time>2024-07-31T10:43:29Z</time>
      </trkpt>
      <trkpt lat="47.31199" lon="6.17364">
        <ele>378.4</ele>
        <time>2024-07-31T10:43:30Z</time>
      </trkpt>
      <trkpt lat="47.31199" lon="6.17362">
        <ele>378.4</ele>
        <time>2024-07-31T10:43:31Z</time>
      </trkpt>
      <trkpt lat="47.31199" lon="6.17362">
        <ele>378.2</ele>
        <time>2024-07-31T10:43:32Z</time>
      </trkpt>
      <trkpt lat="47.31199" lon="6.1736">
        <ele>378.2</ele>
        <time>2024-07-31T10:43:33Z</time>
      </trkpt>
      <trkpt lat="47.31199" lon="6.17359">
        <ele>378.2</ele>
        <time>2024-07-31T10:43:34Z</time>
      </trkpt>
      <trkpt lat="47.31199" lon="6.17359">
        <ele>378.2</ele>
        <time>2024-07-31T10:43:35Z</time>
      </trkpt>
      <trkpt lat="47.31199" lon="6.17359">
        <ele>378</ele>
        <time>2024-07-31T10:43:36Z</time>
      </trkpt>
      <trkpt lat="47.31199" lon="6.17358">
        <ele>378</ele>
        <time>2024-07-31T10:43:37Z</time>
      </trkpt>
      <trkpt lat="47.31199" lon="6.17358">
        <ele>378.2</ele>
        <time>2024-07-31T10:43:38Z</time>
      </trkpt>
      <trkpt lat="47.312" lon="6.17357">
        <ele>378.2</ele>
        <time>2024-07-31T10:43:39Z</time>
      </trkpt>
      <trkpt lat="47.312" lon="6.17356">
        <ele>378.4</ele>
        <time>2024-07-31T10:43:40Z</time>
      </trkpt>
      <trkpt lat="47.312" lon="6.17353">
        <ele>378.4</ele>
        <time>2024-07-31T10:43:41Z</time>
      </trkpt>
      <trkpt lat="47.31201" lon="6.17352">
        <ele>378.6</ele>
        <time>2024-07-31T10:43:42Z</time>
      </trkpt>
      <trkpt lat="47.31201" lon="6.1735">
        <ele>378.6</ele>
        <time>2024-07-31T10:43:43Z</time>
      </trkpt>
      <trkpt lat="47.31201" lon="6.17348">
        <ele>378.6</ele>
        <time>2024-07-31T10:43:44Z</time>
      </trkpt>
      <trkpt lat="47.31202" lon="6.17346">
        <ele>378.8</ele>
        <time>2024-07-31T10:43:45Z</time>
      </trkpt>
      <trkpt lat="47.31202" lon="6.17344">
        <ele>379.2</ele>
        <time>2024-07-31T10:43:46Z</time>
      </trkpt>
      <trkpt lat="47.31203" lon="6.17342">
        <ele>379.2</ele>
        <time>2024-07-31T10:43:47Z</time>
      </trkpt>
      <trkpt lat="47.31204" lon="6.1734">
        <ele>379.2</ele>
        <time>2024-07-31T10:43:48Z</time>
      </trkpt>
      <trkpt lat="47.31204" lon="6.17338">
        <ele>379.4</ele>
        <time>2024-07-31T10:43:49Z</time>
      </trkpt>
      <trkpt lat="47.31205" lon="6.17335">
        <ele>379.6</ele>
        <time>2024-07-31T10:43:50Z</time>
      </trkpt>
      <trkpt lat="47.31205" lon="6.17333">
        <ele>379.6</ele>
        <time>2024-07-31T10:43:51Z</time>
      </trkpt>
      <trkpt lat="47.31206" lon="6.17332">
        <ele>379.4</ele>
        <time>2024-07-31T10:43:52Z</time>
      </trkpt>
      <trkpt lat="47.31207" lon="6.17331">
        <ele>379.4</ele>
        <time>2024-07-31T10:43:53Z</time>
      </trkpt>
      <trkpt lat="47.31208" lon="6.17329">
        <ele>379.8</ele>
        <time>2024-07-31T10:43:54Z</time>
      </trkpt>
      <trkpt lat="47.31208" lon="6.17327">
        <ele>379.6</ele>
        <time>2024-07-31T10:43:55Z</time>
      </trkpt>
      <trkpt lat="47.31209" lon="6.17326">
        <ele>379.6</ele>
        <time>2024-07-31T10:43:56Z</time>
      </trkpt>
      <trkpt lat="47.31209" lon="6.17324">
        <ele>380</ele>
        <time>2024-07-31T10:43:57Z</time>
      </trkpt>
      <trkpt lat="47.3121" lon="6.17321">
        <ele>380</ele>
        <time>2024-07-31T10:43:58Z</time>
      </trkpt>
      <trkpt lat="47.3121" lon="6.17319">
        <ele>380.2</ele>
        <time>2024-07-31T10:43:59Z</time>
      </trkpt>
      <trkpt lat="47.31211" lon="6.17317">
        <ele>380.6</ele>
        <time>2024-07-31T10:44:00Z</time>
      </trkpt>
      <trkpt lat="47.31212" lon="6.17315">
        <ele>380.4</ele>
        <time>2024-07-31T10:44:01Z</time>
      </trkpt>
      <trkpt lat="47.31212" lon="6.17312">
        <ele>380.4</ele>
        <time>2024-07-31T10:44:02Z</time>
      </trkpt>
      <trkpt lat="47.31213" lon="6.17309">
        <ele>380.4</ele>
        <time>2024-07-31T10:44:03Z</time>
      </trkpt>
      <trkpt lat="47.31214" lon="6.17306">
        <ele>380.6</ele>
        <time>2024-07-31T10:44:04Z</time>
      </trkpt>
      <trkpt lat="47.31215" lon="6.17304">
        <ele>380.6</ele>
        <time>2024-07-31T10:44:05Z</time>
      </trkpt>
      <trkpt lat="47.31215" lon="6.17302">
        <ele>380.8</ele>
        <time>2024-07-31T10:44:06Z</time>
      </trkpt>
      <trkpt lat="47.31216" lon="6.173">
        <ele>380.8</ele>
        <time>2024-07-31T10:44:07Z</time>
      </trkpt>
      <trkpt lat="47.31216" lon="6.17298">
        <ele>381</ele>
        <time>2024-07-31T10:44:08Z</time>
      </trkpt>
      <trkpt lat="47.31217" lon="6.17296">
        <ele>381</ele>
        <time>2024-07-31T10:44:09Z</time>
      </trkpt>
      <trkpt lat="47.31217" lon="6.17294">
        <ele>381</ele>
        <time>2024-07-31T10:44:10Z</time>
      </trkpt>
      <trkpt lat="47.31218" lon="6.17292">
        <ele>381.2</ele>
        <time>2024-07-31T10:44:11Z</time>
      </trkpt>
      <trkpt lat="47.31219" lon="6.1729">
        <ele>381.4</ele>
        <time>2024-07-31T10:44:12Z</time>
      </trkpt>
      <trkpt lat="47.31219" lon="6.17288">
        <ele>381.6</ele>
        <time>2024-07-31T10:44:13Z</time>
      </trkpt>
      <trkpt lat="47.3122" lon="6.17286">
        <ele>381.6</ele>
        <time>2024-07-31T10:44:14Z</time>
      </trkpt>
      <trkpt lat="47.31221" lon="6.17283">
        <ele>381.6</ele>
        <time>2024-07-31T10:44:15Z</time>
      </trkpt>
      <trkpt lat="47.31221" lon="6.17281">
        <ele>381.6</ele>
        <time>2024-07-31T10:44:16Z</time>
      </trkpt>
      <trkpt lat="47.31222" lon="6.17278">
        <ele>381.8</ele>
        <time>2024-07-31T10:44:17Z</time>
      </trkpt>
      <trkpt lat="47.31222" lon="6.17276">
        <ele>381.8</ele>
        <time>2024-07-31T10:44:18Z</time>
      </trkpt>
      <trkpt lat="47.31223" lon="6.17274">
        <ele>381.8</ele>
        <time>2024-07-31T10:44:19Z</time>
      </trkpt>
      <trkpt lat="47.31223" lon="6.17273">
        <ele>382</ele>
        <time>2024-07-31T10:44:20Z</time>
      </trkpt>
      <trkpt lat="47.31224" lon="6.1727">
        <ele>382.2</ele>
        <time>2024-07-31T10:44:21Z</time>
      </trkpt>
      <trkpt lat="47.31224" lon="6.17268">
        <ele>382.2</ele>
        <time>2024-07-31T10:44:22Z</time>
      </trkpt>
      <trkpt lat="47.31225" lon="6.17266">
        <ele>382.4</ele>
        <time>2024-07-31T10:44:23Z</time>
      </trkpt>
      <trkpt lat="47.31225" lon="6.17264">
        <ele>382.4</ele>
        <time>2024-07-31T10:44:24Z</time>
      </trkpt>
      <trkpt lat="47.31226" lon="6.17261">
        <ele>382.6</ele>
        <time>2024-07-31T10:44:25Z</time>
      </trkpt>
      <trkpt lat="47.31226" lon="6.17259">
        <ele>382.8</ele>
        <time>2024-07-31T10:44:26Z</time>
      </trkpt>
      <trkpt lat="47.31226" lon="6.17256">
        <ele>382.8</ele>
        <time>2024-07-31T10:44:27Z</time>
      </trkpt>
      <trkpt lat="47.31226" lon="6.17254">
        <ele>383</ele>
        <time>2024-07-31T10:44:28Z</time>
      </trkpt>
      <trkpt lat="47.31227" lon="6.17252">
        <ele>383</ele>
        <time>2024-07-31T10:44:29Z</time>
      </trkpt>
      <trkpt lat="47.31227" lon="6.1725">
        <ele>383</ele>
        <time>2024-07-31T10:44:30Z</time>
      </trkpt>
      <trkpt lat="47.31227" lon="6.17247">
        <ele>383.2</ele>
        <time>2024-07-31T10:44:31Z</time>
      </trkpt>
      <trkpt lat="47.31227" lon="6.17245">
        <ele>383.2</ele>
        <time>2024-07-31T10:44:32Z</time>
      </trkpt>
      <trkpt lat="47.31228" lon="6.17242">
        <ele>383.4</ele>
        <time>2024-07-31T10:44:33Z</time>
      </trkpt>
      <trkpt lat="47.31228" lon="6.17239">
        <ele>383.6</ele>
        <time>2024-07-31T10:44:34Z</time>
      </trkpt>
      <trkpt lat="47.31228" lon="6.17237">
        <ele>383.4</ele>
        <time>2024-07-31T10:44:35Z</time>
      </trkpt>
      <trkpt lat="47.31228" lon="6.17234">
        <ele>383.4</ele>
        <time>2024-07-31T10:44:36Z</time>
      </trkpt>
      <trkpt lat="47.31228" lon="6.17231">
        <ele>383.6</ele>
        <time>2024-07-31T10:44:37Z</time>
      </trkpt>
      <trkpt lat="47.31229" lon="6.17227">
        <ele>383.8</ele>
        <time>2024-07-31T10:44:38Z</time>
      </trkpt>
      <trkpt lat="47.3123" lon="6.17225">
        <ele>383.8</ele>
        <time>2024-07-31T10:44:39Z</time>
      </trkpt>
      <trkpt lat="47.31231" lon="6.17222">
        <ele>384</ele>
        <time>2024-07-31T10:44:40Z</time>
      </trkpt>
      <trkpt lat="47.31231" lon="6.17219">
        <ele>384.2</ele>
        <time>2024-07-31T10:44:41Z</time>
      </trkpt>
      <trkpt lat="47.31231" lon="6.17216">
        <ele>384.2</ele>
        <time>2024-07-31T10:44:42Z</time>
      </trkpt>
      <trkpt lat="47.31232" lon="6.17214">
        <ele>384.2</ele>
        <time>2024-07-31T10:44:43Z</time>
      </trkpt>
      <trkpt lat="47.31233" lon="6.17212">
        <ele>384.6</ele>
        <time>2024-07-31T10:44:44Z</time>
      </trkpt>
      <trkpt lat="47.31234" lon="6.17209">
        <ele>384.6</ele>
        <time>2024-07-31T10:44:45Z</time>
      </trkpt>
      <trkpt lat="47.31236" lon="6.17206">
        <ele>384.8</ele>
        <time>2024-07-31T10:44:46Z</time>
      </trkpt>
      <trkpt lat="47.31237" lon="6.17204">
        <ele>385</ele>
        <time>2024-07-31T10:44:47Z</time>
      </trkpt>
      <trkpt lat="47.31238" lon="6.17201">
        <ele>385.2</ele>
        <time>2024-07-31T10:44:48Z</time>
      </trkpt>
      <trkpt lat="47.31239" lon="6.17198">
        <ele>385.2</ele>
        <time>2024-07-31T10:44:49Z</time>
      </trkpt>
      <trkpt lat="47.3124" lon="6.17196">
        <ele>385.2</ele>
        <time>2024-07-31T10:44:50Z</time>
      </trkpt>
      <trkpt lat="47.3124" lon="6.17194">
        <ele>385.4</ele>
        <time>2024-07-31T10:44:51Z</time>
      </trkpt>
      <trkpt lat="47.31241" lon="6.17191">
        <ele>385.4</ele>
        <time>2024-07-31T10:44:52Z</time>
      </trkpt>
      <trkpt lat="47.31242" lon="6.17188">
        <ele>385.6</ele>
        <time>2024-07-31T10:44:53Z</time>
      </trkpt>
      <trkpt lat="47.31243" lon="6.17186">
        <ele>385.8</ele>
        <time>2024-07-31T10:44:54Z</time>
      </trkpt>
      <trkpt lat="47.31243" lon="6.17183">
        <ele>385.8</ele>
        <time>2024-07-31T10:44:55Z</time>
      </trkpt>
      <trkpt lat="47.31244" lon="6.1718">
        <ele>386</ele>
        <time>2024-07-31T10:44:56Z</time>
      </trkpt>
      <trkpt lat="47.31245" lon="6.17177">
        <ele>386</ele>
        <time>2024-07-31T10:44:57Z</time>
      </trkpt>
      <trkpt lat="47.31245" lon="6.17173">
        <ele>386</ele>
        <time>2024-07-31T10:44:58Z</time>
      </trkpt>
      <trkpt lat="47.31246" lon="6.17169">
        <ele>386.2</ele>
        <time>2024-07-31T10:44:59Z</time>
      </trkpt>
      <trkpt lat="47.31247" lon="6.17165">
        <ele>386.2</ele>
        <time>2024-07-31T10:45:00Z</time>
      </trkpt>
      <trkpt lat="47.31248" lon="6.17163">
        <ele>386.4</ele>
        <time>2024-07-31T10:45:01Z</time>
      </trkpt>
      <trkpt lat="47.31248" lon="6.1716">
        <ele>386.6</ele>
        <time>2024-07-31T10:45:02Z</time>
      </trkpt>
      <trkpt lat="47.31249" lon="6.17157">
        <ele>386.6</ele>
        <time>2024-07-31T10:45:03Z</time>
      </trkpt>
      <trkpt lat="47.31249" lon="6.17154">
        <ele>386.8</ele>
        <time>2024-07-31T10:45:04Z</time>
      </trkpt>
      <trkpt lat="47.3125" lon="6.17151">
        <ele>386.8</ele>
        <time>2024-07-31T10:45:05Z</time>
      </trkpt>
      <trkpt lat="47.3125" lon="6.17148">
        <ele>387.2</ele>
        <time>2024-07-31T10:45:06Z</time>
      </trkpt>
      <trkpt lat="47.3125" lon="6.17145">
        <ele>387.2</ele>
        <time>2024-07-31T10:45:07Z</time>
      </trkpt>
      <trkpt lat="47.31251" lon="6.17141">
        <ele>387.4</ele>
        <time>2024-07-31T10:45:08Z</time>
      </trkpt>
      <trkpt lat="47.31251" lon="6.17138">
        <ele>387.6</ele>
        <time>2024-07-31T10:45:09Z</time>
      </trkpt>
      <trkpt lat="47.31252" lon="6.17137">
        <ele>387.6</ele>
        <time>2024-07-31T10:45:10Z</time>
      </trkpt>
      <trkpt lat="47.31253" lon="6.17134">
        <ele>388</ele>
        <time>2024-07-31T10:45:11Z</time>
      </trkpt>
      <trkpt lat="47.31253" lon="6.17131">
        <ele>388</ele>
        <time>2024-07-31T10:45:12Z</time>
      </trkpt>
      <trkpt lat="47.31253" lon="6.17129">
        <ele>388</ele>
        <time>2024-07-31T10:45:13Z</time>
      </trkpt>
      <trkpt lat="47.31254" lon="6.17126">
        <ele>388.4</ele>
        <time>2024-07-31T10:45:14Z</time>
      </trkpt>
      <trkpt lat="47.31254" lon="6.17123">
        <ele>388.4</ele>
        <time>2024-07-31T10:45:15Z</time>
      </trkpt>
      <trkpt lat="47.31254" lon="6.17121">
        <ele>388.6</ele>
        <time>2024-07-31T10:45:16Z</time>
      </trkpt>
      <trkpt lat="47.31254" lon="6.17118">
        <ele>388.8</ele>
        <time>2024-07-31T10:45:17Z</time>
      </trkpt>
      <trkpt lat="47.31255" lon="6.17115">
        <ele>388.8</ele>
        <time>2024-07-31T10:45:18Z</time>
      </trkpt>
      <trkpt lat="47.31255" lon="6.1711">
        <ele>388.8</ele>
        <time>2024-07-31T10:45:19Z</time>
      </trkpt>
      <trkpt lat="47.31256" lon="6.17104">
        <ele>389</ele>
        <time>2024-07-31T10:45:20Z</time>
      </trkpt>
      <trkpt lat="47.31256" lon="6.17101">
        <ele>389</ele>
        <time>2024-07-31T10:45:21Z</time>
      </trkpt>
      <trkpt lat="47.31256" lon="6.17098">
        <ele>389</ele>
        <time>2024-07-31T10:45:22Z</time>
      </trkpt>
      <trkpt lat="47.31257" lon="6.17096">
        <ele>389.2</ele>
        <time>2024-07-31T10:45:23Z</time>
      </trkpt>
      <trkpt lat="47.31257" lon="6.17094">
        <ele>389.4</ele>
        <time>2024-07-31T10:45:24Z</time>
      </trkpt>
      <trkpt lat="47.31257" lon="6.17091">
        <ele>389.6</ele>
        <time>2024-07-31T10:45:25Z</time>
      </trkpt>
      <trkpt lat="47.31257" lon="6.17089">
        <ele>389.4</ele>
        <time>2024-07-31T10:45:26Z</time>
      </trkpt>
      <trkpt lat="47.31258" lon="6.17086">
        <ele>389.4</ele>
        <time>2024-07-31T10:45:27Z</time>
      </trkpt>
      <trkpt lat="47.31258" lon="6.17083">
        <ele>389.6</ele>
        <time>2024-07-31T10:45:28Z</time>
      </trkpt>
      <trkpt lat="47.31258" lon="6.17079">
        <ele>390</ele>
        <time>2024-07-31T10:45:29Z</time>
      </trkpt>
      <trkpt lat="47.31259" lon="6.17076">
        <ele>390</ele>
        <time>2024-07-31T10:45:30Z</time>
      </trkpt>
      <trkpt lat="47.31259" lon="6.17072">
        <ele>390.2</ele>
        <time>2024-07-31T10:45:31Z</time>
      </trkpt>
      <trkpt lat="47.3126" lon="6.17069">
        <ele>390.4</ele>
        <time>2024-07-31T10:45:32Z</time>
      </trkpt>
      <trkpt lat="47.3126" lon="6.17066">
        <ele>390.6</ele>
        <time>2024-07-31T10:45:33Z</time>
      </trkpt>
      <trkpt lat="47.31261" lon="6.17064">
        <ele>390.6</ele>
        <time>2024-07-31T10:45:34Z</time>
      </trkpt>
      <trkpt lat="47.31261" lon="6.17063">
        <ele>391</ele>
        <time>2024-07-31T10:45:35Z</time>
      </trkpt>
      <trkpt lat="47.31261" lon="6.17062">
        <ele>391.2</ele>
        <time>2024-07-31T10:45:36Z</time>
      </trkpt>
      <trkpt lat="47.31262" lon="6.1706">
        <ele>391.4</ele>
        <time>2024-07-31T10:45:37Z</time>
      </trkpt>
      <trkpt lat="47.31262" lon="6.17059">
        <ele>391.4</ele>
        <time>2024-07-31T10:45:38Z</time>
      </trkpt>
      <trkpt lat="47.31262" lon="6.17056">
        <ele>391.6</ele>
        <time>2024-07-31T10:45:39Z</time>
      </trkpt>
      <trkpt lat="47.31262" lon="6.17054">
        <ele>391.8</ele>
        <time>2024-07-31T10:45:40Z</time>
      </trkpt>
      <trkpt lat="47.31262" lon="6.17051">
        <ele>392</ele>
        <time>2024-07-31T10:45:41Z</time>
      </trkpt>
      <trkpt lat="47.31262" lon="6.17049">
        <ele>392.2</ele>
        <time>2024-07-31T10:45:42Z</time>
      </trkpt>
      <trkpt lat="47.31263" lon="6.17047">
        <ele>392.2</ele>
        <time>2024-07-31T10:45:43Z</time>
      </trkpt>
      <trkpt lat="47.31263" lon="6.17045">
        <ele>392.2</ele>
        <time>2024-07-31T10:45:44Z</time>
      </trkpt>
      <trkpt lat="47.31263" lon="6.17043">
        <ele>392.2</ele>
        <time>2024-07-31T10:45:45Z</time>
      </trkpt>
      <trkpt lat="47.31263" lon="6.17041">
        <ele>392.6</ele>
        <time>2024-07-31T10:45:46Z</time>
      </trkpt>
      <trkpt lat="47.31264" lon="6.17039">
        <ele>392.6</ele>
        <time>2024-07-31T10:45:47Z</time>
      </trkpt>
      <trkpt lat="47.31264" lon="6.17037">
        <ele>392.8</ele>
        <time>2024-07-31T10:45:48Z</time>
      </trkpt>
      <trkpt lat="47.31265" lon="6.17034">
        <ele>393</ele>
        <time>2024-07-31T10:45:49Z</time>
      </trkpt>
      <trkpt lat="47.31266" lon="6.17032">
        <ele>393.2</ele>
        <time>2024-07-31T10:45:50Z</time>
      </trkpt>
      <trkpt lat="47.31266" lon="6.17029">
        <ele>393.2</ele>
        <time>2024-07-31T10:45:51Z</time>
      </trkpt>
      <trkpt lat="47.31267" lon="6.17026">
        <ele>393.4</ele>
        <time>2024-07-31T10:45:52Z</time>
      </trkpt>
      <trkpt lat="47.31267" lon="6.17024">
        <ele>393.8</ele>
        <time>2024-07-31T10:45:53Z</time>
      </trkpt>
      <trkpt lat="47.31268" lon="6.1702">
        <ele>393.8</ele>
        <time>2024-07-31T10:45:54Z</time>
      </trkpt>
      <trkpt lat="47.31268" lon="6.17018">
        <ele>394.2</ele>
        <time>2024-07-31T10:45:55Z</time>
      </trkpt>
      <trkpt lat="47.31268" lon="6.17015">
        <ele>394.2</ele>
        <time>2024-07-31T10:45:56Z</time>
      </trkpt>
      <trkpt lat="47.31268" lon="6.17013">
        <ele>394.2</ele>
        <time>2024-07-31T10:45:57Z</time>
      </trkpt>
      <trkpt lat="47.31268" lon="6.17011">
        <ele>394.2</ele>
        <time>2024-07-31T10:45:58Z</time>
      </trkpt>
      <trkpt lat="47.31269" lon="6.17008">
        <ele>394.4</ele>
        <time>2024-07-31T10:45:59Z</time>
      </trkpt>
      <trkpt lat="47.31269" lon="6.17006">
        <ele>394.6</ele>
        <time>2024-07-31T10:46:00Z</time>
      </trkpt>
      <trkpt lat="47.31269" lon="6.17004">
        <ele>394.8</ele>
        <time>2024-07-31T10:46:01Z</time>
      </trkpt>
      <trkpt lat="47.3127" lon="6.17002">
        <ele>394.8</ele>
        <time>2024-07-31T10:46:02Z</time>
      </trkpt>
      <trkpt lat="47.31271" lon="6.16999">
        <ele>395</ele>
        <time>2024-07-31T10:46:03Z</time>
      </trkpt>
      <trkpt lat="47.31272" lon="6.16997">
        <ele>395</ele>
        <time>2024-07-31T10:46:04Z</time>
      </trkpt>
      <trkpt lat="47.31272" lon="6.16996">
        <ele>395.2</ele>
        <time>2024-07-31T10:46:05Z</time>
      </trkpt>
      <trkpt lat="47.31272" lon="6.16993">
        <ele>395.4</ele>
        <time>2024-07-31T10:46:06Z</time>
      </trkpt>
      <trkpt lat="47.31273" lon="6.16991">
        <ele>395.6</ele>
        <time>2024-07-31T10:46:07Z</time>
      </trkpt>
      <trkpt lat="47.31274" lon="6.16988">
        <ele>395.6</ele>
        <time>2024-07-31T10:46:08Z</time>
      </trkpt>
      <trkpt lat="47.31274" lon="6.16986">
        <ele>395.8</ele>
        <time>2024-07-31T10:46:09Z</time>
      </trkpt>
      <trkpt lat="47.31275" lon="6.16984">
        <ele>396</ele>
        <time>2024-07-31T10:46:10Z</time>
      </trkpt>
      <trkpt lat="47.31275" lon="6.16982">
        <ele>396</ele>
        <time>2024-07-31T10:46:11Z</time>
      </trkpt>
      <trkpt lat="47.31276" lon="6.16979">
        <ele>396.4</ele>
        <time>2024-07-31T10:46:12Z</time>
      </trkpt>
      <trkpt lat="47.31277" lon="6.16977">
        <ele>396.4</ele>
        <time>2024-07-31T10:46:13Z</time>
      </trkpt>
      <trkpt lat="47.31277" lon="6.16975">
        <ele>396.6</ele>
        <time>2024-07-31T10:46:14Z</time>
      </trkpt>
      <trkpt lat="47.31279" lon="6.16972">
        <ele>396.8</ele>
        <time>2024-07-31T10:46:15Z</time>
      </trkpt>
      <trkpt lat="47.3128" lon="6.16969">
        <ele>397.2</ele>
        <time>2024-07-31T10:46:16Z</time>
      </trkpt>
      <trkpt lat="47.31281" lon="6.16967">
        <ele>397.2</ele>
        <time>2024-07-31T10:46:17Z</time>
      </trkpt>
      <trkpt lat="47.31282" lon="6.16965">
        <ele>397.4</ele>
        <time>2024-07-31T10:46:18Z</time>
      </trkpt>
      <trkpt lat="47.31282" lon="6.16964">
        <ele>397.6</ele>
        <time>2024-07-31T10:46:19Z</time>
      </trkpt>
      <trkpt lat="47.31283" lon="6.16962">
        <ele>397.8</ele>
        <time>2024-07-31T10:46:20Z</time>
      </trkpt>
      <trkpt lat="47.31284" lon="6.1696">
        <ele>398</ele>
        <time>2024-07-31T10:46:21Z</time>
      </trkpt>
      <trkpt lat="47.31285" lon="6.16958">
        <ele>398.2</ele>
        <time>2024-07-31T10:46:22Z</time>
      </trkpt>
      <trkpt lat="47.31285" lon="6.16956">
        <ele>398.4</ele>
        <time>2024-07-31T10:46:23Z</time>
      </trkpt>
      <trkpt lat="47.31286" lon="6.16953">
        <ele>398.4</ele>
        <time>2024-07-31T10:46:24Z</time>
      </trkpt>
      <trkpt lat="47.31287" lon="6.1695">
        <ele>398.6</ele>
        <time>2024-07-31T10:46:25Z</time>
      </trkpt>
      <trkpt lat="47.31287" lon="6.16949">
        <ele>398.8</ele>
        <time>2024-07-31T10:46:26Z</time>
      </trkpt>
      <trkpt lat="47.31288" lon="6.16947">
        <ele>398.8</ele>
        <time>2024-07-31T10:46:27Z</time>
      </trkpt>
      <trkpt lat="47.31289" lon="6.16944">
        <ele>399</ele>
        <time>2024-07-31T10:46:28Z</time>
      </trkpt>
      <trkpt lat="47.3129" lon="6.16941">
        <ele>399.2</ele>
        <time>2024-07-31T10:46:29Z</time>
      </trkpt>
      <trkpt lat="47.3129" lon="6.16939">
        <ele>399.4</ele>
        <time>2024-07-31T10:46:30Z</time>
      </trkpt>
      <trkpt lat="47.3129" lon="6.16938">
        <ele>399.8</ele>
        <time>2024-07-31T10:46:31Z</time>
      </trkpt>
      <trkpt lat="47.3129" lon="6.16937">
        <ele>399.8</ele>
        <time>2024-07-31T10:46:32Z</time>
      </trkpt>
      <trkpt lat="47.3129" lon="6.16935">
        <ele>400</ele>
        <time>2024-07-31T10:46:33Z</time>
      </trkpt>
      <trkpt lat="47.31291" lon="6.16934">
        <ele>400.2</ele>
        <time>2024-07-31T10:46:34Z</time>
      </trkpt>
      <trkpt lat="47.31291" lon="6.16933">
        <ele>400.4</ele>
        <time>2024-07-31T10:46:35Z</time>
      </trkpt>
      <trkpt lat="47.31292" lon="6.16931">
        <ele>400.8</ele>
        <time>2024-07-31T10:46:36Z</time>
      </trkpt>
      <trkpt lat="47.31292" lon="6.16928">
        <ele>401</ele>
        <time>2024-07-31T10:46:37Z</time>
      </trkpt>
      <trkpt lat="47.31292" lon="6.16926">
        <ele>401.2</ele>
        <time>2024-07-31T10:46:38Z</time>
      </trkpt>
      <trkpt lat="47.31293" lon="6.16924">
        <ele>401.2</ele>
        <time>2024-07-31T10:46:39Z</time>
      </trkpt>
      <trkpt lat="47.31293" lon="6.16921">
        <ele>401.4</ele>
        <time>2024-07-31T10:46:40Z</time>
      </trkpt>
      <trkpt lat="47.31294" lon="6.16919">
        <ele>401.4</ele>
        <time>2024-07-31T10:46:41Z</time>
      </trkpt>
      <trkpt lat="47.31294" lon="6.16917">
        <ele>401.6</ele>
        <time>2024-07-31T10:46:42Z</time>
      </trkpt>
      <trkpt lat="47.31294" lon="6.16915">
        <ele>402</ele>
        <time>2024-07-31T10:46:43Z</time>
      </trkpt>
      <trkpt lat="47.31294" lon="6.16912">
        <ele>402.2</ele>
        <time>2024-07-31T10:46:44Z</time>
      </trkpt>
      <trkpt lat="47.31295" lon="6.1691">
        <ele>402.4</ele>
        <time>2024-07-31T10:46:45Z</time>
      </trkpt>
      <trkpt lat="47.31296" lon="6.16908">
        <ele>402.4</ele>
        <time>2024-07-31T10:46:46Z</time>
      </trkpt>
      <trkpt lat="47.31296" lon="6.16905">
        <ele>402.6</ele>
        <time>2024-07-31T10:46:47Z</time>
      </trkpt>
      <trkpt lat="47.31296" lon="6.16903">
        <ele>402.6</ele>
        <time>2024-07-31T10:46:48Z</time>
      </trkpt>
      <trkpt lat="47.31297" lon="6.16901">
        <ele>403</ele>
        <time>2024-07-31T10:46:49Z</time>
      </trkpt>
      <trkpt lat="47.31297" lon="6.16899">
        <ele>403.4</ele>
        <time>2024-07-31T10:46:50Z</time>
      </trkpt>
      <trkpt lat="47.31297" lon="6.16897">
        <ele>403.2</ele>
        <time>2024-07-31T10:46:51Z</time>
      </trkpt>
      <trkpt lat="47.31297" lon="6.16894">
        <ele>403.6</ele>
        <time>2024-07-31T10:46:52Z</time>
      </trkpt>
      <trkpt lat="47.31298" lon="6.16892">
        <ele>403.8</ele>
        <time>2024-07-31T10:46:53Z</time>
      </trkpt>
      <trkpt lat="47.31298" lon="6.16889">
        <ele>404</ele>
        <time>2024-07-31T10:46:54Z</time>
      </trkpt>
      <trkpt lat="47.31297" lon="6.16887">
        <ele>404.2</ele>
        <time>2024-07-31T10:46:55Z</time>
      </trkpt>
      <trkpt lat="47.31297" lon="6.16885">
        <ele>404.6</ele>
        <time>2024-07-31T10:46:56Z</time>
      </trkpt>
      <trkpt lat="47.31298" lon="6.16883">
        <ele>404.6</ele>
        <time>2024-07-31T10:46:57Z</time>
      </trkpt>
      <trkpt lat="47.31298" lon="6.1688">
        <ele>405</ele>
        <time>2024-07-31T10:46:58Z</time>
      </trkpt>
      <trkpt lat="47.31299" lon="6.16878">
        <ele>405.2</ele>
        <time>2024-07-31T10:46:59Z</time>
      </trkpt>
      <trkpt lat="47.31299" lon="6.16875">
        <ele>405.4</ele>
        <time>2024-07-31T10:47:00Z</time>
      </trkpt>
      <trkpt lat="47.31299" lon="6.16873">
        <ele>405.6</ele>
        <time>2024-07-31T10:47:01Z</time>
      </trkpt>
      <trkpt lat="47.313" lon="6.16871">
        <ele>405.6</ele>
        <time>2024-07-31T10:47:02Z</time>
      </trkpt>
      <trkpt lat="47.313" lon="6.1687">
        <ele>405.8</ele>
        <time>2024-07-31T10:47:03Z</time>
      </trkpt>
      <trkpt lat="47.313" lon="6.16868">
        <ele>406</ele>
        <time>2024-07-31T10:47:04Z</time>
      </trkpt>
      <trkpt lat="47.313" lon="6.16867">
        <ele>406</ele>
        <time>2024-07-31T10:47:05Z</time>
      </trkpt>
      <trkpt lat="47.313" lon="6.16865">
        <ele>406.6</ele>
        <time>2024-07-31T10:47:06Z</time>
      </trkpt>
      <trkpt lat="47.313" lon="6.16864">
        <ele>406.8</ele>
        <time>2024-07-31T10:47:07Z</time>
      </trkpt>
      <trkpt lat="47.31301" lon="6.16862">
        <ele>406.8</ele>
        <time>2024-07-31T10:47:08Z</time>
      </trkpt>
      <trkpt lat="47.31301" lon="6.1686">
        <ele>407</ele>
        <time>2024-07-31T10:47:09Z</time>
      </trkpt>
      <trkpt lat="47.31301" lon="6.16858">
        <ele>407.4</ele>
        <time>2024-07-31T10:47:10Z</time>
      </trkpt>
      <trkpt lat="47.31301" lon="6.16855">
        <ele>407.4</ele>
        <time>2024-07-31T10:47:11Z</time>
      </trkpt>
      <trkpt lat="47.31301" lon="6.16852">
        <ele>407.6</ele>
        <time>2024-07-31T10:47:12Z</time>
      </trkpt>
      <trkpt lat="47.31302" lon="6.16849">
        <ele>407.4</ele>
        <time>2024-07-31T10:47:13Z</time>
      </trkpt>
      <trkpt lat="47.31302" lon="6.16847">
        <ele>408</ele>
        <time>2024-07-31T10:47:14Z</time>
      </trkpt>
      <trkpt lat="47.31302" lon="6.16845">
        <ele>408</ele>
        <time>2024-07-31T10:47:15Z</time>
      </trkpt>
      <trkpt lat="47.31303" lon="6.16843">
        <ele>408</ele>
        <time>2024-07-31T10:47:16Z</time>
      </trkpt>
      <trkpt lat="47.31303" lon="6.1684">
        <ele>408.2</ele>
        <time>2024-07-31T10:47:17Z</time>
      </trkpt>
      <trkpt lat="47.31303" lon="6.16838">
        <ele>408.4</ele>
        <time>2024-07-31T10:47:18Z</time>
      </trkpt>
      <trkpt lat="47.31303" lon="6.16836">
        <ele>408.8</ele>
        <time>2024-07-31T10:47:19Z</time>
      </trkpt>
      <trkpt lat="47.31303" lon="6.16834">
        <ele>408.8</ele>
        <time>2024-07-31T10:47:20Z</time>
      </trkpt>
      <trkpt lat="47.31304" lon="6.16832">
        <ele>409</ele>
        <time>2024-07-31T10:47:21Z</time>
      </trkpt>
      <trkpt lat="47.31304" lon="6.16829">
        <ele>409.2</ele>
        <time>2024-07-31T10:47:22Z</time>
      </trkpt>
      <trkpt lat="47.31304" lon="6.16827">
        <ele>409.4</ele>
        <time>2024-07-31T10:47:23Z</time>
      </trkpt>
      <trkpt lat="47.31304" lon="6.16826">
        <ele>409.4</ele>
        <time>2024-07-31T10:47:24Z</time>
      </trkpt>
      <trkpt lat="47.31304" lon="6.16824">
        <ele>409.6</ele>
        <time>2024-07-31T10:47:25Z</time>
      </trkpt>
      <trkpt lat="47.31304" lon="6.16822">
        <ele>410</ele>
        <time>2024-07-31T10:47:26Z</time>
      </trkpt>
      <trkpt lat="47.31304" lon="6.16821">
        <ele>410.2</ele>
        <time>2024-07-31T10:47:27Z</time>
      </trkpt>
      <trkpt lat="47.31304" lon="6.16819">
        <ele>410.4</ele>
        <time>2024-07-31T10:47:28Z</time>
      </trkpt>
      <trkpt lat="47.31304" lon="6.16817">
        <ele>410.6</ele>
        <time>2024-07-31T10:47:29Z</time>
      </trkpt>
      <trkpt lat="47.31304" lon="6.16815">
        <ele>410.6</ele>
        <time>2024-07-31T10:47:30Z</time>
      </trkpt>
      <trkpt lat="47.31304" lon="6.16812">
        <ele>410.8</ele>
        <time>2024-07-31T10:47:31Z</time>
      </trkpt>
      <trkpt lat="47.31304" lon="6.16809">
        <ele>411</ele>
        <time>2024-07-31T10:47:32Z</time>
      </trkpt>
      <trkpt lat="47.31304" lon="6.16806">
        <ele>411</ele>
        <time>2024-07-31T10:47:33Z</time>
      </trkpt>
      <trkpt lat="47.31305" lon="6.16804">
        <ele>411.2</ele>
        <time>2024-07-31T10:47:34Z</time>
      </trkpt>
      <trkpt lat="47.31305" lon="6.16803">
        <ele>411.4</ele>
        <time>2024-07-31T10:47:35Z</time>
      </trkpt>
      <trkpt lat="47.31305" lon="6.16801">
        <ele>411.4</ele>
        <time>2024-07-31T10:47:36Z</time>
      </trkpt>
      <trkpt lat="47.31305" lon="6.16799">
        <ele>411.6</ele>
        <time>2024-07-31T10:47:37Z</time>
      </trkpt>
      <trkpt lat="47.31305" lon="6.16797">
        <ele>411.6</ele>
        <time>2024-07-31T10:47:38Z</time>
      </trkpt>
      <trkpt lat="47.31305" lon="6.16795">
        <ele>412</ele>
        <time>2024-07-31T10:47:39Z</time>
      </trkpt>
      <trkpt lat="47.31306" lon="6.16792">
        <ele>412</ele>
        <time>2024-07-31T10:47:40Z</time>
      </trkpt>
      <trkpt lat="47.31305" lon="6.1679">
        <ele>412.2</ele>
        <time>2024-07-31T10:47:41Z</time>
      </trkpt>
      <trkpt lat="47.31305" lon="6.16787">
        <ele>412.4</ele>
        <time>2024-07-31T10:47:42Z</time>
      </trkpt>
      <trkpt lat="47.31305" lon="6.16785">
        <ele>412.6</ele>
        <time>2024-07-31T10:47:43Z</time>
      </trkpt>
      <trkpt lat="47.31305" lon="6.16783">
        <ele>412.6</ele>
        <time>2024-07-31T10:47:44Z</time>
      </trkpt>
      <trkpt lat="47.31305" lon="6.16781">
        <ele>412.8</ele>
        <time>2024-07-31T10:47:45Z</time>
      </trkpt>
      <trkpt lat="47.31305" lon="6.16779">
        <ele>413</ele>
        <time>2024-07-31T10:47:46Z</time>
      </trkpt>
      <trkpt lat="47.31305" lon="6.16778">
        <ele>413.2</ele>
        <time>2024-07-31T10:47:47Z</time>
      </trkpt>
      <trkpt lat="47.31305" lon="6.16777">
        <ele>413.4</ele>
        <time>2024-07-31T10:47:48Z</time>
      </trkpt>
      <trkpt lat="47.31305" lon="6.16776">
        <ele>413.6</ele>
        <time>2024-07-31T10:47:49Z</time>
      </trkpt>
      <trkpt lat="47.31305" lon="6.16774">
        <ele>413.6</ele>
        <time>2024-07-31T10:47:50Z</time>
      </trkpt>
      <trkpt lat="47.31305" lon="6.16772">
        <ele>413.8</ele>
        <time>2024-07-31T10:47:51Z</time>
      </trkpt>
      <trkpt lat="47.31305" lon="6.1677">
        <ele>414</ele>
        <time>2024-07-31T10:47:52Z</time>
      </trkpt>
      <trkpt lat="47.31305" lon="6.16767">
        <ele>414.2</ele>
        <time>2024-07-31T10:47:53Z</time>
      </trkpt>
      <trkpt lat="47.31305" lon="6.16763">
        <ele>414.4</ele>
        <time>2024-07-31T10:47:54Z</time>
      </trkpt>
      <trkpt lat="47.31305" lon="6.1676">
        <ele>414.4</ele>
        <time>2024-07-31T10:47:55Z</time>
      </trkpt>
      <trkpt lat="47.31305" lon="6.16758">
        <ele>414.6</ele>
        <time>2024-07-31T10:47:56Z</time>
      </trkpt>
      <trkpt lat="47.31306" lon="6.16756">
        <ele>414.8</ele>
        <time>2024-07-31T10:47:57Z</time>
      </trkpt>
      <trkpt lat="47.31306" lon="6.16754">
        <ele>415</ele>
        <time>2024-07-31T10:47:58Z</time>
      </trkpt>
      <trkpt lat="47.31306" lon="6.16752">
        <ele>415</ele>
        <time>2024-07-31T10:47:59Z</time>
      </trkpt>
      <trkpt lat="47.31306" lon="6.1675">
        <ele>415.4</ele>
        <time>2024-07-31T10:48:00Z</time>
      </trkpt>
      <trkpt lat="47.31306" lon="6.16748">
        <ele>415.4</ele>
        <time>2024-07-31T10:48:01Z</time>
      </trkpt>
      <trkpt lat="47.31305" lon="6.16747">
        <ele>415.8</ele>
        <time>2024-07-31T10:48:02Z</time>
      </trkpt>
      <trkpt lat="47.31305" lon="6.16745">
        <ele>415.8</ele>
        <time>2024-07-31T10:48:03Z</time>
      </trkpt>
      <trkpt lat="47.31306" lon="6.16743">
        <ele>416</ele>
        <time>2024-07-31T10:48:04Z</time>
      </trkpt>
      <trkpt lat="47.31306" lon="6.16741">
        <ele>416</ele>
        <time>2024-07-31T10:48:05Z</time>
      </trkpt>
      <trkpt lat="47.31306" lon="6.16739">
        <ele>416.2</ele>
        <time>2024-07-31T10:48:06Z</time>
      </trkpt>
      <trkpt lat="47.31306" lon="6.16737">
        <ele>416.4</ele>
        <time>2024-07-31T10:48:07Z</time>
      </trkpt>
      <trkpt lat="47.31306" lon="6.16736">
        <ele>416.6</ele>
        <time>2024-07-31T10:48:08Z</time>
      </trkpt>
      <trkpt lat="47.31306" lon="6.16734">
        <ele>416.8</ele>
        <time>2024-07-31T10:48:09Z</time>
      </trkpt>
      <trkpt lat="47.31306" lon="6.16733">
        <ele>417</ele>
        <time>2024-07-31T10:48:10Z</time>
      </trkpt>
      <trkpt lat="47.31306" lon="6.16731">
        <ele>417.2</ele>
        <time>2024-07-31T10:48:11Z</time>
      </trkpt>
      <trkpt lat="47.31306" lon="6.16728">
        <ele>417.2</ele>
        <time>2024-07-31T10:48:12Z</time>
      </trkpt>
      <trkpt lat="47.31306" lon="6.16725">
        <ele>417.4</ele>
        <time>2024-07-31T10:48:13Z</time>
      </trkpt>
      <trkpt lat="47.31306" lon="6.16722">
        <ele>417.6</ele>
        <time>2024-07-31T10:48:14Z</time>
      </trkpt>
      <trkpt lat="47.31306" lon="6.1672">
        <ele>417.6</ele>
        <time>2024-07-31T10:48:15Z</time>
      </trkpt>
      <trkpt lat="47.31306" lon="6.16716">
        <ele>418</ele>
        <time>2024-07-31T10:48:16Z</time>
      </trkpt>
      <trkpt lat="47.31306" lon="6.16712">
        <ele>418</ele>
        <time>2024-07-31T10:48:17Z</time>
      </trkpt>
      <trkpt lat="47.31306" lon="6.1671">
        <ele>418.2</ele>
        <time>2024-07-31T10:48:18Z</time>
      </trkpt>
      <trkpt lat="47.31306" lon="6.16708">
        <ele>418.4</ele>
        <time>2024-07-31T10:48:19Z</time>
      </trkpt>
      <trkpt lat="47.31306" lon="6.16706">
        <ele>418.4</ele>
        <time>2024-07-31T10:48:20Z</time>
      </trkpt>
      <trkpt lat="47.31307" lon="6.16704">
        <ele>418.6</ele>
        <time>2024-07-31T10:48:21Z</time>
      </trkpt>
      <trkpt lat="47.31307" lon="6.16703">
        <ele>418.8</ele>
        <time>2024-07-31T10:48:22Z</time>
      </trkpt>
      <trkpt lat="47.31307" lon="6.167">
        <ele>419</ele>
        <time>2024-07-31T10:48:23Z</time>
      </trkpt>
      <trkpt lat="47.31308" lon="6.16699">
        <ele>419.2</ele>
        <time>2024-07-31T10:48:24Z</time>
      </trkpt>
      <trkpt lat="47.31308" lon="6.16697">
        <ele>419.4</ele>
        <time>2024-07-31T10:48:25Z</time>
      </trkpt>
      <trkpt lat="47.31308" lon="6.16695">
        <ele>419.6</ele>
        <time>2024-07-31T10:48:26Z</time>
      </trkpt>
      <trkpt lat="47.31308" lon="6.16693">
        <ele>419.8</ele>
        <time>2024-07-31T10:48:27Z</time>
      </trkpt>
      <trkpt lat="47.31309" lon="6.1669">
        <ele>420</ele>
        <time>2024-07-31T10:48:28Z</time>
      </trkpt>
      <trkpt lat="47.31308" lon="6.16688">
        <ele>420.2</ele>
        <time>2024-07-31T10:48:29Z</time>
      </trkpt>
      <trkpt lat="47.31308" lon="6.16687">
        <ele>420.4</ele>
        <time>2024-07-31T10:48:30Z</time>
      </trkpt>
      <trkpt lat="47.31309" lon="6.16686">
        <ele>420.4</ele>
        <time>2024-07-31T10:48:31Z</time>
      </trkpt>
      <trkpt lat="47.31309" lon="6.16686">
        <ele>420.2</ele>
        <time>2024-07-31T10:48:32Z</time>
      </trkpt>
      <trkpt lat="47.31309" lon="6.16685">
        <ele>420.4</ele>
        <time>2024-07-31T10:48:33Z</time>
      </trkpt>
      <trkpt lat="47.31309" lon="6.16685">
        <ele>420.4</ele>
        <time>2024-07-31T10:48:34Z</time>
      </trkpt>
      <trkpt lat="47.3131" lon="6.16684">
        <ele>420.6</ele>
        <time>2024-07-31T10:48:35Z</time>
      </trkpt>
      <trkpt lat="47.31311" lon="6.16682">
        <ele>420.8</ele>
        <time>2024-07-31T10:48:36Z</time>
      </trkpt>
      <trkpt lat="47.31311" lon="6.16681">
        <ele>420.8</ele>
        <time>2024-07-31T10:48:37Z</time>
      </trkpt>
      <trkpt lat="47.31311" lon="6.1668">
        <ele>421</ele>
        <time>2024-07-31T10:48:38Z</time>
      </trkpt>
      <trkpt lat="47.31311" lon="6.16679">
        <ele>421</ele>
        <time>2024-07-31T10:48:39Z</time>
      </trkpt>
      <trkpt lat="47.31311" lon="6.16678">
        <ele>420.8</ele>
        <time>2024-07-31T10:48:40Z</time>
      </trkpt>
      <trkpt lat="47.31311" lon="6.16677">
        <ele>421</ele>
        <time>2024-07-31T10:48:41Z</time>
      </trkpt>
      <trkpt lat="47.31311" lon="6.16677">
        <ele>421</ele>
        <time>2024-07-31T10:48:42Z</time>
      </trkpt>
      <trkpt lat="47.31311" lon="6.16676">
        <ele>421.2</ele>
        <time>2024-07-31T10:48:43Z</time>
      </trkpt>
      <trkpt lat="47.31312" lon="6.16674">
        <ele>421.2</ele>
        <time>2024-07-31T10:48:44Z</time>
      </trkpt>
      <trkpt lat="47.31312" lon="6.16673">
        <ele>421.4</ele>
        <time>2024-07-31T10:48:45Z</time>
      </trkpt>
      <trkpt lat="47.31312" lon="6.16672">
        <ele>421.4</ele>
        <time>2024-07-31T10:48:46Z</time>
      </trkpt>
      <trkpt lat="47.31312" lon="6.1667">
        <ele>421.4</ele>
        <time>2024-07-31T10:48:47Z</time>
      </trkpt>
      <trkpt lat="47.31311" lon="6.16668">
        <ele>421.4</ele>
        <time>2024-07-31T10:48:48Z</time>
      </trkpt>
      <trkpt lat="47.31311" lon="6.16668">
        <ele>421.6</ele>
        <time>2024-07-31T10:48:49Z</time>
      </trkpt>
      <trkpt lat="47.31311" lon="6.16666">
        <ele>421.4</ele>
        <time>2024-07-31T10:48:50Z</time>
      </trkpt>
      <trkpt lat="47.31311" lon="6.16666">
        <ele>421.2</ele>
        <time>2024-07-31T10:48:51Z</time>
      </trkpt>
      <trkpt lat="47.31311" lon="6.16665">
        <ele>421.4</ele>
        <time>2024-07-31T10:48:52Z</time>
      </trkpt>
      <trkpt lat="47.31311" lon="6.16665">
        <ele>421.6</ele>
        <time>2024-07-31T10:48:53Z</time>
      </trkpt>
      <trkpt lat="47.31311" lon="6.16663">
        <ele>422</ele>
        <time>2024-07-31T10:48:54Z</time>
      </trkpt>
      <trkpt lat="47.31311" lon="6.16662">
        <ele>422</ele>
        <time>2024-07-31T10:48:55Z</time>
      </trkpt>
      <trkpt lat="47.31311" lon="6.1666">
        <ele>422.2</ele>
        <time>2024-07-31T10:48:56Z</time>
      </trkpt>
      <trkpt lat="47.31311" lon="6.16659">
        <ele>422.4</ele>
        <time>2024-07-31T10:48:57Z</time>
      </trkpt>
      <trkpt lat="47.31312" lon="6.16658">
        <ele>422.6</ele>
        <time>2024-07-31T10:48:58Z</time>
      </trkpt>
      <trkpt lat="47.31313" lon="6.16656">
        <ele>422.8</ele>
        <time>2024-07-31T10:48:59Z</time>
      </trkpt>
      <trkpt lat="47.31313" lon="6.16655">
        <ele>422.8</ele>
        <time>2024-07-31T10:49:00Z</time>
      </trkpt>
      <trkpt lat="47.31313" lon="6.16654">
        <ele>423</ele>
        <time>2024-07-31T10:49:01Z</time>
      </trkpt>
      <trkpt lat="47.31314" lon="6.16652">
        <ele>423</ele>
        <time>2024-07-31T10:49:02Z</time>
      </trkpt>
      <trkpt lat="47.31314" lon="6.16651">
        <ele>423</ele>
        <time>2024-07-31T10:49:03Z</time>
      </trkpt>
      <trkpt lat="47.31314" lon="6.1665">
        <ele>423.4</ele>
        <time>2024-07-31T10:49:04Z</time>
      </trkpt>
      <trkpt lat="47.31315" lon="6.16649">
        <ele>423.4</ele>
        <time>2024-07-31T10:49:05Z</time>
      </trkpt>
      <trkpt lat="47.31315" lon="6.16648">
        <ele>423.4</ele>
        <time>2024-07-31T10:49:06Z</time>
      </trkpt>
      <trkpt lat="47.31315" lon="6.16648">
        <ele>423.6</ele>
        <time>2024-07-31T10:49:07Z</time>
      </trkpt>
      <trkpt lat="47.31315" lon="6.16647">
        <ele>423.8</ele>
        <time>2024-07-31T10:49:08Z</time>
      </trkpt>
      <trkpt lat="47.31315" lon="6.16646">
        <ele>423.8</ele>
        <time>2024-07-31T10:49:09Z</time>
      </trkpt>
      <trkpt lat="47.31315" lon="6.16645">
        <ele>424</ele>
        <time>2024-07-31T10:49:10Z</time>
      </trkpt>
      <trkpt lat="47.31316" lon="6.16645">
        <ele>424.2</ele>
        <time>2024-07-31T10:49:11Z</time>
      </trkpt>
      <trkpt lat="47.31315" lon="6.16645">
        <ele>424.2</ele>
        <time>2024-07-31T10:49:12Z</time>
      </trkpt>
      <trkpt lat="47.31316" lon="6.16644">
        <ele>424.2</ele>
        <time>2024-07-31T10:49:13Z</time>
      </trkpt>
      <trkpt lat="47.31315" lon="6.16643">
        <ele>424.2</ele>
        <time>2024-07-31T10:49:14Z</time>
      </trkpt>
      <trkpt lat="47.31316" lon="6.16643">
        <ele>424.2</ele>
        <time>2024-07-31T10:49:15Z</time>
      </trkpt>
      <trkpt lat="47.31315" lon="6.16642">
        <ele>424.2</ele>
        <time>2024-07-31T10:49:16Z</time>
      </trkpt>
      <trkpt lat="47.31315" lon="6.16641">
        <ele>424.2</ele>
        <time>2024-07-31T10:49:17Z</time>
      </trkpt>
      <trkpt lat="47.31315" lon="6.16641">
        <ele>424.2</ele>
        <time>2024-07-31T10:49:18Z</time>
      </trkpt>
      <trkpt lat="47.31315" lon="6.16641">
        <ele>424.2</ele>
        <time>2024-07-31T10:49:19Z</time>
      </trkpt>
      <trkpt lat="47.31315" lon="6.16641">
        <ele>424.2</ele>
        <time>2024-07-31T10:49:20Z</time>
      </trkpt>
      <trkpt lat="47.31315" lon="6.16641">
        <ele>424.4</ele>
        <time>2024-07-31T10:49:21Z</time>
      </trkpt>
      <trkpt lat="47.31315" lon="6.1664">
        <ele>424.4</ele>
        <time>2024-07-31T10:49:22Z</time>
      </trkpt>
      <trkpt lat="47.31315" lon="6.16641">
        <ele>424.4</ele>
        <time>2024-07-31T10:49:23Z</time>
      </trkpt>
      <trkpt lat="47.31315" lon="6.1664">
        <ele>424.4</ele>
        <time>2024-07-31T10:49:24Z</time>
      </trkpt>
      <trkpt lat="47.31315" lon="6.1664">
        <ele>424.4</ele>
        <time>2024-07-31T10:49:25Z</time>
      </trkpt>
      <trkpt lat="47.31315" lon="6.1664">
        <ele>424.4</ele>
        <time>2024-07-31T10:49:26Z</time>
      </trkpt>
      <trkpt lat="47.31315" lon="6.1664">
        <ele>424.6</ele>
        <time>2024-07-31T10:49:27Z</time>
      </trkpt>
      <trkpt lat="47.31315" lon="6.1664">
        <ele>424.6</ele>
        <time>2024-07-31T10:49:28Z</time>
      </trkpt>
      <trkpt lat="47.31315" lon="6.1664">
        <ele>424.4</ele>
        <time>2024-07-31T10:49:29Z</time>
      </trkpt>
      <trkpt lat="47.31315" lon="6.1664">
        <ele>424.6</ele>
        <time>2024-07-31T10:49:30Z</time>
      </trkpt>
      <trkpt lat="47.31315" lon="6.1664">
        <ele>424.6</ele>
        <time>2024-07-31T10:49:31Z</time>
      </trkpt>
      <trkpt lat="47.31315" lon="6.1664">
        <ele>424.6</ele>
        <time>2024-07-31T10:49:32Z</time>
      </trkpt>
      <trkpt lat="47.31315" lon="6.1664">
        <ele>424.6</ele>
        <time>2024-07-31T10:49:33Z</time>
      </trkpt>
      <trkpt lat="47.31315" lon="6.1664">
        <ele>424.6</ele>
        <time>2024-07-31T10:49:34Z</time>
      </trkpt>
      <trkpt lat="47.31315" lon="6.1664">
        <ele>424.6</ele>
        <time>2024-07-31T10:49:35Z</time>
      </trkpt>
      <trkpt lat="47.31316" lon="6.1664">
        <ele>424.8</ele>
        <time>2024-07-31T10:49:36Z</time>
      </trkpt>
      <trkpt lat="47.31316" lon="6.16641">
        <ele>424.8</ele>
        <time>2024-07-31T10:49:37Z</time>
      </trkpt>
      <trkpt lat="47.31316" lon="6.16641">
        <ele>424.6</ele>
        <time>2024-07-31T10:49:38Z</time>
      </trkpt>
      <trkpt lat="47.31316" lon="6.16641">
        <ele>424.8</ele>
        <time>2024-07-31T10:49:39Z</time>
      </trkpt>
      <trkpt lat="47.31316" lon="6.16642">
        <ele>425</ele>
        <time>2024-07-31T10:49:40Z</time>
      </trkpt>
      <trkpt lat="47.31316" lon="6.16642">
        <ele>424.8</ele>
        <time>2024-07-31T10:49:41Z</time>
      </trkpt>
      <trkpt lat="47.31316" lon="6.16641">
        <ele>424.8</ele>
        <time>2024-07-31T10:49:42Z</time>
      </trkpt>
      <trkpt lat="47.31317" lon="6.16641">
        <ele>425.2</ele>
        <time>2024-07-31T10:49:43Z</time>
      </trkpt>
      <trkpt lat="47.31317" lon="6.1664">
        <ele>425.4</ele>
        <time>2024-07-31T10:49:44Z</time>
      </trkpt>
      <trkpt lat="47.31317" lon="6.16639">
        <ele>425.4</ele>
        <time>2024-07-31T10:49:45Z</time>
      </trkpt>
      <trkpt lat="47.31317" lon="6.16638">
        <ele>425.6</ele>
        <time>2024-07-31T10:49:46Z</time>
      </trkpt>
      <trkpt lat="47.31317" lon="6.16636">
        <ele>425.8</ele>
        <time>2024-07-31T10:49:47Z</time>
      </trkpt>
      <trkpt lat="47.31318" lon="6.16635">
        <ele>426</ele>
        <time>2024-07-31T10:49:48Z</time>
      </trkpt>
      <trkpt lat="47.31319" lon="6.16634">
        <ele>426.4</ele>
        <time>2024-07-31T10:49:49Z</time>
      </trkpt>
      <trkpt lat="47.3132" lon="6.16633">
        <ele>426.2</ele>
        <time>2024-07-31T10:49:50Z</time>
      </trkpt>
      <trkpt lat="47.31321" lon="6.16632">
        <ele>426.2</ele>
        <time>2024-07-31T10:49:51Z</time>
      </trkpt>
      <trkpt lat="47.31322" lon="6.16632">
        <ele>426.4</ele>
        <time>2024-07-31T10:49:52Z</time>
      </trkpt>
      <trkpt lat="47.31322" lon="6.16632">
        <ele>426.6</ele>
        <time>2024-07-31T10:49:53Z</time>
      </trkpt>
      <trkpt lat="47.31322" lon="6.16632">
        <ele>426.8</ele>
        <time>2024-07-31T10:49:54Z</time>
      </trkpt>
      <trkpt lat="47.31323" lon="6.16632">
        <ele>426.8</ele>
        <time>2024-07-31T10:49:55Z</time>
      </trkpt>
      <trkpt lat="47.31323" lon="6.16633">
        <ele>426.8</ele>
        <time>2024-07-31T10:49:56Z</time>
      </trkpt>
      <trkpt lat="47.31324" lon="6.16635">
        <ele>427</ele>
        <time>2024-07-31T10:49:57Z</time>
      </trkpt>
      <trkpt lat="47.31325" lon="6.16636">
        <ele>426.8</ele>
        <time>2024-07-31T10:49:58Z</time>
      </trkpt>
      <trkpt lat="47.31326" lon="6.16636">
        <ele>427</ele>
        <time>2024-07-31T10:49:59Z</time>
      </trkpt>
      <trkpt lat="47.31326" lon="6.16638">
        <ele>427.4</ele>
        <time>2024-07-31T10:50:00Z</time>
      </trkpt>
      <trkpt lat="47.31326" lon="6.1664">
        <ele>427.4</ele>
        <time>2024-07-31T10:50:01Z</time>
      </trkpt>
      <trkpt lat="47.31327" lon="6.16641">
        <ele>427.6</ele>
        <time>2024-07-31T10:50:02Z</time>
      </trkpt>
      <trkpt lat="47.31328" lon="6.16643">
        <ele>427.6</ele>
        <time>2024-07-31T10:50:03Z</time>
      </trkpt>
      <trkpt lat="47.31328" lon="6.16645">
        <ele>427.8</ele>
        <time>2024-07-31T10:50:04Z</time>
      </trkpt>
      <trkpt lat="47.31328" lon="6.16648">
        <ele>428</ele>
        <time>2024-07-31T10:50:05Z</time>
      </trkpt>
      <trkpt lat="47.31329" lon="6.16649">
        <ele>428</ele>
        <time>2024-07-31T10:50:06Z</time>
      </trkpt>
      <trkpt lat="47.31329" lon="6.16652">
        <ele>428</ele>
        <time>2024-07-31T10:50:07Z</time>
      </trkpt>
      <trkpt lat="47.3133" lon="6.16654">
        <ele>428.2</ele>
        <time>2024-07-31T10:50:08Z</time>
      </trkpt>
      <trkpt lat="47.31331" lon="6.16656">
        <ele>428.2</ele>
        <time>2024-07-31T10:50:09Z</time>
      </trkpt>
      <trkpt lat="47.31331" lon="6.16658">
        <ele>428.2</ele>
        <time>2024-07-31T10:50:10Z</time>
      </trkpt>
      <trkpt lat="47.31331" lon="6.1666">
        <ele>428.4</ele>
        <time>2024-07-31T10:50:11Z</time>
      </trkpt>
      <trkpt lat="47.31332" lon="6.16662">
        <ele>428.2</ele>
        <time>2024-07-31T10:50:12Z</time>
      </trkpt>
      <trkpt lat="47.31333" lon="6.16663">
        <ele>428.6</ele>
        <time>2024-07-31T10:50:13Z</time>
      </trkpt>
      <trkpt lat="47.31333" lon="6.16665">
        <ele>428.6</ele>
        <time>2024-07-31T10:50:14Z</time>
      </trkpt>
      <trkpt lat="47.31334" lon="6.16667">
        <ele>428.6</ele>
        <time>2024-07-31T10:50:15Z</time>
      </trkpt>
      <trkpt lat="47.31334" lon="6.16668">
        <ele>428.6</ele>
        <time>2024-07-31T10:50:16Z</time>
      </trkpt>
      <trkpt lat="47.31334" lon="6.16669">
        <ele>429</ele>
        <time>2024-07-31T10:50:17Z</time>
      </trkpt>
      <trkpt lat="47.31335" lon="6.1667">
        <ele>429</ele>
        <time>2024-07-31T10:50:18Z</time>
      </trkpt>
      <trkpt lat="47.31335" lon="6.16672">
        <ele>429.2</ele>
        <time>2024-07-31T10:50:19Z</time>
      </trkpt>
      <trkpt lat="47.31337" lon="6.16674">
        <ele>429.6</ele>
        <time>2024-07-31T10:50:20Z</time>
      </trkpt>
      <trkpt lat="47.31338" lon="6.16679">
        <ele>429.6</ele>
        <time>2024-07-31T10:50:21Z</time>
      </trkpt>
      <trkpt lat="47.31339" lon="6.16682">
        <ele>430</ele>
        <time>2024-07-31T10:50:22Z</time>
      </trkpt>
      <trkpt lat="47.3134" lon="6.16686">
        <ele>430.2</ele>
        <time>2024-07-31T10:50:23Z</time>
      </trkpt>
      <trkpt lat="47.31342" lon="6.1669">
        <ele>430</ele>
        <time>2024-07-31T10:50:24Z</time>
      </trkpt>
      <trkpt lat="47.31343" lon="6.16692">
        <ele>430.6</ele>
        <time>2024-07-31T10:50:25Z</time>
      </trkpt>
      <trkpt lat="47.31344" lon="6.16694">
        <ele>431</ele>
        <time>2024-07-31T10:50:26Z</time>
      </trkpt>
      <trkpt lat="47.31345" lon="6.16696">
        <ele>431.2</ele>
        <time>2024-07-31T10:50:27Z</time>
      </trkpt>
      <trkpt lat="47.31345" lon="6.16698">
        <ele>431.2</ele>
        <time>2024-07-31T10:50:28Z</time>
      </trkpt>
      <trkpt lat="47.31346" lon="6.167">
        <ele>431.2</ele>
        <time>2024-07-31T10:50:29Z</time>
      </trkpt>
      <trkpt lat="47.31346" lon="6.16702">
        <ele>431.6</ele>
        <time>2024-07-31T10:50:30Z</time>
      </trkpt>
      <trkpt lat="47.31347" lon="6.16704">
        <ele>432</ele>
        <time>2024-07-31T10:50:31Z</time>
      </trkpt>
      <trkpt lat="47.31348" lon="6.16706">
        <ele>432.4</ele>
        <time>2024-07-31T10:50:32Z</time>
      </trkpt>
      <trkpt lat="47.31349" lon="6.1671">
        <ele>432.4</ele>
        <time>2024-07-31T10:50:33Z</time>
      </trkpt>
      <trkpt lat="47.31349" lon="6.16713">
        <ele>432.4</ele>
        <time>2024-07-31T10:50:34Z</time>
      </trkpt>
      <trkpt lat="47.3135" lon="6.16715">
        <ele>432.8</ele>
        <time>2024-07-31T10:50:35Z</time>
      </trkpt>
      <trkpt lat="47.31351" lon="6.16716">
        <ele>433</ele>
        <time>2024-07-31T10:50:36Z</time>
      </trkpt>
      <trkpt lat="47.31352" lon="6.16718">
        <ele>433.2</ele>
        <time>2024-07-31T10:50:37Z</time>
      </trkpt>
      <trkpt lat="47.31353" lon="6.1672">
        <ele>433.6</ele>
        <time>2024-07-31T10:50:38Z</time>
      </trkpt>
      <trkpt lat="47.31354" lon="6.16722">
        <ele>434</ele>
        <time>2024-07-31T10:50:39Z</time>
      </trkpt>
      <trkpt lat="47.31355" lon="6.16723">
        <ele>434</ele>
        <time>2024-07-31T10:50:40Z</time>
      </trkpt>
      <trkpt lat="47.31356" lon="6.16725">
        <ele>434.2</ele>
        <time>2024-07-31T10:50:41Z</time>
      </trkpt>
      <trkpt lat="47.31357" lon="6.16727">
        <ele>434.8</ele>
        <time>2024-07-31T10:50:42Z</time>
      </trkpt>
      <trkpt lat="47.31357" lon="6.16729">
        <ele>435</ele>
        <time>2024-07-31T10:50:43Z</time>
      </trkpt>
      <trkpt lat="47.31358" lon="6.16731">
        <ele>435.2</ele>
        <time>2024-07-31T10:50:44Z</time>
      </trkpt>
      <trkpt lat="47.31359" lon="6.16733">
        <ele>435.4</ele>
        <time>2024-07-31T10:50:45Z</time>
      </trkpt>
      <trkpt lat="47.31361" lon="6.16734">
        <ele>435.8</ele>
        <time>2024-07-31T10:50:46Z</time>
      </trkpt>
      <trkpt lat="47.31362" lon="6.16736">
        <ele>436</ele>
        <time>2024-07-31T10:50:47Z</time>
      </trkpt>
      <trkpt lat="47.31363" lon="6.16738">
        <ele>436.2</ele>
        <time>2024-07-31T10:50:48Z</time>
      </trkpt>
      <trkpt lat="47.31364" lon="6.16739">
        <ele>436.6</ele>
        <time>2024-07-31T10:50:49Z</time>
      </trkpt>
      <trkpt lat="47.31365" lon="6.16741">
        <ele>437</ele>
        <time>2024-07-31T10:50:50Z</time>
      </trkpt>
      <trkpt lat="47.31366" lon="6.16743">
        <ele>437</ele>
        <time>2024-07-31T10:50:51Z</time>
      </trkpt>
      <trkpt lat="47.31366" lon="6.16745">
        <ele>437</ele>
        <time>2024-07-31T10:50:52Z</time>
      </trkpt>
      <trkpt lat="47.31367" lon="6.16747">
        <ele>437.4</ele>
        <time>2024-07-31T10:50:53Z</time>
      </trkpt>
      <trkpt lat="47.31368" lon="6.16749">
        <ele>437.4</ele>
        <time>2024-07-31T10:50:54Z</time>
      </trkpt>
      <trkpt lat="47.31369" lon="6.1675">
        <ele>437.6</ele>
        <time>2024-07-31T10:50:55Z</time>
      </trkpt>
      <trkpt lat="47.31371" lon="6.16752">
        <ele>437.8</ele>
        <time>2024-07-31T10:50:56Z</time>
      </trkpt>
      <trkpt lat="47.31372" lon="6.16753">
        <ele>438</ele>
        <time>2024-07-31T10:50:57Z</time>
      </trkpt>
      <trkpt lat="47.31373" lon="6.16755">
        <ele>438.4</ele>
        <time>2024-07-31T10:50:58Z</time>
      </trkpt>
      <trkpt lat="47.31374" lon="6.16757">
        <ele>438.6</ele>
        <time>2024-07-31T10:50:59Z</time>
      </trkpt>
      <trkpt lat="47.31375" lon="6.16758">
        <ele>438.8</ele>
        <time>2024-07-31T10:51:00Z</time>
      </trkpt>
      <trkpt lat="47.31376" lon="6.1676">
        <ele>439</ele>
        <time>2024-07-31T10:51:01Z</time>
      </trkpt>
      <trkpt lat="47.31377" lon="6.16761">
        <ele>439.4</ele>
        <time>2024-07-31T10:51:02Z</time>
      </trkpt>
      <trkpt lat="47.31378" lon="6.16761">
        <ele>439.8</ele>
        <time>2024-07-31T10:51:03Z</time>
      </trkpt>
      <trkpt lat="47.31379" lon="6.16762">
        <ele>439.8</ele>
        <time>2024-07-31T10:51:04Z</time>
      </trkpt>
      <trkpt lat="47.3138" lon="6.16763">
        <ele>440.2</ele>
        <time>2024-07-31T10:51:05Z</time>
      </trkpt>
      <trkpt lat="47.31382" lon="6.16765">
        <ele>440.2</ele>
        <time>2024-07-31T10:51:06Z</time>
      </trkpt>
      <trkpt lat="47.31383" lon="6.16767">
        <ele>440.4</ele>
        <time>2024-07-31T10:51:07Z</time>
      </trkpt>
      <trkpt lat="47.31384" lon="6.16768">
        <ele>440.8</ele>
        <time>2024-07-31T10:51:08Z</time>
      </trkpt>
      <trkpt lat="47.31386" lon="6.16769">
        <ele>441</ele>
        <time>2024-07-31T10:51:09Z</time>
      </trkpt>
      <trkpt lat="47.31387" lon="6.16771">
        <ele>441.4</ele>
        <time>2024-07-31T10:51:10Z</time>
      </trkpt>
      <trkpt lat="47.31387" lon="6.16772">
        <ele>441.4</ele>
        <time>2024-07-31T10:51:11Z</time>
      </trkpt>
      <trkpt lat="47.31388" lon="6.16774">
        <ele>441.6</ele>
        <time>2024-07-31T10:51:12Z</time>
      </trkpt>
      <trkpt lat="47.31389" lon="6.16775">
        <ele>441.6</ele>
        <time>2024-07-31T10:51:13Z</time>
      </trkpt>
      <trkpt lat="47.3139" lon="6.16776">
        <ele>441.8</ele>
        <time>2024-07-31T10:51:14Z</time>
      </trkpt>
      <trkpt lat="47.31391" lon="6.16778">
        <ele>441.8</ele>
        <time>2024-07-31T10:51:15Z</time>
      </trkpt>
      <trkpt lat="47.31392" lon="6.1678">
        <ele>442.2</ele>
        <time>2024-07-31T10:51:16Z</time>
      </trkpt>
      <trkpt lat="47.31393" lon="6.16781">
        <ele>442.6</ele>
        <time>2024-07-31T10:51:17Z</time>
      </trkpt>
      <trkpt lat="47.31395" lon="6.16782">
        <ele>442.8</ele>
        <time>2024-07-31T10:51:18Z</time>
      </trkpt>
      <trkpt lat="47.31396" lon="6.16783">
        <ele>442.8</ele>
        <time>2024-07-31T10:51:19Z</time>
      </trkpt>
      <trkpt lat="47.31397" lon="6.16785">
        <ele>443.4</ele>
        <time>2024-07-31T10:51:20Z</time>
      </trkpt>
      <trkpt lat="47.31398" lon="6.16786">
        <ele>443.6</ele>
        <time>2024-07-31T10:51:21Z</time>
      </trkpt>
      <trkpt lat="47.31399" lon="6.16788">
        <ele>443.8</ele>
        <time>2024-07-31T10:51:22Z</time>
      </trkpt>
      <trkpt lat="47.314" lon="6.16789">
        <ele>443.8</ele>
        <time>2024-07-31T10:51:23Z</time>
      </trkpt>
      <trkpt lat="47.31401" lon="6.1679">
        <ele>443.8</ele>
        <time>2024-07-31T10:51:24Z</time>
      </trkpt>
      <trkpt lat="47.31402" lon="6.16791">
        <ele>444.2</ele>
        <time>2024-07-31T10:51:25Z</time>
      </trkpt>
      <trkpt lat="47.31403" lon="6.16792">
        <ele>444.4</ele>
        <time>2024-07-31T10:51:26Z</time>
      </trkpt>
      <trkpt lat="47.31404" lon="6.16794">
        <ele>444.6</ele>
        <time>2024-07-31T10:51:27Z</time>
      </trkpt>
      <trkpt lat="47.31405" lon="6.16795">
        <ele>444.8</ele>
        <time>2024-07-31T10:51:28Z</time>
      </trkpt>
      <trkpt lat="47.31406" lon="6.16796">
        <ele>444.8</ele>
        <time>2024-07-31T10:51:29Z</time>
      </trkpt>
      <trkpt lat="47.31407" lon="6.16798">
        <ele>445.2</ele>
        <time>2024-07-31T10:51:30Z</time>
      </trkpt>
      <trkpt lat="47.31408" lon="6.16799">
        <ele>445.4</ele>
        <time>2024-07-31T10:51:31Z</time>
      </trkpt>
      <trkpt lat="47.31409" lon="6.168">
        <ele>445.6</ele>
        <time>2024-07-31T10:51:32Z</time>
      </trkpt>
      <trkpt lat="47.3141" lon="6.16801">
        <ele>445.6</ele>
        <time>2024-07-31T10:51:33Z</time>
      </trkpt>
      <trkpt lat="47.31411" lon="6.16801">
        <ele>445.8</ele>
        <time>2024-07-31T10:51:34Z</time>
      </trkpt>
      <trkpt lat="47.31412" lon="6.16801">
        <ele>445.8</ele>
        <time>2024-07-31T10:51:35Z</time>
      </trkpt>
      <trkpt lat="47.31413" lon="6.16801">
        <ele>446</ele>
        <time>2024-07-31T10:51:36Z</time>
      </trkpt>
      <trkpt lat="47.31414" lon="6.168">
        <ele>446.2</ele>
        <time>2024-07-31T10:51:37Z</time>
      </trkpt>
      <trkpt lat="47.31415" lon="6.168">
        <ele>446.4</ele>
        <time>2024-07-31T10:51:38Z</time>
      </trkpt>
      <trkpt lat="47.31416" lon="6.16799">
        <ele>446.6</ele>
        <time>2024-07-31T10:51:39Z</time>
      </trkpt>
      <trkpt lat="47.31416" lon="6.16797">
        <ele>446.6</ele>
        <time>2024-07-31T10:51:40Z</time>
      </trkpt>
      <trkpt lat="47.31417" lon="6.16796">
        <ele>447</ele>
        <time>2024-07-31T10:51:41Z</time>
      </trkpt>
      <trkpt lat="47.31417" lon="6.16795">
        <ele>447</ele>
        <time>2024-07-31T10:51:42Z</time>
      </trkpt>
      <trkpt lat="47.31417" lon="6.16793">
        <ele>447.4</ele>
        <time>2024-07-31T10:51:43Z</time>
      </trkpt>
      <trkpt lat="47.31418" lon="6.16792">
        <ele>447.6</ele>
        <time>2024-07-31T10:51:44Z</time>
      </trkpt>
      <trkpt lat="47.31418" lon="6.1679">
        <ele>447.8</ele>
        <time>2024-07-31T10:51:45Z</time>
      </trkpt>
      <trkpt lat="47.31418" lon="6.16789">
        <ele>447.6</ele>
        <time>2024-07-31T10:51:46Z</time>
      </trkpt>
      <trkpt lat="47.31419" lon="6.16787">
        <ele>447.8</ele>
        <time>2024-07-31T10:51:47Z</time>
      </trkpt>
      <trkpt lat="47.3142" lon="6.16786">
        <ele>448</ele>
        <time>2024-07-31T10:51:48Z</time>
      </trkpt>
      <trkpt lat="47.3142" lon="6.16784">
        <ele>448.2</ele>
        <time>2024-07-31T10:51:49Z</time>
      </trkpt>
      <trkpt lat="47.3142" lon="6.16783">
        <ele>448.2</ele>
        <time>2024-07-31T10:51:50Z</time>
      </trkpt>
      <trkpt lat="47.3142" lon="6.16782">
        <ele>448.6</ele>
        <time>2024-07-31T10:51:51Z</time>
      </trkpt>
      <trkpt lat="47.31421" lon="6.1678">
        <ele>448.6</ele>
        <time>2024-07-31T10:51:52Z</time>
      </trkpt>
      <trkpt lat="47.31421" lon="6.16778">
        <ele>448.6</ele>
        <time>2024-07-31T10:51:53Z</time>
      </trkpt>
      <trkpt lat="47.31421" lon="6.16776">
        <ele>448.8</ele>
        <time>2024-07-31T10:51:54Z</time>
      </trkpt>
      <trkpt lat="47.31422" lon="6.16774">
        <ele>449</ele>
        <time>2024-07-31T10:51:55Z</time>
      </trkpt>
      <trkpt lat="47.31422" lon="6.16772">
        <ele>449</ele>
        <time>2024-07-31T10:51:56Z</time>
      </trkpt>
      <trkpt lat="47.31423" lon="6.16771">
        <ele>449</ele>
        <time>2024-07-31T10:51:57Z</time>
      </trkpt>
      <trkpt lat="47.31424" lon="6.16768">
        <ele>449.2</ele>
        <time>2024-07-31T10:51:58Z</time>
      </trkpt>
      <trkpt lat="47.31425" lon="6.16767">
        <ele>449.4</ele>
        <time>2024-07-31T10:51:59Z</time>
      </trkpt>
      <trkpt lat="47.31426" lon="6.16765">
        <ele>449.6</ele>
        <time>2024-07-31T10:52:00Z</time>
      </trkpt>
      <trkpt lat="47.31427" lon="6.16763">
        <ele>449.8</ele>
        <time>2024-07-31T10:52:01Z</time>
      </trkpt>
      <trkpt lat="47.31428" lon="6.16762">
        <ele>449.8</ele>
        <time>2024-07-31T10:52:02Z</time>
      </trkpt>
      <trkpt lat="47.31429" lon="6.1676">
        <ele>450</ele>
        <time>2024-07-31T10:52:03Z</time>
      </trkpt>
      <trkpt lat="47.31429" lon="6.16759">
        <ele>450.4</ele>
        <time>2024-07-31T10:52:04Z</time>
      </trkpt>
      <trkpt lat="47.3143" lon="6.16758">
        <ele>450.6</ele>
        <time>2024-07-31T10:52:05Z</time>
      </trkpt>
      <trkpt lat="47.31431" lon="6.16756">
        <ele>450.8</ele>
        <time>2024-07-31T10:52:06Z</time>
      </trkpt>
      <trkpt lat="47.31431" lon="6.16755">
        <ele>450.6</ele>
        <time>2024-07-31T10:52:07Z</time>
      </trkpt>
      <trkpt lat="47.31432" lon="6.16753">
        <ele>451.2</ele>
        <time>2024-07-31T10:52:08Z</time>
      </trkpt>
      <trkpt lat="47.31433" lon="6.16751">
        <ele>451.2</ele>
        <time>2024-07-31T10:52:09Z</time>
      </trkpt>
      <trkpt lat="47.31433" lon="6.1675">
        <ele>451.2</ele>
        <time>2024-07-31T10:52:10Z</time>
      </trkpt>
      <trkpt lat="47.31434" lon="6.16748">
        <ele>451.4</ele>
        <time>2024-07-31T10:52:11Z</time>
      </trkpt>
      <trkpt lat="47.31435" lon="6.16746">
        <ele>451.8</ele>
        <time>2024-07-31T10:52:12Z</time>
      </trkpt>
      <trkpt lat="47.31435" lon="6.16744">
        <ele>452</ele>
        <time>2024-07-31T10:52:13Z</time>
      </trkpt>
      <trkpt lat="47.31436" lon="6.16742">
        <ele>452.2</ele>
        <time>2024-07-31T10:52:14Z</time>
      </trkpt>
      <trkpt lat="47.31437" lon="6.16741">
        <ele>452.6</ele>
        <time>2024-07-31T10:52:15Z</time>
      </trkpt>
      <trkpt lat="47.31438" lon="6.16739">
        <ele>452.8</ele>
        <time>2024-07-31T10:52:16Z</time>
      </trkpt>
      <trkpt lat="47.31438" lon="6.16738">
        <ele>452.8</ele>
        <time>2024-07-31T10:52:17Z</time>
      </trkpt>
      <trkpt lat="47.31439" lon="6.16737">
        <ele>452.8</ele>
        <time>2024-07-31T10:52:18Z</time>
      </trkpt>
      <trkpt lat="47.3144" lon="6.16735">
        <ele>452.8</ele>
        <time>2024-07-31T10:52:19Z</time>
      </trkpt>
      <trkpt lat="47.3144" lon="6.16734">
        <ele>453.2</ele>
        <time>2024-07-31T10:52:20Z</time>
      </trkpt>
      <trkpt lat="47.31441" lon="6.16733">
        <ele>453.4</ele>
        <time>2024-07-31T10:52:21Z</time>
      </trkpt>
      <trkpt lat="47.31442" lon="6.16731">
        <ele>453.4</ele>
        <time>2024-07-31T10:52:22Z</time>
      </trkpt>
      <trkpt lat="47.31442" lon="6.1673">
        <ele>453.6</ele>
        <time>2024-07-31T10:52:23Z</time>
      </trkpt>
      <trkpt lat="47.31443" lon="6.16728">
        <ele>453.8</ele>
        <time>2024-07-31T10:52:24Z</time>
      </trkpt>
      <trkpt lat="47.31444" lon="6.16727">
        <ele>454</ele>
        <time>2024-07-31T10:52:25Z</time>
      </trkpt>
      <trkpt lat="47.31444" lon="6.16725">
        <ele>454</ele>
        <time>2024-07-31T10:52:26Z</time>
      </trkpt>
      <trkpt lat="47.31445" lon="6.16724">
        <ele>454.4</ele>
        <time>2024-07-31T10:52:27Z</time>
      </trkpt>
      <trkpt lat="47.31446" lon="6.16723">
        <ele>454.6</ele>
        <time>2024-07-31T10:52:28Z</time>
      </trkpt>
      <trkpt lat="47.31447" lon="6.16721">
        <ele>455</ele>
        <time>2024-07-31T10:52:29Z</time>
      </trkpt>
      <trkpt lat="47.31448" lon="6.1672">
        <ele>455.2</ele>
        <time>2024-07-31T10:52:30Z</time>
      </trkpt>
      <trkpt lat="47.31449" lon="6.16719">
        <ele>455.4</ele>
        <time>2024-07-31T10:52:31Z</time>
      </trkpt>
      <trkpt lat="47.3145" lon="6.16717">
        <ele>455.6</ele>
        <time>2024-07-31T10:52:32Z</time>
      </trkpt>
      <trkpt lat="47.31451" lon="6.16716">
        <ele>455.6</ele>
        <time>2024-07-31T10:52:33Z</time>
      </trkpt>
      <trkpt lat="47.31452" lon="6.16714">
        <ele>456</ele>
        <time>2024-07-31T10:52:34Z</time>
      </trkpt>
      <trkpt lat="47.31453" lon="6.16712">
        <ele>456</ele>
        <time>2024-07-31T10:52:35Z</time>
      </trkpt>
      <trkpt lat="47.31454" lon="6.16711">
        <ele>456.2</ele>
        <time>2024-07-31T10:52:36Z</time>
      </trkpt>
      <trkpt lat="47.31455" lon="6.16709">
        <ele>456.6</ele>
        <time>2024-07-31T10:52:37Z</time>
      </trkpt>
      <trkpt lat="47.31455" lon="6.16707">
        <ele>456.8</ele>
        <time>2024-07-31T10:52:38Z</time>
      </trkpt>
      <trkpt lat="47.31456" lon="6.16705">
        <ele>456.8</ele>
        <time>2024-07-31T10:52:39Z</time>
      </trkpt>
      <trkpt lat="47.31457" lon="6.16704">
        <ele>457.2</ele>
        <time>2024-07-31T10:52:40Z</time>
      </trkpt>
      <trkpt lat="47.31457" lon="6.16702">
        <ele>457.2</ele>
        <time>2024-07-31T10:52:41Z</time>
      </trkpt>
      <trkpt lat="47.31458" lon="6.167">
        <ele>457.4</ele>
        <time>2024-07-31T10:52:42Z</time>
      </trkpt>
      <trkpt lat="47.31459" lon="6.16698">
        <ele>457.4</ele>
        <time>2024-07-31T10:52:43Z</time>
      </trkpt>
      <trkpt lat="47.3146" lon="6.16697">
        <ele>457.6</ele>
        <time>2024-07-31T10:52:44Z</time>
      </trkpt>
      <trkpt lat="47.31461" lon="6.16695">
        <ele>457.6</ele>
        <time>2024-07-31T10:52:45Z</time>
      </trkpt>
      <trkpt lat="47.31462" lon="6.16693">
        <ele>458</ele>
        <time>2024-07-31T10:52:46Z</time>
      </trkpt>
      <trkpt lat="47.31462" lon="6.16692">
        <ele>458.2</ele>
        <time>2024-07-31T10:52:47Z</time>
      </trkpt>
      <trkpt lat="47.31463" lon="6.1669">
        <ele>458.2</ele>
        <time>2024-07-31T10:52:48Z</time>
      </trkpt>
      <trkpt lat="47.31464" lon="6.16688">
        <ele>458.4</ele>
        <time>2024-07-31T10:52:49Z</time>
      </trkpt>
      <trkpt lat="47.31465" lon="6.16686">
        <ele>458.4</ele>
        <time>2024-07-31T10:52:50Z</time>
      </trkpt>
      <trkpt lat="47.31466" lon="6.16683">
        <ele>458.6</ele>
        <time>2024-07-31T10:52:51Z</time>
      </trkpt>
      <trkpt lat="47.31467" lon="6.1668">
        <ele>458.8</ele>
        <time>2024-07-31T10:52:52Z</time>
      </trkpt>
      <trkpt lat="47.31468" lon="6.16678">
        <ele>458.6</ele>
        <time>2024-07-31T10:52:53Z</time>
      </trkpt>
      <trkpt lat="47.31469" lon="6.16675">
        <ele>458.8</ele>
        <time>2024-07-31T10:52:54Z</time>
      </trkpt>
      <trkpt lat="47.3147" lon="6.16672">
        <ele>458.8</ele>
        <time>2024-07-31T10:52:55Z</time>
      </trkpt>
      <trkpt lat="47.31471" lon="6.1667">
        <ele>459</ele>
        <time>2024-07-31T10:52:56Z</time>
      </trkpt>
      <trkpt lat="47.31471" lon="6.16666">
        <ele>459</ele>
        <time>2024-07-31T10:52:57Z</time>
      </trkpt>
      <trkpt lat="47.31472" lon="6.16664">
        <ele>459</ele>
        <time>2024-07-31T10:52:58Z</time>
      </trkpt>
      <trkpt lat="47.31473" lon="6.16661">
        <ele>459.2</ele>
        <time>2024-07-31T10:52:59Z</time>
      </trkpt>
      <trkpt lat="47.31474" lon="6.16659">
        <ele>459</ele>
        <time>2024-07-31T10:53:00Z</time>
      </trkpt>
      <trkpt lat="47.31474" lon="6.16656">
        <ele>459</ele>
        <time>2024-07-31T10:53:01Z</time>
      </trkpt>
      <trkpt lat="47.31475" lon="6.16654">
        <ele>459.2</ele>
        <time>2024-07-31T10:53:02Z</time>
      </trkpt>
      <trkpt lat="47.31476" lon="6.16652">
        <ele>459.2</ele>
        <time>2024-07-31T10:53:03Z</time>
      </trkpt>
      <trkpt lat="47.31478" lon="6.16649">
        <ele>459</ele>
        <time>2024-07-31T10:53:04Z</time>
      </trkpt>
      <trkpt lat="47.31479" lon="6.16647">
        <ele>459</ele>
        <time>2024-07-31T10:53:05Z</time>
      </trkpt>
      <trkpt lat="47.3148" lon="6.16645">
        <ele>459.2</ele>
        <time>2024-07-31T10:53:06Z</time>
      </trkpt>
      <trkpt lat="47.31482" lon="6.16643">
        <ele>459.4</ele>
        <time>2024-07-31T10:53:07Z</time>
      </trkpt>
      <trkpt lat="47.31483" lon="6.16642">
        <ele>459.4</ele>
        <time>2024-07-31T10:53:08Z</time>
      </trkpt>
      <trkpt lat="47.31484" lon="6.16641">
        <ele>459.4</ele>
        <time>2024-07-31T10:53:09Z</time>
      </trkpt>
      <trkpt lat="47.31485" lon="6.16641">
        <ele>459.2</ele>
        <time>2024-07-31T10:53:10Z</time>
      </trkpt>
      <trkpt lat="47.31485" lon="6.1664">
        <ele>459.2</ele>
        <time>2024-07-31T10:53:11Z</time>
      </trkpt>
      <trkpt lat="47.31486" lon="6.16638">
        <ele>459.4</ele>
        <time>2024-07-31T10:53:12Z</time>
      </trkpt>
      <trkpt lat="47.31486" lon="6.16636">
        <ele>459.6</ele>
        <time>2024-07-31T10:53:13Z</time>
      </trkpt>
      <trkpt lat="47.31487" lon="6.16633">
        <ele>459.4</ele>
        <time>2024-07-31T10:53:14Z</time>
      </trkpt>
      <trkpt lat="47.31487" lon="6.16632">
        <ele>459.6</ele>
        <time>2024-07-31T10:53:15Z</time>
      </trkpt>
      <trkpt lat="47.31489" lon="6.1663">
        <ele>459.4</ele>
        <time>2024-07-31T10:53:16Z</time>
      </trkpt>
      <trkpt lat="47.3149" lon="6.16629">
        <ele>459.4</ele>
        <time>2024-07-31T10:53:17Z</time>
      </trkpt>
      <trkpt lat="47.31491" lon="6.16628">
        <ele>459.6</ele>
        <time>2024-07-31T10:53:18Z</time>
      </trkpt>
      <trkpt lat="47.31492" lon="6.16626">
        <ele>459.4</ele>
        <time>2024-07-31T10:53:19Z</time>
      </trkpt>
      <trkpt lat="47.31493" lon="6.16625">
        <ele>459.4</ele>
        <time>2024-07-31T10:53:20Z</time>
      </trkpt>
      <trkpt lat="47.31494" lon="6.16624">
        <ele>459.4</ele>
        <time>2024-07-31T10:53:21Z</time>
      </trkpt>
      <trkpt lat="47.31495" lon="6.16622">
        <ele>459.4</ele>
        <time>2024-07-31T10:53:22Z</time>
      </trkpt>
      <trkpt lat="47.31497" lon="6.16621">
        <ele>459.2</ele>
        <time>2024-07-31T10:53:23Z</time>
      </trkpt>
      <trkpt lat="47.31498" lon="6.1662">
        <ele>459.4</ele>
        <time>2024-07-31T10:53:24Z</time>
      </trkpt>
      <trkpt lat="47.315" lon="6.16618">
        <ele>459.4</ele>
        <time>2024-07-31T10:53:25Z</time>
      </trkpt>
      <trkpt lat="47.31502" lon="6.16617">
        <ele>459.6</ele>
        <time>2024-07-31T10:53:26Z</time>
      </trkpt>
      <trkpt lat="47.31503" lon="6.16616">
        <ele>459.4</ele>
        <time>2024-07-31T10:53:27Z</time>
      </trkpt>
      <trkpt lat="47.31505" lon="6.16614">
        <ele>459.4</ele>
        <time>2024-07-31T10:53:28Z</time>
      </trkpt>
      <trkpt lat="47.31506" lon="6.16612">
        <ele>459.4</ele>
        <time>2024-07-31T10:53:29Z</time>
      </trkpt>
      <trkpt lat="47.31508" lon="6.1661">
        <ele>459.6</ele>
        <time>2024-07-31T10:53:30Z</time>
      </trkpt>
      <trkpt lat="47.3151" lon="6.16608">
        <ele>459.6</ele>
        <time>2024-07-31T10:53:31Z</time>
      </trkpt>
      <trkpt lat="47.31511" lon="6.16606">
        <ele>459.8</ele>
        <time>2024-07-31T10:53:32Z</time>
      </trkpt>
      <trkpt lat="47.31512" lon="6.16604">
        <ele>459.8</ele>
        <time>2024-07-31T10:53:33Z</time>
      </trkpt>
      <trkpt lat="47.31512" lon="6.16601">
        <ele>460</ele>
        <time>2024-07-31T10:53:34Z</time>
      </trkpt>
      <trkpt lat="47.31513" lon="6.16599">
        <ele>459.8</ele>
        <time>2024-07-31T10:53:35Z</time>
      </trkpt>
      <trkpt lat="47.31514" lon="6.16597">
        <ele>460</ele>
        <time>2024-07-31T10:53:36Z</time>
      </trkpt>
      <trkpt lat="47.31516" lon="6.16594">
        <ele>460.4</ele>
        <time>2024-07-31T10:53:37Z</time>
      </trkpt>
      <trkpt lat="47.31518" lon="6.16592">
        <ele>460.2</ele>
        <time>2024-07-31T10:53:38Z</time>
      </trkpt>
      <trkpt lat="47.31519" lon="6.1659">
        <ele>460.4</ele>
        <time>2024-07-31T10:53:39Z</time>
      </trkpt>
      <trkpt lat="47.31521" lon="6.16589">
        <ele>460.6</ele>
        <time>2024-07-31T10:53:40Z</time>
      </trkpt>
      <trkpt lat="47.31522" lon="6.16587">
        <ele>461</ele>
        <time>2024-07-31T10:53:41Z</time>
      </trkpt>
      <trkpt lat="47.31524" lon="6.16586">
        <ele>461.2</ele>
        <time>2024-07-31T10:53:42Z</time>
      </trkpt>
      <trkpt lat="47.31525" lon="6.16583">
        <ele>461.2</ele>
        <time>2024-07-31T10:53:43Z</time>
      </trkpt>
      <trkpt lat="47.31527" lon="6.16582">
        <ele>461.4</ele>
        <time>2024-07-31T10:53:44Z</time>
      </trkpt>
      <trkpt lat="47.31528" lon="6.16581">
        <ele>461.2</ele>
        <time>2024-07-31T10:53:45Z</time>
      </trkpt>
      <trkpt lat="47.3153" lon="6.1658">
        <ele>461.6</ele>
        <time>2024-07-31T10:53:46Z</time>
      </trkpt>
      <trkpt lat="47.31532" lon="6.16579">
        <ele>461.6</ele>
        <time>2024-07-31T10:53:47Z</time>
      </trkpt>
      <trkpt lat="47.31533" lon="6.16578">
        <ele>462</ele>
        <time>2024-07-31T10:53:48Z</time>
      </trkpt>
      <trkpt lat="47.31535" lon="6.16576">
        <ele>462.2</ele>
        <time>2024-07-31T10:53:49Z</time>
      </trkpt>
      <trkpt lat="47.31537" lon="6.16574">
        <ele>462.2</ele>
        <time>2024-07-31T10:53:50Z</time>
      </trkpt>
      <trkpt lat="47.31538" lon="6.16573">
        <ele>462.4</ele>
        <time>2024-07-31T10:53:51Z</time>
      </trkpt>
      <trkpt lat="47.31539" lon="6.16572">
        <ele>462.6</ele>
        <time>2024-07-31T10:53:52Z</time>
      </trkpt>
      <trkpt lat="47.3154" lon="6.16572">
        <ele>462.8</ele>
        <time>2024-07-31T10:53:53Z</time>
      </trkpt>
      <trkpt lat="47.31542" lon="6.16571">
        <ele>462.8</ele>
        <time>2024-07-31T10:53:54Z</time>
      </trkpt>
      <trkpt lat="47.31544" lon="6.16571">
        <ele>463</ele>
        <time>2024-07-31T10:53:55Z</time>
      </trkpt>
      <trkpt lat="47.31547" lon="6.16568">
        <ele>463.4</ele>
        <time>2024-07-31T10:53:56Z</time>
      </trkpt>
      <trkpt lat="47.3155" lon="6.16566">
        <ele>463.2</ele>
        <time>2024-07-31T10:53:57Z</time>
      </trkpt>
      <trkpt lat="47.31552" lon="6.16564">
        <ele>463.2</ele>
        <time>2024-07-31T10:53:58Z</time>
      </trkpt>
      <trkpt lat="47.31554" lon="6.16562">
        <ele>463.6</ele>
        <time>2024-07-31T10:53:59Z</time>
      </trkpt>
      <trkpt lat="47.31557" lon="6.1656">
        <ele>463.8</ele>
        <time>2024-07-31T10:54:00Z</time>
      </trkpt>
      <trkpt lat="47.31559" lon="6.16558">
        <ele>464</ele>
        <time>2024-07-31T10:54:01Z</time>
      </trkpt>
      <trkpt lat="47.31562" lon="6.16556">
        <ele>464.4</ele>
        <time>2024-07-31T10:54:02Z</time>
      </trkpt>
      <trkpt lat="47.31565" lon="6.16553">
        <ele>464.6</ele>
        <time>2024-07-31T10:54:03Z</time>
      </trkpt>
      <trkpt lat="47.31567" lon="6.16551">
        <ele>464.8</ele>
        <time>2024-07-31T10:54:04Z</time>
      </trkpt>
      <trkpt lat="47.3157" lon="6.16549">
        <ele>464.8</ele>
        <time>2024-07-31T10:54:05Z</time>
      </trkpt>
      <trkpt lat="47.31572" lon="6.16547">
        <ele>465</ele>
        <time>2024-07-31T10:54:06Z</time>
      </trkpt>
      <trkpt lat="47.31574" lon="6.16546">
        <ele>465.2</ele>
        <time>2024-07-31T10:54:07Z</time>
      </trkpt>
      <trkpt lat="47.31576" lon="6.16544">
        <ele>465.2</ele>
        <time>2024-07-31T10:54:08Z</time>
      </trkpt>
      <trkpt lat="47.31578" lon="6.16542">
        <ele>465.2</ele>
        <time>2024-07-31T10:54:09Z</time>
      </trkpt>
      <trkpt lat="47.3158" lon="6.16539">
        <ele>465.6</ele>
        <time>2024-07-31T10:54:10Z</time>
      </trkpt>
      <trkpt lat="47.31582" lon="6.16537">
        <ele>465.8</ele>
        <time>2024-07-31T10:54:11Z</time>
      </trkpt>
      <trkpt lat="47.31584" lon="6.16535">
        <ele>465.6</ele>
        <time>2024-07-31T10:54:12Z</time>
      </trkpt>
      <trkpt lat="47.31587" lon="6.16533">
        <ele>466</ele>
        <time>2024-07-31T10:54:13Z</time>
      </trkpt>
      <trkpt lat="47.31589" lon="6.16531">
        <ele>466.2</ele>
        <time>2024-07-31T10:54:14Z</time>
      </trkpt>
      <trkpt lat="47.31591" lon="6.16529">
        <ele>466</ele>
        <time>2024-07-31T10:54:15Z</time>
      </trkpt>
      <trkpt lat="47.31593" lon="6.16527">
        <ele>466.2</ele>
        <time>2024-07-31T10:54:16Z</time>
      </trkpt>
      <trkpt lat="47.31595" lon="6.16525">
        <ele>466.6</ele>
        <time>2024-07-31T10:54:17Z</time>
      </trkpt>
      <trkpt lat="47.31596" lon="6.16523">
        <ele>466.8</ele>
        <time>2024-07-31T10:54:18Z</time>
      </trkpt>
      <trkpt lat="47.31598" lon="6.1652">
        <ele>467</ele>
        <time>2024-07-31T10:54:19Z</time>
      </trkpt>
      <trkpt lat="47.316" lon="6.16517">
        <ele>466.8</ele>
        <time>2024-07-31T10:54:20Z</time>
      </trkpt>
      <trkpt lat="47.31601" lon="6.16514">
        <ele>467.2</ele>
        <time>2024-07-31T10:54:21Z</time>
      </trkpt>
      <trkpt lat="47.31602" lon="6.16511">
        <ele>467.4</ele>
        <time>2024-07-31T10:54:22Z</time>
      </trkpt>
      <trkpt lat="47.31603" lon="6.16508">
        <ele>467.6</ele>
        <time>2024-07-31T10:54:23Z</time>
      </trkpt>
      <trkpt lat="47.31604" lon="6.16505">
        <ele>467.6</ele>
        <time>2024-07-31T10:54:24Z</time>
      </trkpt>
      <trkpt lat="47.31606" lon="6.16502">
        <ele>468</ele>
        <time>2024-07-31T10:54:25Z</time>
      </trkpt>
      <trkpt lat="47.31607" lon="6.16499">
        <ele>468.2</ele>
        <time>2024-07-31T10:54:26Z</time>
      </trkpt>
      <trkpt lat="47.31608" lon="6.16496">
        <ele>468.2</ele>
        <time>2024-07-31T10:54:27Z</time>
      </trkpt>
      <trkpt lat="47.3161" lon="6.16494">
        <ele>468.4</ele>
        <time>2024-07-31T10:54:28Z</time>
      </trkpt>
      <trkpt lat="47.3161" lon="6.16492">
        <ele>468.4</ele>
        <time>2024-07-31T10:54:29Z</time>
      </trkpt>
      <trkpt lat="47.31611" lon="6.16489">
        <ele>468.6</ele>
        <time>2024-07-31T10:54:30Z</time>
      </trkpt>
      <trkpt lat="47.31612" lon="6.16486">
        <ele>468.6</ele>
        <time>2024-07-31T10:54:31Z</time>
      </trkpt>
      <trkpt lat="47.31614" lon="6.16483">
        <ele>468.6</ele>
        <time>2024-07-31T10:54:32Z</time>
      </trkpt>
      <trkpt lat="47.31615" lon="6.16481">
        <ele>469</ele>
        <time>2024-07-31T10:54:33Z</time>
      </trkpt>
      <trkpt lat="47.31616" lon="6.16478">
        <ele>469.4</ele>
        <time>2024-07-31T10:54:34Z</time>
      </trkpt>
      <trkpt lat="47.31617" lon="6.16475">
        <ele>469.2</ele>
        <time>2024-07-31T10:54:35Z</time>
      </trkpt>
      <trkpt lat="47.31619" lon="6.16472">
        <ele>469.4</ele>
        <time>2024-07-31T10:54:36Z</time>
      </trkpt>
      <trkpt lat="47.3162" lon="6.1647">
        <ele>469.8</ele>
        <time>2024-07-31T10:54:37Z</time>
      </trkpt>
      <trkpt lat="47.31621" lon="6.16468">
        <ele>469.8</ele>
        <time>2024-07-31T10:54:38Z</time>
      </trkpt>
      <trkpt lat="47.31623" lon="6.16465">
        <ele>470.2</ele>
        <time>2024-07-31T10:54:39Z</time>
      </trkpt>
      <trkpt lat="47.31624" lon="6.16462">
        <ele>470</ele>
        <time>2024-07-31T10:54:40Z</time>
      </trkpt>
      <trkpt lat="47.31626" lon="6.16459">
        <ele>470.4</ele>
        <time>2024-07-31T10:54:41Z</time>
      </trkpt>
      <trkpt lat="47.31627" lon="6.16457">
        <ele>470.6</ele>
        <time>2024-07-31T10:54:42Z</time>
      </trkpt>
      <trkpt lat="47.31628" lon="6.16455">
        <ele>470.8</ele>
        <time>2024-07-31T10:54:43Z</time>
      </trkpt>
      <trkpt lat="47.31629" lon="6.16453">
        <ele>470.8</ele>
        <time>2024-07-31T10:54:44Z</time>
      </trkpt>
      <trkpt lat="47.3163" lon="6.1645">
        <ele>471</ele>
        <time>2024-07-31T10:54:45Z</time>
      </trkpt>
      <trkpt lat="47.31632" lon="6.16448">
        <ele>471</ele>
        <time>2024-07-31T10:54:46Z</time>
      </trkpt>
      <trkpt lat="47.31633" lon="6.16444">
        <ele>471.2</ele>
        <time>2024-07-31T10:54:47Z</time>
      </trkpt>
      <trkpt lat="47.31634" lon="6.16441">
        <ele>471.2</ele>
        <time>2024-07-31T10:54:48Z</time>
      </trkpt>
      <trkpt lat="47.31635" lon="6.16438">
        <ele>471.4</ele>
        <time>2024-07-31T10:54:49Z</time>
      </trkpt>
      <trkpt lat="47.31637" lon="6.16435">
        <ele>471.6</ele>
        <time>2024-07-31T10:54:50Z</time>
      </trkpt>
      <trkpt lat="47.31638" lon="6.16431">
        <ele>471.6</ele>
        <time>2024-07-31T10:54:51Z</time>
      </trkpt>
      <trkpt lat="47.3164" lon="6.16429">
        <ele>471.8</ele>
        <time>2024-07-31T10:54:52Z</time>
      </trkpt>
      <trkpt lat="47.31642" lon="6.16426">
        <ele>471.8</ele>
        <time>2024-07-31T10:54:53Z</time>
      </trkpt>
      <trkpt lat="47.31644" lon="6.16424">
        <ele>471.8</ele>
        <time>2024-07-31T10:54:54Z</time>
      </trkpt>
      <trkpt lat="47.31646" lon="6.16421">
        <ele>472</ele>
        <time>2024-07-31T10:54:55Z</time>
      </trkpt>
      <trkpt lat="47.31648" lon="6.16419">
        <ele>471.8</ele>
        <time>2024-07-31T10:54:56Z</time>
      </trkpt>
      <trkpt lat="47.3165" lon="6.16416">
        <ele>472</ele>
        <time>2024-07-31T10:54:57Z</time>
      </trkpt>
      <trkpt lat="47.31652" lon="6.16414">
        <ele>472</ele>
        <time>2024-07-31T10:54:58Z</time>
      </trkpt>
      <trkpt lat="47.31654" lon="6.16411">
        <ele>472.2</ele>
        <time>2024-07-31T10:54:59Z</time>
      </trkpt>
      <trkpt lat="47.31656" lon="6.16408">
        <ele>472</ele>
        <time>2024-07-31T10:55:00Z</time>
      </trkpt>
      <trkpt lat="47.31658" lon="6.16406">
        <ele>472.4</ele>
        <time>2024-07-31T10:55:01Z</time>
      </trkpt>
      <trkpt lat="47.3166" lon="6.16403">
        <ele>472.4</ele>
        <time>2024-07-31T10:55:02Z</time>
      </trkpt>
      <trkpt lat="47.31663" lon="6.164">
        <ele>472.4</ele>
        <time>2024-07-31T10:55:03Z</time>
      </trkpt>
      <trkpt lat="47.31664" lon="6.16396">
        <ele>472.4</ele>
        <time>2024-07-31T10:55:04Z</time>
      </trkpt>
      <trkpt lat="47.31666" lon="6.16392">
        <ele>472</ele>
        <time>2024-07-31T10:55:05Z</time>
      </trkpt>
      <trkpt lat="47.31668" lon="6.16388">
        <ele>472.4</ele>
        <time>2024-07-31T10:55:06Z</time>
      </trkpt>
      <trkpt lat="47.31669" lon="6.16384">
        <ele>472.6</ele>
        <time>2024-07-31T10:55:07Z</time>
      </trkpt>
      <trkpt lat="47.31671" lon="6.1638">
        <ele>472.4</ele>
        <time>2024-07-31T10:55:08Z</time>
      </trkpt>
      <trkpt lat="47.31672" lon="6.16376">
        <ele>472.6</ele>
        <time>2024-07-31T10:55:09Z</time>
      </trkpt>
      <trkpt lat="47.31673" lon="6.16372">
        <ele>472.8</ele>
        <time>2024-07-31T10:55:10Z</time>
      </trkpt>
      <trkpt lat="47.31674" lon="6.16368">
        <ele>472.8</ele>
        <time>2024-07-31T10:55:11Z</time>
      </trkpt>
      <trkpt lat="47.31675" lon="6.16364">
        <ele>473.2</ele>
        <time>2024-07-31T10:55:12Z</time>
      </trkpt>
      <trkpt lat="47.31676" lon="6.1636">
        <ele>473.4</ele>
        <time>2024-07-31T10:55:13Z</time>
      </trkpt>
      <trkpt lat="47.31677" lon="6.16356">
        <ele>473.4</ele>
        <time>2024-07-31T10:55:14Z</time>
      </trkpt>
      <trkpt lat="47.31678" lon="6.16353">
        <ele>473.4</ele>
        <time>2024-07-31T10:55:15Z</time>
      </trkpt>
      <trkpt lat="47.31678" lon="6.1635">
        <ele>473.4</ele>
        <time>2024-07-31T10:55:16Z</time>
      </trkpt>
      <trkpt lat="47.31679" lon="6.16346">
        <ele>473.4</ele>
        <time>2024-07-31T10:55:17Z</time>
      </trkpt>
      <trkpt lat="47.3168" lon="6.16343">
        <ele>473.8</ele>
        <time>2024-07-31T10:55:18Z</time>
      </trkpt>
      <trkpt lat="47.31681" lon="6.16339">
        <ele>474</ele>
        <time>2024-07-31T10:55:19Z</time>
      </trkpt>
      <trkpt lat="47.31681" lon="6.16335">
        <ele>474</ele>
        <time>2024-07-31T10:55:20Z</time>
      </trkpt>
      <trkpt lat="47.31682" lon="6.16331">
        <ele>474.2</ele>
        <time>2024-07-31T10:55:21Z</time>
      </trkpt>
      <trkpt lat="47.31682" lon="6.16327">
        <ele>474.4</ele>
        <time>2024-07-31T10:55:22Z</time>
      </trkpt>
      <trkpt lat="47.31683" lon="6.16323">
        <ele>474.2</ele>
        <time>2024-07-31T10:55:23Z</time>
      </trkpt>
      <trkpt lat="47.31684" lon="6.16319">
        <ele>474.4</ele>
        <time>2024-07-31T10:55:24Z</time>
      </trkpt>
      <trkpt lat="47.31684" lon="6.16315">
        <ele>474.2</ele>
        <time>2024-07-31T10:55:25Z</time>
      </trkpt>
      <trkpt lat="47.31684" lon="6.16311">
        <ele>474.4</ele>
        <time>2024-07-31T10:55:26Z</time>
      </trkpt>
      <trkpt lat="47.31684" lon="6.16307">
        <ele>474.8</ele>
        <time>2024-07-31T10:55:27Z</time>
      </trkpt>
      <trkpt lat="47.31683" lon="6.16304">
        <ele>474.6</ele>
        <time>2024-07-31T10:55:28Z</time>
      </trkpt>
      <trkpt lat="47.31683" lon="6.16301">
        <ele>475</ele>
        <time>2024-07-31T10:55:29Z</time>
      </trkpt>
      <trkpt lat="47.31684" lon="6.16297">
        <ele>475.4</ele>
        <time>2024-07-31T10:55:30Z</time>
      </trkpt>
      <trkpt lat="47.31684" lon="6.16295">
        <ele>475.6</ele>
        <time>2024-07-31T10:55:31Z</time>
      </trkpt>
      <trkpt lat="47.31683" lon="6.16292">
        <ele>475.6</ele>
        <time>2024-07-31T10:55:32Z</time>
      </trkpt>
      <trkpt lat="47.31683" lon="6.16289">
        <ele>475.8</ele>
        <time>2024-07-31T10:55:33Z</time>
      </trkpt>
      <trkpt lat="47.31682" lon="6.16286">
        <ele>476</ele>
        <time>2024-07-31T10:55:34Z</time>
      </trkpt>
      <trkpt lat="47.31682" lon="6.16284">
        <ele>476</ele>
        <time>2024-07-31T10:55:35Z</time>
      </trkpt>
      <trkpt lat="47.31681" lon="6.16282">
        <ele>476.2</ele>
        <time>2024-07-31T10:55:36Z</time>
      </trkpt>
      <trkpt lat="47.31681" lon="6.16279">
        <ele>476.6</ele>
        <time>2024-07-31T10:55:37Z</time>
      </trkpt>
      <trkpt lat="47.31681" lon="6.16276">
        <ele>476.6</ele>
        <time>2024-07-31T10:55:38Z</time>
      </trkpt>
      <trkpt lat="47.31681" lon="6.16274">
        <ele>476.2</ele>
        <time>2024-07-31T10:55:39Z</time>
      </trkpt>
      <trkpt lat="47.31681" lon="6.16271">
        <ele>476.8</ele>
        <time>2024-07-31T10:55:40Z</time>
      </trkpt>
      <trkpt lat="47.3168" lon="6.16267">
        <ele>476.6</ele>
        <time>2024-07-31T10:55:41Z</time>
      </trkpt>
      <trkpt lat="47.3168" lon="6.16264">
        <ele>476.6</ele>
        <time>2024-07-31T10:55:42Z</time>
      </trkpt>
      <trkpt lat="47.3168" lon="6.16261">
        <ele>476.6</ele>
        <time>2024-07-31T10:55:43Z</time>
      </trkpt>
      <trkpt lat="47.3168" lon="6.16257">
        <ele>477</ele>
        <time>2024-07-31T10:55:44Z</time>
      </trkpt>
      <trkpt lat="47.31681" lon="6.16253">
        <ele>477.2</ele>
        <time>2024-07-31T10:55:45Z</time>
      </trkpt>
      <trkpt lat="47.3168" lon="6.1625">
        <ele>477.2</ele>
        <time>2024-07-31T10:55:46Z</time>
      </trkpt>
      <trkpt lat="47.3168" lon="6.16246">
        <ele>477.2</ele>
        <time>2024-07-31T10:55:47Z</time>
      </trkpt>
      <trkpt lat="47.3168" lon="6.16243">
        <ele>477.2</ele>
        <time>2024-07-31T10:55:48Z</time>
      </trkpt>
      <trkpt lat="47.3168" lon="6.1624">
        <ele>477.2</ele>
        <time>2024-07-31T10:55:49Z</time>
      </trkpt>
      <trkpt lat="47.31679" lon="6.16237">
        <ele>477.4</ele>
        <time>2024-07-31T10:55:50Z</time>
      </trkpt>
      <trkpt lat="47.31679" lon="6.16233">
        <ele>477.4</ele>
        <time>2024-07-31T10:55:51Z</time>
      </trkpt>
      <trkpt lat="47.31679" lon="6.16229">
        <ele>477.6</ele>
        <time>2024-07-31T10:55:52Z</time>
      </trkpt>
      <trkpt lat="47.31678" lon="6.16225">
        <ele>477.8</ele>
        <time>2024-07-31T10:55:53Z</time>
      </trkpt>
      <trkpt lat="47.31677" lon="6.16222">
        <ele>477.8</ele>
        <time>2024-07-31T10:55:54Z</time>
      </trkpt>
      <trkpt lat="47.31677" lon="6.16218">
        <ele>477.8</ele>
        <time>2024-07-31T10:55:55Z</time>
      </trkpt>
      <trkpt lat="47.31677" lon="6.16215">
        <ele>478</ele>
        <time>2024-07-31T10:55:56Z</time>
      </trkpt>
      <trkpt lat="47.31676" lon="6.16211">
        <ele>478.4</ele>
        <time>2024-07-31T10:55:57Z</time>
      </trkpt>
      <trkpt lat="47.31676" lon="6.16208">
        <ele>478.2</ele>
        <time>2024-07-31T10:55:58Z</time>
      </trkpt>
      <trkpt lat="47.31675" lon="6.16205">
        <ele>478</ele>
        <time>2024-07-31T10:55:59Z</time>
      </trkpt>
      <trkpt lat="47.31675" lon="6.16201">
        <ele>478</ele>
        <time>2024-07-31T10:56:00Z</time>
      </trkpt>
      <trkpt lat="47.31675" lon="6.16198">
        <ele>478.8</ele>
        <time>2024-07-31T10:56:01Z</time>
      </trkpt>
      <trkpt lat="47.31674" lon="6.16194">
        <ele>478.8</ele>
        <time>2024-07-31T10:56:02Z</time>
      </trkpt>
      <trkpt lat="47.31674" lon="6.16191">
        <ele>478.8</ele>
        <time>2024-07-31T10:56:03Z</time>
      </trkpt>
      <trkpt lat="47.31673" lon="6.16188">
        <ele>478.8</ele>
        <time>2024-07-31T10:56:04Z</time>
      </trkpt>
      <trkpt lat="47.31672" lon="6.16184">
        <ele>479</ele>
        <time>2024-07-31T10:56:05Z</time>
      </trkpt>
      <trkpt lat="47.31672" lon="6.16181">
        <ele>479</ele>
        <time>2024-07-31T10:56:06Z</time>
      </trkpt>
      <trkpt lat="47.31671" lon="6.16177">
        <ele>478.8</ele>
        <time>2024-07-31T10:56:07Z</time>
      </trkpt>
      <trkpt lat="47.31671" lon="6.16173">
        <ele>478.8</ele>
        <time>2024-07-31T10:56:08Z</time>
      </trkpt>
      <trkpt lat="47.31671" lon="6.16169">
        <ele>478.8</ele>
        <time>2024-07-31T10:56:09Z</time>
      </trkpt>
      <trkpt lat="47.3167" lon="6.16165">
        <ele>479</ele>
        <time>2024-07-31T10:56:10Z</time>
      </trkpt>
      <trkpt lat="47.31669" lon="6.1616">
        <ele>479</ele>
        <time>2024-07-31T10:56:11Z</time>
      </trkpt>
      <trkpt lat="47.31668" lon="6.16156">
        <ele>479.2</ele>
        <time>2024-07-31T10:56:12Z</time>
      </trkpt>
      <trkpt lat="47.31667" lon="6.16152">
        <ele>479.6</ele>
        <time>2024-07-31T10:56:13Z</time>
      </trkpt>
      <trkpt lat="47.31667" lon="6.16148">
        <ele>479.4</ele>
        <time>2024-07-31T10:56:14Z</time>
      </trkpt>
      <trkpt lat="47.31665" lon="6.16144">
        <ele>479.8</ele>
        <time>2024-07-31T10:56:15Z</time>
      </trkpt>
      <trkpt lat="47.31664" lon="6.1614">
        <ele>479.8</ele>
        <time>2024-07-31T10:56:16Z</time>
      </trkpt>
      <trkpt lat="47.31663" lon="6.16135">
        <ele>479.8</ele>
        <time>2024-07-31T10:56:17Z</time>
      </trkpt>
      <trkpt lat="47.31662" lon="6.16131">
        <ele>479.8</ele>
        <time>2024-07-31T10:56:18Z</time>
      </trkpt>
      <trkpt lat="47.31661" lon="6.16126">
        <ele>480</ele>
        <time>2024-07-31T10:56:19Z</time>
      </trkpt>
      <trkpt lat="47.3166" lon="6.16123">
        <ele>480.6</ele>
        <time>2024-07-31T10:56:20Z</time>
      </trkpt>
      <trkpt lat="47.31659" lon="6.1612">
        <ele>480.4</ele>
        <time>2024-07-31T10:56:21Z</time>
      </trkpt>
      <trkpt lat="47.31659" lon="6.16116">
        <ele>480.4</ele>
        <time>2024-07-31T10:56:22Z</time>
      </trkpt>
      <trkpt lat="47.31658" lon="6.16113">
        <ele>480.4</ele>
        <time>2024-07-31T10:56:23Z</time>
      </trkpt>
      <trkpt lat="47.31657" lon="6.16109">
        <ele>481</ele>
        <time>2024-07-31T10:56:24Z</time>
      </trkpt>
      <trkpt lat="47.31656" lon="6.16106">
        <ele>480.6</ele>
        <time>2024-07-31T10:56:25Z</time>
      </trkpt>
      <trkpt lat="47.31655" lon="6.16103">
        <ele>480.4</ele>
        <time>2024-07-31T10:56:26Z</time>
      </trkpt>
      <trkpt lat="47.31654" lon="6.16099">
        <ele>481.2</ele>
        <time>2024-07-31T10:56:27Z</time>
      </trkpt>
      <trkpt lat="47.31654" lon="6.16095">
        <ele>481</ele>
        <time>2024-07-31T10:56:28Z</time>
      </trkpt>
      <trkpt lat="47.31653" lon="6.16091">
        <ele>480.8</ele>
        <time>2024-07-31T10:56:29Z</time>
      </trkpt>
      <trkpt lat="47.31653" lon="6.16087">
        <ele>480.8</ele>
        <time>2024-07-31T10:56:30Z</time>
      </trkpt>
      <trkpt lat="47.31652" lon="6.16084">
        <ele>481.2</ele>
        <time>2024-07-31T10:56:31Z</time>
      </trkpt>
      <trkpt lat="47.31651" lon="6.16081">
        <ele>481.4</ele>
        <time>2024-07-31T10:56:32Z</time>
      </trkpt>
      <trkpt lat="47.3165" lon="6.16078">
        <ele>481.4</ele>
        <time>2024-07-31T10:56:33Z</time>
      </trkpt>
      <trkpt lat="47.31649" lon="6.16075">
        <ele>481.6</ele>
        <time>2024-07-31T10:56:34Z</time>
      </trkpt>
      <trkpt lat="47.31648" lon="6.16073">
        <ele>482</ele>
        <time>2024-07-31T10:56:35Z</time>
      </trkpt>
      <trkpt lat="47.31647" lon="6.1607">
        <ele>482</ele>
        <time>2024-07-31T10:56:36Z</time>
      </trkpt>
      <trkpt lat="47.31646" lon="6.16068">
        <ele>482</ele>
        <time>2024-07-31T10:56:37Z</time>
      </trkpt>
      <trkpt lat="47.31645" lon="6.16066">
        <ele>482</ele>
        <time>2024-07-31T10:56:38Z</time>
      </trkpt>
      <trkpt lat="47.31644" lon="6.16065">
        <ele>482.4</ele>
        <time>2024-07-31T10:56:39Z</time>
      </trkpt>
      <trkpt lat="47.31642" lon="6.16063">
        <ele>482.6</ele>
        <time>2024-07-31T10:56:40Z</time>
      </trkpt>
      <trkpt lat="47.31641" lon="6.16061">
        <ele>482.6</ele>
        <time>2024-07-31T10:56:41Z</time>
      </trkpt>
      <trkpt lat="47.3164" lon="6.16058">
        <ele>482.8</ele>
        <time>2024-07-31T10:56:42Z</time>
      </trkpt>
      <trkpt lat="47.31639" lon="6.16056">
        <ele>483</ele>
        <time>2024-07-31T10:56:43Z</time>
      </trkpt>
      <trkpt lat="47.31638" lon="6.16054">
        <ele>483</ele>
        <time>2024-07-31T10:56:44Z</time>
      </trkpt>
      <trkpt lat="47.31637" lon="6.16052">
        <ele>483.4</ele>
        <time>2024-07-31T10:56:45Z</time>
      </trkpt>
      <trkpt lat="47.31636" lon="6.1605">
        <ele>483.6</ele>
        <time>2024-07-31T10:56:46Z</time>
      </trkpt>
      <trkpt lat="47.31635" lon="6.16048">
        <ele>483.6</ele>
        <time>2024-07-31T10:56:47Z</time>
      </trkpt>
      <trkpt lat="47.31634" lon="6.16046">
        <ele>484</ele>
        <time>2024-07-31T10:56:48Z</time>
      </trkpt>
      <trkpt lat="47.31633" lon="6.16043">
        <ele>483.8</ele>
        <time>2024-07-31T10:56:49Z</time>
      </trkpt>
      <trkpt lat="47.31632" lon="6.16041">
        <ele>484.2</ele>
        <time>2024-07-31T10:56:50Z</time>
      </trkpt>
      <trkpt lat="47.31632" lon="6.16039">
        <ele>484.2</ele>
        <time>2024-07-31T10:56:51Z</time>
      </trkpt>
      <trkpt lat="47.31631" lon="6.16036">
        <ele>484.4</ele>
        <time>2024-07-31T10:56:52Z</time>
      </trkpt>
      <trkpt lat="47.31631" lon="6.16034">
        <ele>484.4</ele>
        <time>2024-07-31T10:56:53Z</time>
      </trkpt>
      <trkpt lat="47.3163" lon="6.16031">
        <ele>484.8</ele>
        <time>2024-07-31T10:56:54Z</time>
      </trkpt>
      <trkpt lat="47.3163" lon="6.16029">
        <ele>484.8</ele>
        <time>2024-07-31T10:56:55Z</time>
      </trkpt>
      <trkpt lat="47.3163" lon="6.16027">
        <ele>485</ele>
        <time>2024-07-31T10:56:56Z</time>
      </trkpt>
      <trkpt lat="47.3163" lon="6.16024">
        <ele>485.2</ele>
        <time>2024-07-31T10:56:57Z</time>
      </trkpt>
      <trkpt lat="47.3163" lon="6.16021">
        <ele>485.2</ele>
        <time>2024-07-31T10:56:58Z</time>
      </trkpt>
      <trkpt lat="47.31631" lon="6.16019">
        <ele>485.4</ele>
        <time>2024-07-31T10:56:59Z</time>
      </trkpt>
      <trkpt lat="47.31631" lon="6.16016">
        <ele>485.6</ele>
        <time>2024-07-31T10:57:00Z</time>
      </trkpt>
      <trkpt lat="47.31632" lon="6.16013">
        <ele>485.4</ele>
        <time>2024-07-31T10:57:01Z</time>
      </trkpt>
      <trkpt lat="47.31632" lon="6.1601">
        <ele>485.6</ele>
        <time>2024-07-31T10:57:02Z</time>
      </trkpt>
      <trkpt lat="47.31633" lon="6.16007">
        <ele>486</ele>
        <time>2024-07-31T10:57:03Z</time>
      </trkpt>
      <trkpt lat="47.31634" lon="6.16005">
        <ele>485.8</ele>
        <time>2024-07-31T10:57:04Z</time>
      </trkpt>
      <trkpt lat="47.31634" lon="6.16002">
        <ele>486</ele>
        <time>2024-07-31T10:57:05Z</time>
      </trkpt>
      <trkpt lat="47.31635" lon="6.15999">
        <ele>486</ele>
        <time>2024-07-31T10:57:06Z</time>
      </trkpt>
      <trkpt lat="47.31637" lon="6.15996">
        <ele>486</ele>
        <time>2024-07-31T10:57:07Z</time>
      </trkpt>
      <trkpt lat="47.31638" lon="6.15992">
        <ele>486</ele>
        <time>2024-07-31T10:57:08Z</time>
      </trkpt>
      <trkpt lat="47.31639" lon="6.15989">
        <ele>486.4</ele>
        <time>2024-07-31T10:57:09Z</time>
      </trkpt>
      <trkpt lat="47.3164" lon="6.15986">
        <ele>486.2</ele>
        <time>2024-07-31T10:57:10Z</time>
      </trkpt>
      <trkpt lat="47.31641" lon="6.15984">
        <ele>486.4</ele>
        <time>2024-07-31T10:57:11Z</time>
      </trkpt>
      <trkpt lat="47.31642" lon="6.15981">
        <ele>486.6</ele>
        <time>2024-07-31T10:57:12Z</time>
      </trkpt>
      <trkpt lat="47.31643" lon="6.15978">
        <ele>486.6</ele>
        <time>2024-07-31T10:57:13Z</time>
      </trkpt>
      <trkpt lat="47.31644" lon="6.15975">
        <ele>486.6</ele>
        <time>2024-07-31T10:57:14Z</time>
      </trkpt>
      <trkpt lat="47.31645" lon="6.15972">
        <ele>486.8</ele>
        <time>2024-07-31T10:57:15Z</time>
      </trkpt>
      <trkpt lat="47.31646" lon="6.15969">
        <ele>487.4</ele>
        <time>2024-07-31T10:57:16Z</time>
      </trkpt>
      <trkpt lat="47.31647" lon="6.15966">
        <ele>487.6</ele>
        <time>2024-07-31T10:57:17Z</time>
      </trkpt>
      <trkpt lat="47.31648" lon="6.15963">
        <ele>487.8</ele>
        <time>2024-07-31T10:57:18Z</time>
      </trkpt>
      <trkpt lat="47.31648" lon="6.15961">
        <ele>488</ele>
        <time>2024-07-31T10:57:19Z</time>
      </trkpt>
      <trkpt lat="47.31648" lon="6.15958">
        <ele>488.8</ele>
        <time>2024-07-31T10:57:20Z</time>
      </trkpt>
      <trkpt lat="47.31648" lon="6.15956">
        <ele>488.8</ele>
        <time>2024-07-31T10:57:21Z</time>
      </trkpt>
      <trkpt lat="47.31648" lon="6.15954">
        <ele>489</ele>
        <time>2024-07-31T10:57:22Z</time>
      </trkpt>
      <trkpt lat="47.31647" lon="6.15951">
        <ele>489.6</ele>
        <time>2024-07-31T10:57:23Z</time>
      </trkpt>
      <trkpt lat="47.31647" lon="6.15949">
        <ele>489.2</ele>
        <time>2024-07-31T10:57:24Z</time>
      </trkpt>
      <trkpt lat="47.31647" lon="6.15947">
        <ele>489.6</ele>
        <time>2024-07-31T10:57:25Z</time>
      </trkpt>
      <trkpt lat="47.31647" lon="6.15944">
        <ele>489.8</ele>
        <time>2024-07-31T10:57:26Z</time>
      </trkpt>
      <trkpt lat="47.31647" lon="6.15942">
        <ele>490.2</ele>
        <time>2024-07-31T10:57:27Z</time>
      </trkpt>
      <trkpt lat="47.31647" lon="6.15939">
        <ele>490.2</ele>
        <time>2024-07-31T10:57:28Z</time>
      </trkpt>
      <trkpt lat="47.31648" lon="6.15937">
        <ele>490.6</ele>
        <time>2024-07-31T10:57:29Z</time>
      </trkpt>
      <trkpt lat="47.31648" lon="6.15935">
        <ele>490.6</ele>
        <time>2024-07-31T10:57:30Z</time>
      </trkpt>
      <trkpt lat="47.31649" lon="6.15932">
        <ele>490.8</ele>
        <time>2024-07-31T10:57:31Z</time>
      </trkpt>
      <trkpt lat="47.31649" lon="6.15929">
        <ele>490.8</ele>
        <time>2024-07-31T10:57:32Z</time>
      </trkpt>
      <trkpt lat="47.3165" lon="6.15926">
        <ele>491.2</ele>
        <time>2024-07-31T10:57:33Z</time>
      </trkpt>
      <trkpt lat="47.31651" lon="6.15924">
        <ele>491.2</ele>
        <time>2024-07-31T10:57:34Z</time>
      </trkpt>
      <trkpt lat="47.31651" lon="6.15921">
        <ele>491.6</ele>
        <time>2024-07-31T10:57:35Z</time>
      </trkpt>
      <trkpt lat="47.31651" lon="6.15918">
        <ele>491.6</ele>
        <time>2024-07-31T10:57:36Z</time>
      </trkpt>
      <trkpt lat="47.31651" lon="6.15915">
        <ele>492</ele>
        <time>2024-07-31T10:57:37Z</time>
      </trkpt>
      <trkpt lat="47.31652" lon="6.15912">
        <ele>492</ele>
        <time>2024-07-31T10:57:38Z</time>
      </trkpt>
      <trkpt lat="47.31653" lon="6.15909">
        <ele>492</ele>
        <time>2024-07-31T10:57:39Z</time>
      </trkpt>
      <trkpt lat="47.31654" lon="6.15905">
        <ele>492</ele>
        <time>2024-07-31T10:57:40Z</time>
      </trkpt>
      <trkpt lat="47.31655" lon="6.15902">
        <ele>492.2</ele>
        <time>2024-07-31T10:57:41Z</time>
      </trkpt>
      <trkpt lat="47.31655" lon="6.159">
        <ele>492.4</ele>
        <time>2024-07-31T10:57:42Z</time>
      </trkpt>
      <trkpt lat="47.31656" lon="6.15897">
        <ele>492.6</ele>
        <time>2024-07-31T10:57:43Z</time>
      </trkpt>
      <trkpt lat="47.31657" lon="6.15894">
        <ele>493</ele>
        <time>2024-07-31T10:57:44Z</time>
      </trkpt>
      <trkpt lat="47.31658" lon="6.15892">
        <ele>493</ele>
        <time>2024-07-31T10:57:45Z</time>
      </trkpt>
      <trkpt lat="47.31659" lon="6.15889">
        <ele>493.2</ele>
        <time>2024-07-31T10:57:46Z</time>
      </trkpt>
      <trkpt lat="47.3166" lon="6.15887">
        <ele>493.4</ele>
        <time>2024-07-31T10:57:47Z</time>
      </trkpt>
      <trkpt lat="47.31661" lon="6.15884">
        <ele>493.4</ele>
        <time>2024-07-31T10:57:48Z</time>
      </trkpt>
      <trkpt lat="47.31661" lon="6.15881">
        <ele>493.4</ele>
        <time>2024-07-31T10:57:49Z</time>
      </trkpt>
      <trkpt lat="47.31662" lon="6.15878">
        <ele>493.6</ele>
        <time>2024-07-31T10:57:50Z</time>
      </trkpt>
      <trkpt lat="47.31663" lon="6.15876">
        <ele>493.6</ele>
        <time>2024-07-31T10:57:51Z</time>
      </trkpt>
      <trkpt lat="47.31664" lon="6.15873">
        <ele>493.6</ele>
        <time>2024-07-31T10:57:52Z</time>
      </trkpt>
      <trkpt lat="47.31665" lon="6.1587">
        <ele>493.6</ele>
        <time>2024-07-31T10:57:53Z</time>
      </trkpt>
      <trkpt lat="47.31666" lon="6.15867">
        <ele>493.4</ele>
        <time>2024-07-31T10:57:54Z</time>
      </trkpt>
      <trkpt lat="47.31666" lon="6.15863">
        <ele>493.6</ele>
        <time>2024-07-31T10:57:55Z</time>
      </trkpt>
      <trkpt lat="47.31668" lon="6.15861">
        <ele>493.8</ele>
        <time>2024-07-31T10:57:56Z</time>
      </trkpt>
      <trkpt lat="47.31669" lon="6.15857">
        <ele>493.8</ele>
        <time>2024-07-31T10:57:57Z</time>
      </trkpt>
      <trkpt lat="47.3167" lon="6.15854">
        <ele>493.6</ele>
        <time>2024-07-31T10:57:58Z</time>
      </trkpt>
      <trkpt lat="47.3167" lon="6.1585">
        <ele>493.8</ele>
        <time>2024-07-31T10:57:59Z</time>
      </trkpt>
      <trkpt lat="47.3167" lon="6.15847">
        <ele>493.8</ele>
        <time>2024-07-31T10:58:00Z</time>
      </trkpt>
      <trkpt lat="47.31671" lon="6.15844">
        <ele>494</ele>
        <time>2024-07-31T10:58:01Z</time>
      </trkpt>
      <trkpt lat="47.31671" lon="6.15841">
        <ele>494</ele>
        <time>2024-07-31T10:58:02Z</time>
      </trkpt>
      <trkpt lat="47.31671" lon="6.15838">
        <ele>494</ele>
        <time>2024-07-31T10:58:03Z</time>
      </trkpt>
      <trkpt lat="47.31673" lon="6.15835">
        <ele>494</ele>
        <time>2024-07-31T10:58:04Z</time>
      </trkpt>
      <trkpt lat="47.31674" lon="6.15832">
        <ele>494</ele>
        <time>2024-07-31T10:58:05Z</time>
      </trkpt>
      <trkpt lat="47.31674" lon="6.15829">
        <ele>494.2</ele>
        <time>2024-07-31T10:58:06Z</time>
      </trkpt>
      <trkpt lat="47.31674" lon="6.15826">
        <ele>494.4</ele>
        <time>2024-07-31T10:58:07Z</time>
      </trkpt>
      <trkpt lat="47.31674" lon="6.15823">
        <ele>494.4</ele>
        <time>2024-07-31T10:58:08Z</time>
      </trkpt>
      <trkpt lat="47.31673" lon="6.1582">
        <ele>494.8</ele>
        <time>2024-07-31T10:58:09Z</time>
      </trkpt>
      <trkpt lat="47.31673" lon="6.15817">
        <ele>494.8</ele>
        <time>2024-07-31T10:58:10Z</time>
      </trkpt>
      <trkpt lat="47.31673" lon="6.15814">
        <ele>495.2</ele>
        <time>2024-07-31T10:58:11Z</time>
      </trkpt>
      <trkpt lat="47.31672" lon="6.15812">
        <ele>495.4</ele>
        <time>2024-07-31T10:58:12Z</time>
      </trkpt>
      <trkpt lat="47.31671" lon="6.1581">
        <ele>495.4</ele>
        <time>2024-07-31T10:58:13Z</time>
      </trkpt>
      <trkpt lat="47.31671" lon="6.15808">
        <ele>495.6</ele>
        <time>2024-07-31T10:58:14Z</time>
      </trkpt>
      <trkpt lat="47.31671" lon="6.15806">
        <ele>495.8</ele>
        <time>2024-07-31T10:58:15Z</time>
      </trkpt>
      <trkpt lat="47.3167" lon="6.15804">
        <ele>496.2</ele>
        <time>2024-07-31T10:58:16Z</time>
      </trkpt>
      <trkpt lat="47.3167" lon="6.15801">
        <ele>496.2</ele>
        <time>2024-07-31T10:58:17Z</time>
      </trkpt>
      <trkpt lat="47.31669" lon="6.15799">
        <ele>496.2</ele>
        <time>2024-07-31T10:58:18Z</time>
      </trkpt>
      <trkpt lat="47.31669" lon="6.15796">
        <ele>496.6</ele>
        <time>2024-07-31T10:58:19Z</time>
      </trkpt>
      <trkpt lat="47.31669" lon="6.15794">
        <ele>496.8</ele>
        <time>2024-07-31T10:58:20Z</time>
      </trkpt>
      <trkpt lat="47.31669" lon="6.15792">
        <ele>497.2</ele>
        <time>2024-07-31T10:58:21Z</time>
      </trkpt>
      <trkpt lat="47.31669" lon="6.15788">
        <ele>497.2</ele>
        <time>2024-07-31T10:58:22Z</time>
      </trkpt>
      <trkpt lat="47.31669" lon="6.15785">
        <ele>497.4</ele>
        <time>2024-07-31T10:58:23Z</time>
      </trkpt>
      <trkpt lat="47.31668" lon="6.15781">
        <ele>497.6</ele>
        <time>2024-07-31T10:58:24Z</time>
      </trkpt>
      <trkpt lat="47.31666" lon="6.15777">
        <ele>497.6</ele>
        <time>2024-07-31T10:58:25Z</time>
      </trkpt>
      <trkpt lat="47.31665" lon="6.15774">
        <ele>497.6</ele>
        <time>2024-07-31T10:58:26Z</time>
      </trkpt>
      <trkpt lat="47.31665" lon="6.15771">
        <ele>498</ele>
        <time>2024-07-31T10:58:27Z</time>
      </trkpt>
      <trkpt lat="47.31665" lon="6.15767">
        <ele>497.8</ele>
        <time>2024-07-31T10:58:28Z</time>
      </trkpt>
      <trkpt lat="47.31663" lon="6.15764">
        <ele>498</ele>
        <time>2024-07-31T10:58:29Z</time>
      </trkpt>
      <trkpt lat="47.31662" lon="6.1576">
        <ele>498</ele>
        <time>2024-07-31T10:58:30Z</time>
      </trkpt>
      <trkpt lat="47.31661" lon="6.15757">
        <ele>498.2</ele>
        <time>2024-07-31T10:58:31Z</time>
      </trkpt>
      <trkpt lat="47.3166" lon="6.15755">
        <ele>498.4</ele>
        <time>2024-07-31T10:58:32Z</time>
      </trkpt>
      <trkpt lat="47.31659" lon="6.15752">
        <ele>498.6</ele>
        <time>2024-07-31T10:58:33Z</time>
      </trkpt>
      <trkpt lat="47.31658" lon="6.15748">
        <ele>498.6</ele>
        <time>2024-07-31T10:58:34Z</time>
      </trkpt>
      <trkpt lat="47.31657" lon="6.15745">
        <ele>498.6</ele>
        <time>2024-07-31T10:58:35Z</time>
      </trkpt>
      <trkpt lat="47.31657" lon="6.15741">
        <ele>498.8</ele>
        <time>2024-07-31T10:58:36Z</time>
      </trkpt>
      <trkpt lat="47.31657" lon="6.15737">
        <ele>498.8</ele>
        <time>2024-07-31T10:58:37Z</time>
      </trkpt>
      <trkpt lat="47.31657" lon="6.15734">
        <ele>498.8</ele>
        <time>2024-07-31T10:58:38Z</time>
      </trkpt>
      <trkpt lat="47.31657" lon="6.15731">
        <ele>499</ele>
        <time>2024-07-31T10:58:39Z</time>
      </trkpt>
      <trkpt lat="47.31656" lon="6.15728">
        <ele>499</ele>
        <time>2024-07-31T10:58:40Z</time>
      </trkpt>
      <trkpt lat="47.31656" lon="6.15726">
        <ele>499.2</ele>
        <time>2024-07-31T10:58:41Z</time>
      </trkpt>
      <trkpt lat="47.31655" lon="6.15723">
        <ele>499</ele>
        <time>2024-07-31T10:58:42Z</time>
      </trkpt>
      <trkpt lat="47.31654" lon="6.15721">
        <ele>499</ele>
        <time>2024-07-31T10:58:43Z</time>
      </trkpt>
      <trkpt lat="47.31653" lon="6.15718">
        <ele>499.2</ele>
        <time>2024-07-31T10:58:44Z</time>
      </trkpt>
      <trkpt lat="47.31651" lon="6.15714">
        <ele>499.4</ele>
        <time>2024-07-31T10:58:45Z</time>
      </trkpt>
      <trkpt lat="47.3165" lon="6.1571">
        <ele>499.8</ele>
        <time>2024-07-31T10:58:46Z</time>
      </trkpt>
      <trkpt lat="47.3165" lon="6.15706">
        <ele>500</ele>
        <time>2024-07-31T10:58:47Z</time>
      </trkpt>
      <trkpt lat="47.31648" lon="6.15704">
        <ele>499.8</ele>
        <time>2024-07-31T10:58:48Z</time>
      </trkpt>
      <trkpt lat="47.31648" lon="6.15701">
        <ele>500</ele>
        <time>2024-07-31T10:58:49Z</time>
      </trkpt>
      <trkpt lat="47.31647" lon="6.15698">
        <ele>500</ele>
        <time>2024-07-31T10:58:50Z</time>
      </trkpt>
      <trkpt lat="47.31646" lon="6.15695">
        <ele>500.2</ele>
        <time>2024-07-31T10:58:51Z</time>
      </trkpt>
      <trkpt lat="47.31645" lon="6.15692">
        <ele>500.2</ele>
        <time>2024-07-31T10:58:52Z</time>
      </trkpt>
      <trkpt lat="47.31644" lon="6.15688">
        <ele>500.4</ele>
        <time>2024-07-31T10:58:53Z</time>
      </trkpt>
      <trkpt lat="47.31643" lon="6.15683">
        <ele>500.4</ele>
        <time>2024-07-31T10:58:54Z</time>
      </trkpt>
      <trkpt lat="47.31641" lon="6.15678">
        <ele>500.6</ele>
        <time>2024-07-31T10:58:55Z</time>
      </trkpt>
      <trkpt lat="47.3164" lon="6.15674">
        <ele>500.6</ele>
        <time>2024-07-31T10:58:56Z</time>
      </trkpt>
      <trkpt lat="47.31638" lon="6.15669">
        <ele>500.6</ele>
        <time>2024-07-31T10:58:57Z</time>
      </trkpt>
      <trkpt lat="47.31637" lon="6.15666">
        <ele>500.8</ele>
        <time>2024-07-31T10:58:58Z</time>
      </trkpt>
      <trkpt lat="47.31636" lon="6.15663">
        <ele>500.8</ele>
        <time>2024-07-31T10:58:59Z</time>
      </trkpt>
      <trkpt lat="47.31635" lon="6.15659">
        <ele>500.6</ele>
        <time>2024-07-31T10:59:00Z</time>
      </trkpt>
      <trkpt lat="47.31634" lon="6.15655">
        <ele>500.4</ele>
        <time>2024-07-31T10:59:01Z</time>
      </trkpt>
      <trkpt lat="47.31634" lon="6.1565">
        <ele>500.4</ele>
        <time>2024-07-31T10:59:02Z</time>
      </trkpt>
      <trkpt lat="47.31633" lon="6.15645">
        <ele>500.6</ele>
        <time>2024-07-31T10:59:03Z</time>
      </trkpt>
      <trkpt lat="47.31633" lon="6.15641">
        <ele>500.8</ele>
        <time>2024-07-31T10:59:04Z</time>
      </trkpt>
      <trkpt lat="47.31633" lon="6.15639">
        <ele>500.8</ele>
        <time>2024-07-31T10:59:05Z</time>
      </trkpt>
      <trkpt lat="47.31632" lon="6.15635">
        <ele>500.8</ele>
        <time>2024-07-31T10:59:06Z</time>
      </trkpt>
      <trkpt lat="47.3163" lon="6.15631">
        <ele>500.8</ele>
        <time>2024-07-31T10:59:07Z</time>
      </trkpt>
      <trkpt lat="47.3163" lon="6.15627">
        <ele>500.8</ele>
        <time>2024-07-31T10:59:08Z</time>
      </trkpt>
      <trkpt lat="47.3163" lon="6.15623">
        <ele>501</ele>
        <time>2024-07-31T10:59:09Z</time>
      </trkpt>
      <trkpt lat="47.3163" lon="6.15618">
        <ele>501.4</ele>
        <time>2024-07-31T10:59:10Z</time>
      </trkpt>
      <trkpt lat="47.31629" lon="6.15613">
        <ele>501.4</ele>
        <time>2024-07-31T10:59:11Z</time>
      </trkpt>
      <trkpt lat="47.31629" lon="6.15609">
        <ele>501.2</ele>
        <time>2024-07-31T10:59:12Z</time>
      </trkpt>
      <trkpt lat="47.3163" lon="6.15605">
        <ele>501.4</ele>
        <time>2024-07-31T10:59:13Z</time>
      </trkpt>
      <trkpt lat="47.3163" lon="6.156">
        <ele>501.4</ele>
        <time>2024-07-31T10:59:14Z</time>
      </trkpt>
      <trkpt lat="47.31631" lon="6.15596">
        <ele>501.4</ele>
        <time>2024-07-31T10:59:15Z</time>
      </trkpt>
      <trkpt lat="47.31631" lon="6.15591">
        <ele>501.8</ele>
        <time>2024-07-31T10:59:16Z</time>
      </trkpt>
      <trkpt lat="47.31632" lon="6.15586">
        <ele>501.8</ele>
        <time>2024-07-31T10:59:17Z</time>
      </trkpt>
      <trkpt lat="47.31633" lon="6.15582">
        <ele>502</ele>
        <time>2024-07-31T10:59:18Z</time>
      </trkpt>
      <trkpt lat="47.31632" lon="6.15578">
        <ele>502</ele>
        <time>2024-07-31T10:59:19Z</time>
      </trkpt>
      <trkpt lat="47.31632" lon="6.15574">
        <ele>502</ele>
        <time>2024-07-31T10:59:20Z</time>
      </trkpt>
      <trkpt lat="47.31632" lon="6.15569">
        <ele>502.2</ele>
        <time>2024-07-31T10:59:21Z</time>
      </trkpt>
      <trkpt lat="47.31632" lon="6.15565">
        <ele>502.4</ele>
        <time>2024-07-31T10:59:22Z</time>
      </trkpt>
      <trkpt lat="47.31632" lon="6.15562">
        <ele>502.4</ele>
        <time>2024-07-31T10:59:23Z</time>
      </trkpt>
      <trkpt lat="47.31632" lon="6.15559">
        <ele>502.6</ele>
        <time>2024-07-31T10:59:24Z</time>
      </trkpt>
      <trkpt lat="47.31633" lon="6.15555">
        <ele>502.8</ele>
        <time>2024-07-31T10:59:25Z</time>
      </trkpt>
      <trkpt lat="47.31634" lon="6.15551">
        <ele>502.8</ele>
        <time>2024-07-31T10:59:26Z</time>
      </trkpt>
      <trkpt lat="47.31635" lon="6.15548">
        <ele>502.8</ele>
        <time>2024-07-31T10:59:27Z</time>
      </trkpt>
      <trkpt lat="47.31635" lon="6.15544">
        <ele>502.8</ele>
        <time>2024-07-31T10:59:28Z</time>
      </trkpt>
      <trkpt lat="47.31636" lon="6.1554">
        <ele>503</ele>
        <time>2024-07-31T10:59:29Z</time>
      </trkpt>
      <trkpt lat="47.31637" lon="6.15536">
        <ele>503.2</ele>
        <time>2024-07-31T10:59:30Z</time>
      </trkpt>
      <trkpt lat="47.31638" lon="6.15531">
        <ele>503.2</ele>
        <time>2024-07-31T10:59:31Z</time>
      </trkpt>
      <trkpt lat="47.31639" lon="6.15526">
        <ele>503.4</ele>
        <time>2024-07-31T10:59:32Z</time>
      </trkpt>
      <trkpt lat="47.31639" lon="6.15521">
        <ele>503.4</ele>
        <time>2024-07-31T10:59:33Z</time>
      </trkpt>
      <trkpt lat="47.31639" lon="6.15517">
        <ele>503</ele>
        <time>2024-07-31T10:59:34Z</time>
      </trkpt>
      <trkpt lat="47.31639" lon="6.15513">
        <ele>503.8</ele>
        <time>2024-07-31T10:59:35Z</time>
      </trkpt>
      <trkpt lat="47.31639" lon="6.1551">
        <ele>503.8</ele>
        <time>2024-07-31T10:59:36Z</time>
      </trkpt>
      <trkpt lat="47.31639" lon="6.15508">
        <ele>503.6</ele>
        <time>2024-07-31T10:59:37Z</time>
      </trkpt>
      <trkpt lat="47.31639" lon="6.15506">
        <ele>503.8</ele>
        <time>2024-07-31T10:59:38Z</time>
      </trkpt>
      <trkpt lat="47.31639" lon="6.15503">
        <ele>503.8</ele>
        <time>2024-07-31T10:59:39Z</time>
      </trkpt>
      <trkpt lat="47.31639" lon="6.155">
        <ele>503.6</ele>
        <time>2024-07-31T10:59:40Z</time>
      </trkpt>
      <trkpt lat="47.31637" lon="6.15495">
        <ele>503.6</ele>
        <time>2024-07-31T10:59:41Z</time>
      </trkpt>
      <trkpt lat="47.31637" lon="6.15491">
        <ele>503.8</ele>
        <time>2024-07-31T10:59:42Z</time>
      </trkpt>
      <trkpt lat="47.31636" lon="6.15487">
        <ele>503.8</ele>
        <time>2024-07-31T10:59:43Z</time>
      </trkpt>
      <trkpt lat="47.31636" lon="6.15483">
        <ele>503.8</ele>
        <time>2024-07-31T10:59:44Z</time>
      </trkpt>
      <trkpt lat="47.31636" lon="6.1548">
        <ele>503.6</ele>
        <time>2024-07-31T10:59:45Z</time>
      </trkpt>
      <trkpt lat="47.31636" lon="6.15477">
        <ele>503.8</ele>
        <time>2024-07-31T10:59:46Z</time>
      </trkpt>
      <trkpt lat="47.31636" lon="6.15474">
        <ele>503.8</ele>
        <time>2024-07-31T10:59:47Z</time>
      </trkpt>
      <trkpt lat="47.31636" lon="6.1547">
        <ele>503.6</ele>
        <time>2024-07-31T10:59:48Z</time>
      </trkpt>
      <trkpt lat="47.31636" lon="6.15466">
        <ele>503.2</ele>
        <time>2024-07-31T10:59:49Z</time>
      </trkpt>
      <trkpt lat="47.31636" lon="6.15462">
        <ele>503.2</ele>
        <time>2024-07-31T10:59:50Z</time>
      </trkpt>
      <trkpt lat="47.31636" lon="6.15458">
        <ele>503.2</ele>
        <time>2024-07-31T10:59:51Z</time>
      </trkpt>
      <trkpt lat="47.31636" lon="6.15452">
        <ele>503</ele>
        <time>2024-07-31T10:59:52Z</time>
      </trkpt>
      <trkpt lat="47.31635" lon="6.15446">
        <ele>503</ele>
        <time>2024-07-31T10:59:53Z</time>
      </trkpt>
      <trkpt lat="47.31636" lon="6.1544">
        <ele>502.8</ele>
        <time>2024-07-31T10:59:54Z</time>
      </trkpt>
      <trkpt lat="47.31636" lon="6.15433">
        <ele>501.2</ele>
        <time>2024-07-31T10:59:55Z</time>
      </trkpt>
      <trkpt lat="47.31636" lon="6.15426">
        <ele>500.8</ele>
        <time>2024-07-31T10:59:56Z</time>
      </trkpt>
      <trkpt lat="47.31636" lon="6.15418">
        <ele>500.6</ele>
        <time>2024-07-31T10:59:57Z</time>
      </trkpt>
      <trkpt lat="47.31636" lon="6.15411">
        <ele>499.8</ele>
        <time>2024-07-31T10:59:58Z</time>
      </trkpt>
      <trkpt lat="47.31636" lon="6.15403">
        <ele>499</ele>
        <time>2024-07-31T10:59:59Z</time>
      </trkpt>
      <trkpt lat="47.31636" lon="6.15395">
        <ele>498.4</ele>
        <time>2024-07-31T11:00:00Z</time>
      </trkpt>
      <trkpt lat="47.31636" lon="6.15386">
        <ele>497.6</ele>
        <time>2024-07-31T11:00:01Z</time>
      </trkpt>
      <trkpt lat="47.31636" lon="6.15376">
        <ele>496.8</ele>
        <time>2024-07-31T11:00:02Z</time>
      </trkpt>
      <trkpt lat="47.31637" lon="6.15367">
        <ele>496.8</ele>
        <time>2024-07-31T11:00:03Z</time>
      </trkpt>
      <trkpt lat="47.31637" lon="6.15358">
        <ele>495.6</ele>
        <time>2024-07-31T11:00:04Z</time>
      </trkpt>
      <trkpt lat="47.31637" lon="6.15349">
        <ele>495.4</ele>
        <time>2024-07-31T11:00:05Z</time>
      </trkpt>
      <trkpt lat="47.31638" lon="6.15341">
        <ele>494.4</ele>
        <time>2024-07-31T11:00:06Z</time>
      </trkpt>
      <trkpt lat="47.31638" lon="6.15335">
        <ele>494.2</ele>
        <time>2024-07-31T11:00:07Z</time>
      </trkpt>
      <trkpt lat="47.31638" lon="6.15329">
        <ele>493.4</ele>
        <time>2024-07-31T11:00:08Z</time>
      </trkpt>
      <trkpt lat="47.31638" lon="6.15325">
        <ele>493.2</ele>
        <time>2024-07-31T11:00:09Z</time>
      </trkpt>
      <trkpt lat="47.31637" lon="6.15321">
        <ele>493</ele>
        <time>2024-07-31T11:00:10Z</time>
      </trkpt>
      <trkpt lat="47.31636" lon="6.15317">
        <ele>492.8</ele>
        <time>2024-07-31T11:00:11Z</time>
      </trkpt>
      <trkpt lat="47.31635" lon="6.15314">
        <ele>492.8</ele>
        <time>2024-07-31T11:00:12Z</time>
      </trkpt>
      <trkpt lat="47.31635" lon="6.15312">
        <ele>492.8</ele>
        <time>2024-07-31T11:00:13Z</time>
      </trkpt>
      <trkpt lat="47.31635" lon="6.15309">
        <ele>492.8</ele>
        <time>2024-07-31T11:00:14Z</time>
      </trkpt>
      <trkpt lat="47.31634" lon="6.15306">
        <ele>492.4</ele>
        <time>2024-07-31T11:00:15Z</time>
      </trkpt>
      <trkpt lat="47.31633" lon="6.15303">
        <ele>492.2</ele>
        <time>2024-07-31T11:00:16Z</time>
      </trkpt>
      <trkpt lat="47.31633" lon="6.153">
        <ele>492.2</ele>
        <time>2024-07-31T11:00:17Z</time>
      </trkpt>
      <trkpt lat="47.31634" lon="6.15297">
        <ele>492.4</ele>
        <time>2024-07-31T11:00:18Z</time>
      </trkpt>
      <trkpt lat="47.31635" lon="6.15295">
        <ele>492.4</ele>
        <time>2024-07-31T11:00:19Z</time>
      </trkpt>
      <trkpt lat="47.31636" lon="6.15293">
        <ele>492.6</ele>
        <time>2024-07-31T11:00:20Z</time>
      </trkpt>
      <trkpt lat="47.31637" lon="6.15291">
        <ele>492.8</ele>
        <time>2024-07-31T11:00:21Z</time>
      </trkpt>
      <trkpt lat="47.31638" lon="6.15289">
        <ele>493</ele>
        <time>2024-07-31T11:00:22Z</time>
      </trkpt>
      <trkpt lat="47.31639" lon="6.15287">
        <ele>493</ele>
        <time>2024-07-31T11:00:23Z</time>
      </trkpt>
      <trkpt lat="47.3164" lon="6.15284">
        <ele>493.2</ele>
        <time>2024-07-31T11:00:24Z</time>
      </trkpt>
      <trkpt lat="47.31641" lon="6.15281">
        <ele>493.2</ele>
        <time>2024-07-31T11:00:25Z</time>
      </trkpt>
      <trkpt lat="47.31643" lon="6.15279">
        <ele>493.4</ele>
        <time>2024-07-31T11:00:26Z</time>
      </trkpt>
      <trkpt lat="47.31645" lon="6.15277">
        <ele>493.2</ele>
        <time>2024-07-31T11:00:27Z</time>
      </trkpt>
      <trkpt lat="47.31647" lon="6.15274">
        <ele>493.4</ele>
        <time>2024-07-31T11:00:28Z</time>
      </trkpt>
      <trkpt lat="47.31648" lon="6.1527">
        <ele>493.6</ele>
        <time>2024-07-31T11:00:29Z</time>
      </trkpt>
      <trkpt lat="47.3165" lon="6.15266">
        <ele>493.8</ele>
        <time>2024-07-31T11:00:30Z</time>
      </trkpt>
      <trkpt lat="47.31651" lon="6.15263">
        <ele>493.8</ele>
        <time>2024-07-31T11:00:31Z</time>
      </trkpt>
      <trkpt lat="47.31653" lon="6.1526">
        <ele>494</ele>
        <time>2024-07-31T11:00:32Z</time>
      </trkpt>
      <trkpt lat="47.31654" lon="6.15256">
        <ele>494</ele>
        <time>2024-07-31T11:00:33Z</time>
      </trkpt>
      <trkpt lat="47.31655" lon="6.15253">
        <ele>494.2</ele>
        <time>2024-07-31T11:00:34Z</time>
      </trkpt>
      <trkpt lat="47.31656" lon="6.15249">
        <ele>494.2</ele>
        <time>2024-07-31T11:00:35Z</time>
      </trkpt>
      <trkpt lat="47.31657" lon="6.15246">
        <ele>494.4</ele>
        <time>2024-07-31T11:00:36Z</time>
      </trkpt>
      <trkpt lat="47.31658" lon="6.15242">
        <ele>494.8</ele>
        <time>2024-07-31T11:00:37Z</time>
      </trkpt>
      <trkpt lat="47.31659" lon="6.15239">
        <ele>495</ele>
        <time>2024-07-31T11:00:38Z</time>
      </trkpt>
      <trkpt lat="47.3166" lon="6.15235">
        <ele>495</ele>
        <time>2024-07-31T11:00:39Z</time>
      </trkpt>
      <trkpt lat="47.31661" lon="6.15232">
        <ele>495.4</ele>
        <time>2024-07-31T11:00:40Z</time>
      </trkpt>
      <trkpt lat="47.31662" lon="6.15229">
        <ele>495.6</ele>
        <time>2024-07-31T11:00:41Z</time>
      </trkpt>
      <trkpt lat="47.31663" lon="6.15226">
        <ele>495.6</ele>
        <time>2024-07-31T11:00:42Z</time>
      </trkpt>
      <trkpt lat="47.31664" lon="6.15222">
        <ele>495.8</ele>
        <time>2024-07-31T11:00:43Z</time>
      </trkpt>
      <trkpt lat="47.31664" lon="6.15218">
        <ele>496</ele>
        <time>2024-07-31T11:00:44Z</time>
      </trkpt>
      <trkpt lat="47.31665" lon="6.15215">
        <ele>496.6</ele>
        <time>2024-07-31T11:00:45Z</time>
      </trkpt>
      <trkpt lat="47.31666" lon="6.15211">
        <ele>496.8</ele>
        <time>2024-07-31T11:00:46Z</time>
      </trkpt>
      <trkpt lat="47.31666" lon="6.15208">
        <ele>496.8</ele>
        <time>2024-07-31T11:00:47Z</time>
      </trkpt>
      <trkpt lat="47.31666" lon="6.15204">
        <ele>496.8</ele>
        <time>2024-07-31T11:00:48Z</time>
      </trkpt>
      <trkpt lat="47.31666" lon="6.152">
        <ele>497</ele>
        <time>2024-07-31T11:00:49Z</time>
      </trkpt>
      <trkpt lat="47.31666" lon="6.15196">
        <ele>497.2</ele>
        <time>2024-07-31T11:00:50Z</time>
      </trkpt>
      <trkpt lat="47.31666" lon="6.15193">
        <ele>497.4</ele>
        <time>2024-07-31T11:00:51Z</time>
      </trkpt>
      <trkpt lat="47.31667" lon="6.15189">
        <ele>497.4</ele>
        <time>2024-07-31T11:00:52Z</time>
      </trkpt>
      <trkpt lat="47.31668" lon="6.15185">
        <ele>497.6</ele>
        <time>2024-07-31T11:00:53Z</time>
      </trkpt>
      <trkpt lat="47.31668" lon="6.15182">
        <ele>497.8</ele>
        <time>2024-07-31T11:00:54Z</time>
      </trkpt>
      <trkpt lat="47.31668" lon="6.15178">
        <ele>497.8</ele>
        <time>2024-07-31T11:00:55Z</time>
      </trkpt>
      <trkpt lat="47.31668" lon="6.15174">
        <ele>497.8</ele>
        <time>2024-07-31T11:00:56Z</time>
      </trkpt>
      <trkpt lat="47.31668" lon="6.1517">
        <ele>498</ele>
        <time>2024-07-31T11:00:57Z</time>
      </trkpt>
      <trkpt lat="47.31668" lon="6.15166">
        <ele>498.2</ele>
        <time>2024-07-31T11:00:58Z</time>
      </trkpt>
      <trkpt lat="47.31669" lon="6.15162">
        <ele>498.4</ele>
        <time>2024-07-31T11:00:59Z</time>
      </trkpt>
      <trkpt lat="47.31669" lon="6.15158">
        <ele>498.4</ele>
        <time>2024-07-31T11:01:00Z</time>
      </trkpt>
      <trkpt lat="47.31669" lon="6.15155">
        <ele>498.6</ele>
        <time>2024-07-31T11:01:01Z</time>
      </trkpt>
      <trkpt lat="47.3167" lon="6.15151">
        <ele>498.8</ele>
        <time>2024-07-31T11:01:02Z</time>
      </trkpt>
      <trkpt lat="47.3167" lon="6.15147">
        <ele>498.8</ele>
        <time>2024-07-31T11:01:03Z</time>
      </trkpt>
      <trkpt lat="47.3167" lon="6.15144">
        <ele>498.8</ele>
        <time>2024-07-31T11:01:04Z</time>
      </trkpt>
      <trkpt lat="47.31671" lon="6.1514">
        <ele>499</ele>
        <time>2024-07-31T11:01:05Z</time>
      </trkpt>
      <trkpt lat="47.31672" lon="6.15136">
        <ele>499</ele>
        <time>2024-07-31T11:01:06Z</time>
      </trkpt>
      <trkpt lat="47.31672" lon="6.15132">
        <ele>499.4</ele>
        <time>2024-07-31T11:01:07Z</time>
      </trkpt>
      <trkpt lat="47.31673" lon="6.15129">
        <ele>499.4</ele>
        <time>2024-07-31T11:01:08Z</time>
      </trkpt>
      <trkpt lat="47.31673" lon="6.15124">
        <ele>499.4</ele>
        <time>2024-07-31T11:01:09Z</time>
      </trkpt>
      <trkpt lat="47.31673" lon="6.1512">
        <ele>499.2</ele>
        <time>2024-07-31T11:01:10Z</time>
      </trkpt>
      <trkpt lat="47.31673" lon="6.15115">
        <ele>499.2</ele>
        <time>2024-07-31T11:01:11Z</time>
      </trkpt>
      <trkpt lat="47.31673" lon="6.1511">
        <ele>499.2</ele>
        <time>2024-07-31T11:01:12Z</time>
      </trkpt>
      <trkpt lat="47.31673" lon="6.15105">
        <ele>498.8</ele>
        <time>2024-07-31T11:01:13Z</time>
      </trkpt>
      <trkpt lat="47.31673" lon="6.15101">
        <ele>499</ele>
        <time>2024-07-31T11:01:14Z</time>
      </trkpt>
      <trkpt lat="47.31673" lon="6.15095">
        <ele>499</ele>
        <time>2024-07-31T11:01:15Z</time>
      </trkpt>
      <trkpt lat="47.31673" lon="6.1509">
        <ele>499.2</ele>
        <time>2024-07-31T11:01:16Z</time>
      </trkpt>
      <trkpt lat="47.31673" lon="6.15084">
        <ele>499</ele>
        <time>2024-07-31T11:01:17Z</time>
      </trkpt>
      <trkpt lat="47.31672" lon="6.15079">
        <ele>499</ele>
        <time>2024-07-31T11:01:18Z</time>
      </trkpt>
      <trkpt lat="47.31672" lon="6.15074">
        <ele>499</ele>
        <time>2024-07-31T11:01:19Z</time>
      </trkpt>
      <trkpt lat="47.31673" lon="6.15068">
        <ele>498.8</ele>
        <time>2024-07-31T11:01:20Z</time>
      </trkpt>
      <trkpt lat="47.31672" lon="6.15063">
        <ele>498.6</ele>
        <time>2024-07-31T11:01:21Z</time>
      </trkpt>
      <trkpt lat="47.31672" lon="6.15057">
        <ele>498.6</ele>
        <time>2024-07-31T11:01:22Z</time>
      </trkpt>
      <trkpt lat="47.31671" lon="6.15051">
        <ele>498.4</ele>
        <time>2024-07-31T11:01:23Z</time>
      </trkpt>
      <trkpt lat="47.3167" lon="6.15046">
        <ele>498.6</ele>
        <time>2024-07-31T11:01:24Z</time>
      </trkpt>
      <trkpt lat="47.31669" lon="6.1504">
        <ele>498.6</ele>
        <time>2024-07-31T11:01:25Z</time>
      </trkpt>
      <trkpt lat="47.31669" lon="6.15035">
        <ele>498.2</ele>
        <time>2024-07-31T11:01:26Z</time>
      </trkpt>
      <trkpt lat="47.31668" lon="6.1503">
        <ele>498.6</ele>
        <time>2024-07-31T11:01:27Z</time>
      </trkpt>
      <trkpt lat="47.31668" lon="6.15025">
        <ele>498.4</ele>
        <time>2024-07-31T11:01:28Z</time>
      </trkpt>
      <trkpt lat="47.31669" lon="6.15019">
        <ele>498.2</ele>
        <time>2024-07-31T11:01:29Z</time>
      </trkpt>
      <trkpt lat="47.31669" lon="6.15013">
        <ele>498.2</ele>
        <time>2024-07-31T11:01:30Z</time>
      </trkpt>
      <trkpt lat="47.31669" lon="6.15008">
        <ele>498.2</ele>
        <time>2024-07-31T11:01:31Z</time>
      </trkpt>
      <trkpt lat="47.31669" lon="6.15003">
        <ele>497.8</ele>
        <time>2024-07-31T11:01:32Z</time>
      </trkpt>
      <trkpt lat="47.31669" lon="6.14998">
        <ele>498</ele>
        <time>2024-07-31T11:01:33Z</time>
      </trkpt>
      <trkpt lat="47.31669" lon="6.14992">
        <ele>497.8</ele>
        <time>2024-07-31T11:01:34Z</time>
      </trkpt>
      <trkpt lat="47.3167" lon="6.14986">
        <ele>497.6</ele>
        <time>2024-07-31T11:01:35Z</time>
      </trkpt>
      <trkpt lat="47.3167" lon="6.14981">
        <ele>497.4</ele>
        <time>2024-07-31T11:01:36Z</time>
      </trkpt>
      <trkpt lat="47.3167" lon="6.14975">
        <ele>497.2</ele>
        <time>2024-07-31T11:01:37Z</time>
      </trkpt>
      <trkpt lat="47.3167" lon="6.14969">
        <ele>497.4</ele>
        <time>2024-07-31T11:01:38Z</time>
      </trkpt>
      <trkpt lat="47.31669" lon="6.14963">
        <ele>497.2</ele>
        <time>2024-07-31T11:01:39Z</time>
      </trkpt>
      <trkpt lat="47.31669" lon="6.14956">
        <ele>497.2</ele>
        <time>2024-07-31T11:01:40Z</time>
      </trkpt>
      <trkpt lat="47.31669" lon="6.14949">
        <ele>496.6</ele>
        <time>2024-07-31T11:01:41Z</time>
      </trkpt>
      <trkpt lat="47.31669" lon="6.14942">
        <ele>496.8</ele>
        <time>2024-07-31T11:01:42Z</time>
      </trkpt>
      <trkpt lat="47.31668" lon="6.14935">
        <ele>496.8</ele>
        <time>2024-07-31T11:01:43Z</time>
      </trkpt>
      <trkpt lat="47.31668" lon="6.14929">
        <ele>496.2</ele>
        <time>2024-07-31T11:01:44Z</time>
      </trkpt>
      <trkpt lat="47.31669" lon="6.14922">
        <ele>495.4</ele>
        <time>2024-07-31T11:01:45Z</time>
      </trkpt>
      <trkpt lat="47.31669" lon="6.14915">
        <ele>495.2</ele>
        <time>2024-07-31T11:01:46Z</time>
      </trkpt>
      <trkpt lat="47.3167" lon="6.14908">
        <ele>495.4</ele>
        <time>2024-07-31T11:01:47Z</time>
      </trkpt>
      <trkpt lat="47.31671" lon="6.14901">
        <ele>495.2</ele>
        <time>2024-07-31T11:01:48Z</time>
      </trkpt>
      <trkpt lat="47.31671" lon="6.14893">
        <ele>494.6</ele>
        <time>2024-07-31T11:01:49Z</time>
      </trkpt>
      <trkpt lat="47.31671" lon="6.14888">
        <ele>494</ele>
        <time>2024-07-31T11:01:50Z</time>
      </trkpt>
      <trkpt lat="47.31671" lon="6.14883">
        <ele>494</ele>
        <time>2024-07-31T11:01:51Z</time>
      </trkpt>
      <trkpt lat="47.31671" lon="6.14879">
        <ele>493.6</ele>
        <time>2024-07-31T11:01:52Z</time>
      </trkpt>
      <trkpt lat="47.31671" lon="6.14875">
        <ele>493.6</ele>
        <time>2024-07-31T11:01:53Z</time>
      </trkpt>
      <trkpt lat="47.31671" lon="6.1487">
        <ele>493.2</ele>
        <time>2024-07-31T11:01:54Z</time>
      </trkpt>
      <trkpt lat="47.3167" lon="6.14863">
        <ele>492.8</ele>
        <time>2024-07-31T11:01:55Z</time>
      </trkpt>
      <trkpt lat="47.31667" lon="6.14853">
        <ele>492.8</ele>
        <time>2024-07-31T11:01:56Z</time>
      </trkpt>
      <trkpt lat="47.31665" lon="6.14845">
        <ele>492</ele>
        <time>2024-07-31T11:01:57Z</time>
      </trkpt>
      <trkpt lat="47.31665" lon="6.14837">
        <ele>491.6</ele>
        <time>2024-07-31T11:01:58Z</time>
      </trkpt>
      <trkpt lat="47.31665" lon="6.14828">
        <ele>491.8</ele>
        <time>2024-07-31T11:01:59Z</time>
      </trkpt>
      <trkpt lat="47.31664" lon="6.14819">
        <ele>490.8</ele>
        <time>2024-07-31T11:02:00Z</time>
      </trkpt>
      <trkpt lat="47.31664" lon="6.14809">
        <ele>491</ele>
        <time>2024-07-31T11:02:01Z</time>
      </trkpt>
      <trkpt lat="47.31663" lon="6.148">
        <ele>490</ele>
        <time>2024-07-31T11:02:02Z</time>
      </trkpt>
      <trkpt lat="47.31663" lon="6.14791">
        <ele>489.6</ele>
        <time>2024-07-31T11:02:03Z</time>
      </trkpt>
      <trkpt lat="47.31663" lon="6.14781">
        <ele>488.8</ele>
        <time>2024-07-31T11:02:04Z</time>
      </trkpt>
      <trkpt lat="47.31662" lon="6.1477">
        <ele>487.8</ele>
        <time>2024-07-31T11:02:05Z</time>
      </trkpt>
      <trkpt lat="47.3166" lon="6.14759">
        <ele>488.2</ele>
        <time>2024-07-31T11:02:06Z</time>
      </trkpt>
      <trkpt lat="47.31658" lon="6.14748">
        <ele>487.2</ele>
        <time>2024-07-31T11:02:07Z</time>
      </trkpt>
      <trkpt lat="47.31656" lon="6.14736">
        <ele>487.6</ele>
        <time>2024-07-31T11:02:08Z</time>
      </trkpt>
      <trkpt lat="47.31654" lon="6.14724">
        <ele>487</ele>
        <time>2024-07-31T11:02:09Z</time>
      </trkpt>
      <trkpt lat="47.31651" lon="6.14713">
        <ele>486</ele>
        <time>2024-07-31T11:02:10Z</time>
      </trkpt>
      <trkpt lat="47.31648" lon="6.14702">
        <ele>485.4</ele>
        <time>2024-07-31T11:02:11Z</time>
      </trkpt>
      <trkpt lat="47.31645" lon="6.1469">
        <ele>485</ele>
        <time>2024-07-31T11:02:12Z</time>
      </trkpt>
      <trkpt lat="47.31642" lon="6.14679">
        <ele>484.6</ele>
        <time>2024-07-31T11:02:13Z</time>
      </trkpt>
      <trkpt lat="47.31638" lon="6.14668">
        <ele>484</ele>
        <time>2024-07-31T11:02:14Z</time>
      </trkpt>
      <trkpt lat="47.31635" lon="6.14657">
        <ele>484</ele>
        <time>2024-07-31T11:02:15Z</time>
      </trkpt>
      <trkpt lat="47.31633" lon="6.14646">
        <ele>483.6</ele>
        <time>2024-07-31T11:02:16Z</time>
      </trkpt>
      <trkpt lat="47.3163" lon="6.14635">
        <ele>483</ele>
        <time>2024-07-31T11:02:17Z</time>
      </trkpt>
      <trkpt lat="47.31629" lon="6.14624">
        <ele>482</ele>
        <time>2024-07-31T11:02:18Z</time>
      </trkpt>
      <trkpt lat="47.31626" lon="6.14612">
        <ele>481.4</ele>
        <time>2024-07-31T11:02:19Z</time>
      </trkpt>
      <trkpt lat="47.31625" lon="6.146">
        <ele>481.2</ele>
        <time>2024-07-31T11:02:20Z</time>
      </trkpt>
      <trkpt lat="47.31624" lon="6.14588">
        <ele>480.6</ele>
        <time>2024-07-31T11:02:21Z</time>
      </trkpt>
      <trkpt lat="47.31624" lon="6.14576">
        <ele>480.4</ele>
        <time>2024-07-31T11:02:22Z</time>
      </trkpt>
      <trkpt lat="47.31624" lon="6.14564">
        <ele>480</ele>
        <time>2024-07-31T11:02:23Z</time>
      </trkpt>
      <trkpt lat="47.31624" lon="6.14551">
        <ele>478.8</ele>
        <time>2024-07-31T11:02:24Z</time>
      </trkpt>
      <trkpt lat="47.31624" lon="6.14538">
        <ele>478.8</ele>
        <time>2024-07-31T11:02:25Z</time>
      </trkpt>
      <trkpt lat="47.31624" lon="6.14525">
        <ele>478.6</ele>
        <time>2024-07-31T11:02:26Z</time>
      </trkpt>
      <trkpt lat="47.31624" lon="6.14513">
        <ele>478.4</ele>
        <time>2024-07-31T11:02:27Z</time>
      </trkpt>
      <trkpt lat="47.31622" lon="6.14501">
        <ele>477.6</ele>
        <time>2024-07-31T11:02:28Z</time>
      </trkpt>
      <trkpt lat="47.31621" lon="6.14489">
        <ele>477.6</ele>
        <time>2024-07-31T11:02:29Z</time>
      </trkpt>
      <trkpt lat="47.31618" lon="6.14479">
        <ele>476.4</ele>
        <time>2024-07-31T11:02:30Z</time>
      </trkpt>
      <trkpt lat="47.31615" lon="6.14469">
        <ele>476.6</ele>
        <time>2024-07-31T11:02:31Z</time>
      </trkpt>
      <trkpt lat="47.31611" lon="6.14459">
        <ele>476</ele>
        <time>2024-07-31T11:02:32Z</time>
      </trkpt>
      <trkpt lat="47.31608" lon="6.14449">
        <ele>475.4</ele>
        <time>2024-07-31T11:02:33Z</time>
      </trkpt>
      <trkpt lat="47.31603" lon="6.14439">
        <ele>475.4</ele>
        <time>2024-07-31T11:02:34Z</time>
      </trkpt>
      <trkpt lat="47.31599" lon="6.14429">
        <ele>475.6</ele>
        <time>2024-07-31T11:02:35Z</time>
      </trkpt>
      <trkpt lat="47.31594" lon="6.14419">
        <ele>475</ele>
        <time>2024-07-31T11:02:36Z</time>
      </trkpt>
      <trkpt lat="47.3159" lon="6.1441">
        <ele>475</ele>
        <time>2024-07-31T11:02:37Z</time>
      </trkpt>
      <trkpt lat="47.31585" lon="6.14401">
        <ele>474.2</ele>
        <time>2024-07-31T11:02:38Z</time>
      </trkpt>
      <trkpt lat="47.31581" lon="6.14392">
        <ele>473.8</ele>
        <time>2024-07-31T11:02:39Z</time>
      </trkpt>
      <trkpt lat="47.31578" lon="6.14382">
        <ele>473.8</ele>
        <time>2024-07-31T11:02:40Z</time>
      </trkpt>
      <trkpt lat="47.31576" lon="6.14372">
        <ele>473.4</ele>
        <time>2024-07-31T11:02:41Z</time>
      </trkpt>
      <trkpt lat="47.31575" lon="6.14361">
        <ele>472.6</ele>
        <time>2024-07-31T11:02:42Z</time>
      </trkpt>
      <trkpt lat="47.31573" lon="6.1435">
        <ele>472.6</ele>
        <time>2024-07-31T11:02:43Z</time>
      </trkpt>
      <trkpt lat="47.31572" lon="6.14339">
        <ele>471.8</ele>
        <time>2024-07-31T11:02:44Z</time>
      </trkpt>
      <trkpt lat="47.3157" lon="6.14329">
        <ele>470.4</ele>
        <time>2024-07-31T11:02:45Z</time>
      </trkpt>
      <trkpt lat="47.3157" lon="6.14318">
        <ele>470</ele>
        <time>2024-07-31T11:02:46Z</time>
      </trkpt>
      <trkpt lat="47.3157" lon="6.14306">
        <ele>469.6</ele>
        <time>2024-07-31T11:02:47Z</time>
      </trkpt>
      <trkpt lat="47.31571" lon="6.14294">
        <ele>469.4</ele>
        <time>2024-07-31T11:02:48Z</time>
      </trkpt>
      <trkpt lat="47.31572" lon="6.14282">
        <ele>467.6</ele>
        <time>2024-07-31T11:02:49Z</time>
      </trkpt>
      <trkpt lat="47.31573" lon="6.14269">
        <ele>466.2</ele>
        <time>2024-07-31T11:02:50Z</time>
      </trkpt>
      <trkpt lat="47.31572" lon="6.14257">
        <ele>466.2</ele>
        <time>2024-07-31T11:02:51Z</time>
      </trkpt>
      <trkpt lat="47.31571" lon="6.14244">
        <ele>464.6</ele>
        <time>2024-07-31T11:02:52Z</time>
      </trkpt>
      <trkpt lat="47.31567" lon="6.14231">
        <ele>464.4</ele>
        <time>2024-07-31T11:02:53Z</time>
      </trkpt>
      <trkpt lat="47.31564" lon="6.14218">
        <ele>463.6</ele>
        <time>2024-07-31T11:02:54Z</time>
      </trkpt>
      <trkpt lat="47.3156" lon="6.14206">
        <ele>463</ele>
        <time>2024-07-31T11:02:55Z</time>
      </trkpt>
      <trkpt lat="47.31556" lon="6.14194">
        <ele>463</ele>
        <time>2024-07-31T11:02:56Z</time>
      </trkpt>
      <trkpt lat="47.31553" lon="6.14183">
        <ele>462.6</ele>
        <time>2024-07-31T11:02:57Z</time>
      </trkpt>
      <trkpt lat="47.31548" lon="6.14171">
        <ele>461.8</ele>
        <time>2024-07-31T11:02:58Z</time>
      </trkpt>
      <trkpt lat="47.31545" lon="6.1416">
        <ele>461.4</ele>
        <time>2024-07-31T11:02:59Z</time>
      </trkpt>
      <trkpt lat="47.31541" lon="6.1415">
        <ele>461.4</ele>
        <time>2024-07-31T11:03:00Z</time>
      </trkpt>
      <trkpt lat="47.31536" lon="6.14139">
        <ele>460.8</ele>
        <time>2024-07-31T11:03:01Z</time>
      </trkpt>
      <trkpt lat="47.31531" lon="6.14131">
        <ele>460</ele>
        <time>2024-07-31T11:03:02Z</time>
      </trkpt>
      <trkpt lat="47.31526" lon="6.14122">
        <ele>460</ele>
        <time>2024-07-31T11:03:03Z</time>
      </trkpt>
      <trkpt lat="47.3152" lon="6.14112">
        <ele>460</ele>
        <time>2024-07-31T11:03:04Z</time>
      </trkpt>
      <trkpt lat="47.31515" lon="6.14104">
        <ele>459.6</ele>
        <time>2024-07-31T11:03:05Z</time>
      </trkpt>
      <trkpt lat="47.3151" lon="6.14096">
        <ele>459.2</ele>
        <time>2024-07-31T11:03:06Z</time>
      </trkpt>
      <trkpt lat="47.31505" lon="6.14088">
        <ele>458.6</ele>
        <time>2024-07-31T11:03:07Z</time>
      </trkpt>
      <trkpt lat="47.315" lon="6.1408">
        <ele>458.4</ele>
        <time>2024-07-31T11:03:08Z</time>
      </trkpt>
      <trkpt lat="47.31496" lon="6.14073">
        <ele>458.4</ele>
        <time>2024-07-31T11:03:09Z</time>
      </trkpt>
      <trkpt lat="47.31491" lon="6.14066">
        <ele>457.4</ele>
        <time>2024-07-31T11:03:10Z</time>
      </trkpt>
      <trkpt lat="47.31487" lon="6.14058">
        <ele>457.4</ele>
        <time>2024-07-31T11:03:11Z</time>
      </trkpt>
      <trkpt lat="47.31483" lon="6.14049">
        <ele>456.8</ele>
        <time>2024-07-31T11:03:12Z</time>
      </trkpt>
      <trkpt lat="47.3148" lon="6.1404">
        <ele>456</ele>
        <time>2024-07-31T11:03:13Z</time>
      </trkpt>
      <trkpt lat="47.31475" lon="6.1403">
        <ele>454.8</ele>
        <time>2024-07-31T11:03:14Z</time>
      </trkpt>
      <trkpt lat="47.31472" lon="6.14021">
        <ele>455</ele>
        <time>2024-07-31T11:03:15Z</time>
      </trkpt>
      <trkpt lat="47.31468" lon="6.14012">
        <ele>454.2</ele>
        <time>2024-07-31T11:03:16Z</time>
      </trkpt>
      <trkpt lat="47.31462" lon="6.14002">
        <ele>453.4</ele>
        <time>2024-07-31T11:03:17Z</time>
      </trkpt>
      <trkpt lat="47.31456" lon="6.13992">
        <ele>453</ele>
        <time>2024-07-31T11:03:18Z</time>
      </trkpt>
      <trkpt lat="47.31449" lon="6.13983">
        <ele>452.8</ele>
        <time>2024-07-31T11:03:19Z</time>
      </trkpt>
      <trkpt lat="47.31442" lon="6.13975">
        <ele>452</ele>
        <time>2024-07-31T11:03:20Z</time>
      </trkpt>
      <trkpt lat="47.31435" lon="6.13969">
        <ele>451.6</ele>
        <time>2024-07-31T11:03:21Z</time>
      </trkpt>
      <trkpt lat="47.31428" lon="6.13964">
        <ele>451.6</ele>
        <time>2024-07-31T11:03:22Z</time>
      </trkpt>
      <trkpt lat="47.3142" lon="6.13959">
        <ele>451.6</ele>
        <time>2024-07-31T11:03:23Z</time>
      </trkpt>
      <trkpt lat="47.31411" lon="6.13955">
        <ele>450.6</ele>
        <time>2024-07-31T11:03:24Z</time>
      </trkpt>
      <trkpt lat="47.31403" lon="6.13952">
        <ele>450.4</ele>
        <time>2024-07-31T11:03:25Z</time>
      </trkpt>
      <trkpt lat="47.31395" lon="6.13951">
        <ele>449.8</ele>
        <time>2024-07-31T11:03:26Z</time>
      </trkpt>
      <trkpt lat="47.31386" lon="6.13948">
        <ele>447.8</ele>
        <time>2024-07-31T11:03:27Z</time>
      </trkpt>
      <trkpt lat="47.31377" lon="6.13946">
        <ele>447.4</ele>
        <time>2024-07-31T11:03:28Z</time>
      </trkpt>
      <trkpt lat="47.31369" lon="6.13945">
        <ele>447.4</ele>
        <time>2024-07-31T11:03:29Z</time>
      </trkpt>
      <trkpt lat="47.31362" lon="6.13943">
        <ele>446.6</ele>
        <time>2024-07-31T11:03:30Z</time>
      </trkpt>
      <trkpt lat="47.31355" lon="6.1394">
        <ele>445.6</ele>
        <time>2024-07-31T11:03:31Z</time>
      </trkpt>
      <trkpt lat="47.31348" lon="6.13938">
        <ele>445</ele>
        <time>2024-07-31T11:03:32Z</time>
      </trkpt>
      <trkpt lat="47.31343" lon="6.13935">
        <ele>444.4</ele>
        <time>2024-07-31T11:03:33Z</time>
      </trkpt>
      <trkpt lat="47.31338" lon="6.13932">
        <ele>443.8</ele>
        <time>2024-07-31T11:03:34Z</time>
      </trkpt>
      <trkpt lat="47.31334" lon="6.13928">
        <ele>443</ele>
        <time>2024-07-31T11:03:35Z</time>
      </trkpt>
      <trkpt lat="47.3133" lon="6.13924">
        <ele>442.4</ele>
        <time>2024-07-31T11:03:36Z</time>
      </trkpt>
      <trkpt lat="47.31326" lon="6.1392">
        <ele>441.8</ele>
        <time>2024-07-31T11:03:37Z</time>
      </trkpt>
      <trkpt lat="47.31323" lon="6.13916">
        <ele>441</ele>
        <time>2024-07-31T11:03:38Z</time>
      </trkpt>
      <trkpt lat="47.31319" lon="6.13913">
        <ele>440.8</ele>
        <time>2024-07-31T11:03:39Z</time>
      </trkpt>
      <trkpt lat="47.31317" lon="6.13911">
        <ele>440.4</ele>
        <time>2024-07-31T11:03:40Z</time>
      </trkpt>
      <trkpt lat="47.31315" lon="6.13909">
        <ele>440.4</ele>
        <time>2024-07-31T11:03:41Z</time>
      </trkpt>
      <trkpt lat="47.31312" lon="6.13907">
        <ele>440.4</ele>
        <time>2024-07-31T11:03:42Z</time>
      </trkpt>
      <trkpt lat="47.31308" lon="6.13906">
        <ele>440.2</ele>
        <time>2024-07-31T11:03:43Z</time>
      </trkpt>
      <trkpt lat="47.31304" lon="6.13904">
        <ele>440.2</ele>
        <time>2024-07-31T11:03:44Z</time>
      </trkpt>
      <trkpt lat="47.31301" lon="6.13902">
        <ele>440</ele>
        <time>2024-07-31T11:03:45Z</time>
      </trkpt>
      <trkpt lat="47.31297" lon="6.13898">
        <ele>439.6</ele>
        <time>2024-07-31T11:03:46Z</time>
      </trkpt>
      <trkpt lat="47.31293" lon="6.13892">
        <ele>439.2</ele>
        <time>2024-07-31T11:03:47Z</time>
      </trkpt>
      <trkpt lat="47.31291" lon="6.13886">
        <ele>438.8</ele>
        <time>2024-07-31T11:03:48Z</time>
      </trkpt>
      <trkpt lat="47.3129" lon="6.13878">
        <ele>438.4</ele>
        <time>2024-07-31T11:03:49Z</time>
      </trkpt>
      <trkpt lat="47.31289" lon="6.13871">
        <ele>438.2</ele>
        <time>2024-07-31T11:03:50Z</time>
      </trkpt>
      <trkpt lat="47.3129" lon="6.13864">
        <ele>438.2</ele>
        <time>2024-07-31T11:03:51Z</time>
      </trkpt>
      <trkpt lat="47.31291" lon="6.13856">
        <ele>438.2</ele>
        <time>2024-07-31T11:03:52Z</time>
      </trkpt>
      <trkpt lat="47.31292" lon="6.13849">
        <ele>438</ele>
        <time>2024-07-31T11:03:53Z</time>
      </trkpt>
      <trkpt lat="47.31294" lon="6.13843">
        <ele>438</ele>
        <time>2024-07-31T11:03:54Z</time>
      </trkpt>
      <trkpt lat="47.31296" lon="6.13837">
        <ele>438.2</ele>
        <time>2024-07-31T11:03:55Z</time>
      </trkpt>
      <trkpt lat="47.31298" lon="6.1383">
        <ele>438.2</ele>
        <time>2024-07-31T11:03:56Z</time>
      </trkpt>
      <trkpt lat="47.31299" lon="6.13824">
        <ele>438.2</ele>
        <time>2024-07-31T11:03:57Z</time>
      </trkpt>
      <trkpt lat="47.31302" lon="6.13818">
        <ele>438.4</ele>
        <time>2024-07-31T11:03:58Z</time>
      </trkpt>
      <trkpt lat="47.31304" lon="6.13811">
        <ele>439</ele>
        <time>2024-07-31T11:03:59Z</time>
      </trkpt>
      <trkpt lat="47.31306" lon="6.13804">
        <ele>438.4</ele>
        <time>2024-07-31T11:04:00Z</time>
      </trkpt>
      <trkpt lat="47.31308" lon="6.13798">
        <ele>438.4</ele>
        <time>2024-07-31T11:04:01Z</time>
      </trkpt>
      <trkpt lat="47.31309" lon="6.13792">
        <ele>438.6</ele>
        <time>2024-07-31T11:04:02Z</time>
      </trkpt>
      <trkpt lat="47.3131" lon="6.13786">
        <ele>439.2</ele>
        <time>2024-07-31T11:04:03Z</time>
      </trkpt>
      <trkpt lat="47.31312" lon="6.13781">
        <ele>438.6</ele>
        <time>2024-07-31T11:04:04Z</time>
      </trkpt>
      <trkpt lat="47.31312" lon="6.13777">
        <ele>439</ele>
        <time>2024-07-31T11:04:05Z</time>
      </trkpt>
      <trkpt lat="47.31313" lon="6.13773">
        <ele>439</ele>
        <time>2024-07-31T11:04:06Z</time>
      </trkpt>
      <trkpt lat="47.31314" lon="6.1377">
        <ele>439.2</ele>
        <time>2024-07-31T11:04:07Z</time>
      </trkpt>
      <trkpt lat="47.31314" lon="6.13766">
        <ele>439.2</ele>
        <time>2024-07-31T11:04:08Z</time>
      </trkpt>
      <trkpt lat="47.31314" lon="6.13762">
        <ele>439</ele>
        <time>2024-07-31T11:04:09Z</time>
      </trkpt>
      <trkpt lat="47.31314" lon="6.13758">
        <ele>439</ele>
        <time>2024-07-31T11:04:10Z</time>
      </trkpt>
      <trkpt lat="47.31314" lon="6.13754">
        <ele>439.8</ele>
        <time>2024-07-31T11:04:11Z</time>
      </trkpt>
      <trkpt lat="47.31315" lon="6.1375">
        <ele>439.6</ele>
        <time>2024-07-31T11:04:12Z</time>
      </trkpt>
      <trkpt lat="47.31316" lon="6.13746">
        <ele>439.8</ele>
        <time>2024-07-31T11:04:13Z</time>
      </trkpt>
      <trkpt lat="47.31318" lon="6.13744">
        <ele>440.2</ele>
        <time>2024-07-31T11:04:14Z</time>
      </trkpt>
      <trkpt lat="47.31319" lon="6.13741">
        <ele>440.6</ele>
        <time>2024-07-31T11:04:15Z</time>
      </trkpt>
      <trkpt lat="47.3132" lon="6.13739">
        <ele>441</ele>
        <time>2024-07-31T11:04:16Z</time>
      </trkpt>
      <trkpt lat="47.31322" lon="6.13735">
        <ele>441.2</ele>
        <time>2024-07-31T11:04:17Z</time>
      </trkpt>
      <trkpt lat="47.31323" lon="6.13732">
        <ele>441.2</ele>
        <time>2024-07-31T11:04:18Z</time>
      </trkpt>
      <trkpt lat="47.31324" lon="6.13729">
        <ele>441.4</ele>
        <time>2024-07-31T11:04:19Z</time>
      </trkpt>
      <trkpt lat="47.31325" lon="6.13726">
        <ele>441.6</ele>
        <time>2024-07-31T11:04:20Z</time>
      </trkpt>
      <trkpt lat="47.31327" lon="6.13724">
        <ele>441.6</ele>
        <time>2024-07-31T11:04:21Z</time>
      </trkpt>
      <trkpt lat="47.31328" lon="6.13721">
        <ele>441.8</ele>
        <time>2024-07-31T11:04:22Z</time>
      </trkpt>
      <trkpt lat="47.31329" lon="6.13718">
        <ele>441.8</ele>
        <time>2024-07-31T11:04:23Z</time>
      </trkpt>
      <trkpt lat="47.31329" lon="6.13715">
        <ele>442</ele>
        <time>2024-07-31T11:04:24Z</time>
      </trkpt>
      <trkpt lat="47.3133" lon="6.13711">
        <ele>442</ele>
        <time>2024-07-31T11:04:25Z</time>
      </trkpt>
      <trkpt lat="47.3133" lon="6.13708">
        <ele>442</ele>
        <time>2024-07-31T11:04:26Z</time>
      </trkpt>
      <trkpt lat="47.3133" lon="6.13704">
        <ele>442.2</ele>
        <time>2024-07-31T11:04:27Z</time>
      </trkpt>
      <trkpt lat="47.3133" lon="6.137">
        <ele>442.2</ele>
        <time>2024-07-31T11:04:28Z</time>
      </trkpt>
      <trkpt lat="47.3133" lon="6.13698">
        <ele>442.2</ele>
        <time>2024-07-31T11:04:29Z</time>
      </trkpt>
      <trkpt lat="47.31329" lon="6.13696">
        <ele>442.4</ele>
        <time>2024-07-31T11:04:30Z</time>
      </trkpt>
      <trkpt lat="47.31329" lon="6.13694">
        <ele>442.2</ele>
        <time>2024-07-31T11:04:31Z</time>
      </trkpt>
      <trkpt lat="47.31328" lon="6.13692">
        <ele>442.2</ele>
        <time>2024-07-31T11:04:32Z</time>
      </trkpt>
      <trkpt lat="47.31327" lon="6.13689">
        <ele>442.4</ele>
        <time>2024-07-31T11:04:33Z</time>
      </trkpt>
      <trkpt lat="47.31326" lon="6.13686">
        <ele>442.2</ele>
        <time>2024-07-31T11:04:34Z</time>
      </trkpt>
      <trkpt lat="47.31326" lon="6.13682">
        <ele>442.4</ele>
        <time>2024-07-31T11:04:35Z</time>
      </trkpt>
      <trkpt lat="47.31325" lon="6.13678">
        <ele>442.2</ele>
        <time>2024-07-31T11:04:36Z</time>
      </trkpt>
      <trkpt lat="47.31326" lon="6.13675">
        <ele>442.2</ele>
        <time>2024-07-31T11:04:37Z</time>
      </trkpt>
      <trkpt lat="47.31326" lon="6.13671">
        <ele>442</ele>
        <time>2024-07-31T11:04:38Z</time>
      </trkpt>
      <trkpt lat="47.31326" lon="6.13666">
        <ele>441.8</ele>
        <time>2024-07-31T11:04:39Z</time>
      </trkpt>
      <trkpt lat="47.31326" lon="6.13662">
        <ele>441.6</ele>
        <time>2024-07-31T11:04:40Z</time>
      </trkpt>
      <trkpt lat="47.31326" lon="6.13658">
        <ele>441.6</ele>
        <time>2024-07-31T11:04:41Z</time>
      </trkpt>
      <trkpt lat="47.31327" lon="6.13655">
        <ele>441.4</ele>
        <time>2024-07-31T11:04:42Z</time>
      </trkpt>
      <trkpt lat="47.31327" lon="6.13651">
        <ele>441</ele>
        <time>2024-07-31T11:04:43Z</time>
      </trkpt>
      <trkpt lat="47.31328" lon="6.13648">
        <ele>441.2</ele>
        <time>2024-07-31T11:04:44Z</time>
      </trkpt>
      <trkpt lat="47.31329" lon="6.13646">
        <ele>441</ele>
        <time>2024-07-31T11:04:45Z</time>
      </trkpt>
      <trkpt lat="47.31329" lon="6.13642">
        <ele>441</ele>
        <time>2024-07-31T11:04:46Z</time>
      </trkpt>
      <trkpt lat="47.31329" lon="6.13639">
        <ele>440.6</ele>
        <time>2024-07-31T11:04:47Z</time>
      </trkpt>
      <trkpt lat="47.31327" lon="6.13634">
        <ele>440.6</ele>
        <time>2024-07-31T11:04:48Z</time>
      </trkpt>
      <trkpt lat="47.31326" lon="6.13631">
        <ele>440.6</ele>
        <time>2024-07-31T11:04:49Z</time>
      </trkpt>
      <trkpt lat="47.31324" lon="6.13627">
        <ele>440.4</ele>
        <time>2024-07-31T11:04:50Z</time>
      </trkpt>
      <trkpt lat="47.31323" lon="6.13623">
        <ele>440.4</ele>
        <time>2024-07-31T11:04:51Z</time>
      </trkpt>
      <trkpt lat="47.31321" lon="6.13619">
        <ele>439.6</ele>
        <time>2024-07-31T11:04:52Z</time>
      </trkpt>
      <trkpt lat="47.31318" lon="6.13614">
        <ele>439.8</ele>
        <time>2024-07-31T11:04:53Z</time>
      </trkpt>
      <trkpt lat="47.31317" lon="6.1361">
        <ele>439.8</ele>
        <time>2024-07-31T11:04:54Z</time>
      </trkpt>
      <trkpt lat="47.31316" lon="6.13605">
        <ele>439.6</ele>
        <time>2024-07-31T11:04:55Z</time>
      </trkpt>
      <trkpt lat="47.31314" lon="6.136">
        <ele>439.2</ele>
        <time>2024-07-31T11:04:56Z</time>
      </trkpt>
      <trkpt lat="47.31312" lon="6.13595">
        <ele>439</ele>
        <time>2024-07-31T11:04:57Z</time>
      </trkpt>
      <trkpt lat="47.31311" lon="6.13591">
        <ele>439</ele>
        <time>2024-07-31T11:04:58Z</time>
      </trkpt>
      <trkpt lat="47.3131" lon="6.13587">
        <ele>438.8</ele>
        <time>2024-07-31T11:04:59Z</time>
      </trkpt>
      <trkpt lat="47.3131" lon="6.13581">
        <ele>438.6</ele>
        <time>2024-07-31T11:05:00Z</time>
      </trkpt>
      <trkpt lat="47.31311" lon="6.13576">
        <ele>437.8</ele>
        <time>2024-07-31T11:05:01Z</time>
      </trkpt>
      <trkpt lat="47.31312" lon="6.13571">
        <ele>437.4</ele>
        <time>2024-07-31T11:05:02Z</time>
      </trkpt>
      <trkpt lat="47.31314" lon="6.13566">
        <ele>437</ele>
        <time>2024-07-31T11:05:03Z</time>
      </trkpt>
      <trkpt lat="47.31315" lon="6.13561">
        <ele>436.2</ele>
        <time>2024-07-31T11:05:04Z</time>
      </trkpt>
      <trkpt lat="47.31316" lon="6.13556">
        <ele>435.8</ele>
        <time>2024-07-31T11:05:05Z</time>
      </trkpt>
      <trkpt lat="47.31315" lon="6.13549">
        <ele>435.4</ele>
        <time>2024-07-31T11:05:06Z</time>
      </trkpt>
      <trkpt lat="47.31315" lon="6.13544">
        <ele>434.8</ele>
        <time>2024-07-31T11:05:07Z</time>
      </trkpt>
      <trkpt lat="47.31315" lon="6.1354">
        <ele>434.6</ele>
        <time>2024-07-31T11:05:08Z</time>
      </trkpt>
      <trkpt lat="47.31315" lon="6.13535">
        <ele>434</ele>
        <time>2024-07-31T11:05:09Z</time>
      </trkpt>
      <trkpt lat="47.31314" lon="6.1353">
        <ele>433.4</ele>
        <time>2024-07-31T11:05:10Z</time>
      </trkpt>
      <trkpt lat="47.31314" lon="6.13525">
        <ele>433.4</ele>
        <time>2024-07-31T11:05:11Z</time>
      </trkpt>
      <trkpt lat="47.31314" lon="6.13521">
        <ele>432.6</ele>
        <time>2024-07-31T11:05:12Z</time>
      </trkpt>
      <trkpt lat="47.31312" lon="6.13516">
        <ele>432.6</ele>
        <time>2024-07-31T11:05:13Z</time>
      </trkpt>
      <trkpt lat="47.31311" lon="6.13512">
        <ele>432.8</ele>
        <time>2024-07-31T11:05:14Z</time>
      </trkpt>
      <trkpt lat="47.31311" lon="6.13508">
        <ele>432.4</ele>
        <time>2024-07-31T11:05:15Z</time>
      </trkpt>
      <trkpt lat="47.3131" lon="6.13504">
        <ele>432</ele>
        <time>2024-07-31T11:05:16Z</time>
      </trkpt>
      <trkpt lat="47.3131" lon="6.13499">
        <ele>431.4</ele>
        <time>2024-07-31T11:05:17Z</time>
      </trkpt>
      <trkpt lat="47.3131" lon="6.13496">
        <ele>431</ele>
        <time>2024-07-31T11:05:18Z</time>
      </trkpt>
      <trkpt lat="47.31311" lon="6.13494">
        <ele>430.6</ele>
        <time>2024-07-31T11:05:19Z</time>
      </trkpt>
      <trkpt lat="47.31311" lon="6.13493">
        <ele>430.6</ele>
        <time>2024-07-31T11:05:20Z</time>
      </trkpt>
      <trkpt lat="47.31311" lon="6.13492">
        <ele>429.8</ele>
        <time>2024-07-31T11:05:21Z</time>
      </trkpt>
      <trkpt lat="47.31311" lon="6.13492">
        <ele>430</ele>
        <time>2024-07-31T11:05:22Z</time>
      </trkpt>
      <trkpt lat="47.31311" lon="6.13492">
        <ele>430.2</ele>
        <time>2024-07-31T11:05:23Z</time>
      </trkpt>
      <trkpt lat="47.31312" lon="6.13492">
        <ele>430.4</ele>
        <time>2024-07-31T11:05:24Z</time>
      </trkpt>
      <trkpt lat="47.31311" lon="6.13492">
        <ele>430.4</ele>
        <time>2024-07-31T11:05:25Z</time>
      </trkpt>
      <trkpt lat="47.31311" lon="6.13492">
        <ele>430.4</ele>
        <time>2024-07-31T11:05:26Z</time>
      </trkpt>
      <trkpt lat="47.3131" lon="6.13491">
        <ele>430.4</ele>
        <time>2024-07-31T11:05:27Z</time>
      </trkpt>
      <trkpt lat="47.3131" lon="6.13491">
        <ele>430.6</ele>
        <time>2024-07-31T11:05:28Z</time>
      </trkpt>
      <trkpt lat="47.3131" lon="6.13491">
        <ele>430.4</ele>
        <time>2024-07-31T11:05:29Z</time>
      </trkpt>
      <trkpt lat="47.3131" lon="6.13491">
        <ele>430.4</ele>
        <time>2024-07-31T11:05:30Z</time>
      </trkpt>
      <trkpt lat="47.3131" lon="6.13491">
        <ele>430.4</ele>
        <time>2024-07-31T11:05:31Z</time>
      </trkpt>
      <trkpt lat="47.3131" lon="6.13491">
        <ele>430.4</ele>
        <time>2024-07-31T11:05:32Z</time>
      </trkpt>
      <trkpt lat="47.3131" lon="6.13491">
        <ele>430.4</ele>
        <time>2024-07-31T11:05:33Z</time>
      </trkpt>
      <trkpt lat="47.3131" lon="6.13491">
        <ele>430.4</ele>
        <time>2024-07-31T11:05:34Z</time>
      </trkpt>
      <trkpt lat="47.3131" lon="6.13491">
        <ele>430.4</ele>
        <time>2024-07-31T11:05:35Z</time>
      </trkpt>
      <trkpt lat="47.3131" lon="6.13491">
        <ele>430.4</ele>
        <time>2024-07-31T11:05:36Z</time>
      </trkpt>
      <trkpt lat="47.3131" lon="6.13491">
        <ele>430.4</ele>
        <time>2024-07-31T11:05:37Z</time>
      </trkpt>
      <trkpt lat="47.3131" lon="6.13491">
        <ele>430.4</ele>
        <time>2024-07-31T11:05:38Z</time>
      </trkpt>
      <trkpt lat="47.3131" lon="6.13491">
        <ele>430.4</ele>
        <time>2024-07-31T11:05:39Z</time>
      </trkpt>
      <trkpt lat="47.3131" lon="6.13491">
        <ele>430.4</ele>
        <time>2024-07-31T11:05:40Z</time>
      </trkpt>
      <trkpt lat="47.3131" lon="6.13491">
        <ele>430.4</ele>
        <time>2024-07-31T11:05:41Z</time>
      </trkpt>
      <trkpt lat="47.3131" lon="6.13491">
        <ele>430.4</ele>
        <time>2024-07-31T11:05:42Z</time>
      </trkpt>
      <trkpt lat="47.31309" lon="6.1349">
        <ele>430.6</ele>
        <time>2024-07-31T11:05:43Z</time>
      </trkpt>
      <trkpt lat="47.3131" lon="6.13491">
        <ele>430.4</ele>
        <time>2024-07-31T11:05:44Z</time>
      </trkpt>
      <trkpt lat="47.3131" lon="6.1349">
        <ele>430.6</ele>
        <time>2024-07-31T11:05:45Z</time>
      </trkpt>
      <trkpt lat="47.31309" lon="6.1349">
        <ele>430.4</ele>
        <time>2024-07-31T11:05:46Z</time>
      </trkpt>
      <trkpt lat="47.3131" lon="6.13489">
        <ele>430.4</ele>
        <time>2024-07-31T11:05:47Z</time>
      </trkpt>
      <trkpt lat="47.3131" lon="6.13487">
        <ele>430.2</ele>
        <time>2024-07-31T11:05:48Z</time>
      </trkpt>
      <trkpt lat="47.3131" lon="6.13485">
        <ele>430</ele>
        <time>2024-07-31T11:05:49Z</time>
      </trkpt>
      <trkpt lat="47.3131" lon="6.13483">
        <ele>429.8</ele>
        <time>2024-07-31T11:05:50Z</time>
      </trkpt>
      <trkpt lat="47.31309" lon="6.1348">
        <ele>429.8</ele>
        <time>2024-07-31T11:05:51Z</time>
      </trkpt>
      <trkpt lat="47.31309" lon="6.13477">
        <ele>429.4</ele>
        <time>2024-07-31T11:05:52Z</time>
      </trkpt>
      <trkpt lat="47.31308" lon="6.13474">
        <ele>429.2</ele>
        <time>2024-07-31T11:05:53Z</time>
      </trkpt>
      <trkpt lat="47.31307" lon="6.1347">
        <ele>429.2</ele>
        <time>2024-07-31T11:05:54Z</time>
      </trkpt>
      <trkpt lat="47.31306" lon="6.13467">
        <ele>429</ele>
        <time>2024-07-31T11:05:55Z</time>
      </trkpt>
      <trkpt lat="47.31306" lon="6.13464">
        <ele>428.8</ele>
        <time>2024-07-31T11:05:56Z</time>
      </trkpt>
      <trkpt lat="47.31306" lon="6.13462">
        <ele>428.6</ele>
        <time>2024-07-31T11:05:57Z</time>
      </trkpt>
      <trkpt lat="47.31306" lon="6.13459">
        <ele>428.2</ele>
        <time>2024-07-31T11:05:58Z</time>
      </trkpt>
      <trkpt lat="47.31306" lon="6.13455">
        <ele>427.6</ele>
        <time>2024-07-31T11:05:59Z</time>
      </trkpt>
      <trkpt lat="47.31305" lon="6.13451">
        <ele>427.4</ele>
        <time>2024-07-31T11:06:00Z</time>
      </trkpt>
      <trkpt lat="47.31303" lon="6.13446">
        <ele>427.2</ele>
        <time>2024-07-31T11:06:01Z</time>
      </trkpt>
      <trkpt lat="47.313" lon="6.1344">
        <ele>427</ele>
        <time>2024-07-31T11:06:02Z</time>
      </trkpt>
      <trkpt lat="47.31298" lon="6.13435">
        <ele>425.8</ele>
        <time>2024-07-31T11:06:03Z</time>
      </trkpt>
      <trkpt lat="47.31295" lon="6.13429">
        <ele>426.6</ele>
        <time>2024-07-31T11:06:04Z</time>
      </trkpt>
      <trkpt lat="47.31293" lon="6.13424">
        <ele>426.8</ele>
        <time>2024-07-31T11:06:05Z</time>
      </trkpt>
      <trkpt lat="47.31291" lon="6.13419">
        <ele>426.6</ele>
        <time>2024-07-31T11:06:06Z</time>
      </trkpt>
      <trkpt lat="47.31289" lon="6.13414">
        <ele>426.4</ele>
        <time>2024-07-31T11:06:07Z</time>
      </trkpt>
      <trkpt lat="47.31288" lon="6.1341">
        <ele>426.4</ele>
        <time>2024-07-31T11:06:08Z</time>
      </trkpt>
      <trkpt lat="47.31286" lon="6.13406">
        <ele>426.6</ele>
        <time>2024-07-31T11:06:09Z</time>
      </trkpt>
      <trkpt lat="47.31284" lon="6.13403">
        <ele>426.4</ele>
        <time>2024-07-31T11:06:10Z</time>
      </trkpt>
      <trkpt lat="47.31283" lon="6.13399">
        <ele>426.4</ele>
        <time>2024-07-31T11:06:11Z</time>
      </trkpt>
      <trkpt lat="47.31282" lon="6.13396">
        <ele>426.2</ele>
        <time>2024-07-31T11:06:12Z</time>
      </trkpt>
      <trkpt lat="47.31281" lon="6.13393">
        <ele>426.2</ele>
        <time>2024-07-31T11:06:13Z</time>
      </trkpt>
      <trkpt lat="47.3128" lon="6.13389">
        <ele>426.2</ele>
        <time>2024-07-31T11:06:14Z</time>
      </trkpt>
      <trkpt lat="47.3128" lon="6.13386">
        <ele>426</ele>
        <time>2024-07-31T11:06:15Z</time>
      </trkpt>
      <trkpt lat="47.31279" lon="6.13382">
        <ele>426</ele>
        <time>2024-07-31T11:06:16Z</time>
      </trkpt>
      <trkpt lat="47.31278" lon="6.13377">
        <ele>426</ele>
        <time>2024-07-31T11:06:17Z</time>
      </trkpt>
      <trkpt lat="47.31276" lon="6.13373">
        <ele>426</ele>
        <time>2024-07-31T11:06:18Z</time>
      </trkpt>
      <trkpt lat="47.31274" lon="6.13368">
        <ele>426</ele>
        <time>2024-07-31T11:06:19Z</time>
      </trkpt>
      <trkpt lat="47.31272" lon="6.13365">
        <ele>426.6</ele>
        <time>2024-07-31T11:06:20Z</time>
      </trkpt>
      <trkpt lat="47.31272" lon="6.13361">
        <ele>426.6</ele>
        <time>2024-07-31T11:06:21Z</time>
      </trkpt>
      <trkpt lat="47.31271" lon="6.13358">
        <ele>426.6</ele>
        <time>2024-07-31T11:06:22Z</time>
      </trkpt>
      <trkpt lat="47.31269" lon="6.13354">
        <ele>426.6</ele>
        <time>2024-07-31T11:06:23Z</time>
      </trkpt>
      <trkpt lat="47.31268" lon="6.1335">
        <ele>426.6</ele>
        <time>2024-07-31T11:06:24Z</time>
      </trkpt>
      <trkpt lat="47.31266" lon="6.13346">
        <ele>426.6</ele>
        <time>2024-07-31T11:06:25Z</time>
      </trkpt>
      <trkpt lat="47.31264" lon="6.13342">
        <ele>426.8</ele>
        <time>2024-07-31T11:06:26Z</time>
      </trkpt>
      <trkpt lat="47.31263" lon="6.13337">
        <ele>426.6</ele>
        <time>2024-07-31T11:06:27Z</time>
      </trkpt>
      <trkpt lat="47.31261" lon="6.13332">
        <ele>426.2</ele>
        <time>2024-07-31T11:06:28Z</time>
      </trkpt>
      <trkpt lat="47.3126" lon="6.13326">
        <ele>426.2</ele>
        <time>2024-07-31T11:06:29Z</time>
      </trkpt>
      <trkpt lat="47.31258" lon="6.13319">
        <ele>426.4</ele>
        <time>2024-07-31T11:06:30Z</time>
      </trkpt>
      <trkpt lat="47.31256" lon="6.13313">
        <ele>426.4</ele>
        <time>2024-07-31T11:06:31Z</time>
      </trkpt>
      <trkpt lat="47.31255" lon="6.13308">
        <ele>426.2</ele>
        <time>2024-07-31T11:06:32Z</time>
      </trkpt>
      <trkpt lat="47.31253" lon="6.13303">
        <ele>426</ele>
        <time>2024-07-31T11:06:33Z</time>
      </trkpt>
      <trkpt lat="47.31251" lon="6.13299">
        <ele>425.6</ele>
        <time>2024-07-31T11:06:34Z</time>
      </trkpt>
      <trkpt lat="47.3125" lon="6.13294">
        <ele>425.6</ele>
        <time>2024-07-31T11:06:35Z</time>
      </trkpt>
      <trkpt lat="47.31247" lon="6.13288">
        <ele>425.4</ele>
        <time>2024-07-31T11:06:36Z</time>
      </trkpt>
      <trkpt lat="47.31245" lon="6.13281">
        <ele>425</ele>
        <time>2024-07-31T11:06:37Z</time>
      </trkpt>
      <trkpt lat="47.31242" lon="6.13275">
        <ele>425</ele>
        <time>2024-07-31T11:06:38Z</time>
      </trkpt>
      <trkpt lat="47.31239" lon="6.13268">
        <ele>424.6</ele>
        <time>2024-07-31T11:06:39Z</time>
      </trkpt>
      <trkpt lat="47.31235" lon="6.13263">
        <ele>424.8</ele>
        <time>2024-07-31T11:06:40Z</time>
      </trkpt>
      <trkpt lat="47.31232" lon="6.13258">
        <ele>424.6</ele>
        <time>2024-07-31T11:06:41Z</time>
      </trkpt>
      <trkpt lat="47.3123" lon="6.13254">
        <ele>425</ele>
        <time>2024-07-31T11:06:42Z</time>
      </trkpt>
      <trkpt lat="47.31228" lon="6.13252">
        <ele>425.4</ele>
        <time>2024-07-31T11:06:43Z</time>
      </trkpt>
      <trkpt lat="47.31225" lon="6.1325">
        <ele>425.8</ele>
        <time>2024-07-31T11:06:44Z</time>
      </trkpt>
      <trkpt lat="47.31223" lon="6.13247">
        <ele>426.4</ele>
        <time>2024-07-31T11:06:45Z</time>
      </trkpt>
      <trkpt lat="47.31221" lon="6.13245">
        <ele>427</ele>
        <time>2024-07-31T11:06:46Z</time>
      </trkpt>
      <trkpt lat="47.3122" lon="6.13242">
        <ele>427.2</ele>
        <time>2024-07-31T11:06:47Z</time>
      </trkpt>
      <trkpt lat="47.31219" lon="6.13241">
        <ele>427.8</ele>
        <time>2024-07-31T11:06:48Z</time>
      </trkpt>
      <trkpt lat="47.31217" lon="6.13238">
        <ele>428.2</ele>
        <time>2024-07-31T11:06:49Z</time>
      </trkpt>
      <trkpt lat="47.31217" lon="6.13236">
        <ele>428.6</ele>
        <time>2024-07-31T11:06:50Z</time>
      </trkpt>
      <trkpt lat="47.31216" lon="6.13233">
        <ele>429</ele>
        <time>2024-07-31T11:06:51Z</time>
      </trkpt>
      <trkpt lat="47.31215" lon="6.13229">
        <ele>429</ele>
        <time>2024-07-31T11:06:52Z</time>
      </trkpt>
      <trkpt lat="47.31215" lon="6.13226">
        <ele>429.2</ele>
        <time>2024-07-31T11:06:53Z</time>
      </trkpt>
      <trkpt lat="47.31215" lon="6.13223">
        <ele>429.6</ele>
        <time>2024-07-31T11:06:54Z</time>
      </trkpt>
      <trkpt lat="47.31216" lon="6.1322">
        <ele>429.6</ele>
        <time>2024-07-31T11:06:55Z</time>
      </trkpt>
      <trkpt lat="47.31217" lon="6.13217">
        <ele>429.6</ele>
        <time>2024-07-31T11:06:56Z</time>
      </trkpt>
      <trkpt lat="47.31217" lon="6.13215">
        <ele>429.8</ele>
        <time>2024-07-31T11:06:57Z</time>
      </trkpt>
      <trkpt lat="47.31218" lon="6.13213">
        <ele>429.8</ele>
        <time>2024-07-31T11:06:58Z</time>
      </trkpt>
      <trkpt lat="47.31219" lon="6.13211">
        <ele>429.8</ele>
        <time>2024-07-31T11:06:59Z</time>
      </trkpt>
      <trkpt lat="47.31221" lon="6.13209">
        <ele>429.8</ele>
        <time>2024-07-31T11:07:00Z</time>
      </trkpt>
      <trkpt lat="47.31222" lon="6.13208">
        <ele>430</ele>
        <time>2024-07-31T11:07:01Z</time>
      </trkpt>
      <trkpt lat="47.31223" lon="6.13207">
        <ele>430</ele>
        <time>2024-07-31T11:07:02Z</time>
      </trkpt>
      <trkpt lat="47.31224" lon="6.13206">
        <ele>430.2</ele>
        <time>2024-07-31T11:07:03Z</time>
      </trkpt>
      <trkpt lat="47.31225" lon="6.13204">
        <ele>430.2</ele>
        <time>2024-07-31T11:07:04Z</time>
      </trkpt>
      <trkpt lat="47.31226" lon="6.13203">
        <ele>430</ele>
        <time>2024-07-31T11:07:05Z</time>
      </trkpt>
      <trkpt lat="47.31227" lon="6.132">
        <ele>430.2</ele>
        <time>2024-07-31T11:07:06Z</time>
      </trkpt>
      <trkpt lat="47.31227" lon="6.13198">
        <ele>430.2</ele>
        <time>2024-07-31T11:07:07Z</time>
      </trkpt>
      <trkpt lat="47.31228" lon="6.13196">
        <ele>430.6</ele>
        <time>2024-07-31T11:07:08Z</time>
      </trkpt>
      <trkpt lat="47.31229" lon="6.13193">
        <ele>430.6</ele>
        <time>2024-07-31T11:07:09Z</time>
      </trkpt>
      <trkpt lat="47.31229" lon="6.13191">
        <ele>430.6</ele>
        <time>2024-07-31T11:07:10Z</time>
      </trkpt>
      <trkpt lat="47.3123" lon="6.13187">
        <ele>430.8</ele>
        <time>2024-07-31T11:07:11Z</time>
      </trkpt>
      <trkpt lat="47.3123" lon="6.13184">
        <ele>430.8</ele>
        <time>2024-07-31T11:07:12Z</time>
      </trkpt>
      <trkpt lat="47.3123" lon="6.13181">
        <ele>430.8</ele>
        <time>2024-07-31T11:07:13Z</time>
      </trkpt>
      <trkpt lat="47.3123" lon="6.13178">
        <ele>431</ele>
        <time>2024-07-31T11:07:14Z</time>
      </trkpt>
      <trkpt lat="47.3123" lon="6.13175">
        <ele>431</ele>
        <time>2024-07-31T11:07:15Z</time>
      </trkpt>
      <trkpt lat="47.3123" lon="6.13171">
        <ele>431</ele>
        <time>2024-07-31T11:07:16Z</time>
      </trkpt>
      <trkpt lat="47.3123" lon="6.13168">
        <ele>431</ele>
        <time>2024-07-31T11:07:17Z</time>
      </trkpt>
      <trkpt lat="47.3123" lon="6.13164">
        <ele>431</ele>
        <time>2024-07-31T11:07:18Z</time>
      </trkpt>
      <trkpt lat="47.3123" lon="6.13161">
        <ele>431</ele>
        <time>2024-07-31T11:07:19Z</time>
      </trkpt>
      <trkpt lat="47.3123" lon="6.13157">
        <ele>431.2</ele>
        <time>2024-07-31T11:07:20Z</time>
      </trkpt>
      <trkpt lat="47.3123" lon="6.13154">
        <ele>431.4</ele>
        <time>2024-07-31T11:07:21Z</time>
      </trkpt>
      <trkpt lat="47.3123" lon="6.13151">
        <ele>431.4</ele>
        <time>2024-07-31T11:07:22Z</time>
      </trkpt>
      <trkpt lat="47.3123" lon="6.13147">
        <ele>431</ele>
        <time>2024-07-31T11:07:23Z</time>
      </trkpt>
      <trkpt lat="47.3123" lon="6.13143">
        <ele>431.2</ele>
        <time>2024-07-31T11:07:24Z</time>
      </trkpt>
      <trkpt lat="47.3123" lon="6.13139">
        <ele>431.4</ele>
        <time>2024-07-31T11:07:25Z</time>
      </trkpt>
      <trkpt lat="47.31229" lon="6.13135">
        <ele>431.4</ele>
        <time>2024-07-31T11:07:26Z</time>
      </trkpt>
      <trkpt lat="47.31229" lon="6.13131">
        <ele>431.2</ele>
        <time>2024-07-31T11:07:27Z</time>
      </trkpt>
      <trkpt lat="47.31229" lon="6.13127">
        <ele>431.4</ele>
        <time>2024-07-31T11:07:28Z</time>
      </trkpt>
      <trkpt lat="47.31229" lon="6.13123">
        <ele>431.2</ele>
        <time>2024-07-31T11:07:29Z</time>
      </trkpt>
      <trkpt lat="47.31229" lon="6.13118">
        <ele>431.2</ele>
        <time>2024-07-31T11:07:30Z</time>
      </trkpt>
      <trkpt lat="47.31229" lon="6.13113">
        <ele>431.2</ele>
        <time>2024-07-31T11:07:31Z</time>
      </trkpt>
      <trkpt lat="47.31229" lon="6.13109">
        <ele>431.2</ele>
        <time>2024-07-31T11:07:32Z</time>
      </trkpt>
      <trkpt lat="47.31229" lon="6.13104">
        <ele>431</ele>
        <time>2024-07-31T11:07:33Z</time>
      </trkpt>
      <trkpt lat="47.31228" lon="6.131">
        <ele>431</ele>
        <time>2024-07-31T11:07:34Z</time>
      </trkpt>
      <trkpt lat="47.31228" lon="6.13095">
        <ele>431.2</ele>
        <time>2024-07-31T11:07:35Z</time>
      </trkpt>
      <trkpt lat="47.31228" lon="6.13091">
        <ele>430.8</ele>
        <time>2024-07-31T11:07:36Z</time>
      </trkpt>
      <trkpt lat="47.31228" lon="6.13087">
        <ele>431.4</ele>
        <time>2024-07-31T11:07:37Z</time>
      </trkpt>
      <trkpt lat="47.31227" lon="6.13083">
        <ele>431.2</ele>
        <time>2024-07-31T11:07:38Z</time>
      </trkpt>
      <trkpt lat="47.31227" lon="6.13078">
        <ele>431</ele>
        <time>2024-07-31T11:07:39Z</time>
      </trkpt>
      <trkpt lat="47.31226" lon="6.13072">
        <ele>430.8</ele>
        <time>2024-07-31T11:07:40Z</time>
      </trkpt>
      <trkpt lat="47.31226" lon="6.13066">
        <ele>431.2</ele>
        <time>2024-07-31T11:07:41Z</time>
      </trkpt>
      <trkpt lat="47.31226" lon="6.13061">
        <ele>430.8</ele>
        <time>2024-07-31T11:07:42Z</time>
      </trkpt>
      <trkpt lat="47.31226" lon="6.13056">
        <ele>430.6</ele>
        <time>2024-07-31T11:07:43Z</time>
      </trkpt>
      <trkpt lat="47.31226" lon="6.1305">
        <ele>430.6</ele>
        <time>2024-07-31T11:07:44Z</time>
      </trkpt>
      <trkpt lat="47.31226" lon="6.13045">
        <ele>430.6</ele>
        <time>2024-07-31T11:07:45Z</time>
      </trkpt>
      <trkpt lat="47.31226" lon="6.1304">
        <ele>430.4</ele>
        <time>2024-07-31T11:07:46Z</time>
      </trkpt>
      <trkpt lat="47.31226" lon="6.13035">
        <ele>430.6</ele>
        <time>2024-07-31T11:07:47Z</time>
      </trkpt>
      <trkpt lat="47.31225" lon="6.13031">
        <ele>430.4</ele>
        <time>2024-07-31T11:07:48Z</time>
      </trkpt>
      <trkpt lat="47.31224" lon="6.13026">
        <ele>430.6</ele>
        <time>2024-07-31T11:07:49Z</time>
      </trkpt>
      <trkpt lat="47.31223" lon="6.13021">
        <ele>431</ele>
        <time>2024-07-31T11:07:50Z</time>
      </trkpt>
      <trkpt lat="47.31223" lon="6.13017">
        <ele>431.4</ele>
        <time>2024-07-31T11:07:51Z</time>
      </trkpt>
      <trkpt lat="47.31222" lon="6.13013">
        <ele>431.2</ele>
        <time>2024-07-31T11:07:52Z</time>
      </trkpt>
      <trkpt lat="47.31222" lon="6.13009">
        <ele>431</ele>
        <time>2024-07-31T11:07:53Z</time>
      </trkpt>
      <trkpt lat="47.31221" lon="6.13005">
        <ele>431.4</ele>
        <time>2024-07-31T11:07:54Z</time>
      </trkpt>
      <trkpt lat="47.3122" lon="6.13002">
        <ele>431.4</ele>
        <time>2024-07-31T11:07:55Z</time>
      </trkpt>
      <trkpt lat="47.3122" lon="6.12999">
        <ele>431.6</ele>
        <time>2024-07-31T11:07:56Z</time>
      </trkpt>
      <trkpt lat="47.3122" lon="6.12996">
        <ele>431.4</ele>
        <time>2024-07-31T11:07:57Z</time>
      </trkpt>
      <trkpt lat="47.31221" lon="6.12993">
        <ele>431.2</ele>
        <time>2024-07-31T11:07:58Z</time>
      </trkpt>
      <trkpt lat="47.31221" lon="6.12989">
        <ele>431.4</ele>
        <time>2024-07-31T11:07:59Z</time>
      </trkpt>
      <trkpt lat="47.3122" lon="6.12985">
        <ele>431.6</ele>
        <time>2024-07-31T11:08:00Z</time>
      </trkpt>
      <trkpt lat="47.31219" lon="6.1298">
        <ele>431</ele>
        <time>2024-07-31T11:08:01Z</time>
      </trkpt>
      <trkpt lat="47.31219" lon="6.12976">
        <ele>431.6</ele>
        <time>2024-07-31T11:08:02Z</time>
      </trkpt>
      <trkpt lat="47.31218" lon="6.12972">
        <ele>431.8</ele>
        <time>2024-07-31T11:08:03Z</time>
      </trkpt>
      <trkpt lat="47.31218" lon="6.12969">
        <ele>431.4</ele>
        <time>2024-07-31T11:08:04Z</time>
      </trkpt>
      <trkpt lat="47.31218" lon="6.12966">
        <ele>431.8</ele>
        <time>2024-07-31T11:08:05Z</time>
      </trkpt>
      <trkpt lat="47.31218" lon="6.12961">
        <ele>431.8</ele>
        <time>2024-07-31T11:08:06Z</time>
      </trkpt>
      <trkpt lat="47.31217" lon="6.12958">
        <ele>432.2</ele>
        <time>2024-07-31T11:08:07Z</time>
      </trkpt>
      <trkpt lat="47.31217" lon="6.12954">
        <ele>431.2</ele>
        <time>2024-07-31T11:08:08Z</time>
      </trkpt>
      <trkpt lat="47.31216" lon="6.1295">
        <ele>431</ele>
        <time>2024-07-31T11:08:09Z</time>
      </trkpt>
      <trkpt lat="47.31216" lon="6.12945">
        <ele>431.2</ele>
        <time>2024-07-31T11:08:10Z</time>
      </trkpt>
      <trkpt lat="47.31216" lon="6.1294">
        <ele>431</ele>
        <time>2024-07-31T11:08:11Z</time>
      </trkpt>
      <trkpt lat="47.31215" lon="6.12935">
        <ele>431</ele>
        <time>2024-07-31T11:08:12Z</time>
      </trkpt>
      <trkpt lat="47.31213" lon="6.12928">
        <ele>431</ele>
        <time>2024-07-31T11:08:13Z</time>
      </trkpt>
      <trkpt lat="47.31212" lon="6.12922">
        <ele>430.4</ele>
        <time>2024-07-31T11:08:14Z</time>
      </trkpt>
      <trkpt lat="47.31211" lon="6.12915">
        <ele>429.4</ele>
        <time>2024-07-31T11:08:15Z</time>
      </trkpt>
      <trkpt lat="47.31209" lon="6.12909">
        <ele>428.4</ele>
        <time>2024-07-31T11:08:16Z</time>
      </trkpt>
      <trkpt lat="47.31208" lon="6.12903">
        <ele>428.6</ele>
        <time>2024-07-31T11:08:17Z</time>
      </trkpt>
      <trkpt lat="47.31207" lon="6.12897">
        <ele>428.2</ele>
        <time>2024-07-31T11:08:18Z</time>
      </trkpt>
      <trkpt lat="47.31205" lon="6.12889">
        <ele>427.6</ele>
        <time>2024-07-31T11:08:19Z</time>
      </trkpt>
      <trkpt lat="47.31203" lon="6.12881">
        <ele>427.6</ele>
        <time>2024-07-31T11:08:20Z</time>
      </trkpt>
      <trkpt lat="47.312" lon="6.12874">
        <ele>427.2</ele>
        <time>2024-07-31T11:08:21Z</time>
      </trkpt>
      <trkpt lat="47.31197" lon="6.12867">
        <ele>427</ele>
        <time>2024-07-31T11:08:22Z</time>
      </trkpt>
      <trkpt lat="47.31194" lon="6.12859">
        <ele>426.8</ele>
        <time>2024-07-31T11:08:23Z</time>
      </trkpt>
      <trkpt lat="47.31191" lon="6.12852">
        <ele>426.6</ele>
        <time>2024-07-31T11:08:24Z</time>
      </trkpt>
      <trkpt lat="47.31189" lon="6.12844">
        <ele>426</ele>
        <time>2024-07-31T11:08:25Z</time>
      </trkpt>
      <trkpt lat="47.31186" lon="6.12835">
        <ele>425.4</ele>
        <time>2024-07-31T11:08:26Z</time>
      </trkpt>
      <trkpt lat="47.31183" lon="6.12826">
        <ele>425</ele>
        <time>2024-07-31T11:08:27Z</time>
      </trkpt>
      <trkpt lat="47.3118" lon="6.12817">
        <ele>425</ele>
        <time>2024-07-31T11:08:28Z</time>
      </trkpt>
      <trkpt lat="47.31178" lon="6.12808">
        <ele>424.6</ele>
        <time>2024-07-31T11:08:29Z</time>
      </trkpt>
      <trkpt lat="47.31174" lon="6.12798">
        <ele>424.8</ele>
        <time>2024-07-31T11:08:30Z</time>
      </trkpt>
      <trkpt lat="47.31171" lon="6.12788">
        <ele>424.4</ele>
        <time>2024-07-31T11:08:31Z</time>
      </trkpt>
      <trkpt lat="47.31168" lon="6.12779">
        <ele>424.6</ele>
        <time>2024-07-31T11:08:32Z</time>
      </trkpt>
      <trkpt lat="47.31166" lon="6.12769">
        <ele>424.2</ele>
        <time>2024-07-31T11:08:33Z</time>
      </trkpt>
      <trkpt lat="47.31164" lon="6.1276">
        <ele>423.6</ele>
        <time>2024-07-31T11:08:34Z</time>
      </trkpt>
      <trkpt lat="47.31162" lon="6.12752">
        <ele>423.8</ele>
        <time>2024-07-31T11:08:35Z</time>
      </trkpt>
      <trkpt lat="47.3116" lon="6.12743">
        <ele>423.8</ele>
        <time>2024-07-31T11:08:36Z</time>
      </trkpt>
      <trkpt lat="47.31158" lon="6.12735">
        <ele>423.6</ele>
        <time>2024-07-31T11:08:37Z</time>
      </trkpt>
      <trkpt lat="47.31157" lon="6.12728">
        <ele>423.6</ele>
        <time>2024-07-31T11:08:38Z</time>
      </trkpt>
      <trkpt lat="47.31156" lon="6.12721">
        <ele>423.6</ele>
        <time>2024-07-31T11:08:39Z</time>
      </trkpt>
      <trkpt lat="47.31154" lon="6.12715">
        <ele>423.4</ele>
        <time>2024-07-31T11:08:40Z</time>
      </trkpt>
      <trkpt lat="47.31153" lon="6.12711">
        <ele>423.6</ele>
        <time>2024-07-31T11:08:41Z</time>
      </trkpt>
      <trkpt lat="47.31151" lon="6.12707">
        <ele>423.8</ele>
        <time>2024-07-31T11:08:42Z</time>
      </trkpt>
      <trkpt lat="47.3115" lon="6.12703">
        <ele>423.8</ele>
        <time>2024-07-31T11:08:43Z</time>
      </trkpt>
      <trkpt lat="47.31148" lon="6.12699">
        <ele>424.4</ele>
        <time>2024-07-31T11:08:44Z</time>
      </trkpt>
      <trkpt lat="47.31146" lon="6.12694">
        <ele>425.4</ele>
        <time>2024-07-31T11:08:45Z</time>
      </trkpt>
      <trkpt lat="47.31144" lon="6.12689">
        <ele>425.4</ele>
        <time>2024-07-31T11:08:46Z</time>
      </trkpt>
      <trkpt lat="47.31144" lon="6.12686">
        <ele>425.6</ele>
        <time>2024-07-31T11:08:47Z</time>
      </trkpt>
      <trkpt lat="47.31143" lon="6.12682">
        <ele>426.4</ele>
        <time>2024-07-31T11:08:48Z</time>
      </trkpt>
      <trkpt lat="47.31142" lon="6.12678">
        <ele>426.6</ele>
        <time>2024-07-31T11:08:49Z</time>
      </trkpt>
      <trkpt lat="47.3114" lon="6.12674">
        <ele>426.6</ele>
        <time>2024-07-31T11:08:50Z</time>
      </trkpt>
      <trkpt lat="47.31139" lon="6.12672">
        <ele>426.8</ele>
        <time>2024-07-31T11:08:51Z</time>
      </trkpt>
      <trkpt lat="47.31139" lon="6.1267">
        <ele>427.2</ele>
        <time>2024-07-31T11:08:52Z</time>
      </trkpt>
      <trkpt lat="47.31139" lon="6.12669">
        <ele>427</ele>
        <time>2024-07-31T11:08:53Z</time>
      </trkpt>
      <trkpt lat="47.31139" lon="6.12669">
        <ele>426.4</ele>
        <time>2024-07-31T11:08:54Z</time>
      </trkpt>
      <trkpt lat="47.31138" lon="6.12669">
        <ele>426</ele>
        <time>2024-07-31T11:08:55Z</time>
      </trkpt>
      <trkpt lat="47.31138" lon="6.12669">
        <ele>426</ele>
        <time>2024-07-31T11:08:56Z</time>
      </trkpt>
      <trkpt lat="47.31138" lon="6.12669">
        <ele>426</ele>
        <time>2024-07-31T11:08:57Z</time>
      </trkpt>
      <trkpt lat="47.31138" lon="6.12668">
        <ele>426</ele>
        <time>2024-07-31T11:08:58Z</time>
      </trkpt>
      <trkpt lat="47.31138" lon="6.12668">
        <ele>426.2</ele>
        <time>2024-07-31T11:08:59Z</time>
      </trkpt>
      <trkpt lat="47.31137" lon="6.12668">
        <ele>426</ele>
        <time>2024-07-31T11:09:00Z</time>
      </trkpt>
      <trkpt lat="47.31137" lon="6.12667">
        <ele>426</ele>
        <time>2024-07-31T11:09:01Z</time>
      </trkpt>
      <trkpt lat="47.31137" lon="6.12667">
        <ele>426</ele>
        <time>2024-07-31T11:09:02Z</time>
      </trkpt>
      <trkpt lat="47.31137" lon="6.12667">
        <ele>426</ele>
        <time>2024-07-31T11:09:03Z</time>
      </trkpt>
      <trkpt lat="47.31136" lon="6.12666">
        <ele>426</ele>
        <time>2024-07-31T11:09:04Z</time>
      </trkpt>
      <trkpt lat="47.31136" lon="6.12666">
        <ele>426</ele>
        <time>2024-07-31T11:09:05Z</time>
      </trkpt>
      <trkpt lat="47.31136" lon="6.12665">
        <ele>425.8</ele>
        <time>2024-07-31T11:09:06Z</time>
      </trkpt>
      <trkpt lat="47.31135" lon="6.12665">
        <ele>426</ele>
        <time>2024-07-31T11:09:07Z</time>
      </trkpt>
      <trkpt lat="47.31135" lon="6.12664">
        <ele>425.8</ele>
        <time>2024-07-31T11:09:08Z</time>
      </trkpt>
      <trkpt lat="47.31135" lon="6.12664">
        <ele>425.8</ele>
        <time>2024-07-31T11:09:09Z</time>
      </trkpt>
      <trkpt lat="47.31135" lon="6.12664">
        <ele>426</ele>
        <time>2024-07-31T11:09:10Z</time>
      </trkpt>
      <trkpt lat="47.31134" lon="6.12664">
        <ele>426</ele>
        <time>2024-07-31T11:09:11Z</time>
      </trkpt>
      <trkpt lat="47.31134" lon="6.12664">
        <ele>426</ele>
        <time>2024-07-31T11:09:12Z</time>
      </trkpt>
      <trkpt lat="47.31134" lon="6.12664">
        <ele>425.8</ele>
        <time>2024-07-31T11:09:13Z</time>
      </trkpt>
      <trkpt lat="47.31134" lon="6.12664">
        <ele>425.8</ele>
        <time>2024-07-31T11:09:14Z</time>
      </trkpt>
      <trkpt lat="47.31134" lon="6.12664">
        <ele>426</ele>
        <time>2024-07-31T11:09:15Z</time>
      </trkpt>
      <trkpt lat="47.31134" lon="6.12664">
        <ele>426</ele>
        <time>2024-07-31T11:09:16Z</time>
      </trkpt>
      <trkpt lat="47.31134" lon="6.12664">
        <ele>427</ele>
        <time>2024-07-31T11:09:17Z</time>
      </trkpt>
      <trkpt lat="47.31134" lon="6.12664">
        <ele>427.2</ele>
        <time>2024-07-31T11:09:18Z</time>
      </trkpt>
      <trkpt lat="47.31133" lon="6.12664">
        <ele>427</ele>
        <time>2024-07-31T11:09:19Z</time>
      </trkpt>
      <trkpt lat="47.31133" lon="6.12663">
        <ele>427.2</ele>
        <time>2024-07-31T11:09:20Z</time>
      </trkpt>
      <trkpt lat="47.31132" lon="6.12662">
        <ele>427.6</ele>
        <time>2024-07-31T11:09:21Z</time>
      </trkpt>
      <trkpt lat="47.31132" lon="6.12661">
        <ele>427.6</ele>
        <time>2024-07-31T11:09:22Z</time>
      </trkpt>
      <trkpt lat="47.31132" lon="6.12661">
        <ele>427.6</ele>
        <time>2024-07-31T11:09:23Z</time>
      </trkpt>
      <trkpt lat="47.31131" lon="6.1266">
        <ele>427.8</ele>
        <time>2024-07-31T11:09:24Z</time>
      </trkpt>
      <trkpt lat="47.31131" lon="6.12659">
        <ele>427.8</ele>
        <time>2024-07-31T11:09:25Z</time>
      </trkpt>
      <trkpt lat="47.3113" lon="6.12658">
        <ele>427.8</ele>
        <time>2024-07-31T11:09:26Z</time>
      </trkpt>
      <trkpt lat="47.3113" lon="6.12657">
        <ele>428</ele>
        <time>2024-07-31T11:09:27Z</time>
      </trkpt>
      <trkpt lat="47.31129" lon="6.12657">
        <ele>428</ele>
        <time>2024-07-31T11:09:28Z</time>
      </trkpt>
      <trkpt lat="47.31128" lon="6.12655">
        <ele>428.2</ele>
        <time>2024-07-31T11:09:29Z</time>
      </trkpt>
      <trkpt lat="47.31128" lon="6.12654">
        <ele>428.6</ele>
        <time>2024-07-31T11:09:30Z</time>
      </trkpt>
      <trkpt lat="47.31127" lon="6.12653">
        <ele>428.8</ele>
        <time>2024-07-31T11:09:31Z</time>
      </trkpt>
      <trkpt lat="47.31126" lon="6.12652">
        <ele>428.8</ele>
        <time>2024-07-31T11:09:32Z</time>
      </trkpt>
      <trkpt lat="47.31126" lon="6.1265">
        <ele>428.8</ele>
        <time>2024-07-31T11:09:33Z</time>
      </trkpt>
      <trkpt lat="47.31126" lon="6.12649">
        <ele>428.8</ele>
        <time>2024-07-31T11:09:34Z</time>
      </trkpt>
      <trkpt lat="47.31126" lon="6.12649">
        <ele>428.8</ele>
        <time>2024-07-31T11:09:35Z</time>
      </trkpt>
      <trkpt lat="47.31125" lon="6.12649">
        <ele>428.8</ele>
        <time>2024-07-31T11:09:36Z</time>
      </trkpt>
      <trkpt lat="47.31125" lon="6.12648">
        <ele>428.8</ele>
        <time>2024-07-31T11:09:37Z</time>
      </trkpt>
      <trkpt lat="47.31125" lon="6.12648">
        <ele>428.8</ele>
        <time>2024-07-31T11:09:38Z</time>
      </trkpt>
      <trkpt lat="47.31125" lon="6.12648">
        <ele>428.8</ele>
        <time>2024-07-31T11:09:39Z</time>
      </trkpt>
      <trkpt lat="47.31125" lon="6.12648">
        <ele>428.6</ele>
        <time>2024-07-31T11:09:40Z</time>
      </trkpt>
      <trkpt lat="47.31125" lon="6.12648">
        <ele>428.6</ele>
        <time>2024-07-31T11:09:41Z</time>
      </trkpt>
      <trkpt lat="47.31125" lon="6.12648">
        <ele>428.6</ele>
        <time>2024-07-31T11:09:42Z</time>
      </trkpt>
      <trkpt lat="47.31125" lon="6.12647">
        <ele>428.6</ele>
        <time>2024-07-31T11:09:43Z</time>
      </trkpt>
      <trkpt lat="47.31125" lon="6.12647">
        <ele>428.6</ele>
        <time>2024-07-31T11:09:44Z</time>
      </trkpt>
      <trkpt lat="47.31126" lon="6.12648">
        <ele>428.6</ele>
        <time>2024-07-31T11:09:45Z</time>
      </trkpt>
      <trkpt lat="47.31126" lon="6.12648">
        <ele>428.6</ele>
        <time>2024-07-31T11:09:46Z</time>
      </trkpt>
      <trkpt lat="47.31125" lon="6.12647">
        <ele>428.8</ele>
        <time>2024-07-31T11:09:47Z</time>
      </trkpt>
      <trkpt lat="47.31125" lon="6.12647">
        <ele>429</ele>
        <time>2024-07-31T11:09:48Z</time>
      </trkpt>
      <trkpt lat="47.31124" lon="6.12646">
        <ele>429</ele>
        <time>2024-07-31T11:09:49Z</time>
      </trkpt>
      <trkpt lat="47.31123" lon="6.12645">
        <ele>429</ele>
        <time>2024-07-31T11:09:50Z</time>
      </trkpt>
      <trkpt lat="47.31122" lon="6.12644">
        <ele>429.2</ele>
        <time>2024-07-31T11:09:51Z</time>
      </trkpt>
      <trkpt lat="47.31121" lon="6.12643">
        <ele>429.4</ele>
        <time>2024-07-31T11:09:52Z</time>
      </trkpt>
      <trkpt lat="47.3112" lon="6.12642">
        <ele>429.6</ele>
        <time>2024-07-31T11:09:53Z</time>
      </trkpt>
      <trkpt lat="47.31119" lon="6.12641">
        <ele>429.8</ele>
        <time>2024-07-31T11:09:54Z</time>
      </trkpt>
      <trkpt lat="47.31118" lon="6.1264">
        <ele>429.8</ele>
        <time>2024-07-31T11:09:55Z</time>
      </trkpt>
      <trkpt lat="47.31117" lon="6.12639">
        <ele>429.8</ele>
        <time>2024-07-31T11:09:56Z</time>
      </trkpt>
      <trkpt lat="47.31116" lon="6.12638">
        <ele>430</ele>
        <time>2024-07-31T11:09:57Z</time>
      </trkpt>
      <trkpt lat="47.31115" lon="6.12637">
        <ele>430.2</ele>
        <time>2024-07-31T11:09:58Z</time>
      </trkpt>
      <trkpt lat="47.31114" lon="6.12636">
        <ele>430.4</ele>
        <time>2024-07-31T11:09:59Z</time>
      </trkpt>
      <trkpt lat="47.31113" lon="6.12634">
        <ele>430.4</ele>
        <time>2024-07-31T11:10:00Z</time>
      </trkpt>
      <trkpt lat="47.31113" lon="6.12633">
        <ele>430.8</ele>
        <time>2024-07-31T11:10:01Z</time>
      </trkpt>
      <trkpt lat="47.31112" lon="6.12632">
        <ele>431</ele>
        <time>2024-07-31T11:10:02Z</time>
      </trkpt>
      <trkpt lat="47.31111" lon="6.1263">
        <ele>431</ele>
        <time>2024-07-31T11:10:03Z</time>
      </trkpt>
      <trkpt lat="47.31111" lon="6.12629">
        <ele>431.2</ele>
        <time>2024-07-31T11:10:04Z</time>
      </trkpt>
      <trkpt lat="47.3111" lon="6.12628">
        <ele>431.4</ele>
        <time>2024-07-31T11:10:05Z</time>
      </trkpt>
      <trkpt lat="47.31109" lon="6.12627">
        <ele>431.6</ele>
        <time>2024-07-31T11:10:06Z</time>
      </trkpt>
      <trkpt lat="47.31108" lon="6.12626">
        <ele>431.8</ele>
        <time>2024-07-31T11:10:07Z</time>
      </trkpt>
      <trkpt lat="47.31107" lon="6.12625">
        <ele>431.8</ele>
        <time>2024-07-31T11:10:08Z</time>
      </trkpt>
      <trkpt lat="47.31107" lon="6.12624">
        <ele>432</ele>
        <time>2024-07-31T11:10:09Z</time>
      </trkpt>
      <trkpt lat="47.31106" lon="6.12623">
        <ele>432.2</ele>
        <time>2024-07-31T11:10:10Z</time>
      </trkpt>
      <trkpt lat="47.31106" lon="6.12621">
        <ele>432.2</ele>
        <time>2024-07-31T11:10:11Z</time>
      </trkpt>
      <trkpt lat="47.31105" lon="6.1262">
        <ele>432.4</ele>
        <time>2024-07-31T11:10:12Z</time>
      </trkpt>
      <trkpt lat="47.31104" lon="6.12619">
        <ele>432.4</ele>
        <time>2024-07-31T11:10:13Z</time>
      </trkpt>
      <trkpt lat="47.31104" lon="6.12618">
        <ele>432.2</ele>
        <time>2024-07-31T11:10:14Z</time>
      </trkpt>
      <trkpt lat="47.31103" lon="6.12616">
        <ele>432.4</ele>
        <time>2024-07-31T11:10:15Z</time>
      </trkpt>
      <trkpt lat="47.31102" lon="6.12614">
        <ele>432.6</ele>
        <time>2024-07-31T11:10:16Z</time>
      </trkpt>
      <trkpt lat="47.31101" lon="6.12613">
        <ele>432.8</ele>
        <time>2024-07-31T11:10:17Z</time>
      </trkpt>
      <trkpt lat="47.311" lon="6.1261">
        <ele>432.8</ele>
        <time>2024-07-31T11:10:18Z</time>
      </trkpt>
      <trkpt lat="47.31099" lon="6.12608">
        <ele>432.6</ele>
        <time>2024-07-31T11:10:19Z</time>
      </trkpt>
      <trkpt lat="47.31099" lon="6.12605">
        <ele>433</ele>
        <time>2024-07-31T11:10:20Z</time>
      </trkpt>
      <trkpt lat="47.31098" lon="6.12603">
        <ele>433.2</ele>
        <time>2024-07-31T11:10:21Z</time>
      </trkpt>
      <trkpt lat="47.31097" lon="6.12601">
        <ele>433.2</ele>
        <time>2024-07-31T11:10:22Z</time>
      </trkpt>
      <trkpt lat="47.31097" lon="6.12598">
        <ele>433.4</ele>
        <time>2024-07-31T11:10:23Z</time>
      </trkpt>
      <trkpt lat="47.31096" lon="6.12595">
        <ele>433.2</ele>
        <time>2024-07-31T11:10:24Z</time>
      </trkpt>
      <trkpt lat="47.31095" lon="6.12592">
        <ele>433</ele>
        <time>2024-07-31T11:10:25Z</time>
      </trkpt>
      <trkpt lat="47.31094" lon="6.12588">
        <ele>433</ele>
        <time>2024-07-31T11:10:26Z</time>
      </trkpt>
      <trkpt lat="47.31094" lon="6.12585">
        <ele>433.4</ele>
        <time>2024-07-31T11:10:27Z</time>
      </trkpt>
      <trkpt lat="47.31093" lon="6.1258">
        <ele>433.2</ele>
        <time>2024-07-31T11:10:28Z</time>
      </trkpt>
      <trkpt lat="47.31092" lon="6.12576">
        <ele>433</ele>
        <time>2024-07-31T11:10:29Z</time>
      </trkpt>
      <trkpt lat="47.31091" lon="6.12572">
        <ele>433.2</ele>
        <time>2024-07-31T11:10:30Z</time>
      </trkpt>
      <trkpt lat="47.31091" lon="6.12568">
        <ele>433</ele>
        <time>2024-07-31T11:10:31Z</time>
      </trkpt>
      <trkpt lat="47.31089" lon="6.12563">
        <ele>432.4</ele>
        <time>2024-07-31T11:10:32Z</time>
      </trkpt>
      <trkpt lat="47.31088" lon="6.12559">
        <ele>433</ele>
        <time>2024-07-31T11:10:33Z</time>
      </trkpt>
      <trkpt lat="47.31086" lon="6.12554">
        <ele>433.2</ele>
        <time>2024-07-31T11:10:34Z</time>
      </trkpt>
      <trkpt lat="47.31085" lon="6.1255">
        <ele>433.2</ele>
        <time>2024-07-31T11:10:35Z</time>
      </trkpt>
      <trkpt lat="47.31083" lon="6.12547">
        <ele>433.4</ele>
        <time>2024-07-31T11:10:36Z</time>
      </trkpt>
      <trkpt lat="47.31081" lon="6.12543">
        <ele>433.2</ele>
        <time>2024-07-31T11:10:37Z</time>
      </trkpt>
      <trkpt lat="47.31079" lon="6.1254">
        <ele>433.6</ele>
        <time>2024-07-31T11:10:38Z</time>
      </trkpt>
      <trkpt lat="47.31077" lon="6.12535">
        <ele>433.6</ele>
        <time>2024-07-31T11:10:39Z</time>
      </trkpt>
      <trkpt lat="47.31076" lon="6.12531">
        <ele>433.6</ele>
        <time>2024-07-31T11:10:40Z</time>
      </trkpt>
      <trkpt lat="47.31074" lon="6.12527">
        <ele>433.4</ele>
        <time>2024-07-31T11:10:41Z</time>
      </trkpt>
      <trkpt lat="47.31073" lon="6.12523">
        <ele>434</ele>
        <time>2024-07-31T11:10:42Z</time>
      </trkpt>
      <trkpt lat="47.31072" lon="6.12519">
        <ele>434</ele>
        <time>2024-07-31T11:10:43Z</time>
      </trkpt>
      <trkpt lat="47.3107" lon="6.12516">
        <ele>434.2</ele>
        <time>2024-07-31T11:10:44Z</time>
      </trkpt>
      <trkpt lat="47.31069" lon="6.12513">
        <ele>434.4</ele>
        <time>2024-07-31T11:10:45Z</time>
      </trkpt>
      <trkpt lat="47.31067" lon="6.1251">
        <ele>434.6</ele>
        <time>2024-07-31T11:10:46Z</time>
      </trkpt>
      <trkpt lat="47.31065" lon="6.12507">
        <ele>435.2</ele>
        <time>2024-07-31T11:10:47Z</time>
      </trkpt>
      <trkpt lat="47.31063" lon="6.12504">
        <ele>435</ele>
        <time>2024-07-31T11:10:48Z</time>
      </trkpt>
      <trkpt lat="47.31061" lon="6.125">
        <ele>435.4</ele>
        <time>2024-07-31T11:10:49Z</time>
      </trkpt>
      <trkpt lat="47.31059" lon="6.12497">
        <ele>435.6</ele>
        <time>2024-07-31T11:10:50Z</time>
      </trkpt>
      <trkpt lat="47.31058" lon="6.12494">
        <ele>436</ele>
        <time>2024-07-31T11:10:51Z</time>
      </trkpt>
      <trkpt lat="47.31055" lon="6.12491">
        <ele>436.6</ele>
        <time>2024-07-31T11:10:52Z</time>
      </trkpt>
      <trkpt lat="47.31054" lon="6.12488">
        <ele>436.6</ele>
        <time>2024-07-31T11:10:53Z</time>
      </trkpt>
      <trkpt lat="47.31053" lon="6.12486">
        <ele>436.8</ele>
        <time>2024-07-31T11:10:54Z</time>
      </trkpt>
      <trkpt lat="47.31052" lon="6.12483">
        <ele>437.4</ele>
        <time>2024-07-31T11:10:55Z</time>
      </trkpt>
      <trkpt lat="47.31051" lon="6.12481">
        <ele>437.4</ele>
        <time>2024-07-31T11:10:56Z</time>
      </trkpt>
      <trkpt lat="47.31049" lon="6.12478">
        <ele>437.8</ele>
        <time>2024-07-31T11:10:57Z</time>
      </trkpt>
      <trkpt lat="47.31048" lon="6.12474">
        <ele>438.2</ele>
        <time>2024-07-31T11:10:58Z</time>
      </trkpt>
      <trkpt lat="47.31046" lon="6.12471">
        <ele>438</ele>
        <time>2024-07-31T11:10:59Z</time>
      </trkpt>
      <trkpt lat="47.31045" lon="6.12468">
        <ele>438.6</ele>
        <time>2024-07-31T11:11:00Z</time>
      </trkpt>
      <trkpt lat="47.31043" lon="6.12464">
        <ele>438.6</ele>
        <time>2024-07-31T11:11:01Z</time>
      </trkpt>
      <trkpt lat="47.31042" lon="6.12461">
        <ele>438.6</ele>
        <time>2024-07-31T11:11:02Z</time>
      </trkpt>
      <trkpt lat="47.31041" lon="6.12458">
        <ele>439.2</ele>
        <time>2024-07-31T11:11:03Z</time>
      </trkpt>
      <trkpt lat="47.31039" lon="6.12456">
        <ele>439.2</ele>
        <time>2024-07-31T11:11:04Z</time>
      </trkpt>
      <trkpt lat="47.31038" lon="6.12452">
        <ele>439.4</ele>
        <time>2024-07-31T11:11:05Z</time>
      </trkpt>
      <trkpt lat="47.31036" lon="6.1245">
        <ele>439.8</ele>
        <time>2024-07-31T11:11:06Z</time>
      </trkpt>
      <trkpt lat="47.31034" lon="6.12446">
        <ele>439.6</ele>
        <time>2024-07-31T11:11:07Z</time>
      </trkpt>
      <trkpt lat="47.31033" lon="6.12443">
        <ele>439.8</ele>
        <time>2024-07-31T11:11:08Z</time>
      </trkpt>
      <trkpt lat="47.31032" lon="6.12441">
        <ele>440.2</ele>
        <time>2024-07-31T11:11:09Z</time>
      </trkpt>
      <trkpt lat="47.3103" lon="6.12439">
        <ele>440</ele>
        <time>2024-07-31T11:11:10Z</time>
      </trkpt>
      <trkpt lat="47.31029" lon="6.12437">
        <ele>440.2</ele>
        <time>2024-07-31T11:11:11Z</time>
      </trkpt>
      <trkpt lat="47.31028" lon="6.12434">
        <ele>440.8</ele>
        <time>2024-07-31T11:11:12Z</time>
      </trkpt>
      <trkpt lat="47.31026" lon="6.12432">
        <ele>440.8</ele>
        <time>2024-07-31T11:11:13Z</time>
      </trkpt>
      <trkpt lat="47.31025" lon="6.12429">
        <ele>441</ele>
        <time>2024-07-31T11:11:14Z</time>
      </trkpt>
      <trkpt lat="47.31023" lon="6.12426">
        <ele>441.2</ele>
        <time>2024-07-31T11:11:15Z</time>
      </trkpt>
      <trkpt lat="47.31023" lon="6.12422">
        <ele>441.2</ele>
        <time>2024-07-31T11:11:16Z</time>
      </trkpt>
      <trkpt lat="47.31022" lon="6.12418">
        <ele>441.6</ele>
        <time>2024-07-31T11:11:17Z</time>
      </trkpt>
      <trkpt lat="47.31022" lon="6.12415">
        <ele>441.8</ele>
        <time>2024-07-31T11:11:18Z</time>
      </trkpt>
      <trkpt lat="47.31021" lon="6.12412">
        <ele>441.8</ele>
        <time>2024-07-31T11:11:19Z</time>
      </trkpt>
      <trkpt lat="47.3102" lon="6.12409">
        <ele>442</ele>
        <time>2024-07-31T11:11:20Z</time>
      </trkpt>
      <trkpt lat="47.31019" lon="6.12406">
        <ele>442.2</ele>
        <time>2024-07-31T11:11:21Z</time>
      </trkpt>
      <trkpt lat="47.31018" lon="6.12402">
        <ele>442.6</ele>
        <time>2024-07-31T11:11:22Z</time>
      </trkpt>
      <trkpt lat="47.31018" lon="6.12399">
        <ele>442.6</ele>
        <time>2024-07-31T11:11:23Z</time>
      </trkpt>
      <trkpt lat="47.31017" lon="6.12396">
        <ele>442.6</ele>
        <time>2024-07-31T11:11:24Z</time>
      </trkpt>
      <trkpt lat="47.31016" lon="6.12393">
        <ele>443.2</ele>
        <time>2024-07-31T11:11:25Z</time>
      </trkpt>
      <trkpt lat="47.31015" lon="6.1239">
        <ele>443.4</ele>
        <time>2024-07-31T11:11:26Z</time>
      </trkpt>
      <trkpt lat="47.31014" lon="6.12388">
        <ele>443.6</ele>
        <time>2024-07-31T11:11:27Z</time>
      </trkpt>
      <trkpt lat="47.31013" lon="6.12386">
        <ele>443.8</ele>
        <time>2024-07-31T11:11:28Z</time>
      </trkpt>
      <trkpt lat="47.31013" lon="6.12383">
        <ele>444</ele>
        <time>2024-07-31T11:11:29Z</time>
      </trkpt>
      <trkpt lat="47.31012" lon="6.1238">
        <ele>444</ele>
        <time>2024-07-31T11:11:30Z</time>
      </trkpt>
      <trkpt lat="47.31011" lon="6.12377">
        <ele>444.4</ele>
        <time>2024-07-31T11:11:31Z</time>
      </trkpt>
      <trkpt lat="47.3101" lon="6.12374">
        <ele>444.4</ele>
        <time>2024-07-31T11:11:32Z</time>
      </trkpt>
      <trkpt lat="47.31009" lon="6.12371">
        <ele>444.4</ele>
        <time>2024-07-31T11:11:33Z</time>
      </trkpt>
      <trkpt lat="47.31007" lon="6.12367">
        <ele>444.6</ele>
        <time>2024-07-31T11:11:34Z</time>
      </trkpt>
      <trkpt lat="47.31006" lon="6.12364">
        <ele>444.8</ele>
        <time>2024-07-31T11:11:35Z</time>
      </trkpt>
      <trkpt lat="47.31005" lon="6.1236">
        <ele>445.2</ele>
        <time>2024-07-31T11:11:36Z</time>
      </trkpt>
      <trkpt lat="47.31004" lon="6.12357">
        <ele>445.6</ele>
        <time>2024-07-31T11:11:37Z</time>
      </trkpt>
      <trkpt lat="47.31003" lon="6.12354">
        <ele>445.8</ele>
        <time>2024-07-31T11:11:38Z</time>
      </trkpt>
      <trkpt lat="47.31003" lon="6.12352">
        <ele>445.8</ele>
        <time>2024-07-31T11:11:39Z</time>
      </trkpt>
      <trkpt lat="47.31003" lon="6.1235">
        <ele>446</ele>
        <time>2024-07-31T11:11:40Z</time>
      </trkpt>
      <trkpt lat="47.31003" lon="6.12348">
        <ele>446.2</ele>
        <time>2024-07-31T11:11:41Z</time>
      </trkpt>
      <trkpt lat="47.31002" lon="6.12345">
        <ele>446.4</ele>
        <time>2024-07-31T11:11:42Z</time>
      </trkpt>
      <trkpt lat="47.31002" lon="6.12342">
        <ele>446.8</ele>
        <time>2024-07-31T11:11:43Z</time>
      </trkpt>
      <trkpt lat="47.31001" lon="6.12339">
        <ele>446.8</ele>
        <time>2024-07-31T11:11:44Z</time>
      </trkpt>
      <trkpt lat="47.31" lon="6.12336">
        <ele>446.6</ele>
        <time>2024-07-31T11:11:45Z</time>
      </trkpt>
      <trkpt lat="47.30998" lon="6.12333">
        <ele>446.6</ele>
        <time>2024-07-31T11:11:46Z</time>
      </trkpt>
      <trkpt lat="47.30997" lon="6.1233">
        <ele>447</ele>
        <time>2024-07-31T11:11:47Z</time>
      </trkpt>
      <trkpt lat="47.30995" lon="6.12328">
        <ele>447.6</ele>
        <time>2024-07-31T11:11:48Z</time>
      </trkpt>
      <trkpt lat="47.30994" lon="6.12326">
        <ele>447.8</ele>
        <time>2024-07-31T11:11:49Z</time>
      </trkpt>
      <trkpt lat="47.30992" lon="6.12325">
        <ele>447.8</ele>
        <time>2024-07-31T11:11:50Z</time>
      </trkpt>
      <trkpt lat="47.30991" lon="6.12323">
        <ele>448.4</ele>
        <time>2024-07-31T11:11:51Z</time>
      </trkpt>
      <trkpt lat="47.3099" lon="6.12322">
        <ele>448.6</ele>
        <time>2024-07-31T11:11:52Z</time>
      </trkpt>
      <trkpt lat="47.30989" lon="6.1232">
        <ele>449</ele>
        <time>2024-07-31T11:11:53Z</time>
      </trkpt>
      <trkpt lat="47.30988" lon="6.12319">
        <ele>449.2</ele>
        <time>2024-07-31T11:11:54Z</time>
      </trkpt>
      <trkpt lat="47.30987" lon="6.12317">
        <ele>449.6</ele>
        <time>2024-07-31T11:11:55Z</time>
      </trkpt>
      <trkpt lat="47.30986" lon="6.12315">
        <ele>449.6</ele>
        <time>2024-07-31T11:11:56Z</time>
      </trkpt>
      <trkpt lat="47.30985" lon="6.12312">
        <ele>449.6</ele>
        <time>2024-07-31T11:11:57Z</time>
      </trkpt>
      <trkpt lat="47.30984" lon="6.1231">
        <ele>449.8</ele>
        <time>2024-07-31T11:11:58Z</time>
      </trkpt>
      <trkpt lat="47.30983" lon="6.12308">
        <ele>450.2</ele>
        <time>2024-07-31T11:11:59Z</time>
      </trkpt>
      <trkpt lat="47.30982" lon="6.12305">
        <ele>450.2</ele>
        <time>2024-07-31T11:12:00Z</time>
      </trkpt>
      <trkpt lat="47.30982" lon="6.12303">
        <ele>450.2</ele>
        <time>2024-07-31T11:12:01Z</time>
      </trkpt>
      <trkpt lat="47.30981" lon="6.12301">
        <ele>450.2</ele>
        <time>2024-07-31T11:12:02Z</time>
      </trkpt>
      <trkpt lat="47.30981" lon="6.123">
        <ele>450</ele>
        <time>2024-07-31T11:12:03Z</time>
      </trkpt>
      <trkpt lat="47.30981" lon="6.12299">
        <ele>450</ele>
        <time>2024-07-31T11:12:04Z</time>
      </trkpt>
      <trkpt lat="47.30981" lon="6.12299">
        <ele>450</ele>
        <time>2024-07-31T11:12:05Z</time>
      </trkpt>
      <trkpt lat="47.30982" lon="6.12299">
        <ele>450</ele>
        <time>2024-07-31T11:12:06Z</time>
      </trkpt>
      <trkpt lat="47.30982" lon="6.12298">
        <ele>450</ele>
        <time>2024-07-31T11:12:07Z</time>
      </trkpt>
      <trkpt lat="47.30982" lon="6.12298">
        <ele>450</ele>
        <time>2024-07-31T11:12:08Z</time>
      </trkpt>
      <trkpt lat="47.30982" lon="6.12297">
        <ele>450</ele>
        <time>2024-07-31T11:12:09Z</time>
      </trkpt>
      <trkpt lat="47.30981" lon="6.12296">
        <ele>450</ele>
        <time>2024-07-31T11:12:10Z</time>
      </trkpt>
      <trkpt lat="47.30981" lon="6.12296">
        <ele>450</ele>
        <time>2024-07-31T11:12:11Z</time>
      </trkpt>
      <trkpt lat="47.30981" lon="6.12296">
        <ele>449.8</ele>
        <time>2024-07-31T11:12:12Z</time>
      </trkpt>
      <trkpt lat="47.30981" lon="6.12296">
        <ele>450</ele>
        <time>2024-07-31T11:12:13Z</time>
      </trkpt>
      <trkpt lat="47.30981" lon="6.12296">
        <ele>450</ele>
        <time>2024-07-31T11:12:14Z</time>
      </trkpt>
      <trkpt lat="47.30981" lon="6.12296">
        <ele>450</ele>
        <time>2024-07-31T11:12:15Z</time>
      </trkpt>
      <trkpt lat="47.30981" lon="6.12295">
        <ele>450</ele>
        <time>2024-07-31T11:12:16Z</time>
      </trkpt>
      <trkpt lat="47.30981" lon="6.12295">
        <ele>450</ele>
        <time>2024-07-31T11:12:17Z</time>
      </trkpt>
      <trkpt lat="47.30981" lon="6.12295">
        <ele>450</ele>
        <time>2024-07-31T11:12:18Z</time>
      </trkpt>
      <trkpt lat="47.30981" lon="6.12294">
        <ele>449.8</ele>
        <time>2024-07-31T11:12:19Z</time>
      </trkpt>
      <trkpt lat="47.30981" lon="6.12294">
        <ele>450</ele>
        <time>2024-07-31T11:12:20Z</time>
      </trkpt>
      <trkpt lat="47.30981" lon="6.12295">
        <ele>450</ele>
        <time>2024-07-31T11:12:21Z</time>
      </trkpt>
      <trkpt lat="47.30981" lon="6.12295">
        <ele>450</ele>
        <time>2024-07-31T11:12:22Z</time>
      </trkpt>
      <trkpt lat="47.30981" lon="6.12294">
        <ele>449.8</ele>
        <time>2024-07-31T11:12:23Z</time>
      </trkpt>
      <trkpt lat="47.3098" lon="6.12294">
        <ele>450</ele>
        <time>2024-07-31T11:12:24Z</time>
      </trkpt>
      <trkpt lat="47.3098" lon="6.12294">
        <ele>450</ele>
        <time>2024-07-31T11:12:25Z</time>
      </trkpt>
      <trkpt lat="47.3098" lon="6.12294">
        <ele>449.8</ele>
        <time>2024-07-31T11:12:26Z</time>
      </trkpt>
      <trkpt lat="47.3098" lon="6.12294">
        <ele>450</ele>
        <time>2024-07-31T11:12:27Z</time>
      </trkpt>
      <trkpt lat="47.3098" lon="6.12293">
        <ele>450</ele>
        <time>2024-07-31T11:12:28Z</time>
      </trkpt>
      <trkpt lat="47.3098" lon="6.12293">
        <ele>450</ele>
        <time>2024-07-31T11:12:29Z</time>
      </trkpt>
      <trkpt lat="47.3098" lon="6.12293">
        <ele>450</ele>
        <time>2024-07-31T11:12:30Z</time>
      </trkpt>
      <trkpt lat="47.3098" lon="6.12293">
        <ele>450</ele>
        <time>2024-07-31T11:12:31Z</time>
      </trkpt>
      <trkpt lat="47.3098" lon="6.12294">
        <ele>450</ele>
        <time>2024-07-31T11:12:32Z</time>
      </trkpt>
      <trkpt lat="47.30979" lon="6.12293">
        <ele>450.2</ele>
        <time>2024-07-31T11:12:33Z</time>
      </trkpt>
      <trkpt lat="47.30978" lon="6.12292">
        <ele>450</ele>
        <time>2024-07-31T11:12:34Z</time>
      </trkpt>
      <trkpt lat="47.30979" lon="6.12292">
        <ele>450</ele>
        <time>2024-07-31T11:12:35Z</time>
      </trkpt>
      <trkpt lat="47.30979" lon="6.12293">
        <ele>450</ele>
        <time>2024-07-31T11:12:36Z</time>
      </trkpt>
      <trkpt lat="47.30978" lon="6.12293">
        <ele>450</ele>
        <time>2024-07-31T11:12:37Z</time>
      </trkpt>
      <trkpt lat="47.30979" lon="6.12293">
        <ele>450</ele>
        <time>2024-07-31T11:12:38Z</time>
      </trkpt>
      <trkpt lat="47.30978" lon="6.12292">
        <ele>449.8</ele>
        <time>2024-07-31T11:12:39Z</time>
      </trkpt>
      <trkpt lat="47.30978" lon="6.12292">
        <ele>449.8</ele>
        <time>2024-07-31T11:12:40Z</time>
      </trkpt>
      <trkpt lat="47.30978" lon="6.12292">
        <ele>449.8</ele>
        <time>2024-07-31T11:12:41Z</time>
      </trkpt>
      <trkpt lat="47.30978" lon="6.12292">
        <ele>449.8</ele>
        <time>2024-07-31T11:12:42Z</time>
      </trkpt>
      <trkpt lat="47.30978" lon="6.12292">
        <ele>449.8</ele>
        <time>2024-07-31T11:12:43Z</time>
      </trkpt>
      <trkpt lat="47.30978" lon="6.12292">
        <ele>449.8</ele>
        <time>2024-07-31T11:12:44Z</time>
      </trkpt>
      <trkpt lat="47.30978" lon="6.12292">
        <ele>450</ele>
        <time>2024-07-31T11:12:45Z</time>
      </trkpt>
      <trkpt lat="47.30978" lon="6.12292">
        <ele>450</ele>
        <time>2024-07-31T11:12:46Z</time>
      </trkpt>
      <trkpt lat="47.30978" lon="6.12292">
        <ele>450</ele>
        <time>2024-07-31T11:12:47Z</time>
      </trkpt>
      <trkpt lat="47.30978" lon="6.12292">
        <ele>450</ele>
        <time>2024-07-31T11:12:48Z</time>
      </trkpt>
      <trkpt lat="47.30977" lon="6.12292">
        <ele>450</ele>
        <time>2024-07-31T11:12:49Z</time>
      </trkpt>
      <trkpt lat="47.30977" lon="6.12291">
        <ele>450</ele>
        <time>2024-07-31T11:12:50Z</time>
      </trkpt>
      <trkpt lat="47.30977" lon="6.12291">
        <ele>450</ele>
        <time>2024-07-31T11:12:51Z</time>
      </trkpt>
      <trkpt lat="47.30977" lon="6.12291">
        <ele>450</ele>
        <time>2024-07-31T11:12:52Z</time>
      </trkpt>
      <trkpt lat="47.30977" lon="6.12291">
        <ele>450</ele>
        <time>2024-07-31T11:12:53Z</time>
      </trkpt>
      <trkpt lat="47.30977" lon="6.1229">
        <ele>450</ele>
        <time>2024-07-31T11:12:54Z</time>
      </trkpt>
      <trkpt lat="47.30976" lon="6.1229">
        <ele>450</ele>
        <time>2024-07-31T11:12:55Z</time>
      </trkpt>
      <trkpt lat="47.30976" lon="6.1229">
        <ele>449.8</ele>
        <time>2024-07-31T11:12:56Z</time>
      </trkpt>
      <trkpt lat="47.30976" lon="6.1229">
        <ele>449.8</ele>
        <time>2024-07-31T11:12:57Z</time>
      </trkpt>
      <trkpt lat="47.30976" lon="6.12289">
        <ele>449.8</ele>
        <time>2024-07-31T11:12:58Z</time>
      </trkpt>
      <trkpt lat="47.30976" lon="6.12289">
        <ele>449.8</ele>
        <time>2024-07-31T11:12:59Z</time>
      </trkpt>
      <trkpt lat="47.30975" lon="6.12288">
        <ele>449.8</ele>
        <time>2024-07-31T11:13:00Z</time>
      </trkpt>
      <trkpt lat="47.30974" lon="6.12286">
        <ele>449.8</ele>
        <time>2024-07-31T11:13:01Z</time>
      </trkpt>
      <trkpt lat="47.30973" lon="6.12284">
        <ele>450</ele>
        <time>2024-07-31T11:13:02Z</time>
      </trkpt>
      <trkpt lat="47.30972" lon="6.12282">
        <ele>450</ele>
        <time>2024-07-31T11:13:03Z</time>
      </trkpt>
      <trkpt lat="47.30971" lon="6.12281">
        <ele>450.2</ele>
        <time>2024-07-31T11:13:04Z</time>
      </trkpt>
      <trkpt lat="47.30969" lon="6.12278">
        <ele>450</ele>
        <time>2024-07-31T11:13:05Z</time>
      </trkpt>
      <trkpt lat="47.30968" lon="6.12275">
        <ele>449.8</ele>
        <time>2024-07-31T11:13:06Z</time>
      </trkpt>
      <trkpt lat="47.30966" lon="6.12272">
        <ele>450</ele>
        <time>2024-07-31T11:13:07Z</time>
      </trkpt>
      <trkpt lat="47.30964" lon="6.12269">
        <ele>450</ele>
        <time>2024-07-31T11:13:08Z</time>
      </trkpt>
      <trkpt lat="47.30963" lon="6.12266">
        <ele>449.8</ele>
        <time>2024-07-31T11:13:09Z</time>
      </trkpt>
      <trkpt lat="47.30961" lon="6.12264">
        <ele>449.8</ele>
        <time>2024-07-31T11:13:10Z</time>
      </trkpt>
      <trkpt lat="47.30959" lon="6.12262">
        <ele>451</ele>
        <time>2024-07-31T11:13:11Z</time>
      </trkpt>
      <trkpt lat="47.30957" lon="6.1226">
        <ele>451</ele>
        <time>2024-07-31T11:13:12Z</time>
      </trkpt>
      <trkpt lat="47.30956" lon="6.12258">
        <ele>451.2</ele>
        <time>2024-07-31T11:13:13Z</time>
      </trkpt>
      <trkpt lat="47.30954" lon="6.12257">
        <ele>451.2</ele>
        <time>2024-07-31T11:13:14Z</time>
      </trkpt>
      <trkpt lat="47.30952" lon="6.12255">
        <ele>451.2</ele>
        <time>2024-07-31T11:13:15Z</time>
      </trkpt>
      <trkpt lat="47.30951" lon="6.12254">
        <ele>451.2</ele>
        <time>2024-07-31T11:13:16Z</time>
      </trkpt>
      <trkpt lat="47.30949" lon="6.12253">
        <ele>451.2</ele>
        <time>2024-07-31T11:13:17Z</time>
      </trkpt>
      <trkpt lat="47.30948" lon="6.12252">
        <ele>451.4</ele>
        <time>2024-07-31T11:13:18Z</time>
      </trkpt>
      <trkpt lat="47.30946" lon="6.12251">
        <ele>451.8</ele>
        <time>2024-07-31T11:13:19Z</time>
      </trkpt>
      <trkpt lat="47.30944" lon="6.12249">
        <ele>451.6</ele>
        <time>2024-07-31T11:13:20Z</time>
      </trkpt>
      <trkpt lat="47.30943" lon="6.12248">
        <ele>451.6</ele>
        <time>2024-07-31T11:13:21Z</time>
      </trkpt>
      <trkpt lat="47.30941" lon="6.12246">
        <ele>451.8</ele>
        <time>2024-07-31T11:13:22Z</time>
      </trkpt>
      <trkpt lat="47.30939" lon="6.12244">
        <ele>452</ele>
        <time>2024-07-31T11:13:23Z</time>
      </trkpt>
      <trkpt lat="47.30938" lon="6.12243">
        <ele>452</ele>
        <time>2024-07-31T11:13:24Z</time>
      </trkpt>
      <trkpt lat="47.30936" lon="6.12241">
        <ele>452</ele>
        <time>2024-07-31T11:13:25Z</time>
      </trkpt>
      <trkpt lat="47.30934" lon="6.12239">
        <ele>452.2</ele>
        <time>2024-07-31T11:13:26Z</time>
      </trkpt>
      <trkpt lat="47.30932" lon="6.12237">
        <ele>452.6</ele>
        <time>2024-07-31T11:13:27Z</time>
      </trkpt>
      <trkpt lat="47.3093" lon="6.12235">
        <ele>452.6</ele>
        <time>2024-07-31T11:13:28Z</time>
      </trkpt>
      <trkpt lat="47.30928" lon="6.12232">
        <ele>452.8</ele>
        <time>2024-07-31T11:13:29Z</time>
      </trkpt>
      <trkpt lat="47.30927" lon="6.12229">
        <ele>453</ele>
        <time>2024-07-31T11:13:30Z</time>
      </trkpt>
      <trkpt lat="47.30926" lon="6.12227">
        <ele>453</ele>
        <time>2024-07-31T11:13:31Z</time>
      </trkpt>
      <trkpt lat="47.30925" lon="6.12224">
        <ele>453</ele>
        <time>2024-07-31T11:13:32Z</time>
      </trkpt>
      <trkpt lat="47.30924" lon="6.12221">
        <ele>453</ele>
        <time>2024-07-31T11:13:33Z</time>
      </trkpt>
      <trkpt lat="47.30924" lon="6.12218">
        <ele>453.2</ele>
        <time>2024-07-31T11:13:34Z</time>
      </trkpt>
      <trkpt lat="47.30923" lon="6.12214">
        <ele>453.4</ele>
        <time>2024-07-31T11:13:35Z</time>
      </trkpt>
      <trkpt lat="47.30922" lon="6.1221">
        <ele>452.6</ele>
        <time>2024-07-31T11:13:36Z</time>
      </trkpt>
      <trkpt lat="47.3092" lon="6.12206">
        <ele>452.6</ele>
        <time>2024-07-31T11:13:37Z</time>
      </trkpt>
      <trkpt lat="47.30918" lon="6.12201">
        <ele>452.4</ele>
        <time>2024-07-31T11:13:38Z</time>
      </trkpt>
      <trkpt lat="47.30916" lon="6.12197">
        <ele>452.4</ele>
        <time>2024-07-31T11:13:39Z</time>
      </trkpt>
      <trkpt lat="47.30914" lon="6.12194">
        <ele>452.4</ele>
        <time>2024-07-31T11:13:40Z</time>
      </trkpt>
      <trkpt lat="47.30911" lon="6.1219">
        <ele>452.4</ele>
        <time>2024-07-31T11:13:41Z</time>
      </trkpt>
      <trkpt lat="47.30909" lon="6.12186">
        <ele>451.8</ele>
        <time>2024-07-31T11:13:42Z</time>
      </trkpt>
      <trkpt lat="47.30907" lon="6.12181">
        <ele>451.6</ele>
        <time>2024-07-31T11:13:43Z</time>
      </trkpt>
      <trkpt lat="47.30905" lon="6.12177">
        <ele>452</ele>
        <time>2024-07-31T11:13:44Z</time>
      </trkpt>
      <trkpt lat="47.30903" lon="6.12172">
        <ele>451.2</ele>
        <time>2024-07-31T11:13:45Z</time>
      </trkpt>
      <trkpt lat="47.309" lon="6.12166">
        <ele>450.4</ele>
        <time>2024-07-31T11:13:46Z</time>
      </trkpt>
      <trkpt lat="47.30898" lon="6.1216">
        <ele>451.2</ele>
        <time>2024-07-31T11:13:47Z</time>
      </trkpt>
      <trkpt lat="47.30897" lon="6.12154">
        <ele>450.6</ele>
        <time>2024-07-31T11:13:48Z</time>
      </trkpt>
      <trkpt lat="47.30897" lon="6.12147">
        <ele>449</ele>
        <time>2024-07-31T11:13:49Z</time>
      </trkpt>
      <trkpt lat="47.30897" lon="6.12138">
        <ele>448.4</ele>
        <time>2024-07-31T11:13:50Z</time>
      </trkpt>
      <trkpt lat="47.30896" lon="6.12127">
        <ele>447.2</ele>
        <time>2024-07-31T11:13:51Z</time>
      </trkpt>
      <trkpt lat="47.30895" lon="6.12118">
        <ele>446</ele>
        <time>2024-07-31T11:13:52Z</time>
      </trkpt>
      <trkpt lat="47.30895" lon="6.12109">
        <ele>444.8</ele>
        <time>2024-07-31T11:13:53Z</time>
      </trkpt>
      <trkpt lat="47.30895" lon="6.12102">
        <ele>444.4</ele>
        <time>2024-07-31T11:13:54Z</time>
      </trkpt>
      <trkpt lat="47.30896" lon="6.12096">
        <ele>444</ele>
        <time>2024-07-31T11:13:55Z</time>
      </trkpt>
      <trkpt lat="47.30898" lon="6.12091">
        <ele>443.6</ele>
        <time>2024-07-31T11:13:56Z</time>
      </trkpt>
      <trkpt lat="47.309" lon="6.12087">
        <ele>443</ele>
        <time>2024-07-31T11:13:57Z</time>
      </trkpt>
      <trkpt lat="47.30904" lon="6.12084">
        <ele>443.2</ele>
        <time>2024-07-31T11:13:58Z</time>
      </trkpt>
      <trkpt lat="47.30908" lon="6.12079">
        <ele>443.2</ele>
        <time>2024-07-31T11:13:59Z</time>
      </trkpt>
      <trkpt lat="47.30913" lon="6.12074">
        <ele>442.4</ele>
        <time>2024-07-31T11:14:00Z</time>
      </trkpt>
      <trkpt lat="47.30918" lon="6.12068">
        <ele>442.2</ele>
        <time>2024-07-31T11:14:01Z</time>
      </trkpt>
      <trkpt lat="47.30922" lon="6.12062">
        <ele>442</ele>
        <time>2024-07-31T11:14:02Z</time>
      </trkpt>
      <trkpt lat="47.30926" lon="6.12056">
        <ele>442.8</ele>
        <time>2024-07-31T11:14:03Z</time>
      </trkpt>
      <trkpt lat="47.30928" lon="6.12049">
        <ele>443</ele>
        <time>2024-07-31T11:14:04Z</time>
      </trkpt>
      <trkpt lat="47.3093" lon="6.12043">
        <ele>443</ele>
        <time>2024-07-31T11:14:05Z</time>
      </trkpt>
      <trkpt lat="47.30932" lon="6.12037">
        <ele>443.8</ele>
        <time>2024-07-31T11:14:06Z</time>
      </trkpt>
      <trkpt lat="47.30933" lon="6.12033">
        <ele>444.2</ele>
        <time>2024-07-31T11:14:07Z</time>
      </trkpt>
      <trkpt lat="47.30934" lon="6.12028">
        <ele>444.6</ele>
        <time>2024-07-31T11:14:08Z</time>
      </trkpt>
      <trkpt lat="47.30934" lon="6.12024">
        <ele>445.2</ele>
        <time>2024-07-31T11:14:09Z</time>
      </trkpt>
      <trkpt lat="47.30934" lon="6.12019">
        <ele>445.4</ele>
        <time>2024-07-31T11:14:10Z</time>
      </trkpt>
      <trkpt lat="47.30934" lon="6.12014">
        <ele>446.2</ele>
        <time>2024-07-31T11:14:11Z</time>
      </trkpt>
      <trkpt lat="47.30933" lon="6.12011">
        <ele>446.2</ele>
        <time>2024-07-31T11:14:12Z</time>
      </trkpt>
      <trkpt lat="47.30931" lon="6.12007">
        <ele>446.8</ele>
        <time>2024-07-31T11:14:13Z</time>
      </trkpt>
      <trkpt lat="47.3093" lon="6.12004">
        <ele>446.6</ele>
        <time>2024-07-31T11:14:14Z</time>
      </trkpt>
      <trkpt lat="47.30929" lon="6.11999">
        <ele>447</ele>
        <time>2024-07-31T11:14:15Z</time>
      </trkpt>
      <trkpt lat="47.30927" lon="6.11995">
        <ele>447</ele>
        <time>2024-07-31T11:14:16Z</time>
      </trkpt>
      <trkpt lat="47.30926" lon="6.11991">
        <ele>447.4</ele>
        <time>2024-07-31T11:14:17Z</time>
      </trkpt>
      <trkpt lat="47.30925" lon="6.11987">
        <ele>447.4</ele>
        <time>2024-07-31T11:14:18Z</time>
      </trkpt>
      <trkpt lat="47.30924" lon="6.11982">
        <ele>447</ele>
        <time>2024-07-31T11:14:19Z</time>
      </trkpt>
      <trkpt lat="47.30923" lon="6.11977">
        <ele>447.4</ele>
        <time>2024-07-31T11:14:20Z</time>
      </trkpt>
      <trkpt lat="47.30921" lon="6.11972">
        <ele>447.4</ele>
        <time>2024-07-31T11:14:21Z</time>
      </trkpt>
      <trkpt lat="47.30921" lon="6.11967">
        <ele>447.4</ele>
        <time>2024-07-31T11:14:22Z</time>
      </trkpt>
      <trkpt lat="47.3092" lon="6.11961">
        <ele>447.2</ele>
        <time>2024-07-31T11:14:23Z</time>
      </trkpt>
      <trkpt lat="47.3092" lon="6.11956">
        <ele>446.8</ele>
        <time>2024-07-31T11:14:24Z</time>
      </trkpt>
      <trkpt lat="47.30919" lon="6.1195">
        <ele>446.2</ele>
        <time>2024-07-31T11:14:25Z</time>
      </trkpt>
      <trkpt lat="47.30918" lon="6.11943">
        <ele>446.2</ele>
        <time>2024-07-31T11:14:26Z</time>
      </trkpt>
      <trkpt lat="47.30917" lon="6.11937">
        <ele>446.4</ele>
        <time>2024-07-31T11:14:27Z</time>
      </trkpt>
      <trkpt lat="47.30917" lon="6.11931">
        <ele>446.8</ele>
        <time>2024-07-31T11:14:28Z</time>
      </trkpt>
      <trkpt lat="47.30916" lon="6.11925">
        <ele>446.6</ele>
        <time>2024-07-31T11:14:29Z</time>
      </trkpt>
      <trkpt lat="47.30915" lon="6.11919">
        <ele>446.4</ele>
        <time>2024-07-31T11:14:30Z</time>
      </trkpt>
      <trkpt lat="47.30914" lon="6.11914">
        <ele>446</ele>
        <time>2024-07-31T11:14:31Z</time>
      </trkpt>
      <trkpt lat="47.30913" lon="6.11908">
        <ele>446.2</ele>
        <time>2024-07-31T11:14:32Z</time>
      </trkpt>
      <trkpt lat="47.30912" lon="6.11903">
        <ele>446.2</ele>
        <time>2024-07-31T11:14:33Z</time>
      </trkpt>
      <trkpt lat="47.30911" lon="6.11897">
        <ele>446.4</ele>
        <time>2024-07-31T11:14:34Z</time>
      </trkpt>
      <trkpt lat="47.3091" lon="6.11891">
        <ele>446.4</ele>
        <time>2024-07-31T11:14:35Z</time>
      </trkpt>
      <trkpt lat="47.30909" lon="6.11886">
        <ele>446</ele>
        <time>2024-07-31T11:14:36Z</time>
      </trkpt>
      <trkpt lat="47.30908" lon="6.1188">
        <ele>446.2</ele>
        <time>2024-07-31T11:14:37Z</time>
      </trkpt>
      <trkpt lat="47.30907" lon="6.11875">
        <ele>446.8</ele>
        <time>2024-07-31T11:14:38Z</time>
      </trkpt>
      <trkpt lat="47.30905" lon="6.11871">
        <ele>446.8</ele>
        <time>2024-07-31T11:14:39Z</time>
      </trkpt>
      <trkpt lat="47.30904" lon="6.11867">
        <ele>447.2</ele>
        <time>2024-07-31T11:14:40Z</time>
      </trkpt>
      <trkpt lat="47.30903" lon="6.11863">
        <ele>447</ele>
        <time>2024-07-31T11:14:41Z</time>
      </trkpt>
      <trkpt lat="47.30903" lon="6.11859">
        <ele>447</ele>
        <time>2024-07-31T11:14:42Z</time>
      </trkpt>
      <trkpt lat="47.30902" lon="6.11855">
        <ele>447</ele>
        <time>2024-07-31T11:14:43Z</time>
      </trkpt>
      <trkpt lat="47.30901" lon="6.11849">
        <ele>446.2</ele>
        <time>2024-07-31T11:14:44Z</time>
      </trkpt>
      <trkpt lat="47.30901" lon="6.11845">
        <ele>446.2</ele>
        <time>2024-07-31T11:14:45Z</time>
      </trkpt>
      <trkpt lat="47.30901" lon="6.11839">
        <ele>446.6</ele>
        <time>2024-07-31T11:14:46Z</time>
      </trkpt>
      <trkpt lat="47.30901" lon="6.11832">
        <ele>446.6</ele>
        <time>2024-07-31T11:14:47Z</time>
      </trkpt>
      <trkpt lat="47.30901" lon="6.11826">
        <ele>446.4</ele>
        <time>2024-07-31T11:14:48Z</time>
      </trkpt>
      <trkpt lat="47.309" lon="6.1182">
        <ele>446.2</ele>
        <time>2024-07-31T11:14:49Z</time>
      </trkpt>
      <trkpt lat="47.30899" lon="6.11814">
        <ele>446.4</ele>
        <time>2024-07-31T11:14:50Z</time>
      </trkpt>
      <trkpt lat="47.30898" lon="6.11807">
        <ele>446.2</ele>
        <time>2024-07-31T11:14:51Z</time>
      </trkpt>
      <trkpt lat="47.30897" lon="6.118">
        <ele>445.6</ele>
        <time>2024-07-31T11:14:52Z</time>
      </trkpt>
      <trkpt lat="47.30896" lon="6.11794">
        <ele>445.4</ele>
        <time>2024-07-31T11:14:53Z</time>
      </trkpt>
      <trkpt lat="47.30896" lon="6.11787">
        <ele>445</ele>
        <time>2024-07-31T11:14:54Z</time>
      </trkpt>
      <trkpt lat="47.30896" lon="6.1178">
        <ele>445.4</ele>
        <time>2024-07-31T11:14:55Z</time>
      </trkpt>
      <trkpt lat="47.30895" lon="6.11772">
        <ele>444.6</ele>
        <time>2024-07-31T11:14:56Z</time>
      </trkpt>
      <trkpt lat="47.30893" lon="6.11765">
        <ele>444.6</ele>
        <time>2024-07-31T11:14:57Z</time>
      </trkpt>
      <trkpt lat="47.30892" lon="6.11758">
        <ele>444.8</ele>
        <time>2024-07-31T11:14:58Z</time>
      </trkpt>
      <trkpt lat="47.30891" lon="6.11751">
        <ele>444.4</ele>
        <time>2024-07-31T11:14:59Z</time>
      </trkpt>
      <trkpt lat="47.3089" lon="6.11744">
        <ele>444.2</ele>
        <time>2024-07-31T11:15:00Z</time>
      </trkpt>
      <trkpt lat="47.30889" lon="6.11737">
        <ele>443.8</ele>
        <time>2024-07-31T11:15:01Z</time>
      </trkpt>
      <trkpt lat="47.3089" lon="6.11731">
        <ele>443.8</ele>
        <time>2024-07-31T11:15:02Z</time>
      </trkpt>
      <trkpt lat="47.3089" lon="6.11724">
        <ele>443.8</ele>
        <time>2024-07-31T11:15:03Z</time>
      </trkpt>
      <trkpt lat="47.30891" lon="6.11719">
        <ele>443.8</ele>
        <time>2024-07-31T11:15:04Z</time>
      </trkpt>
      <trkpt lat="47.30892" lon="6.11714">
        <ele>443.8</ele>
        <time>2024-07-31T11:15:05Z</time>
      </trkpt>
      <trkpt lat="47.30893" lon="6.1171">
        <ele>443.8</ele>
        <time>2024-07-31T11:15:06Z</time>
      </trkpt>
      <trkpt lat="47.30893" lon="6.11706">
        <ele>444.4</ele>
        <time>2024-07-31T11:15:07Z</time>
      </trkpt>
      <trkpt lat="47.30893" lon="6.11702">
        <ele>444.8</ele>
        <time>2024-07-31T11:15:08Z</time>
      </trkpt>
      <trkpt lat="47.30895" lon="6.11699">
        <ele>445.2</ele>
        <time>2024-07-31T11:15:09Z</time>
      </trkpt>
      <trkpt lat="47.30895" lon="6.11696">
        <ele>445.2</ele>
        <time>2024-07-31T11:15:10Z</time>
      </trkpt>
      <trkpt lat="47.30895" lon="6.11694">
        <ele>445.6</ele>
        <time>2024-07-31T11:15:11Z</time>
      </trkpt>
      <trkpt lat="47.30896" lon="6.11692">
        <ele>445.8</ele>
        <time>2024-07-31T11:15:12Z</time>
      </trkpt>
      <trkpt lat="47.30897" lon="6.1169">
        <ele>445.8</ele>
        <time>2024-07-31T11:15:13Z</time>
      </trkpt>
      <trkpt lat="47.30899" lon="6.11687">
        <ele>445.8</ele>
        <time>2024-07-31T11:15:14Z</time>
      </trkpt>
      <trkpt lat="47.30901" lon="6.11683">
        <ele>445.6</ele>
        <time>2024-07-31T11:15:15Z</time>
      </trkpt>
      <trkpt lat="47.30903" lon="6.11678">
        <ele>445.4</ele>
        <time>2024-07-31T11:15:16Z</time>
      </trkpt>
      <trkpt lat="47.30904" lon="6.11673">
        <ele>445.2</ele>
        <time>2024-07-31T11:15:17Z</time>
      </trkpt>
      <trkpt lat="47.30904" lon="6.11668">
        <ele>445</ele>
        <time>2024-07-31T11:15:18Z</time>
      </trkpt>
      <trkpt lat="47.30904" lon="6.11661">
        <ele>445.4</ele>
        <time>2024-07-31T11:15:19Z</time>
      </trkpt>
      <trkpt lat="47.30904" lon="6.11656">
        <ele>445</ele>
        <time>2024-07-31T11:15:20Z</time>
      </trkpt>
      <trkpt lat="47.30903" lon="6.1165">
        <ele>445</ele>
        <time>2024-07-31T11:15:21Z</time>
      </trkpt>
      <trkpt lat="47.30903" lon="6.11645">
        <ele>445</ele>
        <time>2024-07-31T11:15:22Z</time>
      </trkpt>
      <trkpt lat="47.30903" lon="6.1164">
        <ele>444.8</ele>
        <time>2024-07-31T11:15:23Z</time>
      </trkpt>
      <trkpt lat="47.30903" lon="6.11635">
        <ele>444.6</ele>
        <time>2024-07-31T11:15:24Z</time>
      </trkpt>
      <trkpt lat="47.30902" lon="6.11631">
        <ele>444.6</ele>
        <time>2024-07-31T11:15:25Z</time>
      </trkpt>
      <trkpt lat="47.30902" lon="6.11627">
        <ele>444.6</ele>
        <time>2024-07-31T11:15:26Z</time>
      </trkpt>
      <trkpt lat="47.30901" lon="6.11622">
        <ele>444.6</ele>
        <time>2024-07-31T11:15:27Z</time>
      </trkpt>
      <trkpt lat="47.309" lon="6.11618">
        <ele>444.6</ele>
        <time>2024-07-31T11:15:28Z</time>
      </trkpt>
      <trkpt lat="47.309" lon="6.11614">
        <ele>445</ele>
        <time>2024-07-31T11:15:29Z</time>
      </trkpt>
      <trkpt lat="47.30899" lon="6.11609">
        <ele>444.4</ele>
        <time>2024-07-31T11:15:30Z</time>
      </trkpt>
      <trkpt lat="47.30898" lon="6.11604">
        <ele>444.6</ele>
        <time>2024-07-31T11:15:31Z</time>
      </trkpt>
      <trkpt lat="47.30897" lon="6.11599">
        <ele>445</ele>
        <time>2024-07-31T11:15:32Z</time>
      </trkpt>
      <trkpt lat="47.30896" lon="6.11593">
        <ele>444.8</ele>
        <time>2024-07-31T11:15:33Z</time>
      </trkpt>
      <trkpt lat="47.30895" lon="6.11587">
        <ele>445</ele>
        <time>2024-07-31T11:15:34Z</time>
      </trkpt>
      <trkpt lat="47.30894" lon="6.11582">
        <ele>444.6</ele>
        <time>2024-07-31T11:15:35Z</time>
      </trkpt>
      <trkpt lat="47.30894" lon="6.11577">
        <ele>444.6</ele>
        <time>2024-07-31T11:15:36Z</time>
      </trkpt>
      <trkpt lat="47.30893" lon="6.11572">
        <ele>444</ele>
        <time>2024-07-31T11:15:37Z</time>
      </trkpt>
      <trkpt lat="47.30892" lon="6.11566">
        <ele>444.4</ele>
        <time>2024-07-31T11:15:38Z</time>
      </trkpt>
      <trkpt lat="47.30891" lon="6.11561">
        <ele>444.4</ele>
        <time>2024-07-31T11:15:39Z</time>
      </trkpt>
      <trkpt lat="47.30891" lon="6.11556">
        <ele>444</ele>
        <time>2024-07-31T11:15:40Z</time>
      </trkpt>
      <trkpt lat="47.30891" lon="6.1155">
        <ele>443.4</ele>
        <time>2024-07-31T11:15:41Z</time>
      </trkpt>
      <trkpt lat="47.30891" lon="6.11544">
        <ele>443.4</ele>
        <time>2024-07-31T11:15:42Z</time>
      </trkpt>
      <trkpt lat="47.30891" lon="6.11538">
        <ele>442.6</ele>
        <time>2024-07-31T11:15:43Z</time>
      </trkpt>
      <trkpt lat="47.30891" lon="6.11532">
        <ele>442.2</ele>
        <time>2024-07-31T11:15:44Z</time>
      </trkpt>
      <trkpt lat="47.30893" lon="6.11526">
        <ele>441.6</ele>
        <time>2024-07-31T11:15:45Z</time>
      </trkpt>
      <trkpt lat="47.30896" lon="6.11519">
        <ele>440.4</ele>
        <time>2024-07-31T11:15:46Z</time>
      </trkpt>
      <trkpt lat="47.30898" lon="6.1151">
        <ele>437.8</ele>
        <time>2024-07-31T11:15:47Z</time>
      </trkpt>
      <trkpt lat="47.30901" lon="6.11501">
        <ele>437.6</ele>
        <time>2024-07-31T11:15:48Z</time>
      </trkpt>
      <trkpt lat="47.30904" lon="6.11491">
        <ele>437.6</ele>
        <time>2024-07-31T11:15:49Z</time>
      </trkpt>
      <trkpt lat="47.30907" lon="6.11482">
        <ele>437.2</ele>
        <time>2024-07-31T11:15:50Z</time>
      </trkpt>
      <trkpt lat="47.3091" lon="6.11473">
        <ele>435.2</ele>
        <time>2024-07-31T11:15:51Z</time>
      </trkpt>
      <trkpt lat="47.30913" lon="6.11465">
        <ele>434.6</ele>
        <time>2024-07-31T11:15:52Z</time>
      </trkpt>
      <trkpt lat="47.30915" lon="6.11457">
        <ele>433.2</ele>
        <time>2024-07-31T11:15:53Z</time>
      </trkpt>
      <trkpt lat="47.30917" lon="6.11448">
        <ele>434</ele>
        <time>2024-07-31T11:15:54Z</time>
      </trkpt>
      <trkpt lat="47.30919" lon="6.11439">
        <ele>432.8</ele>
        <time>2024-07-31T11:15:55Z</time>
      </trkpt>
      <trkpt lat="47.3092" lon="6.11431">
        <ele>432.2</ele>
        <time>2024-07-31T11:15:56Z</time>
      </trkpt>
      <trkpt lat="47.30921" lon="6.11424">
        <ele>431.8</ele>
        <time>2024-07-31T11:15:57Z</time>
      </trkpt>
      <trkpt lat="47.30921" lon="6.11416">
        <ele>432</ele>
        <time>2024-07-31T11:15:58Z</time>
      </trkpt>
      <trkpt lat="47.30921" lon="6.11409">
        <ele>431.6</ele>
        <time>2024-07-31T11:15:59Z</time>
      </trkpt>
      <trkpt lat="47.30921" lon="6.11402">
        <ele>430.8</ele>
        <time>2024-07-31T11:16:00Z</time>
      </trkpt>
      <trkpt lat="47.3092" lon="6.11396">
        <ele>431.2</ele>
        <time>2024-07-31T11:16:01Z</time>
      </trkpt>
      <trkpt lat="47.30919" lon="6.1139">
        <ele>431</ele>
        <time>2024-07-31T11:16:02Z</time>
      </trkpt>
      <trkpt lat="47.30917" lon="6.11384">
        <ele>431.2</ele>
        <time>2024-07-31T11:16:03Z</time>
      </trkpt>
      <trkpt lat="47.30916" lon="6.1138">
        <ele>432.4</ele>
        <time>2024-07-31T11:16:04Z</time>
      </trkpt>
      <trkpt lat="47.30915" lon="6.11376">
        <ele>432.2</ele>
        <time>2024-07-31T11:16:05Z</time>
      </trkpt>
      <trkpt lat="47.30913" lon="6.11373">
        <ele>432.6</ele>
        <time>2024-07-31T11:16:06Z</time>
      </trkpt>
      <trkpt lat="47.30912" lon="6.11369">
        <ele>433.2</ele>
        <time>2024-07-31T11:16:07Z</time>
      </trkpt>
      <trkpt lat="47.30911" lon="6.11365">
        <ele>433.4</ele>
        <time>2024-07-31T11:16:08Z</time>
      </trkpt>
      <trkpt lat="47.30909" lon="6.11362">
        <ele>433.8</ele>
        <time>2024-07-31T11:16:09Z</time>
      </trkpt>
      <trkpt lat="47.30908" lon="6.11358">
        <ele>434.4</ele>
        <time>2024-07-31T11:16:10Z</time>
      </trkpt>
      <trkpt lat="47.30907" lon="6.11355">
        <ele>434.4</ele>
        <time>2024-07-31T11:16:11Z</time>
      </trkpt>
      <trkpt lat="47.30905" lon="6.11352">
        <ele>434.4</ele>
        <time>2024-07-31T11:16:12Z</time>
      </trkpt>
      <trkpt lat="47.30904" lon="6.11349">
        <ele>435.2</ele>
        <time>2024-07-31T11:16:13Z</time>
      </trkpt>
      <trkpt lat="47.30903" lon="6.11346">
        <ele>435.2</ele>
        <time>2024-07-31T11:16:14Z</time>
      </trkpt>
      <trkpt lat="47.30902" lon="6.11342">
        <ele>435.6</ele>
        <time>2024-07-31T11:16:15Z</time>
      </trkpt>
      <trkpt lat="47.30901" lon="6.11339">
        <ele>435.8</ele>
        <time>2024-07-31T11:16:16Z</time>
      </trkpt>
      <trkpt lat="47.309" lon="6.11337">
        <ele>436.2</ele>
        <time>2024-07-31T11:16:17Z</time>
      </trkpt>
      <trkpt lat="47.30899" lon="6.11334">
        <ele>436.2</ele>
        <time>2024-07-31T11:16:18Z</time>
      </trkpt>
      <trkpt lat="47.30899" lon="6.11332">
        <ele>436.4</ele>
        <time>2024-07-31T11:16:19Z</time>
      </trkpt>
      <trkpt lat="47.30899" lon="6.1133">
        <ele>436.6</ele>
        <time>2024-07-31T11:16:20Z</time>
      </trkpt>
      <trkpt lat="47.30899" lon="6.11329">
        <ele>436.6</ele>
        <time>2024-07-31T11:16:21Z</time>
      </trkpt>
      <trkpt lat="47.30899" lon="6.11329">
        <ele>436.6</ele>
        <time>2024-07-31T11:16:22Z</time>
      </trkpt>
      <trkpt lat="47.30898" lon="6.11328">
        <ele>436.6</ele>
        <time>2024-07-31T11:16:23Z</time>
      </trkpt>
      <trkpt lat="47.30897" lon="6.11327">
        <ele>436.8</ele>
        <time>2024-07-31T11:16:24Z</time>
      </trkpt>
      <trkpt lat="47.30896" lon="6.11325">
        <ele>437</ele>
        <time>2024-07-31T11:16:25Z</time>
      </trkpt>
      <trkpt lat="47.30895" lon="6.11323">
        <ele>437.2</ele>
        <time>2024-07-31T11:16:26Z</time>
      </trkpt>
      <trkpt lat="47.30894" lon="6.1132">
        <ele>437.4</ele>
        <time>2024-07-31T11:16:27Z</time>
      </trkpt>
      <trkpt lat="47.30893" lon="6.11317">
        <ele>437.2</ele>
        <time>2024-07-31T11:16:28Z</time>
      </trkpt>
      <trkpt lat="47.30891" lon="6.11314">
        <ele>437.6</ele>
        <time>2024-07-31T11:16:29Z</time>
      </trkpt>
      <trkpt lat="47.3089" lon="6.11311">
        <ele>437.8</ele>
        <time>2024-07-31T11:16:30Z</time>
      </trkpt>
      <trkpt lat="47.30888" lon="6.11309">
        <ele>438</ele>
        <time>2024-07-31T11:16:31Z</time>
      </trkpt>
      <trkpt lat="47.30887" lon="6.11307">
        <ele>438</ele>
        <time>2024-07-31T11:16:32Z</time>
      </trkpt>
      <trkpt lat="47.30885" lon="6.11305">
        <ele>438.2</ele>
        <time>2024-07-31T11:16:33Z</time>
      </trkpt>
      <trkpt lat="47.30883" lon="6.11303">
        <ele>438.2</ele>
        <time>2024-07-31T11:16:34Z</time>
      </trkpt>
      <trkpt lat="47.30881" lon="6.11302">
        <ele>438.6</ele>
        <time>2024-07-31T11:16:35Z</time>
      </trkpt>
      <trkpt lat="47.30879" lon="6.11301">
        <ele>438.8</ele>
        <time>2024-07-31T11:16:36Z</time>
      </trkpt>
      <trkpt lat="47.30877" lon="6.113">
        <ele>439</ele>
        <time>2024-07-31T11:16:37Z</time>
      </trkpt>
      <trkpt lat="47.30875" lon="6.11298">
        <ele>439.2</ele>
        <time>2024-07-31T11:16:38Z</time>
      </trkpt>
      <trkpt lat="47.30873" lon="6.11296">
        <ele>439.6</ele>
        <time>2024-07-31T11:16:39Z</time>
      </trkpt>
      <trkpt lat="47.30871" lon="6.11295">
        <ele>439.6</ele>
        <time>2024-07-31T11:16:40Z</time>
      </trkpt>
      <trkpt lat="47.30868" lon="6.11294">
        <ele>440</ele>
        <time>2024-07-31T11:16:41Z</time>
      </trkpt>
      <trkpt lat="47.30866" lon="6.11292">
        <ele>440.2</ele>
        <time>2024-07-31T11:16:42Z</time>
      </trkpt>
      <trkpt lat="47.30864" lon="6.11291">
        <ele>440.4</ele>
        <time>2024-07-31T11:16:43Z</time>
      </trkpt>
      <trkpt lat="47.30862" lon="6.1129">
        <ele>440.6</ele>
        <time>2024-07-31T11:16:44Z</time>
      </trkpt>
      <trkpt lat="47.3086" lon="6.11289">
        <ele>441</ele>
        <time>2024-07-31T11:16:45Z</time>
      </trkpt>
      <trkpt lat="47.30858" lon="6.11287">
        <ele>441</ele>
        <time>2024-07-31T11:16:46Z</time>
      </trkpt>
      <trkpt lat="47.30856" lon="6.11286">
        <ele>441</ele>
        <time>2024-07-31T11:16:47Z</time>
      </trkpt>
      <trkpt lat="47.30854" lon="6.11284">
        <ele>441.4</ele>
        <time>2024-07-31T11:16:48Z</time>
      </trkpt>
      <trkpt lat="47.30852" lon="6.11282">
        <ele>441.4</ele>
        <time>2024-07-31T11:16:49Z</time>
      </trkpt>
      <trkpt lat="47.30851" lon="6.1128">
        <ele>441.4</ele>
        <time>2024-07-31T11:16:50Z</time>
      </trkpt>
      <trkpt lat="47.30849" lon="6.11278">
        <ele>441.6</ele>
        <time>2024-07-31T11:16:51Z</time>
      </trkpt>
      <trkpt lat="47.30847" lon="6.11277">
        <ele>441.6</ele>
        <time>2024-07-31T11:16:52Z</time>
      </trkpt>
      <trkpt lat="47.30846" lon="6.11275">
        <ele>441.6</ele>
        <time>2024-07-31T11:16:53Z</time>
      </trkpt>
      <trkpt lat="47.30844" lon="6.11273">
        <ele>441.8</ele>
        <time>2024-07-31T11:16:54Z</time>
      </trkpt>
      <trkpt lat="47.30842" lon="6.11271">
        <ele>442</ele>
        <time>2024-07-31T11:16:55Z</time>
      </trkpt>
      <trkpt lat="47.3084" lon="6.11269">
        <ele>442</ele>
        <time>2024-07-31T11:16:56Z</time>
      </trkpt>
      <trkpt lat="47.30839" lon="6.11267">
        <ele>442</ele>
        <time>2024-07-31T11:16:57Z</time>
      </trkpt>
      <trkpt lat="47.30837" lon="6.11265">
        <ele>442</ele>
        <time>2024-07-31T11:16:58Z</time>
      </trkpt>
      <trkpt lat="47.30834" lon="6.11263">
        <ele>442.2</ele>
        <time>2024-07-31T11:16:59Z</time>
      </trkpt>
      <trkpt lat="47.30832" lon="6.11262">
        <ele>442.2</ele>
        <time>2024-07-31T11:17:00Z</time>
      </trkpt>
      <trkpt lat="47.3083" lon="6.1126">
        <ele>442.2</ele>
        <time>2024-07-31T11:17:01Z</time>
      </trkpt>
      <trkpt lat="47.30827" lon="6.11258">
        <ele>442.4</ele>
        <time>2024-07-31T11:17:02Z</time>
      </trkpt>
      <trkpt lat="47.30825" lon="6.11255">
        <ele>442.2</ele>
        <time>2024-07-31T11:17:03Z</time>
      </trkpt>
      <trkpt lat="47.30823" lon="6.11253">
        <ele>442.4</ele>
        <time>2024-07-31T11:17:04Z</time>
      </trkpt>
      <trkpt lat="47.30821" lon="6.1125">
        <ele>442.2</ele>
        <time>2024-07-31T11:17:05Z</time>
      </trkpt>
      <trkpt lat="47.30819" lon="6.11248">
        <ele>442.2</ele>
        <time>2024-07-31T11:17:06Z</time>
      </trkpt>
      <trkpt lat="47.30816" lon="6.11245">
        <ele>442</ele>
        <time>2024-07-31T11:17:07Z</time>
      </trkpt>
      <trkpt lat="47.30815" lon="6.11243">
        <ele>442</ele>
        <time>2024-07-31T11:17:08Z</time>
      </trkpt>
      <trkpt lat="47.30813" lon="6.11241">
        <ele>442</ele>
        <time>2024-07-31T11:17:09Z</time>
      </trkpt>
      <trkpt lat="47.30811" lon="6.11239">
        <ele>441.8</ele>
        <time>2024-07-31T11:17:10Z</time>
      </trkpt>
      <trkpt lat="47.3081" lon="6.11236">
        <ele>441.8</ele>
        <time>2024-07-31T11:17:11Z</time>
      </trkpt>
      <trkpt lat="47.30808" lon="6.11233">
        <ele>442</ele>
        <time>2024-07-31T11:17:12Z</time>
      </trkpt>
      <trkpt lat="47.30807" lon="6.11229">
        <ele>441.8</ele>
        <time>2024-07-31T11:17:13Z</time>
      </trkpt>
      <trkpt lat="47.30806" lon="6.11224">
        <ele>441.4</ele>
        <time>2024-07-31T11:17:14Z</time>
      </trkpt>
      <trkpt lat="47.30805" lon="6.11219">
        <ele>441</ele>
        <time>2024-07-31T11:17:15Z</time>
      </trkpt>
      <trkpt lat="47.30804" lon="6.11213">
        <ele>440.4</ele>
        <time>2024-07-31T11:17:16Z</time>
      </trkpt>
      <trkpt lat="47.30803" lon="6.11205">
        <ele>440.2</ele>
        <time>2024-07-31T11:17:17Z</time>
      </trkpt>
      <trkpt lat="47.30801" lon="6.11198">
        <ele>440.2</ele>
        <time>2024-07-31T11:17:18Z</time>
      </trkpt>
      <trkpt lat="47.30799" lon="6.11189">
        <ele>439.2</ele>
        <time>2024-07-31T11:17:19Z</time>
      </trkpt>
      <trkpt lat="47.30798" lon="6.1118">
        <ele>439</ele>
        <time>2024-07-31T11:17:20Z</time>
      </trkpt>
      <trkpt lat="47.30795" lon="6.11171">
        <ele>438.6</ele>
        <time>2024-07-31T11:17:21Z</time>
      </trkpt>
      <trkpt lat="47.30793" lon="6.11161">
        <ele>438</ele>
        <time>2024-07-31T11:17:22Z</time>
      </trkpt>
      <trkpt lat="47.3079" lon="6.11151">
        <ele>437.6</ele>
        <time>2024-07-31T11:17:23Z</time>
      </trkpt>
      <trkpt lat="47.30787" lon="6.11141">
        <ele>437.8</ele>
        <time>2024-07-31T11:17:24Z</time>
      </trkpt>
      <trkpt lat="47.30784" lon="6.1113">
        <ele>436.8</ele>
        <time>2024-07-31T11:17:25Z</time>
      </trkpt>
      <trkpt lat="47.30782" lon="6.11119">
        <ele>436.4</ele>
        <time>2024-07-31T11:17:26Z</time>
      </trkpt>
      <trkpt lat="47.3078" lon="6.11108">
        <ele>436.2</ele>
        <time>2024-07-31T11:17:27Z</time>
      </trkpt>
      <trkpt lat="47.30777" lon="6.11096">
        <ele>436</ele>
        <time>2024-07-31T11:17:28Z</time>
      </trkpt>
      <trkpt lat="47.30774" lon="6.11086">
        <ele>435.4</ele>
        <time>2024-07-31T11:17:29Z</time>
      </trkpt>
      <trkpt lat="47.3077" lon="6.11075">
        <ele>434.6</ele>
        <time>2024-07-31T11:17:30Z</time>
      </trkpt>
      <trkpt lat="47.30767" lon="6.11064">
        <ele>434.6</ele>
        <time>2024-07-31T11:17:31Z</time>
      </trkpt>
      <trkpt lat="47.30763" lon="6.11052">
        <ele>434.8</ele>
        <time>2024-07-31T11:17:32Z</time>
      </trkpt>
      <trkpt lat="47.3076" lon="6.11041">
        <ele>434.2</ele>
        <time>2024-07-31T11:17:33Z</time>
      </trkpt>
      <trkpt lat="47.30757" lon="6.11029">
        <ele>433.8</ele>
        <time>2024-07-31T11:17:34Z</time>
      </trkpt>
      <trkpt lat="47.30754" lon="6.11017">
        <ele>433.4</ele>
        <time>2024-07-31T11:17:35Z</time>
      </trkpt>
      <trkpt lat="47.30751" lon="6.11005">
        <ele>432.8</ele>
        <time>2024-07-31T11:17:36Z</time>
      </trkpt>
      <trkpt lat="47.30748" lon="6.10993">
        <ele>433</ele>
        <time>2024-07-31T11:17:37Z</time>
      </trkpt>
      <trkpt lat="47.30746" lon="6.10981">
        <ele>432</ele>
        <time>2024-07-31T11:17:38Z</time>
      </trkpt>
      <trkpt lat="47.30743" lon="6.1097">
        <ele>432</ele>
        <time>2024-07-31T11:17:39Z</time>
      </trkpt>
      <trkpt lat="47.30741" lon="6.1096">
        <ele>432</ele>
        <time>2024-07-31T11:17:40Z</time>
      </trkpt>
      <trkpt lat="47.3074" lon="6.10949">
        <ele>431.4</ele>
        <time>2024-07-31T11:17:41Z</time>
      </trkpt>
      <trkpt lat="47.30739" lon="6.10937">
        <ele>430.6</ele>
        <time>2024-07-31T11:17:42Z</time>
      </trkpt>
      <trkpt lat="47.30738" lon="6.10926">
        <ele>430.6</ele>
        <time>2024-07-31T11:17:43Z</time>
      </trkpt>
      <trkpt lat="47.30738" lon="6.10915">
        <ele>430</ele>
        <time>2024-07-31T11:17:44Z</time>
      </trkpt>
      <trkpt lat="47.30738" lon="6.10904">
        <ele>429.6</ele>
        <time>2024-07-31T11:17:45Z</time>
      </trkpt>
      <trkpt lat="47.30738" lon="6.10893">
        <ele>429.4</ele>
        <time>2024-07-31T11:17:46Z</time>
      </trkpt>
      <trkpt lat="47.30736" lon="6.10882">
        <ele>429.2</ele>
        <time>2024-07-31T11:17:47Z</time>
      </trkpt>
      <trkpt lat="47.30735" lon="6.10871">
        <ele>428.8</ele>
        <time>2024-07-31T11:17:48Z</time>
      </trkpt>
      <trkpt lat="47.30733" lon="6.1086">
        <ele>428.8</ele>
        <time>2024-07-31T11:17:49Z</time>
      </trkpt>
      <trkpt lat="47.30731" lon="6.1085">
        <ele>428.8</ele>
        <time>2024-07-31T11:17:50Z</time>
      </trkpt>
      <trkpt lat="47.30729" lon="6.1084">
        <ele>428.2</ele>
        <time>2024-07-31T11:17:51Z</time>
      </trkpt>
      <trkpt lat="47.30727" lon="6.1083">
        <ele>428</ele>
        <time>2024-07-31T11:17:52Z</time>
      </trkpt>
      <trkpt lat="47.30726" lon="6.1082">
        <ele>428</ele>
        <time>2024-07-31T11:17:53Z</time>
      </trkpt>
      <trkpt lat="47.30724" lon="6.10811">
        <ele>427.6</ele>
        <time>2024-07-31T11:17:54Z</time>
      </trkpt>
      <trkpt lat="47.30723" lon="6.10801">
        <ele>427.6</ele>
        <time>2024-07-31T11:17:55Z</time>
      </trkpt>
      <trkpt lat="47.30721" lon="6.10793">
        <ele>427.4</ele>
        <time>2024-07-31T11:17:56Z</time>
      </trkpt>
      <trkpt lat="47.3072" lon="6.10783">
        <ele>427</ele>
        <time>2024-07-31T11:17:57Z</time>
      </trkpt>
      <trkpt lat="47.30718" lon="6.10774">
        <ele>427.2</ele>
        <time>2024-07-31T11:17:58Z</time>
      </trkpt>
      <trkpt lat="47.30714" lon="6.10763">
        <ele>426.8</ele>
        <time>2024-07-31T11:17:59Z</time>
      </trkpt>
      <trkpt lat="47.30712" lon="6.10754">
        <ele>427</ele>
        <time>2024-07-31T11:18:00Z</time>
      </trkpt>
      <trkpt lat="47.3071" lon="6.10745">
        <ele>426.8</ele>
        <time>2024-07-31T11:18:01Z</time>
      </trkpt>
      <trkpt lat="47.30708" lon="6.10737">
        <ele>426.8</ele>
        <time>2024-07-31T11:18:02Z</time>
      </trkpt>
      <trkpt lat="47.30706" lon="6.1073">
        <ele>426</ele>
        <time>2024-07-31T11:18:03Z</time>
      </trkpt>
      <trkpt lat="47.30705" lon="6.10721">
        <ele>426.6</ele>
        <time>2024-07-31T11:18:04Z</time>
      </trkpt>
      <trkpt lat="47.30702" lon="6.10713">
        <ele>426</ele>
        <time>2024-07-31T11:18:05Z</time>
      </trkpt>
      <trkpt lat="47.307" lon="6.10705">
        <ele>425.4</ele>
        <time>2024-07-31T11:18:06Z</time>
      </trkpt>
      <trkpt lat="47.30697" lon="6.10698">
        <ele>425.4</ele>
        <time>2024-07-31T11:18:07Z</time>
      </trkpt>
      <trkpt lat="47.30695" lon="6.10691">
        <ele>425.6</ele>
        <time>2024-07-31T11:18:08Z</time>
      </trkpt>
      <trkpt lat="47.30694" lon="6.10683">
        <ele>425.2</ele>
        <time>2024-07-31T11:18:09Z</time>
      </trkpt>
      <trkpt lat="47.30692" lon="6.10676">
        <ele>425.4</ele>
        <time>2024-07-31T11:18:10Z</time>
      </trkpt>
      <trkpt lat="47.30691" lon="6.10669">
        <ele>425.4</ele>
        <time>2024-07-31T11:18:11Z</time>
      </trkpt>
      <trkpt lat="47.30689" lon="6.10663">
        <ele>425</ele>
        <time>2024-07-31T11:18:12Z</time>
      </trkpt>
      <trkpt lat="47.30688" lon="6.10658">
        <ele>425</ele>
        <time>2024-07-31T11:18:13Z</time>
      </trkpt>
      <trkpt lat="47.30688" lon="6.10655">
        <ele>424.8</ele>
        <time>2024-07-31T11:18:14Z</time>
      </trkpt>
      <trkpt lat="47.30687" lon="6.10653">
        <ele>424.6</ele>
        <time>2024-07-31T11:18:15Z</time>
      </trkpt>
      <trkpt lat="47.30687" lon="6.10651">
        <ele>424.6</ele>
        <time>2024-07-31T11:18:16Z</time>
      </trkpt>
      <trkpt lat="47.30687" lon="6.1065">
        <ele>424.6</ele>
        <time>2024-07-31T11:18:17Z</time>
      </trkpt>
      <trkpt lat="47.30687" lon="6.10647">
        <ele>424.4</ele>
        <time>2024-07-31T11:18:18Z</time>
      </trkpt>
      <trkpt lat="47.30687" lon="6.10646">
        <ele>424.4</ele>
        <time>2024-07-31T11:18:19Z</time>
      </trkpt>
      <trkpt lat="47.30688" lon="6.10644">
        <ele>424.4</ele>
        <time>2024-07-31T11:18:20Z</time>
      </trkpt>
      <trkpt lat="47.30688" lon="6.10642">
        <ele>424.4</ele>
        <time>2024-07-31T11:18:21Z</time>
      </trkpt>
      <trkpt lat="47.30689" lon="6.10641">
        <ele>424.4</ele>
        <time>2024-07-31T11:18:22Z</time>
      </trkpt>
      <trkpt lat="47.3069" lon="6.10638">
        <ele>424.6</ele>
        <time>2024-07-31T11:18:23Z</time>
      </trkpt>
      <trkpt lat="47.30691" lon="6.10636">
        <ele>424.6</ele>
        <time>2024-07-31T11:18:24Z</time>
      </trkpt>
      <trkpt lat="47.30693" lon="6.10633">
        <ele>424.4</ele>
        <time>2024-07-31T11:18:25Z</time>
      </trkpt>
      <trkpt lat="47.30694" lon="6.10629">
        <ele>424.4</ele>
        <time>2024-07-31T11:18:26Z</time>
      </trkpt>
      <trkpt lat="47.30696" lon="6.10624">
        <ele>424.2</ele>
        <time>2024-07-31T11:18:27Z</time>
      </trkpt>
      <trkpt lat="47.30696" lon="6.10619">
        <ele>424</ele>
        <time>2024-07-31T11:18:28Z</time>
      </trkpt>
      <trkpt lat="47.30697" lon="6.10615">
        <ele>423.8</ele>
        <time>2024-07-31T11:18:29Z</time>
      </trkpt>
      <trkpt lat="47.30698" lon="6.10611">
        <ele>423.8</ele>
        <time>2024-07-31T11:18:30Z</time>
      </trkpt>
      <trkpt lat="47.30699" lon="6.10607">
        <ele>423.6</ele>
        <time>2024-07-31T11:18:31Z</time>
      </trkpt>
      <trkpt lat="47.307" lon="6.10604">
        <ele>423.6</ele>
        <time>2024-07-31T11:18:32Z</time>
      </trkpt>
      <trkpt lat="47.30701" lon="6.106">
        <ele>423.4</ele>
        <time>2024-07-31T11:18:33Z</time>
      </trkpt>
      <trkpt lat="47.30701" lon="6.10597">
        <ele>423.4</ele>
        <time>2024-07-31T11:18:34Z</time>
      </trkpt>
      <trkpt lat="47.307" lon="6.10594">
        <ele>423.4</ele>
        <time>2024-07-31T11:18:35Z</time>
      </trkpt>
      <trkpt lat="47.30698" lon="6.10591">
        <ele>423.4</ele>
        <time>2024-07-31T11:18:36Z</time>
      </trkpt>
      <trkpt lat="47.30696" lon="6.10589">
        <ele>423.2</ele>
        <time>2024-07-31T11:18:37Z</time>
      </trkpt>
      <trkpt lat="47.30693" lon="6.10588">
        <ele>423.2</ele>
        <time>2024-07-31T11:18:38Z</time>
      </trkpt>
      <trkpt lat="47.30691" lon="6.10587">
        <ele>423.6</ele>
        <time>2024-07-31T11:18:39Z</time>
      </trkpt>
      <trkpt lat="47.30688" lon="6.10585">
        <ele>423.8</ele>
        <time>2024-07-31T11:18:40Z</time>
      </trkpt>
      <trkpt lat="47.30686" lon="6.10583">
        <ele>423.8</ele>
        <time>2024-07-31T11:18:41Z</time>
      </trkpt>
      <trkpt lat="47.30684" lon="6.10581">
        <ele>423.8</ele>
        <time>2024-07-31T11:18:42Z</time>
      </trkpt>
      <trkpt lat="47.30681" lon="6.10579">
        <ele>423.8</ele>
        <time>2024-07-31T11:18:43Z</time>
      </trkpt>
      <trkpt lat="47.30678" lon="6.10577">
        <ele>423.8</ele>
        <time>2024-07-31T11:18:44Z</time>
      </trkpt>
      <trkpt lat="47.30674" lon="6.10574">
        <ele>423.8</ele>
        <time>2024-07-31T11:18:45Z</time>
      </trkpt>
      <trkpt lat="47.30671" lon="6.10572">
        <ele>423.8</ele>
        <time>2024-07-31T11:18:46Z</time>
      </trkpt>
      <trkpt lat="47.30667" lon="6.1057">
        <ele>423.8</ele>
        <time>2024-07-31T11:18:47Z</time>
      </trkpt>
      <trkpt lat="47.30663" lon="6.10568">
        <ele>423.6</ele>
        <time>2024-07-31T11:18:48Z</time>
      </trkpt>
      <trkpt lat="47.3066" lon="6.10566">
        <ele>423.4</ele>
        <time>2024-07-31T11:18:49Z</time>
      </trkpt>
      <trkpt lat="47.30655" lon="6.10564">
        <ele>423.4</ele>
        <time>2024-07-31T11:18:50Z</time>
      </trkpt>
      <trkpt lat="47.30651" lon="6.10562">
        <ele>423.4</ele>
        <time>2024-07-31T11:18:51Z</time>
      </trkpt>
      <trkpt lat="47.30646" lon="6.10559">
        <ele>423.4</ele>
        <time>2024-07-31T11:18:52Z</time>
      </trkpt>
      <trkpt lat="47.30642" lon="6.10556">
        <ele>423.2</ele>
        <time>2024-07-31T11:18:53Z</time>
      </trkpt>
      <trkpt lat="47.30637" lon="6.10553">
        <ele>422.8</ele>
        <time>2024-07-31T11:18:54Z</time>
      </trkpt>
      <trkpt lat="47.30631" lon="6.10551">
        <ele>422.6</ele>
        <time>2024-07-31T11:18:55Z</time>
      </trkpt>
      <trkpt lat="47.30625" lon="6.10547">
        <ele>422.2</ele>
        <time>2024-07-31T11:18:56Z</time>
      </trkpt>
      <trkpt lat="47.3062" lon="6.10543">
        <ele>422</ele>
        <time>2024-07-31T11:18:57Z</time>
      </trkpt>
      <trkpt lat="47.30614" lon="6.10539">
        <ele>421.8</ele>
        <time>2024-07-31T11:18:58Z</time>
      </trkpt>
      <trkpt lat="47.30608" lon="6.10535">
        <ele>421.6</ele>
        <time>2024-07-31T11:18:59Z</time>
      </trkpt>
      <trkpt lat="47.30602" lon="6.10531">
        <ele>421</ele>
        <time>2024-07-31T11:19:00Z</time>
      </trkpt>
      <trkpt lat="47.30595" lon="6.10527">
        <ele>420.8</ele>
        <time>2024-07-31T11:19:01Z</time>
      </trkpt>
      <trkpt lat="47.30588" lon="6.10523">
        <ele>420.2</ele>
        <time>2024-07-31T11:19:02Z</time>
      </trkpt>
      <trkpt lat="47.30581" lon="6.10518">
        <ele>419.4</ele>
        <time>2024-07-31T11:19:03Z</time>
      </trkpt>
      <trkpt lat="47.30574" lon="6.10514">
        <ele>418.8</ele>
        <time>2024-07-31T11:19:04Z</time>
      </trkpt>
      <trkpt lat="47.30566" lon="6.10509">
        <ele>418.2</ele>
        <time>2024-07-31T11:19:05Z</time>
      </trkpt>
      <trkpt lat="47.30558" lon="6.10504">
        <ele>417.6</ele>
        <time>2024-07-31T11:19:06Z</time>
      </trkpt>
      <trkpt lat="47.3055" lon="6.10499">
        <ele>417</ele>
        <time>2024-07-31T11:19:07Z</time>
      </trkpt>
      <trkpt lat="47.30542" lon="6.10493">
        <ele>416.2</ele>
        <time>2024-07-31T11:19:08Z</time>
      </trkpt>
      <trkpt lat="47.30534" lon="6.10486">
        <ele>416.2</ele>
        <time>2024-07-31T11:19:09Z</time>
      </trkpt>
      <trkpt lat="47.30526" lon="6.10477">
        <ele>415.4</ele>
        <time>2024-07-31T11:19:10Z</time>
      </trkpt>
      <trkpt lat="47.30517" lon="6.10467">
        <ele>414.4</ele>
        <time>2024-07-31T11:19:11Z</time>
      </trkpt>
      <trkpt lat="47.30508" lon="6.10457">
        <ele>413.6</ele>
        <time>2024-07-31T11:19:12Z</time>
      </trkpt>
      <trkpt lat="47.30498" lon="6.10446">
        <ele>413</ele>
        <time>2024-07-31T11:19:13Z</time>
      </trkpt>
      <trkpt lat="47.30489" lon="6.10436">
        <ele>412.2</ele>
        <time>2024-07-31T11:19:14Z</time>
      </trkpt>
      <trkpt lat="47.3048" lon="6.10426">
        <ele>411.2</ele>
        <time>2024-07-31T11:19:15Z</time>
      </trkpt>
      <trkpt lat="47.3047" lon="6.10415">
        <ele>410.2</ele>
        <time>2024-07-31T11:19:16Z</time>
      </trkpt>
      <trkpt lat="47.3046" lon="6.10404">
        <ele>409</ele>
        <time>2024-07-31T11:19:17Z</time>
      </trkpt>
      <trkpt lat="47.3045" lon="6.10392">
        <ele>408</ele>
        <time>2024-07-31T11:19:18Z</time>
      </trkpt>
      <trkpt lat="47.3044" lon="6.1038">
        <ele>406.6</ele>
        <time>2024-07-31T11:19:19Z</time>
      </trkpt>
      <trkpt lat="47.30431" lon="6.10367">
        <ele>405.6</ele>
        <time>2024-07-31T11:19:20Z</time>
      </trkpt>
      <trkpt lat="47.30422" lon="6.10353">
        <ele>404.4</ele>
        <time>2024-07-31T11:19:21Z</time>
      </trkpt>
      <trkpt lat="47.30413" lon="6.1034">
        <ele>403.4</ele>
        <time>2024-07-31T11:19:22Z</time>
      </trkpt>
      <trkpt lat="47.30405" lon="6.10326">
        <ele>402.4</ele>
        <time>2024-07-31T11:19:23Z</time>
      </trkpt>
      <trkpt lat="47.30397" lon="6.10311">
        <ele>401.2</ele>
        <time>2024-07-31T11:19:24Z</time>
      </trkpt>
      <trkpt lat="47.30388" lon="6.10297">
        <ele>400.4</ele>
        <time>2024-07-31T11:19:25Z</time>
      </trkpt>
      <trkpt lat="47.30379" lon="6.10283">
        <ele>399.2</ele>
        <time>2024-07-31T11:19:26Z</time>
      </trkpt>
      <trkpt lat="47.30369" lon="6.10269">
        <ele>397.4</ele>
        <time>2024-07-31T11:19:27Z</time>
      </trkpt>
      <trkpt lat="47.30359" lon="6.10256">
        <ele>396.2</ele>
        <time>2024-07-31T11:19:28Z</time>
      </trkpt>
      <trkpt lat="47.30347" lon="6.10246">
        <ele>394.6</ele>
        <time>2024-07-31T11:19:29Z</time>
      </trkpt>
      <trkpt lat="47.30335" lon="6.10236">
        <ele>393.4</ele>
        <time>2024-07-31T11:19:30Z</time>
      </trkpt>
      <trkpt lat="47.30323" lon="6.10228">
        <ele>393.4</ele>
        <time>2024-07-31T11:19:31Z</time>
      </trkpt>
      <trkpt lat="47.30311" lon="6.10221">
        <ele>392.6</ele>
        <time>2024-07-31T11:19:32Z</time>
      </trkpt>
      <trkpt lat="47.303" lon="6.10214">
        <ele>391.2</ele>
        <time>2024-07-31T11:19:33Z</time>
      </trkpt>
      <trkpt lat="47.3029" lon="6.10207">
        <ele>390</ele>
        <time>2024-07-31T11:19:34Z</time>
      </trkpt>
      <trkpt lat="47.3028" lon="6.10198">
        <ele>389</ele>
        <time>2024-07-31T11:19:35Z</time>
      </trkpt>
      <trkpt lat="47.30271" lon="6.10188">
        <ele>388.4</ele>
        <time>2024-07-31T11:19:36Z</time>
      </trkpt>
      <trkpt lat="47.30263" lon="6.10178">
        <ele>388</ele>
        <time>2024-07-31T11:19:37Z</time>
      </trkpt>
      <trkpt lat="47.30254" lon="6.10167">
        <ele>387.6</ele>
        <time>2024-07-31T11:19:38Z</time>
      </trkpt>
      <trkpt lat="47.30246" lon="6.10156">
        <ele>386.8</ele>
        <time>2024-07-31T11:19:39Z</time>
      </trkpt>
      <trkpt lat="47.30238" lon="6.10145">
        <ele>386</ele>
        <time>2024-07-31T11:19:40Z</time>
      </trkpt>
      <trkpt lat="47.30231" lon="6.10133">
        <ele>384.6</ele>
        <time>2024-07-31T11:19:41Z</time>
      </trkpt>
      <trkpt lat="47.30225" lon="6.10122">
        <ele>383.6</ele>
        <time>2024-07-31T11:19:42Z</time>
      </trkpt>
      <trkpt lat="47.3022" lon="6.10111">
        <ele>383</ele>
        <time>2024-07-31T11:19:43Z</time>
      </trkpt>
      <trkpt lat="47.30216" lon="6.10101">
        <ele>382.2</ele>
        <time>2024-07-31T11:19:44Z</time>
      </trkpt>
      <trkpt lat="47.30215" lon="6.10095">
        <ele>382.2</ele>
        <time>2024-07-31T11:19:45Z</time>
      </trkpt>
      <trkpt lat="47.30213" lon="6.1009">
        <ele>382</ele>
        <time>2024-07-31T11:19:46Z</time>
      </trkpt>
      <trkpt lat="47.30211" lon="6.10084">
        <ele>382</ele>
        <time>2024-07-31T11:19:47Z</time>
      </trkpt>
      <trkpt lat="47.30211" lon="6.10079">
        <ele>382</ele>
        <time>2024-07-31T11:19:48Z</time>
      </trkpt>
      <trkpt lat="47.3021" lon="6.10074">
        <ele>381.8</ele>
        <time>2024-07-31T11:19:49Z</time>
      </trkpt>
      <trkpt lat="47.30208" lon="6.10068">
        <ele>382</ele>
        <time>2024-07-31T11:19:50Z</time>
      </trkpt>
      <trkpt lat="47.30206" lon="6.10063">
        <ele>381.8</ele>
        <time>2024-07-31T11:19:51Z</time>
      </trkpt>
      <trkpt lat="47.30204" lon="6.10056">
        <ele>381.8</ele>
        <time>2024-07-31T11:19:52Z</time>
      </trkpt>
      <trkpt lat="47.30202" lon="6.1005">
        <ele>381.8</ele>
        <time>2024-07-31T11:19:53Z</time>
      </trkpt>
      <trkpt lat="47.30198" lon="6.10044">
        <ele>381.4</ele>
        <time>2024-07-31T11:19:54Z</time>
      </trkpt>
      <trkpt lat="47.30194" lon="6.10038">
        <ele>381.4</ele>
        <time>2024-07-31T11:19:55Z</time>
      </trkpt>
      <trkpt lat="47.30189" lon="6.10032">
        <ele>381</ele>
        <time>2024-07-31T11:19:56Z</time>
      </trkpt>
      <trkpt lat="47.30185" lon="6.10028">
        <ele>380.8</ele>
        <time>2024-07-31T11:19:57Z</time>
      </trkpt>
      <trkpt lat="47.3018" lon="6.10023">
        <ele>380.4</ele>
        <time>2024-07-31T11:19:58Z</time>
      </trkpt>
      <trkpt lat="47.30175" lon="6.10018">
        <ele>379.8</ele>
        <time>2024-07-31T11:19:59Z</time>
      </trkpt>
      <trkpt lat="47.30169" lon="6.10011">
        <ele>379.2</ele>
        <time>2024-07-31T11:20:00Z</time>
      </trkpt>
      <trkpt lat="47.30163" lon="6.10004">
        <ele>378.8</ele>
        <time>2024-07-31T11:20:01Z</time>
      </trkpt>
      <trkpt lat="47.30158" lon="6.09997">
        <ele>378.6</ele>
        <time>2024-07-31T11:20:02Z</time>
      </trkpt>
      <trkpt lat="47.30152" lon="6.09989">
        <ele>377.4</ele>
        <time>2024-07-31T11:20:03Z</time>
      </trkpt>
      <trkpt lat="47.30145" lon="6.09982">
        <ele>377.6</ele>
        <time>2024-07-31T11:20:04Z</time>
      </trkpt>
      <trkpt lat="47.30138" lon="6.09975">
        <ele>377.6</ele>
        <time>2024-07-31T11:20:05Z</time>
      </trkpt>
      <trkpt lat="47.30132" lon="6.09968">
        <ele>377</ele>
        <time>2024-07-31T11:20:06Z</time>
      </trkpt>
      <trkpt lat="47.30125" lon="6.09961">
        <ele>376.4</ele>
        <time>2024-07-31T11:20:07Z</time>
      </trkpt>
      <trkpt lat="47.30119" lon="6.09955">
        <ele>375.6</ele>
        <time>2024-07-31T11:20:08Z</time>
      </trkpt>
      <trkpt lat="47.30113" lon="6.09949">
        <ele>375.4</ele>
        <time>2024-07-31T11:20:09Z</time>
      </trkpt>
      <trkpt lat="47.30107" lon="6.09943">
        <ele>375</ele>
        <time>2024-07-31T11:20:10Z</time>
      </trkpt>
      <trkpt lat="47.30101" lon="6.09937">
        <ele>374.6</ele>
        <time>2024-07-31T11:20:11Z</time>
      </trkpt>
      <trkpt lat="47.30096" lon="6.09931">
        <ele>374.6</ele>
        <time>2024-07-31T11:20:12Z</time>
      </trkpt>
      <trkpt lat="47.30091" lon="6.09926">
        <ele>374.4</ele>
        <time>2024-07-31T11:20:13Z</time>
      </trkpt>
      <trkpt lat="47.30085" lon="6.09921">
        <ele>374</ele>
        <time>2024-07-31T11:20:14Z</time>
      </trkpt>
      <trkpt lat="47.30081" lon="6.09915">
        <ele>374</ele>
        <time>2024-07-31T11:20:15Z</time>
      </trkpt>
      <trkpt lat="47.30076" lon="6.09909">
        <ele>374</ele>
        <time>2024-07-31T11:20:16Z</time>
      </trkpt>
      <trkpt lat="47.30071" lon="6.09902">
        <ele>374.2</ele>
        <time>2024-07-31T11:20:17Z</time>
      </trkpt>
      <trkpt lat="47.30066" lon="6.09894">
        <ele>374.2</ele>
        <time>2024-07-31T11:20:18Z</time>
      </trkpt>
      <trkpt lat="47.3006" lon="6.09888">
        <ele>373.6</ele>
        <time>2024-07-31T11:20:19Z</time>
      </trkpt>
      <trkpt lat="47.30054" lon="6.09881">
        <ele>373.4</ele>
        <time>2024-07-31T11:20:20Z</time>
      </trkpt>
      <trkpt lat="47.30049" lon="6.09875">
        <ele>373.2</ele>
        <time>2024-07-31T11:20:21Z</time>
      </trkpt>
      <trkpt lat="47.30044" lon="6.09868">
        <ele>373</ele>
        <time>2024-07-31T11:20:22Z</time>
      </trkpt>
      <trkpt lat="47.30038" lon="6.09861">
        <ele>372.8</ele>
        <time>2024-07-31T11:20:23Z</time>
      </trkpt>
      <trkpt lat="47.30032" lon="6.09855">
        <ele>372.6</ele>
        <time>2024-07-31T11:20:24Z</time>
      </trkpt>
      <trkpt lat="47.30026" lon="6.09848">
        <ele>372.2</ele>
        <time>2024-07-31T11:20:25Z</time>
      </trkpt>
      <trkpt lat="47.3002" lon="6.09841">
        <ele>372</ele>
        <time>2024-07-31T11:20:26Z</time>
      </trkpt>
      <trkpt lat="47.30015" lon="6.09835">
        <ele>371.8</ele>
        <time>2024-07-31T11:20:27Z</time>
      </trkpt>
      <trkpt lat="47.30008" lon="6.09828">
        <ele>371.4</ele>
        <time>2024-07-31T11:20:28Z</time>
      </trkpt>
      <trkpt lat="47.30002" lon="6.0982">
        <ele>371.4</ele>
        <time>2024-07-31T11:20:29Z</time>
      </trkpt>
      <trkpt lat="47.29996" lon="6.09814">
        <ele>370.6</ele>
        <time>2024-07-31T11:20:30Z</time>
      </trkpt>
      <trkpt lat="47.29989" lon="6.09807">
        <ele>370.6</ele>
        <time>2024-07-31T11:20:31Z</time>
      </trkpt>
      <trkpt lat="47.29983" lon="6.098">
        <ele>370</ele>
        <time>2024-07-31T11:20:32Z</time>
      </trkpt>
      <trkpt lat="47.29977" lon="6.09794">
        <ele>370.2</ele>
        <time>2024-07-31T11:20:33Z</time>
      </trkpt>
      <trkpt lat="47.29971" lon="6.09786">
        <ele>370.2</ele>
        <time>2024-07-31T11:20:34Z</time>
      </trkpt>
      <trkpt lat="47.29965" lon="6.09779">
        <ele>369.8</ele>
        <time>2024-07-31T11:20:35Z</time>
      </trkpt>
      <trkpt lat="47.29958" lon="6.09772">
        <ele>370</ele>
        <time>2024-07-31T11:20:36Z</time>
      </trkpt>
      <trkpt lat="47.29951" lon="6.09764">
        <ele>370</ele>
        <time>2024-07-31T11:20:37Z</time>
      </trkpt>
      <trkpt lat="47.29945" lon="6.09757">
        <ele>369.6</ele>
        <time>2024-07-31T11:20:38Z</time>
      </trkpt>
      <trkpt lat="47.29938" lon="6.09749">
        <ele>370</ele>
        <time>2024-07-31T11:20:39Z</time>
      </trkpt>
      <trkpt lat="47.29932" lon="6.09742">
        <ele>369.6</ele>
        <time>2024-07-31T11:20:40Z</time>
      </trkpt>
      <trkpt lat="47.29925" lon="6.09734">
        <ele>369.2</ele>
        <time>2024-07-31T11:20:41Z</time>
      </trkpt>
      <trkpt lat="47.2992" lon="6.09726">
        <ele>368.8</ele>
        <time>2024-07-31T11:20:42Z</time>
      </trkpt>
      <trkpt lat="47.29913" lon="6.09718">
        <ele>368.4</ele>
        <time>2024-07-31T11:20:43Z</time>
      </trkpt>
      <trkpt lat="47.29907" lon="6.09711">
        <ele>368.2</ele>
        <time>2024-07-31T11:20:44Z</time>
      </trkpt>
      <trkpt lat="47.299" lon="6.09704">
        <ele>367.6</ele>
        <time>2024-07-31T11:20:45Z</time>
      </trkpt>
      <trkpt lat="47.29893" lon="6.09697">
        <ele>367.6</ele>
        <time>2024-07-31T11:20:46Z</time>
      </trkpt>
      <trkpt lat="47.29886" lon="6.09689">
        <ele>367.2</ele>
        <time>2024-07-31T11:20:47Z</time>
      </trkpt>
      <trkpt lat="47.2988" lon="6.09682">
        <ele>367.2</ele>
        <time>2024-07-31T11:20:48Z</time>
      </trkpt>
      <trkpt lat="47.29875" lon="6.09674">
        <ele>367</ele>
        <time>2024-07-31T11:20:49Z</time>
      </trkpt>
      <trkpt lat="47.29869" lon="6.09666">
        <ele>367</ele>
        <time>2024-07-31T11:20:50Z</time>
      </trkpt>
      <trkpt lat="47.29863" lon="6.09658">
        <ele>367.2</ele>
        <time>2024-07-31T11:20:51Z</time>
      </trkpt>
      <trkpt lat="47.29856" lon="6.09651">
        <ele>367</ele>
        <time>2024-07-31T11:20:52Z</time>
      </trkpt>
      <trkpt lat="47.29849" lon="6.09643">
        <ele>366.8</ele>
        <time>2024-07-31T11:20:53Z</time>
      </trkpt>
      <trkpt lat="47.29843" lon="6.09636">
        <ele>366.6</ele>
        <time>2024-07-31T11:20:54Z</time>
      </trkpt>
      <trkpt lat="47.29837" lon="6.09629">
        <ele>366.4</ele>
        <time>2024-07-31T11:20:55Z</time>
      </trkpt>
      <trkpt lat="47.2983" lon="6.09622">
        <ele>366.4</ele>
        <time>2024-07-31T11:20:56Z</time>
      </trkpt>
      <trkpt lat="47.29824" lon="6.09616">
        <ele>366.4</ele>
        <time>2024-07-31T11:20:57Z</time>
      </trkpt>
      <trkpt lat="47.29817" lon="6.09609">
        <ele>366.4</ele>
        <time>2024-07-31T11:20:58Z</time>
      </trkpt>
      <trkpt lat="47.29811" lon="6.09602">
        <ele>366.4</ele>
        <time>2024-07-31T11:20:59Z</time>
      </trkpt>
      <trkpt lat="47.29805" lon="6.09596">
        <ele>366.4</ele>
        <time>2024-07-31T11:21:00Z</time>
      </trkpt>
      <trkpt lat="47.29799" lon="6.09589">
        <ele>366</ele>
        <time>2024-07-31T11:21:01Z</time>
      </trkpt>
      <trkpt lat="47.29793" lon="6.09583">
        <ele>366</ele>
        <time>2024-07-31T11:21:02Z</time>
      </trkpt>
      <trkpt lat="47.29787" lon="6.09577">
        <ele>365.8</ele>
        <time>2024-07-31T11:21:03Z</time>
      </trkpt>
      <trkpt lat="47.29781" lon="6.0957">
        <ele>365.4</ele>
        <time>2024-07-31T11:21:04Z</time>
      </trkpt>
      <trkpt lat="47.29774" lon="6.09564">
        <ele>365.2</ele>
        <time>2024-07-31T11:21:05Z</time>
      </trkpt>
      <trkpt lat="47.29768" lon="6.09557">
        <ele>365</ele>
        <time>2024-07-31T11:21:06Z</time>
      </trkpt>
      <trkpt lat="47.29761" lon="6.09549">
        <ele>364.8</ele>
        <time>2024-07-31T11:21:07Z</time>
      </trkpt>
      <trkpt lat="47.29755" lon="6.09542">
        <ele>364.4</ele>
        <time>2024-07-31T11:21:08Z</time>
      </trkpt>
      <trkpt lat="47.29749" lon="6.09535">
        <ele>364.4</ele>
        <time>2024-07-31T11:21:09Z</time>
      </trkpt>
      <trkpt lat="47.29742" lon="6.09528">
        <ele>364.4</ele>
        <time>2024-07-31T11:21:10Z</time>
      </trkpt>
      <trkpt lat="47.29737" lon="6.09522">
        <ele>364.2</ele>
        <time>2024-07-31T11:21:11Z</time>
      </trkpt>
      <trkpt lat="47.29733" lon="6.09516">
        <ele>364.2</ele>
        <time>2024-07-31T11:21:12Z</time>
      </trkpt>
      <trkpt lat="47.29728" lon="6.0951">
        <ele>364</ele>
        <time>2024-07-31T11:21:13Z</time>
      </trkpt>
      <trkpt lat="47.29722" lon="6.09504">
        <ele>364.4</ele>
        <time>2024-07-31T11:21:14Z</time>
      </trkpt>
      <trkpt lat="47.29716" lon="6.09498">
        <ele>364.2</ele>
        <time>2024-07-31T11:21:15Z</time>
      </trkpt>
      <trkpt lat="47.2971" lon="6.09492">
        <ele>364</ele>
        <time>2024-07-31T11:21:16Z</time>
      </trkpt>
      <trkpt lat="47.29705" lon="6.09487">
        <ele>364.2</ele>
        <time>2024-07-31T11:21:17Z</time>
      </trkpt>
      <trkpt lat="47.29699" lon="6.09481">
        <ele>364.4</ele>
        <time>2024-07-31T11:21:18Z</time>
      </trkpt>
      <trkpt lat="47.29694" lon="6.09476">
        <ele>364</ele>
        <time>2024-07-31T11:21:19Z</time>
      </trkpt>
      <trkpt lat="47.29689" lon="6.09471">
        <ele>363.6</ele>
        <time>2024-07-31T11:21:20Z</time>
      </trkpt>
      <trkpt lat="47.29684" lon="6.09465">
        <ele>363.6</ele>
        <time>2024-07-31T11:21:21Z</time>
      </trkpt>
      <trkpt lat="47.29679" lon="6.0946">
        <ele>363.6</ele>
        <time>2024-07-31T11:21:22Z</time>
      </trkpt>
      <trkpt lat="47.29675" lon="6.09454">
        <ele>363.6</ele>
        <time>2024-07-31T11:21:23Z</time>
      </trkpt>
      <trkpt lat="47.2967" lon="6.09447">
        <ele>363.6</ele>
        <time>2024-07-31T11:21:24Z</time>
      </trkpt>
      <trkpt lat="47.29665" lon="6.09442">
        <ele>363.6</ele>
        <time>2024-07-31T11:21:25Z</time>
      </trkpt>
      <trkpt lat="47.2966" lon="6.09436">
        <ele>363.2</ele>
        <time>2024-07-31T11:21:26Z</time>
      </trkpt>
      <trkpt lat="47.29656" lon="6.09431">
        <ele>363.4</ele>
        <time>2024-07-31T11:21:27Z</time>
      </trkpt>
      <trkpt lat="47.29651" lon="6.09425">
        <ele>363.2</ele>
        <time>2024-07-31T11:21:28Z</time>
      </trkpt>
      <trkpt lat="47.29647" lon="6.09419">
        <ele>363</ele>
        <time>2024-07-31T11:21:29Z</time>
      </trkpt>
      <trkpt lat="47.29642" lon="6.09411">
        <ele>363.2</ele>
        <time>2024-07-31T11:21:30Z</time>
      </trkpt>
      <trkpt lat="47.29637" lon="6.09404">
        <ele>363.2</ele>
        <time>2024-07-31T11:21:31Z</time>
      </trkpt>
      <trkpt lat="47.29632" lon="6.09397">
        <ele>363</ele>
        <time>2024-07-31T11:21:32Z</time>
      </trkpt>
      <trkpt lat="47.29627" lon="6.09392">
        <ele>363.2</ele>
        <time>2024-07-31T11:21:33Z</time>
      </trkpt>
      <trkpt lat="47.29622" lon="6.09386">
        <ele>363.4</ele>
        <time>2024-07-31T11:21:34Z</time>
      </trkpt>
      <trkpt lat="47.29617" lon="6.09381">
        <ele>363.4</ele>
        <time>2024-07-31T11:21:35Z</time>
      </trkpt>
      <trkpt lat="47.29613" lon="6.09375">
        <ele>363.6</ele>
        <time>2024-07-31T11:21:36Z</time>
      </trkpt>
      <trkpt lat="47.29609" lon="6.09369">
        <ele>363.6</ele>
        <time>2024-07-31T11:21:37Z</time>
      </trkpt>
      <trkpt lat="47.29605" lon="6.09363">
        <ele>363.6</ele>
        <time>2024-07-31T11:21:38Z</time>
      </trkpt>
      <trkpt lat="47.296" lon="6.09357">
        <ele>363.8</ele>
        <time>2024-07-31T11:21:39Z</time>
      </trkpt>
      <trkpt lat="47.29596" lon="6.09351">
        <ele>363.4</ele>
        <time>2024-07-31T11:21:40Z</time>
      </trkpt>
      <trkpt lat="47.29591" lon="6.09345">
        <ele>363.6</ele>
        <time>2024-07-31T11:21:41Z</time>
      </trkpt>
      <trkpt lat="47.29586" lon="6.09339">
        <ele>363.6</ele>
        <time>2024-07-31T11:21:42Z</time>
      </trkpt>
      <trkpt lat="47.2958" lon="6.09334">
        <ele>363.6</ele>
        <time>2024-07-31T11:21:43Z</time>
      </trkpt>
      <trkpt lat="47.29575" lon="6.09328">
        <ele>363.6</ele>
        <time>2024-07-31T11:21:44Z</time>
      </trkpt>
      <trkpt lat="47.2957" lon="6.09322">
        <ele>363.6</ele>
        <time>2024-07-31T11:21:45Z</time>
      </trkpt>
      <trkpt lat="47.29564" lon="6.09315">
        <ele>363.4</ele>
        <time>2024-07-31T11:21:46Z</time>
      </trkpt>
      <trkpt lat="47.29559" lon="6.09309">
        <ele>363.2</ele>
        <time>2024-07-31T11:21:47Z</time>
      </trkpt>
      <trkpt lat="47.29552" lon="6.09302">
        <ele>363.2</ele>
        <time>2024-07-31T11:21:48Z</time>
      </trkpt>
      <trkpt lat="47.29546" lon="6.09296">
        <ele>363.2</ele>
        <time>2024-07-31T11:21:49Z</time>
      </trkpt>
      <trkpt lat="47.2954" lon="6.0929">
        <ele>363</ele>
        <time>2024-07-31T11:21:50Z</time>
      </trkpt>
      <trkpt lat="47.29535" lon="6.09283">
        <ele>363</ele>
        <time>2024-07-31T11:21:51Z</time>
      </trkpt>
      <trkpt lat="47.29528" lon="6.09277">
        <ele>362.8</ele>
        <time>2024-07-31T11:21:52Z</time>
      </trkpt>
      <trkpt lat="47.29523" lon="6.09271">
        <ele>362.8</ele>
        <time>2024-07-31T11:21:53Z</time>
      </trkpt>
      <trkpt lat="47.29517" lon="6.09264">
        <ele>363</ele>
        <time>2024-07-31T11:21:54Z</time>
      </trkpt>
      <trkpt lat="47.2951" lon="6.09258">
        <ele>362.8</ele>
        <time>2024-07-31T11:21:55Z</time>
      </trkpt>
      <trkpt lat="47.29505" lon="6.09252">
        <ele>363.2</ele>
        <time>2024-07-31T11:21:56Z</time>
      </trkpt>
      <trkpt lat="47.295" lon="6.09246">
        <ele>363.2</ele>
        <time>2024-07-31T11:21:57Z</time>
      </trkpt>
      <trkpt lat="47.29495" lon="6.09241">
        <ele>363.4</ele>
        <time>2024-07-31T11:21:58Z</time>
      </trkpt>
      <trkpt lat="47.29489" lon="6.09235">
        <ele>363.4</ele>
        <time>2024-07-31T11:21:59Z</time>
      </trkpt>
      <trkpt lat="47.29484" lon="6.0923">
        <ele>363.4</ele>
        <time>2024-07-31T11:22:00Z</time>
      </trkpt>
      <trkpt lat="47.29479" lon="6.09224">
        <ele>363.4</ele>
        <time>2024-07-31T11:22:01Z</time>
      </trkpt>
      <trkpt lat="47.29475" lon="6.09219">
        <ele>363.6</ele>
        <time>2024-07-31T11:22:02Z</time>
      </trkpt>
      <trkpt lat="47.29469" lon="6.09213">
        <ele>363.2</ele>
        <time>2024-07-31T11:22:03Z</time>
      </trkpt>
      <trkpt lat="47.29464" lon="6.09208">
        <ele>363</ele>
        <time>2024-07-31T11:22:04Z</time>
      </trkpt>
      <trkpt lat="47.29459" lon="6.09203">
        <ele>363</ele>
        <time>2024-07-31T11:22:05Z</time>
      </trkpt>
      <trkpt lat="47.29453" lon="6.09197">
        <ele>363.2</ele>
        <time>2024-07-31T11:22:06Z</time>
      </trkpt>
      <trkpt lat="47.29448" lon="6.09192">
        <ele>363.2</ele>
        <time>2024-07-31T11:22:07Z</time>
      </trkpt>
      <trkpt lat="47.29443" lon="6.09186">
        <ele>363</ele>
        <time>2024-07-31T11:22:08Z</time>
      </trkpt>
      <trkpt lat="47.29438" lon="6.0918">
        <ele>363.2</ele>
        <time>2024-07-31T11:22:09Z</time>
      </trkpt>
      <trkpt lat="47.29433" lon="6.09175">
        <ele>363</ele>
        <time>2024-07-31T11:22:10Z</time>
      </trkpt>
      <trkpt lat="47.29428" lon="6.09169">
        <ele>363</ele>
        <time>2024-07-31T11:22:11Z</time>
      </trkpt>
      <trkpt lat="47.29423" lon="6.09163">
        <ele>362.4</ele>
        <time>2024-07-31T11:22:12Z</time>
      </trkpt>
      <trkpt lat="47.29418" lon="6.09157">
        <ele>362.2</ele>
        <time>2024-07-31T11:22:13Z</time>
      </trkpt>
      <trkpt lat="47.29413" lon="6.09151">
        <ele>362.2</ele>
        <time>2024-07-31T11:22:14Z</time>
      </trkpt>
      <trkpt lat="47.29408" lon="6.09145">
        <ele>361.8</ele>
        <time>2024-07-31T11:22:15Z</time>
      </trkpt>
      <trkpt lat="47.29402" lon="6.09138">
        <ele>361.6</ele>
        <time>2024-07-31T11:22:16Z</time>
      </trkpt>
      <trkpt lat="47.29397" lon="6.09133">
        <ele>361.8</ele>
        <time>2024-07-31T11:22:17Z</time>
      </trkpt>
      <trkpt lat="47.29391" lon="6.09128">
        <ele>362.2</ele>
        <time>2024-07-31T11:22:18Z</time>
      </trkpt>
      <trkpt lat="47.29385" lon="6.09123">
        <ele>362</ele>
        <time>2024-07-31T11:22:19Z</time>
      </trkpt>
      <trkpt lat="47.2938" lon="6.09117">
        <ele>361.8</ele>
        <time>2024-07-31T11:22:20Z</time>
      </trkpt>
      <trkpt lat="47.29375" lon="6.09112">
        <ele>361.6</ele>
        <time>2024-07-31T11:22:21Z</time>
      </trkpt>
      <trkpt lat="47.2937" lon="6.09106">
        <ele>361.6</ele>
        <time>2024-07-31T11:22:22Z</time>
      </trkpt>
      <trkpt lat="47.29364" lon="6.09099">
        <ele>361.6</ele>
        <time>2024-07-31T11:22:23Z</time>
      </trkpt>
      <trkpt lat="47.29359" lon="6.09093">
        <ele>361.4</ele>
        <time>2024-07-31T11:22:24Z</time>
      </trkpt>
      <trkpt lat="47.29354" lon="6.09087">
        <ele>361.4</ele>
        <time>2024-07-31T11:22:25Z</time>
      </trkpt>
      <trkpt lat="47.29349" lon="6.09082">
        <ele>361.2</ele>
        <time>2024-07-31T11:22:26Z</time>
      </trkpt>
      <trkpt lat="47.29344" lon="6.09076">
        <ele>361.2</ele>
        <time>2024-07-31T11:22:27Z</time>
      </trkpt>
      <trkpt lat="47.29339" lon="6.0907">
        <ele>361</ele>
        <time>2024-07-31T11:22:28Z</time>
      </trkpt>
      <trkpt lat="47.29334" lon="6.09065">
        <ele>361.2</ele>
        <time>2024-07-31T11:22:29Z</time>
      </trkpt>
      <trkpt lat="47.29329" lon="6.09059">
        <ele>361.2</ele>
        <time>2024-07-31T11:22:30Z</time>
      </trkpt>
      <trkpt lat="47.29324" lon="6.09053">
        <ele>361.6</ele>
        <time>2024-07-31T11:22:31Z</time>
      </trkpt>
      <trkpt lat="47.29319" lon="6.09047">
        <ele>361.2</ele>
        <time>2024-07-31T11:22:32Z</time>
      </trkpt>
      <trkpt lat="47.29313" lon="6.0904">
        <ele>361.2</ele>
        <time>2024-07-31T11:22:33Z</time>
      </trkpt>
      <trkpt lat="47.29308" lon="6.09034">
        <ele>361</ele>
        <time>2024-07-31T11:22:34Z</time>
      </trkpt>
      <trkpt lat="47.29302" lon="6.09027">
        <ele>361</ele>
        <time>2024-07-31T11:22:35Z</time>
      </trkpt>
      <trkpt lat="47.29297" lon="6.09021">
        <ele>360.6</ele>
        <time>2024-07-31T11:22:36Z</time>
      </trkpt>
      <trkpt lat="47.29291" lon="6.09015">
        <ele>360.4</ele>
        <time>2024-07-31T11:22:37Z</time>
      </trkpt>
      <trkpt lat="47.29285" lon="6.09009">
        <ele>360.4</ele>
        <time>2024-07-31T11:22:38Z</time>
      </trkpt>
      <trkpt lat="47.2928" lon="6.09003">
        <ele>360.6</ele>
        <time>2024-07-31T11:22:39Z</time>
      </trkpt>
      <trkpt lat="47.29274" lon="6.08997">
        <ele>360</ele>
        <time>2024-07-31T11:22:40Z</time>
      </trkpt>
      <trkpt lat="47.29269" lon="6.08991">
        <ele>359.6</ele>
        <time>2024-07-31T11:22:41Z</time>
      </trkpt>
      <trkpt lat="47.29264" lon="6.08986">
        <ele>359.2</ele>
        <time>2024-07-31T11:22:42Z</time>
      </trkpt>
      <trkpt lat="47.2926" lon="6.08981">
        <ele>359</ele>
        <time>2024-07-31T11:22:43Z</time>
      </trkpt>
      <trkpt lat="47.29257" lon="6.08977">
        <ele>358.8</ele>
        <time>2024-07-31T11:22:44Z</time>
      </trkpt>
      <trkpt lat="47.29253" lon="6.08973">
        <ele>358.8</ele>
        <time>2024-07-31T11:22:45Z</time>
      </trkpt>
      <trkpt lat="47.2925" lon="6.08969">
        <ele>358.8</ele>
        <time>2024-07-31T11:22:46Z</time>
      </trkpt>
      <trkpt lat="47.29247" lon="6.08965">
        <ele>358.8</ele>
        <time>2024-07-31T11:22:47Z</time>
      </trkpt>
      <trkpt lat="47.29245" lon="6.08963">
        <ele>358.8</ele>
        <time>2024-07-31T11:22:48Z</time>
      </trkpt>
      <trkpt lat="47.29244" lon="6.0896">
        <ele>358.8</ele>
        <time>2024-07-31T11:22:49Z</time>
      </trkpt>
      <trkpt lat="47.29244" lon="6.08957">
        <ele>358.6</ele>
        <time>2024-07-31T11:22:50Z</time>
      </trkpt>
      <trkpt lat="47.29243" lon="6.08955">
        <ele>358.6</ele>
        <time>2024-07-31T11:22:51Z</time>
      </trkpt>
      <trkpt lat="47.29242" lon="6.08953">
        <ele>358.6</ele>
        <time>2024-07-31T11:22:52Z</time>
      </trkpt>
      <trkpt lat="47.29241" lon="6.08951">
        <ele>358.6</ele>
        <time>2024-07-31T11:22:53Z</time>
      </trkpt>
      <trkpt lat="47.29239" lon="6.0895">
        <ele>358.6</ele>
        <time>2024-07-31T11:22:54Z</time>
      </trkpt>
      <trkpt lat="47.29237" lon="6.08949">
        <ele>358.4</ele>
        <time>2024-07-31T11:22:55Z</time>
      </trkpt>
      <trkpt lat="47.29235" lon="6.08948">
        <ele>358.4</ele>
        <time>2024-07-31T11:22:56Z</time>
      </trkpt>
      <trkpt lat="47.29232" lon="6.08947">
        <ele>358.2</ele>
        <time>2024-07-31T11:22:57Z</time>
      </trkpt>
      <trkpt lat="47.2923" lon="6.08945">
        <ele>358.4</ele>
        <time>2024-07-31T11:22:58Z</time>
      </trkpt>
      <trkpt lat="47.29227" lon="6.08943">
        <ele>358.2</ele>
        <time>2024-07-31T11:22:59Z</time>
      </trkpt>
      <trkpt lat="47.29225" lon="6.0894">
        <ele>358.2</ele>
        <time>2024-07-31T11:23:00Z</time>
      </trkpt>
      <trkpt lat="47.29222" lon="6.08936">
        <ele>358.2</ele>
        <time>2024-07-31T11:23:01Z</time>
      </trkpt>
      <trkpt lat="47.29219" lon="6.08933">
        <ele>358.2</ele>
        <time>2024-07-31T11:23:02Z</time>
      </trkpt>
      <trkpt lat="47.29216" lon="6.08929">
        <ele>358</ele>
        <time>2024-07-31T11:23:03Z</time>
      </trkpt>
      <trkpt lat="47.29213" lon="6.08925">
        <ele>358</ele>
        <time>2024-07-31T11:23:04Z</time>
      </trkpt>
      <trkpt lat="47.29209" lon="6.0892">
        <ele>357.6</ele>
        <time>2024-07-31T11:23:05Z</time>
      </trkpt>
      <trkpt lat="47.29206" lon="6.08916">
        <ele>357.6</ele>
        <time>2024-07-31T11:23:06Z</time>
      </trkpt>
      <trkpt lat="47.29203" lon="6.08912">
        <ele>357.4</ele>
        <time>2024-07-31T11:23:07Z</time>
      </trkpt>
      <trkpt lat="47.292" lon="6.08907">
        <ele>357.2</ele>
        <time>2024-07-31T11:23:08Z</time>
      </trkpt>
      <trkpt lat="47.29197" lon="6.08902">
        <ele>357</ele>
        <time>2024-07-31T11:23:09Z</time>
      </trkpt>
      <trkpt lat="47.29194" lon="6.08896">
        <ele>357.2</ele>
        <time>2024-07-31T11:23:10Z</time>
      </trkpt>
      <trkpt lat="47.29192" lon="6.0889">
        <ele>357.2</ele>
        <time>2024-07-31T11:23:11Z</time>
      </trkpt>
      <trkpt lat="47.29191" lon="6.08883">
        <ele>357.2</ele>
        <time>2024-07-31T11:23:12Z</time>
      </trkpt>
      <trkpt lat="47.2919" lon="6.08877">
        <ele>357</ele>
        <time>2024-07-31T11:23:13Z</time>
      </trkpt>
      <trkpt lat="47.29189" lon="6.0887">
        <ele>356.8</ele>
        <time>2024-07-31T11:23:14Z</time>
      </trkpt>
      <trkpt lat="47.29188" lon="6.08862">
        <ele>357</ele>
        <time>2024-07-31T11:23:15Z</time>
      </trkpt>
      <trkpt lat="47.29187" lon="6.08854">
        <ele>357</ele>
        <time>2024-07-31T11:23:16Z</time>
      </trkpt>
      <trkpt lat="47.29187" lon="6.08845">
        <ele>356.8</ele>
        <time>2024-07-31T11:23:17Z</time>
      </trkpt>
      <trkpt lat="47.29186" lon="6.08837">
        <ele>356.2</ele>
        <time>2024-07-31T11:23:18Z</time>
      </trkpt>
      <trkpt lat="47.29185" lon="6.08828">
        <ele>356.4</ele>
        <time>2024-07-31T11:23:19Z</time>
      </trkpt>
      <trkpt lat="47.29185" lon="6.0882">
        <ele>356.6</ele>
        <time>2024-07-31T11:23:20Z</time>
      </trkpt>
      <trkpt lat="47.29184" lon="6.08811">
        <ele>356.2</ele>
        <time>2024-07-31T11:23:21Z</time>
      </trkpt>
      <trkpt lat="47.29182" lon="6.08802">
        <ele>356.2</ele>
        <time>2024-07-31T11:23:22Z</time>
      </trkpt>
      <trkpt lat="47.29181" lon="6.08793">
        <ele>356</ele>
        <time>2024-07-31T11:23:23Z</time>
      </trkpt>
      <trkpt lat="47.2918" lon="6.08784">
        <ele>356</ele>
        <time>2024-07-31T11:23:24Z</time>
      </trkpt>
      <trkpt lat="47.29179" lon="6.08777">
        <ele>355.8</ele>
        <time>2024-07-31T11:23:25Z</time>
      </trkpt>
      <trkpt lat="47.29178" lon="6.08771">
        <ele>355.6</ele>
        <time>2024-07-31T11:23:26Z</time>
      </trkpt>
      <trkpt lat="47.29177" lon="6.08764">
        <ele>355.4</ele>
        <time>2024-07-31T11:23:27Z</time>
      </trkpt>
      <trkpt lat="47.29175" lon="6.08758">
        <ele>355.4</ele>
        <time>2024-07-31T11:23:28Z</time>
      </trkpt>
      <trkpt lat="47.29174" lon="6.08752">
        <ele>355.4</ele>
        <time>2024-07-31T11:23:29Z</time>
      </trkpt>
      <trkpt lat="47.29172" lon="6.08746">
        <ele>355.4</ele>
        <time>2024-07-31T11:23:30Z</time>
      </trkpt>
      <trkpt lat="47.2917" lon="6.08739">
        <ele>355.4</ele>
        <time>2024-07-31T11:23:31Z</time>
      </trkpt>
      <trkpt lat="47.29169" lon="6.08732">
        <ele>355.2</ele>
        <time>2024-07-31T11:23:32Z</time>
      </trkpt>
      <trkpt lat="47.29166" lon="6.08724">
        <ele>355.2</ele>
        <time>2024-07-31T11:23:33Z</time>
      </trkpt>
      <trkpt lat="47.29164" lon="6.08716">
        <ele>354.8</ele>
        <time>2024-07-31T11:23:34Z</time>
      </trkpt>
      <trkpt lat="47.29162" lon="6.08708">
        <ele>355</ele>
        <time>2024-07-31T11:23:35Z</time>
      </trkpt>
      <trkpt lat="47.2916" lon="6.087">
        <ele>355</ele>
        <time>2024-07-31T11:23:36Z</time>
      </trkpt>
      <trkpt lat="47.29157" lon="6.08692">
        <ele>355</ele>
        <time>2024-07-31T11:23:37Z</time>
      </trkpt>
      <trkpt lat="47.29155" lon="6.08684">
        <ele>354.8</ele>
        <time>2024-07-31T11:23:38Z</time>
      </trkpt>
      <trkpt lat="47.29152" lon="6.08677">
        <ele>355</ele>
        <time>2024-07-31T11:23:39Z</time>
      </trkpt>
      <trkpt lat="47.29149" lon="6.08669">
        <ele>354.4</ele>
        <time>2024-07-31T11:23:40Z</time>
      </trkpt>
      <trkpt lat="47.29146" lon="6.08661">
        <ele>354.4</ele>
        <time>2024-07-31T11:23:41Z</time>
      </trkpt>
      <trkpt lat="47.29142" lon="6.08654">
        <ele>354.6</ele>
        <time>2024-07-31T11:23:42Z</time>
      </trkpt>
      <trkpt lat="47.29139" lon="6.08647">
        <ele>354.2</ele>
        <time>2024-07-31T11:23:43Z</time>
      </trkpt>
      <trkpt lat="47.29134" lon="6.0864">
        <ele>354</ele>
        <time>2024-07-31T11:23:44Z</time>
      </trkpt>
      <trkpt lat="47.2913" lon="6.08633">
        <ele>353.8</ele>
        <time>2024-07-31T11:23:45Z</time>
      </trkpt>
      <trkpt lat="47.29126" lon="6.08626">
        <ele>353.4</ele>
        <time>2024-07-31T11:23:46Z</time>
      </trkpt>
      <trkpt lat="47.29122" lon="6.08619">
        <ele>353.2</ele>
        <time>2024-07-31T11:23:47Z</time>
      </trkpt>
      <trkpt lat="47.29118" lon="6.08612">
        <ele>352.8</ele>
        <time>2024-07-31T11:23:48Z</time>
      </trkpt>
      <trkpt lat="47.29114" lon="6.08605">
        <ele>352.8</ele>
        <time>2024-07-31T11:23:49Z</time>
      </trkpt>
      <trkpt lat="47.29111" lon="6.08598">
        <ele>352.8</ele>
        <time>2024-07-31T11:23:50Z</time>
      </trkpt>
      <trkpt lat="47.29108" lon="6.08591">
        <ele>352.4</ele>
        <time>2024-07-31T11:23:51Z</time>
      </trkpt>
      <trkpt lat="47.29104" lon="6.08585">
        <ele>352.6</ele>
        <time>2024-07-31T11:23:52Z</time>
      </trkpt>
      <trkpt lat="47.29101" lon="6.08578">
        <ele>352.6</ele>
        <time>2024-07-31T11:23:53Z</time>
      </trkpt>
      <trkpt lat="47.29098" lon="6.08572">
        <ele>352.2</ele>
        <time>2024-07-31T11:23:54Z</time>
      </trkpt>
      <trkpt lat="47.29095" lon="6.08566">
        <ele>352.2</ele>
        <time>2024-07-31T11:23:55Z</time>
      </trkpt>
      <trkpt lat="47.29093" lon="6.08559">
        <ele>352</ele>
        <time>2024-07-31T11:23:56Z</time>
      </trkpt>
      <trkpt lat="47.2909" lon="6.08552">
        <ele>352</ele>
        <time>2024-07-31T11:23:57Z</time>
      </trkpt>
      <trkpt lat="47.29088" lon="6.08544">
        <ele>352.2</ele>
        <time>2024-07-31T11:23:58Z</time>
      </trkpt>
      <trkpt lat="47.29086" lon="6.08536">
        <ele>351.6</ele>
        <time>2024-07-31T11:23:59Z</time>
      </trkpt>
      <trkpt lat="47.29084" lon="6.08529">
        <ele>352</ele>
        <time>2024-07-31T11:24:00Z</time>
      </trkpt>
      <trkpt lat="47.29082" lon="6.08521">
        <ele>351.2</ele>
        <time>2024-07-31T11:24:01Z</time>
      </trkpt>
      <trkpt lat="47.2908" lon="6.08514">
        <ele>351.4</ele>
        <time>2024-07-31T11:24:02Z</time>
      </trkpt>
      <trkpt lat="47.29078" lon="6.08507">
        <ele>351.4</ele>
        <time>2024-07-31T11:24:03Z</time>
      </trkpt>
      <trkpt lat="47.29075" lon="6.08498">
        <ele>350.8</ele>
        <time>2024-07-31T11:24:04Z</time>
      </trkpt>
      <trkpt lat="47.29072" lon="6.08489">
        <ele>351</ele>
        <time>2024-07-31T11:24:05Z</time>
      </trkpt>
      <trkpt lat="47.29069" lon="6.08481">
        <ele>350.8</ele>
        <time>2024-07-31T11:24:06Z</time>
      </trkpt>
      <trkpt lat="47.29066" lon="6.08474">
        <ele>350.8</ele>
        <time>2024-07-31T11:24:07Z</time>
      </trkpt>
      <trkpt lat="47.29063" lon="6.08466">
        <ele>350.4</ele>
        <time>2024-07-31T11:24:08Z</time>
      </trkpt>
      <trkpt lat="47.2906" lon="6.08458">
        <ele>350</ele>
        <time>2024-07-31T11:24:09Z</time>
      </trkpt>
      <trkpt lat="47.29057" lon="6.08449">
        <ele>349.4</ele>
        <time>2024-07-31T11:24:10Z</time>
      </trkpt>
      <trkpt lat="47.29055" lon="6.08441">
        <ele>348.8</ele>
        <time>2024-07-31T11:24:11Z</time>
      </trkpt>
      <trkpt lat="47.29054" lon="6.08436">
        <ele>348.4</ele>
        <time>2024-07-31T11:24:12Z</time>
      </trkpt>
      <trkpt lat="47.29053" lon="6.08432">
        <ele>348.4</ele>
        <time>2024-07-31T11:24:13Z</time>
      </trkpt>
      <trkpt lat="47.29052" lon="6.0843">
        <ele>348.2</ele>
        <time>2024-07-31T11:24:14Z</time>
      </trkpt>
      <trkpt lat="47.29051" lon="6.08429">
        <ele>348</ele>
        <time>2024-07-31T11:24:15Z</time>
      </trkpt>
      <trkpt lat="47.29051" lon="6.08427">
        <ele>348</ele>
        <time>2024-07-31T11:24:16Z</time>
      </trkpt>
      <trkpt lat="47.2905" lon="6.08425">
        <ele>348.2</ele>
        <time>2024-07-31T11:24:17Z</time>
      </trkpt>
      <trkpt lat="47.29051" lon="6.08423">
        <ele>348.2</ele>
        <time>2024-07-31T11:24:18Z</time>
      </trkpt>
      <trkpt lat="47.29052" lon="6.08422">
        <ele>348.2</ele>
        <time>2024-07-31T11:24:19Z</time>
      </trkpt>
      <trkpt lat="47.29053" lon="6.08422">
        <ele>348.6</ele>
        <time>2024-07-31T11:24:20Z</time>
      </trkpt>
      <trkpt lat="47.29055" lon="6.08423">
        <ele>348.8</ele>
        <time>2024-07-31T11:24:21Z</time>
      </trkpt>
      <trkpt lat="47.29055" lon="6.08424">
        <ele>349</ele>
        <time>2024-07-31T11:24:22Z</time>
      </trkpt>
      <trkpt lat="47.29056" lon="6.08424">
        <ele>349.4</ele>
        <time>2024-07-31T11:24:23Z</time>
      </trkpt>
      <trkpt lat="47.29057" lon="6.08424">
        <ele>349.4</ele>
        <time>2024-07-31T11:24:24Z</time>
      </trkpt>
      <trkpt lat="47.29057" lon="6.08422">
        <ele>349.6</ele>
        <time>2024-07-31T11:24:25Z</time>
      </trkpt>
      <trkpt lat="47.29056" lon="6.08421">
        <ele>349.6</ele>
        <time>2024-07-31T11:24:26Z</time>
      </trkpt>
      <trkpt lat="47.29056" lon="6.0842">
        <ele>349.4</ele>
        <time>2024-07-31T11:24:27Z</time>
      </trkpt>
      <trkpt lat="47.29054" lon="6.08421">
        <ele>349</ele>
        <time>2024-07-31T11:24:28Z</time>
      </trkpt>
      <trkpt lat="47.29053" lon="6.08422">
        <ele>348.8</ele>
        <time>2024-07-31T11:24:29Z</time>
      </trkpt>
      <trkpt lat="47.29053" lon="6.08424">
        <ele>348.8</ele>
        <time>2024-07-31T11:24:30Z</time>
      </trkpt>
      <trkpt lat="47.29052" lon="6.08426">
        <ele>348.8</ele>
        <time>2024-07-31T11:24:31Z</time>
      </trkpt>
      <trkpt lat="47.29052" lon="6.08428">
        <ele>348.8</ele>
        <time>2024-07-31T11:24:32Z</time>
      </trkpt>
      <trkpt lat="47.29051" lon="6.08432">
        <ele>348.2</ele>
        <time>2024-07-31T11:24:33Z</time>
      </trkpt>
      <trkpt lat="47.29051" lon="6.08435">
        <ele>348.6</ele>
        <time>2024-07-31T11:24:34Z</time>
      </trkpt>
      <trkpt lat="47.29052" lon="6.08439">
        <ele>348.8</ele>
        <time>2024-07-31T11:24:35Z</time>
      </trkpt>
      <trkpt lat="47.29053" lon="6.08442">
        <ele>348.6</ele>
        <time>2024-07-31T11:24:36Z</time>
      </trkpt>
      <trkpt lat="47.29054" lon="6.08445">
        <ele>348.8</ele>
        <time>2024-07-31T11:24:37Z</time>
      </trkpt>
      <trkpt lat="47.29055" lon="6.08447">
        <ele>349</ele>
        <time>2024-07-31T11:24:38Z</time>
      </trkpt>
      <trkpt lat="47.29056" lon="6.0845">
        <ele>349.2</ele>
        <time>2024-07-31T11:24:39Z</time>
      </trkpt>
      <trkpt lat="47.29057" lon="6.08453">
        <ele>349</ele>
        <time>2024-07-31T11:24:40Z</time>
      </trkpt>
      <trkpt lat="47.29058" lon="6.08457">
        <ele>349.4</ele>
        <time>2024-07-31T11:24:41Z</time>
      </trkpt>
      <trkpt lat="47.29059" lon="6.0846">
        <ele>349.4</ele>
        <time>2024-07-31T11:24:42Z</time>
      </trkpt>
      <trkpt lat="47.2906" lon="6.08463">
        <ele>349.4</ele>
        <time>2024-07-31T11:24:43Z</time>
      </trkpt>
      <trkpt lat="47.29061" lon="6.08467">
        <ele>349.2</ele>
        <time>2024-07-31T11:24:44Z</time>
      </trkpt>
      <trkpt lat="47.29062" lon="6.0847">
        <ele>349.4</ele>
        <time>2024-07-31T11:24:45Z</time>
      </trkpt>
      <trkpt lat="47.29064" lon="6.08474">
        <ele>349.8</ele>
        <time>2024-07-31T11:24:46Z</time>
      </trkpt>
      <trkpt lat="47.29065" lon="6.08477">
        <ele>350</ele>
        <time>2024-07-31T11:24:47Z</time>
      </trkpt>
      <trkpt lat="47.29066" lon="6.0848">
        <ele>350</ele>
        <time>2024-07-31T11:24:48Z</time>
      </trkpt>
      <trkpt lat="47.29067" lon="6.08485">
        <ele>350</ele>
        <time>2024-07-31T11:24:49Z</time>
      </trkpt>
      <trkpt lat="47.29069" lon="6.08489">
        <ele>350.4</ele>
        <time>2024-07-31T11:24:50Z</time>
      </trkpt>
      <trkpt lat="47.2907" lon="6.08492">
        <ele>350.2</ele>
        <time>2024-07-31T11:24:51Z</time>
      </trkpt>
      <trkpt lat="47.29071" lon="6.08496">
        <ele>350.4</ele>
        <time>2024-07-31T11:24:52Z</time>
      </trkpt>
      <trkpt lat="47.29072" lon="6.085">
        <ele>350.2</ele>
        <time>2024-07-31T11:24:53Z</time>
      </trkpt>
      <trkpt lat="47.29074" lon="6.08504">
        <ele>350.6</ele>
        <time>2024-07-31T11:24:54Z</time>
      </trkpt>
      <trkpt lat="47.29074" lon="6.08508">
        <ele>350.8</ele>
        <time>2024-07-31T11:24:55Z</time>
      </trkpt>
      <trkpt lat="47.29075" lon="6.08513">
        <ele>350.6</ele>
        <time>2024-07-31T11:24:56Z</time>
      </trkpt>
      <trkpt lat="47.29076" lon="6.08517">
        <ele>350.8</ele>
        <time>2024-07-31T11:24:57Z</time>
      </trkpt>
      <trkpt lat="47.29077" lon="6.0852">
        <ele>350.8</ele>
        <time>2024-07-31T11:24:58Z</time>
      </trkpt>
      <trkpt lat="47.29077" lon="6.08524">
        <ele>351</ele>
        <time>2024-07-31T11:24:59Z</time>
      </trkpt>
      <trkpt lat="47.29078" lon="6.08528">
        <ele>351.2</ele>
        <time>2024-07-31T11:25:00Z</time>
      </trkpt>
      <trkpt lat="47.29079" lon="6.08532">
        <ele>351</ele>
        <time>2024-07-31T11:25:01Z</time>
      </trkpt>
      <trkpt lat="47.2908" lon="6.08536">
        <ele>351.2</ele>
        <time>2024-07-31T11:25:02Z</time>
      </trkpt>
      <trkpt lat="47.29081" lon="6.0854">
        <ele>351.4</ele>
        <time>2024-07-31T11:25:03Z</time>
      </trkpt>
      <trkpt lat="47.29082" lon="6.08544">
        <ele>351.4</ele>
        <time>2024-07-31T11:25:04Z</time>
      </trkpt>
      <trkpt lat="47.29084" lon="6.08548">
        <ele>351.6</ele>
        <time>2024-07-31T11:25:05Z</time>
      </trkpt>
      <trkpt lat="47.29085" lon="6.08551">
        <ele>351.8</ele>
        <time>2024-07-31T11:25:06Z</time>
      </trkpt>
      <trkpt lat="47.29087" lon="6.08555">
        <ele>351.6</ele>
        <time>2024-07-31T11:25:07Z</time>
      </trkpt>
      <trkpt lat="47.29089" lon="6.08559">
        <ele>351.6</ele>
        <time>2024-07-31T11:25:08Z</time>
      </trkpt>
      <trkpt lat="47.29091" lon="6.08564">
        <ele>351.8</ele>
        <time>2024-07-31T11:25:09Z</time>
      </trkpt>
      <trkpt lat="47.29093" lon="6.08568">
        <ele>351.6</ele>
        <time>2024-07-31T11:25:10Z</time>
      </trkpt>
      <trkpt lat="47.29095" lon="6.08572">
        <ele>351.8</ele>
        <time>2024-07-31T11:25:11Z</time>
      </trkpt>
      <trkpt lat="47.29098" lon="6.08576">
        <ele>351.8</ele>
        <time>2024-07-31T11:25:12Z</time>
      </trkpt>
      <trkpt lat="47.291" lon="6.0858">
        <ele>351.8</ele>
        <time>2024-07-31T11:25:13Z</time>
      </trkpt>
      <trkpt lat="47.29102" lon="6.08583">
        <ele>351.4</ele>
        <time>2024-07-31T11:25:14Z</time>
      </trkpt>
      <trkpt lat="47.29104" lon="6.08588">
        <ele>351.8</ele>
        <time>2024-07-31T11:25:15Z</time>
      </trkpt>
      <trkpt lat="47.29106" lon="6.08591">
        <ele>351.4</ele>
        <time>2024-07-31T11:25:16Z</time>
      </trkpt>
      <trkpt lat="47.29108" lon="6.08595">
        <ele>351.4</ele>
        <time>2024-07-31T11:25:17Z</time>
      </trkpt>
      <trkpt lat="47.2911" lon="6.08598">
        <ele>351.6</ele>
        <time>2024-07-31T11:25:18Z</time>
      </trkpt>
      <trkpt lat="47.29112" lon="6.08601">
        <ele>352</ele>
        <time>2024-07-31T11:25:19Z</time>
      </trkpt>
      <trkpt lat="47.29114" lon="6.08605">
        <ele>351.8</ele>
        <time>2024-07-31T11:25:20Z</time>
      </trkpt>
      <trkpt lat="47.29116" lon="6.08608">
        <ele>352.2</ele>
        <time>2024-07-31T11:25:21Z</time>
      </trkpt>
      <trkpt lat="47.29118" lon="6.08611">
        <ele>352.2</ele>
        <time>2024-07-31T11:25:22Z</time>
      </trkpt>
      <trkpt lat="47.2912" lon="6.08615">
        <ele>352.4</ele>
        <time>2024-07-31T11:25:23Z</time>
      </trkpt>
      <trkpt lat="47.29122" lon="6.08619">
        <ele>352.6</ele>
        <time>2024-07-31T11:25:24Z</time>
      </trkpt>
      <trkpt lat="47.29123" lon="6.08624">
        <ele>352.4</ele>
        <time>2024-07-31T11:25:25Z</time>
      </trkpt>
      <trkpt lat="47.29125" lon="6.08628">
        <ele>352.4</ele>
        <time>2024-07-31T11:25:26Z</time>
      </trkpt>
      <trkpt lat="47.29127" lon="6.08632">
        <ele>352.8</ele>
        <time>2024-07-31T11:25:27Z</time>
      </trkpt>
      <trkpt lat="47.29129" lon="6.08636">
        <ele>352.8</ele>
        <time>2024-07-31T11:25:28Z</time>
      </trkpt>
      <trkpt lat="47.29132" lon="6.0864">
        <ele>352.8</ele>
        <time>2024-07-31T11:25:29Z</time>
      </trkpt>
      <trkpt lat="47.29134" lon="6.08645">
        <ele>353</ele>
        <time>2024-07-31T11:25:30Z</time>
      </trkpt>
      <trkpt lat="47.29136" lon="6.08649">
        <ele>353.2</ele>
        <time>2024-07-31T11:25:31Z</time>
      </trkpt>
      <trkpt lat="47.29138" lon="6.08654">
        <ele>353.2</ele>
        <time>2024-07-31T11:25:32Z</time>
      </trkpt>
      <trkpt lat="47.2914" lon="6.08658">
        <ele>353.2</ele>
        <time>2024-07-31T11:25:33Z</time>
      </trkpt>
      <trkpt lat="47.29142" lon="6.08662">
        <ele>353.2</ele>
        <time>2024-07-31T11:25:34Z</time>
      </trkpt>
      <trkpt lat="47.29143" lon="6.08666">
        <ele>353.4</ele>
        <time>2024-07-31T11:25:35Z</time>
      </trkpt>
      <trkpt lat="47.29144" lon="6.0867">
        <ele>353.4</ele>
        <time>2024-07-31T11:25:36Z</time>
      </trkpt>
      <trkpt lat="47.29146" lon="6.08675">
        <ele>353.2</ele>
        <time>2024-07-31T11:25:37Z</time>
      </trkpt>
      <trkpt lat="47.29147" lon="6.0868">
        <ele>353.4</ele>
        <time>2024-07-31T11:25:38Z</time>
      </trkpt>
      <trkpt lat="47.29149" lon="6.08684">
        <ele>353.2</ele>
        <time>2024-07-31T11:25:39Z</time>
      </trkpt>
      <trkpt lat="47.29149" lon="6.08689">
        <ele>353.2</ele>
        <time>2024-07-31T11:25:40Z</time>
      </trkpt>
      <trkpt lat="47.2915" lon="6.08693">
        <ele>353.6</ele>
        <time>2024-07-31T11:25:41Z</time>
      </trkpt>
      <trkpt lat="47.29151" lon="6.08696">
        <ele>353.4</ele>
        <time>2024-07-31T11:25:42Z</time>
      </trkpt>
      <trkpt lat="47.29153" lon="6.08701">
        <ele>353.6</ele>
        <time>2024-07-31T11:25:43Z</time>
      </trkpt>
      <trkpt lat="47.29153" lon="6.08705">
        <ele>353.6</ele>
        <time>2024-07-31T11:25:44Z</time>
      </trkpt>
      <trkpt lat="47.29154" lon="6.08709">
        <ele>353.6</ele>
        <time>2024-07-31T11:25:45Z</time>
      </trkpt>
      <trkpt lat="47.29155" lon="6.08713">
        <ele>353.8</ele>
        <time>2024-07-31T11:25:46Z</time>
      </trkpt>
      <trkpt lat="47.29156" lon="6.08718">
        <ele>354</ele>
        <time>2024-07-31T11:25:47Z</time>
      </trkpt>
      <trkpt lat="47.29157" lon="6.08722">
        <ele>354</ele>
        <time>2024-07-31T11:25:48Z</time>
      </trkpt>
      <trkpt lat="47.29159" lon="6.08728">
        <ele>354</ele>
        <time>2024-07-31T11:25:49Z</time>
      </trkpt>
      <trkpt lat="47.2916" lon="6.08732">
        <ele>354.4</ele>
        <time>2024-07-31T11:25:50Z</time>
      </trkpt>
      <trkpt lat="47.29162" lon="6.08736">
        <ele>354.2</ele>
        <time>2024-07-31T11:25:51Z</time>
      </trkpt>
      <trkpt lat="47.29164" lon="6.08739">
        <ele>354.2</ele>
        <time>2024-07-31T11:25:52Z</time>
      </trkpt>
      <trkpt lat="47.29167" lon="6.08742">
        <ele>354.2</ele>
        <time>2024-07-31T11:25:53Z</time>
      </trkpt>
      <trkpt lat="47.29169" lon="6.08744">
        <ele>354.8</ele>
        <time>2024-07-31T11:25:54Z</time>
      </trkpt>
      <trkpt lat="47.29172" lon="6.08746">
        <ele>354.6</ele>
        <time>2024-07-31T11:25:55Z</time>
      </trkpt>
      <trkpt lat="47.29175" lon="6.08747">
        <ele>354.6</ele>
        <time>2024-07-31T11:25:56Z</time>
      </trkpt>
      <trkpt lat="47.29177" lon="6.08747">
        <ele>355</ele>
        <time>2024-07-31T11:25:57Z</time>
      </trkpt>
      <trkpt lat="47.2918" lon="6.08746">
        <ele>355.2</ele>
        <time>2024-07-31T11:25:58Z</time>
      </trkpt>
      <trkpt lat="47.29182" lon="6.08746">
        <ele>355.2</ele>
        <time>2024-07-31T11:25:59Z</time>
      </trkpt>
      <trkpt lat="47.29184" lon="6.08745">
        <ele>355.6</ele>
        <time>2024-07-31T11:26:00Z</time>
      </trkpt>
      <trkpt lat="47.29186" lon="6.08745">
        <ele>355.6</ele>
        <time>2024-07-31T11:26:01Z</time>
      </trkpt>
      <trkpt lat="47.29188" lon="6.08743">
        <ele>355.6</ele>
        <time>2024-07-31T11:26:02Z</time>
      </trkpt>
      <trkpt lat="47.29189" lon="6.08742">
        <ele>355.8</ele>
        <time>2024-07-31T11:26:03Z</time>
      </trkpt>
      <trkpt lat="47.29189" lon="6.08741">
        <ele>355.6</ele>
        <time>2024-07-31T11:26:04Z</time>
      </trkpt>
      <trkpt lat="47.29189" lon="6.0874">
        <ele>355.4</ele>
        <time>2024-07-31T11:26:05Z</time>
      </trkpt>
      <trkpt lat="47.29189" lon="6.0874">
        <ele>355.4</ele>
        <time>2024-07-31T11:26:06Z</time>
      </trkpt>
      <trkpt lat="47.29188" lon="6.08741">
        <ele>355.6</ele>
        <time>2024-07-31T11:26:07Z</time>
      </trkpt>
      <trkpt lat="47.29187" lon="6.08742">
        <ele>355.4</ele>
        <time>2024-07-31T11:26:08Z</time>
      </trkpt>
      <trkpt lat="47.29186" lon="6.08743">
        <ele>355.4</ele>
        <time>2024-07-31T11:26:09Z</time>
      </trkpt>
      <trkpt lat="47.29184" lon="6.08744">
        <ele>355</ele>
        <time>2024-07-31T11:26:10Z</time>
      </trkpt>
      <trkpt lat="47.29181" lon="6.08745">
        <ele>355</ele>
        <time>2024-07-31T11:26:11Z</time>
      </trkpt>
      <trkpt lat="47.29178" lon="6.08745">
        <ele>355</ele>
        <time>2024-07-31T11:26:12Z</time>
      </trkpt>
      <trkpt lat="47.29175" lon="6.08744">
        <ele>354.6</ele>
        <time>2024-07-31T11:26:13Z</time>
      </trkpt>
      <trkpt lat="47.29173" lon="6.08743">
        <ele>354.4</ele>
        <time>2024-07-31T11:26:14Z</time>
      </trkpt>
      <trkpt lat="47.2917" lon="6.08742">
        <ele>354.2</ele>
        <time>2024-07-31T11:26:15Z</time>
      </trkpt>
      <trkpt lat="47.29167" lon="6.08741">
        <ele>354.2</ele>
        <time>2024-07-31T11:26:16Z</time>
      </trkpt>
      <trkpt lat="47.29165" lon="6.08737">
        <ele>353.8</ele>
        <time>2024-07-31T11:26:17Z</time>
      </trkpt>
      <trkpt lat="47.29163" lon="6.08733">
        <ele>353.8</ele>
        <time>2024-07-31T11:26:18Z</time>
      </trkpt>
      <trkpt lat="47.29161" lon="6.08729">
        <ele>353.6</ele>
        <time>2024-07-31T11:26:19Z</time>
      </trkpt>
      <trkpt lat="47.2916" lon="6.08725">
        <ele>353.4</ele>
        <time>2024-07-31T11:26:20Z</time>
      </trkpt>
      <trkpt lat="47.29159" lon="6.08721">
        <ele>353.6</ele>
        <time>2024-07-31T11:26:21Z</time>
      </trkpt>
      <trkpt lat="47.29158" lon="6.08717">
        <ele>353.6</ele>
        <time>2024-07-31T11:26:22Z</time>
      </trkpt>
      <trkpt lat="47.29157" lon="6.08713">
        <ele>353.6</ele>
        <time>2024-07-31T11:26:23Z</time>
      </trkpt>
      <trkpt lat="47.29155" lon="6.08709">
        <ele>353.6</ele>
        <time>2024-07-31T11:26:24Z</time>
      </trkpt>
      <trkpt lat="47.29155" lon="6.08704">
        <ele>353.4</ele>
        <time>2024-07-31T11:26:25Z</time>
      </trkpt>
      <trkpt lat="47.29154" lon="6.087">
        <ele>353.6</ele>
        <time>2024-07-31T11:26:26Z</time>
      </trkpt>
      <trkpt lat="47.29153" lon="6.08695">
        <ele>353.6</ele>
        <time>2024-07-31T11:26:27Z</time>
      </trkpt>
      <trkpt lat="47.29152" lon="6.08691">
        <ele>353.4</ele>
        <time>2024-07-31T11:26:28Z</time>
      </trkpt>
      <trkpt lat="47.29151" lon="6.08686">
        <ele>353.2</ele>
        <time>2024-07-31T11:26:29Z</time>
      </trkpt>
      <trkpt lat="47.2915" lon="6.0868">
        <ele>353.2</ele>
        <time>2024-07-31T11:26:30Z</time>
      </trkpt>
      <trkpt lat="47.29148" lon="6.08675">
        <ele>353</ele>
        <time>2024-07-31T11:26:31Z</time>
      </trkpt>
      <trkpt lat="47.29147" lon="6.08669">
        <ele>352.6</ele>
        <time>2024-07-31T11:26:32Z</time>
      </trkpt>
      <trkpt lat="47.29145" lon="6.08663">
        <ele>352.6</ele>
        <time>2024-07-31T11:26:33Z</time>
      </trkpt>
      <trkpt lat="47.29143" lon="6.08658">
        <ele>353</ele>
        <time>2024-07-31T11:26:34Z</time>
      </trkpt>
      <trkpt lat="47.2914" lon="6.08653">
        <ele>353</ele>
        <time>2024-07-31T11:26:35Z</time>
      </trkpt>
      <trkpt lat="47.29137" lon="6.08648">
        <ele>352.8</ele>
        <time>2024-07-31T11:26:36Z</time>
      </trkpt>
      <trkpt lat="47.29133" lon="6.08643">
        <ele>352.4</ele>
        <time>2024-07-31T11:26:37Z</time>
      </trkpt>
      <trkpt lat="47.2913" lon="6.08638">
        <ele>352.2</ele>
        <time>2024-07-31T11:26:38Z</time>
      </trkpt>
      <trkpt lat="47.29127" lon="6.08633">
        <ele>352.6</ele>
        <time>2024-07-31T11:26:39Z</time>
      </trkpt>
      <trkpt lat="47.29123" lon="6.08628">
        <ele>352.8</ele>
        <time>2024-07-31T11:26:40Z</time>
      </trkpt>
      <trkpt lat="47.2912" lon="6.08623">
        <ele>352.2</ele>
        <time>2024-07-31T11:26:41Z</time>
      </trkpt>
      <trkpt lat="47.29117" lon="6.08617">
        <ele>352.2</ele>
        <time>2024-07-31T11:26:42Z</time>
      </trkpt>
      <trkpt lat="47.29114" lon="6.08612">
        <ele>351.8</ele>
        <time>2024-07-31T11:26:43Z</time>
      </trkpt>
      <trkpt lat="47.29111" lon="6.08607">
        <ele>351.6</ele>
        <time>2024-07-31T11:26:44Z</time>
      </trkpt>
      <trkpt lat="47.29108" lon="6.08601">
        <ele>351.6</ele>
        <time>2024-07-31T11:26:45Z</time>
      </trkpt>
      <trkpt lat="47.29105" lon="6.08596">
        <ele>351.4</ele>
        <time>2024-07-31T11:26:46Z</time>
      </trkpt>
      <trkpt lat="47.29102" lon="6.0859">
        <ele>351.4</ele>
        <time>2024-07-31T11:26:47Z</time>
      </trkpt>
      <trkpt lat="47.29099" lon="6.08584">
        <ele>351.2</ele>
        <time>2024-07-31T11:26:48Z</time>
      </trkpt>
      <trkpt lat="47.29097" lon="6.08579">
        <ele>351.2</ele>
        <time>2024-07-31T11:26:49Z</time>
      </trkpt>
      <trkpt lat="47.29094" lon="6.08573">
        <ele>351.2</ele>
        <time>2024-07-31T11:26:50Z</time>
      </trkpt>
      <trkpt lat="47.29092" lon="6.08567">
        <ele>351</ele>
        <time>2024-07-31T11:26:51Z</time>
      </trkpt>
      <trkpt lat="47.29089" lon="6.0856">
        <ele>351</ele>
        <time>2024-07-31T11:26:52Z</time>
      </trkpt>
      <trkpt lat="47.29087" lon="6.08554">
        <ele>351</ele>
        <time>2024-07-31T11:26:53Z</time>
      </trkpt>
      <trkpt lat="47.29085" lon="6.08547">
        <ele>350.8</ele>
        <time>2024-07-31T11:26:54Z</time>
      </trkpt>
      <trkpt lat="47.29083" lon="6.08539">
        <ele>350.8</ele>
        <time>2024-07-31T11:26:55Z</time>
      </trkpt>
      <trkpt lat="47.29081" lon="6.08532">
        <ele>350.6</ele>
        <time>2024-07-31T11:26:56Z</time>
      </trkpt>
      <trkpt lat="47.29079" lon="6.08525">
        <ele>350.8</ele>
        <time>2024-07-31T11:26:57Z</time>
      </trkpt>
      <trkpt lat="47.29077" lon="6.08518">
        <ele>350.8</ele>
        <time>2024-07-31T11:26:58Z</time>
      </trkpt>
      <trkpt lat="47.29074" lon="6.0851">
        <ele>350</ele>
        <time>2024-07-31T11:26:59Z</time>
      </trkpt>
      <trkpt lat="47.29072" lon="6.08503">
        <ele>350.6</ele>
        <time>2024-07-31T11:27:00Z</time>
      </trkpt>
      <trkpt lat="47.2907" lon="6.08494">
        <ele>350.4</ele>
        <time>2024-07-31T11:27:01Z</time>
      </trkpt>
      <trkpt lat="47.29068" lon="6.08486">
        <ele>350</ele>
        <time>2024-07-31T11:27:02Z</time>
      </trkpt>
      <trkpt lat="47.29065" lon="6.08478">
        <ele>349.8</ele>
        <time>2024-07-31T11:27:03Z</time>
      </trkpt>
      <trkpt lat="47.29062" lon="6.08471">
        <ele>349.6</ele>
        <time>2024-07-31T11:27:04Z</time>
      </trkpt>
      <trkpt lat="47.2906" lon="6.08463">
        <ele>349.2</ele>
        <time>2024-07-31T11:27:05Z</time>
      </trkpt>
      <trkpt lat="47.29056" lon="6.08455">
        <ele>349</ele>
        <time>2024-07-31T11:27:06Z</time>
      </trkpt>
      <trkpt lat="47.29053" lon="6.08446">
        <ele>348.8</ele>
        <time>2024-07-31T11:27:07Z</time>
      </trkpt>
      <trkpt lat="47.29051" lon="6.08437">
        <ele>348.2</ele>
        <time>2024-07-31T11:27:08Z</time>
      </trkpt>
      <trkpt lat="47.29048" lon="6.08428">
        <ele>348.2</ele>
        <time>2024-07-31T11:27:09Z</time>
      </trkpt>
      <trkpt lat="47.29045" lon="6.08419">
        <ele>347.4</ele>
        <time>2024-07-31T11:27:10Z</time>
      </trkpt>
      <trkpt lat="47.29041" lon="6.08411">
        <ele>347</ele>
        <time>2024-07-31T11:27:11Z</time>
      </trkpt>
      <trkpt lat="47.29037" lon="6.08403">
        <ele>346.2</ele>
        <time>2024-07-31T11:27:12Z</time>
      </trkpt>
      <trkpt lat="47.29032" lon="6.08396">
        <ele>345.4</ele>
        <time>2024-07-31T11:27:13Z</time>
      </trkpt>
      <trkpt lat="47.29027" lon="6.0839">
        <ele>345.2</ele>
        <time>2024-07-31T11:27:14Z</time>
      </trkpt>
      <trkpt lat="47.29022" lon="6.08386">
        <ele>344.8</ele>
        <time>2024-07-31T11:27:15Z</time>
      </trkpt>
      <trkpt lat="47.29018" lon="6.08382">
        <ele>344</ele>
        <time>2024-07-31T11:27:16Z</time>
      </trkpt>
      <trkpt lat="47.29015" lon="6.0838">
        <ele>344</ele>
        <time>2024-07-31T11:27:17Z</time>
      </trkpt>
      <trkpt lat="47.29013" lon="6.08378">
        <ele>344</ele>
        <time>2024-07-31T11:27:18Z</time>
      </trkpt>
      <trkpt lat="47.29011" lon="6.08376">
        <ele>343.4</ele>
        <time>2024-07-31T11:27:19Z</time>
      </trkpt>
      <trkpt lat="47.29009" lon="6.08375">
        <ele>342.6</ele>
        <time>2024-07-31T11:27:20Z</time>
      </trkpt>
      <trkpt lat="47.29007" lon="6.08374">
        <ele>342</ele>
        <time>2024-07-31T11:27:21Z</time>
      </trkpt>
      <trkpt lat="47.29005" lon="6.08373">
        <ele>341.6</ele>
        <time>2024-07-31T11:27:22Z</time>
      </trkpt>
      <trkpt lat="47.29003" lon="6.08371">
        <ele>340.8</ele>
        <time>2024-07-31T11:27:23Z</time>
      </trkpt>
      <trkpt lat="47.29001" lon="6.08371">
        <ele>340.2</ele>
        <time>2024-07-31T11:27:24Z</time>
      </trkpt>
      <trkpt lat="47.29" lon="6.0837">
        <ele>339.6</ele>
        <time>2024-07-31T11:27:25Z</time>
      </trkpt>
      <trkpt lat="47.28998" lon="6.08369">
        <ele>339.2</ele>
        <time>2024-07-31T11:27:26Z</time>
      </trkpt>
      <trkpt lat="47.28995" lon="6.08368">
        <ele>338.8</ele>
        <time>2024-07-31T11:27:27Z</time>
      </trkpt>
      <trkpt lat="47.28993" lon="6.08366">
        <ele>338</ele>
        <time>2024-07-31T11:27:28Z</time>
      </trkpt>
      <trkpt lat="47.28991" lon="6.08365">
        <ele>337.4</ele>
        <time>2024-07-31T11:27:29Z</time>
      </trkpt>
      <trkpt lat="47.28989" lon="6.08364">
        <ele>336.8</ele>
        <time>2024-07-31T11:27:30Z</time>
      </trkpt>
      <trkpt lat="47.28987" lon="6.08364">
        <ele>336.2</ele>
        <time>2024-07-31T11:27:31Z</time>
      </trkpt>
      <trkpt lat="47.28984" lon="6.08363">
        <ele>335.6</ele>
        <time>2024-07-31T11:27:32Z</time>
      </trkpt>
      <trkpt lat="47.28982" lon="6.08363">
        <ele>334.8</ele>
        <time>2024-07-31T11:27:33Z</time>
      </trkpt>
      <trkpt lat="47.2898" lon="6.08362">
        <ele>334.2</ele>
        <time>2024-07-31T11:27:34Z</time>
      </trkpt>
      <trkpt lat="47.28977" lon="6.08362">
        <ele>334</ele>
        <time>2024-07-31T11:27:35Z</time>
      </trkpt>
      <trkpt lat="47.28975" lon="6.0836">
        <ele>333.2</ele>
        <time>2024-07-31T11:27:36Z</time>
      </trkpt>
      <trkpt lat="47.28972" lon="6.0836">
        <ele>332.2</ele>
        <time>2024-07-31T11:27:37Z</time>
      </trkpt>
      <trkpt lat="47.28969" lon="6.0836">
        <ele>331.8</ele>
        <time>2024-07-31T11:27:38Z</time>
      </trkpt>
      <trkpt lat="47.28967" lon="6.08361">
        <ele>331.8</ele>
        <time>2024-07-31T11:27:39Z</time>
      </trkpt>
      <trkpt lat="47.28964" lon="6.08361">
        <ele>331.2</ele>
        <time>2024-07-31T11:27:40Z</time>
      </trkpt>
      <trkpt lat="47.28961" lon="6.08361">
        <ele>330.8</ele>
        <time>2024-07-31T11:27:41Z</time>
      </trkpt>
      <trkpt lat="47.28958" lon="6.08361">
        <ele>329.4</ele>
        <time>2024-07-31T11:27:42Z</time>
      </trkpt>
      <trkpt lat="47.28953" lon="6.08361">
        <ele>329</ele>
        <time>2024-07-31T11:27:43Z</time>
      </trkpt>
      <trkpt lat="47.28949" lon="6.08362">
        <ele>328.4</ele>
        <time>2024-07-31T11:27:44Z</time>
      </trkpt>
      <trkpt lat="47.28944" lon="6.08364">
        <ele>327</ele>
        <time>2024-07-31T11:27:45Z</time>
      </trkpt>
      <trkpt lat="47.28939" lon="6.08366">
        <ele>325.4</ele>
        <time>2024-07-31T11:27:46Z</time>
      </trkpt>
      <trkpt lat="47.28933" lon="6.08368">
        <ele>325.4</ele>
        <time>2024-07-31T11:27:47Z</time>
      </trkpt>
      <trkpt lat="47.28926" lon="6.08368">
        <ele>324.4</ele>
        <time>2024-07-31T11:27:48Z</time>
      </trkpt>
      <trkpt lat="47.2892" lon="6.0837">
        <ele>323</ele>
        <time>2024-07-31T11:27:49Z</time>
      </trkpt>
      <trkpt lat="47.28915" lon="6.08371">
        <ele>322.6</ele>
        <time>2024-07-31T11:27:50Z</time>
      </trkpt>
      <trkpt lat="47.2891" lon="6.08373">
        <ele>321.6</ele>
        <time>2024-07-31T11:27:51Z</time>
      </trkpt>
      <trkpt lat="47.28906" lon="6.08374">
        <ele>320.8</ele>
        <time>2024-07-31T11:27:52Z</time>
      </trkpt>
      <trkpt lat="47.28902" lon="6.08373">
        <ele>320.4</ele>
        <time>2024-07-31T11:27:53Z</time>
      </trkpt>
      <trkpt lat="47.28899" lon="6.08371">
        <ele>319.4</ele>
        <time>2024-07-31T11:27:54Z</time>
      </trkpt>
      <trkpt lat="47.28895" lon="6.08368">
        <ele>318.4</ele>
        <time>2024-07-31T11:27:55Z</time>
      </trkpt>
      <trkpt lat="47.28891" lon="6.08367">
        <ele>318.4</ele>
        <time>2024-07-31T11:27:56Z</time>
      </trkpt>
      <trkpt lat="47.28887" lon="6.08365">
        <ele>317.8</ele>
        <time>2024-07-31T11:27:57Z</time>
      </trkpt>
      <trkpt lat="47.28882" lon="6.08365">
        <ele>317.4</ele>
        <time>2024-07-31T11:27:58Z</time>
      </trkpt>
      <trkpt lat="47.28875" lon="6.08363">
        <ele>317.2</ele>
        <time>2024-07-31T11:27:59Z</time>
      </trkpt>
      <trkpt lat="47.28868" lon="6.08363">
        <ele>317</ele>
        <time>2024-07-31T11:28:00Z</time>
      </trkpt>
      <trkpt lat="47.2886" lon="6.08363">
        <ele>316.2</ele>
        <time>2024-07-31T11:28:01Z</time>
      </trkpt>
      <trkpt lat="47.28852" lon="6.08363">
        <ele>316.2</ele>
        <time>2024-07-31T11:28:02Z</time>
      </trkpt>
      <trkpt lat="47.28844" lon="6.08365">
        <ele>315.8</ele>
        <time>2024-07-31T11:28:03Z</time>
      </trkpt>
      <trkpt lat="47.28836" lon="6.08366">
        <ele>315.2</ele>
        <time>2024-07-31T11:28:04Z</time>
      </trkpt>
      <trkpt lat="47.28828" lon="6.08368">
        <ele>314.6</ele>
        <time>2024-07-31T11:28:05Z</time>
      </trkpt>
      <trkpt lat="47.28819" lon="6.08367">
        <ele>313.8</ele>
        <time>2024-07-31T11:28:06Z</time>
      </trkpt>
      <trkpt lat="47.28809" lon="6.08366">
        <ele>313</ele>
        <time>2024-07-31T11:28:07Z</time>
      </trkpt>
      <trkpt lat="47.288" lon="6.08363">
        <ele>312.2</ele>
        <time>2024-07-31T11:28:08Z</time>
      </trkpt>
      <trkpt lat="47.28792" lon="6.0836">
        <ele>311.6</ele>
        <time>2024-07-31T11:28:09Z</time>
      </trkpt>
      <trkpt lat="47.28783" lon="6.08356">
        <ele>310.8</ele>
        <time>2024-07-31T11:28:10Z</time>
      </trkpt>
      <trkpt lat="47.28774" lon="6.08353">
        <ele>310.2</ele>
        <time>2024-07-31T11:28:11Z</time>
      </trkpt>
      <trkpt lat="47.28765" lon="6.08348">
        <ele>310</ele>
        <time>2024-07-31T11:28:12Z</time>
      </trkpt>
      <trkpt lat="47.28756" lon="6.08344">
        <ele>309</ele>
        <time>2024-07-31T11:28:13Z</time>
      </trkpt>
      <trkpt lat="47.28747" lon="6.08338">
        <ele>308.4</ele>
        <time>2024-07-31T11:28:14Z</time>
      </trkpt>
      <trkpt lat="47.28737" lon="6.08333">
        <ele>307.6</ele>
        <time>2024-07-31T11:28:15Z</time>
      </trkpt>
      <trkpt lat="47.28727" lon="6.08326">
        <ele>306.6</ele>
        <time>2024-07-31T11:28:16Z</time>
      </trkpt>
      <trkpt lat="47.28718" lon="6.08321">
        <ele>306</ele>
        <time>2024-07-31T11:28:17Z</time>
      </trkpt>
      <trkpt lat="47.28708" lon="6.08315">
        <ele>305.4</ele>
        <time>2024-07-31T11:28:18Z</time>
      </trkpt>
      <trkpt lat="47.28697" lon="6.08308">
        <ele>304.8</ele>
        <time>2024-07-31T11:28:19Z</time>
      </trkpt>
      <trkpt lat="47.28687" lon="6.08302">
        <ele>303.6</ele>
        <time>2024-07-31T11:28:20Z</time>
      </trkpt>
      <trkpt lat="47.28677" lon="6.08294">
        <ele>303.2</ele>
        <time>2024-07-31T11:28:21Z</time>
      </trkpt>
      <trkpt lat="47.28666" lon="6.08286">
        <ele>302</ele>
        <time>2024-07-31T11:28:22Z</time>
      </trkpt>
      <trkpt lat="47.28655" lon="6.08279">
        <ele>301</ele>
        <time>2024-07-31T11:28:23Z</time>
      </trkpt>
      <trkpt lat="47.28644" lon="6.08271">
        <ele>301</ele>
        <time>2024-07-31T11:28:24Z</time>
      </trkpt>
      <trkpt lat="47.28633" lon="6.08265">
        <ele>299.8</ele>
        <time>2024-07-31T11:28:25Z</time>
      </trkpt>
      <trkpt lat="47.28622" lon="6.08259">
        <ele>298.4</ele>
        <time>2024-07-31T11:28:26Z</time>
      </trkpt>
      <trkpt lat="47.28613" lon="6.08253">
        <ele>297.2</ele>
        <time>2024-07-31T11:28:27Z</time>
      </trkpt>
      <trkpt lat="47.28603" lon="6.08246">
        <ele>296.4</ele>
        <time>2024-07-31T11:28:28Z</time>
      </trkpt>
      <trkpt lat="47.28595" lon="6.08239">
        <ele>295.2</ele>
        <time>2024-07-31T11:28:29Z</time>
      </trkpt>
      <trkpt lat="47.28587" lon="6.08232">
        <ele>294</ele>
        <time>2024-07-31T11:28:30Z</time>
      </trkpt>
      <trkpt lat="47.28579" lon="6.08224">
        <ele>293</ele>
        <time>2024-07-31T11:28:31Z</time>
      </trkpt>
      <trkpt lat="47.28572" lon="6.08216">
        <ele>291.6</ele>
        <time>2024-07-31T11:28:32Z</time>
      </trkpt>
      <trkpt lat="47.28566" lon="6.08208">
        <ele>290.6</ele>
        <time>2024-07-31T11:28:33Z</time>
      </trkpt>
      <trkpt lat="47.28561" lon="6.08201">
        <ele>289.8</ele>
        <time>2024-07-31T11:28:34Z</time>
      </trkpt>
      <trkpt lat="47.28556" lon="6.08195">
        <ele>288.4</ele>
        <time>2024-07-31T11:28:35Z</time>
      </trkpt>
      <trkpt lat="47.28552" lon="6.08189">
        <ele>287.6</ele>
        <time>2024-07-31T11:28:36Z</time>
      </trkpt>
      <trkpt lat="47.28549" lon="6.08185">
        <ele>287</ele>
        <time>2024-07-31T11:28:37Z</time>
      </trkpt>
      <trkpt lat="47.28546" lon="6.08179">
        <ele>286.4</ele>
        <time>2024-07-31T11:28:38Z</time>
      </trkpt>
      <trkpt lat="47.28543" lon="6.08172">
        <ele>286.2</ele>
        <time>2024-07-31T11:28:39Z</time>
      </trkpt>
      <trkpt lat="47.28539" lon="6.08164">
        <ele>285.6</ele>
        <time>2024-07-31T11:28:40Z</time>
      </trkpt>
      <trkpt lat="47.28535" lon="6.08156">
        <ele>285</ele>
        <time>2024-07-31T11:28:41Z</time>
      </trkpt>
      <trkpt lat="47.2853" lon="6.08147">
        <ele>284.4</ele>
        <time>2024-07-31T11:28:42Z</time>
      </trkpt>
      <trkpt lat="47.28525" lon="6.08139">
        <ele>283.6</ele>
        <time>2024-07-31T11:28:43Z</time>
      </trkpt>
      <trkpt lat="47.28518" lon="6.08131">
        <ele>282.6</ele>
        <time>2024-07-31T11:28:44Z</time>
      </trkpt>
      <trkpt lat="47.28511" lon="6.08123">
        <ele>282.4</ele>
        <time>2024-07-31T11:28:45Z</time>
      </trkpt>
      <trkpt lat="47.28503" lon="6.08116">
        <ele>282.4</ele>
        <time>2024-07-31T11:28:46Z</time>
      </trkpt>
      <trkpt lat="47.28495" lon="6.08112">
        <ele>282.2</ele>
        <time>2024-07-31T11:28:47Z</time>
      </trkpt>
      <trkpt lat="47.28487" lon="6.08109">
        <ele>282.8</ele>
        <time>2024-07-31T11:28:48Z</time>
      </trkpt>
      <trkpt lat="47.28478" lon="6.08108">
        <ele>282.2</ele>
        <time>2024-07-31T11:28:49Z</time>
      </trkpt>
      <trkpt lat="47.28469" lon="6.08106">
        <ele>281.8</ele>
        <time>2024-07-31T11:28:50Z</time>
      </trkpt>
      <trkpt lat="47.2846" lon="6.08104">
        <ele>281.4</ele>
        <time>2024-07-31T11:28:51Z</time>
      </trkpt>
      <trkpt lat="47.28451" lon="6.08098">
        <ele>281.2</ele>
        <time>2024-07-31T11:28:52Z</time>
      </trkpt>
      <trkpt lat="47.28443" lon="6.08093">
        <ele>280.8</ele>
        <time>2024-07-31T11:28:53Z</time>
      </trkpt>
      <trkpt lat="47.28435" lon="6.08087">
        <ele>279.4</ele>
        <time>2024-07-31T11:28:54Z</time>
      </trkpt>
      <trkpt lat="47.28427" lon="6.0808">
        <ele>278.8</ele>
        <time>2024-07-31T11:28:55Z</time>
      </trkpt>
      <trkpt lat="47.2842" lon="6.08074">
        <ele>278.2</ele>
        <time>2024-07-31T11:28:56Z</time>
      </trkpt>
      <trkpt lat="47.28413" lon="6.08068">
        <ele>278</ele>
        <time>2024-07-31T11:28:57Z</time>
      </trkpt>
      <trkpt lat="47.28407" lon="6.08062">
        <ele>277.6</ele>
        <time>2024-07-31T11:28:58Z</time>
      </trkpt>
      <trkpt lat="47.28401" lon="6.08057">
        <ele>276.8</ele>
        <time>2024-07-31T11:28:59Z</time>
      </trkpt>
      <trkpt lat="47.28396" lon="6.08052">
        <ele>276</ele>
        <time>2024-07-31T11:29:00Z</time>
      </trkpt>
      <trkpt lat="47.28391" lon="6.0805">
        <ele>275.8</ele>
        <time>2024-07-31T11:29:01Z</time>
      </trkpt>
      <trkpt lat="47.28386" lon="6.08051">
        <ele>275.8</ele>
        <time>2024-07-31T11:29:02Z</time>
      </trkpt>
      <trkpt lat="47.28381" lon="6.08053">
        <ele>276</ele>
        <time>2024-07-31T11:29:03Z</time>
      </trkpt>
      <trkpt lat="47.28375" lon="6.08057">
        <ele>275.8</ele>
        <time>2024-07-31T11:29:04Z</time>
      </trkpt>
      <trkpt lat="47.2837" lon="6.08061">
        <ele>275.4</ele>
        <time>2024-07-31T11:29:05Z</time>
      </trkpt>
      <trkpt lat="47.28365" lon="6.08067">
        <ele>275.4</ele>
        <time>2024-07-31T11:29:06Z</time>
      </trkpt>
      <trkpt lat="47.2836" lon="6.08072">
        <ele>275</ele>
        <time>2024-07-31T11:29:07Z</time>
      </trkpt>
      <trkpt lat="47.28355" lon="6.08079">
        <ele>275</ele>
        <time>2024-07-31T11:29:08Z</time>
      </trkpt>
      <trkpt lat="47.2835" lon="6.08085">
        <ele>275.2</ele>
        <time>2024-07-31T11:29:09Z</time>
      </trkpt>
      <trkpt lat="47.28345" lon="6.08092">
        <ele>275</ele>
        <time>2024-07-31T11:29:10Z</time>
      </trkpt>
      <trkpt lat="47.2834" lon="6.08099">
        <ele>275</ele>
        <time>2024-07-31T11:29:11Z</time>
      </trkpt>
      <trkpt lat="47.28335" lon="6.08106">
        <ele>275</ele>
        <time>2024-07-31T11:29:12Z</time>
      </trkpt>
      <trkpt lat="47.28329" lon="6.08113">
        <ele>274.8</ele>
        <time>2024-07-31T11:29:13Z</time>
      </trkpt>
      <trkpt lat="47.28324" lon="6.08119">
        <ele>274.2</ele>
        <time>2024-07-31T11:29:14Z</time>
      </trkpt>
      <trkpt lat="47.28318" lon="6.08126">
        <ele>274.2</ele>
        <time>2024-07-31T11:29:15Z</time>
      </trkpt>
      <trkpt lat="47.28312" lon="6.08133">
        <ele>273.6</ele>
        <time>2024-07-31T11:29:16Z</time>
      </trkpt>
      <trkpt lat="47.28306" lon="6.0814">
        <ele>273.4</ele>
        <time>2024-07-31T11:29:17Z</time>
      </trkpt>
      <trkpt lat="47.28301" lon="6.08148">
        <ele>273.2</ele>
        <time>2024-07-31T11:29:18Z</time>
      </trkpt>
      <trkpt lat="47.28295" lon="6.08156">
        <ele>273</ele>
        <time>2024-07-31T11:29:19Z</time>
      </trkpt>
      <trkpt lat="47.28289" lon="6.08163">
        <ele>273.2</ele>
        <time>2024-07-31T11:29:20Z</time>
      </trkpt>
      <trkpt lat="47.28284" lon="6.08171">
        <ele>273</ele>
        <time>2024-07-31T11:29:21Z</time>
      </trkpt>
      <trkpt lat="47.28278" lon="6.08179">
        <ele>272.6</ele>
        <time>2024-07-31T11:29:22Z</time>
      </trkpt>
      <trkpt lat="47.28273" lon="6.08186">
        <ele>272.2</ele>
        <time>2024-07-31T11:29:23Z</time>
      </trkpt>
      <trkpt lat="47.28268" lon="6.08193">
        <ele>271.8</ele>
        <time>2024-07-31T11:29:24Z</time>
      </trkpt>
      <trkpt lat="47.28263" lon="6.08201">
        <ele>271.4</ele>
        <time>2024-07-31T11:29:25Z</time>
      </trkpt>
      <trkpt lat="47.28258" lon="6.08208">
        <ele>271.4</ele>
        <time>2024-07-31T11:29:26Z</time>
      </trkpt>
      <trkpt lat="47.28253" lon="6.08216">
        <ele>271</ele>
        <time>2024-07-31T11:29:27Z</time>
      </trkpt>
      <trkpt lat="47.28247" lon="6.08223">
        <ele>270.8</ele>
        <time>2024-07-31T11:29:28Z</time>
      </trkpt>
      <trkpt lat="47.28243" lon="6.08231">
        <ele>270.4</ele>
        <time>2024-07-31T11:29:29Z</time>
      </trkpt>
      <trkpt lat="47.28238" lon="6.08239">
        <ele>270.4</ele>
        <time>2024-07-31T11:29:30Z</time>
      </trkpt>
      <trkpt lat="47.28234" lon="6.08246">
        <ele>270</ele>
        <time>2024-07-31T11:29:31Z</time>
      </trkpt>
      <trkpt lat="47.28229" lon="6.08253">
        <ele>269.4</ele>
        <time>2024-07-31T11:29:32Z</time>
      </trkpt>
      <trkpt lat="47.28224" lon="6.0826">
        <ele>268.8</ele>
        <time>2024-07-31T11:29:33Z</time>
      </trkpt>
      <trkpt lat="47.28219" lon="6.08267">
        <ele>268.6</ele>
        <time>2024-07-31T11:29:34Z</time>
      </trkpt>
      <trkpt lat="47.28215" lon="6.08275">
        <ele>268.2</ele>
        <time>2024-07-31T11:29:35Z</time>
      </trkpt>
      <trkpt lat="47.28211" lon="6.08281">
        <ele>267.6</ele>
        <time>2024-07-31T11:29:36Z</time>
      </trkpt>
      <trkpt lat="47.28208" lon="6.08287">
        <ele>267.4</ele>
        <time>2024-07-31T11:29:37Z</time>
      </trkpt>
      <trkpt lat="47.28203" lon="6.0829">
        <ele>267</ele>
        <time>2024-07-31T11:29:38Z</time>
      </trkpt>
      <trkpt lat="47.28199" lon="6.08291">
        <ele>267</ele>
        <time>2024-07-31T11:29:39Z</time>
      </trkpt>
      <trkpt lat="47.28195" lon="6.08288">
        <ele>266.6</ele>
        <time>2024-07-31T11:29:40Z</time>
      </trkpt>
      <trkpt lat="47.28191" lon="6.08283">
        <ele>266.6</ele>
        <time>2024-07-31T11:29:41Z</time>
      </trkpt>
      <trkpt lat="47.28189" lon="6.08277">
        <ele>266.6</ele>
        <time>2024-07-31T11:29:42Z</time>
      </trkpt>
      <trkpt lat="47.28187" lon="6.0827">
        <ele>266.2</ele>
        <time>2024-07-31T11:29:43Z</time>
      </trkpt>
      <trkpt lat="47.28185" lon="6.08262">
        <ele>266</ele>
        <time>2024-07-31T11:29:44Z</time>
      </trkpt>
      <trkpt lat="47.28183" lon="6.08254">
        <ele>266.2</ele>
        <time>2024-07-31T11:29:45Z</time>
      </trkpt>
      <trkpt lat="47.28181" lon="6.08246">
        <ele>266.2</ele>
        <time>2024-07-31T11:29:46Z</time>
      </trkpt>
      <trkpt lat="47.28179" lon="6.08238">
        <ele>266.4</ele>
        <time>2024-07-31T11:29:47Z</time>
      </trkpt>
      <trkpt lat="47.28177" lon="6.0823">
        <ele>266.6</ele>
        <time>2024-07-31T11:29:48Z</time>
      </trkpt>
      <trkpt lat="47.28175" lon="6.08222">
        <ele>266.8</ele>
        <time>2024-07-31T11:29:49Z</time>
      </trkpt>
      <trkpt lat="47.28173" lon="6.08214">
        <ele>266.6</ele>
        <time>2024-07-31T11:29:50Z</time>
      </trkpt>
      <trkpt lat="47.28171" lon="6.08206">
        <ele>266.6</ele>
        <time>2024-07-31T11:29:51Z</time>
      </trkpt>
      <trkpt lat="47.28169" lon="6.08198">
        <ele>266.6</ele>
        <time>2024-07-31T11:29:52Z</time>
      </trkpt>
      <trkpt lat="47.28167" lon="6.0819">
        <ele>266.4</ele>
        <time>2024-07-31T11:29:53Z</time>
      </trkpt>
      <trkpt lat="47.28165" lon="6.08182">
        <ele>266.6</ele>
        <time>2024-07-31T11:29:54Z</time>
      </trkpt>
      <trkpt lat="47.28163" lon="6.08174">
        <ele>266.6</ele>
        <time>2024-07-31T11:29:55Z</time>
      </trkpt>
      <trkpt lat="47.28161" lon="6.08165">
        <ele>266.8</ele>
        <time>2024-07-31T11:29:56Z</time>
      </trkpt>
      <trkpt lat="47.28159" lon="6.08157">
        <ele>266.8</ele>
        <time>2024-07-31T11:29:57Z</time>
      </trkpt>
      <trkpt lat="47.28158" lon="6.08148">
        <ele>266.6</ele>
        <time>2024-07-31T11:29:58Z</time>
      </trkpt>
      <trkpt lat="47.28156" lon="6.08139">
        <ele>266.2</ele>
        <time>2024-07-31T11:29:59Z</time>
      </trkpt>
      <trkpt lat="47.28154" lon="6.08129">
        <ele>266.2</ele>
        <time>2024-07-31T11:30:00Z</time>
      </trkpt>
      <trkpt lat="47.28152" lon="6.08119">
        <ele>266.2</ele>
        <time>2024-07-31T11:30:01Z</time>
      </trkpt>
      <trkpt lat="47.28151" lon="6.0811">
        <ele>266.2</ele>
        <time>2024-07-31T11:30:02Z</time>
      </trkpt>
      <trkpt lat="47.28149" lon="6.081">
        <ele>266</ele>
        <time>2024-07-31T11:30:03Z</time>
      </trkpt>
      <trkpt lat="47.28147" lon="6.08091">
        <ele>266</ele>
        <time>2024-07-31T11:30:04Z</time>
      </trkpt>
      <trkpt lat="47.28144" lon="6.08081">
        <ele>265.8</ele>
        <time>2024-07-31T11:30:05Z</time>
      </trkpt>
      <trkpt lat="47.28143" lon="6.08072">
        <ele>265.6</ele>
        <time>2024-07-31T11:30:06Z</time>
      </trkpt>
      <trkpt lat="47.28141" lon="6.08063">
        <ele>265.8</ele>
        <time>2024-07-31T11:30:07Z</time>
      </trkpt>
      <trkpt lat="47.28138" lon="6.08053">
        <ele>265.6</ele>
        <time>2024-07-31T11:30:08Z</time>
      </trkpt>
      <trkpt lat="47.28137" lon="6.08043">
        <ele>265.8</ele>
        <time>2024-07-31T11:30:09Z</time>
      </trkpt>
      <trkpt lat="47.28134" lon="6.08034">
        <ele>265.8</ele>
        <time>2024-07-31T11:30:10Z</time>
      </trkpt>
      <trkpt lat="47.28132" lon="6.08025">
        <ele>265.6</ele>
        <time>2024-07-31T11:30:11Z</time>
      </trkpt>
      <trkpt lat="47.28129" lon="6.08017">
        <ele>265.6</ele>
        <time>2024-07-31T11:30:12Z</time>
      </trkpt>
      <trkpt lat="47.28127" lon="6.08009">
        <ele>265.4</ele>
        <time>2024-07-31T11:30:13Z</time>
      </trkpt>
      <trkpt lat="47.28124" lon="6.08003">
        <ele>265.2</ele>
        <time>2024-07-31T11:30:14Z</time>
      </trkpt>
      <trkpt lat="47.28122" lon="6.07998">
        <ele>265.2</ele>
        <time>2024-07-31T11:30:15Z</time>
      </trkpt>
      <trkpt lat="47.28121" lon="6.07994">
        <ele>265.2</ele>
        <time>2024-07-31T11:30:16Z</time>
      </trkpt>
      <trkpt lat="47.2812" lon="6.07991">
        <ele>265</ele>
        <time>2024-07-31T11:30:17Z</time>
      </trkpt>
      <trkpt lat="47.2812" lon="6.07989">
        <ele>264.8</ele>
        <time>2024-07-31T11:30:18Z</time>
      </trkpt>
      <trkpt lat="47.28119" lon="6.07987">
        <ele>264.6</ele>
        <time>2024-07-31T11:30:19Z</time>
      </trkpt>
      <trkpt lat="47.28118" lon="6.07986">
        <ele>264.6</ele>
        <time>2024-07-31T11:30:20Z</time>
      </trkpt>
      <trkpt lat="47.28118" lon="6.07985">
        <ele>264.6</ele>
        <time>2024-07-31T11:30:21Z</time>
      </trkpt>
      <trkpt lat="47.28118" lon="6.07985">
        <ele>264.8</ele>
        <time>2024-07-31T11:30:22Z</time>
      </trkpt>
      <trkpt lat="47.28117" lon="6.07985">
        <ele>264.6</ele>
        <time>2024-07-31T11:30:23Z</time>
      </trkpt>
      <trkpt lat="47.28117" lon="6.07985">
        <ele>264.8</ele>
        <time>2024-07-31T11:30:24Z</time>
      </trkpt>
      <trkpt lat="47.28117" lon="6.07985">
        <ele>264.8</ele>
        <time>2024-07-31T11:30:25Z</time>
      </trkpt>
      <trkpt lat="47.28117" lon="6.07985">
        <ele>264.8</ele>
        <time>2024-07-31T11:30:26Z</time>
      </trkpt>
      <trkpt lat="47.28116" lon="6.07984">
        <ele>264.8</ele>
        <time>2024-07-31T11:30:27Z</time>
      </trkpt>
      <trkpt lat="47.28116" lon="6.07984">
        <ele>264.8</ele>
        <time>2024-07-31T11:30:28Z</time>
      </trkpt>
      <trkpt lat="47.28116" lon="6.07983">
        <ele>264.8</ele>
        <time>2024-07-31T11:30:29Z</time>
      </trkpt>
      <trkpt lat="47.28115" lon="6.07982">
        <ele>264.8</ele>
        <time>2024-07-31T11:30:30Z</time>
      </trkpt>
      <trkpt lat="47.28115" lon="6.07981">
        <ele>264.6</ele>
        <time>2024-07-31T11:30:31Z</time>
      </trkpt>
      <trkpt lat="47.28115" lon="6.0798">
        <ele>264.8</ele>
        <time>2024-07-31T11:30:32Z</time>
      </trkpt>
      <trkpt lat="47.28115" lon="6.07979">
        <ele>265</ele>
        <time>2024-07-31T11:30:33Z</time>
      </trkpt>
      <trkpt lat="47.28115" lon="6.07977">
        <ele>265</ele>
        <time>2024-07-31T11:30:34Z</time>
      </trkpt>
      <trkpt lat="47.28115" lon="6.07976">
        <ele>265</ele>
        <time>2024-07-31T11:30:35Z</time>
      </trkpt>
      <trkpt lat="47.28116" lon="6.07974">
        <ele>265</ele>
        <time>2024-07-31T11:30:36Z</time>
      </trkpt>
      <trkpt lat="47.28117" lon="6.07973">
        <ele>265</ele>
        <time>2024-07-31T11:30:37Z</time>
      </trkpt>
      <trkpt lat="47.28117" lon="6.0797">
        <ele>265.2</ele>
        <time>2024-07-31T11:30:38Z</time>
      </trkpt>
      <trkpt lat="47.28118" lon="6.07967">
        <ele>265</ele>
        <time>2024-07-31T11:30:39Z</time>
      </trkpt>
      <trkpt lat="47.28118" lon="6.07964">
        <ele>265.2</ele>
        <time>2024-07-31T11:30:40Z</time>
      </trkpt>
      <trkpt lat="47.28118" lon="6.07962">
        <ele>265</ele>
        <time>2024-07-31T11:30:41Z</time>
      </trkpt>
      <trkpt lat="47.28119" lon="6.07959">
        <ele>265.2</ele>
        <time>2024-07-31T11:30:42Z</time>
      </trkpt>
      <trkpt lat="47.28118" lon="6.07956">
        <ele>265</ele>
        <time>2024-07-31T11:30:43Z</time>
      </trkpt>
      <trkpt lat="47.28118" lon="6.07952">
        <ele>265.2</ele>
        <time>2024-07-31T11:30:44Z</time>
      </trkpt>
      <trkpt lat="47.28117" lon="6.07947">
        <ele>265</ele>
        <time>2024-07-31T11:30:45Z</time>
      </trkpt>
      <trkpt lat="47.28115" lon="6.07943">
        <ele>264.6</ele>
        <time>2024-07-31T11:30:46Z</time>
      </trkpt>
      <trkpt lat="47.28113" lon="6.07939">
        <ele>264.8</ele>
        <time>2024-07-31T11:30:47Z</time>
      </trkpt>
      <trkpt lat="47.2811" lon="6.07934">
        <ele>265</ele>
        <time>2024-07-31T11:30:48Z</time>
      </trkpt>
      <trkpt lat="47.28108" lon="6.0793">
        <ele>264.8</ele>
        <time>2024-07-31T11:30:49Z</time>
      </trkpt>
      <trkpt lat="47.28105" lon="6.07925">
        <ele>264.8</ele>
        <time>2024-07-31T11:30:50Z</time>
      </trkpt>
      <trkpt lat="47.28102" lon="6.07921">
        <ele>264.8</ele>
        <time>2024-07-31T11:30:51Z</time>
      </trkpt>
      <trkpt lat="47.28098" lon="6.07917">
        <ele>265</ele>
        <time>2024-07-31T11:30:52Z</time>
      </trkpt>
      <trkpt lat="47.28095" lon="6.07913">
        <ele>264.8</ele>
        <time>2024-07-31T11:30:53Z</time>
      </trkpt>
      <trkpt lat="47.28091" lon="6.07909">
        <ele>264.6</ele>
        <time>2024-07-31T11:30:54Z</time>
      </trkpt>
      <trkpt lat="47.28088" lon="6.07905">
        <ele>264.4</ele>
        <time>2024-07-31T11:30:55Z</time>
      </trkpt>
      <trkpt lat="47.28085" lon="6.07902">
        <ele>264.2</ele>
        <time>2024-07-31T11:30:56Z</time>
      </trkpt>
      <trkpt lat="47.28081" lon="6.07899">
        <ele>263.6</ele>
        <time>2024-07-31T11:30:57Z</time>
      </trkpt>
      <trkpt lat="47.28078" lon="6.07896">
        <ele>264</ele>
        <time>2024-07-31T11:30:58Z</time>
      </trkpt>
      <trkpt lat="47.28074" lon="6.07896">
        <ele>264</ele>
        <time>2024-07-31T11:30:59Z</time>
      </trkpt>
      <trkpt lat="47.2807" lon="6.07898">
        <ele>264.2</ele>
        <time>2024-07-31T11:31:00Z</time>
      </trkpt>
      <trkpt lat="47.28066" lon="6.07902">
        <ele>263.8</ele>
        <time>2024-07-31T11:31:01Z</time>
      </trkpt>
      <trkpt lat="47.28061" lon="6.07906">
        <ele>263.8</ele>
        <time>2024-07-31T11:31:02Z</time>
      </trkpt>
      <trkpt lat="47.28056" lon="6.07908">
        <ele>263.8</ele>
        <time>2024-07-31T11:31:03Z</time>
      </trkpt>
      <trkpt lat="47.28051" lon="6.0791">
        <ele>263.6</ele>
        <time>2024-07-31T11:31:04Z</time>
      </trkpt>
      <trkpt lat="47.28045" lon="6.07909">
        <ele>263.6</ele>
        <time>2024-07-31T11:31:05Z</time>
      </trkpt>
      <trkpt lat="47.2804" lon="6.07907">
        <ele>263.4</ele>
        <time>2024-07-31T11:31:06Z</time>
      </trkpt>
      <trkpt lat="47.28034" lon="6.07903">
        <ele>263.4</ele>
        <time>2024-07-31T11:31:07Z</time>
      </trkpt>
      <trkpt lat="47.28029" lon="6.07899">
        <ele>263.2</ele>
        <time>2024-07-31T11:31:08Z</time>
      </trkpt>
      <trkpt lat="47.28024" lon="6.07895">
        <ele>263.4</ele>
        <time>2024-07-31T11:31:09Z</time>
      </trkpt>
      <trkpt lat="47.28018" lon="6.07892">
        <ele>263.2</ele>
        <time>2024-07-31T11:31:10Z</time>
      </trkpt>
      <trkpt lat="47.28013" lon="6.0789">
        <ele>263</ele>
        <time>2024-07-31T11:31:11Z</time>
      </trkpt>
      <trkpt lat="47.28006" lon="6.07889">
        <ele>262.6</ele>
        <time>2024-07-31T11:31:12Z</time>
      </trkpt>
      <trkpt lat="47.28" lon="6.07887">
        <ele>262.4</ele>
        <time>2024-07-31T11:31:13Z</time>
      </trkpt>
      <trkpt lat="47.27993" lon="6.07886">
        <ele>262.2</ele>
        <time>2024-07-31T11:31:14Z</time>
      </trkpt>
      <trkpt lat="47.27986" lon="6.07884">
        <ele>262</ele>
        <time>2024-07-31T11:31:15Z</time>
      </trkpt>
      <trkpt lat="47.27979" lon="6.07883">
        <ele>262</ele>
        <time>2024-07-31T11:31:16Z</time>
      </trkpt>
      <trkpt lat="47.27972" lon="6.07882">
        <ele>261.8</ele>
        <time>2024-07-31T11:31:17Z</time>
      </trkpt>
      <trkpt lat="47.27964" lon="6.0788">
        <ele>261.6</ele>
        <time>2024-07-31T11:31:18Z</time>
      </trkpt>
      <trkpt lat="47.27957" lon="6.07879">
        <ele>261.6</ele>
        <time>2024-07-31T11:31:19Z</time>
      </trkpt>
      <trkpt lat="47.2795" lon="6.07877">
        <ele>261.2</ele>
        <time>2024-07-31T11:31:20Z</time>
      </trkpt>
      <trkpt lat="47.27942" lon="6.07875">
        <ele>261.2</ele>
        <time>2024-07-31T11:31:21Z</time>
      </trkpt>
      <trkpt lat="47.27935" lon="6.07873">
        <ele>260.6</ele>
        <time>2024-07-31T11:31:22Z</time>
      </trkpt>
      <trkpt lat="47.27927" lon="6.07871">
        <ele>261</ele>
        <time>2024-07-31T11:31:23Z</time>
      </trkpt>
      <trkpt lat="47.2792" lon="6.07869">
        <ele>260.6</ele>
        <time>2024-07-31T11:31:24Z</time>
      </trkpt>
      <trkpt lat="47.27913" lon="6.07865">
        <ele>260.6</ele>
        <time>2024-07-31T11:31:25Z</time>
      </trkpt>
      <trkpt lat="47.27906" lon="6.07861">
        <ele>260.4</ele>
        <time>2024-07-31T11:31:26Z</time>
      </trkpt>
      <trkpt lat="47.279" lon="6.07856">
        <ele>260</ele>
        <time>2024-07-31T11:31:27Z</time>
      </trkpt>
      <trkpt lat="47.27893" lon="6.0785">
        <ele>260.2</ele>
        <time>2024-07-31T11:31:28Z</time>
      </trkpt>
      <trkpt lat="47.27887" lon="6.07845">
        <ele>259.6</ele>
        <time>2024-07-31T11:31:29Z</time>
      </trkpt>
      <trkpt lat="47.27881" lon="6.07838">
        <ele>259.6</ele>
        <time>2024-07-31T11:31:30Z</time>
      </trkpt>
      <trkpt lat="47.27876" lon="6.07832">
        <ele>259.6</ele>
        <time>2024-07-31T11:31:31Z</time>
      </trkpt>
      <trkpt lat="47.2787" lon="6.07827">
        <ele>259.2</ele>
        <time>2024-07-31T11:31:32Z</time>
      </trkpt>
      <trkpt lat="47.27864" lon="6.07821">
        <ele>259.2</ele>
        <time>2024-07-31T11:31:33Z</time>
      </trkpt>
      <trkpt lat="47.27858" lon="6.07815">
        <ele>259</ele>
        <time>2024-07-31T11:31:34Z</time>
      </trkpt>
      <trkpt lat="47.27852" lon="6.07809">
        <ele>258.8</ele>
        <time>2024-07-31T11:31:35Z</time>
      </trkpt>
      <trkpt lat="47.27846" lon="6.07803">
        <ele>258.8</ele>
        <time>2024-07-31T11:31:36Z</time>
      </trkpt>
      <trkpt lat="47.2784" lon="6.07796">
        <ele>258.4</ele>
        <time>2024-07-31T11:31:37Z</time>
      </trkpt>
      <trkpt lat="47.27835" lon="6.0779">
        <ele>258.4</ele>
        <time>2024-07-31T11:31:38Z</time>
      </trkpt>
      <trkpt lat="47.27829" lon="6.07783">
        <ele>258.4</ele>
        <time>2024-07-31T11:31:39Z</time>
      </trkpt>
      <trkpt lat="47.27824" lon="6.07777">
        <ele>258</ele>
        <time>2024-07-31T11:31:40Z</time>
      </trkpt>
      <trkpt lat="47.27819" lon="6.0777">
        <ele>257.8</ele>
        <time>2024-07-31T11:31:41Z</time>
      </trkpt>
      <trkpt lat="47.27814" lon="6.07763">
        <ele>257.6</ele>
        <time>2024-07-31T11:31:42Z</time>
      </trkpt>
      <trkpt lat="47.27809" lon="6.07757">
        <ele>257.6</ele>
        <time>2024-07-31T11:31:43Z</time>
      </trkpt>
      <trkpt lat="47.27803" lon="6.07752">
        <ele>257.4</ele>
        <time>2024-07-31T11:31:44Z</time>
      </trkpt>
      <trkpt lat="47.27797" lon="6.0775">
        <ele>257.8</ele>
        <time>2024-07-31T11:31:45Z</time>
      </trkpt>
      <trkpt lat="47.27792" lon="6.07751">
        <ele>258</ele>
        <time>2024-07-31T11:31:46Z</time>
      </trkpt>
      <trkpt lat="47.27787" lon="6.07754">
        <ele>257.8</ele>
        <time>2024-07-31T11:31:47Z</time>
      </trkpt>
      <trkpt lat="47.27781" lon="6.07757">
        <ele>257.8</ele>
        <time>2024-07-31T11:31:48Z</time>
      </trkpt>
      <trkpt lat="47.27775" lon="6.0776">
        <ele>257.8</ele>
        <time>2024-07-31T11:31:49Z</time>
      </trkpt>
      <trkpt lat="47.27769" lon="6.07761">
        <ele>257.6</ele>
        <time>2024-07-31T11:31:50Z</time>
      </trkpt>
      <trkpt lat="47.27763" lon="6.0776">
        <ele>257.8</ele>
        <time>2024-07-31T11:31:51Z</time>
      </trkpt>
      <trkpt lat="47.27759" lon="6.07756">
        <ele>257.6</ele>
        <time>2024-07-31T11:31:52Z</time>
      </trkpt>
      <trkpt lat="47.27755" lon="6.0775">
        <ele>257</ele>
        <time>2024-07-31T11:31:53Z</time>
      </trkpt>
      <trkpt lat="47.27751" lon="6.07745">
        <ele>256.8</ele>
        <time>2024-07-31T11:31:54Z</time>
      </trkpt>
      <trkpt lat="47.27748" lon="6.0774">
        <ele>257.2</ele>
        <time>2024-07-31T11:31:55Z</time>
      </trkpt>
      <trkpt lat="47.27747" lon="6.07734">
        <ele>256.4</ele>
        <time>2024-07-31T11:31:56Z</time>
      </trkpt>
      <trkpt lat="47.27744" lon="6.07727">
        <ele>256.2</ele>
        <time>2024-07-31T11:31:57Z</time>
      </trkpt>
      <trkpt lat="47.2774" lon="6.07722">
        <ele>256</ele>
        <time>2024-07-31T11:31:58Z</time>
      </trkpt>
      <trkpt lat="47.27736" lon="6.07718">
        <ele>256.2</ele>
        <time>2024-07-31T11:31:59Z</time>
      </trkpt>
      <trkpt lat="47.27731" lon="6.07714">
        <ele>255.8</ele>
        <time>2024-07-31T11:32:00Z</time>
      </trkpt>
      <trkpt lat="47.27727" lon="6.07709">
        <ele>255.8</ele>
        <time>2024-07-31T11:32:01Z</time>
      </trkpt>
      <trkpt lat="47.27722" lon="6.07704">
        <ele>255.8</ele>
        <time>2024-07-31T11:32:02Z</time>
      </trkpt>
      <trkpt lat="47.27717" lon="6.077">
        <ele>255.8</ele>
        <time>2024-07-31T11:32:03Z</time>
      </trkpt>
      <trkpt lat="47.27713" lon="6.07695">
        <ele>256</ele>
        <time>2024-07-31T11:32:04Z</time>
      </trkpt>
      <trkpt lat="47.27708" lon="6.07691">
        <ele>256</ele>
        <time>2024-07-31T11:32:05Z</time>
      </trkpt>
      <trkpt lat="47.27702" lon="6.07687">
        <ele>255.6</ele>
        <time>2024-07-31T11:32:06Z</time>
      </trkpt>
      <trkpt lat="47.27696" lon="6.07683">
        <ele>255.2</ele>
        <time>2024-07-31T11:32:07Z</time>
      </trkpt>
      <trkpt lat="47.2769" lon="6.07678">
        <ele>255.6</ele>
        <time>2024-07-31T11:32:08Z</time>
      </trkpt>
      <trkpt lat="47.27685" lon="6.07674">
        <ele>255.2</ele>
        <time>2024-07-31T11:32:09Z</time>
      </trkpt>
      <trkpt lat="47.27679" lon="6.0767">
        <ele>255.4</ele>
        <time>2024-07-31T11:32:10Z</time>
      </trkpt>
      <trkpt lat="47.27673" lon="6.07666">
        <ele>255.4</ele>
        <time>2024-07-31T11:32:11Z</time>
      </trkpt>
      <trkpt lat="47.27668" lon="6.07663">
        <ele>255.2</ele>
        <time>2024-07-31T11:32:12Z</time>
      </trkpt>
      <trkpt lat="47.27662" lon="6.07659">
        <ele>255</ele>
        <time>2024-07-31T11:32:13Z</time>
      </trkpt>
      <trkpt lat="47.27656" lon="6.07656">
        <ele>255.2</ele>
        <time>2024-07-31T11:32:14Z</time>
      </trkpt>
      <trkpt lat="47.2765" lon="6.07653">
        <ele>254.6</ele>
        <time>2024-07-31T11:32:15Z</time>
      </trkpt>
      <trkpt lat="47.27644" lon="6.07651">
        <ele>254.4</ele>
        <time>2024-07-31T11:32:16Z</time>
      </trkpt>
      <trkpt lat="47.27637" lon="6.07649">
        <ele>255</ele>
        <time>2024-07-31T11:32:17Z</time>
      </trkpt>
      <trkpt lat="47.27631" lon="6.07647">
        <ele>254.8</ele>
        <time>2024-07-31T11:32:18Z</time>
      </trkpt>
      <trkpt lat="47.27625" lon="6.07646">
        <ele>254.2</ele>
        <time>2024-07-31T11:32:19Z</time>
      </trkpt>
      <trkpt lat="47.27619" lon="6.07646">
        <ele>254.6</ele>
        <time>2024-07-31T11:32:20Z</time>
      </trkpt>
      <trkpt lat="47.27612" lon="6.07645">
        <ele>255</ele>
        <time>2024-07-31T11:32:21Z</time>
      </trkpt>
      <trkpt lat="47.27606" lon="6.07645">
        <ele>254.6</ele>
        <time>2024-07-31T11:32:22Z</time>
      </trkpt>
      <trkpt lat="47.276" lon="6.07646">
        <ele>254</ele>
        <time>2024-07-31T11:32:23Z</time>
      </trkpt>
      <trkpt lat="47.27594" lon="6.07647">
        <ele>254</ele>
        <time>2024-07-31T11:32:24Z</time>
      </trkpt>
      <trkpt lat="47.27588" lon="6.07648">
        <ele>254.4</ele>
        <time>2024-07-31T11:32:25Z</time>
      </trkpt>
      <trkpt lat="47.27581" lon="6.0765">
        <ele>254.2</ele>
        <time>2024-07-31T11:32:26Z</time>
      </trkpt>
      <trkpt lat="47.27575" lon="6.07651">
        <ele>254.2</ele>
        <time>2024-07-31T11:32:27Z</time>
      </trkpt>
      <trkpt lat="47.27569" lon="6.07652">
        <ele>254.4</ele>
        <time>2024-07-31T11:32:28Z</time>
      </trkpt>
      <trkpt lat="47.27563" lon="6.07653">
        <ele>254.4</ele>
        <time>2024-07-31T11:32:29Z</time>
      </trkpt>
      <trkpt lat="47.27557" lon="6.07653">
        <ele>253.8</ele>
        <time>2024-07-31T11:32:30Z</time>
      </trkpt>
      <trkpt lat="47.27552" lon="6.07653">
        <ele>254.6</ele>
        <time>2024-07-31T11:32:31Z</time>
      </trkpt>
      <trkpt lat="47.27546" lon="6.07652">
        <ele>254.4</ele>
        <time>2024-07-31T11:32:32Z</time>
      </trkpt>
      <trkpt lat="47.2754" lon="6.07651">
        <ele>253.8</ele>
        <time>2024-07-31T11:32:33Z</time>
      </trkpt>
      <trkpt lat="47.27535" lon="6.07649">
        <ele>254.4</ele>
        <time>2024-07-31T11:32:34Z</time>
      </trkpt>
      <trkpt lat="47.27529" lon="6.07648">
        <ele>254.2</ele>
        <time>2024-07-31T11:32:35Z</time>
      </trkpt>
      <trkpt lat="47.27524" lon="6.07646">
        <ele>255</ele>
        <time>2024-07-31T11:32:36Z</time>
      </trkpt>
      <trkpt lat="47.27519" lon="6.07644">
        <ele>254.6</ele>
        <time>2024-07-31T11:32:37Z</time>
      </trkpt>
      <trkpt lat="47.27513" lon="6.07642">
        <ele>254.8</ele>
        <time>2024-07-31T11:32:38Z</time>
      </trkpt>
      <trkpt lat="47.27508" lon="6.07639">
        <ele>254.2</ele>
        <time>2024-07-31T11:32:39Z</time>
      </trkpt>
      <trkpt lat="47.27504" lon="6.07637">
        <ele>254.2</ele>
        <time>2024-07-31T11:32:40Z</time>
      </trkpt>
      <trkpt lat="47.275" lon="6.07634">
        <ele>254.2</ele>
        <time>2024-07-31T11:32:41Z</time>
      </trkpt>
      <trkpt lat="47.27498" lon="6.07633">
        <ele>254.2</ele>
        <time>2024-07-31T11:32:42Z</time>
      </trkpt>
      <trkpt lat="47.27496" lon="6.07631">
        <ele>254.6</ele>
        <time>2024-07-31T11:32:43Z</time>
      </trkpt>
      <trkpt lat="47.27494" lon="6.0763">
        <ele>254.4</ele>
        <time>2024-07-31T11:32:44Z</time>
      </trkpt>
      <trkpt lat="47.27492" lon="6.07629">
        <ele>254.2</ele>
        <time>2024-07-31T11:32:45Z</time>
      </trkpt>
      <trkpt lat="47.2749" lon="6.07627">
        <ele>254.4</ele>
        <time>2024-07-31T11:32:46Z</time>
      </trkpt>
      <trkpt lat="47.27487" lon="6.07626">
        <ele>254.2</ele>
        <time>2024-07-31T11:32:47Z</time>
      </trkpt>
      <trkpt lat="47.27485" lon="6.07624">
        <ele>254.6</ele>
        <time>2024-07-31T11:32:48Z</time>
      </trkpt>
      <trkpt lat="47.27483" lon="6.07623">
        <ele>254.6</ele>
        <time>2024-07-31T11:32:49Z</time>
      </trkpt>
      <trkpt lat="47.2748" lon="6.07623">
        <ele>254.8</ele>
        <time>2024-07-31T11:32:50Z</time>
      </trkpt>
      <trkpt lat="47.27478" lon="6.07623">
        <ele>254.4</ele>
        <time>2024-07-31T11:32:51Z</time>
      </trkpt>
      <trkpt lat="47.27475" lon="6.07623">
        <ele>254.4</ele>
        <time>2024-07-31T11:32:52Z</time>
      </trkpt>
      <trkpt lat="47.27472" lon="6.07624">
        <ele>254.6</ele>
        <time>2024-07-31T11:32:53Z</time>
      </trkpt>
      <trkpt lat="47.2747" lon="6.07623">
        <ele>254.4</ele>
        <time>2024-07-31T11:32:54Z</time>
      </trkpt>
      <trkpt lat="47.27466" lon="6.07622">
        <ele>254.4</ele>
        <time>2024-07-31T11:32:55Z</time>
      </trkpt>
      <trkpt lat="47.27463" lon="6.0762">
        <ele>254.4</ele>
        <time>2024-07-31T11:32:56Z</time>
      </trkpt>
      <trkpt lat="47.2746" lon="6.07618">
        <ele>254.2</ele>
        <time>2024-07-31T11:32:57Z</time>
      </trkpt>
      <trkpt lat="47.27457" lon="6.07616">
        <ele>253.6</ele>
        <time>2024-07-31T11:32:58Z</time>
      </trkpt>
      <trkpt lat="47.27454" lon="6.07614">
        <ele>254.2</ele>
        <time>2024-07-31T11:32:59Z</time>
      </trkpt>
      <trkpt lat="47.2745" lon="6.07612">
        <ele>254.4</ele>
        <time>2024-07-31T11:33:00Z</time>
      </trkpt>
      <trkpt lat="47.27447" lon="6.0761">
        <ele>253.8</ele>
        <time>2024-07-31T11:33:01Z</time>
      </trkpt>
      <trkpt lat="47.27443" lon="6.07609">
        <ele>254.2</ele>
        <time>2024-07-31T11:33:02Z</time>
      </trkpt>
      <trkpt lat="47.27439" lon="6.07607">
        <ele>254.2</ele>
        <time>2024-07-31T11:33:03Z</time>
      </trkpt>
      <trkpt lat="47.27436" lon="6.07605">
        <ele>254.2</ele>
        <time>2024-07-31T11:33:04Z</time>
      </trkpt>
      <trkpt lat="47.27432" lon="6.07602">
        <ele>254.2</ele>
        <time>2024-07-31T11:33:05Z</time>
      </trkpt>
      <trkpt lat="47.27429" lon="6.07599">
        <ele>254.2</ele>
        <time>2024-07-31T11:33:06Z</time>
      </trkpt>
      <trkpt lat="47.27426" lon="6.07595">
        <ele>254.6</ele>
        <time>2024-07-31T11:33:07Z</time>
      </trkpt>
      <trkpt lat="47.27423" lon="6.07591">
        <ele>254.4</ele>
        <time>2024-07-31T11:33:08Z</time>
      </trkpt>
      <trkpt lat="47.27422" lon="6.07587">
        <ele>254.2</ele>
        <time>2024-07-31T11:33:09Z</time>
      </trkpt>
      <trkpt lat="47.27421" lon="6.07581">
        <ele>254.2</ele>
        <time>2024-07-31T11:33:10Z</time>
      </trkpt>
      <trkpt lat="47.27421" lon="6.07576">
        <ele>254.2</ele>
        <time>2024-07-31T11:33:11Z</time>
      </trkpt>
      <trkpt lat="47.27422" lon="6.0757">
        <ele>254.2</ele>
        <time>2024-07-31T11:33:12Z</time>
      </trkpt>
      <trkpt lat="47.27423" lon="6.07564">
        <ele>254.2</ele>
        <time>2024-07-31T11:33:13Z</time>
      </trkpt>
      <trkpt lat="47.27425" lon="6.07559">
        <ele>254.4</ele>
        <time>2024-07-31T11:33:14Z</time>
      </trkpt>
      <trkpt lat="47.27427" lon="6.07554">
        <ele>254.6</ele>
        <time>2024-07-31T11:33:15Z</time>
      </trkpt>
      <trkpt lat="47.27427" lon="6.07548">
        <ele>254</ele>
        <time>2024-07-31T11:33:16Z</time>
      </trkpt>
      <trkpt lat="47.27426" lon="6.07542">
        <ele>254.2</ele>
        <time>2024-07-31T11:33:17Z</time>
      </trkpt>
      <trkpt lat="47.27423" lon="6.07537">
        <ele>253.8</ele>
        <time>2024-07-31T11:33:18Z</time>
      </trkpt>
      <trkpt lat="47.2742" lon="6.07533">
        <ele>254</ele>
        <time>2024-07-31T11:33:19Z</time>
      </trkpt>
      <trkpt lat="47.27417" lon="6.07529">
        <ele>253.8</ele>
        <time>2024-07-31T11:33:20Z</time>
      </trkpt>
      <trkpt lat="47.27414" lon="6.07525">
        <ele>253.8</ele>
        <time>2024-07-31T11:33:21Z</time>
      </trkpt>
      <trkpt lat="47.2741" lon="6.07521">
        <ele>253.8</ele>
        <time>2024-07-31T11:33:22Z</time>
      </trkpt>
      <trkpt lat="47.27407" lon="6.07516">
        <ele>253.6</ele>
        <time>2024-07-31T11:33:23Z</time>
      </trkpt>
      <trkpt lat="47.27404" lon="6.07511">
        <ele>253.8</ele>
        <time>2024-07-31T11:33:24Z</time>
      </trkpt>
      <trkpt lat="47.274" lon="6.07507">
        <ele>253.6</ele>
        <time>2024-07-31T11:33:25Z</time>
      </trkpt>
      <trkpt lat="47.27397" lon="6.07504">
        <ele>253.6</ele>
        <time>2024-07-31T11:33:26Z</time>
      </trkpt>
      <trkpt lat="47.27394" lon="6.075">
        <ele>253.6</ele>
        <time>2024-07-31T11:33:27Z</time>
      </trkpt>
      <trkpt lat="47.27391" lon="6.07496">
        <ele>253.6</ele>
        <time>2024-07-31T11:33:28Z</time>
      </trkpt>
      <trkpt lat="47.27388" lon="6.07492">
        <ele>253.4</ele>
        <time>2024-07-31T11:33:29Z</time>
      </trkpt>
      <trkpt lat="47.27385" lon="6.07488">
        <ele>252.8</ele>
        <time>2024-07-31T11:33:30Z</time>
      </trkpt>
      <trkpt lat="47.27382" lon="6.07484">
        <ele>253.4</ele>
        <time>2024-07-31T11:33:31Z</time>
      </trkpt>
      <trkpt lat="47.27378" lon="6.0748">
        <ele>253.4</ele>
        <time>2024-07-31T11:33:32Z</time>
      </trkpt>
      <trkpt lat="47.27375" lon="6.07476">
        <ele>253.4</ele>
        <time>2024-07-31T11:33:33Z</time>
      </trkpt>
      <trkpt lat="47.27372" lon="6.07471">
        <ele>253.2</ele>
        <time>2024-07-31T11:33:34Z</time>
      </trkpt>
      <trkpt lat="47.27369" lon="6.07467">
        <ele>253.6</ele>
        <time>2024-07-31T11:33:35Z</time>
      </trkpt>
      <trkpt lat="47.27366" lon="6.07462">
        <ele>253.4</ele>
        <time>2024-07-31T11:33:36Z</time>
      </trkpt>
      <trkpt lat="47.27363" lon="6.07457">
        <ele>253.8</ele>
        <time>2024-07-31T11:33:37Z</time>
      </trkpt>
      <trkpt lat="47.2736" lon="6.07452">
        <ele>253.6</ele>
        <time>2024-07-31T11:33:38Z</time>
      </trkpt>
      <trkpt lat="47.27358" lon="6.07448">
        <ele>253.2</ele>
        <time>2024-07-31T11:33:39Z</time>
      </trkpt>
      <trkpt lat="47.27355" lon="6.07444">
        <ele>253.6</ele>
        <time>2024-07-31T11:33:40Z</time>
      </trkpt>
      <trkpt lat="47.27351" lon="6.0744">
        <ele>253.6</ele>
        <time>2024-07-31T11:33:41Z</time>
      </trkpt>
      <trkpt lat="47.27348" lon="6.07436">
        <ele>253.4</ele>
        <time>2024-07-31T11:33:42Z</time>
      </trkpt>
      <trkpt lat="47.27344" lon="6.07432">
        <ele>253</ele>
        <time>2024-07-31T11:33:43Z</time>
      </trkpt>
      <trkpt lat="47.2734" lon="6.07429">
        <ele>253.4</ele>
        <time>2024-07-31T11:33:44Z</time>
      </trkpt>
      <trkpt lat="47.27337" lon="6.07425">
        <ele>253.6</ele>
        <time>2024-07-31T11:33:45Z</time>
      </trkpt>
      <trkpt lat="47.27333" lon="6.07421">
        <ele>253</ele>
        <time>2024-07-31T11:33:46Z</time>
      </trkpt>
      <trkpt lat="47.2733" lon="6.07417">
        <ele>253</ele>
        <time>2024-07-31T11:33:47Z</time>
      </trkpt>
      <trkpt lat="47.27327" lon="6.07413">
        <ele>253.2</ele>
        <time>2024-07-31T11:33:48Z</time>
      </trkpt>
      <trkpt lat="47.27323" lon="6.07408">
        <ele>253</ele>
        <time>2024-07-31T11:33:49Z</time>
      </trkpt>
      <trkpt lat="47.2732" lon="6.07403">
        <ele>252.8</ele>
        <time>2024-07-31T11:33:50Z</time>
      </trkpt>
      <trkpt lat="47.27316" lon="6.07399">
        <ele>252.8</ele>
        <time>2024-07-31T11:33:51Z</time>
      </trkpt>
      <trkpt lat="47.27313" lon="6.07395">
        <ele>253</ele>
        <time>2024-07-31T11:33:52Z</time>
      </trkpt>
      <trkpt lat="47.27309" lon="6.07391">
        <ele>253</ele>
        <time>2024-07-31T11:33:53Z</time>
      </trkpt>
      <trkpt lat="47.27305" lon="6.07387">
        <ele>253.2</ele>
        <time>2024-07-31T11:33:54Z</time>
      </trkpt>
      <trkpt lat="47.27301" lon="6.07383">
        <ele>253.2</ele>
        <time>2024-07-31T11:33:55Z</time>
      </trkpt>
      <trkpt lat="47.27298" lon="6.07379">
        <ele>253.2</ele>
        <time>2024-07-31T11:33:56Z</time>
      </trkpt>
      <trkpt lat="47.27294" lon="6.07375">
        <ele>253.2</ele>
        <time>2024-07-31T11:33:57Z</time>
      </trkpt>
      <trkpt lat="47.2729" lon="6.07371">
        <ele>253</ele>
        <time>2024-07-31T11:33:58Z</time>
      </trkpt>
      <trkpt lat="47.27286" lon="6.07366">
        <ele>252.8</ele>
        <time>2024-07-31T11:33:59Z</time>
      </trkpt>
      <trkpt lat="47.27282" lon="6.07362">
        <ele>252.8</ele>
        <time>2024-07-31T11:34:00Z</time>
      </trkpt>
      <trkpt lat="47.27278" lon="6.07358">
        <ele>253</ele>
        <time>2024-07-31T11:34:01Z</time>
      </trkpt>
      <trkpt lat="47.27274" lon="6.07353">
        <ele>252.8</ele>
        <time>2024-07-31T11:34:02Z</time>
      </trkpt>
      <trkpt lat="47.2727" lon="6.07349">
        <ele>253.2</ele>
        <time>2024-07-31T11:34:03Z</time>
      </trkpt>
      <trkpt lat="47.27266" lon="6.07345">
        <ele>253</ele>
        <time>2024-07-31T11:34:04Z</time>
      </trkpt>
      <trkpt lat="47.27262" lon="6.0734">
        <ele>252.8</ele>
        <time>2024-07-31T11:34:05Z</time>
      </trkpt>
      <trkpt lat="47.27258" lon="6.07336">
        <ele>253</ele>
        <time>2024-07-31T11:34:06Z</time>
      </trkpt>
      <trkpt lat="47.27254" lon="6.07332">
        <ele>252.8</ele>
        <time>2024-07-31T11:34:07Z</time>
      </trkpt>
      <trkpt lat="47.27249" lon="6.07328">
        <ele>253</ele>
        <time>2024-07-31T11:34:08Z</time>
      </trkpt>
      <trkpt lat="47.27245" lon="6.07324">
        <ele>253</ele>
        <time>2024-07-31T11:34:09Z</time>
      </trkpt>
      <trkpt lat="47.27241" lon="6.0732">
        <ele>253.2</ele>
        <time>2024-07-31T11:34:10Z</time>
      </trkpt>
      <trkpt lat="47.27237" lon="6.07316">
        <ele>253</ele>
        <time>2024-07-31T11:34:11Z</time>
      </trkpt>
      <trkpt lat="47.27232" lon="6.07313">
        <ele>252.8</ele>
        <time>2024-07-31T11:34:12Z</time>
      </trkpt>
      <trkpt lat="47.27228" lon="6.07309">
        <ele>252.8</ele>
        <time>2024-07-31T11:34:13Z</time>
      </trkpt>
      <trkpt lat="47.27224" lon="6.07305">
        <ele>252.8</ele>
        <time>2024-07-31T11:34:14Z</time>
      </trkpt>
      <trkpt lat="47.2722" lon="6.07301">
        <ele>253.2</ele>
        <time>2024-07-31T11:34:15Z</time>
      </trkpt>
      <trkpt lat="47.27215" lon="6.07297">
        <ele>253</ele>
        <time>2024-07-31T11:34:16Z</time>
      </trkpt>
      <trkpt lat="47.27211" lon="6.07293">
        <ele>252.8</ele>
        <time>2024-07-31T11:34:17Z</time>
      </trkpt>
      <trkpt lat="47.27207" lon="6.07289">
        <ele>252.8</ele>
        <time>2024-07-31T11:34:18Z</time>
      </trkpt>
      <trkpt lat="47.27202" lon="6.07286">
        <ele>252.8</ele>
        <time>2024-07-31T11:34:19Z</time>
      </trkpt>
      <trkpt lat="47.27197" lon="6.07283">
        <ele>252.8</ele>
        <time>2024-07-31T11:34:20Z</time>
      </trkpt>
      <trkpt lat="47.27192" lon="6.07281">
        <ele>252.6</ele>
        <time>2024-07-31T11:34:21Z</time>
      </trkpt>
      <trkpt lat="47.27187" lon="6.07279">
        <ele>252.6</ele>
        <time>2024-07-31T11:34:22Z</time>
      </trkpt>
      <trkpt lat="47.27182" lon="6.07278">
        <ele>252.6</ele>
        <time>2024-07-31T11:34:23Z</time>
      </trkpt>
      <trkpt lat="47.27177" lon="6.07277">
        <ele>252.8</ele>
        <time>2024-07-31T11:34:24Z</time>
      </trkpt>
      <trkpt lat="47.27172" lon="6.07276">
        <ele>252.8</ele>
        <time>2024-07-31T11:34:25Z</time>
      </trkpt>
      <trkpt lat="47.27167" lon="6.07275">
        <ele>253.2</ele>
        <time>2024-07-31T11:34:26Z</time>
      </trkpt>
      <trkpt lat="47.27163" lon="6.07273">
        <ele>252.8</ele>
        <time>2024-07-31T11:34:27Z</time>
      </trkpt>
      <trkpt lat="47.27158" lon="6.07271">
        <ele>253.4</ele>
        <time>2024-07-31T11:34:28Z</time>
      </trkpt>
      <trkpt lat="47.27154" lon="6.07269">
        <ele>253.4</ele>
        <time>2024-07-31T11:34:29Z</time>
      </trkpt>
      <trkpt lat="47.27149" lon="6.07267">
        <ele>253</ele>
        <time>2024-07-31T11:34:30Z</time>
      </trkpt>
      <trkpt lat="47.27144" lon="6.07265">
        <ele>253</ele>
        <time>2024-07-31T11:34:31Z</time>
      </trkpt>
      <trkpt lat="47.27139" lon="6.07263">
        <ele>252.8</ele>
        <time>2024-07-31T11:34:32Z</time>
      </trkpt>
      <trkpt lat="47.27134" lon="6.0726">
        <ele>252.6</ele>
        <time>2024-07-31T11:34:33Z</time>
      </trkpt>
      <trkpt lat="47.2713" lon="6.07258">
        <ele>252.4</ele>
        <time>2024-07-31T11:34:34Z</time>
      </trkpt>
      <trkpt lat="47.27125" lon="6.07255">
        <ele>252.6</ele>
        <time>2024-07-31T11:34:35Z</time>
      </trkpt>
      <trkpt lat="47.2712" lon="6.07253">
        <ele>252.8</ele>
        <time>2024-07-31T11:34:36Z</time>
      </trkpt>
      <trkpt lat="47.27116" lon="6.0725">
        <ele>252.6</ele>
        <time>2024-07-31T11:34:37Z</time>
      </trkpt>
      <trkpt lat="47.27111" lon="6.07246">
        <ele>252.6</ele>
        <time>2024-07-31T11:34:38Z</time>
      </trkpt>
      <trkpt lat="47.27107" lon="6.07243">
        <ele>252.4</ele>
        <time>2024-07-31T11:34:39Z</time>
      </trkpt>
      <trkpt lat="47.27102" lon="6.0724">
        <ele>252.4</ele>
        <time>2024-07-31T11:34:40Z</time>
      </trkpt>
      <trkpt lat="47.27098" lon="6.07237">
        <ele>252.8</ele>
        <time>2024-07-31T11:34:41Z</time>
      </trkpt>
      <trkpt lat="47.27093" lon="6.07234">
        <ele>252.6</ele>
        <time>2024-07-31T11:34:42Z</time>
      </trkpt>
      <trkpt lat="47.27089" lon="6.07231">
        <ele>252</ele>
        <time>2024-07-31T11:34:43Z</time>
      </trkpt>
      <trkpt lat="47.27085" lon="6.07228">
        <ele>252.4</ele>
        <time>2024-07-31T11:34:44Z</time>
      </trkpt>
      <trkpt lat="47.2708" lon="6.07226">
        <ele>252.4</ele>
        <time>2024-07-31T11:34:45Z</time>
      </trkpt>
      <trkpt lat="47.27076" lon="6.07223">
        <ele>252.4</ele>
        <time>2024-07-31T11:34:46Z</time>
      </trkpt>
      <trkpt lat="47.27071" lon="6.0722">
        <ele>252.4</ele>
        <time>2024-07-31T11:34:47Z</time>
      </trkpt>
      <trkpt lat="47.27067" lon="6.07218">
        <ele>252.4</ele>
        <time>2024-07-31T11:34:48Z</time>
      </trkpt>
      <trkpt lat="47.27063" lon="6.07215">
        <ele>252.6</ele>
        <time>2024-07-31T11:34:49Z</time>
      </trkpt>
      <trkpt lat="47.27058" lon="6.07213">
        <ele>252.6</ele>
        <time>2024-07-31T11:34:50Z</time>
      </trkpt>
      <trkpt lat="47.27054" lon="6.0721">
        <ele>252.2</ele>
        <time>2024-07-31T11:34:51Z</time>
      </trkpt>
      <trkpt lat="47.27049" lon="6.07208">
        <ele>252.4</ele>
        <time>2024-07-31T11:34:52Z</time>
      </trkpt>
      <trkpt lat="47.27044" lon="6.07205">
        <ele>252.4</ele>
        <time>2024-07-31T11:34:53Z</time>
      </trkpt>
      <trkpt lat="47.27039" lon="6.07204">
        <ele>252.4</ele>
        <time>2024-07-31T11:34:54Z</time>
      </trkpt>
      <trkpt lat="47.27034" lon="6.07203">
        <ele>252.4</ele>
        <time>2024-07-31T11:34:55Z</time>
      </trkpt>
      <trkpt lat="47.27029" lon="6.07201">
        <ele>252.2</ele>
        <time>2024-07-31T11:34:56Z</time>
      </trkpt>
      <trkpt lat="47.27024" lon="6.07199">
        <ele>252.4</ele>
        <time>2024-07-31T11:34:57Z</time>
      </trkpt>
      <trkpt lat="47.27019" lon="6.07198">
        <ele>252.8</ele>
        <time>2024-07-31T11:34:58Z</time>
      </trkpt>
      <trkpt lat="47.27014" lon="6.07196">
        <ele>252.2</ele>
        <time>2024-07-31T11:34:59Z</time>
      </trkpt>
      <trkpt lat="47.27008" lon="6.07195">
        <ele>252.4</ele>
        <time>2024-07-31T11:35:00Z</time>
      </trkpt>
      <trkpt lat="47.27003" lon="6.07194">
        <ele>252.2</ele>
        <time>2024-07-31T11:35:01Z</time>
      </trkpt>
      <trkpt lat="47.26998" lon="6.07193">
        <ele>252.2</ele>
        <time>2024-07-31T11:35:02Z</time>
      </trkpt>
      <trkpt lat="47.26993" lon="6.07192">
        <ele>252.6</ele>
        <time>2024-07-31T11:35:03Z</time>
      </trkpt>
      <trkpt lat="47.26988" lon="6.07191">
        <ele>252.4</ele>
        <time>2024-07-31T11:35:04Z</time>
      </trkpt>
      <trkpt lat="47.26983" lon="6.0719">
        <ele>253</ele>
        <time>2024-07-31T11:35:05Z</time>
      </trkpt>
      <trkpt lat="47.26978" lon="6.07189">
        <ele>253.2</ele>
        <time>2024-07-31T11:35:06Z</time>
      </trkpt>
      <trkpt lat="47.26973" lon="6.07188">
        <ele>252.4</ele>
        <time>2024-07-31T11:35:07Z</time>
      </trkpt>
      <trkpt lat="47.26968" lon="6.07187">
        <ele>252.4</ele>
        <time>2024-07-31T11:35:08Z</time>
      </trkpt>
      <trkpt lat="47.26963" lon="6.07186">
        <ele>252.4</ele>
        <time>2024-07-31T11:35:09Z</time>
      </trkpt>
      <trkpt lat="47.26959" lon="6.07185">
        <ele>252.2</ele>
        <time>2024-07-31T11:35:10Z</time>
      </trkpt>
      <trkpt lat="47.26954" lon="6.07183">
        <ele>252.6</ele>
        <time>2024-07-31T11:35:11Z</time>
      </trkpt>
      <trkpt lat="47.26949" lon="6.07182">
        <ele>252.2</ele>
        <time>2024-07-31T11:35:12Z</time>
      </trkpt>
      <trkpt lat="47.26944" lon="6.0718">
        <ele>252.6</ele>
        <time>2024-07-31T11:35:13Z</time>
      </trkpt>
      <trkpt lat="47.26939" lon="6.07178">
        <ele>252.6</ele>
        <time>2024-07-31T11:35:14Z</time>
      </trkpt>
      <trkpt lat="47.26935" lon="6.07176">
        <ele>251.8</ele>
        <time>2024-07-31T11:35:15Z</time>
      </trkpt>
      <trkpt lat="47.2693" lon="6.07174">
        <ele>251.8</ele>
        <time>2024-07-31T11:35:16Z</time>
      </trkpt>
      <trkpt lat="47.26925" lon="6.07173">
        <ele>252.4</ele>
        <time>2024-07-31T11:35:17Z</time>
      </trkpt>
      <trkpt lat="47.2692" lon="6.07171">
        <ele>252.6</ele>
        <time>2024-07-31T11:35:18Z</time>
      </trkpt>
      <trkpt lat="47.26915" lon="6.0717">
        <ele>252.2</ele>
        <time>2024-07-31T11:35:19Z</time>
      </trkpt>
      <trkpt lat="47.2691" lon="6.07169">
        <ele>252.6</ele>
        <time>2024-07-31T11:35:20Z</time>
      </trkpt>
      <trkpt lat="47.26905" lon="6.07167">
        <ele>252.4</ele>
        <time>2024-07-31T11:35:21Z</time>
      </trkpt>
      <trkpt lat="47.269" lon="6.07166">
        <ele>252.4</ele>
        <time>2024-07-31T11:35:22Z</time>
      </trkpt>
      <trkpt lat="47.26895" lon="6.07165">
        <ele>252.6</ele>
        <time>2024-07-31T11:35:23Z</time>
      </trkpt>
      <trkpt lat="47.2689" lon="6.07163">
        <ele>252.8</ele>
        <time>2024-07-31T11:35:24Z</time>
      </trkpt>
      <trkpt lat="47.26885" lon="6.07162">
        <ele>252.8</ele>
        <time>2024-07-31T11:35:25Z</time>
      </trkpt>
      <trkpt lat="47.2688" lon="6.07161">
        <ele>252.8</ele>
        <time>2024-07-31T11:35:26Z</time>
      </trkpt>
      <trkpt lat="47.26875" lon="6.07159">
        <ele>252.6</ele>
        <time>2024-07-31T11:35:27Z</time>
      </trkpt>
      <trkpt lat="47.26871" lon="6.07157">
        <ele>252.8</ele>
        <time>2024-07-31T11:35:28Z</time>
      </trkpt>
      <trkpt lat="47.26866" lon="6.07155">
        <ele>252.6</ele>
        <time>2024-07-31T11:35:29Z</time>
      </trkpt>
      <trkpt lat="47.26862" lon="6.07154">
        <ele>252.6</ele>
        <time>2024-07-31T11:35:30Z</time>
      </trkpt>
      <trkpt lat="47.26857" lon="6.07152">
        <ele>252.6</ele>
        <time>2024-07-31T11:35:31Z</time>
      </trkpt>
      <trkpt lat="47.26852" lon="6.07151">
        <ele>253</ele>
        <time>2024-07-31T11:35:32Z</time>
      </trkpt>
      <trkpt lat="47.26847" lon="6.0715">
        <ele>252.8</ele>
        <time>2024-07-31T11:35:33Z</time>
      </trkpt>
      <trkpt lat="47.26843" lon="6.07148">
        <ele>252.4</ele>
        <time>2024-07-31T11:35:34Z</time>
      </trkpt>
      <trkpt lat="47.26838" lon="6.07146">
        <ele>252.8</ele>
        <time>2024-07-31T11:35:35Z</time>
      </trkpt>
      <trkpt lat="47.26834" lon="6.07144">
        <ele>252.8</ele>
        <time>2024-07-31T11:35:36Z</time>
      </trkpt>
      <trkpt lat="47.2683" lon="6.07143">
        <ele>252.2</ele>
        <time>2024-07-31T11:35:37Z</time>
      </trkpt>
      <trkpt lat="47.26825" lon="6.07142">
        <ele>252.6</ele>
        <time>2024-07-31T11:35:38Z</time>
      </trkpt>
      <trkpt lat="47.2682" lon="6.07141">
        <ele>252.4</ele>
        <time>2024-07-31T11:35:39Z</time>
      </trkpt>
      <trkpt lat="47.26816" lon="6.07141">
        <ele>252.2</ele>
        <time>2024-07-31T11:35:40Z</time>
      </trkpt>
      <trkpt lat="47.26811" lon="6.07141">
        <ele>252.6</ele>
        <time>2024-07-31T11:35:41Z</time>
      </trkpt>
      <trkpt lat="47.26807" lon="6.0714">
        <ele>252.6</ele>
        <time>2024-07-31T11:35:42Z</time>
      </trkpt>
      <trkpt lat="47.26802" lon="6.07139">
        <ele>252.6</ele>
        <time>2024-07-31T11:35:43Z</time>
      </trkpt>
      <trkpt lat="47.26798" lon="6.07139">
        <ele>252.4</ele>
        <time>2024-07-31T11:35:44Z</time>
      </trkpt>
      <trkpt lat="47.26793" lon="6.07139">
        <ele>252.6</ele>
        <time>2024-07-31T11:35:45Z</time>
      </trkpt>
      <trkpt lat="47.26789" lon="6.07139">
        <ele>252.4</ele>
        <time>2024-07-31T11:35:46Z</time>
      </trkpt>
      <trkpt lat="47.26784" lon="6.07139">
        <ele>252.4</ele>
        <time>2024-07-31T11:35:47Z</time>
      </trkpt>
      <trkpt lat="47.26779" lon="6.07138">
        <ele>252.4</ele>
        <time>2024-07-31T11:35:48Z</time>
      </trkpt>
      <trkpt lat="47.26775" lon="6.07137">
        <ele>252.6</ele>
        <time>2024-07-31T11:35:49Z</time>
      </trkpt>
      <trkpt lat="47.2677" lon="6.07135">
        <ele>252.8</ele>
        <time>2024-07-31T11:35:50Z</time>
      </trkpt>
      <trkpt lat="47.26766" lon="6.07134">
        <ele>252.8</ele>
        <time>2024-07-31T11:35:51Z</time>
      </trkpt>
      <trkpt lat="47.26762" lon="6.07132">
        <ele>252.8</ele>
        <time>2024-07-31T11:35:52Z</time>
      </trkpt>
      <trkpt lat="47.26758" lon="6.0713">
        <ele>252.8</ele>
        <time>2024-07-31T11:35:53Z</time>
      </trkpt>
      <trkpt lat="47.26754" lon="6.07128">
        <ele>253</ele>
        <time>2024-07-31T11:35:54Z</time>
      </trkpt>
      <trkpt lat="47.2675" lon="6.07127">
        <ele>253</ele>
        <time>2024-07-31T11:35:55Z</time>
      </trkpt>
      <trkpt lat="47.26746" lon="6.07126">
        <ele>253</ele>
        <time>2024-07-31T11:35:56Z</time>
      </trkpt>
      <trkpt lat="47.26741" lon="6.07125">
        <ele>252.4</ele>
        <time>2024-07-31T11:35:57Z</time>
      </trkpt>
      <trkpt lat="47.26737" lon="6.07124">
        <ele>252.8</ele>
        <time>2024-07-31T11:35:58Z</time>
      </trkpt>
      <trkpt lat="47.26732" lon="6.07122">
        <ele>253</ele>
        <time>2024-07-31T11:35:59Z</time>
      </trkpt>
      <trkpt lat="47.26728" lon="6.07121">
        <ele>252.4</ele>
        <time>2024-07-31T11:36:00Z</time>
      </trkpt>
      <trkpt lat="47.26724" lon="6.0712">
        <ele>252.6</ele>
        <time>2024-07-31T11:36:01Z</time>
      </trkpt>
      <trkpt lat="47.26719" lon="6.07118">
        <ele>253</ele>
        <time>2024-07-31T11:36:02Z</time>
      </trkpt>
      <trkpt lat="47.26715" lon="6.07117">
        <ele>252.6</ele>
        <time>2024-07-31T11:36:03Z</time>
      </trkpt>
      <trkpt lat="47.2671" lon="6.07115">
        <ele>253</ele>
        <time>2024-07-31T11:36:04Z</time>
      </trkpt>
      <trkpt lat="47.26706" lon="6.07114">
        <ele>252.6</ele>
        <time>2024-07-31T11:36:05Z</time>
      </trkpt>
      <trkpt lat="47.26702" lon="6.07113">
        <ele>253</ele>
        <time>2024-07-31T11:36:06Z</time>
      </trkpt>
      <trkpt lat="47.26697" lon="6.07111">
        <ele>253</ele>
        <time>2024-07-31T11:36:07Z</time>
      </trkpt>
      <trkpt lat="47.26693" lon="6.0711">
        <ele>252.6</ele>
        <time>2024-07-31T11:36:08Z</time>
      </trkpt>
      <trkpt lat="47.26689" lon="6.07109">
        <ele>252.6</ele>
        <time>2024-07-31T11:36:09Z</time>
      </trkpt>
      <trkpt lat="47.26685" lon="6.07108">
        <ele>252.6</ele>
        <time>2024-07-31T11:36:10Z</time>
      </trkpt>
      <trkpt lat="47.26681" lon="6.07106">
        <ele>252.8</ele>
        <time>2024-07-31T11:36:11Z</time>
      </trkpt>
      <trkpt lat="47.26676" lon="6.07105">
        <ele>252.4</ele>
        <time>2024-07-31T11:36:12Z</time>
      </trkpt>
      <trkpt lat="47.26671" lon="6.07104">
        <ele>252.4</ele>
        <time>2024-07-31T11:36:13Z</time>
      </trkpt>
      <trkpt lat="47.26667" lon="6.07103">
        <ele>252.4</ele>
        <time>2024-07-31T11:36:14Z</time>
      </trkpt>
      <trkpt lat="47.26662" lon="6.07102">
        <ele>252.4</ele>
        <time>2024-07-31T11:36:15Z</time>
      </trkpt>
      <trkpt lat="47.26658" lon="6.071">
        <ele>252.2</ele>
        <time>2024-07-31T11:36:16Z</time>
      </trkpt>
      <trkpt lat="47.26653" lon="6.07099">
        <ele>252.4</ele>
        <time>2024-07-31T11:36:17Z</time>
      </trkpt>
      <trkpt lat="47.2665" lon="6.07096">
        <ele>252.2</ele>
        <time>2024-07-31T11:36:18Z</time>
      </trkpt>
      <trkpt lat="47.26646" lon="6.07094">
        <ele>252.4</ele>
        <time>2024-07-31T11:36:19Z</time>
      </trkpt>
      <trkpt lat="47.26642" lon="6.07092">
        <ele>252.4</ele>
        <time>2024-07-31T11:36:20Z</time>
      </trkpt>
      <trkpt lat="47.26638" lon="6.0709">
        <ele>252.4</ele>
        <time>2024-07-31T11:36:21Z</time>
      </trkpt>
      <trkpt lat="47.26635" lon="6.07088">
        <ele>252.8</ele>
        <time>2024-07-31T11:36:22Z</time>
      </trkpt>
      <trkpt lat="47.26632" lon="6.07087">
        <ele>252.4</ele>
        <time>2024-07-31T11:36:23Z</time>
      </trkpt>
      <trkpt lat="47.26629" lon="6.07087">
        <ele>252.4</ele>
        <time>2024-07-31T11:36:24Z</time>
      </trkpt>
      <trkpt lat="47.26626" lon="6.07088">
        <ele>252.4</ele>
        <time>2024-07-31T11:36:25Z</time>
      </trkpt>
      <trkpt lat="47.26625" lon="6.07091">
        <ele>252.2</ele>
        <time>2024-07-31T11:36:26Z</time>
      </trkpt>
      <trkpt lat="47.26624" lon="6.07094">
        <ele>251.6</ele>
        <time>2024-07-31T11:36:27Z</time>
      </trkpt>
      <trkpt lat="47.26622" lon="6.07098">
        <ele>251.8</ele>
        <time>2024-07-31T11:36:28Z</time>
      </trkpt>
      <trkpt lat="47.2662" lon="6.07101">
        <ele>251.6</ele>
        <time>2024-07-31T11:36:29Z</time>
      </trkpt>
      <trkpt lat="47.26617" lon="6.07104">
        <ele>251.2</ele>
        <time>2024-07-31T11:36:30Z</time>
      </trkpt>
      <trkpt lat="47.26613" lon="6.07106">
        <ele>251.2</ele>
        <time>2024-07-31T11:36:31Z</time>
      </trkpt>
      <trkpt lat="47.2661" lon="6.07107">
        <ele>251</ele>
        <time>2024-07-31T11:36:32Z</time>
      </trkpt>
      <trkpt lat="47.26607" lon="6.0711">
        <ele>251.2</ele>
        <time>2024-07-31T11:36:33Z</time>
      </trkpt>
      <trkpt lat="47.26604" lon="6.07113">
        <ele>251.4</ele>
        <time>2024-07-31T11:36:34Z</time>
      </trkpt>
      <trkpt lat="47.26601" lon="6.07114">
        <ele>251.4</ele>
        <time>2024-07-31T11:36:35Z</time>
      </trkpt>
      <trkpt lat="47.26599" lon="6.07114">
        <ele>251.2</ele>
        <time>2024-07-31T11:36:36Z</time>
      </trkpt>
      <trkpt lat="47.26596" lon="6.07114">
        <ele>251.2</ele>
        <time>2024-07-31T11:36:37Z</time>
      </trkpt>
      <trkpt lat="47.26594" lon="6.07112">
        <ele>251.4</ele>
        <time>2024-07-31T11:36:38Z</time>
      </trkpt>
      <trkpt lat="47.26592" lon="6.0711">
        <ele>251.6</ele>
        <time>2024-07-31T11:36:39Z</time>
      </trkpt>
      <trkpt lat="47.26589" lon="6.07107">
        <ele>251.6</ele>
        <time>2024-07-31T11:36:40Z</time>
      </trkpt>
      <trkpt lat="47.26587" lon="6.07104">
        <ele>251.8</ele>
        <time>2024-07-31T11:36:41Z</time>
      </trkpt>
      <trkpt lat="47.26585" lon="6.07101">
        <ele>252</ele>
        <time>2024-07-31T11:36:42Z</time>
      </trkpt>
      <trkpt lat="47.26584" lon="6.07098">
        <ele>252</ele>
        <time>2024-07-31T11:36:43Z</time>
      </trkpt>
      <trkpt lat="47.26585" lon="6.07097">
        <ele>252.2</ele>
        <time>2024-07-31T11:36:44Z</time>
      </trkpt>
      <trkpt lat="47.26585" lon="6.07097">
        <ele>252.2</ele>
        <time>2024-07-31T11:36:45Z</time>
      </trkpt>
      <trkpt lat="47.26585" lon="6.07096">
        <ele>252.2</ele>
        <time>2024-07-31T11:36:46Z</time>
      </trkpt>
      <trkpt lat="47.26586" lon="6.07096">
        <ele>252.2</ele>
        <time>2024-07-31T11:36:47Z</time>
      </trkpt>
      <trkpt lat="47.26586" lon="6.07096">
        <ele>252.4</ele>
        <time>2024-07-31T11:36:48Z</time>
      </trkpt>
      <trkpt lat="47.26586" lon="6.07097">
        <ele>252.2</ele>
        <time>2024-07-31T11:36:49Z</time>
      </trkpt>
      <trkpt lat="47.26586" lon="6.07096">
        <ele>252</ele>
        <time>2024-07-31T11:36:50Z</time>
      </trkpt>
      <trkpt lat="47.26586" lon="6.07096">
        <ele>252</ele>
        <time>2024-07-31T11:36:51Z</time>
      </trkpt>
      <trkpt lat="47.26586" lon="6.07096">
        <ele>251.8</ele>
        <time>2024-07-31T11:36:52Z</time>
      </trkpt>
      <trkpt lat="47.26587" lon="6.07096">
        <ele>251.8</ele>
        <time>2024-07-31T11:36:53Z</time>
      </trkpt>
      <trkpt lat="47.26586" lon="6.07094">
        <ele>252</ele>
        <time>2024-07-31T11:36:54Z</time>
      </trkpt>
      <trkpt lat="47.26586" lon="6.07094">
        <ele>252</ele>
        <time>2024-07-31T11:36:55Z</time>
      </trkpt>
      <trkpt lat="47.26586" lon="6.07093">
        <ele>252</ele>
        <time>2024-07-31T11:36:56Z</time>
      </trkpt>
      <trkpt lat="47.26586" lon="6.07093">
        <ele>252</ele>
        <time>2024-07-31T11:36:57Z</time>
      </trkpt>
      <trkpt lat="47.26587" lon="6.07093">
        <ele>252</ele>
        <time>2024-07-31T11:36:58Z</time>
      </trkpt>
      <trkpt lat="47.26587" lon="6.07092">
        <ele>252</ele>
        <time>2024-07-31T11:36:59Z</time>
      </trkpt>
      <trkpt lat="47.26587" lon="6.07092">
        <ele>251.8</ele>
        <time>2024-07-31T11:37:00Z</time>
      </trkpt>
      <trkpt lat="47.26587" lon="6.07092">
        <ele>252</ele>
        <time>2024-07-31T11:37:01Z</time>
      </trkpt>
      <trkpt lat="47.26587" lon="6.07092">
        <ele>251.8</ele>
        <time>2024-07-31T11:37:02Z</time>
      </trkpt>
      <trkpt lat="47.26586" lon="6.07092">
        <ele>251.8</ele>
        <time>2024-07-31T11:37:03Z</time>
      </trkpt>
      <trkpt lat="47.26586" lon="6.07092">
        <ele>251.8</ele>
        <time>2024-07-31T11:37:04Z</time>
      </trkpt>
      <trkpt lat="47.26586" lon="6.07092">
        <ele>251.8</ele>
        <time>2024-07-31T11:37:05Z</time>
      </trkpt>
      <trkpt lat="47.26587" lon="6.07092">
        <ele>251.8</ele>
        <time>2024-07-31T11:37:06Z</time>
      </trkpt>
      <trkpt lat="47.26587" lon="6.07092">
        <ele>252</ele>
        <time>2024-07-31T11:37:07Z</time>
      </trkpt>
      <trkpt lat="47.26587" lon="6.07092">
        <ele>251.8</ele>
        <time>2024-07-31T11:37:08Z</time>
      </trkpt>
      <trkpt lat="47.26588" lon="6.07092">
        <ele>251.8</ele>
        <time>2024-07-31T11:37:09Z</time>
      </trkpt>
      <trkpt lat="47.26588" lon="6.07091">
        <ele>251.8</ele>
        <time>2024-07-31T11:37:10Z</time>
      </trkpt>
      <trkpt lat="47.26588" lon="6.07091">
        <ele>251.8</ele>
        <time>2024-07-31T11:37:11Z</time>
      </trkpt>
      <trkpt lat="47.26588" lon="6.07091">
        <ele>251.8</ele>
        <time>2024-07-31T11:37:12Z</time>
      </trkpt>
      <trkpt lat="47.26588" lon="6.07091">
        <ele>251.8</ele>
        <time>2024-07-31T11:37:13Z</time>
      </trkpt>
      <trkpt lat="47.26588" lon="6.07091">
        <ele>251.8</ele>
        <time>2024-07-31T11:37:14Z</time>
      </trkpt>
      <trkpt lat="47.26588" lon="6.07091">
        <ele>251.8</ele>
        <time>2024-07-31T11:37:15Z</time>
      </trkpt>
      <trkpt lat="47.26588" lon="6.07091">
        <ele>251.8</ele>
        <time>2024-07-31T11:37:16Z</time>
      </trkpt>
      <trkpt lat="47.26587" lon="6.07091">
        <ele>251.8</ele>
        <time>2024-07-31T11:37:17Z</time>
      </trkpt>
      <trkpt lat="47.26588" lon="6.07091">
        <ele>251.8</ele>
        <time>2024-07-31T11:37:18Z</time>
      </trkpt>
      <trkpt lat="47.26587" lon="6.07091">
        <ele>252</ele>
        <time>2024-07-31T11:37:19Z</time>
      </trkpt>
      <trkpt lat="47.26587" lon="6.07091">
        <ele>251.8</ele>
        <time>2024-07-31T11:37:20Z</time>
      </trkpt>
      <trkpt lat="47.26587" lon="6.07091">
        <ele>252</ele>
        <time>2024-07-31T11:37:21Z</time>
      </trkpt>
      <trkpt lat="47.26587" lon="6.07091">
        <ele>251.8</ele>
        <time>2024-07-31T11:37:22Z</time>
      </trkpt>
      <trkpt lat="47.26587" lon="6.07091">
        <ele>251.8</ele>
        <time>2024-07-31T11:37:23Z</time>
      </trkpt>
      <trkpt lat="47.26587" lon="6.07091">
        <ele>251.8</ele>
        <time>2024-07-31T11:37:24Z</time>
      </trkpt>
      <trkpt lat="47.26587" lon="6.07091">
        <ele>252</ele>
        <time>2024-07-31T11:37:25Z</time>
      </trkpt>
      <trkpt lat="47.26588" lon="6.07091">
        <ele>251.8</ele>
        <time>2024-07-31T11:37:26Z</time>
      </trkpt>
      <trkpt lat="47.26588" lon="6.07091">
        <ele>252</ele>
        <time>2024-07-31T11:37:27Z</time>
      </trkpt>
      <trkpt lat="47.26588" lon="6.07091">
        <ele>252</ele>
        <time>2024-07-31T11:37:28Z</time>
      </trkpt>
      <trkpt lat="47.26588" lon="6.07091">
        <ele>251.8</ele>
        <time>2024-07-31T11:37:29Z</time>
      </trkpt>
      <trkpt lat="47.26588" lon="6.07092">
        <ele>251.8</ele>
        <time>2024-07-31T11:37:30Z</time>
      </trkpt>
      <trkpt lat="47.26588" lon="6.07091">
        <ele>251.8</ele>
        <time>2024-07-31T11:37:31Z</time>
      </trkpt>
      <trkpt lat="47.26588" lon="6.07092">
        <ele>251.8</ele>
        <time>2024-07-31T11:37:32Z</time>
      </trkpt>
      <trkpt lat="47.26588" lon="6.07092">
        <ele>251.8</ele>
        <time>2024-07-31T11:37:33Z</time>
      </trkpt>
      <trkpt lat="47.26588" lon="6.07092">
        <ele>251.6</ele>
        <time>2024-07-31T11:37:34Z</time>
      </trkpt>
      <trkpt lat="47.26588" lon="6.07092">
        <ele>251.6</ele>
        <time>2024-07-31T11:37:35Z</time>
      </trkpt>
      <trkpt lat="47.26588" lon="6.07092">
        <ele>251.6</ele>
        <time>2024-07-31T11:37:36Z</time>
      </trkpt>
      <trkpt lat="47.26587" lon="6.07092">
        <ele>251.6</ele>
        <time>2024-07-31T11:37:37Z</time>
      </trkpt>
      <trkpt lat="47.26587" lon="6.07093">
        <ele>251.8</ele>
        <time>2024-07-31T11:37:38Z</time>
      </trkpt>
      <trkpt lat="47.26587" lon="6.07093">
        <ele>251.6</ele>
        <time>2024-07-31T11:37:39Z</time>
      </trkpt>
      <trkpt lat="47.26587" lon="6.07093">
        <ele>251.6</ele>
        <time>2024-07-31T11:37:40Z</time>
      </trkpt>
      <trkpt lat="47.26587" lon="6.07093">
        <ele>251.8</ele>
        <time>2024-07-31T11:37:41Z</time>
      </trkpt>
      <trkpt lat="47.26587" lon="6.07093">
        <ele>251.8</ele>
        <time>2024-07-31T11:37:42Z</time>
      </trkpt>
      <trkpt lat="47.26587" lon="6.07093">
        <ele>251.8</ele>
        <time>2024-07-31T11:37:43Z</time>
      </trkpt>
      <trkpt lat="47.26586" lon="6.07093">
        <ele>252</ele>
        <time>2024-07-31T11:37:44Z</time>
      </trkpt>
      <trkpt lat="47.26586" lon="6.07093">
        <ele>251.8</ele>
        <time>2024-07-31T11:37:45Z</time>
      </trkpt>
      <trkpt lat="47.26586" lon="6.07093">
        <ele>251.8</ele>
        <time>2024-07-31T11:37:46Z</time>
      </trkpt>
      <trkpt lat="47.26586" lon="6.07093">
        <ele>251.8</ele>
        <time>2024-07-31T11:37:47Z</time>
      </trkpt>
      <trkpt lat="47.26586" lon="6.07093">
        <ele>251.8</ele>
        <time>2024-07-31T11:37:48Z</time>
      </trkpt>
      <trkpt lat="47.26586" lon="6.07093">
        <ele>251.8</ele>
        <time>2024-07-31T11:37:49Z</time>
      </trkpt>
      <trkpt lat="47.26586" lon="6.07093">
        <ele>251.8</ele>
        <time>2024-07-31T11:37:50Z</time>
      </trkpt>
      <trkpt lat="47.26586" lon="6.07093">
        <ele>251.8</ele>
        <time>2024-07-31T11:37:51Z</time>
      </trkpt>
      <trkpt lat="47.26586" lon="6.07093">
        <ele>252</ele>
        <time>2024-07-31T11:37:52Z</time>
      </trkpt>
      <trkpt lat="47.26586" lon="6.07093">
        <ele>251.8</ele>
        <time>2024-07-31T11:37:53Z</time>
      </trkpt>
      <trkpt lat="47.26587" lon="6.07093">
        <ele>251.8</ele>
        <time>2024-07-31T11:37:54Z</time>
      </trkpt>
      <trkpt lat="47.26587" lon="6.07093">
        <ele>251.8</ele>
        <time>2024-07-31T11:37:55Z</time>
      </trkpt>
      <trkpt lat="47.26587" lon="6.07093">
        <ele>251.8</ele>
        <time>2024-07-31T11:37:56Z</time>
      </trkpt>
      <trkpt lat="47.26587" lon="6.07093">
        <ele>252</ele>
        <time>2024-07-31T11:37:57Z</time>
      </trkpt>
      <trkpt lat="47.26587" lon="6.07093">
        <ele>251.8</ele>
        <time>2024-07-31T11:37:58Z</time>
      </trkpt>
      <trkpt lat="47.26587" lon="6.07093">
        <ele>251.8</ele>
        <time>2024-07-31T11:37:59Z</time>
      </trkpt>
      <trkpt lat="47.26587" lon="6.07093">
        <ele>252</ele>
        <time>2024-07-31T11:38:00Z</time>
      </trkpt>
      <trkpt lat="47.26587" lon="6.07093">
        <ele>252</ele>
        <time>2024-07-31T11:38:01Z</time>
      </trkpt>
      <trkpt lat="47.26587" lon="6.07093">
        <ele>252</ele>
        <time>2024-07-31T11:38:02Z</time>
      </trkpt>
      <trkpt lat="47.26587" lon="6.07093">
        <ele>252</ele>
        <time>2024-07-31T11:38:03Z</time>
      </trkpt>
      <trkpt lat="47.26587" lon="6.07093">
        <ele>252</ele>
        <time>2024-07-31T11:38:04Z</time>
      </trkpt>
      <trkpt lat="47.26587" lon="6.07093">
        <ele>251.8</ele>
        <time>2024-07-31T11:38:05Z</time>
      </trkpt>
      <trkpt lat="47.26587" lon="6.07093">
        <ele>251.8</ele>
        <time>2024-07-31T11:38:06Z</time>
      </trkpt>
      <trkpt lat="47.26587" lon="6.07093">
        <ele>252</ele>
        <time>2024-07-31T11:38:07Z</time>
      </trkpt>
      <trkpt lat="47.26587" lon="6.07092">
        <ele>252</ele>
        <time>2024-07-31T11:38:08Z</time>
      </trkpt>
      <trkpt lat="47.26587" lon="6.07091">
        <ele>252</ele>
        <time>2024-07-31T11:38:09Z</time>
      </trkpt>
      <trkpt lat="47.26588" lon="6.0709">
        <ele>252</ele>
        <time>2024-07-31T11:38:10Z</time>
      </trkpt>
      <trkpt lat="47.26588" lon="6.07089">
        <ele>252</ele>
        <time>2024-07-31T11:38:11Z</time>
      </trkpt>
      <trkpt lat="47.26587" lon="6.07088">
        <ele>252</ele>
        <time>2024-07-31T11:38:12Z</time>
      </trkpt>
      <trkpt lat="47.26587" lon="6.07086">
        <ele>251.8</ele>
        <time>2024-07-31T11:38:13Z</time>
      </trkpt>
      <trkpt lat="47.26586" lon="6.07085">
        <ele>252</ele>
        <time>2024-07-31T11:38:14Z</time>
      </trkpt>
      <trkpt lat="47.26585" lon="6.07082">
        <ele>252</ele>
        <time>2024-07-31T11:38:15Z</time>
      </trkpt>
      <trkpt lat="47.26584" lon="6.07078">
        <ele>252.2</ele>
        <time>2024-07-31T11:38:16Z</time>
      </trkpt>
      <trkpt lat="47.26583" lon="6.07074">
        <ele>252.2</ele>
        <time>2024-07-31T11:38:17Z</time>
      </trkpt>
      <trkpt lat="47.26581" lon="6.07069">
        <ele>252.2</ele>
        <time>2024-07-31T11:38:18Z</time>
      </trkpt>
      <trkpt lat="47.26579" lon="6.07064">
        <ele>252.2</ele>
        <time>2024-07-31T11:38:19Z</time>
      </trkpt>
      <trkpt lat="47.26577" lon="6.07059">
        <ele>252</ele>
        <time>2024-07-31T11:38:20Z</time>
      </trkpt>
      <trkpt lat="47.26576" lon="6.07053">
        <ele>252.2</ele>
        <time>2024-07-31T11:38:21Z</time>
      </trkpt>
      <trkpt lat="47.26574" lon="6.07047">
        <ele>252.2</ele>
        <time>2024-07-31T11:38:22Z</time>
      </trkpt>
      <trkpt lat="47.26572" lon="6.07041">
        <ele>252</ele>
        <time>2024-07-31T11:38:23Z</time>
      </trkpt>
      <trkpt lat="47.2657" lon="6.07035">
        <ele>252.2</ele>
        <time>2024-07-31T11:38:24Z</time>
      </trkpt>
      <trkpt lat="47.26568" lon="6.07028">
        <ele>252.2</ele>
        <time>2024-07-31T11:38:25Z</time>
      </trkpt>
      <trkpt lat="47.26565" lon="6.07022">
        <ele>252.6</ele>
        <time>2024-07-31T11:38:26Z</time>
      </trkpt>
      <trkpt lat="47.26563" lon="6.07015">
        <ele>252.6</ele>
        <time>2024-07-31T11:38:27Z</time>
      </trkpt>
      <trkpt lat="47.2656" lon="6.07009">
        <ele>252.2</ele>
        <time>2024-07-31T11:38:28Z</time>
      </trkpt>
      <trkpt lat="47.26558" lon="6.07003">
        <ele>252.2</ele>
        <time>2024-07-31T11:38:29Z</time>
      </trkpt>
      <trkpt lat="47.26555" lon="6.06997">
        <ele>252.2</ele>
        <time>2024-07-31T11:38:30Z</time>
      </trkpt>
      <trkpt lat="47.26552" lon="6.06991">
        <ele>252.4</ele>
        <time>2024-07-31T11:38:31Z</time>
      </trkpt>
      <trkpt lat="47.2655" lon="6.06984">
        <ele>252.4</ele>
        <time>2024-07-31T11:38:32Z</time>
      </trkpt>
      <trkpt lat="47.26547" lon="6.06978">
        <ele>252.6</ele>
        <time>2024-07-31T11:38:33Z</time>
      </trkpt>
      <trkpt lat="47.26545" lon="6.06971">
        <ele>252.6</ele>
        <time>2024-07-31T11:38:34Z</time>
      </trkpt>
      <trkpt lat="47.26542" lon="6.06965">
        <ele>252.8</ele>
        <time>2024-07-31T11:38:35Z</time>
      </trkpt>
      <trkpt lat="47.2654" lon="6.06959">
        <ele>253</ele>
        <time>2024-07-31T11:38:36Z</time>
      </trkpt>
      <trkpt lat="47.26539" lon="6.06953">
        <ele>253.2</ele>
        <time>2024-07-31T11:38:37Z</time>
      </trkpt>
      <trkpt lat="47.26537" lon="6.06947">
        <ele>253.4</ele>
        <time>2024-07-31T11:38:38Z</time>
      </trkpt>
      <trkpt lat="47.26536" lon="6.06942">
        <ele>253.8</ele>
        <time>2024-07-31T11:38:39Z</time>
      </trkpt>
      <trkpt lat="47.26535" lon="6.06938">
        <ele>253.8</ele>
        <time>2024-07-31T11:38:40Z</time>
      </trkpt>
      <trkpt lat="47.26533" lon="6.06933">
        <ele>254</ele>
        <time>2024-07-31T11:38:41Z</time>
      </trkpt>
      <trkpt lat="47.26531" lon="6.06928">
        <ele>253.8</ele>
        <time>2024-07-31T11:38:42Z</time>
      </trkpt>
      <trkpt lat="47.26529" lon="6.06923">
        <ele>254</ele>
        <time>2024-07-31T11:38:43Z</time>
      </trkpt>
      <trkpt lat="47.26527" lon="6.06918">
        <ele>254</ele>
        <time>2024-07-31T11:38:44Z</time>
      </trkpt>
      <trkpt lat="47.26524" lon="6.06913">
        <ele>254</ele>
        <time>2024-07-31T11:38:45Z</time>
      </trkpt>
      <trkpt lat="47.26522" lon="6.06908">
        <ele>254</ele>
        <time>2024-07-31T11:38:46Z</time>
      </trkpt>
      <trkpt lat="47.2652" lon="6.06903">
        <ele>254</ele>
        <time>2024-07-31T11:38:47Z</time>
      </trkpt>
      <trkpt lat="47.26517" lon="6.06897">
        <ele>254.2</ele>
        <time>2024-07-31T11:38:48Z</time>
      </trkpt>
      <trkpt lat="47.26515" lon="6.06893">
        <ele>254.2</ele>
        <time>2024-07-31T11:38:49Z</time>
      </trkpt>
      <trkpt lat="47.26512" lon="6.06888">
        <ele>254.2</ele>
        <time>2024-07-31T11:38:50Z</time>
      </trkpt>
      <trkpt lat="47.26509" lon="6.06883">
        <ele>254.4</ele>
        <time>2024-07-31T11:38:51Z</time>
      </trkpt>
      <trkpt lat="47.26507" lon="6.06879">
        <ele>254.8</ele>
        <time>2024-07-31T11:38:52Z</time>
      </trkpt>
      <trkpt lat="47.26504" lon="6.06875">
        <ele>255</ele>
        <time>2024-07-31T11:38:53Z</time>
      </trkpt>
      <trkpt lat="47.26502" lon="6.0687">
        <ele>255</ele>
        <time>2024-07-31T11:38:54Z</time>
      </trkpt>
      <trkpt lat="47.26499" lon="6.06866">
        <ele>255.2</ele>
        <time>2024-07-31T11:38:55Z</time>
      </trkpt>
      <trkpt lat="47.26496" lon="6.06861">
        <ele>255.2</ele>
        <time>2024-07-31T11:38:56Z</time>
      </trkpt>
      <trkpt lat="47.26493" lon="6.06858">
        <ele>255.2</ele>
        <time>2024-07-31T11:38:57Z</time>
      </trkpt>
      <trkpt lat="47.2649" lon="6.06854">
        <ele>255.2</ele>
        <time>2024-07-31T11:38:58Z</time>
      </trkpt>
      <trkpt lat="47.26486" lon="6.0685">
        <ele>255.4</ele>
        <time>2024-07-31T11:38:59Z</time>
      </trkpt>
      <trkpt lat="47.26483" lon="6.06846">
        <ele>255.4</ele>
        <time>2024-07-31T11:39:00Z</time>
      </trkpt>
      <trkpt lat="47.2648" lon="6.06841">
        <ele>255.6</ele>
        <time>2024-07-31T11:39:01Z</time>
      </trkpt>
      <trkpt lat="47.26477" lon="6.06836">
        <ele>255.6</ele>
        <time>2024-07-31T11:39:02Z</time>
      </trkpt>
      <trkpt lat="47.26474" lon="6.06831">
        <ele>255.8</ele>
        <time>2024-07-31T11:39:03Z</time>
      </trkpt>
      <trkpt lat="47.26471" lon="6.06827">
        <ele>256</ele>
        <time>2024-07-31T11:39:04Z</time>
      </trkpt>
      <trkpt lat="47.26467" lon="6.06824">
        <ele>256.2</ele>
        <time>2024-07-31T11:39:05Z</time>
      </trkpt>
      <trkpt lat="47.26464" lon="6.06822">
        <ele>256.2</ele>
        <time>2024-07-31T11:39:06Z</time>
      </trkpt>
      <trkpt lat="47.2646" lon="6.06819">
        <ele>256.4</ele>
        <time>2024-07-31T11:39:07Z</time>
      </trkpt>
      <trkpt lat="47.26456" lon="6.06817">
        <ele>256.8</ele>
        <time>2024-07-31T11:39:08Z</time>
      </trkpt>
      <trkpt lat="47.26453" lon="6.06815">
        <ele>257</ele>
        <time>2024-07-31T11:39:09Z</time>
      </trkpt>
      <trkpt lat="47.26449" lon="6.06813">
        <ele>257</ele>
        <time>2024-07-31T11:39:10Z</time>
      </trkpt>
      <trkpt lat="47.26445" lon="6.0681">
        <ele>257.2</ele>
        <time>2024-07-31T11:39:11Z</time>
      </trkpt>
      <trkpt lat="47.26442" lon="6.06808">
        <ele>257.2</ele>
        <time>2024-07-31T11:39:12Z</time>
      </trkpt>
      <trkpt lat="47.26438" lon="6.06805">
        <ele>257.2</ele>
        <time>2024-07-31T11:39:13Z</time>
      </trkpt>
      <trkpt lat="47.26434" lon="6.06802">
        <ele>257.4</ele>
        <time>2024-07-31T11:39:14Z</time>
      </trkpt>
      <trkpt lat="47.2643" lon="6.068">
        <ele>257.4</ele>
        <time>2024-07-31T11:39:15Z</time>
      </trkpt>
      <trkpt lat="47.26425" lon="6.06798">
        <ele>257.4</ele>
        <time>2024-07-31T11:39:16Z</time>
      </trkpt>
      <trkpt lat="47.26421" lon="6.06795">
        <ele>257.6</ele>
        <time>2024-07-31T11:39:17Z</time>
      </trkpt>
      <trkpt lat="47.26417" lon="6.06793">
        <ele>257.6</ele>
        <time>2024-07-31T11:39:18Z</time>
      </trkpt>
      <trkpt lat="47.26413" lon="6.0679">
        <ele>257.6</ele>
        <time>2024-07-31T11:39:19Z</time>
      </trkpt>
      <trkpt lat="47.26409" lon="6.06788">
        <ele>257.6</ele>
        <time>2024-07-31T11:39:20Z</time>
      </trkpt>
      <trkpt lat="47.26405" lon="6.06785">
        <ele>258</ele>
        <time>2024-07-31T11:39:21Z</time>
      </trkpt>
      <trkpt lat="47.26402" lon="6.06782">
        <ele>258</ele>
        <time>2024-07-31T11:39:22Z</time>
      </trkpt>
      <trkpt lat="47.26398" lon="6.0678">
        <ele>258.4</ele>
        <time>2024-07-31T11:39:23Z</time>
      </trkpt>
      <trkpt lat="47.26394" lon="6.06777">
        <ele>258.4</ele>
        <time>2024-07-31T11:39:24Z</time>
      </trkpt>
      <trkpt lat="47.26391" lon="6.06775">
        <ele>258.8</ele>
        <time>2024-07-31T11:39:25Z</time>
      </trkpt>
      <trkpt lat="47.26387" lon="6.06772">
        <ele>259</ele>
        <time>2024-07-31T11:39:26Z</time>
      </trkpt>
      <trkpt lat="47.26384" lon="6.0677">
        <ele>259.2</ele>
        <time>2024-07-31T11:39:27Z</time>
      </trkpt>
      <trkpt lat="47.2638" lon="6.06767">
        <ele>259.2</ele>
        <time>2024-07-31T11:39:28Z</time>
      </trkpt>
      <trkpt lat="47.26377" lon="6.06765">
        <ele>259.2</ele>
        <time>2024-07-31T11:39:29Z</time>
      </trkpt>
      <trkpt lat="47.26374" lon="6.06763">
        <ele>259.4</ele>
        <time>2024-07-31T11:39:30Z</time>
      </trkpt>
      <trkpt lat="47.26371" lon="6.06761">
        <ele>259.4</ele>
        <time>2024-07-31T11:39:31Z</time>
      </trkpt>
      <trkpt lat="47.26367" lon="6.06761">
        <ele>259.4</ele>
        <time>2024-07-31T11:39:32Z</time>
      </trkpt>
      <trkpt lat="47.26364" lon="6.06762">
        <ele>259.4</ele>
        <time>2024-07-31T11:39:33Z</time>
      </trkpt>
      <trkpt lat="47.26359" lon="6.06763">
        <ele>259.2</ele>
        <time>2024-07-31T11:39:34Z</time>
      </trkpt>
      <trkpt lat="47.26355" lon="6.06765">
        <ele>258.8</ele>
        <time>2024-07-31T11:39:35Z</time>
      </trkpt>
      <trkpt lat="47.2635" lon="6.06768">
        <ele>258.8</ele>
        <time>2024-07-31T11:39:36Z</time>
      </trkpt>
      <trkpt lat="47.26344" lon="6.06769">
        <ele>258.6</ele>
        <time>2024-07-31T11:39:37Z</time>
      </trkpt>
      <trkpt lat="47.26337" lon="6.06772">
        <ele>258.4</ele>
        <time>2024-07-31T11:39:38Z</time>
      </trkpt>
      <trkpt lat="47.26331" lon="6.06774">
        <ele>258.2</ele>
        <time>2024-07-31T11:39:39Z</time>
      </trkpt>
      <trkpt lat="47.26325" lon="6.06776">
        <ele>257.8</ele>
        <time>2024-07-31T11:39:40Z</time>
      </trkpt>
      <trkpt lat="47.26318" lon="6.06779">
        <ele>257.8</ele>
        <time>2024-07-31T11:39:41Z</time>
      </trkpt>
      <trkpt lat="47.26311" lon="6.06782">
        <ele>257.2</ele>
        <time>2024-07-31T11:39:42Z</time>
      </trkpt>
      <trkpt lat="47.26305" lon="6.06786">
        <ele>257.2</ele>
        <time>2024-07-31T11:39:43Z</time>
      </trkpt>
      <trkpt lat="47.26299" lon="6.06792">
        <ele>256.8</ele>
        <time>2024-07-31T11:39:44Z</time>
      </trkpt>
      <trkpt lat="47.26293" lon="6.06798">
        <ele>256.6</ele>
        <time>2024-07-31T11:39:45Z</time>
      </trkpt>
      <trkpt lat="47.26288" lon="6.06805">
        <ele>256.4</ele>
        <time>2024-07-31T11:39:46Z</time>
      </trkpt>
      <trkpt lat="47.26283" lon="6.06813">
        <ele>256</ele>
        <time>2024-07-31T11:39:47Z</time>
      </trkpt>
      <trkpt lat="47.26278" lon="6.06821">
        <ele>256.2</ele>
        <time>2024-07-31T11:39:48Z</time>
      </trkpt>
      <trkpt lat="47.26273" lon="6.06829">
        <ele>256.2</ele>
        <time>2024-07-31T11:39:49Z</time>
      </trkpt>
      <trkpt lat="47.26269" lon="6.06839">
        <ele>256.2</ele>
        <time>2024-07-31T11:39:50Z</time>
      </trkpt>
      <trkpt lat="47.26266" lon="6.06849">
        <ele>256</ele>
        <time>2024-07-31T11:39:51Z</time>
      </trkpt>
      <trkpt lat="47.26263" lon="6.06859">
        <ele>256</ele>
        <time>2024-07-31T11:39:52Z</time>
      </trkpt>
      <trkpt lat="47.2626" lon="6.06869">
        <ele>255.4</ele>
        <time>2024-07-31T11:39:53Z</time>
      </trkpt>
      <trkpt lat="47.26256" lon="6.06879">
        <ele>255.4</ele>
        <time>2024-07-31T11:39:54Z</time>
      </trkpt>
      <trkpt lat="47.26253" lon="6.06888">
        <ele>255.2</ele>
        <time>2024-07-31T11:39:55Z</time>
      </trkpt>
      <trkpt lat="47.26249" lon="6.06897">
        <ele>254.8</ele>
        <time>2024-07-31T11:39:56Z</time>
      </trkpt>
      <trkpt lat="47.26244" lon="6.06906">
        <ele>254.8</ele>
        <time>2024-07-31T11:39:57Z</time>
      </trkpt>
      <trkpt lat="47.2624" lon="6.06915">
        <ele>254.8</ele>
        <time>2024-07-31T11:39:58Z</time>
      </trkpt>
      <trkpt lat="47.26234" lon="6.06922">
        <ele>254.8</ele>
        <time>2024-07-31T11:39:59Z</time>
      </trkpt>
      <trkpt lat="47.26229" lon="6.06928">
        <ele>254.6</ele>
        <time>2024-07-31T11:40:00Z</time>
      </trkpt>
      <trkpt lat="47.26223" lon="6.06932">
        <ele>254.4</ele>
        <time>2024-07-31T11:40:01Z</time>
      </trkpt>
      <trkpt lat="47.26217" lon="6.06936">
        <ele>254.4</ele>
        <time>2024-07-31T11:40:02Z</time>
      </trkpt>
      <trkpt lat="47.26211" lon="6.0694">
        <ele>254.4</ele>
        <time>2024-07-31T11:40:03Z</time>
      </trkpt>
      <trkpt lat="47.26205" lon="6.06943">
        <ele>254.6</ele>
        <time>2024-07-31T11:40:04Z</time>
      </trkpt>
      <trkpt lat="47.26199" lon="6.06946">
        <ele>254.6</ele>
        <time>2024-07-31T11:40:05Z</time>
      </trkpt>
      <trkpt lat="47.26193" lon="6.06949">
        <ele>254.6</ele>
        <time>2024-07-31T11:40:06Z</time>
      </trkpt>
      <trkpt lat="47.26187" lon="6.0695">
        <ele>254.4</ele>
        <time>2024-07-31T11:40:07Z</time>
      </trkpt>
      <trkpt lat="47.26181" lon="6.06951">
        <ele>254.4</ele>
        <time>2024-07-31T11:40:08Z</time>
      </trkpt>
      <trkpt lat="47.26174" lon="6.06952">
        <ele>254.2</ele>
        <time>2024-07-31T11:40:09Z</time>
      </trkpt>
      <trkpt lat="47.26168" lon="6.06953">
        <ele>254.2</ele>
        <time>2024-07-31T11:40:10Z</time>
      </trkpt>
      <trkpt lat="47.26162" lon="6.06955">
        <ele>254</ele>
        <time>2024-07-31T11:40:11Z</time>
      </trkpt>
      <trkpt lat="47.26156" lon="6.06958">
        <ele>254</ele>
        <time>2024-07-31T11:40:12Z</time>
      </trkpt>
      <trkpt lat="47.2615" lon="6.0696">
        <ele>254</ele>
        <time>2024-07-31T11:40:13Z</time>
      </trkpt>
      <trkpt lat="47.26143" lon="6.06963">
        <ele>253.8</ele>
        <time>2024-07-31T11:40:14Z</time>
      </trkpt>
      <trkpt lat="47.26137" lon="6.06965">
        <ele>253.8</ele>
        <time>2024-07-31T11:40:15Z</time>
      </trkpt>
      <trkpt lat="47.26131" lon="6.06968">
        <ele>253.6</ele>
        <time>2024-07-31T11:40:16Z</time>
      </trkpt>
      <trkpt lat="47.26124" lon="6.0697">
        <ele>253.8</ele>
        <time>2024-07-31T11:40:17Z</time>
      </trkpt>
      <trkpt lat="47.26118" lon="6.06973">
        <ele>253.8</ele>
        <time>2024-07-31T11:40:18Z</time>
      </trkpt>
      <trkpt lat="47.26112" lon="6.06975">
        <ele>253.6</ele>
        <time>2024-07-31T11:40:19Z</time>
      </trkpt>
      <trkpt lat="47.26106" lon="6.06977">
        <ele>253.6</ele>
        <time>2024-07-31T11:40:20Z</time>
      </trkpt>
      <trkpt lat="47.261" lon="6.06979">
        <ele>253.6</ele>
        <time>2024-07-31T11:40:21Z</time>
      </trkpt>
      <trkpt lat="47.26094" lon="6.06981">
        <ele>253.4</ele>
        <time>2024-07-31T11:40:22Z</time>
      </trkpt>
      <trkpt lat="47.26088" lon="6.06984">
        <ele>253.4</ele>
        <time>2024-07-31T11:40:23Z</time>
      </trkpt>
      <trkpt lat="47.26082" lon="6.06986">
        <ele>253.4</ele>
        <time>2024-07-31T11:40:24Z</time>
      </trkpt>
      <trkpt lat="47.26076" lon="6.06989">
        <ele>253.6</ele>
        <time>2024-07-31T11:40:25Z</time>
      </trkpt>
      <trkpt lat="47.2607" lon="6.06993">
        <ele>253.4</ele>
        <time>2024-07-31T11:40:26Z</time>
      </trkpt>
      <trkpt lat="47.26064" lon="6.06996">
        <ele>253.6</ele>
        <time>2024-07-31T11:40:27Z</time>
      </trkpt>
      <trkpt lat="47.26059" lon="6.07">
        <ele>253.6</ele>
        <time>2024-07-31T11:40:28Z</time>
      </trkpt>
      <trkpt lat="47.26053" lon="6.07004">
        <ele>253.8</ele>
        <time>2024-07-31T11:40:29Z</time>
      </trkpt>
      <trkpt lat="47.26048" lon="6.07009">
        <ele>254.2</ele>
        <time>2024-07-31T11:40:30Z</time>
      </trkpt>
      <trkpt lat="47.26043" lon="6.07013">
        <ele>254.2</ele>
        <time>2024-07-31T11:40:31Z</time>
      </trkpt>
      <trkpt lat="47.26038" lon="6.07017">
        <ele>254.2</ele>
        <time>2024-07-31T11:40:32Z</time>
      </trkpt>
      <trkpt lat="47.26034" lon="6.0702">
        <ele>254.2</ele>
        <time>2024-07-31T11:40:33Z</time>
      </trkpt>
      <trkpt lat="47.26029" lon="6.07024">
        <ele>254.4</ele>
        <time>2024-07-31T11:40:34Z</time>
      </trkpt>
      <trkpt lat="47.26025" lon="6.07028">
        <ele>254.4</ele>
        <time>2024-07-31T11:40:35Z</time>
      </trkpt>
      <trkpt lat="47.26022" lon="6.07033">
        <ele>254.4</ele>
        <time>2024-07-31T11:40:36Z</time>
      </trkpt>
      <trkpt lat="47.2602" lon="6.07039">
        <ele>254.6</ele>
        <time>2024-07-31T11:40:37Z</time>
      </trkpt>
      <trkpt lat="47.26019" lon="6.07045">
        <ele>254.6</ele>
        <time>2024-07-31T11:40:38Z</time>
      </trkpt>
      <trkpt lat="47.26018" lon="6.07052">
        <ele>254.8</ele>
        <time>2024-07-31T11:40:39Z</time>
      </trkpt>
      <trkpt lat="47.26017" lon="6.07059">
        <ele>254.8</ele>
        <time>2024-07-31T11:40:40Z</time>
      </trkpt>
      <trkpt lat="47.26016" lon="6.07065">
        <ele>255</ele>
        <time>2024-07-31T11:40:41Z</time>
      </trkpt>
      <trkpt lat="47.26015" lon="6.07072">
        <ele>254.8</ele>
        <time>2024-07-31T11:40:42Z</time>
      </trkpt>
      <trkpt lat="47.26014" lon="6.07079">
        <ele>254.8</ele>
        <time>2024-07-31T11:40:43Z</time>
      </trkpt>
      <trkpt lat="47.26013" lon="6.07086">
        <ele>255</ele>
        <time>2024-07-31T11:40:44Z</time>
      </trkpt>
      <trkpt lat="47.26012" lon="6.07093">
        <ele>255.2</ele>
        <time>2024-07-31T11:40:45Z</time>
      </trkpt>
      <trkpt lat="47.26011" lon="6.07099">
        <ele>255</ele>
        <time>2024-07-31T11:40:46Z</time>
      </trkpt>
      <trkpt lat="47.2601" lon="6.07105">
        <ele>255.2</ele>
        <time>2024-07-31T11:40:47Z</time>
      </trkpt>
      <trkpt lat="47.26009" lon="6.07112">
        <ele>255.2</ele>
        <time>2024-07-31T11:40:48Z</time>
      </trkpt>
      <trkpt lat="47.26008" lon="6.07118">
        <ele>255.6</ele>
        <time>2024-07-31T11:40:49Z</time>
      </trkpt>
      <trkpt lat="47.26007" lon="6.07125">
        <ele>255.6</ele>
        <time>2024-07-31T11:40:50Z</time>
      </trkpt>
      <trkpt lat="47.26006" lon="6.07131">
        <ele>255.6</ele>
        <time>2024-07-31T11:40:51Z</time>
      </trkpt>
      <trkpt lat="47.26005" lon="6.07138">
        <ele>255.8</ele>
        <time>2024-07-31T11:40:52Z</time>
      </trkpt>
      <trkpt lat="47.26004" lon="6.07144">
        <ele>255.8</ele>
        <time>2024-07-31T11:40:53Z</time>
      </trkpt>
      <trkpt lat="47.26002" lon="6.0715">
        <ele>256.2</ele>
        <time>2024-07-31T11:40:54Z</time>
      </trkpt>
      <trkpt lat="47.26001" lon="6.07156">
        <ele>256.2</ele>
        <time>2024-07-31T11:40:55Z</time>
      </trkpt>
      <trkpt lat="47.26001" lon="6.07163">
        <ele>256.6</ele>
        <time>2024-07-31T11:40:56Z</time>
      </trkpt>
      <trkpt lat="47.26" lon="6.07169">
        <ele>256.6</ele>
        <time>2024-07-31T11:40:57Z</time>
      </trkpt>
      <trkpt lat="47.25999" lon="6.07175">
        <ele>256.6</ele>
        <time>2024-07-31T11:40:58Z</time>
      </trkpt>
      <trkpt lat="47.25998" lon="6.07181">
        <ele>256.4</ele>
        <time>2024-07-31T11:40:59Z</time>
      </trkpt>
      <trkpt lat="47.25997" lon="6.07187">
        <ele>256.6</ele>
        <time>2024-07-31T11:41:00Z</time>
      </trkpt>
      <trkpt lat="47.25996" lon="6.07193">
        <ele>256.8</ele>
        <time>2024-07-31T11:41:01Z</time>
      </trkpt>
      <trkpt lat="47.25996" lon="6.072">
        <ele>257</ele>
        <time>2024-07-31T11:41:02Z</time>
      </trkpt>
      <trkpt lat="47.25995" lon="6.07206">
        <ele>256.8</ele>
        <time>2024-07-31T11:41:03Z</time>
      </trkpt>
      <trkpt lat="47.25994" lon="6.07212">
        <ele>257</ele>
        <time>2024-07-31T11:41:04Z</time>
      </trkpt>
      <trkpt lat="47.25993" lon="6.07219">
        <ele>257.2</ele>
        <time>2024-07-31T11:41:05Z</time>
      </trkpt>
      <trkpt lat="47.25992" lon="6.07225">
        <ele>257.2</ele>
        <time>2024-07-31T11:41:06Z</time>
      </trkpt>
      <trkpt lat="47.25991" lon="6.07232">
        <ele>257.2</ele>
        <time>2024-07-31T11:41:07Z</time>
      </trkpt>
      <trkpt lat="47.2599" lon="6.07238">
        <ele>257.4</ele>
        <time>2024-07-31T11:41:08Z</time>
      </trkpt>
      <trkpt lat="47.25989" lon="6.07244">
        <ele>257.4</ele>
        <time>2024-07-31T11:41:09Z</time>
      </trkpt>
      <trkpt lat="47.25988" lon="6.07251">
        <ele>257.6</ele>
        <time>2024-07-31T11:41:10Z</time>
      </trkpt>
      <trkpt lat="47.25987" lon="6.07257">
        <ele>257.6</ele>
        <time>2024-07-31T11:41:11Z</time>
      </trkpt>
      <trkpt lat="47.25986" lon="6.07264">
        <ele>257.8</ele>
        <time>2024-07-31T11:41:12Z</time>
      </trkpt>
      <trkpt lat="47.25985" lon="6.0727">
        <ele>257.6</ele>
        <time>2024-07-31T11:41:13Z</time>
      </trkpt>
      <trkpt lat="47.25984" lon="6.07277">
        <ele>257.6</ele>
        <time>2024-07-31T11:41:14Z</time>
      </trkpt>
      <trkpt lat="47.25982" lon="6.07284">
        <ele>257.8</ele>
        <time>2024-07-31T11:41:15Z</time>
      </trkpt>
      <trkpt lat="47.2598" lon="6.0729">
        <ele>257.8</ele>
        <time>2024-07-31T11:41:16Z</time>
      </trkpt>
      <trkpt lat="47.25979" lon="6.07297">
        <ele>257.8</ele>
        <time>2024-07-31T11:41:17Z</time>
      </trkpt>
      <trkpt lat="47.25977" lon="6.07304">
        <ele>257.8</ele>
        <time>2024-07-31T11:41:18Z</time>
      </trkpt>
      <trkpt lat="47.25976" lon="6.07311">
        <ele>257.8</ele>
        <time>2024-07-31T11:41:19Z</time>
      </trkpt>
      <trkpt lat="47.25974" lon="6.07319">
        <ele>257.8</ele>
        <time>2024-07-31T11:41:20Z</time>
      </trkpt>
      <trkpt lat="47.25973" lon="6.07326">
        <ele>258</ele>
        <time>2024-07-31T11:41:21Z</time>
      </trkpt>
      <trkpt lat="47.25971" lon="6.07333">
        <ele>258</ele>
        <time>2024-07-31T11:41:22Z</time>
      </trkpt>
      <trkpt lat="47.2597" lon="6.07341">
        <ele>257.8</ele>
        <time>2024-07-31T11:41:23Z</time>
      </trkpt>
      <trkpt lat="47.25968" lon="6.07348">
        <ele>257.8</ele>
        <time>2024-07-31T11:41:24Z</time>
      </trkpt>
      <trkpt lat="47.25967" lon="6.07356">
        <ele>257.8</ele>
        <time>2024-07-31T11:41:25Z</time>
      </trkpt>
      <trkpt lat="47.25965" lon="6.07363">
        <ele>258</ele>
        <time>2024-07-31T11:41:26Z</time>
      </trkpt>
      <trkpt lat="47.25963" lon="6.07371">
        <ele>258.2</ele>
        <time>2024-07-31T11:41:27Z</time>
      </trkpt>
      <trkpt lat="47.25961" lon="6.07379">
        <ele>258</ele>
        <time>2024-07-31T11:41:28Z</time>
      </trkpt>
      <trkpt lat="47.25959" lon="6.07386">
        <ele>257.8</ele>
        <time>2024-07-31T11:41:29Z</time>
      </trkpt>
      <trkpt lat="47.25957" lon="6.07394">
        <ele>257.6</ele>
        <time>2024-07-31T11:41:30Z</time>
      </trkpt>
      <trkpt lat="47.25955" lon="6.07402">
        <ele>257.6</ele>
        <time>2024-07-31T11:41:31Z</time>
      </trkpt>
      <trkpt lat="47.25953" lon="6.0741">
        <ele>257.6</ele>
        <time>2024-07-31T11:41:32Z</time>
      </trkpt>
      <trkpt lat="47.2595" lon="6.07418">
        <ele>257.6</ele>
        <time>2024-07-31T11:41:33Z</time>
      </trkpt>
      <trkpt lat="47.25948" lon="6.07426">
        <ele>257.4</ele>
        <time>2024-07-31T11:41:34Z</time>
      </trkpt>
      <trkpt lat="47.25946" lon="6.07434">
        <ele>257.4</ele>
        <time>2024-07-31T11:41:35Z</time>
      </trkpt>
      <trkpt lat="47.25944" lon="6.07443">
        <ele>257.4</ele>
        <time>2024-07-31T11:41:36Z</time>
      </trkpt>
      <trkpt lat="47.25941" lon="6.07451">
        <ele>257.2</ele>
        <time>2024-07-31T11:41:37Z</time>
      </trkpt>
      <trkpt lat="47.25938" lon="6.07459">
        <ele>257.2</ele>
        <time>2024-07-31T11:41:38Z</time>
      </trkpt>
      <trkpt lat="47.25935" lon="6.07467">
        <ele>257.4</ele>
        <time>2024-07-31T11:41:39Z</time>
      </trkpt>
      <trkpt lat="47.25933" lon="6.07475">
        <ele>257.4</ele>
        <time>2024-07-31T11:41:40Z</time>
      </trkpt>
      <trkpt lat="47.25931" lon="6.07483">
        <ele>257.4</ele>
        <time>2024-07-31T11:41:41Z</time>
      </trkpt>
      <trkpt lat="47.25928" lon="6.07491">
        <ele>257.2</ele>
        <time>2024-07-31T11:41:42Z</time>
      </trkpt>
      <trkpt lat="47.25926" lon="6.07499">
        <ele>257.4</ele>
        <time>2024-07-31T11:41:43Z</time>
      </trkpt>
      <trkpt lat="47.25923" lon="6.07507">
        <ele>257.4</ele>
        <time>2024-07-31T11:41:44Z</time>
      </trkpt>
      <trkpt lat="47.25921" lon="6.07515">
        <ele>257.2</ele>
        <time>2024-07-31T11:41:45Z</time>
      </trkpt>
      <trkpt lat="47.25918" lon="6.07522">
        <ele>257.4</ele>
        <time>2024-07-31T11:41:46Z</time>
      </trkpt>
      <trkpt lat="47.25914" lon="6.07529">
        <ele>258</ele>
        <time>2024-07-31T11:41:47Z</time>
      </trkpt>
      <trkpt lat="47.25911" lon="6.07535">
        <ele>258</ele>
        <time>2024-07-31T11:41:48Z</time>
      </trkpt>
      <trkpt lat="47.25907" lon="6.07542">
        <ele>257.8</ele>
        <time>2024-07-31T11:41:49Z</time>
      </trkpt>
      <trkpt lat="47.25904" lon="6.07548">
        <ele>257.4</ele>
        <time>2024-07-31T11:41:50Z</time>
      </trkpt>
      <trkpt lat="47.25899" lon="6.07553">
        <ele>257.4</ele>
        <time>2024-07-31T11:41:51Z</time>
      </trkpt>
      <trkpt lat="47.25895" lon="6.07556">
        <ele>257.4</ele>
        <time>2024-07-31T11:41:52Z</time>
      </trkpt>
      <trkpt lat="47.2589" lon="6.07559">
        <ele>257.4</ele>
        <time>2024-07-31T11:41:53Z</time>
      </trkpt>
      <trkpt lat="47.25885" lon="6.07563">
        <ele>257.6</ele>
        <time>2024-07-31T11:41:54Z</time>
      </trkpt>
      <trkpt lat="47.25881" lon="6.07566">
        <ele>257.8</ele>
        <time>2024-07-31T11:41:55Z</time>
      </trkpt>
      <trkpt lat="47.25876" lon="6.0757">
        <ele>257.8</ele>
        <time>2024-07-31T11:41:56Z</time>
      </trkpt>
      <trkpt lat="47.25872" lon="6.07575">
        <ele>257.6</ele>
        <time>2024-07-31T11:41:57Z</time>
      </trkpt>
      <trkpt lat="47.25868" lon="6.0758">
        <ele>257.6</ele>
        <time>2024-07-31T11:41:58Z</time>
      </trkpt>
      <trkpt lat="47.25864" lon="6.07585">
        <ele>257.6</ele>
        <time>2024-07-31T11:41:59Z</time>
      </trkpt>
      <trkpt lat="47.25861" lon="6.07591">
        <ele>257.6</ele>
        <time>2024-07-31T11:42:00Z</time>
      </trkpt>
      <trkpt lat="47.25857" lon="6.07597">
        <ele>257.6</ele>
        <time>2024-07-31T11:42:01Z</time>
      </trkpt>
      <trkpt lat="47.25853" lon="6.07603">
        <ele>257.6</ele>
        <time>2024-07-31T11:42:02Z</time>
      </trkpt>
      <trkpt lat="47.25849" lon="6.0761">
        <ele>257.6</ele>
        <time>2024-07-31T11:42:03Z</time>
      </trkpt>
      <trkpt lat="47.25846" lon="6.07617">
        <ele>257.4</ele>
        <time>2024-07-31T11:42:04Z</time>
      </trkpt>
      <trkpt lat="47.25842" lon="6.07625">
        <ele>257</ele>
        <time>2024-07-31T11:42:05Z</time>
      </trkpt>
      <trkpt lat="47.25839" lon="6.07632">
        <ele>257</ele>
        <time>2024-07-31T11:42:06Z</time>
      </trkpt>
      <trkpt lat="47.25835" lon="6.07639">
        <ele>257.2</ele>
        <time>2024-07-31T11:42:07Z</time>
      </trkpt>
      <trkpt lat="47.25832" lon="6.07645">
        <ele>257.4</ele>
        <time>2024-07-31T11:42:08Z</time>
      </trkpt>
      <trkpt lat="47.25828" lon="6.07652">
        <ele>257.4</ele>
        <time>2024-07-31T11:42:09Z</time>
      </trkpt>
      <trkpt lat="47.25825" lon="6.07658">
        <ele>257.2</ele>
        <time>2024-07-31T11:42:10Z</time>
      </trkpt>
      <trkpt lat="47.2582" lon="6.07662">
        <ele>257.4</ele>
        <time>2024-07-31T11:42:11Z</time>
      </trkpt>
      <trkpt lat="47.25816" lon="6.07666">
        <ele>257.4</ele>
        <time>2024-07-31T11:42:12Z</time>
      </trkpt>
      <trkpt lat="47.25811" lon="6.07668">
        <ele>257.2</ele>
        <time>2024-07-31T11:42:13Z</time>
      </trkpt>
      <trkpt lat="47.25806" lon="6.07669">
        <ele>257.2</ele>
        <time>2024-07-31T11:42:14Z</time>
      </trkpt>
      <trkpt lat="47.25802" lon="6.07671">
        <ele>257.4</ele>
        <time>2024-07-31T11:42:15Z</time>
      </trkpt>
      <trkpt lat="47.25797" lon="6.07672">
        <ele>257.6</ele>
        <time>2024-07-31T11:42:16Z</time>
      </trkpt>
      <trkpt lat="47.25792" lon="6.07672">
        <ele>257.8</ele>
        <time>2024-07-31T11:42:17Z</time>
      </trkpt>
      <trkpt lat="47.25788" lon="6.07672">
        <ele>257.6</ele>
        <time>2024-07-31T11:42:18Z</time>
      </trkpt>
      <trkpt lat="47.25784" lon="6.07671">
        <ele>257.8</ele>
        <time>2024-07-31T11:42:19Z</time>
      </trkpt>
      <trkpt lat="47.25779" lon="6.07669">
        <ele>258</ele>
        <time>2024-07-31T11:42:20Z</time>
      </trkpt>
      <trkpt lat="47.25775" lon="6.07666">
        <ele>258.2</ele>
        <time>2024-07-31T11:42:21Z</time>
      </trkpt>
      <trkpt lat="47.2577" lon="6.07663">
        <ele>258.2</ele>
        <time>2024-07-31T11:42:22Z</time>
      </trkpt>
      <trkpt lat="47.25766" lon="6.0766">
        <ele>258.4</ele>
        <time>2024-07-31T11:42:23Z</time>
      </trkpt>
      <trkpt lat="47.25762" lon="6.07657">
        <ele>258.4</ele>
        <time>2024-07-31T11:42:24Z</time>
      </trkpt>
      <trkpt lat="47.25759" lon="6.07654">
        <ele>258.8</ele>
        <time>2024-07-31T11:42:25Z</time>
      </trkpt>
      <trkpt lat="47.25755" lon="6.07651">
        <ele>258.8</ele>
        <time>2024-07-31T11:42:26Z</time>
      </trkpt>
      <trkpt lat="47.25752" lon="6.07648">
        <ele>258.8</ele>
        <time>2024-07-31T11:42:27Z</time>
      </trkpt>
      <trkpt lat="47.25748" lon="6.07646">
        <ele>259</ele>
        <time>2024-07-31T11:42:28Z</time>
      </trkpt>
      <trkpt lat="47.25745" lon="6.07643">
        <ele>259</ele>
        <time>2024-07-31T11:42:29Z</time>
      </trkpt>
      <trkpt lat="47.25742" lon="6.0764">
        <ele>259.2</ele>
        <time>2024-07-31T11:42:30Z</time>
      </trkpt>
      <trkpt lat="47.25738" lon="6.07638">
        <ele>259.4</ele>
        <time>2024-07-31T11:42:31Z</time>
      </trkpt>
      <trkpt lat="47.25735" lon="6.07635">
        <ele>259.6</ele>
        <time>2024-07-31T11:42:32Z</time>
      </trkpt>
      <trkpt lat="47.25732" lon="6.07633">
        <ele>259.8</ele>
        <time>2024-07-31T11:42:33Z</time>
      </trkpt>
      <trkpt lat="47.25729" lon="6.07631">
        <ele>259.8</ele>
        <time>2024-07-31T11:42:34Z</time>
      </trkpt>
      <trkpt lat="47.25727" lon="6.07628">
        <ele>260</ele>
        <time>2024-07-31T11:42:35Z</time>
      </trkpt>
      <trkpt lat="47.25724" lon="6.07626">
        <ele>260.2</ele>
        <time>2024-07-31T11:42:36Z</time>
      </trkpt>
      <trkpt lat="47.25721" lon="6.07624">
        <ele>260.4</ele>
        <time>2024-07-31T11:42:37Z</time>
      </trkpt>
      <trkpt lat="47.25718" lon="6.07622">
        <ele>260.8</ele>
        <time>2024-07-31T11:42:38Z</time>
      </trkpt>
      <trkpt lat="47.25715" lon="6.0762">
        <ele>260.8</ele>
        <time>2024-07-31T11:42:39Z</time>
      </trkpt>
      <trkpt lat="47.25712" lon="6.07618">
        <ele>261</ele>
        <time>2024-07-31T11:42:40Z</time>
      </trkpt>
      <trkpt lat="47.25709" lon="6.07616">
        <ele>261.4</ele>
        <time>2024-07-31T11:42:41Z</time>
      </trkpt>
      <trkpt lat="47.25707" lon="6.07614">
        <ele>261.6</ele>
        <time>2024-07-31T11:42:42Z</time>
      </trkpt>
      <trkpt lat="47.25705" lon="6.07611">
        <ele>261.6</ele>
        <time>2024-07-31T11:42:43Z</time>
      </trkpt>
      <trkpt lat="47.25702" lon="6.07609">
        <ele>262</ele>
        <time>2024-07-31T11:42:44Z</time>
      </trkpt>
      <trkpt lat="47.257" lon="6.07607">
        <ele>262.2</ele>
        <time>2024-07-31T11:42:45Z</time>
      </trkpt>
      <trkpt lat="47.25697" lon="6.07605">
        <ele>262.4</ele>
        <time>2024-07-31T11:42:46Z</time>
      </trkpt>
      <trkpt lat="47.25695" lon="6.07603">
        <ele>262.6</ele>
        <time>2024-07-31T11:42:47Z</time>
      </trkpt>
      <trkpt lat="47.25692" lon="6.07602">
        <ele>262.6</ele>
        <time>2024-07-31T11:42:48Z</time>
      </trkpt>
      <trkpt lat="47.2569" lon="6.076">
        <ele>262.6</ele>
        <time>2024-07-31T11:42:49Z</time>
      </trkpt>
      <trkpt lat="47.25687" lon="6.07598">
        <ele>262.6</ele>
        <time>2024-07-31T11:42:50Z</time>
      </trkpt>
      <trkpt lat="47.25685" lon="6.07596">
        <ele>262.8</ele>
        <time>2024-07-31T11:42:51Z</time>
      </trkpt>
      <trkpt lat="47.25682" lon="6.07594">
        <ele>263</ele>
        <time>2024-07-31T11:42:52Z</time>
      </trkpt>
      <trkpt lat="47.25679" lon="6.07592">
        <ele>263</ele>
        <time>2024-07-31T11:42:53Z</time>
      </trkpt>
      <trkpt lat="47.25676" lon="6.07591">
        <ele>263.2</ele>
        <time>2024-07-31T11:42:54Z</time>
      </trkpt>
      <trkpt lat="47.25674" lon="6.07589">
        <ele>263.2</ele>
        <time>2024-07-31T11:42:55Z</time>
      </trkpt>
      <trkpt lat="47.25671" lon="6.07588">
        <ele>263.4</ele>
        <time>2024-07-31T11:42:56Z</time>
      </trkpt>
      <trkpt lat="47.25669" lon="6.07586">
        <ele>263.6</ele>
        <time>2024-07-31T11:42:57Z</time>
      </trkpt>
      <trkpt lat="47.25666" lon="6.07584">
        <ele>263.6</ele>
        <time>2024-07-31T11:42:58Z</time>
      </trkpt>
      <trkpt lat="47.25664" lon="6.07582">
        <ele>263.8</ele>
        <time>2024-07-31T11:42:59Z</time>
      </trkpt>
      <trkpt lat="47.25661" lon="6.07579">
        <ele>264</ele>
        <time>2024-07-31T11:43:00Z</time>
      </trkpt>
      <trkpt lat="47.25659" lon="6.07577">
        <ele>264</ele>
        <time>2024-07-31T11:43:01Z</time>
      </trkpt>
      <trkpt lat="47.25657" lon="6.07575">
        <ele>264.2</ele>
        <time>2024-07-31T11:43:02Z</time>
      </trkpt>
      <trkpt lat="47.25655" lon="6.07573">
        <ele>264.6</ele>
        <time>2024-07-31T11:43:03Z</time>
      </trkpt>
      <trkpt lat="47.25653" lon="6.07571">
        <ele>264.6</ele>
        <time>2024-07-31T11:43:04Z</time>
      </trkpt>
      <trkpt lat="47.25651" lon="6.07568">
        <ele>264.8</ele>
        <time>2024-07-31T11:43:05Z</time>
      </trkpt>
      <trkpt lat="47.25649" lon="6.07566">
        <ele>265</ele>
        <time>2024-07-31T11:43:06Z</time>
      </trkpt>
      <trkpt lat="47.25648" lon="6.07563">
        <ele>265.4</ele>
        <time>2024-07-31T11:43:07Z</time>
      </trkpt>
      <trkpt lat="47.25646" lon="6.0756">
        <ele>265.4</ele>
        <time>2024-07-31T11:43:08Z</time>
      </trkpt>
      <trkpt lat="47.25644" lon="6.07558">
        <ele>265.4</ele>
        <time>2024-07-31T11:43:09Z</time>
      </trkpt>
      <trkpt lat="47.25643" lon="6.07555">
        <ele>265.4</ele>
        <time>2024-07-31T11:43:10Z</time>
      </trkpt>
      <trkpt lat="47.25641" lon="6.07553">
        <ele>265.6</ele>
        <time>2024-07-31T11:43:11Z</time>
      </trkpt>
      <trkpt lat="47.25639" lon="6.07551">
        <ele>265.8</ele>
        <time>2024-07-31T11:43:12Z</time>
      </trkpt>
      <trkpt lat="47.25637" lon="6.07548">
        <ele>266</ele>
        <time>2024-07-31T11:43:13Z</time>
      </trkpt>
      <trkpt lat="47.25636" lon="6.07545">
        <ele>266</ele>
        <time>2024-07-31T11:43:14Z</time>
      </trkpt>
      <trkpt lat="47.25634" lon="6.07542">
        <ele>266.2</ele>
        <time>2024-07-31T11:43:15Z</time>
      </trkpt>
      <trkpt lat="47.25632" lon="6.07539">
        <ele>266.2</ele>
        <time>2024-07-31T11:43:16Z</time>
      </trkpt>
      <trkpt lat="47.25631" lon="6.07536">
        <ele>266.4</ele>
        <time>2024-07-31T11:43:17Z</time>
      </trkpt>
      <trkpt lat="47.25629" lon="6.07533">
        <ele>266.4</ele>
        <time>2024-07-31T11:43:18Z</time>
      </trkpt>
      <trkpt lat="47.25628" lon="6.0753">
        <ele>266.6</ele>
        <time>2024-07-31T11:43:19Z</time>
      </trkpt>
      <trkpt lat="47.25627" lon="6.07527">
        <ele>266.8</ele>
        <time>2024-07-31T11:43:20Z</time>
      </trkpt>
      <trkpt lat="47.25626" lon="6.07524">
        <ele>267</ele>
        <time>2024-07-31T11:43:21Z</time>
      </trkpt>
      <trkpt lat="47.25624" lon="6.07521">
        <ele>267.2</ele>
        <time>2024-07-31T11:43:22Z</time>
      </trkpt>
      <trkpt lat="47.25622" lon="6.07518">
        <ele>267.4</ele>
        <time>2024-07-31T11:43:23Z</time>
      </trkpt>
      <trkpt lat="47.25621" lon="6.07516">
        <ele>267.6</ele>
        <time>2024-07-31T11:43:24Z</time>
      </trkpt>
      <trkpt lat="47.25619" lon="6.07513">
        <ele>267.8</ele>
        <time>2024-07-31T11:43:25Z</time>
      </trkpt>
      <trkpt lat="47.25618" lon="6.0751">
        <ele>267.8</ele>
        <time>2024-07-31T11:43:26Z</time>
      </trkpt>
      <trkpt lat="47.25617" lon="6.07507">
        <ele>268</ele>
        <time>2024-07-31T11:43:27Z</time>
      </trkpt>
      <trkpt lat="47.25615" lon="6.07504">
        <ele>268.2</ele>
        <time>2024-07-31T11:43:28Z</time>
      </trkpt>
      <trkpt lat="47.25614" lon="6.07501">
        <ele>268.4</ele>
        <time>2024-07-31T11:43:29Z</time>
      </trkpt>
      <trkpt lat="47.25613" lon="6.07498">
        <ele>268.6</ele>
        <time>2024-07-31T11:43:30Z</time>
      </trkpt>
      <trkpt lat="47.25611" lon="6.07495">
        <ele>268.8</ele>
        <time>2024-07-31T11:43:31Z</time>
      </trkpt>
      <trkpt lat="47.2561" lon="6.07492">
        <ele>268.8</ele>
        <time>2024-07-31T11:43:32Z</time>
      </trkpt>
      <trkpt lat="47.25609" lon="6.07489">
        <ele>269</ele>
        <time>2024-07-31T11:43:33Z</time>
      </trkpt>
      <trkpt lat="47.25608" lon="6.07487">
        <ele>269.2</ele>
        <time>2024-07-31T11:43:34Z</time>
      </trkpt>
      <trkpt lat="47.25606" lon="6.07484">
        <ele>269.6</ele>
        <time>2024-07-31T11:43:35Z</time>
      </trkpt>
      <trkpt lat="47.25605" lon="6.07481">
        <ele>269.8</ele>
        <time>2024-07-31T11:43:36Z</time>
      </trkpt>
      <trkpt lat="47.25604" lon="6.07478">
        <ele>270</ele>
        <time>2024-07-31T11:43:37Z</time>
      </trkpt>
      <trkpt lat="47.25602" lon="6.07476">
        <ele>270.2</ele>
        <time>2024-07-31T11:43:38Z</time>
      </trkpt>
      <trkpt lat="47.25601" lon="6.07473">
        <ele>270.4</ele>
        <time>2024-07-31T11:43:39Z</time>
      </trkpt>
      <trkpt lat="47.256" lon="6.0747">
        <ele>270.6</ele>
        <time>2024-07-31T11:43:40Z</time>
      </trkpt>
      <trkpt lat="47.25598" lon="6.07468">
        <ele>271</ele>
        <time>2024-07-31T11:43:41Z</time>
      </trkpt>
      <trkpt lat="47.25597" lon="6.07465">
        <ele>271.4</ele>
        <time>2024-07-31T11:43:42Z</time>
      </trkpt>
      <trkpt lat="47.25596" lon="6.07462">
        <ele>271.4</ele>
        <time>2024-07-31T11:43:43Z</time>
      </trkpt>
      <trkpt lat="47.25595" lon="6.0746">
        <ele>272</ele>
        <time>2024-07-31T11:43:44Z</time>
      </trkpt>
      <trkpt lat="47.25594" lon="6.07458">
        <ele>272</ele>
        <time>2024-07-31T11:43:45Z</time>
      </trkpt>
      <trkpt lat="47.25593" lon="6.07456">
        <ele>272.2</ele>
        <time>2024-07-31T11:43:46Z</time>
      </trkpt>
      <trkpt lat="47.25592" lon="6.07454">
        <ele>272.2</ele>
        <time>2024-07-31T11:43:47Z</time>
      </trkpt>
      <trkpt lat="47.25591" lon="6.07451">
        <ele>272.6</ele>
        <time>2024-07-31T11:43:48Z</time>
      </trkpt>
      <trkpt lat="47.2559" lon="6.07449">
        <ele>272.8</ele>
        <time>2024-07-31T11:43:49Z</time>
      </trkpt>
      <trkpt lat="47.2559" lon="6.07447">
        <ele>272.8</ele>
        <time>2024-07-31T11:43:50Z</time>
      </trkpt>
      <trkpt lat="47.25589" lon="6.07444">
        <ele>273</ele>
        <time>2024-07-31T11:43:51Z</time>
      </trkpt>
      <trkpt lat="47.25587" lon="6.07442">
        <ele>273.2</ele>
        <time>2024-07-31T11:43:52Z</time>
      </trkpt>
      <trkpt lat="47.25587" lon="6.07439">
        <ele>273.4</ele>
        <time>2024-07-31T11:43:53Z</time>
      </trkpt>
      <trkpt lat="47.25586" lon="6.07436">
        <ele>273.4</ele>
        <time>2024-07-31T11:43:54Z</time>
      </trkpt>
      <trkpt lat="47.25586" lon="6.07433">
        <ele>273.4</ele>
        <time>2024-07-31T11:43:55Z</time>
      </trkpt>
      <trkpt lat="47.25585" lon="6.0743">
        <ele>273.6</ele>
        <time>2024-07-31T11:43:56Z</time>
      </trkpt>
      <trkpt lat="47.25584" lon="6.07428">
        <ele>273.8</ele>
        <time>2024-07-31T11:43:57Z</time>
      </trkpt>
      <trkpt lat="47.25584" lon="6.07425">
        <ele>273.8</ele>
        <time>2024-07-31T11:43:58Z</time>
      </trkpt>
      <trkpt lat="47.25583" lon="6.07422">
        <ele>273.8</ele>
        <time>2024-07-31T11:43:59Z</time>
      </trkpt>
      <trkpt lat="47.25582" lon="6.07418">
        <ele>274</ele>
        <time>2024-07-31T11:44:00Z</time>
      </trkpt>
      <trkpt lat="47.25581" lon="6.07415">
        <ele>274.2</ele>
        <time>2024-07-31T11:44:01Z</time>
      </trkpt>
      <trkpt lat="47.25581" lon="6.07412">
        <ele>274.2</ele>
        <time>2024-07-31T11:44:02Z</time>
      </trkpt>
      <trkpt lat="47.2558" lon="6.07409">
        <ele>274.6</ele>
        <time>2024-07-31T11:44:03Z</time>
      </trkpt>
      <trkpt lat="47.25579" lon="6.07405">
        <ele>274.6</ele>
        <time>2024-07-31T11:44:04Z</time>
      </trkpt>
      <trkpt lat="47.25579" lon="6.07402">
        <ele>274.4</ele>
        <time>2024-07-31T11:44:05Z</time>
      </trkpt>
      <trkpt lat="47.25578" lon="6.07399">
        <ele>274.8</ele>
        <time>2024-07-31T11:44:06Z</time>
      </trkpt>
      <trkpt lat="47.25578" lon="6.07395">
        <ele>274.8</ele>
        <time>2024-07-31T11:44:07Z</time>
      </trkpt>
      <trkpt lat="47.25577" lon="6.07392">
        <ele>275</ele>
        <time>2024-07-31T11:44:08Z</time>
      </trkpt>
      <trkpt lat="47.25577" lon="6.07389">
        <ele>275</ele>
        <time>2024-07-31T11:44:09Z</time>
      </trkpt>
      <trkpt lat="47.25577" lon="6.07386">
        <ele>275.2</ele>
        <time>2024-07-31T11:44:10Z</time>
      </trkpt>
      <trkpt lat="47.25576" lon="6.07382">
        <ele>275.4</ele>
        <time>2024-07-31T11:44:11Z</time>
      </trkpt>
      <trkpt lat="47.25576" lon="6.07379">
        <ele>275.6</ele>
        <time>2024-07-31T11:44:12Z</time>
      </trkpt>
      <trkpt lat="47.25576" lon="6.07376">
        <ele>275.8</ele>
        <time>2024-07-31T11:44:13Z</time>
      </trkpt>
      <trkpt lat="47.25575" lon="6.07373">
        <ele>276.2</ele>
        <time>2024-07-31T11:44:14Z</time>
      </trkpt>
      <trkpt lat="47.25575" lon="6.0737">
        <ele>276.6</ele>
        <time>2024-07-31T11:44:15Z</time>
      </trkpt>
      <trkpt lat="47.25575" lon="6.07366">
        <ele>276.6</ele>
        <time>2024-07-31T11:44:16Z</time>
      </trkpt>
      <trkpt lat="47.25574" lon="6.07362">
        <ele>277</ele>
        <time>2024-07-31T11:44:17Z</time>
      </trkpt>
      <trkpt lat="47.25574" lon="6.07359">
        <ele>277.2</ele>
        <time>2024-07-31T11:44:18Z</time>
      </trkpt>
      <trkpt lat="47.25574" lon="6.07356">
        <ele>277.2</ele>
        <time>2024-07-31T11:44:19Z</time>
      </trkpt>
      <trkpt lat="47.25574" lon="6.07352">
        <ele>277.4</ele>
        <time>2024-07-31T11:44:20Z</time>
      </trkpt>
      <trkpt lat="47.25574" lon="6.07349">
        <ele>277.4</ele>
        <time>2024-07-31T11:44:21Z</time>
      </trkpt>
      <trkpt lat="47.25573" lon="6.07345">
        <ele>277.6</ele>
        <time>2024-07-31T11:44:22Z</time>
      </trkpt>
      <trkpt lat="47.25572" lon="6.07342">
        <ele>277.8</ele>
        <time>2024-07-31T11:44:23Z</time>
      </trkpt>
      <trkpt lat="47.25571" lon="6.07339">
        <ele>277.8</ele>
        <time>2024-07-31T11:44:24Z</time>
      </trkpt>
      <trkpt lat="47.25571" lon="6.07336">
        <ele>278</ele>
        <time>2024-07-31T11:44:25Z</time>
      </trkpt>
      <trkpt lat="47.2557" lon="6.07333">
        <ele>278.2</ele>
        <time>2024-07-31T11:44:26Z</time>
      </trkpt>
      <trkpt lat="47.25569" lon="6.0733">
        <ele>278.2</ele>
        <time>2024-07-31T11:44:27Z</time>
      </trkpt>
      <trkpt lat="47.25567" lon="6.07327">
        <ele>278.2</ele>
        <time>2024-07-31T11:44:28Z</time>
      </trkpt>
      <trkpt lat="47.25565" lon="6.07324">
        <ele>278.2</ele>
        <time>2024-07-31T11:44:29Z</time>
      </trkpt>
      <trkpt lat="47.25563" lon="6.07321">
        <ele>278.4</ele>
        <time>2024-07-31T11:44:30Z</time>
      </trkpt>
      <trkpt lat="47.25561" lon="6.07317">
        <ele>278.6</ele>
        <time>2024-07-31T11:44:31Z</time>
      </trkpt>
      <trkpt lat="47.25559" lon="6.07314">
        <ele>278.6</ele>
        <time>2024-07-31T11:44:32Z</time>
      </trkpt>
      <trkpt lat="47.25557" lon="6.07311">
        <ele>278.6</ele>
        <time>2024-07-31T11:44:33Z</time>
      </trkpt>
      <trkpt lat="47.25555" lon="6.07308">
        <ele>278.8</ele>
        <time>2024-07-31T11:44:34Z</time>
      </trkpt>
      <trkpt lat="47.25552" lon="6.07305">
        <ele>278.8</ele>
        <time>2024-07-31T11:44:35Z</time>
      </trkpt>
      <trkpt lat="47.2555" lon="6.07302">
        <ele>278.8</ele>
        <time>2024-07-31T11:44:36Z</time>
      </trkpt>
      <trkpt lat="47.25547" lon="6.07299">
        <ele>278.8</ele>
        <time>2024-07-31T11:44:37Z</time>
      </trkpt>
      <trkpt lat="47.25544" lon="6.07296">
        <ele>278.8</ele>
        <time>2024-07-31T11:44:38Z</time>
      </trkpt>
      <trkpt lat="47.25542" lon="6.07293">
        <ele>279</ele>
        <time>2024-07-31T11:44:39Z</time>
      </trkpt>
      <trkpt lat="47.25539" lon="6.0729">
        <ele>279</ele>
        <time>2024-07-31T11:44:40Z</time>
      </trkpt>
      <trkpt lat="47.25536" lon="6.07286">
        <ele>279</ele>
        <time>2024-07-31T11:44:41Z</time>
      </trkpt>
      <trkpt lat="47.25533" lon="6.07283">
        <ele>279.2</ele>
        <time>2024-07-31T11:44:42Z</time>
      </trkpt>
      <trkpt lat="47.2553" lon="6.0728">
        <ele>279</ele>
        <time>2024-07-31T11:44:43Z</time>
      </trkpt>
      <trkpt lat="47.25528" lon="6.07276">
        <ele>279</ele>
        <time>2024-07-31T11:44:44Z</time>
      </trkpt>
      <trkpt lat="47.25525" lon="6.07273">
        <ele>279</ele>
        <time>2024-07-31T11:44:45Z</time>
      </trkpt>
      <trkpt lat="47.25522" lon="6.07269">
        <ele>279.2</ele>
        <time>2024-07-31T11:44:46Z</time>
      </trkpt>
      <trkpt lat="47.25518" lon="6.07266">
        <ele>279</ele>
        <time>2024-07-31T11:44:47Z</time>
      </trkpt>
      <trkpt lat="47.25515" lon="6.07262">
        <ele>279.2</ele>
        <time>2024-07-31T11:44:48Z</time>
      </trkpt>
      <trkpt lat="47.25512" lon="6.07258">
        <ele>279.2</ele>
        <time>2024-07-31T11:44:49Z</time>
      </trkpt>
      <trkpt lat="47.25508" lon="6.07255">
        <ele>279.2</ele>
        <time>2024-07-31T11:44:50Z</time>
      </trkpt>
      <trkpt lat="47.25505" lon="6.07251">
        <ele>279.2</ele>
        <time>2024-07-31T11:44:51Z</time>
      </trkpt>
      <trkpt lat="47.25502" lon="6.07247">
        <ele>279.2</ele>
        <time>2024-07-31T11:44:52Z</time>
      </trkpt>
      <trkpt lat="47.25498" lon="6.07243">
        <ele>279.2</ele>
        <time>2024-07-31T11:44:53Z</time>
      </trkpt>
      <trkpt lat="47.25495" lon="6.0724">
        <ele>279.2</ele>
        <time>2024-07-31T11:44:54Z</time>
      </trkpt>
      <trkpt lat="47.25492" lon="6.07236">
        <ele>279.2</ele>
        <time>2024-07-31T11:44:55Z</time>
      </trkpt>
      <trkpt lat="47.25489" lon="6.07233">
        <ele>279.2</ele>
        <time>2024-07-31T11:44:56Z</time>
      </trkpt>
      <trkpt lat="47.25485" lon="6.07229">
        <ele>279.4</ele>
        <time>2024-07-31T11:44:57Z</time>
      </trkpt>
      <trkpt lat="47.25482" lon="6.07226">
        <ele>279.6</ele>
        <time>2024-07-31T11:44:58Z</time>
      </trkpt>
      <trkpt lat="47.25479" lon="6.07222">
        <ele>279.8</ele>
        <time>2024-07-31T11:44:59Z</time>
      </trkpt>
      <trkpt lat="47.25476" lon="6.07218">
        <ele>280</ele>
        <time>2024-07-31T11:45:00Z</time>
      </trkpt>
      <trkpt lat="47.25472" lon="6.07215">
        <ele>280</ele>
        <time>2024-07-31T11:45:01Z</time>
      </trkpt>
      <trkpt lat="47.25469" lon="6.07212">
        <ele>280</ele>
        <time>2024-07-31T11:45:02Z</time>
      </trkpt>
      <trkpt lat="47.25466" lon="6.07208">
        <ele>280.4</ele>
        <time>2024-07-31T11:45:03Z</time>
      </trkpt>
      <trkpt lat="47.25463" lon="6.07205">
        <ele>280.4</ele>
        <time>2024-07-31T11:45:04Z</time>
      </trkpt>
      <trkpt lat="47.2546" lon="6.07202">
        <ele>280.4</ele>
        <time>2024-07-31T11:45:05Z</time>
      </trkpt>
      <trkpt lat="47.25458" lon="6.07199">
        <ele>281</ele>
        <time>2024-07-31T11:45:06Z</time>
      </trkpt>
      <trkpt lat="47.25455" lon="6.07197">
        <ele>281.2</ele>
        <time>2024-07-31T11:45:07Z</time>
      </trkpt>
      <trkpt lat="47.25452" lon="6.07194">
        <ele>281.6</ele>
        <time>2024-07-31T11:45:08Z</time>
      </trkpt>
      <trkpt lat="47.2545" lon="6.07192">
        <ele>281.8</ele>
        <time>2024-07-31T11:45:09Z</time>
      </trkpt>
      <trkpt lat="47.25448" lon="6.07189">
        <ele>282</ele>
        <time>2024-07-31T11:45:10Z</time>
      </trkpt>
      <trkpt lat="47.25445" lon="6.07187">
        <ele>282.2</ele>
        <time>2024-07-31T11:45:11Z</time>
      </trkpt>
      <trkpt lat="47.25443" lon="6.07184">
        <ele>282.6</ele>
        <time>2024-07-31T11:45:12Z</time>
      </trkpt>
      <trkpt lat="47.25441" lon="6.07182">
        <ele>282.8</ele>
        <time>2024-07-31T11:45:13Z</time>
      </trkpt>
      <trkpt lat="47.25439" lon="6.07179">
        <ele>282.8</ele>
        <time>2024-07-31T11:45:14Z</time>
      </trkpt>
      <trkpt lat="47.25436" lon="6.07177">
        <ele>283</ele>
        <time>2024-07-31T11:45:15Z</time>
      </trkpt>
      <trkpt lat="47.25434" lon="6.07174">
        <ele>283.2</ele>
        <time>2024-07-31T11:45:16Z</time>
      </trkpt>
      <trkpt lat="47.25432" lon="6.07171">
        <ele>283.4</ele>
        <time>2024-07-31T11:45:17Z</time>
      </trkpt>
      <trkpt lat="47.2543" lon="6.07168">
        <ele>283.6</ele>
        <time>2024-07-31T11:45:18Z</time>
      </trkpt>
      <trkpt lat="47.25428" lon="6.07165">
        <ele>283.8</ele>
        <time>2024-07-31T11:45:19Z</time>
      </trkpt>
      <trkpt lat="47.25426" lon="6.07162">
        <ele>284</ele>
        <time>2024-07-31T11:45:20Z</time>
      </trkpt>
      <trkpt lat="47.25424" lon="6.07159">
        <ele>284.2</ele>
        <time>2024-07-31T11:45:21Z</time>
      </trkpt>
      <trkpt lat="47.25422" lon="6.07155">
        <ele>284.4</ele>
        <time>2024-07-31T11:45:22Z</time>
      </trkpt>
      <trkpt lat="47.2542" lon="6.07152">
        <ele>284.4</ele>
        <time>2024-07-31T11:45:23Z</time>
      </trkpt>
      <trkpt lat="47.25418" lon="6.07149">
        <ele>284.4</ele>
        <time>2024-07-31T11:45:24Z</time>
      </trkpt>
      <trkpt lat="47.25415" lon="6.07145">
        <ele>284.4</ele>
        <time>2024-07-31T11:45:25Z</time>
      </trkpt>
      <trkpt lat="47.25413" lon="6.07142">
        <ele>284.6</ele>
        <time>2024-07-31T11:45:26Z</time>
      </trkpt>
      <trkpt lat="47.25411" lon="6.07139">
        <ele>284.6</ele>
        <time>2024-07-31T11:45:27Z</time>
      </trkpt>
      <trkpt lat="47.25409" lon="6.07136">
        <ele>284.8</ele>
        <time>2024-07-31T11:45:28Z</time>
      </trkpt>
      <trkpt lat="47.25407" lon="6.07132">
        <ele>285</ele>
        <time>2024-07-31T11:45:29Z</time>
      </trkpt>
      <trkpt lat="47.25405" lon="6.07129">
        <ele>285.2</ele>
        <time>2024-07-31T11:45:30Z</time>
      </trkpt>
      <trkpt lat="47.25402" lon="6.07125">
        <ele>285.2</ele>
        <time>2024-07-31T11:45:31Z</time>
      </trkpt>
      <trkpt lat="47.254" lon="6.07121">
        <ele>285.4</ele>
        <time>2024-07-31T11:45:32Z</time>
      </trkpt>
      <trkpt lat="47.25397" lon="6.07117">
        <ele>285.6</ele>
        <time>2024-07-31T11:45:33Z</time>
      </trkpt>
      <trkpt lat="47.25395" lon="6.07114">
        <ele>285.6</ele>
        <time>2024-07-31T11:45:34Z</time>
      </trkpt>
      <trkpt lat="47.25393" lon="6.0711">
        <ele>285.8</ele>
        <time>2024-07-31T11:45:35Z</time>
      </trkpt>
      <trkpt lat="47.2539" lon="6.07106">
        <ele>285.8</ele>
        <time>2024-07-31T11:45:36Z</time>
      </trkpt>
      <trkpt lat="47.25388" lon="6.07102">
        <ele>285.8</ele>
        <time>2024-07-31T11:45:37Z</time>
      </trkpt>
      <trkpt lat="47.25385" lon="6.07098">
        <ele>285.6</ele>
        <time>2024-07-31T11:45:38Z</time>
      </trkpt>
      <trkpt lat="47.25382" lon="6.07094">
        <ele>285.6</ele>
        <time>2024-07-31T11:45:39Z</time>
      </trkpt>
      <trkpt lat="47.25379" lon="6.0709">
        <ele>285.8</ele>
        <time>2024-07-31T11:45:40Z</time>
      </trkpt>
      <trkpt lat="47.25377" lon="6.07086">
        <ele>286</ele>
        <time>2024-07-31T11:45:41Z</time>
      </trkpt>
      <trkpt lat="47.25374" lon="6.07082">
        <ele>286</ele>
        <time>2024-07-31T11:45:42Z</time>
      </trkpt>
      <trkpt lat="47.2537" lon="6.07078">
        <ele>286</ele>
        <time>2024-07-31T11:45:43Z</time>
      </trkpt>
      <trkpt lat="47.25367" lon="6.07073">
        <ele>286</ele>
        <time>2024-07-31T11:45:44Z</time>
      </trkpt>
      <trkpt lat="47.25363" lon="6.0707">
        <ele>286</ele>
        <time>2024-07-31T11:45:45Z</time>
      </trkpt>
      <trkpt lat="47.2536" lon="6.07066">
        <ele>286.2</ele>
        <time>2024-07-31T11:45:46Z</time>
      </trkpt>
      <trkpt lat="47.25356" lon="6.07062">
        <ele>286.4</ele>
        <time>2024-07-31T11:45:47Z</time>
      </trkpt>
      <trkpt lat="47.25353" lon="6.07058">
        <ele>286.2</ele>
        <time>2024-07-31T11:45:48Z</time>
      </trkpt>
      <trkpt lat="47.25349" lon="6.07054">
        <ele>286.4</ele>
        <time>2024-07-31T11:45:49Z</time>
      </trkpt>
      <trkpt lat="47.25345" lon="6.0705">
        <ele>286.4</ele>
        <time>2024-07-31T11:45:50Z</time>
      </trkpt>
      <trkpt lat="47.25341" lon="6.07046">
        <ele>286.4</ele>
        <time>2024-07-31T11:45:51Z</time>
      </trkpt>
      <trkpt lat="47.25337" lon="6.07042">
        <ele>286.4</ele>
        <time>2024-07-31T11:45:52Z</time>
      </trkpt>
      <trkpt lat="47.25333" lon="6.07038">
        <ele>286.4</ele>
        <time>2024-07-31T11:45:53Z</time>
      </trkpt>
      <trkpt lat="47.2533" lon="6.07034">
        <ele>286.4</ele>
        <time>2024-07-31T11:45:54Z</time>
      </trkpt>
      <trkpt lat="47.25325" lon="6.0703">
        <ele>286.4</ele>
        <time>2024-07-31T11:45:55Z</time>
      </trkpt>
      <trkpt lat="47.25321" lon="6.07026">
        <ele>286.4</ele>
        <time>2024-07-31T11:45:56Z</time>
      </trkpt>
      <trkpt lat="47.25317" lon="6.07023">
        <ele>286.4</ele>
        <time>2024-07-31T11:45:57Z</time>
      </trkpt>
      <trkpt lat="47.25314" lon="6.07019">
        <ele>286.8</ele>
        <time>2024-07-31T11:45:58Z</time>
      </trkpt>
      <trkpt lat="47.2531" lon="6.07016">
        <ele>286.6</ele>
        <time>2024-07-31T11:45:59Z</time>
      </trkpt>
      <trkpt lat="47.25306" lon="6.07012">
        <ele>286.4</ele>
        <time>2024-07-31T11:46:00Z</time>
      </trkpt>
      <trkpt lat="47.25302" lon="6.07009">
        <ele>286.6</ele>
        <time>2024-07-31T11:46:01Z</time>
      </trkpt>
      <trkpt lat="47.25298" lon="6.07006">
        <ele>286.6</ele>
        <time>2024-07-31T11:46:02Z</time>
      </trkpt>
      <trkpt lat="47.25294" lon="6.07002">
        <ele>286.8</ele>
        <time>2024-07-31T11:46:03Z</time>
      </trkpt>
      <trkpt lat="47.25289" lon="6.06999">
        <ele>286.6</ele>
        <time>2024-07-31T11:46:04Z</time>
      </trkpt>
      <trkpt lat="47.25285" lon="6.06995">
        <ele>286.6</ele>
        <time>2024-07-31T11:46:05Z</time>
      </trkpt>
      <trkpt lat="47.25281" lon="6.06992">
        <ele>286.4</ele>
        <time>2024-07-31T11:46:06Z</time>
      </trkpt>
      <trkpt lat="47.25276" lon="6.06988">
        <ele>286.4</ele>
        <time>2024-07-31T11:46:07Z</time>
      </trkpt>
      <trkpt lat="47.25271" lon="6.06984">
        <ele>286.6</ele>
        <time>2024-07-31T11:46:08Z</time>
      </trkpt>
      <trkpt lat="47.25267" lon="6.0698">
        <ele>286.4</ele>
        <time>2024-07-31T11:46:09Z</time>
      </trkpt>
      <trkpt lat="47.25262" lon="6.06976">
        <ele>286.4</ele>
        <time>2024-07-31T11:46:10Z</time>
      </trkpt>
      <trkpt lat="47.25257" lon="6.06971">
        <ele>286.4</ele>
        <time>2024-07-31T11:46:11Z</time>
      </trkpt>
      <trkpt lat="47.25252" lon="6.06966">
        <ele>286.4</ele>
        <time>2024-07-31T11:46:12Z</time>
      </trkpt>
      <trkpt lat="47.25247" lon="6.06961">
        <ele>286.4</ele>
        <time>2024-07-31T11:46:13Z</time>
      </trkpt>
      <trkpt lat="47.25243" lon="6.06956">
        <ele>286.6</ele>
        <time>2024-07-31T11:46:14Z</time>
      </trkpt>
      <trkpt lat="47.25238" lon="6.06951">
        <ele>286.4</ele>
        <time>2024-07-31T11:46:15Z</time>
      </trkpt>
      <trkpt lat="47.25233" lon="6.06946">
        <ele>286.4</ele>
        <time>2024-07-31T11:46:16Z</time>
      </trkpt>
      <trkpt lat="47.25228" lon="6.0694">
        <ele>286.4</ele>
        <time>2024-07-31T11:46:17Z</time>
      </trkpt>
      <trkpt lat="47.25223" lon="6.06935">
        <ele>286.6</ele>
        <time>2024-07-31T11:46:18Z</time>
      </trkpt>
      <trkpt lat="47.25218" lon="6.0693">
        <ele>286.8</ele>
        <time>2024-07-31T11:46:19Z</time>
      </trkpt>
      <trkpt lat="47.25213" lon="6.06924">
        <ele>287</ele>
        <time>2024-07-31T11:46:20Z</time>
      </trkpt>
      <trkpt lat="47.25208" lon="6.06919">
        <ele>287.2</ele>
        <time>2024-07-31T11:46:21Z</time>
      </trkpt>
      <trkpt lat="47.25203" lon="6.06914">
        <ele>287.2</ele>
        <time>2024-07-31T11:46:22Z</time>
      </trkpt>
      <trkpt lat="47.25198" lon="6.06909">
        <ele>287</ele>
        <time>2024-07-31T11:46:23Z</time>
      </trkpt>
      <trkpt lat="47.25194" lon="6.06904">
        <ele>287.4</ele>
        <time>2024-07-31T11:46:24Z</time>
      </trkpt>
      <trkpt lat="47.25189" lon="6.069">
        <ele>287.4</ele>
        <time>2024-07-31T11:46:25Z</time>
      </trkpt>
      <trkpt lat="47.25184" lon="6.06896">
        <ele>287.4</ele>
        <time>2024-07-31T11:46:26Z</time>
      </trkpt>
      <trkpt lat="47.25179" lon="6.06892">
        <ele>287.4</ele>
        <time>2024-07-31T11:46:27Z</time>
      </trkpt>
      <trkpt lat="47.25174" lon="6.06889">
        <ele>288</ele>
        <time>2024-07-31T11:46:28Z</time>
      </trkpt>
      <trkpt lat="47.25169" lon="6.06885">
        <ele>288</ele>
        <time>2024-07-31T11:46:29Z</time>
      </trkpt>
      <trkpt lat="47.25164" lon="6.06883">
        <ele>288</ele>
        <time>2024-07-31T11:46:30Z</time>
      </trkpt>
      <trkpt lat="47.25159" lon="6.06882">
        <ele>288.2</ele>
        <time>2024-07-31T11:46:31Z</time>
      </trkpt>
      <trkpt lat="47.25154" lon="6.06883">
        <ele>288.2</ele>
        <time>2024-07-31T11:46:32Z</time>
      </trkpt>
      <trkpt lat="47.25149" lon="6.06885">
        <ele>287.8</ele>
        <time>2024-07-31T11:46:33Z</time>
      </trkpt>
      <trkpt lat="47.25145" lon="6.0689">
        <ele>287.4</ele>
        <time>2024-07-31T11:46:34Z</time>
      </trkpt>
      <trkpt lat="47.2514" lon="6.06895">
        <ele>287.8</ele>
        <time>2024-07-31T11:46:35Z</time>
      </trkpt>
      <trkpt lat="47.25136" lon="6.06901">
        <ele>287.6</ele>
        <time>2024-07-31T11:46:36Z</time>
      </trkpt>
      <trkpt lat="47.25131" lon="6.06906">
        <ele>286.8</ele>
        <time>2024-07-31T11:46:37Z</time>
      </trkpt>
      <trkpt lat="47.25126" lon="6.0691">
        <ele>286.8</ele>
        <time>2024-07-31T11:46:38Z</time>
      </trkpt>
      <trkpt lat="47.2512" lon="6.0691">
        <ele>286.8</ele>
        <time>2024-07-31T11:46:39Z</time>
      </trkpt>
      <trkpt lat="47.25114" lon="6.06908">
        <ele>286.8</ele>
        <time>2024-07-31T11:46:40Z</time>
      </trkpt>
      <trkpt lat="47.25108" lon="6.06905">
        <ele>287</ele>
        <time>2024-07-31T11:46:41Z</time>
      </trkpt>
      <trkpt lat="47.25102" lon="6.06902">
        <ele>286.8</ele>
        <time>2024-07-31T11:46:42Z</time>
      </trkpt>
      <trkpt lat="47.25096" lon="6.06899">
        <ele>286.6</ele>
        <time>2024-07-31T11:46:43Z</time>
      </trkpt>
      <trkpt lat="47.2509" lon="6.06896">
        <ele>286.4</ele>
        <time>2024-07-31T11:46:44Z</time>
      </trkpt>
      <trkpt lat="47.25084" lon="6.06893">
        <ele>286.6</ele>
        <time>2024-07-31T11:46:45Z</time>
      </trkpt>
      <trkpt lat="47.25077" lon="6.06891">
        <ele>285.6</ele>
        <time>2024-07-31T11:46:46Z</time>
      </trkpt>
      <trkpt lat="47.25071" lon="6.06888">
        <ele>285.8</ele>
        <time>2024-07-31T11:46:47Z</time>
      </trkpt>
      <trkpt lat="47.25065" lon="6.06885">
        <ele>285.8</ele>
        <time>2024-07-31T11:46:48Z</time>
      </trkpt>
      <trkpt lat="47.25058" lon="6.06882">
        <ele>285.6</ele>
        <time>2024-07-31T11:46:49Z</time>
      </trkpt>
      <trkpt lat="47.25052" lon="6.06878">
        <ele>285.8</ele>
        <time>2024-07-31T11:46:50Z</time>
      </trkpt>
      <trkpt lat="47.25046" lon="6.06874">
        <ele>285.8</ele>
        <time>2024-07-31T11:46:51Z</time>
      </trkpt>
      <trkpt lat="47.2504" lon="6.0687">
        <ele>286.2</ele>
        <time>2024-07-31T11:46:52Z</time>
      </trkpt>
      <trkpt lat="47.25034" lon="6.06867">
        <ele>286.2</ele>
        <time>2024-07-31T11:46:53Z</time>
      </trkpt>
      <trkpt lat="47.25028" lon="6.06863">
        <ele>285.8</ele>
        <time>2024-07-31T11:46:54Z</time>
      </trkpt>
      <trkpt lat="47.25022" lon="6.0686">
        <ele>285.8</ele>
        <time>2024-07-31T11:46:55Z</time>
      </trkpt>
      <trkpt lat="47.25016" lon="6.06856">
        <ele>285.6</ele>
        <time>2024-07-31T11:46:56Z</time>
      </trkpt>
      <trkpt lat="47.25009" lon="6.06852">
        <ele>285.8</ele>
        <time>2024-07-31T11:46:57Z</time>
      </trkpt>
      <trkpt lat="47.25003" lon="6.06848">
        <ele>285.8</ele>
        <time>2024-07-31T11:46:58Z</time>
      </trkpt>
      <trkpt lat="47.24996" lon="6.06844">
        <ele>285.4</ele>
        <time>2024-07-31T11:46:59Z</time>
      </trkpt>
      <trkpt lat="47.2499" lon="6.0684">
        <ele>285.4</ele>
        <time>2024-07-31T11:47:00Z</time>
      </trkpt>
      <trkpt lat="47.24983" lon="6.06836">
        <ele>285.4</ele>
        <time>2024-07-31T11:47:01Z</time>
      </trkpt>
      <trkpt lat="47.24977" lon="6.06831">
        <ele>285.2</ele>
        <time>2024-07-31T11:47:02Z</time>
      </trkpt>
      <trkpt lat="47.2497" lon="6.06827">
        <ele>285</ele>
        <time>2024-07-31T11:47:03Z</time>
      </trkpt>
      <trkpt lat="47.24964" lon="6.06822">
        <ele>285</ele>
        <time>2024-07-31T11:47:04Z</time>
      </trkpt>
      <trkpt lat="47.24958" lon="6.06816">
        <ele>285</ele>
        <time>2024-07-31T11:47:05Z</time>
      </trkpt>
      <trkpt lat="47.24951" lon="6.06812">
        <ele>284.8</ele>
        <time>2024-07-31T11:47:06Z</time>
      </trkpt>
      <trkpt lat="47.24945" lon="6.06807">
        <ele>284.8</ele>
        <time>2024-07-31T11:47:07Z</time>
      </trkpt>
      <trkpt lat="47.24938" lon="6.06802">
        <ele>284.8</ele>
        <time>2024-07-31T11:47:08Z</time>
      </trkpt>
      <trkpt lat="47.24931" lon="6.06798">
        <ele>284.6</ele>
        <time>2024-07-31T11:47:09Z</time>
      </trkpt>
      <trkpt lat="47.24925" lon="6.06795">
        <ele>284.6</ele>
        <time>2024-07-31T11:47:10Z</time>
      </trkpt>
      <trkpt lat="47.24918" lon="6.06791">
        <ele>284.4</ele>
        <time>2024-07-31T11:47:11Z</time>
      </trkpt>
      <trkpt lat="47.24912" lon="6.06787">
        <ele>284.6</ele>
        <time>2024-07-31T11:47:12Z</time>
      </trkpt>
      <trkpt lat="47.24905" lon="6.06783">
        <ele>284.6</ele>
        <time>2024-07-31T11:47:13Z</time>
      </trkpt>
      <trkpt lat="47.24898" lon="6.06779">
        <ele>284.6</ele>
        <time>2024-07-31T11:47:14Z</time>
      </trkpt>
      <trkpt lat="47.24892" lon="6.06775">
        <ele>284.4</ele>
        <time>2024-07-31T11:47:15Z</time>
      </trkpt>
      <trkpt lat="47.24885" lon="6.06771">
        <ele>284.4</ele>
        <time>2024-07-31T11:47:16Z</time>
      </trkpt>
      <trkpt lat="47.24878" lon="6.06767">
        <ele>284.4</ele>
        <time>2024-07-31T11:47:17Z</time>
      </trkpt>
      <trkpt lat="47.24872" lon="6.06762">
        <ele>284.2</ele>
        <time>2024-07-31T11:47:18Z</time>
      </trkpt>
      <trkpt lat="47.24866" lon="6.06758">
        <ele>284.2</ele>
        <time>2024-07-31T11:47:19Z</time>
      </trkpt>
      <trkpt lat="47.2486" lon="6.06753">
        <ele>284.6</ele>
        <time>2024-07-31T11:47:20Z</time>
      </trkpt>
      <trkpt lat="47.24855" lon="6.06747">
        <ele>284.8</ele>
        <time>2024-07-31T11:47:21Z</time>
      </trkpt>
      <trkpt lat="47.2485" lon="6.06742">
        <ele>285.2</ele>
        <time>2024-07-31T11:47:22Z</time>
      </trkpt>
      <trkpt lat="47.24845" lon="6.06738">
        <ele>285</ele>
        <time>2024-07-31T11:47:23Z</time>
      </trkpt>
      <trkpt lat="47.24841" lon="6.06733">
        <ele>285.2</ele>
        <time>2024-07-31T11:47:24Z</time>
      </trkpt>
      <trkpt lat="47.24836" lon="6.06728">
        <ele>285.2</ele>
        <time>2024-07-31T11:47:25Z</time>
      </trkpt>
      <trkpt lat="47.24831" lon="6.06722">
        <ele>285.2</ele>
        <time>2024-07-31T11:47:26Z</time>
      </trkpt>
      <trkpt lat="47.24827" lon="6.06717">
        <ele>285.4</ele>
        <time>2024-07-31T11:47:27Z</time>
      </trkpt>
      <trkpt lat="47.24822" lon="6.06712">
        <ele>285.4</ele>
        <time>2024-07-31T11:47:28Z</time>
      </trkpt>
      <trkpt lat="47.24817" lon="6.06707">
        <ele>285.2</ele>
        <time>2024-07-31T11:47:29Z</time>
      </trkpt>
      <trkpt lat="47.24812" lon="6.06702">
        <ele>285.2</ele>
        <time>2024-07-31T11:47:30Z</time>
      </trkpt>
      <trkpt lat="47.24807" lon="6.06697">
        <ele>285.2</ele>
        <time>2024-07-31T11:47:31Z</time>
      </trkpt>
      <trkpt lat="47.24803" lon="6.06692">
        <ele>285.2</ele>
        <time>2024-07-31T11:47:32Z</time>
      </trkpt>
      <trkpt lat="47.24798" lon="6.06687">
        <ele>285.2</ele>
        <time>2024-07-31T11:47:33Z</time>
      </trkpt>
      <trkpt lat="47.24793" lon="6.06683">
        <ele>285.2</ele>
        <time>2024-07-31T11:47:34Z</time>
      </trkpt>
      <trkpt lat="47.24788" lon="6.06678">
        <ele>285.4</ele>
        <time>2024-07-31T11:47:35Z</time>
      </trkpt>
      <trkpt lat="47.24783" lon="6.06673">
        <ele>285.4</ele>
        <time>2024-07-31T11:47:36Z</time>
      </trkpt>
      <trkpt lat="47.24777" lon="6.06668">
        <ele>285.2</ele>
        <time>2024-07-31T11:47:37Z</time>
      </trkpt>
      <trkpt lat="47.24772" lon="6.06663">
        <ele>285.6</ele>
        <time>2024-07-31T11:47:38Z</time>
      </trkpt>
      <trkpt lat="47.24767" lon="6.06658">
        <ele>285.4</ele>
        <time>2024-07-31T11:47:39Z</time>
      </trkpt>
      <trkpt lat="47.24762" lon="6.06654">
        <ele>285.6</ele>
        <time>2024-07-31T11:47:40Z</time>
      </trkpt>
      <trkpt lat="47.24757" lon="6.06649">
        <ele>285.8</ele>
        <time>2024-07-31T11:47:41Z</time>
      </trkpt>
      <trkpt lat="47.24752" lon="6.06644">
        <ele>285.8</ele>
        <time>2024-07-31T11:47:42Z</time>
      </trkpt>
      <trkpt lat="47.24747" lon="6.0664">
        <ele>286</ele>
        <time>2024-07-31T11:47:43Z</time>
      </trkpt>
      <trkpt lat="47.24742" lon="6.06635">
        <ele>286.2</ele>
        <time>2024-07-31T11:47:44Z</time>
      </trkpt>
      <trkpt lat="47.24737" lon="6.0663">
        <ele>286.2</ele>
        <time>2024-07-31T11:47:45Z</time>
      </trkpt>
      <trkpt lat="47.24732" lon="6.06625">
        <ele>286.2</ele>
        <time>2024-07-31T11:47:46Z</time>
      </trkpt>
      <trkpt lat="47.24727" lon="6.06621">
        <ele>286</ele>
        <time>2024-07-31T11:47:47Z</time>
      </trkpt>
      <trkpt lat="47.24722" lon="6.06616">
        <ele>286</ele>
        <time>2024-07-31T11:47:48Z</time>
      </trkpt>
      <trkpt lat="47.24717" lon="6.06611">
        <ele>286.4</ele>
        <time>2024-07-31T11:47:49Z</time>
      </trkpt>
      <trkpt lat="47.24712" lon="6.06606">
        <ele>286.8</ele>
        <time>2024-07-31T11:47:50Z</time>
      </trkpt>
      <trkpt lat="47.24707" lon="6.06601">
        <ele>287</ele>
        <time>2024-07-31T11:47:51Z</time>
      </trkpt>
      <trkpt lat="47.24701" lon="6.06597">
        <ele>286.8</ele>
        <time>2024-07-31T11:47:52Z</time>
      </trkpt>
      <trkpt lat="47.24696" lon="6.06592">
        <ele>287.2</ele>
        <time>2024-07-31T11:47:53Z</time>
      </trkpt>
      <trkpt lat="47.24691" lon="6.06588">
        <ele>287</ele>
        <time>2024-07-31T11:47:54Z</time>
      </trkpt>
      <trkpt lat="47.24686" lon="6.06583">
        <ele>287.2</ele>
        <time>2024-07-31T11:47:55Z</time>
      </trkpt>
      <trkpt lat="47.24681" lon="6.06579">
        <ele>287.4</ele>
        <time>2024-07-31T11:47:56Z</time>
      </trkpt>
      <trkpt lat="47.24676" lon="6.06574">
        <ele>287.4</ele>
        <time>2024-07-31T11:47:57Z</time>
      </trkpt>
      <trkpt lat="47.24671" lon="6.0657">
        <ele>287.4</ele>
        <time>2024-07-31T11:47:58Z</time>
      </trkpt>
      <trkpt lat="47.24667" lon="6.06566">
        <ele>287.8</ele>
        <time>2024-07-31T11:47:59Z</time>
      </trkpt>
      <trkpt lat="47.24662" lon="6.06562">
        <ele>287.6</ele>
        <time>2024-07-31T11:48:00Z</time>
      </trkpt>
      <trkpt lat="47.24658" lon="6.06558">
        <ele>287.8</ele>
        <time>2024-07-31T11:48:01Z</time>
      </trkpt>
      <trkpt lat="47.24653" lon="6.06554">
        <ele>288</ele>
        <time>2024-07-31T11:48:02Z</time>
      </trkpt>
      <trkpt lat="47.24649" lon="6.0655">
        <ele>288.2</ele>
        <time>2024-07-31T11:48:03Z</time>
      </trkpt>
      <trkpt lat="47.24644" lon="6.06546">
        <ele>288.4</ele>
        <time>2024-07-31T11:48:04Z</time>
      </trkpt>
      <trkpt lat="47.24639" lon="6.06543">
        <ele>288.2</ele>
        <time>2024-07-31T11:48:05Z</time>
      </trkpt>
      <trkpt lat="47.24635" lon="6.06539">
        <ele>288.4</ele>
        <time>2024-07-31T11:48:06Z</time>
      </trkpt>
      <trkpt lat="47.2463" lon="6.06535">
        <ele>288.4</ele>
        <time>2024-07-31T11:48:07Z</time>
      </trkpt>
      <trkpt lat="47.24625" lon="6.06531">
        <ele>288.4</ele>
        <time>2024-07-31T11:48:08Z</time>
      </trkpt>
      <trkpt lat="47.24621" lon="6.06527">
        <ele>288.6</ele>
        <time>2024-07-31T11:48:09Z</time>
      </trkpt>
      <trkpt lat="47.24616" lon="6.06524">
        <ele>288.6</ele>
        <time>2024-07-31T11:48:10Z</time>
      </trkpt>
      <trkpt lat="47.24612" lon="6.06521">
        <ele>288.6</ele>
        <time>2024-07-31T11:48:11Z</time>
      </trkpt>
      <trkpt lat="47.24607" lon="6.06518">
        <ele>288.4</ele>
        <time>2024-07-31T11:48:12Z</time>
      </trkpt>
      <trkpt lat="47.24602" lon="6.06515">
        <ele>288.4</ele>
        <time>2024-07-31T11:48:13Z</time>
      </trkpt>
      <trkpt lat="47.24598" lon="6.06511">
        <ele>288</ele>
        <time>2024-07-31T11:48:14Z</time>
      </trkpt>
      <trkpt lat="47.24592" lon="6.06508">
        <ele>287.8</ele>
        <time>2024-07-31T11:48:15Z</time>
      </trkpt>
      <trkpt lat="47.24587" lon="6.06505">
        <ele>287.6</ele>
        <time>2024-07-31T11:48:16Z</time>
      </trkpt>
      <trkpt lat="47.24581" lon="6.06501">
        <ele>287.2</ele>
        <time>2024-07-31T11:48:17Z</time>
      </trkpt>
      <trkpt lat="47.24575" lon="6.06497">
        <ele>287.2</ele>
        <time>2024-07-31T11:48:18Z</time>
      </trkpt>
      <trkpt lat="47.24569" lon="6.06494">
        <ele>287</ele>
        <time>2024-07-31T11:48:19Z</time>
      </trkpt>
      <trkpt lat="47.24563" lon="6.0649">
        <ele>287</ele>
        <time>2024-07-31T11:48:20Z</time>
      </trkpt>
      <trkpt lat="47.24557" lon="6.06485">
        <ele>287</ele>
        <time>2024-07-31T11:48:21Z</time>
      </trkpt>
      <trkpt lat="47.24551" lon="6.0648">
        <ele>286.2</ele>
        <time>2024-07-31T11:48:22Z</time>
      </trkpt>
      <trkpt lat="47.24545" lon="6.06475">
        <ele>286</ele>
        <time>2024-07-31T11:48:23Z</time>
      </trkpt>
      <trkpt lat="47.24538" lon="6.06469">
        <ele>285.6</ele>
        <time>2024-07-31T11:48:24Z</time>
      </trkpt>
      <trkpt lat="47.24532" lon="6.06463">
        <ele>285.4</ele>
        <time>2024-07-31T11:48:25Z</time>
      </trkpt>
      <trkpt lat="47.24525" lon="6.06458">
        <ele>284.8</ele>
        <time>2024-07-31T11:48:26Z</time>
      </trkpt>
      <trkpt lat="47.24519" lon="6.06452">
        <ele>284.6</ele>
        <time>2024-07-31T11:48:27Z</time>
      </trkpt>
      <trkpt lat="47.24513" lon="6.06446">
        <ele>284.6</ele>
        <time>2024-07-31T11:48:28Z</time>
      </trkpt>
      <trkpt lat="47.24507" lon="6.0644">
        <ele>283.8</ele>
        <time>2024-07-31T11:48:29Z</time>
      </trkpt>
      <trkpt lat="47.24501" lon="6.06435">
        <ele>283</ele>
        <time>2024-07-31T11:48:30Z</time>
      </trkpt>
      <trkpt lat="47.24496" lon="6.0643">
        <ele>282.8</ele>
        <time>2024-07-31T11:48:31Z</time>
      </trkpt>
      <trkpt lat="47.2449" lon="6.06426">
        <ele>282.2</ele>
        <time>2024-07-31T11:48:32Z</time>
      </trkpt>
      <trkpt lat="47.24486" lon="6.06422">
        <ele>282</ele>
        <time>2024-07-31T11:48:33Z</time>
      </trkpt>
      <trkpt lat="47.24482" lon="6.06418">
        <ele>281.6</ele>
        <time>2024-07-31T11:48:34Z</time>
      </trkpt>
      <trkpt lat="47.24479" lon="6.06414">
        <ele>281.8</ele>
        <time>2024-07-31T11:48:35Z</time>
      </trkpt>
      <trkpt lat="47.24476" lon="6.0641">
        <ele>282</ele>
        <time>2024-07-31T11:48:36Z</time>
      </trkpt>
      <trkpt lat="47.24472" lon="6.06408">
        <ele>281.8</ele>
        <time>2024-07-31T11:48:37Z</time>
      </trkpt>
      <trkpt lat="47.2447" lon="6.06406">
        <ele>281.8</ele>
        <time>2024-07-31T11:48:38Z</time>
      </trkpt>
      <trkpt lat="47.24467" lon="6.06403">
        <ele>281.8</ele>
        <time>2024-07-31T11:48:39Z</time>
      </trkpt>
      <trkpt lat="47.24465" lon="6.06401">
        <ele>281.8</ele>
        <time>2024-07-31T11:48:40Z</time>
      </trkpt>
      <trkpt lat="47.24462" lon="6.06399">
        <ele>281.6</ele>
        <time>2024-07-31T11:48:41Z</time>
      </trkpt>
      <trkpt lat="47.2446" lon="6.06398">
        <ele>281.6</ele>
        <time>2024-07-31T11:48:42Z</time>
      </trkpt>
      <trkpt lat="47.24457" lon="6.06396">
        <ele>281.6</ele>
        <time>2024-07-31T11:48:43Z</time>
      </trkpt>
      <trkpt lat="47.24455" lon="6.06393">
        <ele>281.2</ele>
        <time>2024-07-31T11:48:44Z</time>
      </trkpt>
      <trkpt lat="47.24452" lon="6.06391">
        <ele>281.2</ele>
        <time>2024-07-31T11:48:45Z</time>
      </trkpt>
      <trkpt lat="47.24448" lon="6.06388">
        <ele>281.2</ele>
        <time>2024-07-31T11:48:46Z</time>
      </trkpt>
      <trkpt lat="47.24445" lon="6.06386">
        <ele>281</ele>
        <time>2024-07-31T11:48:47Z</time>
      </trkpt>
      <trkpt lat="47.24443" lon="6.06384">
        <ele>280.8</ele>
        <time>2024-07-31T11:48:48Z</time>
      </trkpt>
      <trkpt lat="47.2444" lon="6.06383">
        <ele>280.4</ele>
        <time>2024-07-31T11:48:49Z</time>
      </trkpt>
      <trkpt lat="47.24438" lon="6.06385">
        <ele>279.6</ele>
        <time>2024-07-31T11:48:50Z</time>
      </trkpt>
      <trkpt lat="47.24436" lon="6.06388">
        <ele>278.4</ele>
        <time>2024-07-31T11:48:51Z</time>
      </trkpt>
      <trkpt lat="47.24434" lon="6.06391">
        <ele>277.8</ele>
        <time>2024-07-31T11:48:52Z</time>
      </trkpt>
      <trkpt lat="47.24432" lon="6.06394">
        <ele>277.2</ele>
        <time>2024-07-31T11:48:53Z</time>
      </trkpt>
      <trkpt lat="47.2443" lon="6.06396">
        <ele>276.4</ele>
        <time>2024-07-31T11:48:54Z</time>
      </trkpt>
      <trkpt lat="47.24427" lon="6.06396">
        <ele>276</ele>
        <time>2024-07-31T11:48:55Z</time>
      </trkpt>
      <trkpt lat="47.24424" lon="6.06397">
        <ele>275.2</ele>
        <time>2024-07-31T11:48:56Z</time>
      </trkpt>
      <trkpt lat="47.24421" lon="6.06398">
        <ele>274.4</ele>
        <time>2024-07-31T11:48:57Z</time>
      </trkpt>
      <trkpt lat="47.24417" lon="6.06398">
        <ele>274.2</ele>
        <time>2024-07-31T11:48:58Z</time>
      </trkpt>
      <trkpt lat="47.24413" lon="6.06398">
        <ele>273.2</ele>
        <time>2024-07-31T11:48:59Z</time>
      </trkpt>
      <trkpt lat="47.24409" lon="6.06399">
        <ele>272.4</ele>
        <time>2024-07-31T11:49:00Z</time>
      </trkpt>
      <trkpt lat="47.24405" lon="6.06399">
        <ele>272</ele>
        <time>2024-07-31T11:49:01Z</time>
      </trkpt>
      <trkpt lat="47.24402" lon="6.06398">
        <ele>271.4</ele>
        <time>2024-07-31T11:49:02Z</time>
      </trkpt>
      <trkpt lat="47.24399" lon="6.06398">
        <ele>271</ele>
        <time>2024-07-31T11:49:03Z</time>
      </trkpt>
      <trkpt lat="47.24397" lon="6.06398">
        <ele>271</ele>
        <time>2024-07-31T11:49:04Z</time>
      </trkpt>
      <trkpt lat="47.24395" lon="6.06397">
        <ele>270.4</ele>
        <time>2024-07-31T11:49:05Z</time>
      </trkpt>
      <trkpt lat="47.24393" lon="6.06397">
        <ele>270</ele>
        <time>2024-07-31T11:49:06Z</time>
      </trkpt>
      <trkpt lat="47.2439" lon="6.06397">
        <ele>269.6</ele>
        <time>2024-07-31T11:49:07Z</time>
      </trkpt>
      <trkpt lat="47.24388" lon="6.06398">
        <ele>269</ele>
        <time>2024-07-31T11:49:08Z</time>
      </trkpt>
      <trkpt lat="47.24386" lon="6.064">
        <ele>268</ele>
        <time>2024-07-31T11:49:09Z</time>
      </trkpt>
      <trkpt lat="47.24384" lon="6.06403">
        <ele>267</ele>
        <time>2024-07-31T11:49:10Z</time>
      </trkpt>
      <trkpt lat="47.24382" lon="6.06405">
        <ele>266.2</ele>
        <time>2024-07-31T11:49:11Z</time>
      </trkpt>
      <trkpt lat="47.2438" lon="6.06407">
        <ele>265.2</ele>
        <time>2024-07-31T11:49:12Z</time>
      </trkpt>
      <trkpt lat="47.24377" lon="6.0641">
        <ele>264.2</ele>
        <time>2024-07-31T11:49:13Z</time>
      </trkpt>
      <trkpt lat="47.24375" lon="6.06413">
        <ele>263.6</ele>
        <time>2024-07-31T11:49:14Z</time>
      </trkpt>
      <trkpt lat="47.24373" lon="6.06415">
        <ele>262.8</ele>
        <time>2024-07-31T11:49:15Z</time>
      </trkpt>
      <trkpt lat="47.24371" lon="6.06418">
        <ele>262.4</ele>
        <time>2024-07-31T11:49:16Z</time>
      </trkpt>
      <trkpt lat="47.24368" lon="6.06421">
        <ele>261.2</ele>
        <time>2024-07-31T11:49:17Z</time>
      </trkpt>
      <trkpt lat="47.24365" lon="6.06424">
        <ele>260</ele>
        <time>2024-07-31T11:49:18Z</time>
      </trkpt>
      <trkpt lat="47.24362" lon="6.06427">
        <ele>259</ele>
        <time>2024-07-31T11:49:19Z</time>
      </trkpt>
      <trkpt lat="47.24359" lon="6.0643">
        <ele>257.8</ele>
        <time>2024-07-31T11:49:20Z</time>
      </trkpt>
      <trkpt lat="47.24356" lon="6.06433">
        <ele>257</ele>
        <time>2024-07-31T11:49:21Z</time>
      </trkpt>
      <trkpt lat="47.24353" lon="6.06437">
        <ele>256.2</ele>
        <time>2024-07-31T11:49:22Z</time>
      </trkpt>
      <trkpt lat="47.24352" lon="6.0644">
        <ele>255.6</ele>
        <time>2024-07-31T11:49:23Z</time>
      </trkpt>
      <trkpt lat="47.24349" lon="6.06444">
        <ele>254.6</ele>
        <time>2024-07-31T11:49:24Z</time>
      </trkpt>
      <trkpt lat="47.24347" lon="6.06449">
        <ele>253.2</ele>
        <time>2024-07-31T11:49:25Z</time>
      </trkpt>
      <trkpt lat="47.24345" lon="6.06454">
        <ele>253.2</ele>
        <time>2024-07-31T11:49:26Z</time>
      </trkpt>
      <trkpt lat="47.24342" lon="6.06459">
        <ele>252.2</ele>
        <time>2024-07-31T11:49:27Z</time>
      </trkpt>
      <trkpt lat="47.2434" lon="6.06464">
        <ele>251.8</ele>
        <time>2024-07-31T11:49:28Z</time>
      </trkpt>
      <trkpt lat="47.24338" lon="6.06469">
        <ele>251</ele>
        <time>2024-07-31T11:49:29Z</time>
      </trkpt>
      <trkpt lat="47.24336" lon="6.06474">
        <ele>250.6</ele>
        <time>2024-07-31T11:49:30Z</time>
      </trkpt>
      <trkpt lat="47.24334" lon="6.06478">
        <ele>250</ele>
        <time>2024-07-31T11:49:31Z</time>
      </trkpt>
      <trkpt lat="47.24332" lon="6.06482">
        <ele>249.8</ele>
        <time>2024-07-31T11:49:32Z</time>
      </trkpt>
      <trkpt lat="47.24331" lon="6.06485">
        <ele>249.6</ele>
        <time>2024-07-31T11:49:33Z</time>
      </trkpt>
      <trkpt lat="47.2433" lon="6.06487">
        <ele>249.2</ele>
        <time>2024-07-31T11:49:34Z</time>
      </trkpt>
      <trkpt lat="47.24329" lon="6.06489">
        <ele>249.2</ele>
        <time>2024-07-31T11:49:35Z</time>
      </trkpt>
      <trkpt lat="47.24327" lon="6.0649">
        <ele>249</ele>
        <time>2024-07-31T11:49:36Z</time>
      </trkpt>
      <trkpt lat="47.24325" lon="6.0649">
        <ele>249.2</ele>
        <time>2024-07-31T11:49:37Z</time>
      </trkpt>
      <trkpt lat="47.24322" lon="6.06489">
        <ele>249</ele>
        <time>2024-07-31T11:49:38Z</time>
      </trkpt>
      <trkpt lat="47.2432" lon="6.06488">
        <ele>249.2</ele>
        <time>2024-07-31T11:49:39Z</time>
      </trkpt>
      <trkpt lat="47.24317" lon="6.06485">
        <ele>249.2</ele>
        <time>2024-07-31T11:49:40Z</time>
      </trkpt>
      <trkpt lat="47.24314" lon="6.06483">
        <ele>249</ele>
        <time>2024-07-31T11:49:41Z</time>
      </trkpt>
      <trkpt lat="47.24311" lon="6.06482">
        <ele>249.2</ele>
        <time>2024-07-31T11:49:42Z</time>
      </trkpt>
      <trkpt lat="47.24307" lon="6.0648">
        <ele>249</ele>
        <time>2024-07-31T11:49:43Z</time>
      </trkpt>
      <trkpt lat="47.24304" lon="6.06478">
        <ele>249.2</ele>
        <time>2024-07-31T11:49:44Z</time>
      </trkpt>
      <trkpt lat="47.243" lon="6.06475">
        <ele>249</ele>
        <time>2024-07-31T11:49:45Z</time>
      </trkpt>
      <trkpt lat="47.24296" lon="6.06473">
        <ele>249</ele>
        <time>2024-07-31T11:49:46Z</time>
      </trkpt>
      <trkpt lat="47.24292" lon="6.0647">
        <ele>249</ele>
        <time>2024-07-31T11:49:47Z</time>
      </trkpt>
      <trkpt lat="47.24288" lon="6.06467">
        <ele>249</ele>
        <time>2024-07-31T11:49:48Z</time>
      </trkpt>
      <trkpt lat="47.24283" lon="6.06465">
        <ele>249</ele>
        <time>2024-07-31T11:49:49Z</time>
      </trkpt>
      <trkpt lat="47.24279" lon="6.06463">
        <ele>249.2</ele>
        <time>2024-07-31T11:49:50Z</time>
      </trkpt>
      <trkpt lat="47.24275" lon="6.0646">
        <ele>249</ele>
        <time>2024-07-31T11:49:51Z</time>
      </trkpt>
      <trkpt lat="47.2427" lon="6.06457">
        <ele>249</ele>
        <time>2024-07-31T11:49:52Z</time>
      </trkpt>
      <trkpt lat="47.24266" lon="6.06454">
        <ele>249</ele>
        <time>2024-07-31T11:49:53Z</time>
      </trkpt>
      <trkpt lat="47.24261" lon="6.06451">
        <ele>248.8</ele>
        <time>2024-07-31T11:49:54Z</time>
      </trkpt>
      <trkpt lat="47.24257" lon="6.06448">
        <ele>248.8</ele>
        <time>2024-07-31T11:49:55Z</time>
      </trkpt>
      <trkpt lat="47.24252" lon="6.06445">
        <ele>249</ele>
        <time>2024-07-31T11:49:56Z</time>
      </trkpt>
      <trkpt lat="47.24248" lon="6.06443">
        <ele>248.8</ele>
        <time>2024-07-31T11:49:57Z</time>
      </trkpt>
      <trkpt lat="47.24244" lon="6.06439">
        <ele>249</ele>
        <time>2024-07-31T11:49:58Z</time>
      </trkpt>
      <trkpt lat="47.24239" lon="6.06436">
        <ele>249</ele>
        <time>2024-07-31T11:49:59Z</time>
      </trkpt>
      <trkpt lat="47.24235" lon="6.06433">
        <ele>249.2</ele>
        <time>2024-07-31T11:50:00Z</time>
      </trkpt>
      <trkpt lat="47.24231" lon="6.06429">
        <ele>249.2</ele>
        <time>2024-07-31T11:50:01Z</time>
      </trkpt>
      <trkpt lat="47.24226" lon="6.06426">
        <ele>249.2</ele>
        <time>2024-07-31T11:50:02Z</time>
      </trkpt>
      <trkpt lat="47.24222" lon="6.06423">
        <ele>249.2</ele>
        <time>2024-07-31T11:50:03Z</time>
      </trkpt>
      <trkpt lat="47.24217" lon="6.06419">
        <ele>249</ele>
        <time>2024-07-31T11:50:04Z</time>
      </trkpt>
      <trkpt lat="47.24213" lon="6.06415">
        <ele>249</ele>
        <time>2024-07-31T11:50:05Z</time>
      </trkpt>
      <trkpt lat="47.24208" lon="6.0641">
        <ele>248.8</ele>
        <time>2024-07-31T11:50:06Z</time>
      </trkpt>
      <trkpt lat="47.24203" lon="6.06406">
        <ele>249</ele>
        <time>2024-07-31T11:50:07Z</time>
      </trkpt>
      <trkpt lat="47.24198" lon="6.06403">
        <ele>249</ele>
        <time>2024-07-31T11:50:08Z</time>
      </trkpt>
      <trkpt lat="47.24194" lon="6.06398">
        <ele>249</ele>
        <time>2024-07-31T11:50:09Z</time>
      </trkpt>
      <trkpt lat="47.24189" lon="6.06394">
        <ele>249</ele>
        <time>2024-07-31T11:50:10Z</time>
      </trkpt>
      <trkpt lat="47.24184" lon="6.06391">
        <ele>249</ele>
        <time>2024-07-31T11:50:11Z</time>
      </trkpt>
      <trkpt lat="47.24179" lon="6.06386">
        <ele>249</ele>
        <time>2024-07-31T11:50:12Z</time>
      </trkpt>
      <trkpt lat="47.24174" lon="6.06382">
        <ele>249.2</ele>
        <time>2024-07-31T11:50:13Z</time>
      </trkpt>
      <trkpt lat="47.24169" lon="6.06378">
        <ele>249.4</ele>
        <time>2024-07-31T11:50:14Z</time>
      </trkpt>
      <trkpt lat="47.24164" lon="6.06374">
        <ele>249</ele>
        <time>2024-07-31T11:50:15Z</time>
      </trkpt>
      <trkpt lat="47.24159" lon="6.0637">
        <ele>249</ele>
        <time>2024-07-31T11:50:16Z</time>
      </trkpt>
      <trkpt lat="47.24155" lon="6.06366">
        <ele>249</ele>
        <time>2024-07-31T11:50:17Z</time>
      </trkpt>
      <trkpt lat="47.24149" lon="6.06362">
        <ele>249</ele>
        <time>2024-07-31T11:50:18Z</time>
      </trkpt>
      <trkpt lat="47.24144" lon="6.06358">
        <ele>248.8</ele>
        <time>2024-07-31T11:50:19Z</time>
      </trkpt>
      <trkpt lat="47.24139" lon="6.06354">
        <ele>249</ele>
        <time>2024-07-31T11:50:20Z</time>
      </trkpt>
      <trkpt lat="47.24134" lon="6.0635">
        <ele>249</ele>
        <time>2024-07-31T11:50:21Z</time>
      </trkpt>
      <trkpt lat="47.24129" lon="6.06345">
        <ele>248.8</ele>
        <time>2024-07-31T11:50:22Z</time>
      </trkpt>
      <trkpt lat="47.24124" lon="6.06341">
        <ele>248.8</ele>
        <time>2024-07-31T11:50:23Z</time>
      </trkpt>
      <trkpt lat="47.24119" lon="6.06336">
        <ele>248.8</ele>
        <time>2024-07-31T11:50:24Z</time>
      </trkpt>
      <trkpt lat="47.24114" lon="6.06332">
        <ele>248.6</ele>
        <time>2024-07-31T11:50:25Z</time>
      </trkpt>
      <trkpt lat="47.24109" lon="6.06327">
        <ele>248.8</ele>
        <time>2024-07-31T11:50:26Z</time>
      </trkpt>
      <trkpt lat="47.24104" lon="6.06323">
        <ele>248.8</ele>
        <time>2024-07-31T11:50:27Z</time>
      </trkpt>
      <trkpt lat="47.24099" lon="6.06319">
        <ele>248.8</ele>
        <time>2024-07-31T11:50:28Z</time>
      </trkpt>
      <trkpt lat="47.24094" lon="6.06315">
        <ele>248.8</ele>
        <time>2024-07-31T11:50:29Z</time>
      </trkpt>
      <trkpt lat="47.24089" lon="6.0631">
        <ele>248.8</ele>
        <time>2024-07-31T11:50:30Z</time>
      </trkpt>
      <trkpt lat="47.24084" lon="6.06306">
        <ele>248.8</ele>
        <time>2024-07-31T11:50:31Z</time>
      </trkpt>
      <trkpt lat="47.24078" lon="6.06303">
        <ele>248.8</ele>
        <time>2024-07-31T11:50:32Z</time>
      </trkpt>
      <trkpt lat="47.24073" lon="6.06299">
        <ele>248.8</ele>
        <time>2024-07-31T11:50:33Z</time>
      </trkpt>
      <trkpt lat="47.24068" lon="6.06294">
        <ele>248.8</ele>
        <time>2024-07-31T11:50:34Z</time>
      </trkpt>
      <trkpt lat="47.24063" lon="6.0629">
        <ele>248.8</ele>
        <time>2024-07-31T11:50:35Z</time>
      </trkpt>
      <trkpt lat="47.24057" lon="6.06286">
        <ele>248.6</ele>
        <time>2024-07-31T11:50:36Z</time>
      </trkpt>
      <trkpt lat="47.24052" lon="6.06282">
        <ele>248.6</ele>
        <time>2024-07-31T11:50:37Z</time>
      </trkpt>
      <trkpt lat="47.24047" lon="6.06278">
        <ele>248.8</ele>
        <time>2024-07-31T11:50:38Z</time>
      </trkpt>
      <trkpt lat="47.24042" lon="6.06273">
        <ele>248.8</ele>
        <time>2024-07-31T11:50:39Z</time>
      </trkpt>
      <trkpt lat="47.24037" lon="6.06269">
        <ele>248.8</ele>
        <time>2024-07-31T11:50:40Z</time>
      </trkpt>
      <trkpt lat="47.24032" lon="6.06265">
        <ele>248.8</ele>
        <time>2024-07-31T11:50:41Z</time>
      </trkpt>
      <trkpt lat="47.24027" lon="6.0626">
        <ele>248.6</ele>
        <time>2024-07-31T11:50:42Z</time>
      </trkpt>
      <trkpt lat="47.24022" lon="6.06255">
        <ele>248.8</ele>
        <time>2024-07-31T11:50:43Z</time>
      </trkpt>
      <trkpt lat="47.24017" lon="6.06251">
        <ele>248.8</ele>
        <time>2024-07-31T11:50:44Z</time>
      </trkpt>
      <trkpt lat="47.24012" lon="6.06247">
        <ele>248.8</ele>
        <time>2024-07-31T11:50:45Z</time>
      </trkpt>
      <trkpt lat="47.24007" lon="6.06242">
        <ele>248.8</ele>
        <time>2024-07-31T11:50:46Z</time>
      </trkpt>
      <trkpt lat="47.24003" lon="6.06237">
        <ele>248.8</ele>
        <time>2024-07-31T11:50:47Z</time>
      </trkpt>
      <trkpt lat="47.23998" lon="6.06233">
        <ele>248.8</ele>
        <time>2024-07-31T11:50:48Z</time>
      </trkpt>
      <trkpt lat="47.23993" lon="6.06228">
        <ele>249</ele>
        <time>2024-07-31T11:50:49Z</time>
      </trkpt>
      <trkpt lat="47.23988" lon="6.06223">
        <ele>248.8</ele>
        <time>2024-07-31T11:50:50Z</time>
      </trkpt>
      <trkpt lat="47.23983" lon="6.06219">
        <ele>248.4</ele>
        <time>2024-07-31T11:50:51Z</time>
      </trkpt>
      <trkpt lat="47.23979" lon="6.06215">
        <ele>248.6</ele>
        <time>2024-07-31T11:50:52Z</time>
      </trkpt>
      <trkpt lat="47.23974" lon="6.0621">
        <ele>248.6</ele>
        <time>2024-07-31T11:50:53Z</time>
      </trkpt>
      <trkpt lat="47.23969" lon="6.06206">
        <ele>248.8</ele>
        <time>2024-07-31T11:50:54Z</time>
      </trkpt>
      <trkpt lat="47.23963" lon="6.06202">
        <ele>248.8</ele>
        <time>2024-07-31T11:50:55Z</time>
      </trkpt>
      <trkpt lat="47.23958" lon="6.06199">
        <ele>248.6</ele>
        <time>2024-07-31T11:50:56Z</time>
      </trkpt>
      <trkpt lat="47.23953" lon="6.06195">
        <ele>248.6</ele>
        <time>2024-07-31T11:50:57Z</time>
      </trkpt>
      <trkpt lat="47.23947" lon="6.06192">
        <ele>248.6</ele>
        <time>2024-07-31T11:50:58Z</time>
      </trkpt>
      <trkpt lat="47.23942" lon="6.06189">
        <ele>248.6</ele>
        <time>2024-07-31T11:50:59Z</time>
      </trkpt>
      <trkpt lat="47.23936" lon="6.06185">
        <ele>248.6</ele>
        <time>2024-07-31T11:51:00Z</time>
      </trkpt>
      <trkpt lat="47.23931" lon="6.06182">
        <ele>248.4</ele>
        <time>2024-07-31T11:51:01Z</time>
      </trkpt>
      <trkpt lat="47.23925" lon="6.06179">
        <ele>248.4</ele>
        <time>2024-07-31T11:51:02Z</time>
      </trkpt>
      <trkpt lat="47.2392" lon="6.06176">
        <ele>248.4</ele>
        <time>2024-07-31T11:51:03Z</time>
      </trkpt>
      <trkpt lat="47.23914" lon="6.06173">
        <ele>248.4</ele>
        <time>2024-07-31T11:51:04Z</time>
      </trkpt>
      <trkpt lat="47.23909" lon="6.0617">
        <ele>248.6</ele>
        <time>2024-07-31T11:51:05Z</time>
      </trkpt>
      <trkpt lat="47.23903" lon="6.06167">
        <ele>248.4</ele>
        <time>2024-07-31T11:51:06Z</time>
      </trkpt>
      <trkpt lat="47.23898" lon="6.06163">
        <ele>248.6</ele>
        <time>2024-07-31T11:51:07Z</time>
      </trkpt>
      <trkpt lat="47.23892" lon="6.0616">
        <ele>248.6</ele>
        <time>2024-07-31T11:51:08Z</time>
      </trkpt>
      <trkpt lat="47.23886" lon="6.06157">
        <ele>248.8</ele>
        <time>2024-07-31T11:51:09Z</time>
      </trkpt>
      <trkpt lat="47.2388" lon="6.06154">
        <ele>248.8</ele>
        <time>2024-07-31T11:51:10Z</time>
      </trkpt>
      <trkpt lat="47.23875" lon="6.06152">
        <ele>249</ele>
        <time>2024-07-31T11:51:11Z</time>
      </trkpt>
      <trkpt lat="47.2387" lon="6.06149">
        <ele>249</ele>
        <time>2024-07-31T11:51:12Z</time>
      </trkpt>
      <trkpt lat="47.23865" lon="6.06146">
        <ele>249</ele>
        <time>2024-07-31T11:51:13Z</time>
      </trkpt>
      <trkpt lat="47.2386" lon="6.06142">
        <ele>249.2</ele>
        <time>2024-07-31T11:51:14Z</time>
      </trkpt>
      <trkpt lat="47.23854" lon="6.0614">
        <ele>249</ele>
        <time>2024-07-31T11:51:15Z</time>
      </trkpt>
      <trkpt lat="47.23849" lon="6.06137">
        <ele>249</ele>
        <time>2024-07-31T11:51:16Z</time>
      </trkpt>
      <trkpt lat="47.23844" lon="6.06134">
        <ele>249</ele>
        <time>2024-07-31T11:51:17Z</time>
      </trkpt>
      <trkpt lat="47.23839" lon="6.0613">
        <ele>249</ele>
        <time>2024-07-31T11:51:18Z</time>
      </trkpt>
      <trkpt lat="47.23833" lon="6.06127">
        <ele>249.2</ele>
        <time>2024-07-31T11:51:19Z</time>
      </trkpt>
      <trkpt lat="47.23828" lon="6.06124">
        <ele>249.2</ele>
        <time>2024-07-31T11:51:20Z</time>
      </trkpt>
      <trkpt lat="47.23822" lon="6.06121">
        <ele>249.2</ele>
        <time>2024-07-31T11:51:21Z</time>
      </trkpt>
      <trkpt lat="47.23817" lon="6.06117">
        <ele>249.4</ele>
        <time>2024-07-31T11:51:22Z</time>
      </trkpt>
      <trkpt lat="47.23811" lon="6.06114">
        <ele>249.2</ele>
        <time>2024-07-31T11:51:23Z</time>
      </trkpt>
      <trkpt lat="47.23806" lon="6.0611">
        <ele>249.2</ele>
        <time>2024-07-31T11:51:24Z</time>
      </trkpt>
      <trkpt lat="47.23801" lon="6.06106">
        <ele>249.2</ele>
        <time>2024-07-31T11:51:25Z</time>
      </trkpt>
      <trkpt lat="47.23796" lon="6.06102">
        <ele>249.2</ele>
        <time>2024-07-31T11:51:26Z</time>
      </trkpt>
      <trkpt lat="47.23791" lon="6.06098">
        <ele>249.4</ele>
        <time>2024-07-31T11:51:27Z</time>
      </trkpt>
      <trkpt lat="47.23787" lon="6.06094">
        <ele>249.4</ele>
        <time>2024-07-31T11:51:28Z</time>
      </trkpt>
      <trkpt lat="47.23782" lon="6.0609">
        <ele>249.2</ele>
        <time>2024-07-31T11:51:29Z</time>
      </trkpt>
      <trkpt lat="47.23777" lon="6.06086">
        <ele>249.4</ele>
        <time>2024-07-31T11:51:30Z</time>
      </trkpt>
      <trkpt lat="47.23772" lon="6.06083">
        <ele>249.4</ele>
        <time>2024-07-31T11:51:31Z</time>
      </trkpt>
      <trkpt lat="47.23766" lon="6.06079">
        <ele>249.2</ele>
        <time>2024-07-31T11:51:32Z</time>
      </trkpt>
      <trkpt lat="47.2376" lon="6.06076">
        <ele>249.6</ele>
        <time>2024-07-31T11:51:33Z</time>
      </trkpt>
      <trkpt lat="47.23755" lon="6.06074">
        <ele>249.8</ele>
        <time>2024-07-31T11:51:34Z</time>
      </trkpt>
      <trkpt lat="47.23749" lon="6.06071">
        <ele>249.8</ele>
        <time>2024-07-31T11:51:35Z</time>
      </trkpt>
      <trkpt lat="47.23743" lon="6.06067">
        <ele>249.4</ele>
        <time>2024-07-31T11:51:36Z</time>
      </trkpt>
      <trkpt lat="47.23737" lon="6.06064">
        <ele>249.2</ele>
        <time>2024-07-31T11:51:37Z</time>
      </trkpt>
      <trkpt lat="47.23731" lon="6.0606">
        <ele>249.4</ele>
        <time>2024-07-31T11:51:38Z</time>
      </trkpt>
      <trkpt lat="47.23725" lon="6.06057">
        <ele>249.4</ele>
        <time>2024-07-31T11:51:39Z</time>
      </trkpt>
      <trkpt lat="47.2372" lon="6.06053">
        <ele>249.2</ele>
        <time>2024-07-31T11:51:40Z</time>
      </trkpt>
      <trkpt lat="47.23714" lon="6.0605">
        <ele>249.2</ele>
        <time>2024-07-31T11:51:41Z</time>
      </trkpt>
      <trkpt lat="47.23708" lon="6.06047">
        <ele>249</ele>
        <time>2024-07-31T11:51:42Z</time>
      </trkpt>
      <trkpt lat="47.23703" lon="6.06044">
        <ele>249</ele>
        <time>2024-07-31T11:51:43Z</time>
      </trkpt>
      <trkpt lat="47.23697" lon="6.06041">
        <ele>249</ele>
        <time>2024-07-31T11:51:44Z</time>
      </trkpt>
      <trkpt lat="47.23691" lon="6.06038">
        <ele>249</ele>
        <time>2024-07-31T11:51:45Z</time>
      </trkpt>
      <trkpt lat="47.23686" lon="6.06034">
        <ele>248.8</ele>
        <time>2024-07-31T11:51:46Z</time>
      </trkpt>
      <trkpt lat="47.2368" lon="6.06031">
        <ele>248.8</ele>
        <time>2024-07-31T11:51:47Z</time>
      </trkpt>
      <trkpt lat="47.23674" lon="6.06028">
        <ele>248.8</ele>
        <time>2024-07-31T11:51:48Z</time>
      </trkpt>
      <trkpt lat="47.23669" lon="6.06025">
        <ele>249</ele>
        <time>2024-07-31T11:51:49Z</time>
      </trkpt>
      <trkpt lat="47.23663" lon="6.06021">
        <ele>249</ele>
        <time>2024-07-31T11:51:50Z</time>
      </trkpt>
      <trkpt lat="47.23657" lon="6.06018">
        <ele>249</ele>
        <time>2024-07-31T11:51:51Z</time>
      </trkpt>
      <trkpt lat="47.23651" lon="6.06015">
        <ele>249</ele>
        <time>2024-07-31T11:51:52Z</time>
      </trkpt>
      <trkpt lat="47.23645" lon="6.06012">
        <ele>249.2</ele>
        <time>2024-07-31T11:51:53Z</time>
      </trkpt>
      <trkpt lat="47.23639" lon="6.06009">
        <ele>249.2</ele>
        <time>2024-07-31T11:51:54Z</time>
      </trkpt>
      <trkpt lat="47.23634" lon="6.06006">
        <ele>249.2</ele>
        <time>2024-07-31T11:51:55Z</time>
      </trkpt>
      <trkpt lat="47.23628" lon="6.06004">
        <ele>249.4</ele>
        <time>2024-07-31T11:51:56Z</time>
      </trkpt>
      <trkpt lat="47.23622" lon="6.06001">
        <ele>249.4</ele>
        <time>2024-07-31T11:51:57Z</time>
      </trkpt>
      <trkpt lat="47.23617" lon="6.05998">
        <ele>249.4</ele>
        <time>2024-07-31T11:51:58Z</time>
      </trkpt>
      <trkpt lat="47.23611" lon="6.05995">
        <ele>249.4</ele>
        <time>2024-07-31T11:51:59Z</time>
      </trkpt>
      <trkpt lat="47.23606" lon="6.05992">
        <ele>249.4</ele>
        <time>2024-07-31T11:52:00Z</time>
      </trkpt>
      <trkpt lat="47.236" lon="6.05989">
        <ele>249.4</ele>
        <time>2024-07-31T11:52:01Z</time>
      </trkpt>
      <trkpt lat="47.23594" lon="6.05986">
        <ele>249.6</ele>
        <time>2024-07-31T11:52:02Z</time>
      </trkpt>
      <trkpt lat="47.23589" lon="6.05982">
        <ele>249</ele>
        <time>2024-07-31T11:52:03Z</time>
      </trkpt>
      <trkpt lat="47.23583" lon="6.05979">
        <ele>249</ele>
        <time>2024-07-31T11:52:04Z</time>
      </trkpt>
      <trkpt lat="47.23577" lon="6.05976">
        <ele>249</ele>
        <time>2024-07-31T11:52:05Z</time>
      </trkpt>
      <trkpt lat="47.23571" lon="6.05974">
        <ele>249</ele>
        <time>2024-07-31T11:52:06Z</time>
      </trkpt>
      <trkpt lat="47.23566" lon="6.05971">
        <ele>249</ele>
        <time>2024-07-31T11:52:07Z</time>
      </trkpt>
      <trkpt lat="47.2356" lon="6.05968">
        <ele>249</ele>
        <time>2024-07-31T11:52:08Z</time>
      </trkpt>
      <trkpt lat="47.23554" lon="6.05966">
        <ele>249.2</ele>
        <time>2024-07-31T11:52:09Z</time>
      </trkpt>
      <trkpt lat="47.23548" lon="6.05963">
        <ele>249</ele>
        <time>2024-07-31T11:52:10Z</time>
      </trkpt>
      <trkpt lat="47.23543" lon="6.05961">
        <ele>249</ele>
        <time>2024-07-31T11:52:11Z</time>
      </trkpt>
      <trkpt lat="47.23537" lon="6.05959">
        <ele>249</ele>
        <time>2024-07-31T11:52:12Z</time>
      </trkpt>
      <trkpt lat="47.23531" lon="6.05957">
        <ele>249.2</ele>
        <time>2024-07-31T11:52:13Z</time>
      </trkpt>
      <trkpt lat="47.23525" lon="6.05955">
        <ele>249.4</ele>
        <time>2024-07-31T11:52:14Z</time>
      </trkpt>
      <trkpt lat="47.2352" lon="6.05953">
        <ele>249.2</ele>
        <time>2024-07-31T11:52:15Z</time>
      </trkpt>
      <trkpt lat="47.23514" lon="6.05952">
        <ele>249.2</ele>
        <time>2024-07-31T11:52:16Z</time>
      </trkpt>
      <trkpt lat="47.23508" lon="6.05951">
        <ele>249.2</ele>
        <time>2024-07-31T11:52:17Z</time>
      </trkpt>
      <trkpt lat="47.23502" lon="6.0595">
        <ele>249</ele>
        <time>2024-07-31T11:52:18Z</time>
      </trkpt>
      <trkpt lat="47.23496" lon="6.05949">
        <ele>249.2</ele>
        <time>2024-07-31T11:52:19Z</time>
      </trkpt>
      <trkpt lat="47.2349" lon="6.05947">
        <ele>249.2</ele>
        <time>2024-07-31T11:52:20Z</time>
      </trkpt>
      <trkpt lat="47.23484" lon="6.05946">
        <ele>249</ele>
        <time>2024-07-31T11:52:21Z</time>
      </trkpt>
      <trkpt lat="47.23478" lon="6.05945">
        <ele>249.2</ele>
        <time>2024-07-31T11:52:22Z</time>
      </trkpt>
      <trkpt lat="47.23472" lon="6.05945">
        <ele>249.2</ele>
        <time>2024-07-31T11:52:23Z</time>
      </trkpt>
      <trkpt lat="47.23466" lon="6.05944">
        <ele>248.8</ele>
        <time>2024-07-31T11:52:24Z</time>
      </trkpt>
      <trkpt lat="47.2346" lon="6.05943">
        <ele>248.6</ele>
        <time>2024-07-31T11:52:25Z</time>
      </trkpt>
      <trkpt lat="47.23454" lon="6.05943">
        <ele>249.4</ele>
        <time>2024-07-31T11:52:26Z</time>
      </trkpt>
      <trkpt lat="47.23448" lon="6.05942">
        <ele>249.2</ele>
        <time>2024-07-31T11:52:27Z</time>
      </trkpt>
      <trkpt lat="47.23442" lon="6.05941">
        <ele>249.4</ele>
        <time>2024-07-31T11:52:28Z</time>
      </trkpt>
      <trkpt lat="47.23437" lon="6.05939">
        <ele>249.4</ele>
        <time>2024-07-31T11:52:29Z</time>
      </trkpt>
      <trkpt lat="47.23431" lon="6.05938">
        <ele>249.2</ele>
        <time>2024-07-31T11:52:30Z</time>
      </trkpt>
      <trkpt lat="47.23425" lon="6.05936">
        <ele>249.2</ele>
        <time>2024-07-31T11:52:31Z</time>
      </trkpt>
      <trkpt lat="47.2342" lon="6.05935">
        <ele>249</ele>
        <time>2024-07-31T11:52:32Z</time>
      </trkpt>
      <trkpt lat="47.23414" lon="6.05934">
        <ele>249</ele>
        <time>2024-07-31T11:52:33Z</time>
      </trkpt>
      <trkpt lat="47.23409" lon="6.05932">
        <ele>249.2</ele>
        <time>2024-07-31T11:52:34Z</time>
      </trkpt>
      <trkpt lat="47.23404" lon="6.0593">
        <ele>249.2</ele>
        <time>2024-07-31T11:52:35Z</time>
      </trkpt>
      <trkpt lat="47.23398" lon="6.05928">
        <ele>248.8</ele>
        <time>2024-07-31T11:52:36Z</time>
      </trkpt>
      <trkpt lat="47.23393" lon="6.05925">
        <ele>249</ele>
        <time>2024-07-31T11:52:37Z</time>
      </trkpt>
      <trkpt lat="47.23387" lon="6.05922">
        <ele>249.2</ele>
        <time>2024-07-31T11:52:38Z</time>
      </trkpt>
      <trkpt lat="47.23381" lon="6.05919">
        <ele>249.4</ele>
        <time>2024-07-31T11:52:39Z</time>
      </trkpt>
      <trkpt lat="47.23376" lon="6.05916">
        <ele>249.4</ele>
        <time>2024-07-31T11:52:40Z</time>
      </trkpt>
      <trkpt lat="47.23371" lon="6.05913">
        <ele>249.2</ele>
        <time>2024-07-31T11:52:41Z</time>
      </trkpt>
      <trkpt lat="47.23366" lon="6.05909">
        <ele>249</ele>
        <time>2024-07-31T11:52:42Z</time>
      </trkpt>
      <trkpt lat="47.23361" lon="6.05906">
        <ele>248.8</ele>
        <time>2024-07-31T11:52:43Z</time>
      </trkpt>
      <trkpt lat="47.23355" lon="6.05904">
        <ele>248.8</ele>
        <time>2024-07-31T11:52:44Z</time>
      </trkpt>
      <trkpt lat="47.2335" lon="6.059">
        <ele>248.8</ele>
        <time>2024-07-31T11:52:45Z</time>
      </trkpt>
      <trkpt lat="47.23345" lon="6.05897">
        <ele>248.8</ele>
        <time>2024-07-31T11:52:46Z</time>
      </trkpt>
      <trkpt lat="47.2334" lon="6.05893">
        <ele>249</ele>
        <time>2024-07-31T11:52:47Z</time>
      </trkpt>
      <trkpt lat="47.23335" lon="6.05889">
        <ele>248.8</ele>
        <time>2024-07-31T11:52:48Z</time>
      </trkpt>
      <trkpt lat="47.2333" lon="6.05885">
        <ele>248.8</ele>
        <time>2024-07-31T11:52:49Z</time>
      </trkpt>
      <trkpt lat="47.23325" lon="6.05881">
        <ele>248.6</ele>
        <time>2024-07-31T11:52:50Z</time>
      </trkpt>
      <trkpt lat="47.2332" lon="6.05877">
        <ele>248.6</ele>
        <time>2024-07-31T11:52:51Z</time>
      </trkpt>
      <trkpt lat="47.23315" lon="6.05873">
        <ele>248.4</ele>
        <time>2024-07-31T11:52:52Z</time>
      </trkpt>
      <trkpt lat="47.2331" lon="6.05869">
        <ele>248.6</ele>
        <time>2024-07-31T11:52:53Z</time>
      </trkpt>
      <trkpt lat="47.23305" lon="6.05864">
        <ele>248.6</ele>
        <time>2024-07-31T11:52:54Z</time>
      </trkpt>
      <trkpt lat="47.233" lon="6.0586">
        <ele>248.6</ele>
        <time>2024-07-31T11:52:55Z</time>
      </trkpt>
      <trkpt lat="47.23295" lon="6.05855">
        <ele>248.8</ele>
        <time>2024-07-31T11:52:56Z</time>
      </trkpt>
      <trkpt lat="47.2329" lon="6.0585">
        <ele>248.8</ele>
        <time>2024-07-31T11:52:57Z</time>
      </trkpt>
      <trkpt lat="47.23286" lon="6.05845">
        <ele>248.6</ele>
        <time>2024-07-31T11:52:58Z</time>
      </trkpt>
      <trkpt lat="47.23281" lon="6.0584">
        <ele>248.8</ele>
        <time>2024-07-31T11:52:59Z</time>
      </trkpt>
      <trkpt lat="47.23276" lon="6.05835">
        <ele>248.6</ele>
        <time>2024-07-31T11:53:00Z</time>
      </trkpt>
      <trkpt lat="47.23272" lon="6.0583">
        <ele>248.8</ele>
        <time>2024-07-31T11:53:01Z</time>
      </trkpt>
      <trkpt lat="47.23268" lon="6.05824">
        <ele>248.8</ele>
        <time>2024-07-31T11:53:02Z</time>
      </trkpt>
      <trkpt lat="47.23263" lon="6.05819">
        <ele>248.8</ele>
        <time>2024-07-31T11:53:03Z</time>
      </trkpt>
      <trkpt lat="47.23259" lon="6.05814">
        <ele>248.8</ele>
        <time>2024-07-31T11:53:04Z</time>
      </trkpt>
      <trkpt lat="47.23254" lon="6.05809">
        <ele>248.8</ele>
        <time>2024-07-31T11:53:05Z</time>
      </trkpt>
      <trkpt lat="47.23249" lon="6.05804">
        <ele>249.2</ele>
        <time>2024-07-31T11:53:06Z</time>
      </trkpt>
      <trkpt lat="47.23244" lon="6.05799">
        <ele>248.8</ele>
        <time>2024-07-31T11:53:07Z</time>
      </trkpt>
      <trkpt lat="47.2324" lon="6.05793">
        <ele>248.8</ele>
        <time>2024-07-31T11:53:08Z</time>
      </trkpt>
      <trkpt lat="47.23236" lon="6.05788">
        <ele>249</ele>
        <time>2024-07-31T11:53:09Z</time>
      </trkpt>
      <trkpt lat="47.23231" lon="6.05782">
        <ele>249</ele>
        <time>2024-07-31T11:53:10Z</time>
      </trkpt>
      <trkpt lat="47.23227" lon="6.05776">
        <ele>249</ele>
        <time>2024-07-31T11:53:11Z</time>
      </trkpt>
      <trkpt lat="47.23223" lon="6.05769">
        <ele>249</ele>
        <time>2024-07-31T11:53:12Z</time>
      </trkpt>
      <trkpt lat="47.2322" lon="6.05762">
        <ele>248.8</ele>
        <time>2024-07-31T11:53:13Z</time>
      </trkpt>
      <trkpt lat="47.23217" lon="6.05755">
        <ele>248.8</ele>
        <time>2024-07-31T11:53:14Z</time>
      </trkpt>
      <trkpt lat="47.23215" lon="6.05747">
        <ele>248.8</ele>
        <time>2024-07-31T11:53:15Z</time>
      </trkpt>
      <trkpt lat="47.23213" lon="6.05739">
        <ele>248.6</ele>
        <time>2024-07-31T11:53:16Z</time>
      </trkpt>
      <trkpt lat="47.23211" lon="6.05731">
        <ele>248.6</ele>
        <time>2024-07-31T11:53:17Z</time>
      </trkpt>
      <trkpt lat="47.2321" lon="6.05723">
        <ele>248.6</ele>
        <time>2024-07-31T11:53:18Z</time>
      </trkpt>
      <trkpt lat="47.23209" lon="6.05715">
        <ele>248.6</ele>
        <time>2024-07-31T11:53:19Z</time>
      </trkpt>
      <trkpt lat="47.23208" lon="6.05706">
        <ele>248.6</ele>
        <time>2024-07-31T11:53:20Z</time>
      </trkpt>
      <trkpt lat="47.23206" lon="6.05698">
        <ele>248.6</ele>
        <time>2024-07-31T11:53:21Z</time>
      </trkpt>
      <trkpt lat="47.23204" lon="6.0569">
        <ele>248.4</ele>
        <time>2024-07-31T11:53:22Z</time>
      </trkpt>
      <trkpt lat="47.23201" lon="6.05682">
        <ele>248.6</ele>
        <time>2024-07-31T11:53:23Z</time>
      </trkpt>
      <trkpt lat="47.23199" lon="6.05675">
        <ele>248.8</ele>
        <time>2024-07-31T11:53:24Z</time>
      </trkpt>
      <trkpt lat="47.23195" lon="6.05668">
        <ele>248.8</ele>
        <time>2024-07-31T11:53:25Z</time>
      </trkpt>
      <trkpt lat="47.23192" lon="6.05661">
        <ele>249</ele>
        <time>2024-07-31T11:53:26Z</time>
      </trkpt>
      <trkpt lat="47.23188" lon="6.05655">
        <ele>249.2</ele>
        <time>2024-07-31T11:53:27Z</time>
      </trkpt>
      <trkpt lat="47.23184" lon="6.0565">
        <ele>249.4</ele>
        <time>2024-07-31T11:53:28Z</time>
      </trkpt>
      <trkpt lat="47.23179" lon="6.05645">
        <ele>249.6</ele>
        <time>2024-07-31T11:53:29Z</time>
      </trkpt>
      <trkpt lat="47.23175" lon="6.05641">
        <ele>249.6</ele>
        <time>2024-07-31T11:53:30Z</time>
      </trkpt>
      <trkpt lat="47.23171" lon="6.05637">
        <ele>249.6</ele>
        <time>2024-07-31T11:53:31Z</time>
      </trkpt>
      <trkpt lat="47.23166" lon="6.05632">
        <ele>249.8</ele>
        <time>2024-07-31T11:53:32Z</time>
      </trkpt>
      <trkpt lat="47.23162" lon="6.05628">
        <ele>249.6</ele>
        <time>2024-07-31T11:53:33Z</time>
      </trkpt>
      <trkpt lat="47.23158" lon="6.05623">
        <ele>249.6</ele>
        <time>2024-07-31T11:53:34Z</time>
      </trkpt>
      <trkpt lat="47.23153" lon="6.05619">
        <ele>249.6</ele>
        <time>2024-07-31T11:53:35Z</time>
      </trkpt>
      <trkpt lat="47.23148" lon="6.05614">
        <ele>249.4</ele>
        <time>2024-07-31T11:53:36Z</time>
      </trkpt>
      <trkpt lat="47.23144" lon="6.0561">
        <ele>249.6</ele>
        <time>2024-07-31T11:53:37Z</time>
      </trkpt>
      <trkpt lat="47.23139" lon="6.05605">
        <ele>249.6</ele>
        <time>2024-07-31T11:53:38Z</time>
      </trkpt>
      <trkpt lat="47.23134" lon="6.05601">
        <ele>249.6</ele>
        <time>2024-07-31T11:53:39Z</time>
      </trkpt>
      <trkpt lat="47.2313" lon="6.05596">
        <ele>249.2</ele>
        <time>2024-07-31T11:53:40Z</time>
      </trkpt>
      <trkpt lat="47.23126" lon="6.05591">
        <ele>248.8</ele>
        <time>2024-07-31T11:53:41Z</time>
      </trkpt>
      <trkpt lat="47.23121" lon="6.05586">
        <ele>248.6</ele>
        <time>2024-07-31T11:53:42Z</time>
      </trkpt>
      <trkpt lat="47.23116" lon="6.05581">
        <ele>248.8</ele>
        <time>2024-07-31T11:53:43Z</time>
      </trkpt>
      <trkpt lat="47.23111" lon="6.05575">
        <ele>248.4</ele>
        <time>2024-07-31T11:53:44Z</time>
      </trkpt>
      <trkpt lat="47.23106" lon="6.05569">
        <ele>248</ele>
        <time>2024-07-31T11:53:45Z</time>
      </trkpt>
      <trkpt lat="47.23102" lon="6.05561">
        <ele>247.8</ele>
        <time>2024-07-31T11:53:46Z</time>
      </trkpt>
      <trkpt lat="47.23098" lon="6.05553">
        <ele>247.6</ele>
        <time>2024-07-31T11:53:47Z</time>
      </trkpt>
      <trkpt lat="47.23094" lon="6.05545">
        <ele>247.6</ele>
        <time>2024-07-31T11:53:48Z</time>
      </trkpt>
      <trkpt lat="47.2309" lon="6.05537">
        <ele>247.6</ele>
        <time>2024-07-31T11:53:49Z</time>
      </trkpt>
      <trkpt lat="47.23086" lon="6.0553">
        <ele>247.4</ele>
        <time>2024-07-31T11:53:50Z</time>
      </trkpt>
      <trkpt lat="47.23082" lon="6.05524">
        <ele>247.4</ele>
        <time>2024-07-31T11:53:51Z</time>
      </trkpt>
      <trkpt lat="47.23077" lon="6.05518">
        <ele>247.4</ele>
        <time>2024-07-31T11:53:52Z</time>
      </trkpt>
      <trkpt lat="47.23072" lon="6.05512">
        <ele>247.2</ele>
        <time>2024-07-31T11:53:53Z</time>
      </trkpt>
      <trkpt lat="47.23068" lon="6.05507">
        <ele>247.2</ele>
        <time>2024-07-31T11:53:54Z</time>
      </trkpt>
      <trkpt lat="47.23063" lon="6.05501">
        <ele>247.2</ele>
        <time>2024-07-31T11:53:55Z</time>
      </trkpt>
      <trkpt lat="47.23059" lon="6.05496">
        <ele>247.2</ele>
        <time>2024-07-31T11:53:56Z</time>
      </trkpt>
      <trkpt lat="47.23054" lon="6.0549">
        <ele>247.4</ele>
        <time>2024-07-31T11:53:57Z</time>
      </trkpt>
      <trkpt lat="47.2305" lon="6.05484">
        <ele>247.2</ele>
        <time>2024-07-31T11:53:58Z</time>
      </trkpt>
      <trkpt lat="47.23046" lon="6.05478">
        <ele>247.4</ele>
        <time>2024-07-31T11:53:59Z</time>
      </trkpt>
      <trkpt lat="47.23041" lon="6.05473">
        <ele>247.4</ele>
        <time>2024-07-31T11:54:00Z</time>
      </trkpt>
      <trkpt lat="47.23037" lon="6.05467">
        <ele>247.2</ele>
        <time>2024-07-31T11:54:01Z</time>
      </trkpt>
      <trkpt lat="47.23033" lon="6.0546">
        <ele>247.4</ele>
        <time>2024-07-31T11:54:02Z</time>
      </trkpt>
      <trkpt lat="47.23029" lon="6.05454">
        <ele>247.2</ele>
        <time>2024-07-31T11:54:03Z</time>
      </trkpt>
      <trkpt lat="47.23025" lon="6.05447">
        <ele>247.2</ele>
        <time>2024-07-31T11:54:04Z</time>
      </trkpt>
      <trkpt lat="47.23021" lon="6.05441">
        <ele>247.2</ele>
        <time>2024-07-31T11:54:05Z</time>
      </trkpt>
      <trkpt lat="47.23017" lon="6.05434">
        <ele>247</ele>
        <time>2024-07-31T11:54:06Z</time>
      </trkpt>
      <trkpt lat="47.23012" lon="6.05427">
        <ele>247</ele>
        <time>2024-07-31T11:54:07Z</time>
      </trkpt>
      <trkpt lat="47.23008" lon="6.0542">
        <ele>247.2</ele>
        <time>2024-07-31T11:54:08Z</time>
      </trkpt>
      <trkpt lat="47.23004" lon="6.05413">
        <ele>247</ele>
        <time>2024-07-31T11:54:09Z</time>
      </trkpt>
      <trkpt lat="47.23001" lon="6.05405">
        <ele>246.8</ele>
        <time>2024-07-31T11:54:10Z</time>
      </trkpt>
      <trkpt lat="47.22997" lon="6.05398">
        <ele>246.8</ele>
        <time>2024-07-31T11:54:11Z</time>
      </trkpt>
      <trkpt lat="47.22993" lon="6.0539">
        <ele>246.8</ele>
        <time>2024-07-31T11:54:12Z</time>
      </trkpt>
      <trkpt lat="47.22989" lon="6.05382">
        <ele>246.6</ele>
        <time>2024-07-31T11:54:13Z</time>
      </trkpt>
      <trkpt lat="47.22986" lon="6.05374">
        <ele>246.6</ele>
        <time>2024-07-31T11:54:14Z</time>
      </trkpt>
      <trkpt lat="47.22982" lon="6.05367">
        <ele>246.6</ele>
        <time>2024-07-31T11:54:15Z</time>
      </trkpt>
      <trkpt lat="47.22978" lon="6.05359">
        <ele>246.6</ele>
        <time>2024-07-31T11:54:16Z</time>
      </trkpt>
      <trkpt lat="47.22975" lon="6.05351">
        <ele>246.8</ele>
        <time>2024-07-31T11:54:17Z</time>
      </trkpt>
      <trkpt lat="47.22971" lon="6.05344">
        <ele>246.8</ele>
        <time>2024-07-31T11:54:18Z</time>
      </trkpt>
      <trkpt lat="47.22968" lon="6.05336">
        <ele>246.8</ele>
        <time>2024-07-31T11:54:19Z</time>
      </trkpt>
      <trkpt lat="47.22965" lon="6.05328">
        <ele>246.8</ele>
        <time>2024-07-31T11:54:20Z</time>
      </trkpt>
      <trkpt lat="47.22962" lon="6.0532">
        <ele>247</ele>
        <time>2024-07-31T11:54:21Z</time>
      </trkpt>
      <trkpt lat="47.22958" lon="6.05313">
        <ele>247</ele>
        <time>2024-07-31T11:54:22Z</time>
      </trkpt>
      <trkpt lat="47.22955" lon="6.05305">
        <ele>247</ele>
        <time>2024-07-31T11:54:23Z</time>
      </trkpt>
      <trkpt lat="47.22951" lon="6.05298">
        <ele>247</ele>
        <time>2024-07-31T11:54:24Z</time>
      </trkpt>
      <trkpt lat="47.22947" lon="6.05291">
        <ele>247</ele>
        <time>2024-07-31T11:54:25Z</time>
      </trkpt>
      <trkpt lat="47.22944" lon="6.05284">
        <ele>247</ele>
        <time>2024-07-31T11:54:26Z</time>
      </trkpt>
      <trkpt lat="47.22941" lon="6.05276">
        <ele>246.8</ele>
        <time>2024-07-31T11:54:27Z</time>
      </trkpt>
      <trkpt lat="47.22938" lon="6.05269">
        <ele>246.8</ele>
        <time>2024-07-31T11:54:28Z</time>
      </trkpt>
      <trkpt lat="47.22934" lon="6.05262">
        <ele>246.6</ele>
        <time>2024-07-31T11:54:29Z</time>
      </trkpt>
      <trkpt lat="47.22931" lon="6.05255">
        <ele>246.6</ele>
        <time>2024-07-31T11:54:30Z</time>
      </trkpt>
      <trkpt lat="47.22928" lon="6.05247">
        <ele>246.6</ele>
        <time>2024-07-31T11:54:31Z</time>
      </trkpt>
      <trkpt lat="47.22925" lon="6.0524">
        <ele>246.4</ele>
        <time>2024-07-31T11:54:32Z</time>
      </trkpt>
      <trkpt lat="47.22922" lon="6.05232">
        <ele>246.4</ele>
        <time>2024-07-31T11:54:33Z</time>
      </trkpt>
      <trkpt lat="47.22919" lon="6.05224">
        <ele>246.4</ele>
        <time>2024-07-31T11:54:34Z</time>
      </trkpt>
      <trkpt lat="47.22916" lon="6.05216">
        <ele>246.2</ele>
        <time>2024-07-31T11:54:35Z</time>
      </trkpt>
      <trkpt lat="47.22913" lon="6.05208">
        <ele>246.2</ele>
        <time>2024-07-31T11:54:36Z</time>
      </trkpt>
      <trkpt lat="47.2291" lon="6.052">
        <ele>246.2</ele>
        <time>2024-07-31T11:54:37Z</time>
      </trkpt>
      <trkpt lat="47.22907" lon="6.05192">
        <ele>246.2</ele>
        <time>2024-07-31T11:54:38Z</time>
      </trkpt>
      <trkpt lat="47.22904" lon="6.05184">
        <ele>246.2</ele>
        <time>2024-07-31T11:54:39Z</time>
      </trkpt>
      <trkpt lat="47.22901" lon="6.05177">
        <ele>246.4</ele>
        <time>2024-07-31T11:54:40Z</time>
      </trkpt>
      <trkpt lat="47.22898" lon="6.05169">
        <ele>246.4</ele>
        <time>2024-07-31T11:54:41Z</time>
      </trkpt>
      <trkpt lat="47.22895" lon="6.05161">
        <ele>246.6</ele>
        <time>2024-07-31T11:54:42Z</time>
      </trkpt>
      <trkpt lat="47.22891" lon="6.05153">
        <ele>246.6</ele>
        <time>2024-07-31T11:54:43Z</time>
      </trkpt>
      <trkpt lat="47.22888" lon="6.05145">
        <ele>246.6</ele>
        <time>2024-07-31T11:54:44Z</time>
      </trkpt>
      <trkpt lat="47.22885" lon="6.05138">
        <ele>246.8</ele>
        <time>2024-07-31T11:54:45Z</time>
      </trkpt>
      <trkpt lat="47.22881" lon="6.0513">
        <ele>246.8</ele>
        <time>2024-07-31T11:54:46Z</time>
      </trkpt>
      <trkpt lat="47.22878" lon="6.05122">
        <ele>246.8</ele>
        <time>2024-07-31T11:54:47Z</time>
      </trkpt>
      <trkpt lat="47.22875" lon="6.05114">
        <ele>246.8</ele>
        <time>2024-07-31T11:54:48Z</time>
      </trkpt>
      <trkpt lat="47.22872" lon="6.05106">
        <ele>246.8</ele>
        <time>2024-07-31T11:54:49Z</time>
      </trkpt>
      <trkpt lat="47.22869" lon="6.05098">
        <ele>246.8</ele>
        <time>2024-07-31T11:54:50Z</time>
      </trkpt>
      <trkpt lat="47.22865" lon="6.05091">
        <ele>246.6</ele>
        <time>2024-07-31T11:54:51Z</time>
      </trkpt>
      <trkpt lat="47.22862" lon="6.05083">
        <ele>246.8</ele>
        <time>2024-07-31T11:54:52Z</time>
      </trkpt>
      <trkpt lat="47.2286" lon="6.05075">
        <ele>247</ele>
        <time>2024-07-31T11:54:53Z</time>
      </trkpt>
      <trkpt lat="47.22857" lon="6.05068">
        <ele>246.8</ele>
        <time>2024-07-31T11:54:54Z</time>
      </trkpt>
      <trkpt lat="47.22854" lon="6.0506">
        <ele>246.8</ele>
        <time>2024-07-31T11:54:55Z</time>
      </trkpt>
      <trkpt lat="47.22851" lon="6.05052">
        <ele>246.8</ele>
        <time>2024-07-31T11:54:56Z</time>
      </trkpt>
      <trkpt lat="47.22848" lon="6.05044">
        <ele>246.8</ele>
        <time>2024-07-31T11:54:57Z</time>
      </trkpt>
      <trkpt lat="47.22845" lon="6.05036">
        <ele>246.8</ele>
        <time>2024-07-31T11:54:58Z</time>
      </trkpt>
      <trkpt lat="47.22841" lon="6.05028">
        <ele>247.2</ele>
        <time>2024-07-31T11:54:59Z</time>
      </trkpt>
      <trkpt lat="47.22838" lon="6.0502">
        <ele>247.4</ele>
        <time>2024-07-31T11:55:00Z</time>
      </trkpt>
      <trkpt lat="47.22835" lon="6.05012">
        <ele>247.4</ele>
        <time>2024-07-31T11:55:01Z</time>
      </trkpt>
      <trkpt lat="47.22832" lon="6.05005">
        <ele>247.6</ele>
        <time>2024-07-31T11:55:02Z</time>
      </trkpt>
      <trkpt lat="47.22828" lon="6.04998">
        <ele>247.6</ele>
        <time>2024-07-31T11:55:03Z</time>
      </trkpt>
      <trkpt lat="47.22825" lon="6.04991">
        <ele>247.6</ele>
        <time>2024-07-31T11:55:04Z</time>
      </trkpt>
      <trkpt lat="47.22821" lon="6.04984">
        <ele>247.2</ele>
        <time>2024-07-31T11:55:05Z</time>
      </trkpt>
      <trkpt lat="47.22818" lon="6.04977">
        <ele>247</ele>
        <time>2024-07-31T11:55:06Z</time>
      </trkpt>
      <trkpt lat="47.22815" lon="6.0497">
        <ele>247.2</ele>
        <time>2024-07-31T11:55:07Z</time>
      </trkpt>
      <trkpt lat="47.22812" lon="6.04963">
        <ele>247.2</ele>
        <time>2024-07-31T11:55:08Z</time>
      </trkpt>
      <trkpt lat="47.22809" lon="6.04956">
        <ele>247.2</ele>
        <time>2024-07-31T11:55:09Z</time>
      </trkpt>
      <trkpt lat="47.22806" lon="6.04949">
        <ele>247.4</ele>
        <time>2024-07-31T11:55:10Z</time>
      </trkpt>
      <trkpt lat="47.22803" lon="6.04942">
        <ele>247.4</ele>
        <time>2024-07-31T11:55:11Z</time>
      </trkpt>
      <trkpt lat="47.228" lon="6.04935">
        <ele>247.6</ele>
        <time>2024-07-31T11:55:12Z</time>
      </trkpt>
      <trkpt lat="47.22798" lon="6.04928">
        <ele>247.2</ele>
        <time>2024-07-31T11:55:13Z</time>
      </trkpt>
      <trkpt lat="47.22795" lon="6.04921">
        <ele>247.2</ele>
        <time>2024-07-31T11:55:14Z</time>
      </trkpt>
      <trkpt lat="47.22793" lon="6.04914">
        <ele>247.2</ele>
        <time>2024-07-31T11:55:15Z</time>
      </trkpt>
      <trkpt lat="47.22791" lon="6.04906">
        <ele>247.2</ele>
        <time>2024-07-31T11:55:16Z</time>
      </trkpt>
      <trkpt lat="47.2279" lon="6.04898">
        <ele>247.4</ele>
        <time>2024-07-31T11:55:17Z</time>
      </trkpt>
      <trkpt lat="47.22788" lon="6.0489">
        <ele>247.2</ele>
        <time>2024-07-31T11:55:18Z</time>
      </trkpt>
      <trkpt lat="47.22786" lon="6.04882">
        <ele>247</ele>
        <time>2024-07-31T11:55:19Z</time>
      </trkpt>
      <trkpt lat="47.22785" lon="6.04873">
        <ele>247</ele>
        <time>2024-07-31T11:55:20Z</time>
      </trkpt>
      <trkpt lat="47.22783" lon="6.04865">
        <ele>246.8</ele>
        <time>2024-07-31T11:55:21Z</time>
      </trkpt>
      <trkpt lat="47.22782" lon="6.04856">
        <ele>246.8</ele>
        <time>2024-07-31T11:55:22Z</time>
      </trkpt>
      <trkpt lat="47.2278" lon="6.04848">
        <ele>246.8</ele>
        <time>2024-07-31T11:55:23Z</time>
      </trkpt>
      <trkpt lat="47.22779" lon="6.04839">
        <ele>246.8</ele>
        <time>2024-07-31T11:55:24Z</time>
      </trkpt>
      <trkpt lat="47.22777" lon="6.0483">
        <ele>246.8</ele>
        <time>2024-07-31T11:55:25Z</time>
      </trkpt>
      <trkpt lat="47.22776" lon="6.04822">
        <ele>247</ele>
        <time>2024-07-31T11:55:26Z</time>
      </trkpt>
      <trkpt lat="47.22774" lon="6.04813">
        <ele>247</ele>
        <time>2024-07-31T11:55:27Z</time>
      </trkpt>
      <trkpt lat="47.22773" lon="6.04805">
        <ele>247</ele>
        <time>2024-07-31T11:55:28Z</time>
      </trkpt>
      <trkpt lat="47.22771" lon="6.04796">
        <ele>247</ele>
        <time>2024-07-31T11:55:29Z</time>
      </trkpt>
      <trkpt lat="47.2277" lon="6.04787">
        <ele>247</ele>
        <time>2024-07-31T11:55:30Z</time>
      </trkpt>
      <trkpt lat="47.22768" lon="6.04779">
        <ele>247</ele>
        <time>2024-07-31T11:55:31Z</time>
      </trkpt>
      <trkpt lat="47.22767" lon="6.0477">
        <ele>247</ele>
        <time>2024-07-31T11:55:32Z</time>
      </trkpt>
      <trkpt lat="47.22765" lon="6.04761">
        <ele>247</ele>
        <time>2024-07-31T11:55:33Z</time>
      </trkpt>
      <trkpt lat="47.22764" lon="6.04752">
        <ele>247</ele>
        <time>2024-07-31T11:55:34Z</time>
      </trkpt>
      <trkpt lat="47.22763" lon="6.04744">
        <ele>247.2</ele>
        <time>2024-07-31T11:55:35Z</time>
      </trkpt>
      <trkpt lat="47.22762" lon="6.04735">
        <ele>247.2</ele>
        <time>2024-07-31T11:55:36Z</time>
      </trkpt>
      <trkpt lat="47.22761" lon="6.04726">
        <ele>247.4</ele>
        <time>2024-07-31T11:55:37Z</time>
      </trkpt>
      <trkpt lat="47.22759" lon="6.04718">
        <ele>247.2</ele>
        <time>2024-07-31T11:55:38Z</time>
      </trkpt>
      <trkpt lat="47.22758" lon="6.04709">
        <ele>247.4</ele>
        <time>2024-07-31T11:55:39Z</time>
      </trkpt>
      <trkpt lat="47.22758" lon="6.047">
        <ele>247.4</ele>
        <time>2024-07-31T11:55:40Z</time>
      </trkpt>
      <trkpt lat="47.22757" lon="6.04691">
        <ele>247.2</ele>
        <time>2024-07-31T11:55:41Z</time>
      </trkpt>
      <trkpt lat="47.22757" lon="6.04682">
        <ele>247.2</ele>
        <time>2024-07-31T11:55:42Z</time>
      </trkpt>
      <trkpt lat="47.22757" lon="6.04674">
        <ele>247.2</ele>
        <time>2024-07-31T11:55:43Z</time>
      </trkpt>
      <trkpt lat="47.22757" lon="6.04665">
        <ele>247.2</ele>
        <time>2024-07-31T11:55:44Z</time>
      </trkpt>
      <trkpt lat="47.22757" lon="6.04657">
        <ele>247.4</ele>
        <time>2024-07-31T11:55:45Z</time>
      </trkpt>
      <trkpt lat="47.22757" lon="6.04648">
        <ele>247.2</ele>
        <time>2024-07-31T11:55:46Z</time>
      </trkpt>
      <trkpt lat="47.22758" lon="6.04639">
        <ele>247</ele>
        <time>2024-07-31T11:55:47Z</time>
      </trkpt>
      <trkpt lat="47.22758" lon="6.04631">
        <ele>247</ele>
        <time>2024-07-31T11:55:48Z</time>
      </trkpt>
      <trkpt lat="47.22759" lon="6.04622">
        <ele>247.2</ele>
        <time>2024-07-31T11:55:49Z</time>
      </trkpt>
      <trkpt lat="47.22759" lon="6.04614">
        <ele>247.4</ele>
        <time>2024-07-31T11:55:50Z</time>
      </trkpt>
      <trkpt lat="47.22759" lon="6.04606">
        <ele>247.4</ele>
        <time>2024-07-31T11:55:51Z</time>
      </trkpt>
      <trkpt lat="47.2276" lon="6.04598">
        <ele>247.4</ele>
        <time>2024-07-31T11:55:52Z</time>
      </trkpt>
      <trkpt lat="47.2276" lon="6.04589">
        <ele>247.4</ele>
        <time>2024-07-31T11:55:53Z</time>
      </trkpt>
      <trkpt lat="47.22761" lon="6.04581">
        <ele>247.4</ele>
        <time>2024-07-31T11:55:54Z</time>
      </trkpt>
      <trkpt lat="47.22761" lon="6.04573">
        <ele>247.4</ele>
        <time>2024-07-31T11:55:55Z</time>
      </trkpt>
      <trkpt lat="47.22762" lon="6.04565">
        <ele>247.4</ele>
        <time>2024-07-31T11:55:56Z</time>
      </trkpt>
      <trkpt lat="47.22763" lon="6.04556">
        <ele>247.8</ele>
        <time>2024-07-31T11:55:57Z</time>
      </trkpt>
      <trkpt lat="47.22764" lon="6.04548">
        <ele>248</ele>
        <time>2024-07-31T11:55:58Z</time>
      </trkpt>
      <trkpt lat="47.22765" lon="6.0454">
        <ele>248.2</ele>
        <time>2024-07-31T11:55:59Z</time>
      </trkpt>
      <trkpt lat="47.22766" lon="6.04532">
        <ele>248.2</ele>
        <time>2024-07-31T11:56:00Z</time>
      </trkpt>
      <trkpt lat="47.22767" lon="6.04524">
        <ele>248.4</ele>
        <time>2024-07-31T11:56:01Z</time>
      </trkpt>
      <trkpt lat="47.22769" lon="6.04516">
        <ele>248.2</ele>
        <time>2024-07-31T11:56:02Z</time>
      </trkpt>
      <trkpt lat="47.22771" lon="6.04508">
        <ele>248</ele>
        <time>2024-07-31T11:56:03Z</time>
      </trkpt>
      <trkpt lat="47.22773" lon="6.04501">
        <ele>248.4</ele>
        <time>2024-07-31T11:56:04Z</time>
      </trkpt>
      <trkpt lat="47.22775" lon="6.04494">
        <ele>248.4</ele>
        <time>2024-07-31T11:56:05Z</time>
      </trkpt>
      <trkpt lat="47.22779" lon="6.04487">
        <ele>248.4</ele>
        <time>2024-07-31T11:56:06Z</time>
      </trkpt>
      <trkpt lat="47.22782" lon="6.04481">
        <ele>248.2</ele>
        <time>2024-07-31T11:56:07Z</time>
      </trkpt>
      <trkpt lat="47.22785" lon="6.04474">
        <ele>248.6</ele>
        <time>2024-07-31T11:56:08Z</time>
      </trkpt>
      <trkpt lat="47.22789" lon="6.04468">
        <ele>248.6</ele>
        <time>2024-07-31T11:56:09Z</time>
      </trkpt>
      <trkpt lat="47.22792" lon="6.04461">
        <ele>248.4</ele>
        <time>2024-07-31T11:56:10Z</time>
      </trkpt>
      <trkpt lat="47.22795" lon="6.04455">
        <ele>248.6</ele>
        <time>2024-07-31T11:56:11Z</time>
      </trkpt>
      <trkpt lat="47.22799" lon="6.04449">
        <ele>248.6</ele>
        <time>2024-07-31T11:56:12Z</time>
      </trkpt>
      <trkpt lat="47.22802" lon="6.04443">
        <ele>248.6</ele>
        <time>2024-07-31T11:56:13Z</time>
      </trkpt>
      <trkpt lat="47.22806" lon="6.04436">
        <ele>248.8</ele>
        <time>2024-07-31T11:56:14Z</time>
      </trkpt>
      <trkpt lat="47.22809" lon="6.04429">
        <ele>249</ele>
        <time>2024-07-31T11:56:15Z</time>
      </trkpt>
      <trkpt lat="47.22812" lon="6.04423">
        <ele>249</ele>
        <time>2024-07-31T11:56:16Z</time>
      </trkpt>
      <trkpt lat="47.22815" lon="6.04417">
        <ele>249.2</ele>
        <time>2024-07-31T11:56:17Z</time>
      </trkpt>
      <trkpt lat="47.22819" lon="6.04411">
        <ele>249</ele>
        <time>2024-07-31T11:56:18Z</time>
      </trkpt>
      <trkpt lat="47.22822" lon="6.04406">
        <ele>249</ele>
        <time>2024-07-31T11:56:19Z</time>
      </trkpt>
      <trkpt lat="47.22825" lon="6.044">
        <ele>249.2</ele>
        <time>2024-07-31T11:56:20Z</time>
      </trkpt>
      <trkpt lat="47.22828" lon="6.04395">
        <ele>249.4</ele>
        <time>2024-07-31T11:56:21Z</time>
      </trkpt>
      <trkpt lat="47.22832" lon="6.0439">
        <ele>249.4</ele>
        <time>2024-07-31T11:56:22Z</time>
      </trkpt>
      <trkpt lat="47.22835" lon="6.04384">
        <ele>249.6</ele>
        <time>2024-07-31T11:56:23Z</time>
      </trkpt>
      <trkpt lat="47.22838" lon="6.04379">
        <ele>249.8</ele>
        <time>2024-07-31T11:56:24Z</time>
      </trkpt>
      <trkpt lat="47.22841" lon="6.04374">
        <ele>249.8</ele>
        <time>2024-07-31T11:56:25Z</time>
      </trkpt>
      <trkpt lat="47.22844" lon="6.04369">
        <ele>250</ele>
        <time>2024-07-31T11:56:26Z</time>
      </trkpt>
      <trkpt lat="47.22847" lon="6.04363">
        <ele>250</ele>
        <time>2024-07-31T11:56:27Z</time>
      </trkpt>
      <trkpt lat="47.2285" lon="6.04358">
        <ele>249.8</ele>
        <time>2024-07-31T11:56:28Z</time>
      </trkpt>
      <trkpt lat="47.22852" lon="6.04352">
        <ele>249.8</ele>
        <time>2024-07-31T11:56:29Z</time>
      </trkpt>
      <trkpt lat="47.22855" lon="6.04345">
        <ele>249.6</ele>
        <time>2024-07-31T11:56:30Z</time>
      </trkpt>
      <trkpt lat="47.22858" lon="6.04339">
        <ele>249.8</ele>
        <time>2024-07-31T11:56:31Z</time>
      </trkpt>
      <trkpt lat="47.22861" lon="6.04333">
        <ele>249.8</ele>
        <time>2024-07-31T11:56:32Z</time>
      </trkpt>
      <trkpt lat="47.22864" lon="6.04327">
        <ele>249.8</ele>
        <time>2024-07-31T11:56:33Z</time>
      </trkpt>
      <trkpt lat="47.22867" lon="6.04321">
        <ele>249.2</ele>
        <time>2024-07-31T11:56:34Z</time>
      </trkpt>
      <trkpt lat="47.2287" lon="6.04315">
        <ele>250</ele>
        <time>2024-07-31T11:56:35Z</time>
      </trkpt>
      <trkpt lat="47.22872" lon="6.04309">
        <ele>249.6</ele>
        <time>2024-07-31T11:56:36Z</time>
      </trkpt>
      <trkpt lat="47.22875" lon="6.04303">
        <ele>249.8</ele>
        <time>2024-07-31T11:56:37Z</time>
      </trkpt>
      <trkpt lat="47.22877" lon="6.04297">
        <ele>249.8</ele>
        <time>2024-07-31T11:56:38Z</time>
      </trkpt>
      <trkpt lat="47.2288" lon="6.04291">
        <ele>249.8</ele>
        <time>2024-07-31T11:56:39Z</time>
      </trkpt>
      <trkpt lat="47.22882" lon="6.04285">
        <ele>249.8</ele>
        <time>2024-07-31T11:56:40Z</time>
      </trkpt>
      <trkpt lat="47.22885" lon="6.04279">
        <ele>250</ele>
        <time>2024-07-31T11:56:41Z</time>
      </trkpt>
      <trkpt lat="47.22887" lon="6.04273">
        <ele>250</ele>
        <time>2024-07-31T11:56:42Z</time>
      </trkpt>
      <trkpt lat="47.2289" lon="6.04267">
        <ele>249.8</ele>
        <time>2024-07-31T11:56:43Z</time>
      </trkpt>
      <trkpt lat="47.22893" lon="6.04261">
        <ele>249.8</ele>
        <time>2024-07-31T11:56:44Z</time>
      </trkpt>
      <trkpt lat="47.22895" lon="6.04255">
        <ele>249.8</ele>
        <time>2024-07-31T11:56:45Z</time>
      </trkpt>
      <trkpt lat="47.22897" lon="6.0425">
        <ele>249.8</ele>
        <time>2024-07-31T11:56:46Z</time>
      </trkpt>
      <trkpt lat="47.22899" lon="6.04244">
        <ele>249.8</ele>
        <time>2024-07-31T11:56:47Z</time>
      </trkpt>
      <trkpt lat="47.22902" lon="6.04239">
        <ele>249.8</ele>
        <time>2024-07-31T11:56:48Z</time>
      </trkpt>
      <trkpt lat="47.22904" lon="6.04234">
        <ele>249.8</ele>
        <time>2024-07-31T11:56:49Z</time>
      </trkpt>
      <trkpt lat="47.22908" lon="6.0423">
        <ele>249.8</ele>
        <time>2024-07-31T11:56:50Z</time>
      </trkpt>
      <trkpt lat="47.22911" lon="6.04227">
        <ele>249.8</ele>
        <time>2024-07-31T11:56:51Z</time>
      </trkpt>
      <trkpt lat="47.22914" lon="6.04224">
        <ele>249.8</ele>
        <time>2024-07-31T11:56:52Z</time>
      </trkpt>
      <trkpt lat="47.22916" lon="6.0422">
        <ele>250.2</ele>
        <time>2024-07-31T11:56:53Z</time>
      </trkpt>
      <trkpt lat="47.22918" lon="6.04217">
        <ele>250.6</ele>
        <time>2024-07-31T11:56:54Z</time>
      </trkpt>
      <trkpt lat="47.22919" lon="6.04214">
        <ele>250.8</ele>
        <time>2024-07-31T11:56:55Z</time>
      </trkpt>
      <trkpt lat="47.2292" lon="6.04212">
        <ele>251.2</ele>
        <time>2024-07-31T11:56:56Z</time>
      </trkpt>
      <trkpt lat="47.22922" lon="6.04211">
        <ele>251.4</ele>
        <time>2024-07-31T11:56:57Z</time>
      </trkpt>
      <trkpt lat="47.22923" lon="6.0421">
        <ele>251.6</ele>
        <time>2024-07-31T11:56:58Z</time>
      </trkpt>
      <trkpt lat="47.22924" lon="6.0421">
        <ele>251.8</ele>
        <time>2024-07-31T11:56:59Z</time>
      </trkpt>
      <trkpt lat="47.22925" lon="6.04211">
        <ele>252</ele>
        <time>2024-07-31T11:57:00Z</time>
      </trkpt>
      <trkpt lat="47.22926" lon="6.04212">
        <ele>252.4</ele>
        <time>2024-07-31T11:57:01Z</time>
      </trkpt>
      <trkpt lat="47.22926" lon="6.04214">
        <ele>252.4</ele>
        <time>2024-07-31T11:57:02Z</time>
      </trkpt>
      <trkpt lat="47.22926" lon="6.04215">
        <ele>252.6</ele>
        <time>2024-07-31T11:57:03Z</time>
      </trkpt>
      <trkpt lat="47.22926" lon="6.04217">
        <ele>252.6</ele>
        <time>2024-07-31T11:57:04Z</time>
      </trkpt>
      <trkpt lat="47.22925" lon="6.04219">
        <ele>253</ele>
        <time>2024-07-31T11:57:05Z</time>
      </trkpt>
      <trkpt lat="47.22925" lon="6.04221">
        <ele>253.4</ele>
        <time>2024-07-31T11:57:06Z</time>
      </trkpt>
      <trkpt lat="47.22924" lon="6.04223">
        <ele>253.6</ele>
        <time>2024-07-31T11:57:07Z</time>
      </trkpt>
      <trkpt lat="47.22924" lon="6.04225">
        <ele>253.6</ele>
        <time>2024-07-31T11:57:08Z</time>
      </trkpt>
      <trkpt lat="47.22923" lon="6.04227">
        <ele>253.6</ele>
        <time>2024-07-31T11:57:09Z</time>
      </trkpt>
      <trkpt lat="47.22922" lon="6.04229">
        <ele>253.8</ele>
        <time>2024-07-31T11:57:10Z</time>
      </trkpt>
      <trkpt lat="47.22921" lon="6.04231">
        <ele>253.8</ele>
        <time>2024-07-31T11:57:11Z</time>
      </trkpt>
      <trkpt lat="47.2292" lon="6.04232">
        <ele>254</ele>
        <time>2024-07-31T11:57:12Z</time>
      </trkpt>
      <trkpt lat="47.22919" lon="6.04234">
        <ele>254</ele>
        <time>2024-07-31T11:57:13Z</time>
      </trkpt>
      <trkpt lat="47.22918" lon="6.04236">
        <ele>254.2</ele>
        <time>2024-07-31T11:57:14Z</time>
      </trkpt>
      <trkpt lat="47.22917" lon="6.04238">
        <ele>254.4</ele>
        <time>2024-07-31T11:57:15Z</time>
      </trkpt>
      <trkpt lat="47.22916" lon="6.0424">
        <ele>254.4</ele>
        <time>2024-07-31T11:57:16Z</time>
      </trkpt>
      <trkpt lat="47.22914" lon="6.04243">
        <ele>254.8</ele>
        <time>2024-07-31T11:57:17Z</time>
      </trkpt>
      <trkpt lat="47.22913" lon="6.04246">
        <ele>255</ele>
        <time>2024-07-31T11:57:18Z</time>
      </trkpt>
      <trkpt lat="47.22912" lon="6.04248">
        <ele>255.2</ele>
        <time>2024-07-31T11:57:19Z</time>
      </trkpt>
      <trkpt lat="47.22911" lon="6.04251">
        <ele>255.2</ele>
        <time>2024-07-31T11:57:20Z</time>
      </trkpt>
      <trkpt lat="47.2291" lon="6.04254">
        <ele>255.2</ele>
        <time>2024-07-31T11:57:21Z</time>
      </trkpt>
      <trkpt lat="47.22909" lon="6.04257">
        <ele>255.4</ele>
        <time>2024-07-31T11:57:22Z</time>
      </trkpt>
      <trkpt lat="47.22907" lon="6.04259">
        <ele>255.4</ele>
        <time>2024-07-31T11:57:23Z</time>
      </trkpt>
      <trkpt lat="47.22906" lon="6.04261">
        <ele>255.6</ele>
        <time>2024-07-31T11:57:24Z</time>
      </trkpt>
      <trkpt lat="47.22905" lon="6.04264">
        <ele>255.8</ele>
        <time>2024-07-31T11:57:25Z</time>
      </trkpt>
      <trkpt lat="47.22904" lon="6.04267">
        <ele>255.8</ele>
        <time>2024-07-31T11:57:26Z</time>
      </trkpt>
      <trkpt lat="47.22904" lon="6.04269">
        <ele>256</ele>
        <time>2024-07-31T11:57:27Z</time>
      </trkpt>
      <trkpt lat="47.22903" lon="6.04272">
        <ele>256</ele>
        <time>2024-07-31T11:57:28Z</time>
      </trkpt>
      <trkpt lat="47.22902" lon="6.04274">
        <ele>256.2</ele>
        <time>2024-07-31T11:57:29Z</time>
      </trkpt>
      <trkpt lat="47.22901" lon="6.04277">
        <ele>256.2</ele>
        <time>2024-07-31T11:57:30Z</time>
      </trkpt>
      <trkpt lat="47.22901" lon="6.0428">
        <ele>256.4</ele>
        <time>2024-07-31T11:57:31Z</time>
      </trkpt>
      <trkpt lat="47.229" lon="6.04282">
        <ele>256.4</ele>
        <time>2024-07-31T11:57:32Z</time>
      </trkpt>
      <trkpt lat="47.22899" lon="6.04285">
        <ele>256.4</ele>
        <time>2024-07-31T11:57:33Z</time>
      </trkpt>
      <trkpt lat="47.22898" lon="6.04288">
        <ele>256.6</ele>
        <time>2024-07-31T11:57:34Z</time>
      </trkpt>
      <trkpt lat="47.22897" lon="6.04291">
        <ele>256.6</ele>
        <time>2024-07-31T11:57:35Z</time>
      </trkpt>
      <trkpt lat="47.22897" lon="6.04294">
        <ele>256.8</ele>
        <time>2024-07-31T11:57:36Z</time>
      </trkpt>
      <trkpt lat="47.22896" lon="6.04296">
        <ele>256.8</ele>
        <time>2024-07-31T11:57:37Z</time>
      </trkpt>
      <trkpt lat="47.22896" lon="6.04299">
        <ele>257</ele>
        <time>2024-07-31T11:57:38Z</time>
      </trkpt>
      <trkpt lat="47.22895" lon="6.04302">
        <ele>257</ele>
        <time>2024-07-31T11:57:39Z</time>
      </trkpt>
      <trkpt lat="47.22894" lon="6.04304">
        <ele>257.2</ele>
        <time>2024-07-31T11:57:40Z</time>
      </trkpt>
      <trkpt lat="47.22893" lon="6.04307">
        <ele>257.2</ele>
        <time>2024-07-31T11:57:41Z</time>
      </trkpt>
      <trkpt lat="47.22892" lon="6.0431">
        <ele>257.4</ele>
        <time>2024-07-31T11:57:42Z</time>
      </trkpt>
      <trkpt lat="47.22892" lon="6.04313">
        <ele>257.6</ele>
        <time>2024-07-31T11:57:43Z</time>
      </trkpt>
      <trkpt lat="47.22891" lon="6.04316">
        <ele>257.6</ele>
        <time>2024-07-31T11:57:44Z</time>
      </trkpt>
      <trkpt lat="47.22891" lon="6.04319">
        <ele>258</ele>
        <time>2024-07-31T11:57:45Z</time>
      </trkpt>
      <trkpt lat="47.22891" lon="6.04322">
        <ele>258.2</ele>
        <time>2024-07-31T11:57:46Z</time>
      </trkpt>
      <trkpt lat="47.2289" lon="6.04324">
        <ele>258.2</ele>
        <time>2024-07-31T11:57:47Z</time>
      </trkpt>
      <trkpt lat="47.2289" lon="6.04327">
        <ele>258.4</ele>
        <time>2024-07-31T11:57:48Z</time>
      </trkpt>
      <trkpt lat="47.2289" lon="6.0433">
        <ele>258.4</ele>
        <time>2024-07-31T11:57:49Z</time>
      </trkpt>
      <trkpt lat="47.22889" lon="6.04333">
        <ele>258.8</ele>
        <time>2024-07-31T11:57:50Z</time>
      </trkpt>
      <trkpt lat="47.22889" lon="6.04335">
        <ele>259</ele>
        <time>2024-07-31T11:57:51Z</time>
      </trkpt>
      <trkpt lat="47.22889" lon="6.04338">
        <ele>259.4</ele>
        <time>2024-07-31T11:57:52Z</time>
      </trkpt>
      <trkpt lat="47.22889" lon="6.0434">
        <ele>259.6</ele>
        <time>2024-07-31T11:57:53Z</time>
      </trkpt>
      <trkpt lat="47.22888" lon="6.04343">
        <ele>259.6</ele>
        <time>2024-07-31T11:57:54Z</time>
      </trkpt>
      <trkpt lat="47.22888" lon="6.04345">
        <ele>259.6</ele>
        <time>2024-07-31T11:57:55Z</time>
      </trkpt>
      <trkpt lat="47.22889" lon="6.04348">
        <ele>259.8</ele>
        <time>2024-07-31T11:57:56Z</time>
      </trkpt>
      <trkpt lat="47.22889" lon="6.04351">
        <ele>260</ele>
        <time>2024-07-31T11:57:57Z</time>
      </trkpt>
      <trkpt lat="47.22888" lon="6.04353">
        <ele>260.2</ele>
        <time>2024-07-31T11:57:58Z</time>
      </trkpt>
      <trkpt lat="47.22888" lon="6.04356">
        <ele>260.2</ele>
        <time>2024-07-31T11:57:59Z</time>
      </trkpt>
      <trkpt lat="47.22889" lon="6.04358">
        <ele>260.6</ele>
        <time>2024-07-31T11:58:00Z</time>
      </trkpt>
      <trkpt lat="47.22889" lon="6.04361">
        <ele>260.8</ele>
        <time>2024-07-31T11:58:01Z</time>
      </trkpt>
      <trkpt lat="47.22889" lon="6.04363">
        <ele>261</ele>
        <time>2024-07-31T11:58:02Z</time>
      </trkpt>
      <trkpt lat="47.22889" lon="6.04366">
        <ele>261</ele>
        <time>2024-07-31T11:58:03Z</time>
      </trkpt>
      <trkpt lat="47.22889" lon="6.04368">
        <ele>261.2</ele>
        <time>2024-07-31T11:58:04Z</time>
      </trkpt>
      <trkpt lat="47.22889" lon="6.04371">
        <ele>261.6</ele>
        <time>2024-07-31T11:58:05Z</time>
      </trkpt>
      <trkpt lat="47.22889" lon="6.04373">
        <ele>261.6</ele>
        <time>2024-07-31T11:58:06Z</time>
      </trkpt>
      <trkpt lat="47.2289" lon="6.04375">
        <ele>261.8</ele>
        <time>2024-07-31T11:58:07Z</time>
      </trkpt>
      <trkpt lat="47.2289" lon="6.04378">
        <ele>262</ele>
        <time>2024-07-31T11:58:08Z</time>
      </trkpt>
      <trkpt lat="47.22889" lon="6.0438">
        <ele>262.4</ele>
        <time>2024-07-31T11:58:09Z</time>
      </trkpt>
      <trkpt lat="47.2289" lon="6.04382">
        <ele>262.6</ele>
        <time>2024-07-31T11:58:10Z</time>
      </trkpt>
      <trkpt lat="47.2289" lon="6.04384">
        <ele>263</ele>
        <time>2024-07-31T11:58:11Z</time>
      </trkpt>
      <trkpt lat="47.2289" lon="6.04386">
        <ele>263.2</ele>
        <time>2024-07-31T11:58:12Z</time>
      </trkpt>
      <trkpt lat="47.2289" lon="6.04388">
        <ele>263.4</ele>
        <time>2024-07-31T11:58:13Z</time>
      </trkpt>
      <trkpt lat="47.2289" lon="6.04391">
        <ele>263.8</ele>
        <time>2024-07-31T11:58:14Z</time>
      </trkpt>
      <trkpt lat="47.2289" lon="6.04393">
        <ele>264</ele>
        <time>2024-07-31T11:58:15Z</time>
      </trkpt>
      <trkpt lat="47.2289" lon="6.04395">
        <ele>264.2</ele>
        <time>2024-07-31T11:58:16Z</time>
      </trkpt>
      <trkpt lat="47.22891" lon="6.04397">
        <ele>264.2</ele>
        <time>2024-07-31T11:58:17Z</time>
      </trkpt>
      <trkpt lat="47.22891" lon="6.04399">
        <ele>264.2</ele>
        <time>2024-07-31T11:58:18Z</time>
      </trkpt>
      <trkpt lat="47.22891" lon="6.04402">
        <ele>264.6</ele>
        <time>2024-07-31T11:58:19Z</time>
      </trkpt>
      <trkpt lat="47.22892" lon="6.04404">
        <ele>264.8</ele>
        <time>2024-07-31T11:58:20Z</time>
      </trkpt>
      <trkpt lat="47.22892" lon="6.04406">
        <ele>265</ele>
        <time>2024-07-31T11:58:21Z</time>
      </trkpt>
      <trkpt lat="47.22893" lon="6.04408">
        <ele>265.2</ele>
        <time>2024-07-31T11:58:22Z</time>
      </trkpt>
      <trkpt lat="47.22893" lon="6.0441">
        <ele>265.2</ele>
        <time>2024-07-31T11:58:23Z</time>
      </trkpt>
      <trkpt lat="47.22893" lon="6.04412">
        <ele>265.4</ele>
        <time>2024-07-31T11:58:24Z</time>
      </trkpt>
      <trkpt lat="47.22893" lon="6.04414">
        <ele>265.8</ele>
        <time>2024-07-31T11:58:25Z</time>
      </trkpt>
      <trkpt lat="47.22894" lon="6.04416">
        <ele>266</ele>
        <time>2024-07-31T11:58:26Z</time>
      </trkpt>
      <trkpt lat="47.22894" lon="6.04418">
        <ele>266.2</ele>
        <time>2024-07-31T11:58:27Z</time>
      </trkpt>
      <trkpt lat="47.22895" lon="6.0442">
        <ele>266.4</ele>
        <time>2024-07-31T11:58:28Z</time>
      </trkpt>
      <trkpt lat="47.22895" lon="6.04422">
        <ele>266.6</ele>
        <time>2024-07-31T11:58:29Z</time>
      </trkpt>
      <trkpt lat="47.22895" lon="6.04424">
        <ele>266.8</ele>
        <time>2024-07-31T11:58:30Z</time>
      </trkpt>
      <trkpt lat="47.22895" lon="6.04427">
        <ele>267</ele>
        <time>2024-07-31T11:58:31Z</time>
      </trkpt>
      <trkpt lat="47.22896" lon="6.04429">
        <ele>267.2</ele>
        <time>2024-07-31T11:58:32Z</time>
      </trkpt>
      <trkpt lat="47.22896" lon="6.04431">
        <ele>267.6</ele>
        <time>2024-07-31T11:58:33Z</time>
      </trkpt>
      <trkpt lat="47.22896" lon="6.04434">
        <ele>267.8</ele>
        <time>2024-07-31T11:58:34Z</time>
      </trkpt>
      <trkpt lat="47.22897" lon="6.04436">
        <ele>268</ele>
        <time>2024-07-31T11:58:35Z</time>
      </trkpt>
      <trkpt lat="47.22897" lon="6.04438">
        <ele>268</ele>
        <time>2024-07-31T11:58:36Z</time>
      </trkpt>
      <trkpt lat="47.22898" lon="6.0444">
        <ele>268.2</ele>
        <time>2024-07-31T11:58:37Z</time>
      </trkpt>
      <trkpt lat="47.22899" lon="6.04443">
        <ele>268.6</ele>
        <time>2024-07-31T11:58:38Z</time>
      </trkpt>
      <trkpt lat="47.22899" lon="6.04445">
        <ele>268.8</ele>
        <time>2024-07-31T11:58:39Z</time>
      </trkpt>
      <trkpt lat="47.229" lon="6.04447">
        <ele>268.8</ele>
        <time>2024-07-31T11:58:40Z</time>
      </trkpt>
      <trkpt lat="47.229" lon="6.0445">
        <ele>269</ele>
        <time>2024-07-31T11:58:41Z</time>
      </trkpt>
      <trkpt lat="47.229" lon="6.04452">
        <ele>269</ele>
        <time>2024-07-31T11:58:42Z</time>
      </trkpt>
      <trkpt lat="47.229" lon="6.04454">
        <ele>269.2</ele>
        <time>2024-07-31T11:58:43Z</time>
      </trkpt>
      <trkpt lat="47.229" lon="6.04457">
        <ele>269.4</ele>
        <time>2024-07-31T11:58:44Z</time>
      </trkpt>
      <trkpt lat="47.229" lon="6.0446">
        <ele>269.6</ele>
        <time>2024-07-31T11:58:45Z</time>
      </trkpt>
      <trkpt lat="47.229" lon="6.04462">
        <ele>269.8</ele>
        <time>2024-07-31T11:58:46Z</time>
      </trkpt>
      <trkpt lat="47.229" lon="6.04465">
        <ele>270</ele>
        <time>2024-07-31T11:58:47Z</time>
      </trkpt>
      <trkpt lat="47.229" lon="6.04467">
        <ele>270.2</ele>
        <time>2024-07-31T11:58:48Z</time>
      </trkpt>
      <trkpt lat="47.229" lon="6.0447">
        <ele>270.4</ele>
        <time>2024-07-31T11:58:49Z</time>
      </trkpt>
      <trkpt lat="47.229" lon="6.04473">
        <ele>270.4</ele>
        <time>2024-07-31T11:58:50Z</time>
      </trkpt>
      <trkpt lat="47.229" lon="6.04475">
        <ele>270.4</ele>
        <time>2024-07-31T11:58:51Z</time>
      </trkpt>
      <trkpt lat="47.229" lon="6.04478">
        <ele>270.2</ele>
        <time>2024-07-31T11:58:52Z</time>
      </trkpt>
      <trkpt lat="47.229" lon="6.04481">
        <ele>270.2</ele>
        <time>2024-07-31T11:58:53Z</time>
      </trkpt>
      <trkpt lat="47.229" lon="6.04484">
        <ele>270.2</ele>
        <time>2024-07-31T11:58:54Z</time>
      </trkpt>
      <trkpt lat="47.229" lon="6.04488">
        <ele>270.2</ele>
        <time>2024-07-31T11:58:55Z</time>
      </trkpt>
      <trkpt lat="47.22899" lon="6.04492">
        <ele>269.6</ele>
        <time>2024-07-31T11:58:56Z</time>
      </trkpt>
      <trkpt lat="47.22898" lon="6.04497">
        <ele>269.4</ele>
        <time>2024-07-31T11:58:57Z</time>
      </trkpt>
      <trkpt lat="47.22897" lon="6.04502">
        <ele>269.4</ele>
        <time>2024-07-31T11:58:58Z</time>
      </trkpt>
      <trkpt lat="47.22895" lon="6.04508">
        <ele>269.6</ele>
        <time>2024-07-31T11:58:59Z</time>
      </trkpt>
      <trkpt lat="47.22895" lon="6.04515">
        <ele>269.4</ele>
        <time>2024-07-31T11:59:00Z</time>
      </trkpt>
      <trkpt lat="47.22894" lon="6.04522">
        <ele>269.2</ele>
        <time>2024-07-31T11:59:01Z</time>
      </trkpt>
      <trkpt lat="47.22894" lon="6.04528">
        <ele>269.2</ele>
        <time>2024-07-31T11:59:02Z</time>
      </trkpt>
      <trkpt lat="47.22894" lon="6.04534">
        <ele>269.4</ele>
        <time>2024-07-31T11:59:03Z</time>
      </trkpt>
      <trkpt lat="47.22894" lon="6.0454">
        <ele>269.6</ele>
        <time>2024-07-31T11:59:04Z</time>
      </trkpt>
      <trkpt lat="47.22895" lon="6.04546">
        <ele>269.6</ele>
        <time>2024-07-31T11:59:05Z</time>
      </trkpt>
      <trkpt lat="47.22895" lon="6.04551">
        <ele>269.6</ele>
        <time>2024-07-31T11:59:06Z</time>
      </trkpt>
      <trkpt lat="47.22895" lon="6.04554">
        <ele>269.8</ele>
        <time>2024-07-31T11:59:07Z</time>
      </trkpt>
      <trkpt lat="47.22895" lon="6.04557">
        <ele>270</ele>
        <time>2024-07-31T11:59:08Z</time>
      </trkpt>
      <trkpt lat="47.22896" lon="6.0456">
        <ele>270.2</ele>
        <time>2024-07-31T11:59:09Z</time>
      </trkpt>
      <trkpt lat="47.22896" lon="6.04563">
        <ele>270.2</ele>
        <time>2024-07-31T11:59:10Z</time>
      </trkpt>
      <trkpt lat="47.22896" lon="6.04566">
        <ele>270.4</ele>
        <time>2024-07-31T11:59:11Z</time>
      </trkpt>
      <trkpt lat="47.22897" lon="6.04569">
        <ele>270.6</ele>
        <time>2024-07-31T11:59:12Z</time>
      </trkpt>
      <trkpt lat="47.22897" lon="6.04572">
        <ele>270.8</ele>
        <time>2024-07-31T11:59:13Z</time>
      </trkpt>
      <trkpt lat="47.22897" lon="6.04575">
        <ele>270.8</ele>
        <time>2024-07-31T11:59:14Z</time>
      </trkpt>
      <trkpt lat="47.22898" lon="6.04578">
        <ele>271</ele>
        <time>2024-07-31T11:59:15Z</time>
      </trkpt>
      <trkpt lat="47.22898" lon="6.04581">
        <ele>271.2</ele>
        <time>2024-07-31T11:59:16Z</time>
      </trkpt>
      <trkpt lat="47.22898" lon="6.04583">
        <ele>271.2</ele>
        <time>2024-07-31T11:59:17Z</time>
      </trkpt>
      <trkpt lat="47.22898" lon="6.04586">
        <ele>271.2</ele>
        <time>2024-07-31T11:59:18Z</time>
      </trkpt>
      <trkpt lat="47.22897" lon="6.04589">
        <ele>271.4</ele>
        <time>2024-07-31T11:59:19Z</time>
      </trkpt>
      <trkpt lat="47.22897" lon="6.04592">
        <ele>271.4</ele>
        <time>2024-07-31T11:59:20Z</time>
      </trkpt>
      <trkpt lat="47.22897" lon="6.04595">
        <ele>271.6</ele>
        <time>2024-07-31T11:59:21Z</time>
      </trkpt>
      <trkpt lat="47.22897" lon="6.04599">
        <ele>271.6</ele>
        <time>2024-07-31T11:59:22Z</time>
      </trkpt>
      <trkpt lat="47.22897" lon="6.04602">
        <ele>271.6</ele>
        <time>2024-07-31T11:59:23Z</time>
      </trkpt>
      <trkpt lat="47.22897" lon="6.04605">
        <ele>271.6</ele>
        <time>2024-07-31T11:59:24Z</time>
      </trkpt>
      <trkpt lat="47.22897" lon="6.04609">
        <ele>271.8</ele>
        <time>2024-07-31T11:59:25Z</time>
      </trkpt>
      <trkpt lat="47.22898" lon="6.04612">
        <ele>272</ele>
        <time>2024-07-31T11:59:26Z</time>
      </trkpt>
      <trkpt lat="47.22898" lon="6.04615">
        <ele>272</ele>
        <time>2024-07-31T11:59:27Z</time>
      </trkpt>
      <trkpt lat="47.22898" lon="6.04619">
        <ele>272.2</ele>
        <time>2024-07-31T11:59:28Z</time>
      </trkpt>
      <trkpt lat="47.22898" lon="6.04622">
        <ele>272.4</ele>
        <time>2024-07-31T11:59:29Z</time>
      </trkpt>
      <trkpt lat="47.22898" lon="6.04625">
        <ele>272.6</ele>
        <time>2024-07-31T11:59:30Z</time>
      </trkpt>
      <trkpt lat="47.22899" lon="6.04628">
        <ele>272.8</ele>
        <time>2024-07-31T11:59:31Z</time>
      </trkpt>
      <trkpt lat="47.22899" lon="6.04631">
        <ele>273</ele>
        <time>2024-07-31T11:59:32Z</time>
      </trkpt>
      <trkpt lat="47.229" lon="6.04634">
        <ele>273</ele>
        <time>2024-07-31T11:59:33Z</time>
      </trkpt>
      <trkpt lat="47.229" lon="6.04636">
        <ele>273</ele>
        <time>2024-07-31T11:59:34Z</time>
      </trkpt>
      <trkpt lat="47.22901" lon="6.04639">
        <ele>273.4</ele>
        <time>2024-07-31T11:59:35Z</time>
      </trkpt>
      <trkpt lat="47.22901" lon="6.04642">
        <ele>273.6</ele>
        <time>2024-07-31T11:59:36Z</time>
      </trkpt>
      <trkpt lat="47.22902" lon="6.04644">
        <ele>273.8</ele>
        <time>2024-07-31T11:59:37Z</time>
      </trkpt>
      <trkpt lat="47.22902" lon="6.04647">
        <ele>274</ele>
        <time>2024-07-31T11:59:38Z</time>
      </trkpt>
      <trkpt lat="47.22903" lon="6.04649">
        <ele>274.2</ele>
        <time>2024-07-31T11:59:39Z</time>
      </trkpt>
      <trkpt lat="47.22904" lon="6.04652">
        <ele>274.6</ele>
        <time>2024-07-31T11:59:40Z</time>
      </trkpt>
      <trkpt lat="47.22905" lon="6.04654">
        <ele>274.8</ele>
        <time>2024-07-31T11:59:41Z</time>
      </trkpt>
      <trkpt lat="47.22906" lon="6.04656">
        <ele>275.2</ele>
        <time>2024-07-31T11:59:42Z</time>
      </trkpt>
      <trkpt lat="47.22907" lon="6.04658">
        <ele>275.2</ele>
        <time>2024-07-31T11:59:43Z</time>
      </trkpt>
      <trkpt lat="47.22908" lon="6.0466">
        <ele>275.8</ele>
        <time>2024-07-31T11:59:44Z</time>
      </trkpt>
      <trkpt lat="47.22909" lon="6.04662">
        <ele>276.2</ele>
        <time>2024-07-31T11:59:45Z</time>
      </trkpt>
      <trkpt lat="47.2291" lon="6.04664">
        <ele>276.2</ele>
        <time>2024-07-31T11:59:46Z</time>
      </trkpt>
      <trkpt lat="47.22911" lon="6.04667">
        <ele>276.4</ele>
        <time>2024-07-31T11:59:47Z</time>
      </trkpt>
      <trkpt lat="47.22911" lon="6.04669">
        <ele>276.6</ele>
        <time>2024-07-31T11:59:48Z</time>
      </trkpt>
      <trkpt lat="47.22912" lon="6.04671">
        <ele>277</ele>
        <time>2024-07-31T11:59:49Z</time>
      </trkpt>
      <trkpt lat="47.22912" lon="6.04674">
        <ele>277.2</ele>
        <time>2024-07-31T11:59:50Z</time>
      </trkpt>
      <trkpt lat="47.22913" lon="6.04676">
        <ele>277.6</ele>
        <time>2024-07-31T11:59:51Z</time>
      </trkpt>
      <trkpt lat="47.22914" lon="6.04677">
        <ele>277.8</ele>
        <time>2024-07-31T11:59:52Z</time>
      </trkpt>
      <trkpt lat="47.22915" lon="6.04679">
        <ele>278.2</ele>
        <time>2024-07-31T11:59:53Z</time>
      </trkpt>
      <trkpt lat="47.22916" lon="6.04681">
        <ele>278.4</ele>
        <time>2024-07-31T11:59:54Z</time>
      </trkpt>
      <trkpt lat="47.22917" lon="6.04683">
        <ele>278.8</ele>
        <time>2024-07-31T11:59:55Z</time>
      </trkpt>
      <trkpt lat="47.22917" lon="6.04685">
        <ele>279.2</ele>
        <time>2024-07-31T11:59:56Z</time>
      </trkpt>
      <trkpt lat="47.22918" lon="6.04687">
        <ele>279.4</ele>
        <time>2024-07-31T11:59:57Z</time>
      </trkpt>
      <trkpt lat="47.22919" lon="6.04689">
        <ele>279.8</ele>
        <time>2024-07-31T11:59:58Z</time>
      </trkpt>
      <trkpt lat="47.2292" lon="6.04691">
        <ele>280</ele>
        <time>2024-07-31T11:59:59Z</time>
      </trkpt>
      <trkpt lat="47.22921" lon="6.04693">
        <ele>280.4</ele>
        <time>2024-07-31T12:00:00Z</time>
      </trkpt>
      <trkpt lat="47.22921" lon="6.04695">
        <ele>280.8</ele>
        <time>2024-07-31T12:00:01Z</time>
      </trkpt>
      <trkpt lat="47.22922" lon="6.04697">
        <ele>281.2</ele>
        <time>2024-07-31T12:00:02Z</time>
      </trkpt>
      <trkpt lat="47.22923" lon="6.04699">
        <ele>281.4</ele>
        <time>2024-07-31T12:00:03Z</time>
      </trkpt>
      <trkpt lat="47.22923" lon="6.04701">
        <ele>281.6</ele>
        <time>2024-07-31T12:00:04Z</time>
      </trkpt>
      <trkpt lat="47.22924" lon="6.04703">
        <ele>282</ele>
        <time>2024-07-31T12:00:05Z</time>
      </trkpt>
      <trkpt lat="47.22925" lon="6.04705">
        <ele>282.2</ele>
        <time>2024-07-31T12:00:06Z</time>
      </trkpt>
      <trkpt lat="47.22925" lon="6.04707">
        <ele>282.6</ele>
        <time>2024-07-31T12:00:07Z</time>
      </trkpt>
      <trkpt lat="47.22927" lon="6.04708">
        <ele>282.6</ele>
        <time>2024-07-31T12:00:08Z</time>
      </trkpt>
      <trkpt lat="47.22928" lon="6.04709">
        <ele>282.8</ele>
        <time>2024-07-31T12:00:09Z</time>
      </trkpt>
      <trkpt lat="47.22929" lon="6.0471">
        <ele>283.2</ele>
        <time>2024-07-31T12:00:10Z</time>
      </trkpt>
      <trkpt lat="47.2293" lon="6.04712">
        <ele>283.4</ele>
        <time>2024-07-31T12:00:11Z</time>
      </trkpt>
      <trkpt lat="47.2293" lon="6.04714">
        <ele>283.6</ele>
        <time>2024-07-31T12:00:12Z</time>
      </trkpt>
      <trkpt lat="47.22931" lon="6.04716">
        <ele>284.2</ele>
        <time>2024-07-31T12:00:13Z</time>
      </trkpt>
      <trkpt lat="47.22931" lon="6.04718">
        <ele>284.6</ele>
        <time>2024-07-31T12:00:14Z</time>
      </trkpt>
      <trkpt lat="47.22932" lon="6.0472">
        <ele>285</ele>
        <time>2024-07-31T12:00:15Z</time>
      </trkpt>
      <trkpt lat="47.22933" lon="6.04722">
        <ele>285.4</ele>
        <time>2024-07-31T12:00:16Z</time>
      </trkpt>
      <trkpt lat="47.22934" lon="6.04723">
        <ele>285.8</ele>
        <time>2024-07-31T12:00:17Z</time>
      </trkpt>
      <trkpt lat="47.22935" lon="6.04725">
        <ele>286</ele>
        <time>2024-07-31T12:00:18Z</time>
      </trkpt>
      <trkpt lat="47.22936" lon="6.04727">
        <ele>286.2</ele>
        <time>2024-07-31T12:00:19Z</time>
      </trkpt>
      <trkpt lat="47.22936" lon="6.04729">
        <ele>286.6</ele>
        <time>2024-07-31T12:00:20Z</time>
      </trkpt>
      <trkpt lat="47.22936" lon="6.04731">
        <ele>287</ele>
        <time>2024-07-31T12:00:21Z</time>
      </trkpt>
      <trkpt lat="47.22937" lon="6.04733">
        <ele>287.2</ele>
        <time>2024-07-31T12:00:22Z</time>
      </trkpt>
      <trkpt lat="47.22938" lon="6.04734">
        <ele>287.6</ele>
        <time>2024-07-31T12:00:23Z</time>
      </trkpt>
      <trkpt lat="47.22939" lon="6.04735">
        <ele>287.8</ele>
        <time>2024-07-31T12:00:24Z</time>
      </trkpt>
      <trkpt lat="47.2294" lon="6.04737">
        <ele>288</ele>
        <time>2024-07-31T12:00:25Z</time>
      </trkpt>
      <trkpt lat="47.22941" lon="6.04738">
        <ele>288.4</ele>
        <time>2024-07-31T12:00:26Z</time>
      </trkpt>
      <trkpt lat="47.22941" lon="6.0474">
        <ele>288.6</ele>
        <time>2024-07-31T12:00:27Z</time>
      </trkpt>
      <trkpt lat="47.22942" lon="6.04742">
        <ele>288.8</ele>
        <time>2024-07-31T12:00:28Z</time>
      </trkpt>
      <trkpt lat="47.22942" lon="6.04744">
        <ele>289.2</ele>
        <time>2024-07-31T12:00:29Z</time>
      </trkpt>
      <trkpt lat="47.22942" lon="6.04746">
        <ele>289.2</ele>
        <time>2024-07-31T12:00:30Z</time>
      </trkpt>
      <trkpt lat="47.22943" lon="6.04748">
        <ele>289.4</ele>
        <time>2024-07-31T12:00:31Z</time>
      </trkpt>
      <trkpt lat="47.22943" lon="6.04749">
        <ele>289.6</ele>
        <time>2024-07-31T12:00:32Z</time>
      </trkpt>
      <trkpt lat="47.22944" lon="6.04751">
        <ele>289.8</ele>
        <time>2024-07-31T12:00:33Z</time>
      </trkpt>
      <trkpt lat="47.22945" lon="6.04752">
        <ele>290.2</ele>
        <time>2024-07-31T12:00:34Z</time>
      </trkpt>
      <trkpt lat="47.22945" lon="6.04754">
        <ele>290.4</ele>
        <time>2024-07-31T12:00:35Z</time>
      </trkpt>
      <trkpt lat="47.22945" lon="6.04756">
        <ele>290.8</ele>
        <time>2024-07-31T12:00:36Z</time>
      </trkpt>
      <trkpt lat="47.22945" lon="6.04758">
        <ele>290.8</ele>
        <time>2024-07-31T12:00:37Z</time>
      </trkpt>
      <trkpt lat="47.22946" lon="6.0476">
        <ele>291</ele>
        <time>2024-07-31T12:00:38Z</time>
      </trkpt>
      <trkpt lat="47.22947" lon="6.04762">
        <ele>291.2</ele>
        <time>2024-07-31T12:00:39Z</time>
      </trkpt>
      <trkpt lat="47.22948" lon="6.04763">
        <ele>291.6</ele>
        <time>2024-07-31T12:00:40Z</time>
      </trkpt>
      <trkpt lat="47.22949" lon="6.04765">
        <ele>291.8</ele>
        <time>2024-07-31T12:00:41Z</time>
      </trkpt>
      <trkpt lat="47.22949" lon="6.04767">
        <ele>292.2</ele>
        <time>2024-07-31T12:00:42Z</time>
      </trkpt>
      <trkpt lat="47.22949" lon="6.0477">
        <ele>292.4</ele>
        <time>2024-07-31T12:00:43Z</time>
      </trkpt>
      <trkpt lat="47.22949" lon="6.04772">
        <ele>292.4</ele>
        <time>2024-07-31T12:00:44Z</time>
      </trkpt>
      <trkpt lat="47.2295" lon="6.04774">
        <ele>292.6</ele>
        <time>2024-07-31T12:00:45Z</time>
      </trkpt>
      <trkpt lat="47.2295" lon="6.04777">
        <ele>292.8</ele>
        <time>2024-07-31T12:00:46Z</time>
      </trkpt>
      <trkpt lat="47.2295" lon="6.04779">
        <ele>292.8</ele>
        <time>2024-07-31T12:00:47Z</time>
      </trkpt>
      <trkpt lat="47.2295" lon="6.04781">
        <ele>292.8</ele>
        <time>2024-07-31T12:00:48Z</time>
      </trkpt>
      <trkpt lat="47.22951" lon="6.04784">
        <ele>293</ele>
        <time>2024-07-31T12:00:49Z</time>
      </trkpt>
      <trkpt lat="47.22951" lon="6.04786">
        <ele>293.2</ele>
        <time>2024-07-31T12:00:50Z</time>
      </trkpt>
      <trkpt lat="47.22951" lon="6.04788">
        <ele>293</ele>
        <time>2024-07-31T12:00:51Z</time>
      </trkpt>
      <trkpt lat="47.22951" lon="6.0479">
        <ele>293</ele>
        <time>2024-07-31T12:00:52Z</time>
      </trkpt>
      <trkpt lat="47.22952" lon="6.04791">
        <ele>293</ele>
        <time>2024-07-31T12:00:53Z</time>
      </trkpt>
      <trkpt lat="47.22952" lon="6.04792">
        <ele>293.4</ele>
        <time>2024-07-31T12:00:54Z</time>
      </trkpt>
      <trkpt lat="47.22952" lon="6.04792">
        <ele>293.2</ele>
        <time>2024-07-31T12:00:55Z</time>
      </trkpt>
      <trkpt lat="47.22952" lon="6.04793">
        <ele>293.4</ele>
        <time>2024-07-31T12:00:56Z</time>
      </trkpt>
      <trkpt lat="47.22953" lon="6.04793">
        <ele>293.4</ele>
        <time>2024-07-31T12:00:57Z</time>
      </trkpt>
      <trkpt lat="47.22953" lon="6.04793">
        <ele>293.4</ele>
        <time>2024-07-31T12:00:58Z</time>
      </trkpt>
      <trkpt lat="47.22952" lon="6.04793">
        <ele>293.4</ele>
        <time>2024-07-31T12:00:59Z</time>
      </trkpt>
      <trkpt lat="47.22953" lon="6.04793">
        <ele>293.8</ele>
        <time>2024-07-31T12:01:00Z</time>
      </trkpt>
      <trkpt lat="47.22952" lon="6.04793">
        <ele>293.8</ele>
        <time>2024-07-31T12:01:01Z</time>
      </trkpt>
      <trkpt lat="47.22952" lon="6.04793">
        <ele>293.4</ele>
        <time>2024-07-31T12:01:02Z</time>
      </trkpt>
      <trkpt lat="47.22952" lon="6.04793">
        <ele>293.4</ele>
        <time>2024-07-31T12:01:03Z</time>
      </trkpt>
      <trkpt lat="47.22953" lon="6.04794">
        <ele>293.6</ele>
        <time>2024-07-31T12:01:04Z</time>
      </trkpt>
      <trkpt lat="47.22953" lon="6.04793">
        <ele>293.6</ele>
        <time>2024-07-31T12:01:05Z</time>
      </trkpt>
      <trkpt lat="47.22954" lon="6.04793">
        <ele>293.8</ele>
        <time>2024-07-31T12:01:06Z</time>
      </trkpt>
      <trkpt lat="47.22954" lon="6.04793">
        <ele>293.8</ele>
        <time>2024-07-31T12:01:07Z</time>
      </trkpt>
      <trkpt lat="47.22955" lon="6.04793">
        <ele>293.8</ele>
        <time>2024-07-31T12:01:08Z</time>
      </trkpt>
      <trkpt lat="47.22955" lon="6.04793">
        <ele>293.2</ele>
        <time>2024-07-31T12:01:09Z</time>
      </trkpt>
      <trkpt lat="47.22955" lon="6.04793">
        <ele>293.6</ele>
        <time>2024-07-31T12:01:10Z</time>
      </trkpt>
      <trkpt lat="47.22955" lon="6.04793">
        <ele>293.6</ele>
        <time>2024-07-31T12:01:11Z</time>
      </trkpt>
      <trkpt lat="47.22955" lon="6.04792">
        <ele>294.2</ele>
        <time>2024-07-31T12:01:12Z</time>
      </trkpt>
      <trkpt lat="47.22955" lon="6.04792">
        <ele>294.2</ele>
        <time>2024-07-31T12:01:13Z</time>
      </trkpt>
      <trkpt lat="47.22955" lon="6.04792">
        <ele>293.8</ele>
        <time>2024-07-31T12:01:14Z</time>
      </trkpt>
      <trkpt lat="47.22956" lon="6.04792">
        <ele>293.8</ele>
        <time>2024-07-31T12:01:15Z</time>
      </trkpt>
      <trkpt lat="47.22956" lon="6.04793">
        <ele>294</ele>
        <time>2024-07-31T12:01:16Z</time>
      </trkpt>
      <trkpt lat="47.22956" lon="6.04793">
        <ele>293.8</ele>
        <time>2024-07-31T12:01:17Z</time>
      </trkpt>
      <trkpt lat="47.22956" lon="6.04793">
        <ele>293.8</ele>
        <time>2024-07-31T12:01:18Z</time>
      </trkpt>
      <trkpt lat="47.22957" lon="6.04793">
        <ele>293.8</ele>
        <time>2024-07-31T12:01:19Z</time>
      </trkpt>
      <trkpt lat="47.22957" lon="6.04793">
        <ele>293.8</ele>
        <time>2024-07-31T12:01:20Z</time>
      </trkpt>
      <trkpt lat="47.22957" lon="6.04793">
        <ele>293.8</ele>
        <time>2024-07-31T12:01:21Z</time>
      </trkpt>
      <trkpt lat="47.22957" lon="6.04793">
        <ele>293.6</ele>
        <time>2024-07-31T12:01:22Z</time>
      </trkpt>
      <trkpt lat="47.22957" lon="6.04793">
        <ele>293.8</ele>
        <time>2024-07-31T12:01:23Z</time>
      </trkpt>
      <trkpt lat="47.22957" lon="6.04793">
        <ele>293.8</ele>
        <time>2024-07-31T12:01:24Z</time>
      </trkpt>
      <trkpt lat="47.22957" lon="6.04793">
        <ele>293.8</ele>
        <time>2024-07-31T12:01:25Z</time>
      </trkpt>
      <trkpt lat="47.22957" lon="6.04793">
        <ele>293.6</ele>
        <time>2024-07-31T12:01:26Z</time>
      </trkpt>
      <trkpt lat="47.22957" lon="6.04793">
        <ele>293.6</ele>
        <time>2024-07-31T12:01:27Z</time>
      </trkpt>
      <trkpt lat="47.22957" lon="6.04793">
        <ele>293.6</ele>
        <time>2024-07-31T12:01:28Z</time>
      </trkpt>
      <trkpt lat="47.22958" lon="6.04793">
        <ele>293.8</ele>
        <time>2024-07-31T12:01:29Z</time>
      </trkpt>
      <trkpt lat="47.22958" lon="6.04793">
        <ele>293.8</ele>
        <time>2024-07-31T12:01:30Z</time>
      </trkpt>
      <trkpt lat="47.22958" lon="6.04793">
        <ele>293.8</ele>
        <time>2024-07-31T12:01:31Z</time>
      </trkpt>
      <trkpt lat="47.22958" lon="6.04793">
        <ele>293.8</ele>
        <time>2024-07-31T12:01:32Z</time>
      </trkpt>
      <trkpt lat="47.22957" lon="6.04794">
        <ele>293.8</ele>
        <time>2024-07-31T12:01:33Z</time>
      </trkpt>
      <trkpt lat="47.22957" lon="6.04794">
        <ele>293.8</ele>
        <time>2024-07-31T12:01:34Z</time>
      </trkpt>
      <trkpt lat="47.22957" lon="6.04793">
        <ele>293.8</ele>
        <time>2024-07-31T12:01:35Z</time>
      </trkpt>
      <trkpt lat="47.22956" lon="6.04794">
        <ele>293.8</ele>
        <time>2024-07-31T12:01:36Z</time>
      </trkpt>
      <trkpt lat="47.22956" lon="6.04794">
        <ele>293.8</ele>
        <time>2024-07-31T12:01:37Z</time>
      </trkpt>
      <trkpt lat="47.22956" lon="6.04795">
        <ele>293.8</ele>
        <time>2024-07-31T12:01:38Z</time>
      </trkpt>
      <trkpt lat="47.22956" lon="6.04795">
        <ele>293.6</ele>
        <time>2024-07-31T12:01:39Z</time>
      </trkpt>
      <trkpt lat="47.22957" lon="6.04794">
        <ele>293.6</ele>
        <time>2024-07-31T12:01:40Z</time>
      </trkpt>
      <trkpt lat="47.22957" lon="6.04793">
        <ele>293.8</ele>
        <time>2024-07-31T12:01:41Z</time>
      </trkpt>
      <trkpt lat="47.22957" lon="6.0479">
        <ele>294</ele>
        <time>2024-07-31T12:01:42Z</time>
      </trkpt>
      <trkpt lat="47.22957" lon="6.04788">
        <ele>294</ele>
        <time>2024-07-31T12:01:43Z</time>
      </trkpt>
      <trkpt lat="47.22958" lon="6.04785">
        <ele>293.8</ele>
        <time>2024-07-31T12:01:44Z</time>
      </trkpt>
      <trkpt lat="47.22959" lon="6.04782">
        <ele>294</ele>
        <time>2024-07-31T12:01:45Z</time>
      </trkpt>
      <trkpt lat="47.22959" lon="6.0478">
        <ele>294</ele>
        <time>2024-07-31T12:01:46Z</time>
      </trkpt>
      <trkpt lat="47.2296" lon="6.04777">
        <ele>294</ele>
        <time>2024-07-31T12:01:47Z</time>
      </trkpt>
      <trkpt lat="47.2296" lon="6.04775">
        <ele>294</ele>
        <time>2024-07-31T12:01:48Z</time>
      </trkpt>
      <trkpt lat="47.2296" lon="6.04773">
        <ele>294</ele>
        <time>2024-07-31T12:01:49Z</time>
      </trkpt>
      <trkpt lat="47.2296" lon="6.04774">
        <ele>294</ele>
        <time>2024-07-31T12:01:50Z</time>
      </trkpt>
      <trkpt lat="47.22958" lon="6.04771">
        <ele>294.2</ele>
        <time>2024-07-31T12:01:51Z</time>
      </trkpt>
      <trkpt lat="47.22958" lon="6.04772">
        <ele>294.2</ele>
        <time>2024-07-31T12:01:52Z</time>
      </trkpt>
      <trkpt lat="47.22958" lon="6.04772">
        <ele>294.2</ele>
        <time>2024-07-31T12:01:53Z</time>
      </trkpt>
      <trkpt lat="47.22959" lon="6.04771">
        <ele>294.2</ele>
        <time>2024-07-31T12:01:54Z</time>
      </trkpt>
      <trkpt lat="47.22959" lon="6.04772">
        <ele>294.2</ele>
        <time>2024-07-31T12:01:55Z</time>
      </trkpt>
      <trkpt lat="47.22958" lon="6.04774">
        <ele>294.2</ele>
        <time>2024-07-31T12:01:56Z</time>
      </trkpt>
      <trkpt lat="47.22957" lon="6.04777">
        <ele>294.2</ele>
        <time>2024-07-31T12:01:57Z</time>
      </trkpt>
      <trkpt lat="47.22956" lon="6.04778">
        <ele>294.2</ele>
        <time>2024-07-31T12:01:58Z</time>
      </trkpt>
      <trkpt lat="47.22957" lon="6.04778">
        <ele>294.2</ele>
        <time>2024-07-31T12:01:59Z</time>
      </trkpt>
      <trkpt lat="47.22958" lon="6.04778">
        <ele>294.2</ele>
        <time>2024-07-31T12:02:00Z</time>
      </trkpt>
      <trkpt lat="47.22959" lon="6.04777">
        <ele>294.2</ele>
        <time>2024-07-31T12:02:01Z</time>
      </trkpt>
      <trkpt lat="47.2296" lon="6.04775">
        <ele>294</ele>
        <time>2024-07-31T12:02:05Z</time>
      </trkpt>
      <trkpt lat="47.2296" lon="6.04773">
        <ele>293.8</ele>
        <time>2024-07-31T12:02:06Z</time>
      </trkpt>
      <trkpt lat="47.22959" lon="6.04776">
        <ele>294</ele>
        <time>2024-07-31T12:02:07Z</time>
      </trkpt>
      <trkpt lat="47.22959" lon="6.04775">
        <ele>294</ele>
        <time>2024-07-31T12:02:09Z</time>
      </trkpt>
      <trkpt lat="47.22966" lon="6.04763">
        <ele>293.8</ele>
        <time>2024-07-31T12:02:10Z</time>
      </trkpt>
      <trkpt lat="47.22967" lon="6.04761">
        <ele>294</ele>
        <time>2024-07-31T12:02:11Z</time>
      </trkpt>
      <trkpt lat="47.22969" lon="6.04759">
        <ele>294</ele>
        <time>2024-07-31T12:02:12Z</time>
      </trkpt>
      <trkpt lat="47.22972" lon="6.04754">
        <ele>294</ele>
        <time>2024-07-31T12:02:13Z</time>
      </trkpt>
      <trkpt lat="47.22973" lon="6.04751">
        <ele>294</ele>
        <time>2024-07-31T12:02:14Z</time>
      </trkpt>
      <trkpt lat="47.22975" lon="6.04746">
        <ele>294</ele>
        <time>2024-07-31T12:02:15Z</time>
      </trkpt>
      <trkpt lat="47.22975" lon="6.04747">
        <ele>294</ele>
        <time>2024-07-31T12:02:16Z</time>
      </trkpt>
      <trkpt lat="47.22977" lon="6.04746">
        <ele>294</ele>
        <time>2024-07-31T12:02:17Z</time>
      </trkpt>
      <trkpt lat="47.22978" lon="6.04745">
        <ele>294.2</ele>
        <time>2024-07-31T12:02:18Z</time>
      </trkpt>
      <trkpt lat="47.2298" lon="6.04741">
        <ele>294</ele>
        <time>2024-07-31T12:02:19Z</time>
      </trkpt>
      <trkpt lat="47.22982" lon="6.04739">
        <ele>294</ele>
        <time>2024-07-31T12:02:20Z</time>
      </trkpt>
      <trkpt lat="47.22984" lon="6.04736">
        <ele>294</ele>
        <time>2024-07-31T12:02:21Z</time>
      </trkpt>
      <trkpt lat="47.22987" lon="6.04734">
        <ele>294.2</ele>
        <time>2024-07-31T12:02:22Z</time>
      </trkpt>
      <trkpt lat="47.22989" lon="6.04729">
        <ele>294.2</ele>
        <time>2024-07-31T12:02:23Z</time>
      </trkpt>
      <trkpt lat="47.22992" lon="6.04724">
        <ele>294.2</ele>
        <time>2024-07-31T12:02:24Z</time>
      </trkpt>
      <trkpt lat="47.22996" lon="6.04719">
        <ele>294.2</ele>
        <time>2024-07-31T12:02:25Z</time>
      </trkpt>
      <trkpt lat="47.22999" lon="6.04715">
        <ele>294</ele>
        <time>2024-07-31T12:02:26Z</time>
      </trkpt>
      <trkpt lat="47.23001" lon="6.04711">
        <ele>294</ele>
        <time>2024-07-31T12:02:27Z</time>
      </trkpt>
      <trkpt lat="47.23005" lon="6.04707">
        <ele>294</ele>
        <time>2024-07-31T12:02:28Z</time>
      </trkpt>
      <trkpt lat="47.23009" lon="6.04702">
        <ele>294</ele>
        <time>2024-07-31T12:02:29Z</time>
      </trkpt>
      <trkpt lat="47.23011" lon="6.04701">
        <ele>294</ele>
        <time>2024-07-31T12:02:30Z</time>
      </trkpt>
      <trkpt lat="47.23014" lon="6.04701">
        <ele>294</ele>
        <time>2024-07-31T12:02:31Z</time>
      </trkpt>
      <trkpt lat="47.23017" lon="6.04701">
        <ele>294</ele>
        <time>2024-07-31T12:02:35Z</time>
      </trkpt>
      <trkpt lat="47.2302" lon="6.04698">
        <ele>293.8</ele>
        <time>2024-07-31T12:02:36Z</time>
      </trkpt>
      <trkpt lat="47.23021" lon="6.04693">
        <ele>294</ele>
        <time>2024-07-31T12:02:37Z</time>
      </trkpt>
      <trkpt lat="47.23022" lon="6.0469">
        <ele>294</ele>
        <time>2024-07-31T12:02:38Z</time>
      </trkpt>
      <trkpt lat="47.23021" lon="6.04687">
        <ele>294</ele>
        <time>2024-07-31T12:02:39Z</time>
      </trkpt>
      <trkpt lat="47.23023" lon="6.04685">
        <ele>294</ele>
        <time>2024-07-31T12:02:40Z</time>
      </trkpt>
      <trkpt lat="47.23025" lon="6.0468">
        <ele>294</ele>
        <time>2024-07-31T12:02:41Z</time>
      </trkpt>
      <trkpt lat="47.23026" lon="6.0468">
        <ele>293.8</ele>
        <time>2024-07-31T12:02:42Z</time>
      </trkpt>
      <trkpt lat="47.23027" lon="6.04681">
        <ele>294</ele>
        <time>2024-07-31T12:02:44Z</time>
      </trkpt>
      <trkpt lat="47.23021" lon="6.04679">
        <ele>293.8</ele>
        <time>2024-07-31T12:02:56Z</time>
      </trkpt>
      <trkpt lat="47.23021" lon="6.04679">
        <ele>294</ele>
        <time>2024-07-31T12:02:57Z</time>
      </trkpt>
      <trkpt lat="47.23021" lon="6.04679">
        <ele>294</ele>
        <time>2024-07-31T12:02:58Z</time>
      </trkpt>
      <trkpt lat="47.23021" lon="6.04679">
        <ele>294</ele>
        <time>2024-07-31T12:02:59Z</time>
      </trkpt>
      <trkpt lat="47.23021" lon="6.04679">
        <ele>294</ele>
        <time>2024-07-31T12:03:00Z</time>
      </trkpt>
      <trkpt lat="47.23021" lon="6.04679">
        <ele>294</ele>
        <time>2024-07-31T12:03:01Z</time>
      </trkpt>
      <trkpt lat="47.23021" lon="6.04679">
        <ele>294</ele>
        <time>2024-07-31T12:03:02Z</time>
      </trkpt>
      <trkpt lat="47.23021" lon="6.04679">
        <ele>294</ele>
        <time>2024-07-31T12:03:07Z</time>
      </trkpt>
      <trkpt lat="47.23021" lon="6.04679">
        <ele>294.2</ele>
        <time>2024-07-31T12:03:08Z</time>
      </trkpt>
      <trkpt lat="47.23021" lon="6.04679">
        <ele>294.2</ele>
        <time>2024-07-31T12:03:09Z</time>
      </trkpt>
      <trkpt lat="47.23021" lon="6.04679">
        <ele>294.2</ele>
        <time>2024-07-31T12:03:10Z</time>
      </trkpt>
      <trkpt lat="47.23021" lon="6.04679">
        <ele>294</ele>
        <time>2024-07-31T12:03:11Z</time>
      </trkpt>
      <trkpt lat="47.23021" lon="6.04679">
        <ele>294.2</ele>
        <time>2024-07-31T12:03:12Z</time>
      </trkpt>
      <trkpt lat="47.23021" lon="6.04679">
        <ele>294.2</ele>
        <time>2024-07-31T12:03:13Z</time>
      </trkpt>
      <trkpt lat="47.23021" lon="6.04679">
        <ele>294.2</ele>
        <time>2024-07-31T12:03:14Z</time>
      </trkpt>
      <trkpt lat="47.23021" lon="6.04679">
        <ele>294.4</ele>
        <time>2024-07-31T12:03:15Z</time>
      </trkpt>
      <trkpt lat="47.23021" lon="6.04679">
        <ele>294.2</ele>
        <time>2024-07-31T12:03:16Z</time>
      </trkpt>
    </trkseg>
  </trk>
</gpx>